<?xml version="1.0" encoding="UTF-8" standalone="no" ?>
<gpx xmlns="http://www.topografix.com/GPX/1/1" xmlns:xsi="http://www.w3.org/2001/XMLSchema-instance" xsi:schemaLocation="http://www.topografix.com/GPX/1/1 http://www.topografix.com/GPX/1/1/gpx.xsd" version="1.1" creator="VisuGPX - https://www.visugpx.com">
  <metadata>
    <name>2018-07-24 Bike ride-Georges de Reneins O v50k</name>
    <desc><![CDATA[2018-07-24 Bike ride-Georges de Reneins O v50k]]></desc>
  </metadata>
  <wpt lat="45.92455" lon="4.73707">
    <ele>174</ele>
    <name><![CDATA[2018-07-24 10:15 (Start)]]></name>
  </wpt>
  <wpt lat="45.92465" lon="4.73714">
    <ele>174</ele>
    <name><![CDATA[2018-07-24 10:15 (End)]]></name>
  </wpt>
  <trk>
    <name><![CDATA[2018-07-24 10:15]]></name>
    <trkseg>
      <trkpt lat="45.92455" lon="4.73707">
        <ele>174</ele>
        <time>2018-07-24T08:15:21.857Z</time>
      </trkpt>
      <trkpt lat="45.92455" lon="4.73708">
        <ele>174</ele>
        <time>2018-07-24T08:15:39Z</time>
      </trkpt>
      <trkpt lat="45.92455" lon="4.73708">
        <ele>174</ele>
        <time>2018-07-24T08:15:40Z</time>
      </trkpt>
      <trkpt lat="45.92455" lon="4.73708">
        <ele>174</ele>
        <time>2018-07-24T08:15:41Z</time>
      </trkpt>
      <trkpt lat="45.92455" lon="4.73708">
        <ele>174</ele>
        <time>2018-07-24T08:15:42Z</time>
      </trkpt>
      <trkpt lat="45.92462" lon="4.73699">
        <ele>174</ele>
        <time>2018-07-24T08:15:52Z</time>
      </trkpt>
      <trkpt lat="45.92462" lon="4.73697">
        <ele>174</ele>
        <time>2018-07-24T08:15:53Z</time>
      </trkpt>
      <trkpt lat="45.92464" lon="4.73685">
        <ele>174</ele>
        <time>2018-07-24T08:15:56Z</time>
      </trkpt>
      <trkpt lat="45.92464" lon="4.7368">
        <ele>174</ele>
        <time>2018-07-24T08:15:57Z</time>
      </trkpt>
      <trkpt lat="45.92464" lon="4.73672">
        <ele>174</ele>
        <time>2018-07-24T08:15:59Z</time>
      </trkpt>
      <trkpt lat="45.92465" lon="4.73659">
        <ele>174</ele>
        <time>2018-07-24T08:16:00Z</time>
      </trkpt>
      <trkpt lat="45.92467" lon="4.73649">
        <ele>174</ele>
        <time>2018-07-24T08:16:02Z</time>
      </trkpt>
      <trkpt lat="45.92468" lon="4.73643">
        <ele>174</ele>
        <time>2018-07-24T08:16:03Z</time>
      </trkpt>
      <trkpt lat="45.92469" lon="4.73632">
        <ele>174</ele>
        <time>2018-07-24T08:16:05Z</time>
      </trkpt>
      <trkpt lat="45.92467" lon="4.73625">
        <ele>174</ele>
        <time>2018-07-24T08:16:06Z</time>
      </trkpt>
      <trkpt lat="45.92467" lon="4.73618">
        <ele>174</ele>
        <time>2018-07-24T08:16:07Z</time>
      </trkpt>
      <trkpt lat="45.92466" lon="4.73611">
        <ele>174</ele>
        <time>2018-07-24T08:16:08Z</time>
      </trkpt>
      <trkpt lat="45.92466" lon="4.73599">
        <ele>174</ele>
        <time>2018-07-24T08:16:10Z</time>
      </trkpt>
      <trkpt lat="45.92465" lon="4.73592">
        <ele>174</ele>
        <time>2018-07-24T08:16:11Z</time>
      </trkpt>
      <trkpt lat="45.92463" lon="4.73586">
        <ele>174</ele>
        <time>2018-07-24T08:16:12Z</time>
      </trkpt>
      <trkpt lat="45.92463" lon="4.7358">
        <ele>173</ele>
        <time>2018-07-24T08:16:13Z</time>
      </trkpt>
      <trkpt lat="45.92462" lon="4.73568">
        <ele>173</ele>
        <time>2018-07-24T08:16:15Z</time>
      </trkpt>
      <trkpt lat="45.92463" lon="4.73562">
        <ele>173</ele>
        <time>2018-07-24T08:16:16Z</time>
      </trkpt>
      <trkpt lat="45.92465" lon="4.73552">
        <ele>173</ele>
        <time>2018-07-24T08:16:18Z</time>
      </trkpt>
      <trkpt lat="45.92465" lon="4.73549">
        <ele>173</ele>
        <time>2018-07-24T08:16:19Z</time>
      </trkpt>
      <trkpt lat="45.92466" lon="4.73544">
        <ele>173</ele>
        <time>2018-07-24T08:16:21Z</time>
      </trkpt>
      <trkpt lat="45.92467" lon="4.73534">
        <ele>174</ele>
        <time>2018-07-24T08:16:22Z</time>
      </trkpt>
      <trkpt lat="45.92466" lon="4.73523">
        <ele>174</ele>
        <time>2018-07-24T08:16:24Z</time>
      </trkpt>
      <trkpt lat="45.92464" lon="4.73517">
        <ele>174</ele>
        <time>2018-07-24T08:16:25Z</time>
      </trkpt>
      <trkpt lat="45.92463" lon="4.73509">
        <ele>174</ele>
        <time>2018-07-24T08:16:26Z</time>
      </trkpt>
      <trkpt lat="45.92464" lon="4.73502">
        <ele>174</ele>
        <time>2018-07-24T08:16:27Z</time>
      </trkpt>
      <trkpt lat="45.92464" lon="4.73494">
        <ele>173</ele>
        <time>2018-07-24T08:16:28Z</time>
      </trkpt>
      <trkpt lat="45.92464" lon="4.73486">
        <ele>173</ele>
        <time>2018-07-24T08:16:29Z</time>
      </trkpt>
      <trkpt lat="45.92465" lon="4.73478">
        <ele>173</ele>
        <time>2018-07-24T08:16:30Z</time>
      </trkpt>
      <trkpt lat="45.92464" lon="4.73471">
        <ele>173</ele>
        <time>2018-07-24T08:16:31Z</time>
      </trkpt>
      <trkpt lat="45.92465" lon="4.73464">
        <ele>173</ele>
        <time>2018-07-24T08:16:32Z</time>
      </trkpt>
      <trkpt lat="45.92466" lon="4.73456">
        <ele>173</ele>
        <time>2018-07-24T08:16:33Z</time>
      </trkpt>
      <trkpt lat="45.92463" lon="4.7345">
        <ele>173</ele>
        <time>2018-07-24T08:16:34Z</time>
      </trkpt>
      <trkpt lat="45.92461" lon="4.73442">
        <ele>173</ele>
        <time>2018-07-24T08:16:35Z</time>
      </trkpt>
      <trkpt lat="45.92459" lon="4.73435">
        <ele>173</ele>
        <time>2018-07-24T08:16:36Z</time>
      </trkpt>
      <trkpt lat="45.92454" lon="4.7343">
        <ele>173</ele>
        <time>2018-07-24T08:16:37Z</time>
      </trkpt>
      <trkpt lat="45.92451" lon="4.73425">
        <ele>173</ele>
        <time>2018-07-24T08:16:38Z</time>
      </trkpt>
      <trkpt lat="45.92447" lon="4.73419">
        <ele>173</ele>
        <time>2018-07-24T08:16:39Z</time>
      </trkpt>
      <trkpt lat="45.92439" lon="4.73413">
        <ele>172</ele>
        <time>2018-07-24T08:16:41Z</time>
      </trkpt>
      <trkpt lat="45.92437" lon="4.73411">
        <ele>172</ele>
        <time>2018-07-24T08:16:42Z</time>
      </trkpt>
      <trkpt lat="45.92432" lon="4.73409">
        <ele>172</ele>
        <time>2018-07-24T08:16:43Z</time>
      </trkpt>
      <trkpt lat="45.92429" lon="4.73405">
        <ele>172</ele>
        <time>2018-07-24T08:16:44Z</time>
      </trkpt>
      <trkpt lat="45.92424" lon="4.73395">
        <ele>172</ele>
        <time>2018-07-24T08:16:46Z</time>
      </trkpt>
      <trkpt lat="45.92421" lon="4.73387">
        <ele>172</ele>
        <time>2018-07-24T08:16:47Z</time>
      </trkpt>
      <trkpt lat="45.9242" lon="4.7338">
        <ele>172</ele>
        <time>2018-07-24T08:16:48Z</time>
      </trkpt>
      <trkpt lat="45.92419" lon="4.73372">
        <ele>172</ele>
        <time>2018-07-24T08:16:49Z</time>
      </trkpt>
      <trkpt lat="45.92418" lon="4.73364">
        <ele>172</ele>
        <time>2018-07-24T08:16:50Z</time>
      </trkpt>
      <trkpt lat="45.92417" lon="4.73358">
        <ele>171</ele>
        <time>2018-07-24T08:16:51Z</time>
      </trkpt>
      <trkpt lat="45.92418" lon="4.7335">
        <ele>171</ele>
        <time>2018-07-24T08:16:52Z</time>
      </trkpt>
      <trkpt lat="45.92416" lon="4.73342">
        <ele>171</ele>
        <time>2018-07-24T08:16:53Z</time>
      </trkpt>
      <trkpt lat="45.92416" lon="4.73335">
        <ele>171</ele>
        <time>2018-07-24T08:16:54Z</time>
      </trkpt>
      <trkpt lat="45.92415" lon="4.73328">
        <ele>171</ele>
        <time>2018-07-24T08:16:55Z</time>
      </trkpt>
      <trkpt lat="45.92414" lon="4.73321">
        <ele>171</ele>
        <time>2018-07-24T08:16:56Z</time>
      </trkpt>
      <trkpt lat="45.92414" lon="4.73314">
        <ele>171</ele>
        <time>2018-07-24T08:16:57Z</time>
      </trkpt>
      <trkpt lat="45.92413" lon="4.73305">
        <ele>171</ele>
        <time>2018-07-24T08:16:58Z</time>
      </trkpt>
      <trkpt lat="45.92413" lon="4.73298">
        <ele>171</ele>
        <time>2018-07-24T08:16:59Z</time>
      </trkpt>
      <trkpt lat="45.92413" lon="4.73291">
        <ele>171</ele>
        <time>2018-07-24T08:17:00Z</time>
      </trkpt>
      <trkpt lat="45.92412" lon="4.73284">
        <ele>171</ele>
        <time>2018-07-24T08:17:01Z</time>
      </trkpt>
      <trkpt lat="45.92411" lon="4.73276">
        <ele>171</ele>
        <time>2018-07-24T08:17:02Z</time>
      </trkpt>
      <trkpt lat="45.92411" lon="4.73268">
        <ele>171</ele>
        <time>2018-07-24T08:17:03Z</time>
      </trkpt>
      <trkpt lat="45.92411" lon="4.7326">
        <ele>171</ele>
        <time>2018-07-24T08:17:04Z</time>
      </trkpt>
      <trkpt lat="45.92413" lon="4.73253">
        <ele>171</ele>
        <time>2018-07-24T08:17:05Z</time>
      </trkpt>
      <trkpt lat="45.92411" lon="4.73244">
        <ele>171</ele>
        <time>2018-07-24T08:17:06Z</time>
      </trkpt>
      <trkpt lat="45.92415" lon="4.73235">
        <ele>171</ele>
        <time>2018-07-24T08:17:07Z</time>
      </trkpt>
      <trkpt lat="45.92412" lon="4.73226">
        <ele>171</ele>
        <time>2018-07-24T08:17:08Z</time>
      </trkpt>
      <trkpt lat="45.92411" lon="4.73218">
        <ele>171</ele>
        <time>2018-07-24T08:17:09Z</time>
      </trkpt>
      <trkpt lat="45.92409" lon="4.7321">
        <ele>171</ele>
        <time>2018-07-24T08:17:10Z</time>
      </trkpt>
      <trkpt lat="45.92409" lon="4.73201">
        <ele>171</ele>
        <time>2018-07-24T08:17:11Z</time>
      </trkpt>
      <trkpt lat="45.92409" lon="4.73193">
        <ele>171</ele>
        <time>2018-07-24T08:17:12Z</time>
      </trkpt>
      <trkpt lat="45.92408" lon="4.73184">
        <ele>171</ele>
        <time>2018-07-24T08:17:13Z</time>
      </trkpt>
      <trkpt lat="45.92407" lon="4.73175">
        <ele>170</ele>
        <time>2018-07-24T08:17:14Z</time>
      </trkpt>
      <trkpt lat="45.92407" lon="4.73167">
        <ele>170</ele>
        <time>2018-07-24T08:17:15Z</time>
      </trkpt>
      <trkpt lat="45.92407" lon="4.7316">
        <ele>170</ele>
        <time>2018-07-24T08:17:16Z</time>
      </trkpt>
      <trkpt lat="45.92407" lon="4.73153">
        <ele>171</ele>
        <time>2018-07-24T08:17:17Z</time>
      </trkpt>
      <trkpt lat="45.92408" lon="4.73146">
        <ele>171</ele>
        <time>2018-07-24T08:17:18Z</time>
      </trkpt>
      <trkpt lat="45.92409" lon="4.73138">
        <ele>171</ele>
        <time>2018-07-24T08:17:19Z</time>
      </trkpt>
      <trkpt lat="45.92409" lon="4.73131">
        <ele>171</ele>
        <time>2018-07-24T08:17:20Z</time>
      </trkpt>
      <trkpt lat="45.9241" lon="4.73125">
        <ele>171</ele>
        <time>2018-07-24T08:17:21Z</time>
      </trkpt>
      <trkpt lat="45.92415" lon="4.73114">
        <ele>171</ele>
        <time>2018-07-24T08:17:23Z</time>
      </trkpt>
      <trkpt lat="45.92418" lon="4.7311">
        <ele>170</ele>
        <time>2018-07-24T08:17:24Z</time>
      </trkpt>
      <trkpt lat="45.92423" lon="4.73106">
        <ele>171</ele>
        <time>2018-07-24T08:17:25Z</time>
      </trkpt>
      <trkpt lat="45.92428" lon="4.73101">
        <ele>171</ele>
        <time>2018-07-24T08:17:26Z</time>
      </trkpt>
      <trkpt lat="45.92433" lon="4.73095">
        <ele>171</ele>
        <time>2018-07-24T08:17:27Z</time>
      </trkpt>
      <trkpt lat="45.92437" lon="4.73092">
        <ele>171</ele>
        <time>2018-07-24T08:17:28Z</time>
      </trkpt>
      <trkpt lat="45.92442" lon="4.73087">
        <ele>170</ele>
        <time>2018-07-24T08:17:29Z</time>
      </trkpt>
      <trkpt lat="45.92447" lon="4.73083">
        <ele>170</ele>
        <time>2018-07-24T08:17:30Z</time>
      </trkpt>
      <trkpt lat="45.92452" lon="4.73079">
        <ele>170</ele>
        <time>2018-07-24T08:17:31Z</time>
      </trkpt>
      <trkpt lat="45.92456" lon="4.73075">
        <ele>170</ele>
        <time>2018-07-24T08:17:32Z</time>
      </trkpt>
      <trkpt lat="45.92461" lon="4.7307">
        <ele>170</ele>
        <time>2018-07-24T08:17:33Z</time>
      </trkpt>
      <trkpt lat="45.92466" lon="4.73067">
        <ele>170</ele>
        <time>2018-07-24T08:17:34Z</time>
      </trkpt>
      <trkpt lat="45.92472" lon="4.73063">
        <ele>170</ele>
        <time>2018-07-24T08:17:35Z</time>
      </trkpt>
      <trkpt lat="45.92477" lon="4.73058">
        <ele>170</ele>
        <time>2018-07-24T08:17:36Z</time>
      </trkpt>
      <trkpt lat="45.92482" lon="4.73053">
        <ele>170</ele>
        <time>2018-07-24T08:17:37Z</time>
      </trkpt>
      <trkpt lat="45.92488" lon="4.73046">
        <ele>170</ele>
        <time>2018-07-24T08:17:38Z</time>
      </trkpt>
      <trkpt lat="45.92493" lon="4.73043">
        <ele>170</ele>
        <time>2018-07-24T08:17:39Z</time>
      </trkpt>
      <trkpt lat="45.92498" lon="4.73038">
        <ele>170</ele>
        <time>2018-07-24T08:17:40Z</time>
      </trkpt>
      <trkpt lat="45.92502" lon="4.73033">
        <ele>169</ele>
        <time>2018-07-24T08:17:41Z</time>
      </trkpt>
      <trkpt lat="45.92507" lon="4.73029">
        <ele>169</ele>
        <time>2018-07-24T08:17:42Z</time>
      </trkpt>
      <trkpt lat="45.92513" lon="4.73025">
        <ele>169</ele>
        <time>2018-07-24T08:17:43Z</time>
      </trkpt>
      <trkpt lat="45.92519" lon="4.7302">
        <ele>169</ele>
        <time>2018-07-24T08:17:44Z</time>
      </trkpt>
      <trkpt lat="45.92523" lon="4.73016">
        <ele>169</ele>
        <time>2018-07-24T08:17:45Z</time>
      </trkpt>
      <trkpt lat="45.92527" lon="4.73011">
        <ele>169</ele>
        <time>2018-07-24T08:17:46Z</time>
      </trkpt>
      <trkpt lat="45.92532" lon="4.73006">
        <ele>169</ele>
        <time>2018-07-24T08:17:47Z</time>
      </trkpt>
      <trkpt lat="45.92537" lon="4.73002">
        <ele>169</ele>
        <time>2018-07-24T08:17:48Z</time>
      </trkpt>
      <trkpt lat="45.92542" lon="4.72998">
        <ele>169</ele>
        <time>2018-07-24T08:17:49Z</time>
      </trkpt>
      <trkpt lat="45.92547" lon="4.72994">
        <ele>169</ele>
        <time>2018-07-24T08:17:50Z</time>
      </trkpt>
      <trkpt lat="45.92552" lon="4.72989">
        <ele>169</ele>
        <time>2018-07-24T08:17:51Z</time>
      </trkpt>
      <trkpt lat="45.92557" lon="4.72984">
        <ele>169</ele>
        <time>2018-07-24T08:17:52Z</time>
      </trkpt>
      <trkpt lat="45.92562" lon="4.7298">
        <ele>169</ele>
        <time>2018-07-24T08:17:53Z</time>
      </trkpt>
      <trkpt lat="45.92567" lon="4.72974">
        <ele>169</ele>
        <time>2018-07-24T08:17:54Z</time>
      </trkpt>
      <trkpt lat="45.92571" lon="4.7297">
        <ele>169</ele>
        <time>2018-07-24T08:17:55Z</time>
      </trkpt>
      <trkpt lat="45.92577" lon="4.72965">
        <ele>169</ele>
        <time>2018-07-24T08:17:56Z</time>
      </trkpt>
      <trkpt lat="45.92581" lon="4.72961">
        <ele>169</ele>
        <time>2018-07-24T08:17:57Z</time>
      </trkpt>
      <trkpt lat="45.92586" lon="4.72956">
        <ele>169</ele>
        <time>2018-07-24T08:17:58Z</time>
      </trkpt>
      <trkpt lat="45.9259" lon="4.72951">
        <ele>169</ele>
        <time>2018-07-24T08:17:59Z</time>
      </trkpt>
      <trkpt lat="45.92593" lon="4.72946">
        <ele>169</ele>
        <time>2018-07-24T08:18:00Z</time>
      </trkpt>
      <trkpt lat="45.92597" lon="4.72941">
        <ele>169</ele>
        <time>2018-07-24T08:18:01Z</time>
      </trkpt>
      <trkpt lat="45.926" lon="4.72937">
        <ele>169</ele>
        <time>2018-07-24T08:18:02Z</time>
      </trkpt>
      <trkpt lat="45.92605" lon="4.72933">
        <ele>169</ele>
        <time>2018-07-24T08:18:03Z</time>
      </trkpt>
      <trkpt lat="45.92608" lon="4.72929">
        <ele>169</ele>
        <time>2018-07-24T08:18:04Z</time>
      </trkpt>
      <trkpt lat="45.92612" lon="4.72924">
        <ele>169</ele>
        <time>2018-07-24T08:18:05Z</time>
      </trkpt>
      <trkpt lat="45.92617" lon="4.7292">
        <ele>169</ele>
        <time>2018-07-24T08:18:06Z</time>
      </trkpt>
      <trkpt lat="45.92621" lon="4.72915">
        <ele>169</ele>
        <time>2018-07-24T08:18:07Z</time>
      </trkpt>
      <trkpt lat="45.92626" lon="4.72911">
        <ele>169</ele>
        <time>2018-07-24T08:18:08Z</time>
      </trkpt>
      <trkpt lat="45.9263" lon="4.72907">
        <ele>169</ele>
        <time>2018-07-24T08:18:09Z</time>
      </trkpt>
      <trkpt lat="45.92634" lon="4.72904">
        <ele>169</ele>
        <time>2018-07-24T08:18:10Z</time>
      </trkpt>
      <trkpt lat="45.92639" lon="4.729">
        <ele>169</ele>
        <time>2018-07-24T08:18:11Z</time>
      </trkpt>
      <trkpt lat="45.92644" lon="4.72896">
        <ele>169</ele>
        <time>2018-07-24T08:18:12Z</time>
      </trkpt>
      <trkpt lat="45.92649" lon="4.72892">
        <ele>169</ele>
        <time>2018-07-24T08:18:13Z</time>
      </trkpt>
      <trkpt lat="45.92654" lon="4.72887">
        <ele>169</ele>
        <time>2018-07-24T08:18:14Z</time>
      </trkpt>
      <trkpt lat="45.9266" lon="4.72884">
        <ele>169</ele>
        <time>2018-07-24T08:18:15Z</time>
      </trkpt>
      <trkpt lat="45.92664" lon="4.7288">
        <ele>169</ele>
        <time>2018-07-24T08:18:16Z</time>
      </trkpt>
      <trkpt lat="45.9267" lon="4.72875">
        <ele>170</ele>
        <time>2018-07-24T08:18:17Z</time>
      </trkpt>
      <trkpt lat="45.92674" lon="4.72871">
        <ele>169</ele>
        <time>2018-07-24T08:18:18Z</time>
      </trkpt>
      <trkpt lat="45.92679" lon="4.72868">
        <ele>169</ele>
        <time>2018-07-24T08:18:19Z</time>
      </trkpt>
      <trkpt lat="45.92684" lon="4.72865">
        <ele>169</ele>
        <time>2018-07-24T08:18:20Z</time>
      </trkpt>
      <trkpt lat="45.9269" lon="4.72859">
        <ele>169</ele>
        <time>2018-07-24T08:18:21Z</time>
      </trkpt>
      <trkpt lat="45.92694" lon="4.72855">
        <ele>169</ele>
        <time>2018-07-24T08:18:22Z</time>
      </trkpt>
      <trkpt lat="45.927" lon="4.7285">
        <ele>169</ele>
        <time>2018-07-24T08:18:23Z</time>
      </trkpt>
      <trkpt lat="45.92705" lon="4.72846">
        <ele>169</ele>
        <time>2018-07-24T08:18:24Z</time>
      </trkpt>
      <trkpt lat="45.9271" lon="4.72842">
        <ele>169</ele>
        <time>2018-07-24T08:18:25Z</time>
      </trkpt>
      <trkpt lat="45.92715" lon="4.72837">
        <ele>169</ele>
        <time>2018-07-24T08:18:26Z</time>
      </trkpt>
      <trkpt lat="45.92722" lon="4.72834">
        <ele>169</ele>
        <time>2018-07-24T08:18:27Z</time>
      </trkpt>
      <trkpt lat="45.92728" lon="4.72829">
        <ele>170</ele>
        <time>2018-07-24T08:18:28Z</time>
      </trkpt>
      <trkpt lat="45.92734" lon="4.72825">
        <ele>169</ele>
        <time>2018-07-24T08:18:29Z</time>
      </trkpt>
      <trkpt lat="45.9274" lon="4.7282">
        <ele>169</ele>
        <time>2018-07-24T08:18:30Z</time>
      </trkpt>
      <trkpt lat="45.92745" lon="4.72816">
        <ele>170</ele>
        <time>2018-07-24T08:18:31Z</time>
      </trkpt>
      <trkpt lat="45.9275" lon="4.72812">
        <ele>170</ele>
        <time>2018-07-24T08:18:32Z</time>
      </trkpt>
      <trkpt lat="45.92756" lon="4.72808">
        <ele>170</ele>
        <time>2018-07-24T08:18:33Z</time>
      </trkpt>
      <trkpt lat="45.92761" lon="4.72805">
        <ele>170</ele>
        <time>2018-07-24T08:18:34Z</time>
      </trkpt>
      <trkpt lat="45.92766" lon="4.72803">
        <ele>170</ele>
        <time>2018-07-24T08:18:35Z</time>
      </trkpt>
      <trkpt lat="45.92771" lon="4.72799">
        <ele>170</ele>
        <time>2018-07-24T08:18:36Z</time>
      </trkpt>
      <trkpt lat="45.92776" lon="4.72794">
        <ele>170</ele>
        <time>2018-07-24T08:18:37Z</time>
      </trkpt>
      <trkpt lat="45.9278" lon="4.72793">
        <ele>170</ele>
        <time>2018-07-24T08:18:38Z</time>
      </trkpt>
      <trkpt lat="45.92785" lon="4.72789">
        <ele>170</ele>
        <time>2018-07-24T08:18:39Z</time>
      </trkpt>
      <trkpt lat="45.9279" lon="4.72785">
        <ele>171</ele>
        <time>2018-07-24T08:18:40Z</time>
      </trkpt>
      <trkpt lat="45.92797" lon="4.72783">
        <ele>171</ele>
        <time>2018-07-24T08:18:42Z</time>
      </trkpt>
      <trkpt lat="45.92801" lon="4.72783">
        <ele>171</ele>
        <time>2018-07-24T08:18:43Z</time>
      </trkpt>
      <trkpt lat="45.92803" lon="4.72794">
        <ele>171</ele>
        <time>2018-07-24T08:18:45Z</time>
      </trkpt>
      <trkpt lat="45.92805" lon="4.728">
        <ele>171</ele>
        <time>2018-07-24T08:18:46Z</time>
      </trkpt>
      <trkpt lat="45.92805" lon="4.72807">
        <ele>171</ele>
        <time>2018-07-24T08:18:47Z</time>
      </trkpt>
      <trkpt lat="45.92805" lon="4.72813">
        <ele>171</ele>
        <time>2018-07-24T08:18:48Z</time>
      </trkpt>
      <trkpt lat="45.92806" lon="4.7282">
        <ele>171</ele>
        <time>2018-07-24T08:18:49Z</time>
      </trkpt>
      <trkpt lat="45.9281" lon="4.72827">
        <ele>171</ele>
        <time>2018-07-24T08:18:50Z</time>
      </trkpt>
      <trkpt lat="45.92808" lon="4.72834">
        <ele>170</ele>
        <time>2018-07-24T08:18:51Z</time>
      </trkpt>
      <trkpt lat="45.92809" lon="4.7284">
        <ele>170</ele>
        <time>2018-07-24T08:18:52Z</time>
      </trkpt>
      <trkpt lat="45.92809" lon="4.72846">
        <ele>170</ele>
        <time>2018-07-24T08:18:53Z</time>
      </trkpt>
      <trkpt lat="45.9281" lon="4.72853">
        <ele>170</ele>
        <time>2018-07-24T08:18:54Z</time>
      </trkpt>
      <trkpt lat="45.92813" lon="4.72859">
        <ele>170</ele>
        <time>2018-07-24T08:18:55Z</time>
      </trkpt>
      <trkpt lat="45.92814" lon="4.72866">
        <ele>170</ele>
        <time>2018-07-24T08:18:56Z</time>
      </trkpt>
      <trkpt lat="45.92815" lon="4.72878">
        <ele>170</ele>
        <time>2018-07-24T08:18:58Z</time>
      </trkpt>
      <trkpt lat="45.92817" lon="4.72886">
        <ele>170</ele>
        <time>2018-07-24T08:18:59Z</time>
      </trkpt>
      <trkpt lat="45.92817" lon="4.72899">
        <ele>170</ele>
        <time>2018-07-24T08:19:01Z</time>
      </trkpt>
      <trkpt lat="45.92819" lon="4.72906">
        <ele>170</ele>
        <time>2018-07-24T08:19:02Z</time>
      </trkpt>
      <trkpt lat="45.9282" lon="4.72914">
        <ele>170</ele>
        <time>2018-07-24T08:19:03Z</time>
      </trkpt>
      <trkpt lat="45.92821" lon="4.72921">
        <ele>170</ele>
        <time>2018-07-24T08:19:04Z</time>
      </trkpt>
      <trkpt lat="45.92823" lon="4.72929">
        <ele>170</ele>
        <time>2018-07-24T08:19:05Z</time>
      </trkpt>
      <trkpt lat="45.92824" lon="4.72938">
        <ele>170</ele>
        <time>2018-07-24T08:19:06Z</time>
      </trkpt>
      <trkpt lat="45.92826" lon="4.72946">
        <ele>170</ele>
        <time>2018-07-24T08:19:07Z</time>
      </trkpt>
      <trkpt lat="45.92826" lon="4.72953">
        <ele>170</ele>
        <time>2018-07-24T08:19:08Z</time>
      </trkpt>
      <trkpt lat="45.92828" lon="4.72962">
        <ele>170</ele>
        <time>2018-07-24T08:19:09Z</time>
      </trkpt>
      <trkpt lat="45.92828" lon="4.72971">
        <ele>170</ele>
        <time>2018-07-24T08:19:10Z</time>
      </trkpt>
      <trkpt lat="45.92829" lon="4.7298">
        <ele>170</ele>
        <time>2018-07-24T08:19:11Z</time>
      </trkpt>
      <trkpt lat="45.92829" lon="4.72988">
        <ele>170</ele>
        <time>2018-07-24T08:19:12Z</time>
      </trkpt>
      <trkpt lat="45.9283" lon="4.72997">
        <ele>170</ele>
        <time>2018-07-24T08:19:13Z</time>
      </trkpt>
      <trkpt lat="45.92831" lon="4.73005">
        <ele>170</ele>
        <time>2018-07-24T08:19:14Z</time>
      </trkpt>
      <trkpt lat="45.92832" lon="4.73013">
        <ele>170</ele>
        <time>2018-07-24T08:19:15Z</time>
      </trkpt>
      <trkpt lat="45.92833" lon="4.73021">
        <ele>170</ele>
        <time>2018-07-24T08:19:16Z</time>
      </trkpt>
      <trkpt lat="45.92834" lon="4.73028">
        <ele>171</ele>
        <time>2018-07-24T08:19:17Z</time>
      </trkpt>
      <trkpt lat="45.92837" lon="4.73035">
        <ele>171</ele>
        <time>2018-07-24T08:19:18Z</time>
      </trkpt>
      <trkpt lat="45.92837" lon="4.73042">
        <ele>171</ele>
        <time>2018-07-24T08:19:19Z</time>
      </trkpt>
      <trkpt lat="45.92839" lon="4.7305">
        <ele>171</ele>
        <time>2018-07-24T08:19:20Z</time>
      </trkpt>
      <trkpt lat="45.9284" lon="4.73057">
        <ele>171</ele>
        <time>2018-07-24T08:19:21Z</time>
      </trkpt>
      <trkpt lat="45.92841" lon="4.73066">
        <ele>171</ele>
        <time>2018-07-24T08:19:22Z</time>
      </trkpt>
      <trkpt lat="45.92841" lon="4.73072">
        <ele>171</ele>
        <time>2018-07-24T08:19:23Z</time>
      </trkpt>
      <trkpt lat="45.92842" lon="4.7308">
        <ele>171</ele>
        <time>2018-07-24T08:19:24Z</time>
      </trkpt>
      <trkpt lat="45.92844" lon="4.73087">
        <ele>171</ele>
        <time>2018-07-24T08:19:25Z</time>
      </trkpt>
      <trkpt lat="45.92845" lon="4.73093">
        <ele>171</ele>
        <time>2018-07-24T08:19:26Z</time>
      </trkpt>
      <trkpt lat="45.92849" lon="4.73099">
        <ele>171</ele>
        <time>2018-07-24T08:19:28Z</time>
      </trkpt>
      <trkpt lat="45.92853" lon="4.73098">
        <ele>171</ele>
        <time>2018-07-24T08:19:29Z</time>
      </trkpt>
      <trkpt lat="45.92859" lon="4.73093">
        <ele>171</ele>
        <time>2018-07-24T08:19:31Z</time>
      </trkpt>
      <trkpt lat="45.92863" lon="4.73089">
        <ele>171</ele>
        <time>2018-07-24T08:19:32Z</time>
      </trkpt>
      <trkpt lat="45.92869" lon="4.73083">
        <ele>172</ele>
        <time>2018-07-24T08:19:35Z</time>
      </trkpt>
      <trkpt lat="45.92871" lon="4.73081">
        <ele>172</ele>
        <time>2018-07-24T08:19:36Z</time>
      </trkpt>
      <trkpt lat="45.92878" lon="4.73076">
        <ele>172</ele>
        <time>2018-07-24T08:19:37Z</time>
      </trkpt>
      <trkpt lat="45.92881" lon="4.73073">
        <ele>172</ele>
        <time>2018-07-24T08:19:38Z</time>
      </trkpt>
      <trkpt lat="45.92885" lon="4.7307">
        <ele>172</ele>
        <time>2018-07-24T08:19:39Z</time>
      </trkpt>
      <trkpt lat="45.92889" lon="4.73065">
        <ele>172</ele>
        <time>2018-07-24T08:19:40Z</time>
      </trkpt>
      <trkpt lat="45.92893" lon="4.73061">
        <ele>172</ele>
        <time>2018-07-24T08:19:41Z</time>
      </trkpt>
      <trkpt lat="45.92896" lon="4.73055">
        <ele>172</ele>
        <time>2018-07-24T08:19:42Z</time>
      </trkpt>
      <trkpt lat="45.92901" lon="4.73049">
        <ele>172</ele>
        <time>2018-07-24T08:19:43Z</time>
      </trkpt>
      <trkpt lat="45.92903" lon="4.73043">
        <ele>172</ele>
        <time>2018-07-24T08:19:44Z</time>
      </trkpt>
      <trkpt lat="45.92906" lon="4.73037">
        <ele>172</ele>
        <time>2018-07-24T08:19:45Z</time>
      </trkpt>
      <trkpt lat="45.9291" lon="4.73031">
        <ele>172</ele>
        <time>2018-07-24T08:19:46Z</time>
      </trkpt>
      <trkpt lat="45.92914" lon="4.73026">
        <ele>172</ele>
        <time>2018-07-24T08:19:47Z</time>
      </trkpt>
      <trkpt lat="45.92919" lon="4.73021">
        <ele>172</ele>
        <time>2018-07-24T08:19:48Z</time>
      </trkpt>
      <trkpt lat="45.92923" lon="4.73015">
        <ele>172</ele>
        <time>2018-07-24T08:19:49Z</time>
      </trkpt>
      <trkpt lat="45.92927" lon="4.7301">
        <ele>172</ele>
        <time>2018-07-24T08:19:50Z</time>
      </trkpt>
      <trkpt lat="45.92931" lon="4.73004">
        <ele>172</ele>
        <time>2018-07-24T08:19:51Z</time>
      </trkpt>
      <trkpt lat="45.92934" lon="4.72999">
        <ele>172</ele>
        <time>2018-07-24T08:19:52Z</time>
      </trkpt>
      <trkpt lat="45.92939" lon="4.72993">
        <ele>171</ele>
        <time>2018-07-24T08:19:53Z</time>
      </trkpt>
      <trkpt lat="45.92944" lon="4.72988">
        <ele>171</ele>
        <time>2018-07-24T08:19:54Z</time>
      </trkpt>
      <trkpt lat="45.92949" lon="4.72983">
        <ele>171</ele>
        <time>2018-07-24T08:19:55Z</time>
      </trkpt>
      <trkpt lat="45.92953" lon="4.72978">
        <ele>171</ele>
        <time>2018-07-24T08:19:56Z</time>
      </trkpt>
      <trkpt lat="45.92958" lon="4.72972">
        <ele>171</ele>
        <time>2018-07-24T08:19:57Z</time>
      </trkpt>
      <trkpt lat="45.92962" lon="4.72968">
        <ele>171</ele>
        <time>2018-07-24T08:19:58Z</time>
      </trkpt>
      <trkpt lat="45.92966" lon="4.72963">
        <ele>171</ele>
        <time>2018-07-24T08:19:59Z</time>
      </trkpt>
      <trkpt lat="45.9297" lon="4.72959">
        <ele>171</ele>
        <time>2018-07-24T08:20:00Z</time>
      </trkpt>
      <trkpt lat="45.92973" lon="4.72954">
        <ele>171</ele>
        <time>2018-07-24T08:20:01Z</time>
      </trkpt>
      <trkpt lat="45.92977" lon="4.72948">
        <ele>171</ele>
        <time>2018-07-24T08:20:02Z</time>
      </trkpt>
      <trkpt lat="45.92982" lon="4.72944">
        <ele>171</ele>
        <time>2018-07-24T08:20:03Z</time>
      </trkpt>
      <trkpt lat="45.92986" lon="4.72938">
        <ele>171</ele>
        <time>2018-07-24T08:20:04Z</time>
      </trkpt>
      <trkpt lat="45.92991" lon="4.72932">
        <ele>171</ele>
        <time>2018-07-24T08:20:05Z</time>
      </trkpt>
      <trkpt lat="45.92996" lon="4.72924">
        <ele>171</ele>
        <time>2018-07-24T08:20:06Z</time>
      </trkpt>
      <trkpt lat="45.93" lon="4.72918">
        <ele>171</ele>
        <time>2018-07-24T08:20:07Z</time>
      </trkpt>
      <trkpt lat="45.93006" lon="4.72913">
        <ele>171</ele>
        <time>2018-07-24T08:20:08Z</time>
      </trkpt>
      <trkpt lat="45.9301" lon="4.72907">
        <ele>171</ele>
        <time>2018-07-24T08:20:09Z</time>
      </trkpt>
      <trkpt lat="45.93015" lon="4.72901">
        <ele>172</ele>
        <time>2018-07-24T08:20:10Z</time>
      </trkpt>
      <trkpt lat="45.9302" lon="4.72895">
        <ele>172</ele>
        <time>2018-07-24T08:20:11Z</time>
      </trkpt>
      <trkpt lat="45.93025" lon="4.72889">
        <ele>172</ele>
        <time>2018-07-24T08:20:12Z</time>
      </trkpt>
      <trkpt lat="45.9303" lon="4.72884">
        <ele>172</ele>
        <time>2018-07-24T08:20:13Z</time>
      </trkpt>
      <trkpt lat="45.93035" lon="4.72878">
        <ele>172</ele>
        <time>2018-07-24T08:20:14Z</time>
      </trkpt>
      <trkpt lat="45.9304" lon="4.72872">
        <ele>172</ele>
        <time>2018-07-24T08:20:15Z</time>
      </trkpt>
      <trkpt lat="45.93045" lon="4.72866">
        <ele>172</ele>
        <time>2018-07-24T08:20:16Z</time>
      </trkpt>
      <trkpt lat="45.93051" lon="4.7286">
        <ele>172</ele>
        <time>2018-07-24T08:20:17Z</time>
      </trkpt>
      <trkpt lat="45.93056" lon="4.72856">
        <ele>172</ele>
        <time>2018-07-24T08:20:18Z</time>
      </trkpt>
      <trkpt lat="45.93061" lon="4.72849">
        <ele>172</ele>
        <time>2018-07-24T08:20:19Z</time>
      </trkpt>
      <trkpt lat="45.93066" lon="4.72846">
        <ele>172</ele>
        <time>2018-07-24T08:20:20Z</time>
      </trkpt>
      <trkpt lat="45.93071" lon="4.7284">
        <ele>173</ele>
        <time>2018-07-24T08:20:21Z</time>
      </trkpt>
      <trkpt lat="45.93076" lon="4.72835">
        <ele>173</ele>
        <time>2018-07-24T08:20:22Z</time>
      </trkpt>
      <trkpt lat="45.93081" lon="4.72829">
        <ele>173</ele>
        <time>2018-07-24T08:20:23Z</time>
      </trkpt>
      <trkpt lat="45.93086" lon="4.72824">
        <ele>172</ele>
        <time>2018-07-24T08:20:24Z</time>
      </trkpt>
      <trkpt lat="45.93091" lon="4.72818">
        <ele>172</ele>
        <time>2018-07-24T08:20:25Z</time>
      </trkpt>
      <trkpt lat="45.93098" lon="4.7282">
        <ele>172</ele>
        <time>2018-07-24T08:20:26Z</time>
      </trkpt>
      <trkpt lat="45.93098" lon="4.72809">
        <ele>172</ele>
        <time>2018-07-24T08:20:28Z</time>
      </trkpt>
      <trkpt lat="45.93101" lon="4.72798">
        <ele>171</ele>
        <time>2018-07-24T08:20:29Z</time>
      </trkpt>
      <trkpt lat="45.93109" lon="4.72793">
        <ele>171</ele>
        <time>2018-07-24T08:20:30Z</time>
      </trkpt>
      <trkpt lat="45.93115" lon="4.72789">
        <ele>171</ele>
        <time>2018-07-24T08:20:31Z</time>
      </trkpt>
      <trkpt lat="45.93119" lon="4.72784">
        <ele>171</ele>
        <time>2018-07-24T08:20:32Z</time>
      </trkpt>
      <trkpt lat="45.93124" lon="4.72777">
        <ele>171</ele>
        <time>2018-07-24T08:20:33Z</time>
      </trkpt>
      <trkpt lat="45.93128" lon="4.72771">
        <ele>171</ele>
        <time>2018-07-24T08:20:34Z</time>
      </trkpt>
      <trkpt lat="45.93133" lon="4.72766">
        <ele>171</ele>
        <time>2018-07-24T08:20:35Z</time>
      </trkpt>
      <trkpt lat="45.93136" lon="4.72763">
        <ele>171</ele>
        <time>2018-07-24T08:20:36Z</time>
      </trkpt>
      <trkpt lat="45.93142" lon="4.72757">
        <ele>171</ele>
        <time>2018-07-24T08:20:37Z</time>
      </trkpt>
      <trkpt lat="45.93147" lon="4.72754">
        <ele>170</ele>
        <time>2018-07-24T08:20:38Z</time>
      </trkpt>
      <trkpt lat="45.93151" lon="4.72749">
        <ele>170</ele>
        <time>2018-07-24T08:20:39Z</time>
      </trkpt>
      <trkpt lat="45.93156" lon="4.72743">
        <ele>170</ele>
        <time>2018-07-24T08:20:40Z</time>
      </trkpt>
      <trkpt lat="45.93162" lon="4.72738">
        <ele>170</ele>
        <time>2018-07-24T08:20:41Z</time>
      </trkpt>
      <trkpt lat="45.93167" lon="4.7273">
        <ele>170</ele>
        <time>2018-07-24T08:20:42Z</time>
      </trkpt>
      <trkpt lat="45.93172" lon="4.72725">
        <ele>170</ele>
        <time>2018-07-24T08:20:43Z</time>
      </trkpt>
      <trkpt lat="45.93177" lon="4.72719">
        <ele>170</ele>
        <time>2018-07-24T08:20:44Z</time>
      </trkpt>
      <trkpt lat="45.93181" lon="4.72713">
        <ele>169</ele>
        <time>2018-07-24T08:20:45Z</time>
      </trkpt>
      <trkpt lat="45.93187" lon="4.72706">
        <ele>169</ele>
        <time>2018-07-24T08:20:46Z</time>
      </trkpt>
      <trkpt lat="45.93192" lon="4.727">
        <ele>169</ele>
        <time>2018-07-24T08:20:47Z</time>
      </trkpt>
      <trkpt lat="45.93197" lon="4.72695">
        <ele>169</ele>
        <time>2018-07-24T08:20:48Z</time>
      </trkpt>
      <trkpt lat="45.93201" lon="4.7269">
        <ele>169</ele>
        <time>2018-07-24T08:20:49Z</time>
      </trkpt>
      <trkpt lat="45.93207" lon="4.72685">
        <ele>169</ele>
        <time>2018-07-24T08:20:50Z</time>
      </trkpt>
      <trkpt lat="45.93213" lon="4.72676">
        <ele>169</ele>
        <time>2018-07-24T08:20:51Z</time>
      </trkpt>
      <trkpt lat="45.93217" lon="4.7267">
        <ele>169</ele>
        <time>2018-07-24T08:20:52Z</time>
      </trkpt>
      <trkpt lat="45.93223" lon="4.72665">
        <ele>170</ele>
        <time>2018-07-24T08:20:53Z</time>
      </trkpt>
      <trkpt lat="45.93229" lon="4.7266">
        <ele>169</ele>
        <time>2018-07-24T08:20:54Z</time>
      </trkpt>
      <trkpt lat="45.93233" lon="4.72653">
        <ele>170</ele>
        <time>2018-07-24T08:20:55Z</time>
      </trkpt>
      <trkpt lat="45.93238" lon="4.72645">
        <ele>170</ele>
        <time>2018-07-24T08:20:56Z</time>
      </trkpt>
      <trkpt lat="45.93242" lon="4.72639">
        <ele>170</ele>
        <time>2018-07-24T08:20:57Z</time>
      </trkpt>
      <trkpt lat="45.93249" lon="4.72632">
        <ele>170</ele>
        <time>2018-07-24T08:20:58Z</time>
      </trkpt>
      <trkpt lat="45.93254" lon="4.72626">
        <ele>170</ele>
        <time>2018-07-24T08:20:59Z</time>
      </trkpt>
      <trkpt lat="45.93259" lon="4.72619">
        <ele>170</ele>
        <time>2018-07-24T08:21:00Z</time>
      </trkpt>
      <trkpt lat="45.93264" lon="4.72613">
        <ele>170</ele>
        <time>2018-07-24T08:21:01Z</time>
      </trkpt>
      <trkpt lat="45.93269" lon="4.72608">
        <ele>170</ele>
        <time>2018-07-24T08:21:02Z</time>
      </trkpt>
      <trkpt lat="45.93272" lon="4.72603">
        <ele>170</ele>
        <time>2018-07-24T08:21:03Z</time>
      </trkpt>
      <trkpt lat="45.93277" lon="4.72594">
        <ele>170</ele>
        <time>2018-07-24T08:21:05Z</time>
      </trkpt>
      <trkpt lat="45.93284" lon="4.7259">
        <ele>170</ele>
        <time>2018-07-24T08:21:06Z</time>
      </trkpt>
      <trkpt lat="45.9329" lon="4.72584">
        <ele>170</ele>
        <time>2018-07-24T08:21:07Z</time>
      </trkpt>
      <trkpt lat="45.93295" lon="4.72578">
        <ele>171</ele>
        <time>2018-07-24T08:21:08Z</time>
      </trkpt>
      <trkpt lat="45.933" lon="4.72573">
        <ele>171</ele>
        <time>2018-07-24T08:21:09Z</time>
      </trkpt>
      <trkpt lat="45.93303" lon="4.72567">
        <ele>171</ele>
        <time>2018-07-24T08:21:10Z</time>
      </trkpt>
      <trkpt lat="45.9331" lon="4.7256">
        <ele>171</ele>
        <time>2018-07-24T08:21:11Z</time>
      </trkpt>
      <trkpt lat="45.93314" lon="4.72555">
        <ele>172</ele>
        <time>2018-07-24T08:21:12Z</time>
      </trkpt>
      <trkpt lat="45.93319" lon="4.72548">
        <ele>172</ele>
        <time>2018-07-24T08:21:13Z</time>
      </trkpt>
      <trkpt lat="45.93325" lon="4.72542">
        <ele>172</ele>
        <time>2018-07-24T08:21:14Z</time>
      </trkpt>
      <trkpt lat="45.93332" lon="4.72535">
        <ele>172</ele>
        <time>2018-07-24T08:21:15Z</time>
      </trkpt>
      <trkpt lat="45.93338" lon="4.72529">
        <ele>172</ele>
        <time>2018-07-24T08:21:16Z</time>
      </trkpt>
      <trkpt lat="45.93342" lon="4.72524">
        <ele>172</ele>
        <time>2018-07-24T08:21:17Z</time>
      </trkpt>
      <trkpt lat="45.93347" lon="4.72518">
        <ele>172</ele>
        <time>2018-07-24T08:21:18Z</time>
      </trkpt>
      <trkpt lat="45.9335" lon="4.72514">
        <ele>172</ele>
        <time>2018-07-24T08:21:19Z</time>
      </trkpt>
      <trkpt lat="45.93356" lon="4.72507">
        <ele>172</ele>
        <time>2018-07-24T08:21:20Z</time>
      </trkpt>
      <trkpt lat="45.9336" lon="4.725">
        <ele>172</ele>
        <time>2018-07-24T08:21:21Z</time>
      </trkpt>
      <trkpt lat="45.93364" lon="4.72495">
        <ele>173</ele>
        <time>2018-07-24T08:21:22Z</time>
      </trkpt>
      <trkpt lat="45.93369" lon="4.72492">
        <ele>173</ele>
        <time>2018-07-24T08:21:23Z</time>
      </trkpt>
      <trkpt lat="45.93373" lon="4.72487">
        <ele>173</ele>
        <time>2018-07-24T08:21:24Z</time>
      </trkpt>
      <trkpt lat="45.93378" lon="4.72482">
        <ele>173</ele>
        <time>2018-07-24T08:21:25Z</time>
      </trkpt>
      <trkpt lat="45.93381" lon="4.72478">
        <ele>173</ele>
        <time>2018-07-24T08:21:26Z</time>
      </trkpt>
      <trkpt lat="45.93385" lon="4.72473">
        <ele>173</ele>
        <time>2018-07-24T08:21:27Z</time>
      </trkpt>
      <trkpt lat="45.93389" lon="4.72467">
        <ele>173</ele>
        <time>2018-07-24T08:21:28Z</time>
      </trkpt>
      <trkpt lat="45.93393" lon="4.72459">
        <ele>173</ele>
        <time>2018-07-24T08:21:29Z</time>
      </trkpt>
      <trkpt lat="45.93397" lon="4.72451">
        <ele>173</ele>
        <time>2018-07-24T08:21:30Z</time>
      </trkpt>
      <trkpt lat="45.934" lon="4.72445">
        <ele>173</ele>
        <time>2018-07-24T08:21:31Z</time>
      </trkpt>
      <trkpt lat="45.93403" lon="4.72435">
        <ele>173</ele>
        <time>2018-07-24T08:21:33Z</time>
      </trkpt>
      <trkpt lat="45.93406" lon="4.7243">
        <ele>173</ele>
        <time>2018-07-24T08:21:34Z</time>
      </trkpt>
      <trkpt lat="45.9341" lon="4.72421">
        <ele>174</ele>
        <time>2018-07-24T08:21:36Z</time>
      </trkpt>
      <trkpt lat="45.93413" lon="4.72417">
        <ele>174</ele>
        <time>2018-07-24T08:21:37Z</time>
      </trkpt>
      <trkpt lat="45.9342" lon="4.72411">
        <ele>174</ele>
        <time>2018-07-24T08:21:39Z</time>
      </trkpt>
      <trkpt lat="45.93425" lon="4.72409">
        <ele>174</ele>
        <time>2018-07-24T08:21:40Z</time>
      </trkpt>
      <trkpt lat="45.9343" lon="4.72407">
        <ele>174</ele>
        <time>2018-07-24T08:21:41Z</time>
      </trkpt>
      <trkpt lat="45.93434" lon="4.72403">
        <ele>174</ele>
        <time>2018-07-24T08:21:42Z</time>
      </trkpt>
      <trkpt lat="45.9344" lon="4.724">
        <ele>173</ele>
        <time>2018-07-24T08:21:43Z</time>
      </trkpt>
      <trkpt lat="45.93445" lon="4.72396">
        <ele>173</ele>
        <time>2018-07-24T08:21:44Z</time>
      </trkpt>
      <trkpt lat="45.93449" lon="4.72392">
        <ele>173</ele>
        <time>2018-07-24T08:21:45Z</time>
      </trkpt>
      <trkpt lat="45.93455" lon="4.72386">
        <ele>173</ele>
        <time>2018-07-24T08:21:46Z</time>
      </trkpt>
      <trkpt lat="45.93459" lon="4.7238">
        <ele>173</ele>
        <time>2018-07-24T08:21:47Z</time>
      </trkpt>
      <trkpt lat="45.93464" lon="4.72373">
        <ele>173</ele>
        <time>2018-07-24T08:21:48Z</time>
      </trkpt>
      <trkpt lat="45.93467" lon="4.72369">
        <ele>173</ele>
        <time>2018-07-24T08:21:49Z</time>
      </trkpt>
      <trkpt lat="45.93471" lon="4.72363">
        <ele>173</ele>
        <time>2018-07-24T08:21:50Z</time>
      </trkpt>
      <trkpt lat="45.93475" lon="4.72358">
        <ele>173</ele>
        <time>2018-07-24T08:21:51Z</time>
      </trkpt>
      <trkpt lat="45.9348" lon="4.72351">
        <ele>173</ele>
        <time>2018-07-24T08:21:52Z</time>
      </trkpt>
      <trkpt lat="45.93485" lon="4.72346">
        <ele>173</ele>
        <time>2018-07-24T08:21:53Z</time>
      </trkpt>
      <trkpt lat="45.93492" lon="4.72338">
        <ele>173</ele>
        <time>2018-07-24T08:21:54Z</time>
      </trkpt>
      <trkpt lat="45.93494" lon="4.72334">
        <ele>173</ele>
        <time>2018-07-24T08:21:55Z</time>
      </trkpt>
      <trkpt lat="45.935" lon="4.72324">
        <ele>173</ele>
        <time>2018-07-24T08:21:56Z</time>
      </trkpt>
      <trkpt lat="45.93506" lon="4.72318">
        <ele>173</ele>
        <time>2018-07-24T08:21:57Z</time>
      </trkpt>
      <trkpt lat="45.9351" lon="4.72312">
        <ele>173</ele>
        <time>2018-07-24T08:21:58Z</time>
      </trkpt>
      <trkpt lat="45.93515" lon="4.72305">
        <ele>173</ele>
        <time>2018-07-24T08:21:59Z</time>
      </trkpt>
      <trkpt lat="45.93518" lon="4.72299">
        <ele>172</ele>
        <time>2018-07-24T08:22:00Z</time>
      </trkpt>
      <trkpt lat="45.93521" lon="4.72293">
        <ele>172</ele>
        <time>2018-07-24T08:22:01Z</time>
      </trkpt>
      <trkpt lat="45.93524" lon="4.72287">
        <ele>172</ele>
        <time>2018-07-24T08:22:02Z</time>
      </trkpt>
      <trkpt lat="45.93527" lon="4.7228">
        <ele>172</ele>
        <time>2018-07-24T08:22:03Z</time>
      </trkpt>
      <trkpt lat="45.9353" lon="4.72274">
        <ele>172</ele>
        <time>2018-07-24T08:22:04Z</time>
      </trkpt>
      <trkpt lat="45.93532" lon="4.72268">
        <ele>172</ele>
        <time>2018-07-24T08:22:05Z</time>
      </trkpt>
      <trkpt lat="45.93535" lon="4.72262">
        <ele>172</ele>
        <time>2018-07-24T08:22:06Z</time>
      </trkpt>
      <trkpt lat="45.93538" lon="4.72252">
        <ele>172</ele>
        <time>2018-07-24T08:22:08Z</time>
      </trkpt>
      <trkpt lat="45.93541" lon="4.72246">
        <ele>172</ele>
        <time>2018-07-24T08:22:09Z</time>
      </trkpt>
      <trkpt lat="45.93543" lon="4.7224">
        <ele>172</ele>
        <time>2018-07-24T08:22:10Z</time>
      </trkpt>
      <trkpt lat="45.93546" lon="4.72234">
        <ele>172</ele>
        <time>2018-07-24T08:22:11Z</time>
      </trkpt>
      <trkpt lat="45.93549" lon="4.72227">
        <ele>172</ele>
        <time>2018-07-24T08:22:12Z</time>
      </trkpt>
      <trkpt lat="45.93553" lon="4.7222">
        <ele>173</ele>
        <time>2018-07-24T08:22:13Z</time>
      </trkpt>
      <trkpt lat="45.93558" lon="4.72214">
        <ele>173</ele>
        <time>2018-07-24T08:22:14Z</time>
      </trkpt>
      <trkpt lat="45.93563" lon="4.72208">
        <ele>173</ele>
        <time>2018-07-24T08:22:15Z</time>
      </trkpt>
      <trkpt lat="45.93569" lon="4.722">
        <ele>173</ele>
        <time>2018-07-24T08:22:16Z</time>
      </trkpt>
      <trkpt lat="45.93575" lon="4.72196">
        <ele>173</ele>
        <time>2018-07-24T08:22:17Z</time>
      </trkpt>
      <trkpt lat="45.9358" lon="4.72192">
        <ele>173</ele>
        <time>2018-07-24T08:22:18Z</time>
      </trkpt>
      <trkpt lat="45.93586" lon="4.72187">
        <ele>173</ele>
        <time>2018-07-24T08:22:19Z</time>
      </trkpt>
      <trkpt lat="45.93591" lon="4.72182">
        <ele>173</ele>
        <time>2018-07-24T08:22:20Z</time>
      </trkpt>
      <trkpt lat="45.93597" lon="4.72177">
        <ele>173</ele>
        <time>2018-07-24T08:22:21Z</time>
      </trkpt>
      <trkpt lat="45.93602" lon="4.72172">
        <ele>173</ele>
        <time>2018-07-24T08:22:22Z</time>
      </trkpt>
      <trkpt lat="45.93606" lon="4.72167">
        <ele>173</ele>
        <time>2018-07-24T08:22:23Z</time>
      </trkpt>
      <trkpt lat="45.93612" lon="4.72161">
        <ele>173</ele>
        <time>2018-07-24T08:22:24Z</time>
      </trkpt>
      <trkpt lat="45.93617" lon="4.72156">
        <ele>173</ele>
        <time>2018-07-24T08:22:25Z</time>
      </trkpt>
      <trkpt lat="45.93623" lon="4.72151">
        <ele>173</ele>
        <time>2018-07-24T08:22:26Z</time>
      </trkpt>
      <trkpt lat="45.93628" lon="4.72144">
        <ele>173</ele>
        <time>2018-07-24T08:22:27Z</time>
      </trkpt>
      <trkpt lat="45.93634" lon="4.72137">
        <ele>173</ele>
        <time>2018-07-24T08:22:28Z</time>
      </trkpt>
      <trkpt lat="45.93639" lon="4.7213">
        <ele>173</ele>
        <time>2018-07-24T08:22:29Z</time>
      </trkpt>
      <trkpt lat="45.93643" lon="4.72124">
        <ele>173</ele>
        <time>2018-07-24T08:22:30Z</time>
      </trkpt>
      <trkpt lat="45.93647" lon="4.72118">
        <ele>173</ele>
        <time>2018-07-24T08:22:31Z</time>
      </trkpt>
      <trkpt lat="45.93651" lon="4.72111">
        <ele>173</ele>
        <time>2018-07-24T08:22:32Z</time>
      </trkpt>
      <trkpt lat="45.93656" lon="4.72104">
        <ele>173</ele>
        <time>2018-07-24T08:22:33Z</time>
      </trkpt>
      <trkpt lat="45.9366" lon="4.72097">
        <ele>173</ele>
        <time>2018-07-24T08:22:34Z</time>
      </trkpt>
      <trkpt lat="45.93665" lon="4.72092">
        <ele>172</ele>
        <time>2018-07-24T08:22:35Z</time>
      </trkpt>
      <trkpt lat="45.93669" lon="4.72085">
        <ele>172</ele>
        <time>2018-07-24T08:22:36Z</time>
      </trkpt>
      <trkpt lat="45.93672" lon="4.7208">
        <ele>172</ele>
        <time>2018-07-24T08:22:37Z</time>
      </trkpt>
      <trkpt lat="45.93675" lon="4.72073">
        <ele>172</ele>
        <time>2018-07-24T08:22:38Z</time>
      </trkpt>
      <trkpt lat="45.93679" lon="4.72066">
        <ele>172</ele>
        <time>2018-07-24T08:22:39Z</time>
      </trkpt>
      <trkpt lat="45.93681" lon="4.7206">
        <ele>172</ele>
        <time>2018-07-24T08:22:40Z</time>
      </trkpt>
      <trkpt lat="45.93686" lon="4.72053">
        <ele>172</ele>
        <time>2018-07-24T08:22:41Z</time>
      </trkpt>
      <trkpt lat="45.93687" lon="4.72046">
        <ele>172</ele>
        <time>2018-07-24T08:22:42Z</time>
      </trkpt>
      <trkpt lat="45.93692" lon="4.72039">
        <ele>173</ele>
        <time>2018-07-24T08:22:43Z</time>
      </trkpt>
      <trkpt lat="45.93691" lon="4.72033">
        <ele>173</ele>
        <time>2018-07-24T08:22:44Z</time>
      </trkpt>
      <trkpt lat="45.93696" lon="4.72024">
        <ele>172</ele>
        <time>2018-07-24T08:22:45Z</time>
      </trkpt>
      <trkpt lat="45.93699" lon="4.72017">
        <ele>172</ele>
        <time>2018-07-24T08:22:46Z</time>
      </trkpt>
      <trkpt lat="45.93703" lon="4.72011">
        <ele>172</ele>
        <time>2018-07-24T08:22:47Z</time>
      </trkpt>
      <trkpt lat="45.93709" lon="4.72002">
        <ele>172</ele>
        <time>2018-07-24T08:22:48Z</time>
      </trkpt>
      <trkpt lat="45.93711" lon="4.71997">
        <ele>172</ele>
        <time>2018-07-24T08:22:49Z</time>
      </trkpt>
      <trkpt lat="45.93715" lon="4.7199">
        <ele>172</ele>
        <time>2018-07-24T08:22:50Z</time>
      </trkpt>
      <trkpt lat="45.9372" lon="4.71983">
        <ele>172</ele>
        <time>2018-07-24T08:22:51Z</time>
      </trkpt>
      <trkpt lat="45.93725" lon="4.71976">
        <ele>172</ele>
        <time>2018-07-24T08:22:52Z</time>
      </trkpt>
      <trkpt lat="45.93726" lon="4.71971">
        <ele>172</ele>
        <time>2018-07-24T08:22:53Z</time>
      </trkpt>
      <trkpt lat="45.93731" lon="4.71964">
        <ele>172</ele>
        <time>2018-07-24T08:22:54Z</time>
      </trkpt>
      <trkpt lat="45.93739" lon="4.71959">
        <ele>172</ele>
        <time>2018-07-24T08:22:55Z</time>
      </trkpt>
      <trkpt lat="45.93745" lon="4.71956">
        <ele>172</ele>
        <time>2018-07-24T08:22:56Z</time>
      </trkpt>
      <trkpt lat="45.9375" lon="4.71951">
        <ele>171</ele>
        <time>2018-07-24T08:22:57Z</time>
      </trkpt>
      <trkpt lat="45.93756" lon="4.71944">
        <ele>171</ele>
        <time>2018-07-24T08:22:58Z</time>
      </trkpt>
      <trkpt lat="45.93761" lon="4.71939">
        <ele>171</ele>
        <time>2018-07-24T08:22:59Z</time>
      </trkpt>
      <trkpt lat="45.93766" lon="4.71932">
        <ele>171</ele>
        <time>2018-07-24T08:23:00Z</time>
      </trkpt>
      <trkpt lat="45.93768" lon="4.71925">
        <ele>171</ele>
        <time>2018-07-24T08:23:01Z</time>
      </trkpt>
      <trkpt lat="45.93772" lon="4.71917">
        <ele>171</ele>
        <time>2018-07-24T08:23:02Z</time>
      </trkpt>
      <trkpt lat="45.93776" lon="4.7191">
        <ele>172</ele>
        <time>2018-07-24T08:23:03Z</time>
      </trkpt>
      <trkpt lat="45.93778" lon="4.719">
        <ele>172</ele>
        <time>2018-07-24T08:23:04Z</time>
      </trkpt>
      <trkpt lat="45.9378" lon="4.71892">
        <ele>172</ele>
        <time>2018-07-24T08:23:05Z</time>
      </trkpt>
      <trkpt lat="45.93782" lon="4.71884">
        <ele>172</ele>
        <time>2018-07-24T08:23:06Z</time>
      </trkpt>
      <trkpt lat="45.93784" lon="4.71876">
        <ele>172</ele>
        <time>2018-07-24T08:23:07Z</time>
      </trkpt>
      <trkpt lat="45.93786" lon="4.71868">
        <ele>172</ele>
        <time>2018-07-24T08:23:08Z</time>
      </trkpt>
      <trkpt lat="45.93789" lon="4.71862">
        <ele>172</ele>
        <time>2018-07-24T08:23:09Z</time>
      </trkpt>
      <trkpt lat="45.93794" lon="4.71856">
        <ele>172</ele>
        <time>2018-07-24T08:23:10Z</time>
      </trkpt>
      <trkpt lat="45.93796" lon="4.7185">
        <ele>172</ele>
        <time>2018-07-24T08:23:11Z</time>
      </trkpt>
      <trkpt lat="45.938" lon="4.71842">
        <ele>172</ele>
        <time>2018-07-24T08:23:12Z</time>
      </trkpt>
      <trkpt lat="45.93807" lon="4.71835">
        <ele>172</ele>
        <time>2018-07-24T08:23:13Z</time>
      </trkpt>
      <trkpt lat="45.93812" lon="4.71829">
        <ele>173</ele>
        <time>2018-07-24T08:23:14Z</time>
      </trkpt>
      <trkpt lat="45.93813" lon="4.71822">
        <ele>173</ele>
        <time>2018-07-24T08:23:15Z</time>
      </trkpt>
      <trkpt lat="45.93818" lon="4.71816">
        <ele>173</ele>
        <time>2018-07-24T08:23:16Z</time>
      </trkpt>
      <trkpt lat="45.93821" lon="4.7181">
        <ele>173</ele>
        <time>2018-07-24T08:23:17Z</time>
      </trkpt>
      <trkpt lat="45.93826" lon="4.71802">
        <ele>174</ele>
        <time>2018-07-24T08:23:18Z</time>
      </trkpt>
      <trkpt lat="45.93829" lon="4.71796">
        <ele>174</ele>
        <time>2018-07-24T08:23:19Z</time>
      </trkpt>
      <trkpt lat="45.93834" lon="4.71791">
        <ele>173</ele>
        <time>2018-07-24T08:23:20Z</time>
      </trkpt>
      <trkpt lat="45.93838" lon="4.71789">
        <ele>173</ele>
        <time>2018-07-24T08:23:21Z</time>
      </trkpt>
      <trkpt lat="45.93843" lon="4.71783">
        <ele>173</ele>
        <time>2018-07-24T08:23:22Z</time>
      </trkpt>
      <trkpt lat="45.93844" lon="4.71777">
        <ele>173</ele>
        <time>2018-07-24T08:23:23Z</time>
      </trkpt>
      <trkpt lat="45.93848" lon="4.71769">
        <ele>173</ele>
        <time>2018-07-24T08:23:24Z</time>
      </trkpt>
      <trkpt lat="45.93855" lon="4.71761">
        <ele>173</ele>
        <time>2018-07-24T08:23:25Z</time>
      </trkpt>
      <trkpt lat="45.93859" lon="4.71756">
        <ele>173</ele>
        <time>2018-07-24T08:23:26Z</time>
      </trkpt>
      <trkpt lat="45.93863" lon="4.71751">
        <ele>173</ele>
        <time>2018-07-24T08:23:27Z</time>
      </trkpt>
      <trkpt lat="45.9387" lon="4.71743">
        <ele>174</ele>
        <time>2018-07-24T08:23:29Z</time>
      </trkpt>
      <trkpt lat="45.93873" lon="4.71738">
        <ele>174</ele>
        <time>2018-07-24T08:23:30Z</time>
      </trkpt>
      <trkpt lat="45.93877" lon="4.71736">
        <ele>174</ele>
        <time>2018-07-24T08:23:31Z</time>
      </trkpt>
      <trkpt lat="45.93882" lon="4.71731">
        <ele>174</ele>
        <time>2018-07-24T08:23:32Z</time>
      </trkpt>
      <trkpt lat="45.93886" lon="4.71725">
        <ele>174</ele>
        <time>2018-07-24T08:23:33Z</time>
      </trkpt>
      <trkpt lat="45.9389" lon="4.71719">
        <ele>174</ele>
        <time>2018-07-24T08:23:34Z</time>
      </trkpt>
      <trkpt lat="45.93894" lon="4.71715">
        <ele>174</ele>
        <time>2018-07-24T08:23:35Z</time>
      </trkpt>
      <trkpt lat="45.93897" lon="4.71711">
        <ele>174</ele>
        <time>2018-07-24T08:23:36Z</time>
      </trkpt>
      <trkpt lat="45.93901" lon="4.71707">
        <ele>174</ele>
        <time>2018-07-24T08:23:37Z</time>
      </trkpt>
      <trkpt lat="45.93904" lon="4.71701">
        <ele>174</ele>
        <time>2018-07-24T08:23:38Z</time>
      </trkpt>
      <trkpt lat="45.93908" lon="4.71698">
        <ele>174</ele>
        <time>2018-07-24T08:23:39Z</time>
      </trkpt>
      <trkpt lat="45.93913" lon="4.71696">
        <ele>174</ele>
        <time>2018-07-24T08:23:40Z</time>
      </trkpt>
      <trkpt lat="45.93919" lon="4.71693">
        <ele>174</ele>
        <time>2018-07-24T08:23:41Z</time>
      </trkpt>
      <trkpt lat="45.93925" lon="4.71693">
        <ele>175</ele>
        <time>2018-07-24T08:23:42Z</time>
      </trkpt>
      <trkpt lat="45.93931" lon="4.7169">
        <ele>175</ele>
        <time>2018-07-24T08:23:43Z</time>
      </trkpt>
      <trkpt lat="45.93935" lon="4.71687">
        <ele>175</ele>
        <time>2018-07-24T08:23:44Z</time>
      </trkpt>
      <trkpt lat="45.9394" lon="4.71686">
        <ele>175</ele>
        <time>2018-07-24T08:23:45Z</time>
      </trkpt>
      <trkpt lat="45.93945" lon="4.71684">
        <ele>175</ele>
        <time>2018-07-24T08:23:46Z</time>
      </trkpt>
      <trkpt lat="45.93951" lon="4.71682">
        <ele>175</ele>
        <time>2018-07-24T08:23:47Z</time>
      </trkpt>
      <trkpt lat="45.93956" lon="4.71679">
        <ele>175</ele>
        <time>2018-07-24T08:23:48Z</time>
      </trkpt>
      <trkpt lat="45.93963" lon="4.71672">
        <ele>175</ele>
        <time>2018-07-24T08:23:50Z</time>
      </trkpt>
      <trkpt lat="45.93969" lon="4.71674">
        <ele>175</ele>
        <time>2018-07-24T08:23:51Z</time>
      </trkpt>
      <trkpt lat="45.93977" lon="4.71673">
        <ele>176</ele>
        <time>2018-07-24T08:23:52Z</time>
      </trkpt>
      <trkpt lat="45.93985" lon="4.71667">
        <ele>176</ele>
        <time>2018-07-24T08:23:53Z</time>
      </trkpt>
      <trkpt lat="45.9399" lon="4.71669">
        <ele>176</ele>
        <time>2018-07-24T08:23:54Z</time>
      </trkpt>
      <trkpt lat="45.93994" lon="4.71669">
        <ele>176</ele>
        <time>2018-07-24T08:23:55Z</time>
      </trkpt>
      <trkpt lat="45.93997" lon="4.71676">
        <ele>176</ele>
        <time>2018-07-24T08:23:56Z</time>
      </trkpt>
      <trkpt lat="45.94002" lon="4.7168">
        <ele>176</ele>
        <time>2018-07-24T08:23:57Z</time>
      </trkpt>
      <trkpt lat="45.94007" lon="4.71677">
        <ele>176</ele>
        <time>2018-07-24T08:23:58Z</time>
      </trkpt>
      <trkpt lat="45.94013" lon="4.71674">
        <ele>176</ele>
        <time>2018-07-24T08:23:59Z</time>
      </trkpt>
      <trkpt lat="45.94017" lon="4.71664">
        <ele>176</ele>
        <time>2018-07-24T08:24:01Z</time>
      </trkpt>
      <trkpt lat="45.94019" lon="4.71657">
        <ele>176</ele>
        <time>2018-07-24T08:24:02Z</time>
      </trkpt>
      <trkpt lat="45.94022" lon="4.71648">
        <ele>175</ele>
        <time>2018-07-24T08:24:03Z</time>
      </trkpt>
      <trkpt lat="45.94028" lon="4.71644">
        <ele>175</ele>
        <time>2018-07-24T08:24:04Z</time>
      </trkpt>
      <trkpt lat="45.94034" lon="4.71645">
        <ele>175</ele>
        <time>2018-07-24T08:24:05Z</time>
      </trkpt>
      <trkpt lat="45.94041" lon="4.71642">
        <ele>175</ele>
        <time>2018-07-24T08:24:06Z</time>
      </trkpt>
      <trkpt lat="45.94047" lon="4.71639">
        <ele>175</ele>
        <time>2018-07-24T08:24:07Z</time>
      </trkpt>
      <trkpt lat="45.94053" lon="4.71639">
        <ele>175</ele>
        <time>2018-07-24T08:24:08Z</time>
      </trkpt>
      <trkpt lat="45.94059" lon="4.71638">
        <ele>174</ele>
        <time>2018-07-24T08:24:09Z</time>
      </trkpt>
      <trkpt lat="45.94065" lon="4.71636">
        <ele>174</ele>
        <time>2018-07-24T08:24:10Z</time>
      </trkpt>
      <trkpt lat="45.9407" lon="4.71632">
        <ele>174</ele>
        <time>2018-07-24T08:24:11Z</time>
      </trkpt>
      <trkpt lat="45.94077" lon="4.71631">
        <ele>174</ele>
        <time>2018-07-24T08:24:12Z</time>
      </trkpt>
      <trkpt lat="45.94082" lon="4.7163">
        <ele>174</ele>
        <time>2018-07-24T08:24:13Z</time>
      </trkpt>
      <trkpt lat="45.94088" lon="4.71629">
        <ele>173</ele>
        <time>2018-07-24T08:24:14Z</time>
      </trkpt>
      <trkpt lat="45.94094" lon="4.71627">
        <ele>173</ele>
        <time>2018-07-24T08:24:15Z</time>
      </trkpt>
      <trkpt lat="45.94099" lon="4.71625">
        <ele>173</ele>
        <time>2018-07-24T08:24:16Z</time>
      </trkpt>
      <trkpt lat="45.94103" lon="4.71623">
        <ele>173</ele>
        <time>2018-07-24T08:24:17Z</time>
      </trkpt>
      <trkpt lat="45.94108" lon="4.71621">
        <ele>173</ele>
        <time>2018-07-24T08:24:18Z</time>
      </trkpt>
      <trkpt lat="45.94116" lon="4.7162">
        <ele>173</ele>
        <time>2018-07-24T08:24:19Z</time>
      </trkpt>
      <trkpt lat="45.94119" lon="4.71617">
        <ele>173</ele>
        <time>2018-07-24T08:24:20Z</time>
      </trkpt>
      <trkpt lat="45.94124" lon="4.71615">
        <ele>173</ele>
        <time>2018-07-24T08:24:21Z</time>
      </trkpt>
      <trkpt lat="45.9413" lon="4.71611">
        <ele>173</ele>
        <time>2018-07-24T08:24:22Z</time>
      </trkpt>
      <trkpt lat="45.94134" lon="4.71609">
        <ele>173</ele>
        <time>2018-07-24T08:24:23Z</time>
      </trkpt>
      <trkpt lat="45.9414" lon="4.71606">
        <ele>173</ele>
        <time>2018-07-24T08:24:24Z</time>
      </trkpt>
      <trkpt lat="45.94146" lon="4.71603">
        <ele>173</ele>
        <time>2018-07-24T08:24:25Z</time>
      </trkpt>
      <trkpt lat="45.94151" lon="4.716">
        <ele>173</ele>
        <time>2018-07-24T08:24:26Z</time>
      </trkpt>
      <trkpt lat="45.94157" lon="4.71597">
        <ele>173</ele>
        <time>2018-07-24T08:24:27Z</time>
      </trkpt>
      <trkpt lat="45.94164" lon="4.71595">
        <ele>173</ele>
        <time>2018-07-24T08:24:28Z</time>
      </trkpt>
      <trkpt lat="45.94167" lon="4.71595">
        <ele>174</ele>
        <time>2018-07-24T08:24:29Z</time>
      </trkpt>
      <trkpt lat="45.94174" lon="4.71595">
        <ele>173</ele>
        <time>2018-07-24T08:24:30Z</time>
      </trkpt>
      <trkpt lat="45.9418" lon="4.71594">
        <ele>173</ele>
        <time>2018-07-24T08:24:31Z</time>
      </trkpt>
      <trkpt lat="45.94184" lon="4.71593">
        <ele>173</ele>
        <time>2018-07-24T08:24:32Z</time>
      </trkpt>
      <trkpt lat="45.94189" lon="4.71592">
        <ele>173</ele>
        <time>2018-07-24T08:24:33Z</time>
      </trkpt>
      <trkpt lat="45.94194" lon="4.7159">
        <ele>173</ele>
        <time>2018-07-24T08:24:34Z</time>
      </trkpt>
      <trkpt lat="45.94199" lon="4.71588">
        <ele>173</ele>
        <time>2018-07-24T08:24:35Z</time>
      </trkpt>
      <trkpt lat="45.94204" lon="4.71586">
        <ele>173</ele>
        <time>2018-07-24T08:24:36Z</time>
      </trkpt>
      <trkpt lat="45.94211" lon="4.71585">
        <ele>173</ele>
        <time>2018-07-24T08:24:37Z</time>
      </trkpt>
      <trkpt lat="45.94215" lon="4.71582">
        <ele>174</ele>
        <time>2018-07-24T08:24:38Z</time>
      </trkpt>
      <trkpt lat="45.94221" lon="4.71578">
        <ele>174</ele>
        <time>2018-07-24T08:24:39Z</time>
      </trkpt>
      <trkpt lat="45.94226" lon="4.71577">
        <ele>174</ele>
        <time>2018-07-24T08:24:40Z</time>
      </trkpt>
      <trkpt lat="45.94232" lon="4.71575">
        <ele>174</ele>
        <time>2018-07-24T08:24:41Z</time>
      </trkpt>
      <trkpt lat="45.94237" lon="4.71571">
        <ele>174</ele>
        <time>2018-07-24T08:24:42Z</time>
      </trkpt>
      <trkpt lat="45.94243" lon="4.71568">
        <ele>174</ele>
        <time>2018-07-24T08:24:43Z</time>
      </trkpt>
      <trkpt lat="45.94248" lon="4.71565">
        <ele>174</ele>
        <time>2018-07-24T08:24:44Z</time>
      </trkpt>
      <trkpt lat="45.94254" lon="4.71563">
        <ele>175</ele>
        <time>2018-07-24T08:24:45Z</time>
      </trkpt>
      <trkpt lat="45.94259" lon="4.71561">
        <ele>175</ele>
        <time>2018-07-24T08:24:46Z</time>
      </trkpt>
      <trkpt lat="45.94265" lon="4.71559">
        <ele>175</ele>
        <time>2018-07-24T08:24:47Z</time>
      </trkpt>
      <trkpt lat="45.94271" lon="4.71557">
        <ele>175</ele>
        <time>2018-07-24T08:24:48Z</time>
      </trkpt>
      <trkpt lat="45.94276" lon="4.71556">
        <ele>175</ele>
        <time>2018-07-24T08:24:49Z</time>
      </trkpt>
      <trkpt lat="45.94281" lon="4.71554">
        <ele>175</ele>
        <time>2018-07-24T08:24:50Z</time>
      </trkpt>
      <trkpt lat="45.94286" lon="4.71553">
        <ele>175</ele>
        <time>2018-07-24T08:24:51Z</time>
      </trkpt>
      <trkpt lat="45.9429" lon="4.71551">
        <ele>175</ele>
        <time>2018-07-24T08:24:52Z</time>
      </trkpt>
      <trkpt lat="45.94295" lon="4.7155">
        <ele>175</ele>
        <time>2018-07-24T08:24:53Z</time>
      </trkpt>
      <trkpt lat="45.943" lon="4.71548">
        <ele>175</ele>
        <time>2018-07-24T08:24:54Z</time>
      </trkpt>
      <trkpt lat="45.94306" lon="4.71547">
        <ele>175</ele>
        <time>2018-07-24T08:24:55Z</time>
      </trkpt>
      <trkpt lat="45.9431" lon="4.71544">
        <ele>175</ele>
        <time>2018-07-24T08:24:56Z</time>
      </trkpt>
      <trkpt lat="45.94316" lon="4.71542">
        <ele>175</ele>
        <time>2018-07-24T08:24:57Z</time>
      </trkpt>
      <trkpt lat="45.94322" lon="4.71539">
        <ele>175</ele>
        <time>2018-07-24T08:24:58Z</time>
      </trkpt>
      <trkpt lat="45.94331" lon="4.71535">
        <ele>176</ele>
        <time>2018-07-24T08:25:00Z</time>
      </trkpt>
      <trkpt lat="45.94336" lon="4.71531">
        <ele>176</ele>
        <time>2018-07-24T08:25:01Z</time>
      </trkpt>
      <trkpt lat="45.94341" lon="4.71529">
        <ele>176</ele>
        <time>2018-07-24T08:25:02Z</time>
      </trkpt>
      <trkpt lat="45.94345" lon="4.71528">
        <ele>176</ele>
        <time>2018-07-24T08:25:03Z</time>
      </trkpt>
      <trkpt lat="45.94353" lon="4.71527">
        <ele>176</ele>
        <time>2018-07-24T08:25:04Z</time>
      </trkpt>
      <trkpt lat="45.94358" lon="4.71526">
        <ele>176</ele>
        <time>2018-07-24T08:25:05Z</time>
      </trkpt>
      <trkpt lat="45.94362" lon="4.71523">
        <ele>176</ele>
        <time>2018-07-24T08:25:06Z</time>
      </trkpt>
      <trkpt lat="45.94367" lon="4.71522">
        <ele>176</ele>
        <time>2018-07-24T08:25:07Z</time>
      </trkpt>
      <trkpt lat="45.94374" lon="4.7152">
        <ele>176</ele>
        <time>2018-07-24T08:25:08Z</time>
      </trkpt>
      <trkpt lat="45.9438" lon="4.71517">
        <ele>177</ele>
        <time>2018-07-24T08:25:09Z</time>
      </trkpt>
      <trkpt lat="45.94384" lon="4.71515">
        <ele>177</ele>
        <time>2018-07-24T08:25:10Z</time>
      </trkpt>
      <trkpt lat="45.94392" lon="4.71512">
        <ele>177</ele>
        <time>2018-07-24T08:25:11Z</time>
      </trkpt>
      <trkpt lat="45.94397" lon="4.7151">
        <ele>177</ele>
        <time>2018-07-24T08:25:12Z</time>
      </trkpt>
      <trkpt lat="45.94403" lon="4.71507">
        <ele>177</ele>
        <time>2018-07-24T08:25:13Z</time>
      </trkpt>
      <trkpt lat="45.94408" lon="4.71504">
        <ele>177</ele>
        <time>2018-07-24T08:25:14Z</time>
      </trkpt>
      <trkpt lat="45.94413" lon="4.71502">
        <ele>178</ele>
        <time>2018-07-24T08:25:15Z</time>
      </trkpt>
      <trkpt lat="45.94418" lon="4.715">
        <ele>178</ele>
        <time>2018-07-24T08:25:16Z</time>
      </trkpt>
      <trkpt lat="45.94423" lon="4.71498">
        <ele>178</ele>
        <time>2018-07-24T08:25:17Z</time>
      </trkpt>
      <trkpt lat="45.94428" lon="4.71497">
        <ele>178</ele>
        <time>2018-07-24T08:25:18Z</time>
      </trkpt>
      <trkpt lat="45.94435" lon="4.71493">
        <ele>178</ele>
        <time>2018-07-24T08:25:19Z</time>
      </trkpt>
      <trkpt lat="45.94441" lon="4.71492">
        <ele>178</ele>
        <time>2018-07-24T08:25:20Z</time>
      </trkpt>
      <trkpt lat="45.94445" lon="4.71489">
        <ele>179</ele>
        <time>2018-07-24T08:25:21Z</time>
      </trkpt>
      <trkpt lat="45.94451" lon="4.71485">
        <ele>179</ele>
        <time>2018-07-24T08:25:22Z</time>
      </trkpt>
      <trkpt lat="45.94455" lon="4.71482">
        <ele>179</ele>
        <time>2018-07-24T08:25:23Z</time>
      </trkpt>
      <trkpt lat="45.9446" lon="4.7148">
        <ele>179</ele>
        <time>2018-07-24T08:25:24Z</time>
      </trkpt>
      <trkpt lat="45.94465" lon="4.71478">
        <ele>179</ele>
        <time>2018-07-24T08:25:25Z</time>
      </trkpt>
      <trkpt lat="45.9447" lon="4.71474">
        <ele>179</ele>
        <time>2018-07-24T08:25:26Z</time>
      </trkpt>
      <trkpt lat="45.94475" lon="4.7147">
        <ele>179</ele>
        <time>2018-07-24T08:25:27Z</time>
      </trkpt>
      <trkpt lat="45.9448" lon="4.71469">
        <ele>179</ele>
        <time>2018-07-24T08:25:28Z</time>
      </trkpt>
      <trkpt lat="45.94485" lon="4.71467">
        <ele>179</ele>
        <time>2018-07-24T08:25:29Z</time>
      </trkpt>
      <trkpt lat="45.94493" lon="4.71463">
        <ele>179</ele>
        <time>2018-07-24T08:25:31Z</time>
      </trkpt>
      <trkpt lat="45.94497" lon="4.71461">
        <ele>179</ele>
        <time>2018-07-24T08:25:32Z</time>
      </trkpt>
      <trkpt lat="45.94505" lon="4.71458">
        <ele>180</ele>
        <time>2018-07-24T08:25:34Z</time>
      </trkpt>
      <trkpt lat="45.94511" lon="4.71455">
        <ele>180</ele>
        <time>2018-07-24T08:25:35Z</time>
      </trkpt>
      <trkpt lat="45.94519" lon="4.71451">
        <ele>180</ele>
        <time>2018-07-24T08:25:37Z</time>
      </trkpt>
      <trkpt lat="45.94523" lon="4.7145">
        <ele>180</ele>
        <time>2018-07-24T08:25:38Z</time>
      </trkpt>
      <trkpt lat="45.94527" lon="4.71447">
        <ele>180</ele>
        <time>2018-07-24T08:25:39Z</time>
      </trkpt>
      <trkpt lat="45.94532" lon="4.71447">
        <ele>180</ele>
        <time>2018-07-24T08:25:40Z</time>
      </trkpt>
      <trkpt lat="45.94541" lon="4.71446">
        <ele>181</ele>
        <time>2018-07-24T08:25:42Z</time>
      </trkpt>
      <trkpt lat="45.94547" lon="4.71445">
        <ele>181</ele>
        <time>2018-07-24T08:25:43Z</time>
      </trkpt>
      <trkpt lat="45.94553" lon="4.71444">
        <ele>181</ele>
        <time>2018-07-24T08:25:44Z</time>
      </trkpt>
      <trkpt lat="45.94557" lon="4.71444">
        <ele>181</ele>
        <time>2018-07-24T08:25:45Z</time>
      </trkpt>
      <trkpt lat="45.94565" lon="4.71442">
        <ele>181</ele>
        <time>2018-07-24T08:25:47Z</time>
      </trkpt>
      <trkpt lat="45.94567" lon="4.71443">
        <ele>181</ele>
        <time>2018-07-24T08:25:48Z</time>
      </trkpt>
      <trkpt lat="45.94576" lon="4.71443">
        <ele>181</ele>
        <time>2018-07-24T08:25:50Z</time>
      </trkpt>
      <trkpt lat="45.94579" lon="4.71443">
        <ele>181</ele>
        <time>2018-07-24T08:25:51Z</time>
      </trkpt>
      <trkpt lat="45.94587" lon="4.71442">
        <ele>182</ele>
        <time>2018-07-24T08:25:53Z</time>
      </trkpt>
      <trkpt lat="45.94592" lon="4.71442">
        <ele>182</ele>
        <time>2018-07-24T08:25:54Z</time>
      </trkpt>
      <trkpt lat="45.94599" lon="4.71442">
        <ele>182</ele>
        <time>2018-07-24T08:25:55Z</time>
      </trkpt>
      <trkpt lat="45.94602" lon="4.71442">
        <ele>182</ele>
        <time>2018-07-24T08:25:56Z</time>
      </trkpt>
      <trkpt lat="45.94607" lon="4.71441">
        <ele>182</ele>
        <time>2018-07-24T08:25:57Z</time>
      </trkpt>
      <trkpt lat="45.94611" lon="4.7144">
        <ele>182</ele>
        <time>2018-07-24T08:25:58Z</time>
      </trkpt>
      <trkpt lat="45.9462" lon="4.71439">
        <ele>181</ele>
        <time>2018-07-24T08:26:00Z</time>
      </trkpt>
      <trkpt lat="45.94625" lon="4.7144">
        <ele>181</ele>
        <time>2018-07-24T08:26:01Z</time>
      </trkpt>
      <trkpt lat="45.94631" lon="4.71441">
        <ele>181</ele>
        <time>2018-07-24T08:26:02Z</time>
      </trkpt>
      <trkpt lat="45.94636" lon="4.71441">
        <ele>181</ele>
        <time>2018-07-24T08:26:03Z</time>
      </trkpt>
      <trkpt lat="45.94644" lon="4.71441">
        <ele>181</ele>
        <time>2018-07-24T08:26:05Z</time>
      </trkpt>
      <trkpt lat="45.94649" lon="4.71442">
        <ele>181</ele>
        <time>2018-07-24T08:26:06Z</time>
      </trkpt>
      <trkpt lat="45.94654" lon="4.71443">
        <ele>181</ele>
        <time>2018-07-24T08:26:07Z</time>
      </trkpt>
      <trkpt lat="45.9466" lon="4.71443">
        <ele>181</ele>
        <time>2018-07-24T08:26:08Z</time>
      </trkpt>
      <trkpt lat="45.94664" lon="4.71444">
        <ele>181</ele>
        <time>2018-07-24T08:26:09Z</time>
      </trkpt>
      <trkpt lat="45.94669" lon="4.71446">
        <ele>182</ele>
        <time>2018-07-24T08:26:10Z</time>
      </trkpt>
      <trkpt lat="45.94677" lon="4.71447">
        <ele>182</ele>
        <time>2018-07-24T08:26:11Z</time>
      </trkpt>
      <trkpt lat="45.94682" lon="4.71448">
        <ele>182</ele>
        <time>2018-07-24T08:26:12Z</time>
      </trkpt>
      <trkpt lat="45.94688" lon="4.71449">
        <ele>182</ele>
        <time>2018-07-24T08:26:13Z</time>
      </trkpt>
      <trkpt lat="45.94692" lon="4.71451">
        <ele>182</ele>
        <time>2018-07-24T08:26:14Z</time>
      </trkpt>
      <trkpt lat="45.94698" lon="4.71451">
        <ele>182</ele>
        <time>2018-07-24T08:26:15Z</time>
      </trkpt>
      <trkpt lat="45.94703" lon="4.71451">
        <ele>182</ele>
        <time>2018-07-24T08:26:16Z</time>
      </trkpt>
      <trkpt lat="45.94708" lon="4.71451">
        <ele>182</ele>
        <time>2018-07-24T08:26:17Z</time>
      </trkpt>
      <trkpt lat="45.94713" lon="4.71451">
        <ele>182</ele>
        <time>2018-07-24T08:26:18Z</time>
      </trkpt>
      <trkpt lat="45.94718" lon="4.71453">
        <ele>182</ele>
        <time>2018-07-24T08:26:19Z</time>
      </trkpt>
      <trkpt lat="45.94722" lon="4.71453">
        <ele>182</ele>
        <time>2018-07-24T08:26:20Z</time>
      </trkpt>
      <trkpt lat="45.94728" lon="4.71453">
        <ele>182</ele>
        <time>2018-07-24T08:26:21Z</time>
      </trkpt>
      <trkpt lat="45.94734" lon="4.71454">
        <ele>182</ele>
        <time>2018-07-24T08:26:22Z</time>
      </trkpt>
      <trkpt lat="45.94742" lon="4.71454">
        <ele>182</ele>
        <time>2018-07-24T08:26:24Z</time>
      </trkpt>
      <trkpt lat="45.94746" lon="4.71455">
        <ele>182</ele>
        <time>2018-07-24T08:26:25Z</time>
      </trkpt>
      <trkpt lat="45.94752" lon="4.71457">
        <ele>183</ele>
        <time>2018-07-24T08:26:26Z</time>
      </trkpt>
      <trkpt lat="45.94757" lon="4.71457">
        <ele>183</ele>
        <time>2018-07-24T08:26:27Z</time>
      </trkpt>
      <trkpt lat="45.94762" lon="4.71456">
        <ele>183</ele>
        <time>2018-07-24T08:26:28Z</time>
      </trkpt>
      <trkpt lat="45.94767" lon="4.71457">
        <ele>183</ele>
        <time>2018-07-24T08:26:29Z</time>
      </trkpt>
      <trkpt lat="45.94773" lon="4.71457">
        <ele>183</ele>
        <time>2018-07-24T08:26:30Z</time>
      </trkpt>
      <trkpt lat="45.94778" lon="4.71457">
        <ele>183</ele>
        <time>2018-07-24T08:26:31Z</time>
      </trkpt>
      <trkpt lat="45.94782" lon="4.71456">
        <ele>183</ele>
        <time>2018-07-24T08:26:32Z</time>
      </trkpt>
      <trkpt lat="45.94791" lon="4.71456">
        <ele>183</ele>
        <time>2018-07-24T08:26:33Z</time>
      </trkpt>
      <trkpt lat="45.94798" lon="4.71457">
        <ele>183</ele>
        <time>2018-07-24T08:26:34Z</time>
      </trkpt>
      <trkpt lat="45.94805" lon="4.71456">
        <ele>183</ele>
        <time>2018-07-24T08:26:35Z</time>
      </trkpt>
      <trkpt lat="45.94811" lon="4.71456">
        <ele>183</ele>
        <time>2018-07-24T08:26:36Z</time>
      </trkpt>
      <trkpt lat="45.94817" lon="4.71456">
        <ele>183</ele>
        <time>2018-07-24T08:26:37Z</time>
      </trkpt>
      <trkpt lat="45.94823" lon="4.71456">
        <ele>183</ele>
        <time>2018-07-24T08:26:38Z</time>
      </trkpt>
      <trkpt lat="45.94829" lon="4.71457">
        <ele>183</ele>
        <time>2018-07-24T08:26:39Z</time>
      </trkpt>
      <trkpt lat="45.94834" lon="4.71459">
        <ele>183</ele>
        <time>2018-07-24T08:26:40Z</time>
      </trkpt>
      <trkpt lat="45.94839" lon="4.7146">
        <ele>183</ele>
        <time>2018-07-24T08:26:41Z</time>
      </trkpt>
      <trkpt lat="45.94847" lon="4.71462">
        <ele>183</ele>
        <time>2018-07-24T08:26:42Z</time>
      </trkpt>
      <trkpt lat="45.94853" lon="4.71463">
        <ele>183</ele>
        <time>2018-07-24T08:26:43Z</time>
      </trkpt>
      <trkpt lat="45.94858" lon="4.71464">
        <ele>183</ele>
        <time>2018-07-24T08:26:44Z</time>
      </trkpt>
      <trkpt lat="45.94865" lon="4.71465">
        <ele>183</ele>
        <time>2018-07-24T08:26:45Z</time>
      </trkpt>
      <trkpt lat="45.94872" lon="4.71467">
        <ele>183</ele>
        <time>2018-07-24T08:26:46Z</time>
      </trkpt>
      <trkpt lat="45.9488" lon="4.71469">
        <ele>183</ele>
        <time>2018-07-24T08:26:47Z</time>
      </trkpt>
      <trkpt lat="45.94889" lon="4.71471">
        <ele>183</ele>
        <time>2018-07-24T08:26:48Z</time>
      </trkpt>
      <trkpt lat="45.94897" lon="4.71472">
        <ele>183</ele>
        <time>2018-07-24T08:26:49Z</time>
      </trkpt>
      <trkpt lat="45.94904" lon="4.71472">
        <ele>183</ele>
        <time>2018-07-24T08:26:50Z</time>
      </trkpt>
      <trkpt lat="45.9491" lon="4.71472">
        <ele>183</ele>
        <time>2018-07-24T08:26:51Z</time>
      </trkpt>
      <trkpt lat="45.94916" lon="4.71472">
        <ele>183</ele>
        <time>2018-07-24T08:26:52Z</time>
      </trkpt>
      <trkpt lat="45.94924" lon="4.71473">
        <ele>183</ele>
        <time>2018-07-24T08:26:53Z</time>
      </trkpt>
      <trkpt lat="45.94931" lon="4.71473">
        <ele>183</ele>
        <time>2018-07-24T08:26:54Z</time>
      </trkpt>
      <trkpt lat="45.94937" lon="4.71474">
        <ele>183</ele>
        <time>2018-07-24T08:26:55Z</time>
      </trkpt>
      <trkpt lat="45.94944" lon="4.71476">
        <ele>183</ele>
        <time>2018-07-24T08:26:56Z</time>
      </trkpt>
      <trkpt lat="45.9495" lon="4.71479">
        <ele>183</ele>
        <time>2018-07-24T08:26:57Z</time>
      </trkpt>
      <trkpt lat="45.94955" lon="4.71483">
        <ele>183</ele>
        <time>2018-07-24T08:26:58Z</time>
      </trkpt>
      <trkpt lat="45.94959" lon="4.71487">
        <ele>182</ele>
        <time>2018-07-24T08:26:59Z</time>
      </trkpt>
      <trkpt lat="45.94966" lon="4.71489">
        <ele>182</ele>
        <time>2018-07-24T08:27:00Z</time>
      </trkpt>
      <trkpt lat="45.94971" lon="4.71488">
        <ele>182</ele>
        <time>2018-07-24T08:27:01Z</time>
      </trkpt>
      <trkpt lat="45.94977" lon="4.71484">
        <ele>182</ele>
        <time>2018-07-24T08:27:02Z</time>
      </trkpt>
      <trkpt lat="45.94983" lon="4.71483">
        <ele>182</ele>
        <time>2018-07-24T08:27:03Z</time>
      </trkpt>
      <trkpt lat="45.94989" lon="4.7148">
        <ele>182</ele>
        <time>2018-07-24T08:27:04Z</time>
      </trkpt>
      <trkpt lat="45.94995" lon="4.71479">
        <ele>182</ele>
        <time>2018-07-24T08:27:05Z</time>
      </trkpt>
      <trkpt lat="45.95001" lon="4.71479">
        <ele>181</ele>
        <time>2018-07-24T08:27:06Z</time>
      </trkpt>
      <trkpt lat="45.95008" lon="4.71479">
        <ele>181</ele>
        <time>2018-07-24T08:27:07Z</time>
      </trkpt>
      <trkpt lat="45.95015" lon="4.71481">
        <ele>181</ele>
        <time>2018-07-24T08:27:08Z</time>
      </trkpt>
      <trkpt lat="45.95022" lon="4.71481">
        <ele>181</ele>
        <time>2018-07-24T08:27:09Z</time>
      </trkpt>
      <trkpt lat="45.95028" lon="4.71482">
        <ele>181</ele>
        <time>2018-07-24T08:27:10Z</time>
      </trkpt>
      <trkpt lat="45.95034" lon="4.71483">
        <ele>181</ele>
        <time>2018-07-24T08:27:11Z</time>
      </trkpt>
      <trkpt lat="45.95043" lon="4.71482">
        <ele>181</ele>
        <time>2018-07-24T08:27:12Z</time>
      </trkpt>
      <trkpt lat="45.95051" lon="4.71484">
        <ele>181</ele>
        <time>2018-07-24T08:27:13Z</time>
      </trkpt>
      <trkpt lat="45.95057" lon="4.71483">
        <ele>181</ele>
        <time>2018-07-24T08:27:14Z</time>
      </trkpt>
      <trkpt lat="45.95065" lon="4.71486">
        <ele>181</ele>
        <time>2018-07-24T08:27:15Z</time>
      </trkpt>
      <trkpt lat="45.95075" lon="4.71484">
        <ele>180</ele>
        <time>2018-07-24T08:27:16Z</time>
      </trkpt>
      <trkpt lat="45.95083" lon="4.71483">
        <ele>180</ele>
        <time>2018-07-24T08:27:17Z</time>
      </trkpt>
      <trkpt lat="45.95091" lon="4.71483">
        <ele>179</ele>
        <time>2018-07-24T08:27:18Z</time>
      </trkpt>
      <trkpt lat="45.951" lon="4.71485">
        <ele>179</ele>
        <time>2018-07-24T08:27:19Z</time>
      </trkpt>
      <trkpt lat="45.95111" lon="4.71482">
        <ele>179</ele>
        <time>2018-07-24T08:27:20Z</time>
      </trkpt>
      <trkpt lat="45.95119" lon="4.71483">
        <ele>178</ele>
        <time>2018-07-24T08:27:21Z</time>
      </trkpt>
      <trkpt lat="45.95127" lon="4.71481">
        <ele>178</ele>
        <time>2018-07-24T08:27:22Z</time>
      </trkpt>
      <trkpt lat="45.95133" lon="4.71484">
        <ele>178</ele>
        <time>2018-07-24T08:27:23Z</time>
      </trkpt>
      <trkpt lat="45.95141" lon="4.71484">
        <ele>178</ele>
        <time>2018-07-24T08:27:24Z</time>
      </trkpt>
      <trkpt lat="45.95149" lon="4.71482">
        <ele>178</ele>
        <time>2018-07-24T08:27:25Z</time>
      </trkpt>
      <trkpt lat="45.95162" lon="4.71485">
        <ele>178</ele>
        <time>2018-07-24T08:27:26Z</time>
      </trkpt>
      <trkpt lat="45.95169" lon="4.71486">
        <ele>177</ele>
        <time>2018-07-24T08:27:27Z</time>
      </trkpt>
      <trkpt lat="45.95178" lon="4.71489">
        <ele>177</ele>
        <time>2018-07-24T08:27:28Z</time>
      </trkpt>
      <trkpt lat="45.95188" lon="4.7149">
        <ele>177</ele>
        <time>2018-07-24T08:27:29Z</time>
      </trkpt>
      <trkpt lat="45.95198" lon="4.71492">
        <ele>177</ele>
        <time>2018-07-24T08:27:30Z</time>
      </trkpt>
      <trkpt lat="45.95207" lon="4.71491">
        <ele>177</ele>
        <time>2018-07-24T08:27:31Z</time>
      </trkpt>
      <trkpt lat="45.95213" lon="4.71493">
        <ele>177</ele>
        <time>2018-07-24T08:27:32Z</time>
      </trkpt>
      <trkpt lat="45.95222" lon="4.71493">
        <ele>177</ele>
        <time>2018-07-24T08:27:33Z</time>
      </trkpt>
      <trkpt lat="45.9523" lon="4.71494">
        <ele>177</ele>
        <time>2018-07-24T08:27:34Z</time>
      </trkpt>
      <trkpt lat="45.95241" lon="4.71495">
        <ele>177</ele>
        <time>2018-07-24T08:27:35Z</time>
      </trkpt>
      <trkpt lat="45.95249" lon="4.71494">
        <ele>177</ele>
        <time>2018-07-24T08:27:36Z</time>
      </trkpt>
      <trkpt lat="45.9526" lon="4.71496">
        <ele>177</ele>
        <time>2018-07-24T08:27:37Z</time>
      </trkpt>
      <trkpt lat="45.9527" lon="4.71496">
        <ele>176</ele>
        <time>2018-07-24T08:27:38Z</time>
      </trkpt>
      <trkpt lat="45.95282" lon="4.71495">
        <ele>176</ele>
        <time>2018-07-24T08:27:39Z</time>
      </trkpt>
      <trkpt lat="45.95289" lon="4.71496">
        <ele>176</ele>
        <time>2018-07-24T08:27:40Z</time>
      </trkpt>
      <trkpt lat="45.953" lon="4.71495">
        <ele>175</ele>
        <time>2018-07-24T08:27:41Z</time>
      </trkpt>
      <trkpt lat="45.95307" lon="4.71495">
        <ele>175</ele>
        <time>2018-07-24T08:27:42Z</time>
      </trkpt>
      <trkpt lat="45.95316" lon="4.71495">
        <ele>175</ele>
        <time>2018-07-24T08:27:43Z</time>
      </trkpt>
      <trkpt lat="45.95324" lon="4.71497">
        <ele>175</ele>
        <time>2018-07-24T08:27:44Z</time>
      </trkpt>
      <trkpt lat="45.95333" lon="4.71496">
        <ele>174</ele>
        <time>2018-07-24T08:27:45Z</time>
      </trkpt>
      <trkpt lat="45.95339" lon="4.71496">
        <ele>174</ele>
        <time>2018-07-24T08:27:46Z</time>
      </trkpt>
      <trkpt lat="45.95346" lon="4.71498">
        <ele>174</ele>
        <time>2018-07-24T08:27:47Z</time>
      </trkpt>
      <trkpt lat="45.95351" lon="4.71498">
        <ele>175</ele>
        <time>2018-07-24T08:27:48Z</time>
      </trkpt>
      <trkpt lat="45.95357" lon="4.715">
        <ele>174</ele>
        <time>2018-07-24T08:27:49Z</time>
      </trkpt>
      <trkpt lat="45.95363" lon="4.71503">
        <ele>174</ele>
        <time>2018-07-24T08:27:50Z</time>
      </trkpt>
      <trkpt lat="45.95369" lon="4.71504">
        <ele>174</ele>
        <time>2018-07-24T08:27:51Z</time>
      </trkpt>
      <trkpt lat="45.95375" lon="4.71504">
        <ele>174</ele>
        <time>2018-07-24T08:27:52Z</time>
      </trkpt>
      <trkpt lat="45.95382" lon="4.71503">
        <ele>174</ele>
        <time>2018-07-24T08:27:53Z</time>
      </trkpt>
      <trkpt lat="45.95388" lon="4.71503">
        <ele>174</ele>
        <time>2018-07-24T08:27:54Z</time>
      </trkpt>
      <trkpt lat="45.95395" lon="4.71503">
        <ele>174</ele>
        <time>2018-07-24T08:27:55Z</time>
      </trkpt>
      <trkpt lat="45.954" lon="4.71504">
        <ele>174</ele>
        <time>2018-07-24T08:27:56Z</time>
      </trkpt>
      <trkpt lat="45.95407" lon="4.71504">
        <ele>174</ele>
        <time>2018-07-24T08:27:57Z</time>
      </trkpt>
      <trkpt lat="45.95414" lon="4.71505">
        <ele>174</ele>
        <time>2018-07-24T08:27:58Z</time>
      </trkpt>
      <trkpt lat="45.95421" lon="4.71505">
        <ele>174</ele>
        <time>2018-07-24T08:27:59Z</time>
      </trkpt>
      <trkpt lat="45.95428" lon="4.71505">
        <ele>174</ele>
        <time>2018-07-24T08:28:00Z</time>
      </trkpt>
      <trkpt lat="45.95435" lon="4.71504">
        <ele>175</ele>
        <time>2018-07-24T08:28:01Z</time>
      </trkpt>
      <trkpt lat="45.95441" lon="4.71505">
        <ele>175</ele>
        <time>2018-07-24T08:28:02Z</time>
      </trkpt>
      <trkpt lat="45.95448" lon="4.71507">
        <ele>175</ele>
        <time>2018-07-24T08:28:03Z</time>
      </trkpt>
      <trkpt lat="45.95453" lon="4.71509">
        <ele>175</ele>
        <time>2018-07-24T08:28:04Z</time>
      </trkpt>
      <trkpt lat="45.9546" lon="4.7151">
        <ele>175</ele>
        <time>2018-07-24T08:28:05Z</time>
      </trkpt>
      <trkpt lat="45.95465" lon="4.71512">
        <ele>175</ele>
        <time>2018-07-24T08:28:06Z</time>
      </trkpt>
      <trkpt lat="45.95471" lon="4.71512">
        <ele>175</ele>
        <time>2018-07-24T08:28:07Z</time>
      </trkpt>
      <trkpt lat="45.95477" lon="4.71511">
        <ele>176</ele>
        <time>2018-07-24T08:28:08Z</time>
      </trkpt>
      <trkpt lat="45.95483" lon="4.71512">
        <ele>176</ele>
        <time>2018-07-24T08:28:09Z</time>
      </trkpt>
      <trkpt lat="45.95489" lon="4.71512">
        <ele>176</ele>
        <time>2018-07-24T08:28:10Z</time>
      </trkpt>
      <trkpt lat="45.95495" lon="4.71513">
        <ele>176</ele>
        <time>2018-07-24T08:28:11Z</time>
      </trkpt>
      <trkpt lat="45.95501" lon="4.71513">
        <ele>177</ele>
        <time>2018-07-24T08:28:12Z</time>
      </trkpt>
      <trkpt lat="45.95507" lon="4.71514">
        <ele>177</ele>
        <time>2018-07-24T08:28:13Z</time>
      </trkpt>
      <trkpt lat="45.95513" lon="4.71514">
        <ele>177</ele>
        <time>2018-07-24T08:28:14Z</time>
      </trkpt>
      <trkpt lat="45.95518" lon="4.71514">
        <ele>177</ele>
        <time>2018-07-24T08:28:15Z</time>
      </trkpt>
      <trkpt lat="45.95526" lon="4.71514">
        <ele>177</ele>
        <time>2018-07-24T08:28:17Z</time>
      </trkpt>
      <trkpt lat="45.95532" lon="4.71514">
        <ele>177</ele>
        <time>2018-07-24T08:28:18Z</time>
      </trkpt>
      <trkpt lat="45.95537" lon="4.71515">
        <ele>177</ele>
        <time>2018-07-24T08:28:19Z</time>
      </trkpt>
      <trkpt lat="45.95543" lon="4.71516">
        <ele>177</ele>
        <time>2018-07-24T08:28:20Z</time>
      </trkpt>
      <trkpt lat="45.95549" lon="4.71516">
        <ele>178</ele>
        <time>2018-07-24T08:28:21Z</time>
      </trkpt>
      <trkpt lat="45.95556" lon="4.71514">
        <ele>178</ele>
        <time>2018-07-24T08:28:22Z</time>
      </trkpt>
      <trkpt lat="45.95562" lon="4.71515">
        <ele>178</ele>
        <time>2018-07-24T08:28:23Z</time>
      </trkpt>
      <trkpt lat="45.95566" lon="4.71515">
        <ele>178</ele>
        <time>2018-07-24T08:28:24Z</time>
      </trkpt>
      <trkpt lat="45.95572" lon="4.71516">
        <ele>178</ele>
        <time>2018-07-24T08:28:25Z</time>
      </trkpt>
      <trkpt lat="45.95579" lon="4.71518">
        <ele>178</ele>
        <time>2018-07-24T08:28:26Z</time>
      </trkpt>
      <trkpt lat="45.95585" lon="4.71518">
        <ele>179</ele>
        <time>2018-07-24T08:28:27Z</time>
      </trkpt>
      <trkpt lat="45.95591" lon="4.71519">
        <ele>179</ele>
        <time>2018-07-24T08:28:28Z</time>
      </trkpt>
      <trkpt lat="45.95597" lon="4.71519">
        <ele>179</ele>
        <time>2018-07-24T08:28:29Z</time>
      </trkpt>
      <trkpt lat="45.95602" lon="4.7152">
        <ele>179</ele>
        <time>2018-07-24T08:28:30Z</time>
      </trkpt>
      <trkpt lat="45.95607" lon="4.71518">
        <ele>179</ele>
        <time>2018-07-24T08:28:31Z</time>
      </trkpt>
      <trkpt lat="45.95612" lon="4.71519">
        <ele>179</ele>
        <time>2018-07-24T08:28:32Z</time>
      </trkpt>
      <trkpt lat="45.95619" lon="4.71519">
        <ele>179</ele>
        <time>2018-07-24T08:28:33Z</time>
      </trkpt>
      <trkpt lat="45.95624" lon="4.7152">
        <ele>179</ele>
        <time>2018-07-24T08:28:34Z</time>
      </trkpt>
      <trkpt lat="45.9563" lon="4.71521">
        <ele>179</ele>
        <time>2018-07-24T08:28:35Z</time>
      </trkpt>
      <trkpt lat="45.95635" lon="4.71521">
        <ele>179</ele>
        <time>2018-07-24T08:28:36Z</time>
      </trkpt>
      <trkpt lat="45.95641" lon="4.71522">
        <ele>180</ele>
        <time>2018-07-24T08:28:37Z</time>
      </trkpt>
      <trkpt lat="45.95647" lon="4.71522">
        <ele>180</ele>
        <time>2018-07-24T08:28:38Z</time>
      </trkpt>
      <trkpt lat="45.95652" lon="4.71522">
        <ele>180</ele>
        <time>2018-07-24T08:28:39Z</time>
      </trkpt>
      <trkpt lat="45.95658" lon="4.71523">
        <ele>180</ele>
        <time>2018-07-24T08:28:40Z</time>
      </trkpt>
      <trkpt lat="45.95664" lon="4.71523">
        <ele>180</ele>
        <time>2018-07-24T08:28:41Z</time>
      </trkpt>
      <trkpt lat="45.95669" lon="4.71524">
        <ele>180</ele>
        <time>2018-07-24T08:28:42Z</time>
      </trkpt>
      <trkpt lat="45.95675" lon="4.71524">
        <ele>180</ele>
        <time>2018-07-24T08:28:43Z</time>
      </trkpt>
      <trkpt lat="45.9568" lon="4.71525">
        <ele>180</ele>
        <time>2018-07-24T08:28:44Z</time>
      </trkpt>
      <trkpt lat="45.95685" lon="4.71525">
        <ele>180</ele>
        <time>2018-07-24T08:28:45Z</time>
      </trkpt>
      <trkpt lat="45.95689" lon="4.71526">
        <ele>180</ele>
        <time>2018-07-24T08:28:46Z</time>
      </trkpt>
      <trkpt lat="45.95695" lon="4.71527">
        <ele>180</ele>
        <time>2018-07-24T08:28:47Z</time>
      </trkpt>
      <trkpt lat="45.957" lon="4.71527">
        <ele>180</ele>
        <time>2018-07-24T08:28:48Z</time>
      </trkpt>
      <trkpt lat="45.95705" lon="4.71529">
        <ele>180</ele>
        <time>2018-07-24T08:28:49Z</time>
      </trkpt>
      <trkpt lat="45.95711" lon="4.7153">
        <ele>180</ele>
        <time>2018-07-24T08:28:50Z</time>
      </trkpt>
      <trkpt lat="45.95716" lon="4.7153">
        <ele>180</ele>
        <time>2018-07-24T08:28:51Z</time>
      </trkpt>
      <trkpt lat="45.95722" lon="4.7153">
        <ele>180</ele>
        <time>2018-07-24T08:28:52Z</time>
      </trkpt>
      <trkpt lat="45.95727" lon="4.71529">
        <ele>180</ele>
        <time>2018-07-24T08:28:53Z</time>
      </trkpt>
      <trkpt lat="45.95732" lon="4.7153">
        <ele>180</ele>
        <time>2018-07-24T08:28:54Z</time>
      </trkpt>
      <trkpt lat="45.95737" lon="4.7153">
        <ele>180</ele>
        <time>2018-07-24T08:28:55Z</time>
      </trkpt>
      <trkpt lat="45.95741" lon="4.71531">
        <ele>180</ele>
        <time>2018-07-24T08:28:56Z</time>
      </trkpt>
      <trkpt lat="45.95747" lon="4.71532">
        <ele>180</ele>
        <time>2018-07-24T08:28:57Z</time>
      </trkpt>
      <trkpt lat="45.95751" lon="4.71533">
        <ele>180</ele>
        <time>2018-07-24T08:28:58Z</time>
      </trkpt>
      <trkpt lat="45.95756" lon="4.71535">
        <ele>180</ele>
        <time>2018-07-24T08:28:59Z</time>
      </trkpt>
      <trkpt lat="45.95762" lon="4.71535">
        <ele>180</ele>
        <time>2018-07-24T08:29:00Z</time>
      </trkpt>
      <trkpt lat="45.95767" lon="4.71535">
        <ele>180</ele>
        <time>2018-07-24T08:29:01Z</time>
      </trkpt>
      <trkpt lat="45.95772" lon="4.71535">
        <ele>180</ele>
        <time>2018-07-24T08:29:02Z</time>
      </trkpt>
      <trkpt lat="45.95777" lon="4.71535">
        <ele>180</ele>
        <time>2018-07-24T08:29:03Z</time>
      </trkpt>
      <trkpt lat="45.95782" lon="4.71534">
        <ele>180</ele>
        <time>2018-07-24T08:29:04Z</time>
      </trkpt>
      <trkpt lat="45.95788" lon="4.71534">
        <ele>180</ele>
        <time>2018-07-24T08:29:05Z</time>
      </trkpt>
      <trkpt lat="45.95793" lon="4.71533">
        <ele>181</ele>
        <time>2018-07-24T08:29:06Z</time>
      </trkpt>
      <trkpt lat="45.95801" lon="4.71534">
        <ele>181</ele>
        <time>2018-07-24T08:29:08Z</time>
      </trkpt>
      <trkpt lat="45.95807" lon="4.71534">
        <ele>181</ele>
        <time>2018-07-24T08:29:09Z</time>
      </trkpt>
      <trkpt lat="45.95813" lon="4.71535">
        <ele>181</ele>
        <time>2018-07-24T08:29:10Z</time>
      </trkpt>
      <trkpt lat="45.95818" lon="4.71534">
        <ele>181</ele>
        <time>2018-07-24T08:29:11Z</time>
      </trkpt>
      <trkpt lat="45.95823" lon="4.71534">
        <ele>181</ele>
        <time>2018-07-24T08:29:12Z</time>
      </trkpt>
      <trkpt lat="45.95828" lon="4.71534">
        <ele>181</ele>
        <time>2018-07-24T08:29:13Z</time>
      </trkpt>
      <trkpt lat="45.95834" lon="4.71534">
        <ele>182</ele>
        <time>2018-07-24T08:29:14Z</time>
      </trkpt>
      <trkpt lat="45.95838" lon="4.71535">
        <ele>181</ele>
        <time>2018-07-24T08:29:15Z</time>
      </trkpt>
      <trkpt lat="45.95844" lon="4.71536">
        <ele>181</ele>
        <time>2018-07-24T08:29:16Z</time>
      </trkpt>
      <trkpt lat="45.9585" lon="4.71535">
        <ele>181</ele>
        <time>2018-07-24T08:29:17Z</time>
      </trkpt>
      <trkpt lat="45.95856" lon="4.71536">
        <ele>181</ele>
        <time>2018-07-24T08:29:18Z</time>
      </trkpt>
      <trkpt lat="45.95861" lon="4.71536">
        <ele>181</ele>
        <time>2018-07-24T08:29:19Z</time>
      </trkpt>
      <trkpt lat="45.95866" lon="4.71536">
        <ele>181</ele>
        <time>2018-07-24T08:29:20Z</time>
      </trkpt>
      <trkpt lat="45.95872" lon="4.71537">
        <ele>181</ele>
        <time>2018-07-24T08:29:21Z</time>
      </trkpt>
      <trkpt lat="45.95877" lon="4.71536">
        <ele>181</ele>
        <time>2018-07-24T08:29:22Z</time>
      </trkpt>
      <trkpt lat="45.95881" lon="4.71537">
        <ele>181</ele>
        <time>2018-07-24T08:29:23Z</time>
      </trkpt>
      <trkpt lat="45.95887" lon="4.71537">
        <ele>181</ele>
        <time>2018-07-24T08:29:24Z</time>
      </trkpt>
      <trkpt lat="45.95892" lon="4.71537">
        <ele>182</ele>
        <time>2018-07-24T08:29:25Z</time>
      </trkpt>
      <trkpt lat="45.95897" lon="4.71537">
        <ele>182</ele>
        <time>2018-07-24T08:29:26Z</time>
      </trkpt>
      <trkpt lat="45.95902" lon="4.71536">
        <ele>182</ele>
        <time>2018-07-24T08:29:27Z</time>
      </trkpt>
      <trkpt lat="45.95909" lon="4.71536">
        <ele>182</ele>
        <time>2018-07-24T08:29:29Z</time>
      </trkpt>
      <trkpt lat="45.95914" lon="4.71538">
        <ele>182</ele>
        <time>2018-07-24T08:29:30Z</time>
      </trkpt>
      <trkpt lat="45.9592" lon="4.71539">
        <ele>183</ele>
        <time>2018-07-24T08:29:31Z</time>
      </trkpt>
      <trkpt lat="45.95923" lon="4.71541">
        <ele>183</ele>
        <time>2018-07-24T08:29:32Z</time>
      </trkpt>
      <trkpt lat="45.9593" lon="4.71541">
        <ele>183</ele>
        <time>2018-07-24T08:29:33Z</time>
      </trkpt>
      <trkpt lat="45.95935" lon="4.71542">
        <ele>183</ele>
        <time>2018-07-24T08:29:34Z</time>
      </trkpt>
      <trkpt lat="45.95941" lon="4.71542">
        <ele>183</ele>
        <time>2018-07-24T08:29:35Z</time>
      </trkpt>
      <trkpt lat="45.95945" lon="4.71542">
        <ele>183</ele>
        <time>2018-07-24T08:29:36Z</time>
      </trkpt>
      <trkpt lat="45.95953" lon="4.71545">
        <ele>183</ele>
        <time>2018-07-24T08:29:38Z</time>
      </trkpt>
      <trkpt lat="45.95958" lon="4.71546">
        <ele>183</ele>
        <time>2018-07-24T08:29:39Z</time>
      </trkpt>
      <trkpt lat="45.95962" lon="4.71548">
        <ele>183</ele>
        <time>2018-07-24T08:29:40Z</time>
      </trkpt>
      <trkpt lat="45.95968" lon="4.7155">
        <ele>183</ele>
        <time>2018-07-24T08:29:41Z</time>
      </trkpt>
      <trkpt lat="45.95973" lon="4.71552">
        <ele>183</ele>
        <time>2018-07-24T08:29:42Z</time>
      </trkpt>
      <trkpt lat="45.95979" lon="4.71552">
        <ele>183</ele>
        <time>2018-07-24T08:29:43Z</time>
      </trkpt>
      <trkpt lat="45.95987" lon="4.71551">
        <ele>183</ele>
        <time>2018-07-24T08:29:45Z</time>
      </trkpt>
      <trkpt lat="45.9599" lon="4.71547">
        <ele>184</ele>
        <time>2018-07-24T08:29:46Z</time>
      </trkpt>
      <trkpt lat="45.95996" lon="4.71546">
        <ele>184</ele>
        <time>2018-07-24T08:29:47Z</time>
      </trkpt>
      <trkpt lat="45.96001" lon="4.71545">
        <ele>185</ele>
        <time>2018-07-24T08:29:48Z</time>
      </trkpt>
      <trkpt lat="45.9601" lon="4.71546">
        <ele>185</ele>
        <time>2018-07-24T08:29:50Z</time>
      </trkpt>
      <trkpt lat="45.96012" lon="4.71544">
        <ele>185</ele>
        <time>2018-07-24T08:29:51Z</time>
      </trkpt>
      <trkpt lat="45.96018" lon="4.71546">
        <ele>185</ele>
        <time>2018-07-24T08:29:52Z</time>
      </trkpt>
      <trkpt lat="45.96023" lon="4.71545">
        <ele>185</ele>
        <time>2018-07-24T08:29:53Z</time>
      </trkpt>
      <trkpt lat="45.96028" lon="4.71545">
        <ele>185</ele>
        <time>2018-07-24T08:29:54Z</time>
      </trkpt>
      <trkpt lat="45.96034" lon="4.71545">
        <ele>185</ele>
        <time>2018-07-24T08:29:55Z</time>
      </trkpt>
      <trkpt lat="45.96039" lon="4.71546">
        <ele>185</ele>
        <time>2018-07-24T08:29:56Z</time>
      </trkpt>
      <trkpt lat="45.96044" lon="4.71547">
        <ele>185</ele>
        <time>2018-07-24T08:29:57Z</time>
      </trkpt>
      <trkpt lat="45.96049" lon="4.71549">
        <ele>185</ele>
        <time>2018-07-24T08:29:58Z</time>
      </trkpt>
      <trkpt lat="45.96052" lon="4.7155">
        <ele>185</ele>
        <time>2018-07-24T08:29:59Z</time>
      </trkpt>
      <trkpt lat="45.96059" lon="4.71551">
        <ele>185</ele>
        <time>2018-07-24T08:30:00Z</time>
      </trkpt>
      <trkpt lat="45.96062" lon="4.7155">
        <ele>185</ele>
        <time>2018-07-24T08:30:01Z</time>
      </trkpt>
      <trkpt lat="45.96068" lon="4.71552">
        <ele>185</ele>
        <time>2018-07-24T08:30:02Z</time>
      </trkpt>
      <trkpt lat="45.96074" lon="4.71551">
        <ele>185</ele>
        <time>2018-07-24T08:30:03Z</time>
      </trkpt>
      <trkpt lat="45.96077" lon="4.71552">
        <ele>185</ele>
        <time>2018-07-24T08:30:04Z</time>
      </trkpt>
      <trkpt lat="45.96084" lon="4.71552">
        <ele>185</ele>
        <time>2018-07-24T08:30:05Z</time>
      </trkpt>
      <trkpt lat="45.96089" lon="4.71552">
        <ele>185</ele>
        <time>2018-07-24T08:30:06Z</time>
      </trkpt>
      <trkpt lat="45.96095" lon="4.71553">
        <ele>185</ele>
        <time>2018-07-24T08:30:07Z</time>
      </trkpt>
      <trkpt lat="45.96099" lon="4.71553">
        <ele>185</ele>
        <time>2018-07-24T08:30:08Z</time>
      </trkpt>
      <trkpt lat="45.96105" lon="4.71554">
        <ele>184</ele>
        <time>2018-07-24T08:30:09Z</time>
      </trkpt>
      <trkpt lat="45.96109" lon="4.71556">
        <ele>184</ele>
        <time>2018-07-24T08:30:10Z</time>
      </trkpt>
      <trkpt lat="45.96115" lon="4.71557">
        <ele>184</ele>
        <time>2018-07-24T08:30:11Z</time>
      </trkpt>
      <trkpt lat="45.96121" lon="4.71557">
        <ele>184</ele>
        <time>2018-07-24T08:30:12Z</time>
      </trkpt>
      <trkpt lat="45.96125" lon="4.71558">
        <ele>184</ele>
        <time>2018-07-24T08:30:13Z</time>
      </trkpt>
      <trkpt lat="45.96131" lon="4.71558">
        <ele>184</ele>
        <time>2018-07-24T08:30:14Z</time>
      </trkpt>
      <trkpt lat="45.96138" lon="4.71559">
        <ele>184</ele>
        <time>2018-07-24T08:30:15Z</time>
      </trkpt>
      <trkpt lat="45.96144" lon="4.71562">
        <ele>184</ele>
        <time>2018-07-24T08:30:16Z</time>
      </trkpt>
      <trkpt lat="45.9615" lon="4.71563">
        <ele>183</ele>
        <time>2018-07-24T08:30:17Z</time>
      </trkpt>
      <trkpt lat="45.96156" lon="4.71563">
        <ele>183</ele>
        <time>2018-07-24T08:30:18Z</time>
      </trkpt>
      <trkpt lat="45.96163" lon="4.71565">
        <ele>183</ele>
        <time>2018-07-24T08:30:19Z</time>
      </trkpt>
      <trkpt lat="45.96169" lon="4.71566">
        <ele>182</ele>
        <time>2018-07-24T08:30:20Z</time>
      </trkpt>
      <trkpt lat="45.96176" lon="4.71567">
        <ele>182</ele>
        <time>2018-07-24T08:30:21Z</time>
      </trkpt>
      <trkpt lat="45.96182" lon="4.71568">
        <ele>182</ele>
        <time>2018-07-24T08:30:22Z</time>
      </trkpt>
      <trkpt lat="45.96187" lon="4.71567">
        <ele>183</ele>
        <time>2018-07-24T08:30:23Z</time>
      </trkpt>
      <trkpt lat="45.96195" lon="4.71567">
        <ele>183</ele>
        <time>2018-07-24T08:30:24Z</time>
      </trkpt>
      <trkpt lat="45.96202" lon="4.7157">
        <ele>183</ele>
        <time>2018-07-24T08:30:25Z</time>
      </trkpt>
      <trkpt lat="45.96209" lon="4.7157">
        <ele>183</ele>
        <time>2018-07-24T08:30:26Z</time>
      </trkpt>
      <trkpt lat="45.96216" lon="4.71571">
        <ele>183</ele>
        <time>2018-07-24T08:30:27Z</time>
      </trkpt>
      <trkpt lat="45.96224" lon="4.71572">
        <ele>183</ele>
        <time>2018-07-24T08:30:28Z</time>
      </trkpt>
      <trkpt lat="45.96231" lon="4.71573">
        <ele>183</ele>
        <time>2018-07-24T08:30:29Z</time>
      </trkpt>
      <trkpt lat="45.96238" lon="4.71574">
        <ele>182</ele>
        <time>2018-07-24T08:30:30Z</time>
      </trkpt>
      <trkpt lat="45.96244" lon="4.71575">
        <ele>182</ele>
        <time>2018-07-24T08:30:31Z</time>
      </trkpt>
      <trkpt lat="45.96251" lon="4.71578">
        <ele>182</ele>
        <time>2018-07-24T08:30:32Z</time>
      </trkpt>
      <trkpt lat="45.96258" lon="4.71578">
        <ele>182</ele>
        <time>2018-07-24T08:30:33Z</time>
      </trkpt>
      <trkpt lat="45.96265" lon="4.7158">
        <ele>183</ele>
        <time>2018-07-24T08:30:34Z</time>
      </trkpt>
      <trkpt lat="45.96273" lon="4.7158">
        <ele>183</ele>
        <time>2018-07-24T08:30:35Z</time>
      </trkpt>
      <trkpt lat="45.96279" lon="4.71581">
        <ele>184</ele>
        <time>2018-07-24T08:30:36Z</time>
      </trkpt>
      <trkpt lat="45.96285" lon="4.71582">
        <ele>184</ele>
        <time>2018-07-24T08:30:37Z</time>
      </trkpt>
      <trkpt lat="45.96292" lon="4.71583">
        <ele>184</ele>
        <time>2018-07-24T08:30:38Z</time>
      </trkpt>
      <trkpt lat="45.96299" lon="4.71584">
        <ele>181</ele>
        <time>2018-07-24T08:30:39Z</time>
      </trkpt>
      <trkpt lat="45.96304" lon="4.71584">
        <ele>181</ele>
        <time>2018-07-24T08:30:40Z</time>
      </trkpt>
      <trkpt lat="45.9631" lon="4.71585">
        <ele>181</ele>
        <time>2018-07-24T08:30:41Z</time>
      </trkpt>
      <trkpt lat="45.96316" lon="4.71584">
        <ele>181</ele>
        <time>2018-07-24T08:30:42Z</time>
      </trkpt>
      <trkpt lat="45.96323" lon="4.71586">
        <ele>182</ele>
        <time>2018-07-24T08:30:43Z</time>
      </trkpt>
      <trkpt lat="45.96329" lon="4.71588">
        <ele>182</ele>
        <time>2018-07-24T08:30:44Z</time>
      </trkpt>
      <trkpt lat="45.96335" lon="4.71589">
        <ele>183</ele>
        <time>2018-07-24T08:30:45Z</time>
      </trkpt>
      <trkpt lat="45.96342" lon="4.7159">
        <ele>182</ele>
        <time>2018-07-24T08:30:46Z</time>
      </trkpt>
      <trkpt lat="45.96348" lon="4.71591">
        <ele>182</ele>
        <time>2018-07-24T08:30:47Z</time>
      </trkpt>
      <trkpt lat="45.96354" lon="4.71591">
        <ele>182</ele>
        <time>2018-07-24T08:30:48Z</time>
      </trkpt>
      <trkpt lat="45.9636" lon="4.71593">
        <ele>182</ele>
        <time>2018-07-24T08:30:49Z</time>
      </trkpt>
      <trkpt lat="45.96367" lon="4.71594">
        <ele>182</ele>
        <time>2018-07-24T08:30:50Z</time>
      </trkpt>
      <trkpt lat="45.96372" lon="4.71596">
        <ele>182</ele>
        <time>2018-07-24T08:30:51Z</time>
      </trkpt>
      <trkpt lat="45.96378" lon="4.71597">
        <ele>182</ele>
        <time>2018-07-24T08:30:52Z</time>
      </trkpt>
      <trkpt lat="45.96385" lon="4.71597">
        <ele>182</ele>
        <time>2018-07-24T08:30:53Z</time>
      </trkpt>
      <trkpt lat="45.96392" lon="4.71599">
        <ele>183</ele>
        <time>2018-07-24T08:30:54Z</time>
      </trkpt>
      <trkpt lat="45.96398" lon="4.71601">
        <ele>183</ele>
        <time>2018-07-24T08:30:55Z</time>
      </trkpt>
      <trkpt lat="45.96404" lon="4.71603">
        <ele>183</ele>
        <time>2018-07-24T08:30:56Z</time>
      </trkpt>
      <trkpt lat="45.9641" lon="4.71603">
        <ele>183</ele>
        <time>2018-07-24T08:30:57Z</time>
      </trkpt>
      <trkpt lat="45.96416" lon="4.71604">
        <ele>183</ele>
        <time>2018-07-24T08:30:58Z</time>
      </trkpt>
      <trkpt lat="45.96423" lon="4.71605">
        <ele>183</ele>
        <time>2018-07-24T08:30:59Z</time>
      </trkpt>
      <trkpt lat="45.96429" lon="4.71606">
        <ele>183</ele>
        <time>2018-07-24T08:31:00Z</time>
      </trkpt>
      <trkpt lat="45.96434" lon="4.71605">
        <ele>183</ele>
        <time>2018-07-24T08:31:01Z</time>
      </trkpt>
      <trkpt lat="45.9644" lon="4.71606">
        <ele>183</ele>
        <time>2018-07-24T08:31:02Z</time>
      </trkpt>
      <trkpt lat="45.96445" lon="4.71608">
        <ele>183</ele>
        <time>2018-07-24T08:31:03Z</time>
      </trkpt>
      <trkpt lat="45.96451" lon="4.7161">
        <ele>183</ele>
        <time>2018-07-24T08:31:04Z</time>
      </trkpt>
      <trkpt lat="45.96457" lon="4.71611">
        <ele>183</ele>
        <time>2018-07-24T08:31:05Z</time>
      </trkpt>
      <trkpt lat="45.96463" lon="4.7161">
        <ele>183</ele>
        <time>2018-07-24T08:31:06Z</time>
      </trkpt>
      <trkpt lat="45.96469" lon="4.71612">
        <ele>183</ele>
        <time>2018-07-24T08:31:07Z</time>
      </trkpt>
      <trkpt lat="45.96476" lon="4.71613">
        <ele>183</ele>
        <time>2018-07-24T08:31:08Z</time>
      </trkpt>
      <trkpt lat="45.96481" lon="4.71613">
        <ele>183</ele>
        <time>2018-07-24T08:31:09Z</time>
      </trkpt>
      <trkpt lat="45.96488" lon="4.71613">
        <ele>183</ele>
        <time>2018-07-24T08:31:10Z</time>
      </trkpt>
      <trkpt lat="45.96493" lon="4.71614">
        <ele>183</ele>
        <time>2018-07-24T08:31:11Z</time>
      </trkpt>
      <trkpt lat="45.96499" lon="4.71615">
        <ele>183</ele>
        <time>2018-07-24T08:31:12Z</time>
      </trkpt>
      <trkpt lat="45.96503" lon="4.71616">
        <ele>184</ele>
        <time>2018-07-24T08:31:13Z</time>
      </trkpt>
      <trkpt lat="45.96509" lon="4.71624">
        <ele>184</ele>
        <time>2018-07-24T08:31:17Z</time>
      </trkpt>
      <trkpt lat="45.96515" lon="4.71634">
        <ele>183</ele>
        <time>2018-07-24T08:31:18Z</time>
      </trkpt>
      <trkpt lat="45.9652" lon="4.71637">
        <ele>183</ele>
        <time>2018-07-24T08:31:19Z</time>
      </trkpt>
      <trkpt lat="45.96525" lon="4.71639">
        <ele>183</ele>
        <time>2018-07-24T08:31:20Z</time>
      </trkpt>
      <trkpt lat="45.9653" lon="4.71639">
        <ele>184</ele>
        <time>2018-07-24T08:31:21Z</time>
      </trkpt>
      <trkpt lat="45.96536" lon="4.71635">
        <ele>184</ele>
        <time>2018-07-24T08:31:22Z</time>
      </trkpt>
      <trkpt lat="45.96541" lon="4.71632">
        <ele>184</ele>
        <time>2018-07-24T08:31:23Z</time>
      </trkpt>
      <trkpt lat="45.96546" lon="4.71629">
        <ele>184</ele>
        <time>2018-07-24T08:31:24Z</time>
      </trkpt>
      <trkpt lat="45.96552" lon="4.71626">
        <ele>184</ele>
        <time>2018-07-24T08:31:25Z</time>
      </trkpt>
      <trkpt lat="45.96556" lon="4.71625">
        <ele>185</ele>
        <time>2018-07-24T08:31:26Z</time>
      </trkpt>
      <trkpt lat="45.96561" lon="4.71626">
        <ele>185</ele>
        <time>2018-07-24T08:31:27Z</time>
      </trkpt>
      <trkpt lat="45.96566" lon="4.71627">
        <ele>185</ele>
        <time>2018-07-24T08:31:28Z</time>
      </trkpt>
      <trkpt lat="45.96571" lon="4.71628">
        <ele>185</ele>
        <time>2018-07-24T08:31:29Z</time>
      </trkpt>
      <trkpt lat="45.96576" lon="4.7163">
        <ele>185</ele>
        <time>2018-07-24T08:31:30Z</time>
      </trkpt>
      <trkpt lat="45.96582" lon="4.71631">
        <ele>185</ele>
        <time>2018-07-24T08:31:31Z</time>
      </trkpt>
      <trkpt lat="45.96587" lon="4.7163">
        <ele>187</ele>
        <time>2018-07-24T08:31:32Z</time>
      </trkpt>
      <trkpt lat="45.96592" lon="4.7163">
        <ele>187</ele>
        <time>2018-07-24T08:31:33Z</time>
      </trkpt>
      <trkpt lat="45.96597" lon="4.71633">
        <ele>187</ele>
        <time>2018-07-24T08:31:34Z</time>
      </trkpt>
      <trkpt lat="45.96605" lon="4.71635">
        <ele>187</ele>
        <time>2018-07-24T08:31:36Z</time>
      </trkpt>
      <trkpt lat="45.96613" lon="4.71635">
        <ele>187</ele>
        <time>2018-07-24T08:31:37Z</time>
      </trkpt>
      <trkpt lat="45.96619" lon="4.71636">
        <ele>187</ele>
        <time>2018-07-24T08:31:38Z</time>
      </trkpt>
      <trkpt lat="45.96624" lon="4.71636">
        <ele>187</ele>
        <time>2018-07-24T08:31:39Z</time>
      </trkpt>
      <trkpt lat="45.96628" lon="4.71638">
        <ele>187</ele>
        <time>2018-07-24T08:31:40Z</time>
      </trkpt>
      <trkpt lat="45.96633" lon="4.7164">
        <ele>187</ele>
        <time>2018-07-24T08:31:41Z</time>
      </trkpt>
      <trkpt lat="45.9664" lon="4.71639">
        <ele>188</ele>
        <time>2018-07-24T08:31:42Z</time>
      </trkpt>
      <trkpt lat="45.96648" lon="4.71639">
        <ele>188</ele>
        <time>2018-07-24T08:31:43Z</time>
      </trkpt>
      <trkpt lat="45.96653" lon="4.71641">
        <ele>188</ele>
        <time>2018-07-24T08:31:44Z</time>
      </trkpt>
      <trkpt lat="45.96657" lon="4.71641">
        <ele>188</ele>
        <time>2018-07-24T08:31:45Z</time>
      </trkpt>
      <trkpt lat="45.96665" lon="4.71643">
        <ele>188</ele>
        <time>2018-07-24T08:31:47Z</time>
      </trkpt>
      <trkpt lat="45.9667" lon="4.71644">
        <ele>189</ele>
        <time>2018-07-24T08:31:48Z</time>
      </trkpt>
      <trkpt lat="45.96675" lon="4.71645">
        <ele>189</ele>
        <time>2018-07-24T08:31:49Z</time>
      </trkpt>
      <trkpt lat="45.96681" lon="4.71645">
        <ele>189</ele>
        <time>2018-07-24T08:31:50Z</time>
      </trkpt>
      <trkpt lat="45.96687" lon="4.71647">
        <ele>189</ele>
        <time>2018-07-24T08:31:51Z</time>
      </trkpt>
      <trkpt lat="45.96692" lon="4.71647">
        <ele>190</ele>
        <time>2018-07-24T08:31:52Z</time>
      </trkpt>
      <trkpt lat="45.96697" lon="4.71648">
        <ele>190</ele>
        <time>2018-07-24T08:31:53Z</time>
      </trkpt>
      <trkpt lat="45.96702" lon="4.71649">
        <ele>190</ele>
        <time>2018-07-24T08:31:54Z</time>
      </trkpt>
      <trkpt lat="45.96707" lon="4.7165">
        <ele>190</ele>
        <time>2018-07-24T08:31:55Z</time>
      </trkpt>
      <trkpt lat="45.96712" lon="4.71651">
        <ele>190</ele>
        <time>2018-07-24T08:31:56Z</time>
      </trkpt>
      <trkpt lat="45.96717" lon="4.71651">
        <ele>190</ele>
        <time>2018-07-24T08:31:57Z</time>
      </trkpt>
      <trkpt lat="45.96723" lon="4.71652">
        <ele>190</ele>
        <time>2018-07-24T08:31:58Z</time>
      </trkpt>
      <trkpt lat="45.96728" lon="4.71652">
        <ele>190</ele>
        <time>2018-07-24T08:31:59Z</time>
      </trkpt>
      <trkpt lat="45.96733" lon="4.71653">
        <ele>190</ele>
        <time>2018-07-24T08:32:00Z</time>
      </trkpt>
      <trkpt lat="45.96738" lon="4.71653">
        <ele>190</ele>
        <time>2018-07-24T08:32:01Z</time>
      </trkpt>
      <trkpt lat="45.96743" lon="4.71653">
        <ele>190</ele>
        <time>2018-07-24T08:32:02Z</time>
      </trkpt>
      <trkpt lat="45.96748" lon="4.71653">
        <ele>190</ele>
        <time>2018-07-24T08:32:03Z</time>
      </trkpt>
      <trkpt lat="45.96753" lon="4.71655">
        <ele>191</ele>
        <time>2018-07-24T08:32:04Z</time>
      </trkpt>
      <trkpt lat="45.96759" lon="4.71655">
        <ele>191</ele>
        <time>2018-07-24T08:32:05Z</time>
      </trkpt>
      <trkpt lat="45.96764" lon="4.71657">
        <ele>191</ele>
        <time>2018-07-24T08:32:06Z</time>
      </trkpt>
      <trkpt lat="45.9677" lon="4.71658">
        <ele>191</ele>
        <time>2018-07-24T08:32:07Z</time>
      </trkpt>
      <trkpt lat="45.96775" lon="4.71657">
        <ele>192</ele>
        <time>2018-07-24T08:32:08Z</time>
      </trkpt>
      <trkpt lat="45.96782" lon="4.71659">
        <ele>192</ele>
        <time>2018-07-24T08:32:09Z</time>
      </trkpt>
      <trkpt lat="45.96787" lon="4.71661">
        <ele>192</ele>
        <time>2018-07-24T08:32:10Z</time>
      </trkpt>
      <trkpt lat="45.96792" lon="4.71662">
        <ele>192</ele>
        <time>2018-07-24T08:32:11Z</time>
      </trkpt>
      <trkpt lat="45.96797" lon="4.71663">
        <ele>192</ele>
        <time>2018-07-24T08:32:12Z</time>
      </trkpt>
      <trkpt lat="45.96803" lon="4.71663">
        <ele>192</ele>
        <time>2018-07-24T08:32:13Z</time>
      </trkpt>
      <trkpt lat="45.96808" lon="4.71664">
        <ele>192</ele>
        <time>2018-07-24T08:32:14Z</time>
      </trkpt>
      <trkpt lat="45.96814" lon="4.71665">
        <ele>193</ele>
        <time>2018-07-24T08:32:15Z</time>
      </trkpt>
      <trkpt lat="45.96818" lon="4.71665">
        <ele>192</ele>
        <time>2018-07-24T08:32:16Z</time>
      </trkpt>
      <trkpt lat="45.96823" lon="4.71666">
        <ele>192</ele>
        <time>2018-07-24T08:32:17Z</time>
      </trkpt>
      <trkpt lat="45.96828" lon="4.71668">
        <ele>191</ele>
        <time>2018-07-24T08:32:18Z</time>
      </trkpt>
      <trkpt lat="45.96834" lon="4.71669">
        <ele>192</ele>
        <time>2018-07-24T08:32:19Z</time>
      </trkpt>
      <trkpt lat="45.9684" lon="4.71671">
        <ele>191</ele>
        <time>2018-07-24T08:32:20Z</time>
      </trkpt>
      <trkpt lat="45.96848" lon="4.71671">
        <ele>191</ele>
        <time>2018-07-24T08:32:21Z</time>
      </trkpt>
      <trkpt lat="45.96853" lon="4.7167">
        <ele>191</ele>
        <time>2018-07-24T08:32:22Z</time>
      </trkpt>
      <trkpt lat="45.96858" lon="4.71671">
        <ele>190</ele>
        <time>2018-07-24T08:32:23Z</time>
      </trkpt>
      <trkpt lat="45.96863" lon="4.71671">
        <ele>190</ele>
        <time>2018-07-24T08:32:24Z</time>
      </trkpt>
      <trkpt lat="45.96868" lon="4.71672">
        <ele>190</ele>
        <time>2018-07-24T08:32:25Z</time>
      </trkpt>
      <trkpt lat="45.96872" lon="4.71674">
        <ele>190</ele>
        <time>2018-07-24T08:32:26Z</time>
      </trkpt>
      <trkpt lat="45.96877" lon="4.71675">
        <ele>190</ele>
        <time>2018-07-24T08:32:27Z</time>
      </trkpt>
      <trkpt lat="45.96882" lon="4.71675">
        <ele>191</ele>
        <time>2018-07-24T08:32:28Z</time>
      </trkpt>
      <trkpt lat="45.96888" lon="4.71675">
        <ele>191</ele>
        <time>2018-07-24T08:32:29Z</time>
      </trkpt>
      <trkpt lat="45.96892" lon="4.71676">
        <ele>191</ele>
        <time>2018-07-24T08:32:30Z</time>
      </trkpt>
      <trkpt lat="45.96899" lon="4.71678">
        <ele>191</ele>
        <time>2018-07-24T08:32:31Z</time>
      </trkpt>
      <trkpt lat="45.96905" lon="4.71678">
        <ele>192</ele>
        <time>2018-07-24T08:32:32Z</time>
      </trkpt>
      <trkpt lat="45.96911" lon="4.71678">
        <ele>192</ele>
        <time>2018-07-24T08:32:34Z</time>
      </trkpt>
      <trkpt lat="45.96922" lon="4.7168">
        <ele>193</ele>
        <time>2018-07-24T08:32:35Z</time>
      </trkpt>
      <trkpt lat="45.96928" lon="4.71682">
        <ele>192</ele>
        <time>2018-07-24T08:32:36Z</time>
      </trkpt>
      <trkpt lat="45.96932" lon="4.71683">
        <ele>192</ele>
        <time>2018-07-24T08:32:37Z</time>
      </trkpt>
      <trkpt lat="45.96937" lon="4.71683">
        <ele>192</ele>
        <time>2018-07-24T08:32:38Z</time>
      </trkpt>
      <trkpt lat="45.96944" lon="4.71683">
        <ele>192</ele>
        <time>2018-07-24T08:32:39Z</time>
      </trkpt>
      <trkpt lat="45.96953" lon="4.71684">
        <ele>192</ele>
        <time>2018-07-24T08:32:41Z</time>
      </trkpt>
      <trkpt lat="45.96958" lon="4.71685">
        <ele>192</ele>
        <time>2018-07-24T08:32:42Z</time>
      </trkpt>
      <trkpt lat="45.96962" lon="4.71684">
        <ele>192</ele>
        <time>2018-07-24T08:32:43Z</time>
      </trkpt>
      <trkpt lat="45.96967" lon="4.71684">
        <ele>192</ele>
        <time>2018-07-24T08:32:44Z</time>
      </trkpt>
      <trkpt lat="45.96973" lon="4.71686">
        <ele>192</ele>
        <time>2018-07-24T08:32:45Z</time>
      </trkpt>
      <trkpt lat="45.96979" lon="4.71687">
        <ele>192</ele>
        <time>2018-07-24T08:32:46Z</time>
      </trkpt>
      <trkpt lat="45.96984" lon="4.71686">
        <ele>192</ele>
        <time>2018-07-24T08:32:47Z</time>
      </trkpt>
      <trkpt lat="45.96989" lon="4.71688">
        <ele>192</ele>
        <time>2018-07-24T08:32:48Z</time>
      </trkpt>
      <trkpt lat="45.96995" lon="4.71687">
        <ele>192</ele>
        <time>2018-07-24T08:32:49Z</time>
      </trkpt>
      <trkpt lat="45.96999" lon="4.71687">
        <ele>192</ele>
        <time>2018-07-24T08:32:50Z</time>
      </trkpt>
      <trkpt lat="45.97004" lon="4.71687">
        <ele>193</ele>
        <time>2018-07-24T08:32:51Z</time>
      </trkpt>
      <trkpt lat="45.97009" lon="4.71688">
        <ele>193</ele>
        <time>2018-07-24T08:32:52Z</time>
      </trkpt>
      <trkpt lat="45.97015" lon="4.71688">
        <ele>193</ele>
        <time>2018-07-24T08:32:53Z</time>
      </trkpt>
      <trkpt lat="45.97021" lon="4.71689">
        <ele>193</ele>
        <time>2018-07-24T08:32:54Z</time>
      </trkpt>
      <trkpt lat="45.97028" lon="4.71689">
        <ele>193</ele>
        <time>2018-07-24T08:32:55Z</time>
      </trkpt>
      <trkpt lat="45.97034" lon="4.71688">
        <ele>193</ele>
        <time>2018-07-24T08:32:56Z</time>
      </trkpt>
      <trkpt lat="45.97039" lon="4.71688">
        <ele>193</ele>
        <time>2018-07-24T08:32:57Z</time>
      </trkpt>
      <trkpt lat="45.97045" lon="4.71688">
        <ele>193</ele>
        <time>2018-07-24T08:32:58Z</time>
      </trkpt>
      <trkpt lat="45.97051" lon="4.71689">
        <ele>193</ele>
        <time>2018-07-24T08:32:59Z</time>
      </trkpt>
      <trkpt lat="45.97057" lon="4.7169">
        <ele>193</ele>
        <time>2018-07-24T08:33:00Z</time>
      </trkpt>
      <trkpt lat="45.97063" lon="4.7169">
        <ele>193</ele>
        <time>2018-07-24T08:33:01Z</time>
      </trkpt>
      <trkpt lat="45.97068" lon="4.7169">
        <ele>193</ele>
        <time>2018-07-24T08:33:02Z</time>
      </trkpt>
      <trkpt lat="45.97074" lon="4.71689">
        <ele>193</ele>
        <time>2018-07-24T08:33:03Z</time>
      </trkpt>
      <trkpt lat="45.97079" lon="4.71688">
        <ele>193</ele>
        <time>2018-07-24T08:33:04Z</time>
      </trkpt>
      <trkpt lat="45.97084" lon="4.71691">
        <ele>194</ele>
        <time>2018-07-24T08:33:05Z</time>
      </trkpt>
      <trkpt lat="45.97089" lon="4.71691">
        <ele>194</ele>
        <time>2018-07-24T08:33:06Z</time>
      </trkpt>
      <trkpt lat="45.97096" lon="4.71692">
        <ele>194</ele>
        <time>2018-07-24T08:33:07Z</time>
      </trkpt>
      <trkpt lat="45.97101" lon="4.71693">
        <ele>194</ele>
        <time>2018-07-24T08:33:08Z</time>
      </trkpt>
      <trkpt lat="45.97109" lon="4.71693">
        <ele>194</ele>
        <time>2018-07-24T08:33:10Z</time>
      </trkpt>
      <trkpt lat="45.97115" lon="4.71693">
        <ele>194</ele>
        <time>2018-07-24T08:33:11Z</time>
      </trkpt>
      <trkpt lat="45.9712" lon="4.71693">
        <ele>194</ele>
        <time>2018-07-24T08:33:12Z</time>
      </trkpt>
      <trkpt lat="45.97125" lon="4.71694">
        <ele>194</ele>
        <time>2018-07-24T08:33:13Z</time>
      </trkpt>
      <trkpt lat="45.97131" lon="4.71694">
        <ele>195</ele>
        <time>2018-07-24T08:33:14Z</time>
      </trkpt>
      <trkpt lat="45.97138" lon="4.71694">
        <ele>195</ele>
        <time>2018-07-24T08:33:15Z</time>
      </trkpt>
      <trkpt lat="45.97143" lon="4.71695">
        <ele>195</ele>
        <time>2018-07-24T08:33:16Z</time>
      </trkpt>
      <trkpt lat="45.97147" lon="4.71695">
        <ele>195</ele>
        <time>2018-07-24T08:33:17Z</time>
      </trkpt>
      <trkpt lat="45.97156" lon="4.71695">
        <ele>195</ele>
        <time>2018-07-24T08:33:19Z</time>
      </trkpt>
      <trkpt lat="45.97162" lon="4.71696">
        <ele>195</ele>
        <time>2018-07-24T08:33:20Z</time>
      </trkpt>
      <trkpt lat="45.97167" lon="4.71696">
        <ele>197</ele>
        <time>2018-07-24T08:33:21Z</time>
      </trkpt>
      <trkpt lat="45.97172" lon="4.71697">
        <ele>196</ele>
        <time>2018-07-24T08:33:22Z</time>
      </trkpt>
      <trkpt lat="45.97177" lon="4.71698">
        <ele>196</ele>
        <time>2018-07-24T08:33:23Z</time>
      </trkpt>
      <trkpt lat="45.97183" lon="4.71699">
        <ele>196</ele>
        <time>2018-07-24T08:33:24Z</time>
      </trkpt>
      <trkpt lat="45.97189" lon="4.71698">
        <ele>196</ele>
        <time>2018-07-24T08:33:25Z</time>
      </trkpt>
      <trkpt lat="45.97194" lon="4.71696">
        <ele>196</ele>
        <time>2018-07-24T08:33:26Z</time>
      </trkpt>
      <trkpt lat="45.97199" lon="4.71698">
        <ele>196</ele>
        <time>2018-07-24T08:33:27Z</time>
      </trkpt>
      <trkpt lat="45.97204" lon="4.71699">
        <ele>196</ele>
        <time>2018-07-24T08:33:28Z</time>
      </trkpt>
      <trkpt lat="45.97211" lon="4.71698">
        <ele>197</ele>
        <time>2018-07-24T08:33:29Z</time>
      </trkpt>
      <trkpt lat="45.97216" lon="4.71699">
        <ele>197</ele>
        <time>2018-07-24T08:33:30Z</time>
      </trkpt>
      <trkpt lat="45.97222" lon="4.71698">
        <ele>197</ele>
        <time>2018-07-24T08:33:31Z</time>
      </trkpt>
      <trkpt lat="45.97227" lon="4.71698">
        <ele>197</ele>
        <time>2018-07-24T08:33:32Z</time>
      </trkpt>
      <trkpt lat="45.97233" lon="4.717">
        <ele>197</ele>
        <time>2018-07-24T08:33:33Z</time>
      </trkpt>
      <trkpt lat="45.97238" lon="4.71701">
        <ele>197</ele>
        <time>2018-07-24T08:33:34Z</time>
      </trkpt>
      <trkpt lat="45.97244" lon="4.717">
        <ele>197</ele>
        <time>2018-07-24T08:33:35Z</time>
      </trkpt>
      <trkpt lat="45.97249" lon="4.71701">
        <ele>197</ele>
        <time>2018-07-24T08:33:36Z</time>
      </trkpt>
      <trkpt lat="45.97254" lon="4.71703">
        <ele>197</ele>
        <time>2018-07-24T08:33:37Z</time>
      </trkpt>
      <trkpt lat="45.97259" lon="4.71702">
        <ele>197</ele>
        <time>2018-07-24T08:33:38Z</time>
      </trkpt>
      <trkpt lat="45.97268" lon="4.71704">
        <ele>197</ele>
        <time>2018-07-24T08:33:40Z</time>
      </trkpt>
      <trkpt lat="45.9727" lon="4.71704">
        <ele>197</ele>
        <time>2018-07-24T08:33:41Z</time>
      </trkpt>
      <trkpt lat="45.97278" lon="4.71708">
        <ele>196</ele>
        <time>2018-07-24T08:33:43Z</time>
      </trkpt>
      <trkpt lat="45.97282" lon="4.71711">
        <ele>196</ele>
        <time>2018-07-24T08:33:44Z</time>
      </trkpt>
      <trkpt lat="45.97286" lon="4.7172">
        <ele>196</ele>
        <time>2018-07-24T08:33:45Z</time>
      </trkpt>
      <trkpt lat="45.97289" lon="4.71725">
        <ele>196</ele>
        <time>2018-07-24T08:33:46Z</time>
      </trkpt>
      <trkpt lat="45.97294" lon="4.71729">
        <ele>196</ele>
        <time>2018-07-24T08:33:47Z</time>
      </trkpt>
      <trkpt lat="45.97299" lon="4.71732">
        <ele>196</ele>
        <time>2018-07-24T08:33:48Z</time>
      </trkpt>
      <trkpt lat="45.97306" lon="4.71728">
        <ele>196</ele>
        <time>2018-07-24T08:33:49Z</time>
      </trkpt>
      <trkpt lat="45.97311" lon="4.71726">
        <ele>196</ele>
        <time>2018-07-24T08:33:50Z</time>
      </trkpt>
      <trkpt lat="45.97315" lon="4.71722">
        <ele>196</ele>
        <time>2018-07-24T08:33:51Z</time>
      </trkpt>
      <trkpt lat="45.9732" lon="4.71717">
        <ele>196</ele>
        <time>2018-07-24T08:33:52Z</time>
      </trkpt>
      <trkpt lat="45.97325" lon="4.71714">
        <ele>196</ele>
        <time>2018-07-24T08:33:53Z</time>
      </trkpt>
      <trkpt lat="45.9733" lon="4.71712">
        <ele>196</ele>
        <time>2018-07-24T08:33:54Z</time>
      </trkpt>
      <trkpt lat="45.97335" lon="4.71711">
        <ele>195</ele>
        <time>2018-07-24T08:33:55Z</time>
      </trkpt>
      <trkpt lat="45.9734" lon="4.71712">
        <ele>195</ele>
        <time>2018-07-24T08:33:56Z</time>
      </trkpt>
      <trkpt lat="45.97346" lon="4.71713">
        <ele>195</ele>
        <time>2018-07-24T08:33:57Z</time>
      </trkpt>
      <trkpt lat="45.97351" lon="4.71714">
        <ele>195</ele>
        <time>2018-07-24T08:33:58Z</time>
      </trkpt>
      <trkpt lat="45.97356" lon="4.71714">
        <ele>195</ele>
        <time>2018-07-24T08:33:59Z</time>
      </trkpt>
      <trkpt lat="45.97361" lon="4.71712">
        <ele>195</ele>
        <time>2018-07-24T08:34:00Z</time>
      </trkpt>
      <trkpt lat="45.97366" lon="4.71714">
        <ele>195</ele>
        <time>2018-07-24T08:34:01Z</time>
      </trkpt>
      <trkpt lat="45.97372" lon="4.71714">
        <ele>195</ele>
        <time>2018-07-24T08:34:02Z</time>
      </trkpt>
      <trkpt lat="45.97376" lon="4.71714">
        <ele>195</ele>
        <time>2018-07-24T08:34:03Z</time>
      </trkpt>
      <trkpt lat="45.97381" lon="4.71713">
        <ele>195</ele>
        <time>2018-07-24T08:34:04Z</time>
      </trkpt>
      <trkpt lat="45.97387" lon="4.7171">
        <ele>195</ele>
        <time>2018-07-24T08:34:05Z</time>
      </trkpt>
      <trkpt lat="45.97392" lon="4.7171">
        <ele>195</ele>
        <time>2018-07-24T08:34:06Z</time>
      </trkpt>
      <trkpt lat="45.97397" lon="4.71711">
        <ele>195</ele>
        <time>2018-07-24T08:34:07Z</time>
      </trkpt>
      <trkpt lat="45.97402" lon="4.7171">
        <ele>195</ele>
        <time>2018-07-24T08:34:08Z</time>
      </trkpt>
      <trkpt lat="45.97407" lon="4.71711">
        <ele>195</ele>
        <time>2018-07-24T08:34:09Z</time>
      </trkpt>
      <trkpt lat="45.97413" lon="4.71712">
        <ele>195</ele>
        <time>2018-07-24T08:34:10Z</time>
      </trkpt>
      <trkpt lat="45.97417" lon="4.71713">
        <ele>196</ele>
        <time>2018-07-24T08:34:11Z</time>
      </trkpt>
      <trkpt lat="45.97424" lon="4.71715">
        <ele>196</ele>
        <time>2018-07-24T08:34:12Z</time>
      </trkpt>
      <trkpt lat="45.97431" lon="4.71717">
        <ele>196</ele>
        <time>2018-07-24T08:34:13Z</time>
      </trkpt>
      <trkpt lat="45.97435" lon="4.71717">
        <ele>196</ele>
        <time>2018-07-24T08:34:14Z</time>
      </trkpt>
      <trkpt lat="45.97441" lon="4.71718">
        <ele>196</ele>
        <time>2018-07-24T08:34:15Z</time>
      </trkpt>
      <trkpt lat="45.97447" lon="4.71717">
        <ele>197</ele>
        <time>2018-07-24T08:34:16Z</time>
      </trkpt>
      <trkpt lat="45.97453" lon="4.71718">
        <ele>197</ele>
        <time>2018-07-24T08:34:17Z</time>
      </trkpt>
      <trkpt lat="45.97457" lon="4.71719">
        <ele>197</ele>
        <time>2018-07-24T08:34:18Z</time>
      </trkpt>
      <trkpt lat="45.97462" lon="4.71718">
        <ele>197</ele>
        <time>2018-07-24T08:34:19Z</time>
      </trkpt>
      <trkpt lat="45.97467" lon="4.71718">
        <ele>197</ele>
        <time>2018-07-24T08:34:20Z</time>
      </trkpt>
      <trkpt lat="45.97473" lon="4.7172">
        <ele>197</ele>
        <time>2018-07-24T08:34:21Z</time>
      </trkpt>
      <trkpt lat="45.97479" lon="4.71721">
        <ele>197</ele>
        <time>2018-07-24T08:34:22Z</time>
      </trkpt>
      <trkpt lat="45.97483" lon="4.71721">
        <ele>197</ele>
        <time>2018-07-24T08:34:23Z</time>
      </trkpt>
      <trkpt lat="45.97489" lon="4.71722">
        <ele>197</ele>
        <time>2018-07-24T08:34:24Z</time>
      </trkpt>
      <trkpt lat="45.97494" lon="4.71722">
        <ele>197</ele>
        <time>2018-07-24T08:34:25Z</time>
      </trkpt>
      <trkpt lat="45.975" lon="4.71723">
        <ele>197</ele>
        <time>2018-07-24T08:34:26Z</time>
      </trkpt>
      <trkpt lat="45.97507" lon="4.71724">
        <ele>198</ele>
        <time>2018-07-24T08:34:27Z</time>
      </trkpt>
      <trkpt lat="45.97513" lon="4.71723">
        <ele>198</ele>
        <time>2018-07-24T08:34:28Z</time>
      </trkpt>
      <trkpt lat="45.97518" lon="4.71722">
        <ele>198</ele>
        <time>2018-07-24T08:34:29Z</time>
      </trkpt>
      <trkpt lat="45.97525" lon="4.71722">
        <ele>198</ele>
        <time>2018-07-24T08:34:30Z</time>
      </trkpt>
      <trkpt lat="45.97532" lon="4.71723">
        <ele>198</ele>
        <time>2018-07-24T08:34:31Z</time>
      </trkpt>
      <trkpt lat="45.97538" lon="4.71723">
        <ele>198</ele>
        <time>2018-07-24T08:34:32Z</time>
      </trkpt>
      <trkpt lat="45.97544" lon="4.71723">
        <ele>198</ele>
        <time>2018-07-24T08:34:33Z</time>
      </trkpt>
      <trkpt lat="45.9755" lon="4.71723">
        <ele>198</ele>
        <time>2018-07-24T08:34:34Z</time>
      </trkpt>
      <trkpt lat="45.97555" lon="4.71724">
        <ele>198</ele>
        <time>2018-07-24T08:34:35Z</time>
      </trkpt>
      <trkpt lat="45.97561" lon="4.71723">
        <ele>198</ele>
        <time>2018-07-24T08:34:36Z</time>
      </trkpt>
      <trkpt lat="45.97567" lon="4.71723">
        <ele>198</ele>
        <time>2018-07-24T08:34:37Z</time>
      </trkpt>
      <trkpt lat="45.97573" lon="4.71725">
        <ele>197</ele>
        <time>2018-07-24T08:34:38Z</time>
      </trkpt>
      <trkpt lat="45.97579" lon="4.71725">
        <ele>197</ele>
        <time>2018-07-24T08:34:39Z</time>
      </trkpt>
      <trkpt lat="45.97586" lon="4.71723">
        <ele>197</ele>
        <time>2018-07-24T08:34:40Z</time>
      </trkpt>
      <trkpt lat="45.97592" lon="4.71729">
        <ele>196</ele>
        <time>2018-07-24T08:34:41Z</time>
      </trkpt>
      <trkpt lat="45.97596" lon="4.71735">
        <ele>196</ele>
        <time>2018-07-24T08:34:42Z</time>
      </trkpt>
      <trkpt lat="45.97603" lon="4.71742">
        <ele>196</ele>
        <time>2018-07-24T08:34:44Z</time>
      </trkpt>
      <trkpt lat="45.97607" lon="4.71745">
        <ele>196</ele>
        <time>2018-07-24T08:34:45Z</time>
      </trkpt>
      <trkpt lat="45.97618" lon="4.71745">
        <ele>196</ele>
        <time>2018-07-24T08:34:46Z</time>
      </trkpt>
      <trkpt lat="45.97626" lon="4.71741">
        <ele>196</ele>
        <time>2018-07-24T08:34:47Z</time>
      </trkpt>
      <trkpt lat="45.9763" lon="4.71741">
        <ele>196</ele>
        <time>2018-07-24T08:34:48Z</time>
      </trkpt>
      <trkpt lat="45.97635" lon="4.7174">
        <ele>196</ele>
        <time>2018-07-24T08:34:49Z</time>
      </trkpt>
      <trkpt lat="45.97642" lon="4.71739">
        <ele>196</ele>
        <time>2018-07-24T08:34:50Z</time>
      </trkpt>
      <trkpt lat="45.97648" lon="4.71741">
        <ele>196</ele>
        <time>2018-07-24T08:34:51Z</time>
      </trkpt>
      <trkpt lat="45.97654" lon="4.71743">
        <ele>195</ele>
        <time>2018-07-24T08:34:52Z</time>
      </trkpt>
      <trkpt lat="45.9766" lon="4.71745">
        <ele>195</ele>
        <time>2018-07-24T08:34:53Z</time>
      </trkpt>
      <trkpt lat="45.97666" lon="4.71746">
        <ele>194</ele>
        <time>2018-07-24T08:34:54Z</time>
      </trkpt>
      <trkpt lat="45.97673" lon="4.71747">
        <ele>195</ele>
        <time>2018-07-24T08:34:55Z</time>
      </trkpt>
      <trkpt lat="45.97678" lon="4.7175">
        <ele>195</ele>
        <time>2018-07-24T08:34:56Z</time>
      </trkpt>
      <trkpt lat="45.97684" lon="4.71751">
        <ele>194</ele>
        <time>2018-07-24T08:34:57Z</time>
      </trkpt>
      <trkpt lat="45.97689" lon="4.71751">
        <ele>195</ele>
        <time>2018-07-24T08:34:58Z</time>
      </trkpt>
      <trkpt lat="45.97697" lon="4.71753">
        <ele>195</ele>
        <time>2018-07-24T08:34:59Z</time>
      </trkpt>
      <trkpt lat="45.97702" lon="4.71754">
        <ele>195</ele>
        <time>2018-07-24T08:35:00Z</time>
      </trkpt>
      <trkpt lat="45.97708" lon="4.71755">
        <ele>195</ele>
        <time>2018-07-24T08:35:01Z</time>
      </trkpt>
      <trkpt lat="45.97717" lon="4.71755">
        <ele>195</ele>
        <time>2018-07-24T08:35:02Z</time>
      </trkpt>
      <trkpt lat="45.97723" lon="4.71757">
        <ele>195</ele>
        <time>2018-07-24T08:35:04Z</time>
      </trkpt>
      <trkpt lat="45.97729" lon="4.71757">
        <ele>195</ele>
        <time>2018-07-24T08:35:05Z</time>
      </trkpt>
      <trkpt lat="45.97735" lon="4.71757">
        <ele>195</ele>
        <time>2018-07-24T08:35:06Z</time>
      </trkpt>
      <trkpt lat="45.97745" lon="4.71758">
        <ele>196</ele>
        <time>2018-07-24T08:35:07Z</time>
      </trkpt>
      <trkpt lat="45.97751" lon="4.71756">
        <ele>196</ele>
        <time>2018-07-24T08:35:08Z</time>
      </trkpt>
      <trkpt lat="45.97756" lon="4.71757">
        <ele>196</ele>
        <time>2018-07-24T08:35:09Z</time>
      </trkpt>
      <trkpt lat="45.97763" lon="4.71758">
        <ele>196</ele>
        <time>2018-07-24T08:35:10Z</time>
      </trkpt>
      <trkpt lat="45.97768" lon="4.71758">
        <ele>195</ele>
        <time>2018-07-24T08:35:11Z</time>
      </trkpt>
      <trkpt lat="45.97775" lon="4.71759">
        <ele>195</ele>
        <time>2018-07-24T08:35:12Z</time>
      </trkpt>
      <trkpt lat="45.97782" lon="4.7176">
        <ele>195</ele>
        <time>2018-07-24T08:35:13Z</time>
      </trkpt>
      <trkpt lat="45.97788" lon="4.71761">
        <ele>195</ele>
        <time>2018-07-24T08:35:14Z</time>
      </trkpt>
      <trkpt lat="45.97794" lon="4.71762">
        <ele>195</ele>
        <time>2018-07-24T08:35:15Z</time>
      </trkpt>
      <trkpt lat="45.978" lon="4.71763">
        <ele>195</ele>
        <time>2018-07-24T08:35:16Z</time>
      </trkpt>
      <trkpt lat="45.97807" lon="4.71763">
        <ele>195</ele>
        <time>2018-07-24T08:35:17Z</time>
      </trkpt>
      <trkpt lat="45.97814" lon="4.71762">
        <ele>195</ele>
        <time>2018-07-24T08:35:18Z</time>
      </trkpt>
      <trkpt lat="45.9782" lon="4.71762">
        <ele>195</ele>
        <time>2018-07-24T08:35:19Z</time>
      </trkpt>
      <trkpt lat="45.97829" lon="4.71762">
        <ele>195</ele>
        <time>2018-07-24T08:35:21Z</time>
      </trkpt>
      <trkpt lat="45.97835" lon="4.71763">
        <ele>195</ele>
        <time>2018-07-24T08:35:22Z</time>
      </trkpt>
      <trkpt lat="45.97839" lon="4.71762">
        <ele>195</ele>
        <time>2018-07-24T08:35:23Z</time>
      </trkpt>
      <trkpt lat="45.97845" lon="4.71765">
        <ele>195</ele>
        <time>2018-07-24T08:35:24Z</time>
      </trkpt>
      <trkpt lat="45.97849" lon="4.71767">
        <ele>195</ele>
        <time>2018-07-24T08:35:25Z</time>
      </trkpt>
      <trkpt lat="45.97857" lon="4.71772">
        <ele>194</ele>
        <time>2018-07-24T08:35:26Z</time>
      </trkpt>
      <trkpt lat="45.97863" lon="4.71777">
        <ele>194</ele>
        <time>2018-07-24T08:35:27Z</time>
      </trkpt>
      <trkpt lat="45.97868" lon="4.71781">
        <ele>194</ele>
        <time>2018-07-24T08:35:28Z</time>
      </trkpt>
      <trkpt lat="45.97874" lon="4.71779">
        <ele>194</ele>
        <time>2018-07-24T08:35:29Z</time>
      </trkpt>
      <trkpt lat="45.97883" lon="4.71778">
        <ele>194</ele>
        <time>2018-07-24T08:35:30Z</time>
      </trkpt>
      <trkpt lat="45.97886" lon="4.71775">
        <ele>194</ele>
        <time>2018-07-24T08:35:31Z</time>
      </trkpt>
      <trkpt lat="45.97892" lon="4.71769">
        <ele>194</ele>
        <time>2018-07-24T08:35:32Z</time>
      </trkpt>
      <trkpt lat="45.97893" lon="4.71761">
        <ele>195</ele>
        <time>2018-07-24T08:35:33Z</time>
      </trkpt>
      <trkpt lat="45.97895" lon="4.71753">
        <ele>195</ele>
        <time>2018-07-24T08:35:34Z</time>
      </trkpt>
      <trkpt lat="45.97896" lon="4.71745">
        <ele>196</ele>
        <time>2018-07-24T08:35:35Z</time>
      </trkpt>
      <trkpt lat="45.97896" lon="4.71736">
        <ele>196</ele>
        <time>2018-07-24T08:35:36Z</time>
      </trkpt>
      <trkpt lat="45.97898" lon="4.71726">
        <ele>196</ele>
        <time>2018-07-24T08:35:37Z</time>
      </trkpt>
      <trkpt lat="45.97898" lon="4.71718">
        <ele>196</ele>
        <time>2018-07-24T08:35:38Z</time>
      </trkpt>
      <trkpt lat="45.97898" lon="4.7171">
        <ele>196</ele>
        <time>2018-07-24T08:35:39Z</time>
      </trkpt>
      <trkpt lat="45.979" lon="4.717">
        <ele>196</ele>
        <time>2018-07-24T08:35:40Z</time>
      </trkpt>
      <trkpt lat="45.97904" lon="4.7169">
        <ele>196</ele>
        <time>2018-07-24T08:35:41Z</time>
      </trkpt>
      <trkpt lat="45.97908" lon="4.71687">
        <ele>196</ele>
        <time>2018-07-24T08:35:42Z</time>
      </trkpt>
      <trkpt lat="45.97912" lon="4.71683">
        <ele>196</ele>
        <time>2018-07-24T08:35:43Z</time>
      </trkpt>
      <trkpt lat="45.97917" lon="4.71677">
        <ele>197</ele>
        <time>2018-07-24T08:35:44Z</time>
      </trkpt>
      <trkpt lat="45.97924" lon="4.71677">
        <ele>197</ele>
        <time>2018-07-24T08:35:45Z</time>
      </trkpt>
      <trkpt lat="45.97931" lon="4.7167">
        <ele>197</ele>
        <time>2018-07-24T08:35:46Z</time>
      </trkpt>
      <trkpt lat="45.97934" lon="4.71666">
        <ele>197</ele>
        <time>2018-07-24T08:35:47Z</time>
      </trkpt>
      <trkpt lat="45.9794" lon="4.71663">
        <ele>197</ele>
        <time>2018-07-24T08:35:48Z</time>
      </trkpt>
      <trkpt lat="45.97946" lon="4.7166">
        <ele>197</ele>
        <time>2018-07-24T08:35:49Z</time>
      </trkpt>
      <trkpt lat="45.9795" lon="4.71654">
        <ele>197</ele>
        <time>2018-07-24T08:35:50Z</time>
      </trkpt>
      <trkpt lat="45.97953" lon="4.71651">
        <ele>197</ele>
        <time>2018-07-24T08:35:51Z</time>
      </trkpt>
      <trkpt lat="45.97959" lon="4.71648">
        <ele>197</ele>
        <time>2018-07-24T08:35:52Z</time>
      </trkpt>
      <trkpt lat="45.97964" lon="4.71643">
        <ele>197</ele>
        <time>2018-07-24T08:35:53Z</time>
      </trkpt>
      <trkpt lat="45.97968" lon="4.71639">
        <ele>197</ele>
        <time>2018-07-24T08:35:54Z</time>
      </trkpt>
      <trkpt lat="45.97972" lon="4.71635">
        <ele>197</ele>
        <time>2018-07-24T08:35:55Z</time>
      </trkpt>
      <trkpt lat="45.97977" lon="4.71633">
        <ele>197</ele>
        <time>2018-07-24T08:35:56Z</time>
      </trkpt>
      <trkpt lat="45.97981" lon="4.71629">
        <ele>197</ele>
        <time>2018-07-24T08:35:57Z</time>
      </trkpt>
      <trkpt lat="45.97986" lon="4.71626">
        <ele>197</ele>
        <time>2018-07-24T08:35:58Z</time>
      </trkpt>
      <trkpt lat="45.9799" lon="4.71623">
        <ele>197</ele>
        <time>2018-07-24T08:35:59Z</time>
      </trkpt>
      <trkpt lat="45.97996" lon="4.7162">
        <ele>198</ele>
        <time>2018-07-24T08:36:00Z</time>
      </trkpt>
      <trkpt lat="45.98002" lon="4.71616">
        <ele>198</ele>
        <time>2018-07-24T08:36:01Z</time>
      </trkpt>
      <trkpt lat="45.98006" lon="4.71612">
        <ele>198</ele>
        <time>2018-07-24T08:36:02Z</time>
      </trkpt>
      <trkpt lat="45.9801" lon="4.71609">
        <ele>198</ele>
        <time>2018-07-24T08:36:03Z</time>
      </trkpt>
      <trkpt lat="45.98016" lon="4.71605">
        <ele>198</ele>
        <time>2018-07-24T08:36:04Z</time>
      </trkpt>
      <trkpt lat="45.98024" lon="4.71601">
        <ele>198</ele>
        <time>2018-07-24T08:36:06Z</time>
      </trkpt>
      <trkpt lat="45.98029" lon="4.71597">
        <ele>198</ele>
        <time>2018-07-24T08:36:07Z</time>
      </trkpt>
      <trkpt lat="45.98035" lon="4.71592">
        <ele>198</ele>
        <time>2018-07-24T08:36:08Z</time>
      </trkpt>
      <trkpt lat="45.98041" lon="4.71587">
        <ele>198</ele>
        <time>2018-07-24T08:36:09Z</time>
      </trkpt>
      <trkpt lat="45.98047" lon="4.71584">
        <ele>198</ele>
        <time>2018-07-24T08:36:10Z</time>
      </trkpt>
      <trkpt lat="45.98052" lon="4.7158">
        <ele>198</ele>
        <time>2018-07-24T08:36:11Z</time>
      </trkpt>
      <trkpt lat="45.98059" lon="4.71575">
        <ele>198</ele>
        <time>2018-07-24T08:36:12Z</time>
      </trkpt>
      <trkpt lat="45.98064" lon="4.71571">
        <ele>198</ele>
        <time>2018-07-24T08:36:13Z</time>
      </trkpt>
      <trkpt lat="45.98073" lon="4.71562">
        <ele>198</ele>
        <time>2018-07-24T08:36:14Z</time>
      </trkpt>
      <trkpt lat="45.98079" lon="4.71558">
        <ele>198</ele>
        <time>2018-07-24T08:36:15Z</time>
      </trkpt>
      <trkpt lat="45.98083" lon="4.71555">
        <ele>198</ele>
        <time>2018-07-24T08:36:16Z</time>
      </trkpt>
      <trkpt lat="45.98089" lon="4.71551">
        <ele>198</ele>
        <time>2018-07-24T08:36:17Z</time>
      </trkpt>
      <trkpt lat="45.98094" lon="4.71547">
        <ele>197</ele>
        <time>2018-07-24T08:36:18Z</time>
      </trkpt>
      <trkpt lat="45.98099" lon="4.71543">
        <ele>197</ele>
        <time>2018-07-24T08:36:19Z</time>
      </trkpt>
      <trkpt lat="45.98109" lon="4.71544">
        <ele>197</ele>
        <time>2018-07-24T08:36:20Z</time>
      </trkpt>
      <trkpt lat="45.98114" lon="4.71537">
        <ele>197</ele>
        <time>2018-07-24T08:36:21Z</time>
      </trkpt>
      <trkpt lat="45.98117" lon="4.71537">
        <ele>197</ele>
        <time>2018-07-24T08:36:22Z</time>
      </trkpt>
      <trkpt lat="45.98121" lon="4.71535">
        <ele>197</ele>
        <time>2018-07-24T08:36:23Z</time>
      </trkpt>
      <trkpt lat="45.98131" lon="4.71525">
        <ele>197</ele>
        <time>2018-07-24T08:36:24Z</time>
      </trkpt>
      <trkpt lat="45.98137" lon="4.7152">
        <ele>197</ele>
        <time>2018-07-24T08:36:25Z</time>
      </trkpt>
      <trkpt lat="45.98142" lon="4.71517">
        <ele>197</ele>
        <time>2018-07-24T08:36:26Z</time>
      </trkpt>
      <trkpt lat="45.98148" lon="4.71513">
        <ele>197</ele>
        <time>2018-07-24T08:36:27Z</time>
      </trkpt>
      <trkpt lat="45.98154" lon="4.71511">
        <ele>197</ele>
        <time>2018-07-24T08:36:28Z</time>
      </trkpt>
      <trkpt lat="45.98159" lon="4.71506">
        <ele>197</ele>
        <time>2018-07-24T08:36:29Z</time>
      </trkpt>
      <trkpt lat="45.98167" lon="4.71502">
        <ele>197</ele>
        <time>2018-07-24T08:36:30Z</time>
      </trkpt>
      <trkpt lat="45.98174" lon="4.715">
        <ele>197</ele>
        <time>2018-07-24T08:36:31Z</time>
      </trkpt>
      <trkpt lat="45.9818" lon="4.71499">
        <ele>197</ele>
        <time>2018-07-24T08:36:32Z</time>
      </trkpt>
      <trkpt lat="45.98186" lon="4.71498">
        <ele>197</ele>
        <time>2018-07-24T08:36:33Z</time>
      </trkpt>
      <trkpt lat="45.98191" lon="4.71499">
        <ele>197</ele>
        <time>2018-07-24T08:36:34Z</time>
      </trkpt>
      <trkpt lat="45.98198" lon="4.71498">
        <ele>197</ele>
        <time>2018-07-24T08:36:35Z</time>
      </trkpt>
      <trkpt lat="45.98203" lon="4.715">
        <ele>197</ele>
        <time>2018-07-24T08:36:36Z</time>
      </trkpt>
      <trkpt lat="45.9821" lon="4.71502">
        <ele>196</ele>
        <time>2018-07-24T08:36:37Z</time>
      </trkpt>
      <trkpt lat="45.98215" lon="4.71508">
        <ele>196</ele>
        <time>2018-07-24T08:36:38Z</time>
      </trkpt>
      <trkpt lat="45.98221" lon="4.71511">
        <ele>196</ele>
        <time>2018-07-24T08:36:39Z</time>
      </trkpt>
      <trkpt lat="45.98225" lon="4.71516">
        <ele>196</ele>
        <time>2018-07-24T08:36:40Z</time>
      </trkpt>
      <trkpt lat="45.98231" lon="4.71519">
        <ele>196</ele>
        <time>2018-07-24T08:36:41Z</time>
      </trkpt>
      <trkpt lat="45.98236" lon="4.71522">
        <ele>196</ele>
        <time>2018-07-24T08:36:42Z</time>
      </trkpt>
      <trkpt lat="45.98242" lon="4.71527">
        <ele>196</ele>
        <time>2018-07-24T08:36:43Z</time>
      </trkpt>
      <trkpt lat="45.98248" lon="4.71532">
        <ele>196</ele>
        <time>2018-07-24T08:36:44Z</time>
      </trkpt>
      <trkpt lat="45.98254" lon="4.71535">
        <ele>197</ele>
        <time>2018-07-24T08:36:45Z</time>
      </trkpt>
      <trkpt lat="45.9826" lon="4.71539">
        <ele>197</ele>
        <time>2018-07-24T08:36:46Z</time>
      </trkpt>
      <trkpt lat="45.98266" lon="4.71543">
        <ele>197</ele>
        <time>2018-07-24T08:36:47Z</time>
      </trkpt>
      <trkpt lat="45.98272" lon="4.71549">
        <ele>198</ele>
        <time>2018-07-24T08:36:48Z</time>
      </trkpt>
      <trkpt lat="45.98279" lon="4.71553">
        <ele>198</ele>
        <time>2018-07-24T08:36:49Z</time>
      </trkpt>
      <trkpt lat="45.98283" lon="4.71556">
        <ele>198</ele>
        <time>2018-07-24T08:36:50Z</time>
      </trkpt>
      <trkpt lat="45.98289" lon="4.71557">
        <ele>198</ele>
        <time>2018-07-24T08:36:51Z</time>
      </trkpt>
      <trkpt lat="45.98296" lon="4.7156">
        <ele>198</ele>
        <time>2018-07-24T08:36:52Z</time>
      </trkpt>
      <trkpt lat="45.98302" lon="4.71564">
        <ele>198</ele>
        <time>2018-07-24T08:36:53Z</time>
      </trkpt>
      <trkpt lat="45.98308" lon="4.71566">
        <ele>198</ele>
        <time>2018-07-24T08:36:54Z</time>
      </trkpt>
      <trkpt lat="45.98314" lon="4.7157">
        <ele>198</ele>
        <time>2018-07-24T08:36:55Z</time>
      </trkpt>
      <trkpt lat="45.98319" lon="4.71572">
        <ele>198</ele>
        <time>2018-07-24T08:36:56Z</time>
      </trkpt>
      <trkpt lat="45.98324" lon="4.71576">
        <ele>199</ele>
        <time>2018-07-24T08:36:57Z</time>
      </trkpt>
      <trkpt lat="45.98329" lon="4.71579">
        <ele>199</ele>
        <time>2018-07-24T08:36:58Z</time>
      </trkpt>
      <trkpt lat="45.98336" lon="4.71583">
        <ele>199</ele>
        <time>2018-07-24T08:36:59Z</time>
      </trkpt>
      <trkpt lat="45.98344" lon="4.71588">
        <ele>199</ele>
        <time>2018-07-24T08:37:00Z</time>
      </trkpt>
      <trkpt lat="45.9835" lon="4.71591">
        <ele>198</ele>
        <time>2018-07-24T08:37:01Z</time>
      </trkpt>
      <trkpt lat="45.98355" lon="4.71594">
        <ele>198</ele>
        <time>2018-07-24T08:37:02Z</time>
      </trkpt>
      <trkpt lat="45.98362" lon="4.71598">
        <ele>198</ele>
        <time>2018-07-24T08:37:03Z</time>
      </trkpt>
      <trkpt lat="45.98369" lon="4.716">
        <ele>198</ele>
        <time>2018-07-24T08:37:04Z</time>
      </trkpt>
      <trkpt lat="45.98376" lon="4.71601">
        <ele>198</ele>
        <time>2018-07-24T08:37:05Z</time>
      </trkpt>
      <trkpt lat="45.98383" lon="4.71601">
        <ele>198</ele>
        <time>2018-07-24T08:37:06Z</time>
      </trkpt>
      <trkpt lat="45.98387" lon="4.71597">
        <ele>198</ele>
        <time>2018-07-24T08:37:07Z</time>
      </trkpt>
      <trkpt lat="45.98391" lon="4.71594">
        <ele>198</ele>
        <time>2018-07-24T08:37:08Z</time>
      </trkpt>
      <trkpt lat="45.98398" lon="4.71588">
        <ele>197</ele>
        <time>2018-07-24T08:37:09Z</time>
      </trkpt>
      <trkpt lat="45.98402" lon="4.71581">
        <ele>198</ele>
        <time>2018-07-24T08:37:10Z</time>
      </trkpt>
      <trkpt lat="45.98408" lon="4.71575">
        <ele>198</ele>
        <time>2018-07-24T08:37:11Z</time>
      </trkpt>
      <trkpt lat="45.98412" lon="4.71569">
        <ele>198</ele>
        <time>2018-07-24T08:37:12Z</time>
      </trkpt>
      <trkpt lat="45.98416" lon="4.71563">
        <ele>198</ele>
        <time>2018-07-24T08:37:13Z</time>
      </trkpt>
      <trkpt lat="45.98422" lon="4.71558">
        <ele>197</ele>
        <time>2018-07-24T08:37:14Z</time>
      </trkpt>
      <trkpt lat="45.98426" lon="4.71552">
        <ele>197</ele>
        <time>2018-07-24T08:37:15Z</time>
      </trkpt>
      <trkpt lat="45.98433" lon="4.71547">
        <ele>197</ele>
        <time>2018-07-24T08:37:16Z</time>
      </trkpt>
      <trkpt lat="45.98438" lon="4.71543">
        <ele>197</ele>
        <time>2018-07-24T08:37:17Z</time>
      </trkpt>
      <trkpt lat="45.98443" lon="4.7154">
        <ele>197</ele>
        <time>2018-07-24T08:37:18Z</time>
      </trkpt>
      <trkpt lat="45.9845" lon="4.71538">
        <ele>197</ele>
        <time>2018-07-24T08:37:19Z</time>
      </trkpt>
      <trkpt lat="45.98455" lon="4.71536">
        <ele>197</ele>
        <time>2018-07-24T08:37:20Z</time>
      </trkpt>
      <trkpt lat="45.98463" lon="4.71534">
        <ele>197</ele>
        <time>2018-07-24T08:37:21Z</time>
      </trkpt>
      <trkpt lat="45.98469" lon="4.71532">
        <ele>197</ele>
        <time>2018-07-24T08:37:22Z</time>
      </trkpt>
      <trkpt lat="45.98477" lon="4.71531">
        <ele>196</ele>
        <time>2018-07-24T08:37:23Z</time>
      </trkpt>
      <trkpt lat="45.98485" lon="4.7153">
        <ele>196</ele>
        <time>2018-07-24T08:37:24Z</time>
      </trkpt>
      <trkpt lat="45.98492" lon="4.71529">
        <ele>196</ele>
        <time>2018-07-24T08:37:25Z</time>
      </trkpt>
      <trkpt lat="45.98497" lon="4.71525">
        <ele>196</ele>
        <time>2018-07-24T08:37:26Z</time>
      </trkpt>
      <trkpt lat="45.98504" lon="4.71525">
        <ele>195</ele>
        <time>2018-07-24T08:37:27Z</time>
      </trkpt>
      <trkpt lat="45.98511" lon="4.71524">
        <ele>195</ele>
        <time>2018-07-24T08:37:28Z</time>
      </trkpt>
      <trkpt lat="45.98519" lon="4.71522">
        <ele>194</ele>
        <time>2018-07-24T08:37:29Z</time>
      </trkpt>
      <trkpt lat="45.98525" lon="4.71521">
        <ele>194</ele>
        <time>2018-07-24T08:37:30Z</time>
      </trkpt>
      <trkpt lat="45.98533" lon="4.71516">
        <ele>194</ele>
        <time>2018-07-24T08:37:31Z</time>
      </trkpt>
      <trkpt lat="45.98541" lon="4.71516">
        <ele>194</ele>
        <time>2018-07-24T08:37:32Z</time>
      </trkpt>
      <trkpt lat="45.98548" lon="4.71516">
        <ele>194</ele>
        <time>2018-07-24T08:37:33Z</time>
      </trkpt>
      <trkpt lat="45.98556" lon="4.71514">
        <ele>194</ele>
        <time>2018-07-24T08:37:34Z</time>
      </trkpt>
      <trkpt lat="45.98563" lon="4.71511">
        <ele>193</ele>
        <time>2018-07-24T08:37:35Z</time>
      </trkpt>
      <trkpt lat="45.9857" lon="4.7151">
        <ele>193</ele>
        <time>2018-07-24T08:37:36Z</time>
      </trkpt>
      <trkpt lat="45.98575" lon="4.71512">
        <ele>193</ele>
        <time>2018-07-24T08:37:37Z</time>
      </trkpt>
      <trkpt lat="45.98582" lon="4.71507">
        <ele>193</ele>
        <time>2018-07-24T08:37:38Z</time>
      </trkpt>
      <trkpt lat="45.98588" lon="4.71507">
        <ele>192</ele>
        <time>2018-07-24T08:37:39Z</time>
      </trkpt>
      <trkpt lat="45.98592" lon="4.71507">
        <ele>192</ele>
        <time>2018-07-24T08:37:40Z</time>
      </trkpt>
      <trkpt lat="45.98597" lon="4.71505">
        <ele>192</ele>
        <time>2018-07-24T08:37:41Z</time>
      </trkpt>
      <trkpt lat="45.98604" lon="4.71503">
        <ele>191</ele>
        <time>2018-07-24T08:37:42Z</time>
      </trkpt>
      <trkpt lat="45.98609" lon="4.71502">
        <ele>191</ele>
        <time>2018-07-24T08:37:43Z</time>
      </trkpt>
      <trkpt lat="45.98615" lon="4.715">
        <ele>191</ele>
        <time>2018-07-24T08:37:44Z</time>
      </trkpt>
      <trkpt lat="45.98621" lon="4.71499">
        <ele>190</ele>
        <time>2018-07-24T08:37:45Z</time>
      </trkpt>
      <trkpt lat="45.98625" lon="4.71497">
        <ele>190</ele>
        <time>2018-07-24T08:37:46Z</time>
      </trkpt>
      <trkpt lat="45.98629" lon="4.71495">
        <ele>190</ele>
        <time>2018-07-24T08:37:47Z</time>
      </trkpt>
      <trkpt lat="45.98638" lon="4.71504">
        <ele>191</ele>
        <time>2018-07-24T08:37:48Z</time>
      </trkpt>
      <trkpt lat="45.98642" lon="4.71499">
        <ele>190</ele>
        <time>2018-07-24T08:37:49Z</time>
      </trkpt>
      <trkpt lat="45.98645" lon="4.71495">
        <ele>190</ele>
        <time>2018-07-24T08:37:50Z</time>
      </trkpt>
      <trkpt lat="45.9865" lon="4.71489">
        <ele>190</ele>
        <time>2018-07-24T08:37:51Z</time>
      </trkpt>
      <trkpt lat="45.98656" lon="4.71491">
        <ele>190</ele>
        <time>2018-07-24T08:37:52Z</time>
      </trkpt>
      <trkpt lat="45.98663" lon="4.71497">
        <ele>189</ele>
        <time>2018-07-24T08:37:56Z</time>
      </trkpt>
      <trkpt lat="45.98664" lon="4.71496">
        <ele>189</ele>
        <time>2018-07-24T08:37:57Z</time>
      </trkpt>
      <trkpt lat="45.98671" lon="4.71497">
        <ele>189</ele>
        <time>2018-07-24T08:38:00Z</time>
      </trkpt>
      <trkpt lat="45.98678" lon="4.71499">
        <ele>188</ele>
        <time>2018-07-24T08:38:01Z</time>
      </trkpt>
      <trkpt lat="45.98685" lon="4.71498">
        <ele>188</ele>
        <time>2018-07-24T08:38:03Z</time>
      </trkpt>
      <trkpt lat="45.98691" lon="4.715">
        <ele>187</ele>
        <time>2018-07-24T08:38:04Z</time>
      </trkpt>
      <trkpt lat="45.98695" lon="4.71499">
        <ele>187</ele>
        <time>2018-07-24T08:38:05Z</time>
      </trkpt>
      <trkpt lat="45.98703" lon="4.71501">
        <ele>187</ele>
        <time>2018-07-24T08:38:06Z</time>
      </trkpt>
      <trkpt lat="45.9871" lon="4.71501">
        <ele>187</ele>
        <time>2018-07-24T08:38:07Z</time>
      </trkpt>
      <trkpt lat="45.98716" lon="4.71503">
        <ele>187</ele>
        <time>2018-07-24T08:38:08Z</time>
      </trkpt>
      <trkpt lat="45.98723" lon="4.71503">
        <ele>186</ele>
        <time>2018-07-24T08:38:09Z</time>
      </trkpt>
      <trkpt lat="45.98729" lon="4.71503">
        <ele>186</ele>
        <time>2018-07-24T08:38:10Z</time>
      </trkpt>
      <trkpt lat="45.98735" lon="4.71504">
        <ele>186</ele>
        <time>2018-07-24T08:38:11Z</time>
      </trkpt>
      <trkpt lat="45.98741" lon="4.71504">
        <ele>185</ele>
        <time>2018-07-24T08:38:12Z</time>
      </trkpt>
      <trkpt lat="45.98746" lon="4.71504">
        <ele>185</ele>
        <time>2018-07-24T08:38:13Z</time>
      </trkpt>
      <trkpt lat="45.98754" lon="4.71504">
        <ele>184</ele>
        <time>2018-07-24T08:38:14Z</time>
      </trkpt>
      <trkpt lat="45.9876" lon="4.71504">
        <ele>184</ele>
        <time>2018-07-24T08:38:15Z</time>
      </trkpt>
      <trkpt lat="45.98766" lon="4.71504">
        <ele>184</ele>
        <time>2018-07-24T08:38:16Z</time>
      </trkpt>
      <trkpt lat="45.98772" lon="4.71505">
        <ele>184</ele>
        <time>2018-07-24T08:38:17Z</time>
      </trkpt>
      <trkpt lat="45.98778" lon="4.71506">
        <ele>184</ele>
        <time>2018-07-24T08:38:18Z</time>
      </trkpt>
      <trkpt lat="45.98785" lon="4.71506">
        <ele>184</ele>
        <time>2018-07-24T08:38:19Z</time>
      </trkpt>
      <trkpt lat="45.98791" lon="4.71506">
        <ele>184</ele>
        <time>2018-07-24T08:38:20Z</time>
      </trkpt>
      <trkpt lat="45.98797" lon="4.71507">
        <ele>184</ele>
        <time>2018-07-24T08:38:21Z</time>
      </trkpt>
      <trkpt lat="45.98803" lon="4.71508">
        <ele>184</ele>
        <time>2018-07-24T08:38:22Z</time>
      </trkpt>
      <trkpt lat="45.9881" lon="4.7151">
        <ele>184</ele>
        <time>2018-07-24T08:38:23Z</time>
      </trkpt>
      <trkpt lat="45.98816" lon="4.7151">
        <ele>184</ele>
        <time>2018-07-24T08:38:24Z</time>
      </trkpt>
      <trkpt lat="45.98823" lon="4.71511">
        <ele>184</ele>
        <time>2018-07-24T08:38:25Z</time>
      </trkpt>
      <trkpt lat="45.98827" lon="4.71511">
        <ele>184</ele>
        <time>2018-07-24T08:38:26Z</time>
      </trkpt>
      <trkpt lat="45.98833" lon="4.71513">
        <ele>184</ele>
        <time>2018-07-24T08:38:27Z</time>
      </trkpt>
      <trkpt lat="45.98837" lon="4.71513">
        <ele>184</ele>
        <time>2018-07-24T08:38:28Z</time>
      </trkpt>
      <trkpt lat="45.98843" lon="4.71512">
        <ele>184</ele>
        <time>2018-07-24T08:38:29Z</time>
      </trkpt>
      <trkpt lat="45.98849" lon="4.71514">
        <ele>185</ele>
        <time>2018-07-24T08:38:30Z</time>
      </trkpt>
      <trkpt lat="45.98855" lon="4.71514">
        <ele>185</ele>
        <time>2018-07-24T08:38:31Z</time>
      </trkpt>
      <trkpt lat="45.98863" lon="4.71515">
        <ele>185</ele>
        <time>2018-07-24T08:38:32Z</time>
      </trkpt>
      <trkpt lat="45.98867" lon="4.71515">
        <ele>185</ele>
        <time>2018-07-24T08:38:33Z</time>
      </trkpt>
      <trkpt lat="45.98874" lon="4.71515">
        <ele>185</ele>
        <time>2018-07-24T08:38:34Z</time>
      </trkpt>
      <trkpt lat="45.9888" lon="4.71516">
        <ele>185</ele>
        <time>2018-07-24T08:38:35Z</time>
      </trkpt>
      <trkpt lat="45.98887" lon="4.71518">
        <ele>185</ele>
        <time>2018-07-24T08:38:36Z</time>
      </trkpt>
      <trkpt lat="45.98892" lon="4.7152">
        <ele>185</ele>
        <time>2018-07-24T08:38:37Z</time>
      </trkpt>
      <trkpt lat="45.98898" lon="4.71521">
        <ele>185</ele>
        <time>2018-07-24T08:38:38Z</time>
      </trkpt>
      <trkpt lat="45.98906" lon="4.71522">
        <ele>185</ele>
        <time>2018-07-24T08:38:40Z</time>
      </trkpt>
      <trkpt lat="45.98909" lon="4.71523">
        <ele>185</ele>
        <time>2018-07-24T08:38:41Z</time>
      </trkpt>
      <trkpt lat="45.98918" lon="4.71523">
        <ele>186</ele>
        <time>2018-07-24T08:38:43Z</time>
      </trkpt>
      <trkpt lat="45.98922" lon="4.71523">
        <ele>186</ele>
        <time>2018-07-24T08:38:44Z</time>
      </trkpt>
      <trkpt lat="45.9893" lon="4.71522">
        <ele>186</ele>
        <time>2018-07-24T08:38:46Z</time>
      </trkpt>
      <trkpt lat="45.98934" lon="4.71522">
        <ele>186</ele>
        <time>2018-07-24T08:38:47Z</time>
      </trkpt>
      <trkpt lat="45.98941" lon="4.71521">
        <ele>186</ele>
        <time>2018-07-24T08:38:48Z</time>
      </trkpt>
      <trkpt lat="45.98946" lon="4.71521">
        <ele>186</ele>
        <time>2018-07-24T08:38:49Z</time>
      </trkpt>
      <trkpt lat="45.98954" lon="4.71519">
        <ele>186</ele>
        <time>2018-07-24T08:38:51Z</time>
      </trkpt>
      <trkpt lat="45.9896" lon="4.71519">
        <ele>186</ele>
        <time>2018-07-24T08:38:52Z</time>
      </trkpt>
      <trkpt lat="45.98965" lon="4.71519">
        <ele>186</ele>
        <time>2018-07-24T08:38:53Z</time>
      </trkpt>
      <trkpt lat="45.98969" lon="4.71519">
        <ele>186</ele>
        <time>2018-07-24T08:38:54Z</time>
      </trkpt>
      <trkpt lat="45.98975" lon="4.71519">
        <ele>186</ele>
        <time>2018-07-24T08:38:55Z</time>
      </trkpt>
      <trkpt lat="45.98979" lon="4.71519">
        <ele>186</ele>
        <time>2018-07-24T08:38:56Z</time>
      </trkpt>
      <trkpt lat="45.98983" lon="4.71519">
        <ele>186</ele>
        <time>2018-07-24T08:38:57Z</time>
      </trkpt>
      <trkpt lat="45.98989" lon="4.7152">
        <ele>186</ele>
        <time>2018-07-24T08:38:58Z</time>
      </trkpt>
      <trkpt lat="45.98996" lon="4.7152">
        <ele>186</ele>
        <time>2018-07-24T08:39:00Z</time>
      </trkpt>
      <trkpt lat="45.98999" lon="4.7152">
        <ele>186</ele>
        <time>2018-07-24T08:39:01Z</time>
      </trkpt>
      <trkpt lat="45.99004" lon="4.71519">
        <ele>188</ele>
        <time>2018-07-24T08:39:02Z</time>
      </trkpt>
      <trkpt lat="45.99008" lon="4.71518">
        <ele>188</ele>
        <time>2018-07-24T08:39:03Z</time>
      </trkpt>
      <trkpt lat="45.99017" lon="4.71517">
        <ele>188</ele>
        <time>2018-07-24T08:39:05Z</time>
      </trkpt>
      <trkpt lat="45.99021" lon="4.71519">
        <ele>188</ele>
        <time>2018-07-24T08:39:06Z</time>
      </trkpt>
      <trkpt lat="45.99025" lon="4.71518">
        <ele>188</ele>
        <time>2018-07-24T08:39:07Z</time>
      </trkpt>
      <trkpt lat="45.9903" lon="4.71518">
        <ele>188</ele>
        <time>2018-07-24T08:39:08Z</time>
      </trkpt>
      <trkpt lat="45.99039" lon="4.71518">
        <ele>188</ele>
        <time>2018-07-24T08:39:10Z</time>
      </trkpt>
      <trkpt lat="45.99042" lon="4.71518">
        <ele>189</ele>
        <time>2018-07-24T08:39:11Z</time>
      </trkpt>
      <trkpt lat="45.99048" lon="4.7152">
        <ele>189</ele>
        <time>2018-07-24T08:39:13Z</time>
      </trkpt>
      <trkpt lat="45.99054" lon="4.71518">
        <ele>189</ele>
        <time>2018-07-24T08:39:14Z</time>
      </trkpt>
      <trkpt lat="45.99061" lon="4.71521">
        <ele>189</ele>
        <time>2018-07-24T08:39:18Z</time>
      </trkpt>
      <trkpt lat="45.99064" lon="4.71521">
        <ele>189</ele>
        <time>2018-07-24T08:39:19Z</time>
      </trkpt>
      <trkpt lat="45.99072" lon="4.71521">
        <ele>189</ele>
        <time>2018-07-24T08:39:22Z</time>
      </trkpt>
      <trkpt lat="45.99081" lon="4.7152">
        <ele>189</ele>
        <time>2018-07-24T08:39:23Z</time>
      </trkpt>
      <trkpt lat="45.99085" lon="4.71517">
        <ele>191</ele>
        <time>2018-07-24T08:39:25Z</time>
      </trkpt>
      <trkpt lat="45.99091" lon="4.71514">
        <ele>191</ele>
        <time>2018-07-24T08:39:26Z</time>
      </trkpt>
      <trkpt lat="45.99098" lon="4.71513">
        <ele>191</ele>
        <time>2018-07-24T08:39:28Z</time>
      </trkpt>
      <trkpt lat="45.99102" lon="4.71513">
        <ele>191</ele>
        <time>2018-07-24T08:39:29Z</time>
      </trkpt>
      <trkpt lat="45.99109" lon="4.71514">
        <ele>191</ele>
        <time>2018-07-24T08:39:31Z</time>
      </trkpt>
      <trkpt lat="45.99115" lon="4.71514">
        <ele>191</ele>
        <time>2018-07-24T08:39:32Z</time>
      </trkpt>
      <trkpt lat="45.99121" lon="4.71517">
        <ele>192</ele>
        <time>2018-07-24T08:39:33Z</time>
      </trkpt>
      <trkpt lat="45.99125" lon="4.71518">
        <ele>192</ele>
        <time>2018-07-24T08:39:34Z</time>
      </trkpt>
      <trkpt lat="45.99129" lon="4.71518">
        <ele>192</ele>
        <time>2018-07-24T08:39:35Z</time>
      </trkpt>
      <trkpt lat="45.99133" lon="4.71521">
        <ele>192</ele>
        <time>2018-07-24T08:39:36Z</time>
      </trkpt>
      <trkpt lat="45.99139" lon="4.71518">
        <ele>192</ele>
        <time>2018-07-24T08:39:38Z</time>
      </trkpt>
      <trkpt lat="45.99144" lon="4.71518">
        <ele>192</ele>
        <time>2018-07-24T08:39:39Z</time>
      </trkpt>
      <trkpt lat="45.99149" lon="4.71516">
        <ele>192</ele>
        <time>2018-07-24T08:39:40Z</time>
      </trkpt>
      <trkpt lat="45.99153" lon="4.71516">
        <ele>192</ele>
        <time>2018-07-24T08:39:41Z</time>
      </trkpt>
      <trkpt lat="45.99157" lon="4.71516">
        <ele>192</ele>
        <time>2018-07-24T08:39:42Z</time>
      </trkpt>
      <trkpt lat="45.99162" lon="4.71517">
        <ele>192</ele>
        <time>2018-07-24T08:39:43Z</time>
      </trkpt>
      <trkpt lat="45.99171" lon="4.71517">
        <ele>194</ele>
        <time>2018-07-24T08:39:45Z</time>
      </trkpt>
      <trkpt lat="45.99175" lon="4.71515">
        <ele>194</ele>
        <time>2018-07-24T08:39:46Z</time>
      </trkpt>
      <trkpt lat="45.99182" lon="4.71515">
        <ele>194</ele>
        <time>2018-07-24T08:39:48Z</time>
      </trkpt>
      <trkpt lat="45.99187" lon="4.71515">
        <ele>194</ele>
        <time>2018-07-24T08:39:49Z</time>
      </trkpt>
      <trkpt lat="45.99191" lon="4.71515">
        <ele>194</ele>
        <time>2018-07-24T08:39:51Z</time>
      </trkpt>
      <trkpt lat="45.99198" lon="4.71515">
        <ele>195</ele>
        <time>2018-07-24T08:39:52Z</time>
      </trkpt>
      <trkpt lat="45.99205" lon="4.71515">
        <ele>195</ele>
        <time>2018-07-24T08:39:54Z</time>
      </trkpt>
      <trkpt lat="45.99207" lon="4.71515">
        <ele>195</ele>
        <time>2018-07-24T08:39:55Z</time>
      </trkpt>
      <trkpt lat="45.99214" lon="4.71516">
        <ele>195</ele>
        <time>2018-07-24T08:39:58Z</time>
      </trkpt>
      <trkpt lat="45.99222" lon="4.71517">
        <ele>195</ele>
        <time>2018-07-24T08:39:59Z</time>
      </trkpt>
      <trkpt lat="45.99227" lon="4.71517">
        <ele>195</ele>
        <time>2018-07-24T08:40:01Z</time>
      </trkpt>
      <trkpt lat="45.99233" lon="4.71518">
        <ele>196</ele>
        <time>2018-07-24T08:40:02Z</time>
      </trkpt>
      <trkpt lat="45.9924" lon="4.71518">
        <ele>196</ele>
        <time>2018-07-24T08:40:05Z</time>
      </trkpt>
      <trkpt lat="45.99242" lon="4.71518">
        <ele>196</ele>
        <time>2018-07-24T08:40:06Z</time>
      </trkpt>
      <trkpt lat="45.99248" lon="4.71519">
        <ele>196</ele>
        <time>2018-07-24T08:40:08Z</time>
      </trkpt>
      <trkpt lat="45.99257" lon="4.71519">
        <ele>198</ele>
        <time>2018-07-24T08:40:09Z</time>
      </trkpt>
      <trkpt lat="45.99265" lon="4.71522">
        <ele>198</ele>
        <time>2018-07-24T08:40:11Z</time>
      </trkpt>
      <trkpt lat="45.9927" lon="4.71522">
        <ele>198</ele>
        <time>2018-07-24T08:40:12Z</time>
      </trkpt>
      <trkpt lat="45.99277" lon="4.71521">
        <ele>199</ele>
        <time>2018-07-24T08:40:14Z</time>
      </trkpt>
      <trkpt lat="45.99282" lon="4.7152">
        <ele>199</ele>
        <time>2018-07-24T08:40:15Z</time>
      </trkpt>
      <trkpt lat="45.99287" lon="4.71518">
        <ele>199</ele>
        <time>2018-07-24T08:40:16Z</time>
      </trkpt>
      <trkpt lat="45.99293" lon="4.71516">
        <ele>199</ele>
        <time>2018-07-24T08:40:17Z</time>
      </trkpt>
      <trkpt lat="45.99301" lon="4.71516">
        <ele>199</ele>
        <time>2018-07-24T08:40:19Z</time>
      </trkpt>
      <trkpt lat="45.99305" lon="4.71516">
        <ele>199</ele>
        <time>2018-07-24T08:40:20Z</time>
      </trkpt>
      <trkpt lat="45.99314" lon="4.71516">
        <ele>199</ele>
        <time>2018-07-24T08:40:22Z</time>
      </trkpt>
      <trkpt lat="45.99318" lon="4.71516">
        <ele>200</ele>
        <time>2018-07-24T08:40:23Z</time>
      </trkpt>
      <trkpt lat="45.99327" lon="4.71516">
        <ele>200</ele>
        <time>2018-07-24T08:40:25Z</time>
      </trkpt>
      <trkpt lat="45.99331" lon="4.71515">
        <ele>200</ele>
        <time>2018-07-24T08:40:26Z</time>
      </trkpt>
      <trkpt lat="45.9934" lon="4.71515">
        <ele>200</ele>
        <time>2018-07-24T08:40:28Z</time>
      </trkpt>
      <trkpt lat="45.99344" lon="4.71514">
        <ele>200</ele>
        <time>2018-07-24T08:40:29Z</time>
      </trkpt>
      <trkpt lat="45.99348" lon="4.71512">
        <ele>200</ele>
        <time>2018-07-24T08:40:30Z</time>
      </trkpt>
      <trkpt lat="45.99353" lon="4.71513">
        <ele>200</ele>
        <time>2018-07-24T08:40:31Z</time>
      </trkpt>
      <trkpt lat="45.99357" lon="4.71511">
        <ele>200</ele>
        <time>2018-07-24T08:40:32Z</time>
      </trkpt>
      <trkpt lat="45.99362" lon="4.71512">
        <ele>200</ele>
        <time>2018-07-24T08:40:33Z</time>
      </trkpt>
      <trkpt lat="45.99367" lon="4.71511">
        <ele>200</ele>
        <time>2018-07-24T08:40:34Z</time>
      </trkpt>
      <trkpt lat="45.99374" lon="4.71508">
        <ele>200</ele>
        <time>2018-07-24T08:40:35Z</time>
      </trkpt>
      <trkpt lat="45.99379" lon="4.71508">
        <ele>200</ele>
        <time>2018-07-24T08:40:36Z</time>
      </trkpt>
      <trkpt lat="45.99383" lon="4.71508">
        <ele>200</ele>
        <time>2018-07-24T08:40:37Z</time>
      </trkpt>
      <trkpt lat="45.99387" lon="4.71509">
        <ele>200</ele>
        <time>2018-07-24T08:40:38Z</time>
      </trkpt>
      <trkpt lat="45.99392" lon="4.71509">
        <ele>200</ele>
        <time>2018-07-24T08:40:39Z</time>
      </trkpt>
      <trkpt lat="45.994" lon="4.71507">
        <ele>200</ele>
        <time>2018-07-24T08:40:41Z</time>
      </trkpt>
      <trkpt lat="45.99404" lon="4.71506">
        <ele>200</ele>
        <time>2018-07-24T08:40:42Z</time>
      </trkpt>
      <trkpt lat="45.99412" lon="4.71506">
        <ele>199</ele>
        <time>2018-07-24T08:40:44Z</time>
      </trkpt>
      <trkpt lat="45.99416" lon="4.7151">
        <ele>199</ele>
        <time>2018-07-24T08:40:45Z</time>
      </trkpt>
      <trkpt lat="45.99421" lon="4.71509">
        <ele>199</ele>
        <time>2018-07-24T08:40:46Z</time>
      </trkpt>
      <trkpt lat="45.99425" lon="4.71509">
        <ele>199</ele>
        <time>2018-07-24T08:40:47Z</time>
      </trkpt>
      <trkpt lat="45.99434" lon="4.71508">
        <ele>199</ele>
        <time>2018-07-24T08:40:49Z</time>
      </trkpt>
      <trkpt lat="45.99438" lon="4.71507">
        <ele>199</ele>
        <time>2018-07-24T08:40:50Z</time>
      </trkpt>
      <trkpt lat="45.99443" lon="4.71507">
        <ele>199</ele>
        <time>2018-07-24T08:40:51Z</time>
      </trkpt>
      <trkpt lat="45.9945" lon="4.71508">
        <ele>199</ele>
        <time>2018-07-24T08:40:52Z</time>
      </trkpt>
      <trkpt lat="45.99458" lon="4.71507">
        <ele>199</ele>
        <time>2018-07-24T08:40:53Z</time>
      </trkpt>
      <trkpt lat="45.99462" lon="4.71507">
        <ele>199</ele>
        <time>2018-07-24T08:40:54Z</time>
      </trkpt>
      <trkpt lat="45.99467" lon="4.71507">
        <ele>199</ele>
        <time>2018-07-24T08:40:55Z</time>
      </trkpt>
      <trkpt lat="45.99471" lon="4.71505">
        <ele>199</ele>
        <time>2018-07-24T08:40:56Z</time>
      </trkpt>
      <trkpt lat="45.99476" lon="4.71505">
        <ele>199</ele>
        <time>2018-07-24T08:40:57Z</time>
      </trkpt>
      <trkpt lat="45.99481" lon="4.71505">
        <ele>199</ele>
        <time>2018-07-24T08:40:58Z</time>
      </trkpt>
      <trkpt lat="45.99486" lon="4.71504">
        <ele>199</ele>
        <time>2018-07-24T08:40:59Z</time>
      </trkpt>
      <trkpt lat="45.99491" lon="4.71504">
        <ele>199</ele>
        <time>2018-07-24T08:41:00Z</time>
      </trkpt>
      <trkpt lat="45.99496" lon="4.71503">
        <ele>199</ele>
        <time>2018-07-24T08:41:01Z</time>
      </trkpt>
      <trkpt lat="45.99501" lon="4.71503">
        <ele>199</ele>
        <time>2018-07-24T08:41:02Z</time>
      </trkpt>
      <trkpt lat="45.99507" lon="4.71503">
        <ele>199</ele>
        <time>2018-07-24T08:41:04Z</time>
      </trkpt>
      <trkpt lat="45.99512" lon="4.71504">
        <ele>199</ele>
        <time>2018-07-24T08:41:05Z</time>
      </trkpt>
      <trkpt lat="45.99519" lon="4.71504">
        <ele>198</ele>
        <time>2018-07-24T08:41:07Z</time>
      </trkpt>
      <trkpt lat="45.99524" lon="4.71504">
        <ele>198</ele>
        <time>2018-07-24T08:41:08Z</time>
      </trkpt>
      <trkpt lat="45.99532" lon="4.71504">
        <ele>198</ele>
        <time>2018-07-24T08:41:10Z</time>
      </trkpt>
      <trkpt lat="45.99535" lon="4.71503">
        <ele>198</ele>
        <time>2018-07-24T08:41:11Z</time>
      </trkpt>
      <trkpt lat="45.99539" lon="4.71504">
        <ele>198</ele>
        <time>2018-07-24T08:41:12Z</time>
      </trkpt>
      <trkpt lat="45.99544" lon="4.71505">
        <ele>198</ele>
        <time>2018-07-24T08:41:13Z</time>
      </trkpt>
      <trkpt lat="45.99549" lon="4.71505">
        <ele>198</ele>
        <time>2018-07-24T08:41:14Z</time>
      </trkpt>
      <trkpt lat="45.99554" lon="4.71506">
        <ele>198</ele>
        <time>2018-07-24T08:41:15Z</time>
      </trkpt>
      <trkpt lat="45.9956" lon="4.71506">
        <ele>197</ele>
        <time>2018-07-24T08:41:16Z</time>
      </trkpt>
      <trkpt lat="45.99564" lon="4.71505">
        <ele>197</ele>
        <time>2018-07-24T08:41:17Z</time>
      </trkpt>
      <trkpt lat="45.99572" lon="4.71507">
        <ele>197</ele>
        <time>2018-07-24T08:41:20Z</time>
      </trkpt>
      <trkpt lat="45.99573" lon="4.71507">
        <ele>197</ele>
        <time>2018-07-24T08:41:21Z</time>
      </trkpt>
      <trkpt lat="45.99581" lon="4.71509">
        <ele>197</ele>
        <time>2018-07-24T08:41:27Z</time>
      </trkpt>
      <trkpt lat="45.99586" lon="4.71516">
        <ele>197</ele>
        <time>2018-07-24T08:41:28Z</time>
      </trkpt>
      <trkpt lat="45.9959" lon="4.71526">
        <ele>197</ele>
        <time>2018-07-24T08:41:31Z</time>
      </trkpt>
      <trkpt lat="45.99594" lon="4.71531">
        <ele>197</ele>
        <time>2018-07-24T08:41:32Z</time>
      </trkpt>
      <trkpt lat="45.99602" lon="4.71533">
        <ele>197</ele>
        <time>2018-07-24T08:41:34Z</time>
      </trkpt>
      <trkpt lat="45.99606" lon="4.71532">
        <ele>197</ele>
        <time>2018-07-24T08:41:35Z</time>
      </trkpt>
      <trkpt lat="45.99612" lon="4.71523">
        <ele>197</ele>
        <time>2018-07-24T08:41:36Z</time>
      </trkpt>
      <trkpt lat="45.99613" lon="4.71517">
        <ele>197</ele>
        <time>2018-07-24T08:41:37Z</time>
      </trkpt>
      <trkpt lat="45.99614" lon="4.7151">
        <ele>197</ele>
        <time>2018-07-24T08:41:38Z</time>
      </trkpt>
      <trkpt lat="45.99614" lon="4.71503">
        <ele>197</ele>
        <time>2018-07-24T08:41:39Z</time>
      </trkpt>
      <trkpt lat="45.99613" lon="4.71497">
        <ele>197</ele>
        <time>2018-07-24T08:41:40Z</time>
      </trkpt>
      <trkpt lat="45.99612" lon="4.71489">
        <ele>197</ele>
        <time>2018-07-24T08:41:41Z</time>
      </trkpt>
      <trkpt lat="45.99612" lon="4.71481">
        <ele>197</ele>
        <time>2018-07-24T08:41:42Z</time>
      </trkpt>
      <trkpt lat="45.99614" lon="4.71474">
        <ele>197</ele>
        <time>2018-07-24T08:41:43Z</time>
      </trkpt>
      <trkpt lat="45.99616" lon="4.71468">
        <ele>197</ele>
        <time>2018-07-24T08:41:44Z</time>
      </trkpt>
      <trkpt lat="45.99618" lon="4.71461">
        <ele>197</ele>
        <time>2018-07-24T08:41:45Z</time>
      </trkpt>
      <trkpt lat="45.99623" lon="4.71455">
        <ele>197</ele>
        <time>2018-07-24T08:41:46Z</time>
      </trkpt>
      <trkpt lat="45.99626" lon="4.71449">
        <ele>197</ele>
        <time>2018-07-24T08:41:47Z</time>
      </trkpt>
      <trkpt lat="45.99629" lon="4.71443">
        <ele>197</ele>
        <time>2018-07-24T08:41:48Z</time>
      </trkpt>
      <trkpt lat="45.99632" lon="4.71435">
        <ele>197</ele>
        <time>2018-07-24T08:41:49Z</time>
      </trkpt>
      <trkpt lat="45.99636" lon="4.71429">
        <ele>197</ele>
        <time>2018-07-24T08:41:50Z</time>
      </trkpt>
      <trkpt lat="45.9964" lon="4.71423">
        <ele>197</ele>
        <time>2018-07-24T08:41:51Z</time>
      </trkpt>
      <trkpt lat="45.99644" lon="4.71418">
        <ele>197</ele>
        <time>2018-07-24T08:41:52Z</time>
      </trkpt>
      <trkpt lat="45.99645" lon="4.71411">
        <ele>198</ele>
        <time>2018-07-24T08:41:53Z</time>
      </trkpt>
      <trkpt lat="45.9965" lon="4.71404">
        <ele>198</ele>
        <time>2018-07-24T08:41:54Z</time>
      </trkpt>
      <trkpt lat="45.99653" lon="4.71397">
        <ele>198</ele>
        <time>2018-07-24T08:41:55Z</time>
      </trkpt>
      <trkpt lat="45.99656" lon="4.71392">
        <ele>198</ele>
        <time>2018-07-24T08:41:56Z</time>
      </trkpt>
      <trkpt lat="45.99659" lon="4.71385">
        <ele>198</ele>
        <time>2018-07-24T08:41:57Z</time>
      </trkpt>
      <trkpt lat="45.99663" lon="4.71375">
        <ele>198</ele>
        <time>2018-07-24T08:41:59Z</time>
      </trkpt>
      <trkpt lat="45.99666" lon="4.71369">
        <ele>197</ele>
        <time>2018-07-24T08:42:00Z</time>
      </trkpt>
      <trkpt lat="45.9967" lon="4.7136">
        <ele>197</ele>
        <time>2018-07-24T08:42:01Z</time>
      </trkpt>
      <trkpt lat="45.99674" lon="4.71355">
        <ele>197</ele>
        <time>2018-07-24T08:42:02Z</time>
      </trkpt>
      <trkpt lat="45.99678" lon="4.71348">
        <ele>197</ele>
        <time>2018-07-24T08:42:03Z</time>
      </trkpt>
      <trkpt lat="45.9968" lon="4.71338">
        <ele>197</ele>
        <time>2018-07-24T08:42:04Z</time>
      </trkpt>
      <trkpt lat="45.99683" lon="4.71332">
        <ele>197</ele>
        <time>2018-07-24T08:42:05Z</time>
      </trkpt>
      <trkpt lat="45.99687" lon="4.71326">
        <ele>197</ele>
        <time>2018-07-24T08:42:06Z</time>
      </trkpt>
      <trkpt lat="45.99691" lon="4.7132">
        <ele>198</ele>
        <time>2018-07-24T08:42:07Z</time>
      </trkpt>
      <trkpt lat="45.99695" lon="4.71314">
        <ele>198</ele>
        <time>2018-07-24T08:42:08Z</time>
      </trkpt>
      <trkpt lat="45.99701" lon="4.71305">
        <ele>198</ele>
        <time>2018-07-24T08:42:10Z</time>
      </trkpt>
      <trkpt lat="45.99704" lon="4.71299">
        <ele>198</ele>
        <time>2018-07-24T08:42:11Z</time>
      </trkpt>
      <trkpt lat="45.9971" lon="4.71291">
        <ele>198</ele>
        <time>2018-07-24T08:42:13Z</time>
      </trkpt>
      <trkpt lat="45.99715" lon="4.71281">
        <ele>198</ele>
        <time>2018-07-24T08:42:14Z</time>
      </trkpt>
      <trkpt lat="45.99718" lon="4.71275">
        <ele>198</ele>
        <time>2018-07-24T08:42:15Z</time>
      </trkpt>
      <trkpt lat="45.99722" lon="4.71268">
        <ele>198</ele>
        <time>2018-07-24T08:42:16Z</time>
      </trkpt>
      <trkpt lat="45.99724" lon="4.71263">
        <ele>198</ele>
        <time>2018-07-24T08:42:17Z</time>
      </trkpt>
      <trkpt lat="45.99727" lon="4.71257">
        <ele>198</ele>
        <time>2018-07-24T08:42:18Z</time>
      </trkpt>
      <trkpt lat="45.99731" lon="4.71251">
        <ele>198</ele>
        <time>2018-07-24T08:42:19Z</time>
      </trkpt>
      <trkpt lat="45.99734" lon="4.71245">
        <ele>198</ele>
        <time>2018-07-24T08:42:20Z</time>
      </trkpt>
      <trkpt lat="45.99737" lon="4.71238">
        <ele>198</ele>
        <time>2018-07-24T08:42:21Z</time>
      </trkpt>
      <trkpt lat="45.99741" lon="4.71231">
        <ele>198</ele>
        <time>2018-07-24T08:42:22Z</time>
      </trkpt>
      <trkpt lat="45.99744" lon="4.71227">
        <ele>198</ele>
        <time>2018-07-24T08:42:23Z</time>
      </trkpt>
      <trkpt lat="45.99748" lon="4.7122">
        <ele>198</ele>
        <time>2018-07-24T08:42:24Z</time>
      </trkpt>
      <trkpt lat="45.99752" lon="4.71213">
        <ele>199</ele>
        <time>2018-07-24T08:42:25Z</time>
      </trkpt>
      <trkpt lat="45.99755" lon="4.71206">
        <ele>198</ele>
        <time>2018-07-24T08:42:26Z</time>
      </trkpt>
      <trkpt lat="45.99759" lon="4.71199">
        <ele>198</ele>
        <time>2018-07-24T08:42:27Z</time>
      </trkpt>
      <trkpt lat="45.99763" lon="4.71192">
        <ele>198</ele>
        <time>2018-07-24T08:42:28Z</time>
      </trkpt>
      <trkpt lat="45.99766" lon="4.71186">
        <ele>198</ele>
        <time>2018-07-24T08:42:29Z</time>
      </trkpt>
      <trkpt lat="45.99769" lon="4.71178">
        <ele>198</ele>
        <time>2018-07-24T08:42:30Z</time>
      </trkpt>
      <trkpt lat="45.99772" lon="4.71171">
        <ele>198</ele>
        <time>2018-07-24T08:42:31Z</time>
      </trkpt>
      <trkpt lat="45.99776" lon="4.71164">
        <ele>198</ele>
        <time>2018-07-24T08:42:32Z</time>
      </trkpt>
      <trkpt lat="45.99779" lon="4.71153">
        <ele>198</ele>
        <time>2018-07-24T08:42:34Z</time>
      </trkpt>
      <trkpt lat="45.99783" lon="4.71146">
        <ele>198</ele>
        <time>2018-07-24T08:42:35Z</time>
      </trkpt>
      <trkpt lat="45.99787" lon="4.7114">
        <ele>198</ele>
        <time>2018-07-24T08:42:36Z</time>
      </trkpt>
      <trkpt lat="45.99791" lon="4.71133">
        <ele>198</ele>
        <time>2018-07-24T08:42:37Z</time>
      </trkpt>
      <trkpt lat="45.99795" lon="4.71124">
        <ele>198</ele>
        <time>2018-07-24T08:42:38Z</time>
      </trkpt>
      <trkpt lat="45.99796" lon="4.71117">
        <ele>198</ele>
        <time>2018-07-24T08:42:39Z</time>
      </trkpt>
      <trkpt lat="45.99798" lon="4.71111">
        <ele>198</ele>
        <time>2018-07-24T08:42:40Z</time>
      </trkpt>
      <trkpt lat="45.998" lon="4.71103">
        <ele>198</ele>
        <time>2018-07-24T08:42:41Z</time>
      </trkpt>
      <trkpt lat="45.998" lon="4.71096">
        <ele>198</ele>
        <time>2018-07-24T08:42:42Z</time>
      </trkpt>
      <trkpt lat="45.99801" lon="4.71088">
        <ele>198</ele>
        <time>2018-07-24T08:42:43Z</time>
      </trkpt>
      <trkpt lat="45.99802" lon="4.71082">
        <ele>199</ele>
        <time>2018-07-24T08:42:44Z</time>
      </trkpt>
      <trkpt lat="45.99803" lon="4.71075">
        <ele>199</ele>
        <time>2018-07-24T08:42:45Z</time>
      </trkpt>
      <trkpt lat="45.99804" lon="4.71068">
        <ele>199</ele>
        <time>2018-07-24T08:42:46Z</time>
      </trkpt>
      <trkpt lat="45.99806" lon="4.71061">
        <ele>199</ele>
        <time>2018-07-24T08:42:47Z</time>
      </trkpt>
      <trkpt lat="45.99808" lon="4.71053">
        <ele>199</ele>
        <time>2018-07-24T08:42:48Z</time>
      </trkpt>
      <trkpt lat="45.99809" lon="4.71046">
        <ele>199</ele>
        <time>2018-07-24T08:42:49Z</time>
      </trkpt>
      <trkpt lat="45.99811" lon="4.71038">
        <ele>199</ele>
        <time>2018-07-24T08:42:50Z</time>
      </trkpt>
      <trkpt lat="45.99812" lon="4.7103">
        <ele>199</ele>
        <time>2018-07-24T08:42:51Z</time>
      </trkpt>
      <trkpt lat="45.99813" lon="4.71022">
        <ele>199</ele>
        <time>2018-07-24T08:42:52Z</time>
      </trkpt>
      <trkpt lat="45.99815" lon="4.71014">
        <ele>200</ele>
        <time>2018-07-24T08:42:53Z</time>
      </trkpt>
      <trkpt lat="45.99818" lon="4.71006">
        <ele>200</ele>
        <time>2018-07-24T08:42:54Z</time>
      </trkpt>
      <trkpt lat="45.99818" lon="4.70998">
        <ele>200</ele>
        <time>2018-07-24T08:42:55Z</time>
      </trkpt>
      <trkpt lat="45.99819" lon="4.70991">
        <ele>200</ele>
        <time>2018-07-24T08:42:56Z</time>
      </trkpt>
      <trkpt lat="45.9982" lon="4.70983">
        <ele>200</ele>
        <time>2018-07-24T08:42:57Z</time>
      </trkpt>
      <trkpt lat="45.99821" lon="4.70974">
        <ele>200</ele>
        <time>2018-07-24T08:42:58Z</time>
      </trkpt>
      <trkpt lat="45.99824" lon="4.70967">
        <ele>200</ele>
        <time>2018-07-24T08:42:59Z</time>
      </trkpt>
      <trkpt lat="45.99824" lon="4.70958">
        <ele>199</ele>
        <time>2018-07-24T08:43:00Z</time>
      </trkpt>
      <trkpt lat="45.99826" lon="4.70952">
        <ele>199</ele>
        <time>2018-07-24T08:43:01Z</time>
      </trkpt>
      <trkpt lat="45.99828" lon="4.70945">
        <ele>199</ele>
        <time>2018-07-24T08:43:02Z</time>
      </trkpt>
      <trkpt lat="45.99829" lon="4.70939">
        <ele>199</ele>
        <time>2018-07-24T08:43:03Z</time>
      </trkpt>
      <trkpt lat="45.9983" lon="4.70931">
        <ele>199</ele>
        <time>2018-07-24T08:43:04Z</time>
      </trkpt>
      <trkpt lat="45.99832" lon="4.70924">
        <ele>199</ele>
        <time>2018-07-24T08:43:05Z</time>
      </trkpt>
      <trkpt lat="45.99834" lon="4.70918">
        <ele>199</ele>
        <time>2018-07-24T08:43:06Z</time>
      </trkpt>
      <trkpt lat="45.99835" lon="4.70912">
        <ele>199</ele>
        <time>2018-07-24T08:43:07Z</time>
      </trkpt>
      <trkpt lat="45.99837" lon="4.70906">
        <ele>199</ele>
        <time>2018-07-24T08:43:08Z</time>
      </trkpt>
      <trkpt lat="45.9984" lon="4.70898">
        <ele>199</ele>
        <time>2018-07-24T08:43:09Z</time>
      </trkpt>
      <trkpt lat="45.99843" lon="4.70892">
        <ele>199</ele>
        <time>2018-07-24T08:43:10Z</time>
      </trkpt>
      <trkpt lat="45.99844" lon="4.70881">
        <ele>200</ele>
        <time>2018-07-24T08:43:11Z</time>
      </trkpt>
      <trkpt lat="45.99844" lon="4.70871">
        <ele>200</ele>
        <time>2018-07-24T08:43:12Z</time>
      </trkpt>
      <trkpt lat="45.99847" lon="4.70864">
        <ele>200</ele>
        <time>2018-07-24T08:43:13Z</time>
      </trkpt>
      <trkpt lat="45.99847" lon="4.70854">
        <ele>200</ele>
        <time>2018-07-24T08:43:14Z</time>
      </trkpt>
      <trkpt lat="45.99847" lon="4.70847">
        <ele>201</ele>
        <time>2018-07-24T08:43:15Z</time>
      </trkpt>
      <trkpt lat="45.99849" lon="4.7084">
        <ele>201</ele>
        <time>2018-07-24T08:43:16Z</time>
      </trkpt>
      <trkpt lat="45.9985" lon="4.70832">
        <ele>201</ele>
        <time>2018-07-24T08:43:17Z</time>
      </trkpt>
      <trkpt lat="45.99852" lon="4.70823">
        <ele>201</ele>
        <time>2018-07-24T08:43:18Z</time>
      </trkpt>
      <trkpt lat="45.99852" lon="4.70816">
        <ele>201</ele>
        <time>2018-07-24T08:43:19Z</time>
      </trkpt>
      <trkpt lat="45.99855" lon="4.70808">
        <ele>201</ele>
        <time>2018-07-24T08:43:20Z</time>
      </trkpt>
      <trkpt lat="45.99857" lon="4.70799">
        <ele>201</ele>
        <time>2018-07-24T08:43:21Z</time>
      </trkpt>
      <trkpt lat="45.99858" lon="4.7079">
        <ele>200</ele>
        <time>2018-07-24T08:43:22Z</time>
      </trkpt>
      <trkpt lat="45.99861" lon="4.70782">
        <ele>200</ele>
        <time>2018-07-24T08:43:23Z</time>
      </trkpt>
      <trkpt lat="45.99862" lon="4.70774">
        <ele>200</ele>
        <time>2018-07-24T08:43:24Z</time>
      </trkpt>
      <trkpt lat="45.99864" lon="4.70765">
        <ele>200</ele>
        <time>2018-07-24T08:43:25Z</time>
      </trkpt>
      <trkpt lat="45.99865" lon="4.70757">
        <ele>200</ele>
        <time>2018-07-24T08:43:26Z</time>
      </trkpt>
      <trkpt lat="45.99868" lon="4.70746">
        <ele>200</ele>
        <time>2018-07-24T08:43:27Z</time>
      </trkpt>
      <trkpt lat="45.9987" lon="4.70737">
        <ele>200</ele>
        <time>2018-07-24T08:43:28Z</time>
      </trkpt>
      <trkpt lat="45.99871" lon="4.70728">
        <ele>200</ele>
        <time>2018-07-24T08:43:29Z</time>
      </trkpt>
      <trkpt lat="45.99872" lon="4.70719">
        <ele>200</ele>
        <time>2018-07-24T08:43:30Z</time>
      </trkpt>
      <trkpt lat="45.99874" lon="4.7071">
        <ele>200</ele>
        <time>2018-07-24T08:43:31Z</time>
      </trkpt>
      <trkpt lat="45.99876" lon="4.707">
        <ele>200</ele>
        <time>2018-07-24T08:43:32Z</time>
      </trkpt>
      <trkpt lat="45.99877" lon="4.70688">
        <ele>200</ele>
        <time>2018-07-24T08:43:33Z</time>
      </trkpt>
      <trkpt lat="45.99878" lon="4.70679">
        <ele>200</ele>
        <time>2018-07-24T08:43:34Z</time>
      </trkpt>
      <trkpt lat="45.99881" lon="4.70669">
        <ele>200</ele>
        <time>2018-07-24T08:43:35Z</time>
      </trkpt>
      <trkpt lat="45.99882" lon="4.70661">
        <ele>200</ele>
        <time>2018-07-24T08:43:36Z</time>
      </trkpt>
      <trkpt lat="45.99886" lon="4.70651">
        <ele>200</ele>
        <time>2018-07-24T08:43:37Z</time>
      </trkpt>
      <trkpt lat="45.99888" lon="4.70643">
        <ele>200</ele>
        <time>2018-07-24T08:43:38Z</time>
      </trkpt>
      <trkpt lat="45.99896" lon="4.70637">
        <ele>200</ele>
        <time>2018-07-24T08:43:39Z</time>
      </trkpt>
      <trkpt lat="45.99901" lon="4.70638">
        <ele>200</ele>
        <time>2018-07-24T08:43:40Z</time>
      </trkpt>
      <trkpt lat="45.99908" lon="4.70638">
        <ele>200</ele>
        <time>2018-07-24T08:43:41Z</time>
      </trkpt>
      <trkpt lat="45.99914" lon="4.70639">
        <ele>200</ele>
        <time>2018-07-24T08:43:42Z</time>
      </trkpt>
      <trkpt lat="45.99921" lon="4.70639">
        <ele>199</ele>
        <time>2018-07-24T08:43:43Z</time>
      </trkpt>
      <trkpt lat="45.99927" lon="4.70638">
        <ele>199</ele>
        <time>2018-07-24T08:43:44Z</time>
      </trkpt>
      <trkpt lat="45.99933" lon="4.70637">
        <ele>199</ele>
        <time>2018-07-24T08:43:45Z</time>
      </trkpt>
      <trkpt lat="45.9994" lon="4.70635">
        <ele>199</ele>
        <time>2018-07-24T08:43:46Z</time>
      </trkpt>
      <trkpt lat="45.99947" lon="4.70634">
        <ele>199</ele>
        <time>2018-07-24T08:43:47Z</time>
      </trkpt>
      <trkpt lat="45.99951" lon="4.70634">
        <ele>199</ele>
        <time>2018-07-24T08:43:48Z</time>
      </trkpt>
      <trkpt lat="45.99957" lon="4.70633">
        <ele>199</ele>
        <time>2018-07-24T08:43:49Z</time>
      </trkpt>
      <trkpt lat="45.99962" lon="4.70632">
        <ele>199</ele>
        <time>2018-07-24T08:43:50Z</time>
      </trkpt>
      <trkpt lat="45.99967" lon="4.7063">
        <ele>199</ele>
        <time>2018-07-24T08:43:51Z</time>
      </trkpt>
      <trkpt lat="45.99972" lon="4.70629">
        <ele>199</ele>
        <time>2018-07-24T08:43:52Z</time>
      </trkpt>
      <trkpt lat="45.99979" lon="4.70626">
        <ele>199</ele>
        <time>2018-07-24T08:43:53Z</time>
      </trkpt>
      <trkpt lat="45.99985" lon="4.70624">
        <ele>199</ele>
        <time>2018-07-24T08:43:54Z</time>
      </trkpt>
      <trkpt lat="45.99991" lon="4.70624">
        <ele>199</ele>
        <time>2018-07-24T08:43:55Z</time>
      </trkpt>
      <trkpt lat="45.99996" lon="4.70626">
        <ele>199</ele>
        <time>2018-07-24T08:43:56Z</time>
      </trkpt>
      <trkpt lat="46.00002" lon="4.70624">
        <ele>199</ele>
        <time>2018-07-24T08:43:57Z</time>
      </trkpt>
      <trkpt lat="46.00008" lon="4.70625">
        <ele>198</ele>
        <time>2018-07-24T08:43:58Z</time>
      </trkpt>
      <trkpt lat="46.00013" lon="4.70624">
        <ele>199</ele>
        <time>2018-07-24T08:43:59Z</time>
      </trkpt>
      <trkpt lat="46.00018" lon="4.70623">
        <ele>199</ele>
        <time>2018-07-24T08:44:00Z</time>
      </trkpt>
      <trkpt lat="46.00024" lon="4.70621">
        <ele>199</ele>
        <time>2018-07-24T08:44:01Z</time>
      </trkpt>
      <trkpt lat="46.0003" lon="4.7062">
        <ele>199</ele>
        <time>2018-07-24T08:44:02Z</time>
      </trkpt>
      <trkpt lat="46.00035" lon="4.70616">
        <ele>199</ele>
        <time>2018-07-24T08:44:03Z</time>
      </trkpt>
      <trkpt lat="46.0004" lon="4.70616">
        <ele>199</ele>
        <time>2018-07-24T08:44:04Z</time>
      </trkpt>
      <trkpt lat="46.00045" lon="4.70616">
        <ele>198</ele>
        <time>2018-07-24T08:44:05Z</time>
      </trkpt>
      <trkpt lat="46.0005" lon="4.70613">
        <ele>198</ele>
        <time>2018-07-24T08:44:06Z</time>
      </trkpt>
      <trkpt lat="46.00055" lon="4.70611">
        <ele>198</ele>
        <time>2018-07-24T08:44:07Z</time>
      </trkpt>
      <trkpt lat="46.0006" lon="4.70611">
        <ele>198</ele>
        <time>2018-07-24T08:44:08Z</time>
      </trkpt>
      <trkpt lat="46.00067" lon="4.70608">
        <ele>198</ele>
        <time>2018-07-24T08:44:09Z</time>
      </trkpt>
      <trkpt lat="46.00071" lon="4.70608">
        <ele>198</ele>
        <time>2018-07-24T08:44:10Z</time>
      </trkpt>
      <trkpt lat="46.00077" lon="4.70606">
        <ele>198</ele>
        <time>2018-07-24T08:44:11Z</time>
      </trkpt>
      <trkpt lat="46.00084" lon="4.70603">
        <ele>198</ele>
        <time>2018-07-24T08:44:12Z</time>
      </trkpt>
      <trkpt lat="46.00091" lon="4.70598">
        <ele>198</ele>
        <time>2018-07-24T08:44:13Z</time>
      </trkpt>
      <trkpt lat="46.00096" lon="4.70594">
        <ele>198</ele>
        <time>2018-07-24T08:44:14Z</time>
      </trkpt>
      <trkpt lat="46.00102" lon="4.70589">
        <ele>198</ele>
        <time>2018-07-24T08:44:15Z</time>
      </trkpt>
      <trkpt lat="46.00108" lon="4.70585">
        <ele>198</ele>
        <time>2018-07-24T08:44:16Z</time>
      </trkpt>
      <trkpt lat="46.00114" lon="4.70581">
        <ele>198</ele>
        <time>2018-07-24T08:44:17Z</time>
      </trkpt>
      <trkpt lat="46.00118" lon="4.70578">
        <ele>198</ele>
        <time>2018-07-24T08:44:18Z</time>
      </trkpt>
      <trkpt lat="46.00124" lon="4.70573">
        <ele>198</ele>
        <time>2018-07-24T08:44:19Z</time>
      </trkpt>
      <trkpt lat="46.00129" lon="4.70569">
        <ele>198</ele>
        <time>2018-07-24T08:44:20Z</time>
      </trkpt>
      <trkpt lat="46.00133" lon="4.70564">
        <ele>198</ele>
        <time>2018-07-24T08:44:21Z</time>
      </trkpt>
      <trkpt lat="46.00139" lon="4.7056">
        <ele>198</ele>
        <time>2018-07-24T08:44:22Z</time>
      </trkpt>
      <trkpt lat="46.00146" lon="4.70558">
        <ele>198</ele>
        <time>2018-07-24T08:44:23Z</time>
      </trkpt>
      <trkpt lat="46.00151" lon="4.70554">
        <ele>198</ele>
        <time>2018-07-24T08:44:24Z</time>
      </trkpt>
      <trkpt lat="46.00157" lon="4.70551">
        <ele>198</ele>
        <time>2018-07-24T08:44:25Z</time>
      </trkpt>
      <trkpt lat="46.00162" lon="4.70547">
        <ele>198</ele>
        <time>2018-07-24T08:44:26Z</time>
      </trkpt>
      <trkpt lat="46.00167" lon="4.70542">
        <ele>198</ele>
        <time>2018-07-24T08:44:27Z</time>
      </trkpt>
      <trkpt lat="46.00173" lon="4.7054">
        <ele>198</ele>
        <time>2018-07-24T08:44:28Z</time>
      </trkpt>
      <trkpt lat="46.00179" lon="4.70537">
        <ele>198</ele>
        <time>2018-07-24T08:44:29Z</time>
      </trkpt>
      <trkpt lat="46.00186" lon="4.70536">
        <ele>198</ele>
        <time>2018-07-24T08:44:30Z</time>
      </trkpt>
      <trkpt lat="46.00192" lon="4.70536">
        <ele>198</ele>
        <time>2018-07-24T08:44:31Z</time>
      </trkpt>
      <trkpt lat="46.00199" lon="4.70536">
        <ele>198</ele>
        <time>2018-07-24T08:44:32Z</time>
      </trkpt>
      <trkpt lat="46.00206" lon="4.70535">
        <ele>198</ele>
        <time>2018-07-24T08:44:33Z</time>
      </trkpt>
      <trkpt lat="46.00212" lon="4.70534">
        <ele>198</ele>
        <time>2018-07-24T08:44:34Z</time>
      </trkpt>
      <trkpt lat="46.00217" lon="4.70532">
        <ele>198</ele>
        <time>2018-07-24T08:44:35Z</time>
      </trkpt>
      <trkpt lat="46.00223" lon="4.7053">
        <ele>198</ele>
        <time>2018-07-24T08:44:36Z</time>
      </trkpt>
      <trkpt lat="46.00228" lon="4.70529">
        <ele>198</ele>
        <time>2018-07-24T08:44:37Z</time>
      </trkpt>
      <trkpt lat="46.00234" lon="4.70527">
        <ele>198</ele>
        <time>2018-07-24T08:44:38Z</time>
      </trkpt>
      <trkpt lat="46.0024" lon="4.70525">
        <ele>198</ele>
        <time>2018-07-24T08:44:39Z</time>
      </trkpt>
      <trkpt lat="46.00246" lon="4.70523">
        <ele>198</ele>
        <time>2018-07-24T08:44:40Z</time>
      </trkpt>
      <trkpt lat="46.00252" lon="4.70521">
        <ele>197</ele>
        <time>2018-07-24T08:44:41Z</time>
      </trkpt>
      <trkpt lat="46.00258" lon="4.7052">
        <ele>197</ele>
        <time>2018-07-24T08:44:42Z</time>
      </trkpt>
      <trkpt lat="46.00265" lon="4.70518">
        <ele>197</ele>
        <time>2018-07-24T08:44:43Z</time>
      </trkpt>
      <trkpt lat="46.00271" lon="4.70517">
        <ele>197</ele>
        <time>2018-07-24T08:44:44Z</time>
      </trkpt>
      <trkpt lat="46.00277" lon="4.70516">
        <ele>197</ele>
        <time>2018-07-24T08:44:45Z</time>
      </trkpt>
      <trkpt lat="46.00283" lon="4.70515">
        <ele>197</ele>
        <time>2018-07-24T08:44:46Z</time>
      </trkpt>
      <trkpt lat="46.00288" lon="4.70514">
        <ele>197</ele>
        <time>2018-07-24T08:44:47Z</time>
      </trkpt>
      <trkpt lat="46.00293" lon="4.70513">
        <ele>197</ele>
        <time>2018-07-24T08:44:48Z</time>
      </trkpt>
      <trkpt lat="46.00299" lon="4.70512">
        <ele>197</ele>
        <time>2018-07-24T08:44:49Z</time>
      </trkpt>
      <trkpt lat="46.00304" lon="4.7051">
        <ele>197</ele>
        <time>2018-07-24T08:44:50Z</time>
      </trkpt>
      <trkpt lat="46.0031" lon="4.70509">
        <ele>197</ele>
        <time>2018-07-24T08:44:51Z</time>
      </trkpt>
      <trkpt lat="46.00317" lon="4.70508">
        <ele>198</ele>
        <time>2018-07-24T08:44:52Z</time>
      </trkpt>
      <trkpt lat="46.00323" lon="4.70506">
        <ele>198</ele>
        <time>2018-07-24T08:44:53Z</time>
      </trkpt>
      <trkpt lat="46.00329" lon="4.70505">
        <ele>198</ele>
        <time>2018-07-24T08:44:54Z</time>
      </trkpt>
      <trkpt lat="46.00335" lon="4.70504">
        <ele>198</ele>
        <time>2018-07-24T08:44:55Z</time>
      </trkpt>
      <trkpt lat="46.00341" lon="4.70504">
        <ele>198</ele>
        <time>2018-07-24T08:44:56Z</time>
      </trkpt>
      <trkpt lat="46.00346" lon="4.70503">
        <ele>198</ele>
        <time>2018-07-24T08:44:57Z</time>
      </trkpt>
      <trkpt lat="46.00352" lon="4.70502">
        <ele>198</ele>
        <time>2018-07-24T08:44:58Z</time>
      </trkpt>
      <trkpt lat="46.00356" lon="4.70502">
        <ele>198</ele>
        <time>2018-07-24T08:44:59Z</time>
      </trkpt>
      <trkpt lat="46.00361" lon="4.70501">
        <ele>198</ele>
        <time>2018-07-24T08:45:00Z</time>
      </trkpt>
      <trkpt lat="46.00366" lon="4.70501">
        <ele>198</ele>
        <time>2018-07-24T08:45:01Z</time>
      </trkpt>
      <trkpt lat="46.00371" lon="4.70499">
        <ele>200</ele>
        <time>2018-07-24T08:45:02Z</time>
      </trkpt>
      <trkpt lat="46.00376" lon="4.70498">
        <ele>200</ele>
        <time>2018-07-24T08:45:03Z</time>
      </trkpt>
      <trkpt lat="46.00382" lon="4.70497">
        <ele>200</ele>
        <time>2018-07-24T08:45:04Z</time>
      </trkpt>
      <trkpt lat="46.00388" lon="4.70496">
        <ele>200</ele>
        <time>2018-07-24T08:45:05Z</time>
      </trkpt>
      <trkpt lat="46.00393" lon="4.70496">
        <ele>200</ele>
        <time>2018-07-24T08:45:06Z</time>
      </trkpt>
      <trkpt lat="46.00399" lon="4.70495">
        <ele>200</ele>
        <time>2018-07-24T08:45:07Z</time>
      </trkpt>
      <trkpt lat="46.00404" lon="4.70495">
        <ele>200</ele>
        <time>2018-07-24T08:45:08Z</time>
      </trkpt>
      <trkpt lat="46.0041" lon="4.70495">
        <ele>200</ele>
        <time>2018-07-24T08:45:09Z</time>
      </trkpt>
      <trkpt lat="46.00415" lon="4.70495">
        <ele>200</ele>
        <time>2018-07-24T08:45:10Z</time>
      </trkpt>
      <trkpt lat="46.0042" lon="4.70496">
        <ele>201</ele>
        <time>2018-07-24T08:45:11Z</time>
      </trkpt>
      <trkpt lat="46.00425" lon="4.70496">
        <ele>201</ele>
        <time>2018-07-24T08:45:12Z</time>
      </trkpt>
      <trkpt lat="46.00431" lon="4.70497">
        <ele>201</ele>
        <time>2018-07-24T08:45:13Z</time>
      </trkpt>
      <trkpt lat="46.00436" lon="4.70499">
        <ele>202</ele>
        <time>2018-07-24T08:45:14Z</time>
      </trkpt>
      <trkpt lat="46.00441" lon="4.70499">
        <ele>202</ele>
        <time>2018-07-24T08:45:15Z</time>
      </trkpt>
      <trkpt lat="46.00449" lon="4.70502">
        <ele>201</ele>
        <time>2018-07-24T08:45:17Z</time>
      </trkpt>
      <trkpt lat="46.00454" lon="4.70504">
        <ele>201</ele>
        <time>2018-07-24T08:45:18Z</time>
      </trkpt>
      <trkpt lat="46.00459" lon="4.70506">
        <ele>201</ele>
        <time>2018-07-24T08:45:19Z</time>
      </trkpt>
      <trkpt lat="46.00462" lon="4.70512">
        <ele>201</ele>
        <time>2018-07-24T08:45:20Z</time>
      </trkpt>
      <trkpt lat="46.00465" lon="4.70517">
        <ele>201</ele>
        <time>2018-07-24T08:45:21Z</time>
      </trkpt>
      <trkpt lat="46.00468" lon="4.70524">
        <ele>201</ele>
        <time>2018-07-24T08:45:22Z</time>
      </trkpt>
      <trkpt lat="46.00469" lon="4.70529">
        <ele>201</ele>
        <time>2018-07-24T08:45:23Z</time>
      </trkpt>
      <trkpt lat="46.00473" lon="4.70537">
        <ele>201</ele>
        <time>2018-07-24T08:45:24Z</time>
      </trkpt>
      <trkpt lat="46.00475" lon="4.70543">
        <ele>201</ele>
        <time>2018-07-24T08:45:25Z</time>
      </trkpt>
      <trkpt lat="46.0048" lon="4.70545">
        <ele>201</ele>
        <time>2018-07-24T08:45:26Z</time>
      </trkpt>
      <trkpt lat="46.00488" lon="4.70546">
        <ele>201</ele>
        <time>2018-07-24T08:45:28Z</time>
      </trkpt>
      <trkpt lat="46.00491" lon="4.70544">
        <ele>201</ele>
        <time>2018-07-24T08:45:29Z</time>
      </trkpt>
      <trkpt lat="46.00494" lon="4.70538">
        <ele>201</ele>
        <time>2018-07-24T08:45:30Z</time>
      </trkpt>
      <trkpt lat="46.00498" lon="4.70534">
        <ele>201</ele>
        <time>2018-07-24T08:45:31Z</time>
      </trkpt>
      <trkpt lat="46.00501" lon="4.70528">
        <ele>203</ele>
        <time>2018-07-24T08:45:32Z</time>
      </trkpt>
      <trkpt lat="46.00505" lon="4.70522">
        <ele>203</ele>
        <time>2018-07-24T08:45:33Z</time>
      </trkpt>
      <trkpt lat="46.00507" lon="4.70517">
        <ele>204</ele>
        <time>2018-07-24T08:45:34Z</time>
      </trkpt>
      <trkpt lat="46.00512" lon="4.70513">
        <ele>204</ele>
        <time>2018-07-24T08:45:35Z</time>
      </trkpt>
      <trkpt lat="46.0052" lon="4.7051">
        <ele>204</ele>
        <time>2018-07-24T08:45:37Z</time>
      </trkpt>
      <trkpt lat="46.00522" lon="4.7051">
        <ele>204</ele>
        <time>2018-07-24T08:45:38Z</time>
      </trkpt>
      <trkpt lat="46.0053" lon="4.70511">
        <ele>204</ele>
        <time>2018-07-24T08:45:40Z</time>
      </trkpt>
      <trkpt lat="46.00535" lon="4.70511">
        <ele>204</ele>
        <time>2018-07-24T08:45:41Z</time>
      </trkpt>
      <trkpt lat="46.0054" lon="4.70511">
        <ele>204</ele>
        <time>2018-07-24T08:45:42Z</time>
      </trkpt>
      <trkpt lat="46.00544" lon="4.70512">
        <ele>204</ele>
        <time>2018-07-24T08:45:43Z</time>
      </trkpt>
      <trkpt lat="46.0055" lon="4.70511">
        <ele>204</ele>
        <time>2018-07-24T08:45:44Z</time>
      </trkpt>
      <trkpt lat="46.00554" lon="4.70511">
        <ele>204</ele>
        <time>2018-07-24T08:45:45Z</time>
      </trkpt>
      <trkpt lat="46.00562" lon="4.70511">
        <ele>205</ele>
        <time>2018-07-24T08:45:47Z</time>
      </trkpt>
      <trkpt lat="46.00566" lon="4.70511">
        <ele>205</ele>
        <time>2018-07-24T08:45:48Z</time>
      </trkpt>
      <trkpt lat="46.00573" lon="4.70512">
        <ele>205</ele>
        <time>2018-07-24T08:45:50Z</time>
      </trkpt>
      <trkpt lat="46.00576" lon="4.70515">
        <ele>205</ele>
        <time>2018-07-24T08:45:51Z</time>
      </trkpt>
      <trkpt lat="46.00581" lon="4.70516">
        <ele>205</ele>
        <time>2018-07-24T08:45:52Z</time>
      </trkpt>
      <trkpt lat="46.00586" lon="4.70513">
        <ele>207</ele>
        <time>2018-07-24T08:45:53Z</time>
      </trkpt>
      <trkpt lat="46.00594" lon="4.70512">
        <ele>207</ele>
        <time>2018-07-24T08:45:55Z</time>
      </trkpt>
      <trkpt lat="46.00598" lon="4.70511">
        <ele>207</ele>
        <time>2018-07-24T08:45:56Z</time>
      </trkpt>
      <trkpt lat="46.00602" lon="4.70512">
        <ele>207</ele>
        <time>2018-07-24T08:45:57Z</time>
      </trkpt>
      <trkpt lat="46.00608" lon="4.70511">
        <ele>207</ele>
        <time>2018-07-24T08:45:58Z</time>
      </trkpt>
      <trkpt lat="46.00612" lon="4.70509">
        <ele>207</ele>
        <time>2018-07-24T08:45:59Z</time>
      </trkpt>
      <trkpt lat="46.00618" lon="4.70508">
        <ele>207</ele>
        <time>2018-07-24T08:46:00Z</time>
      </trkpt>
      <trkpt lat="46.00623" lon="4.70505">
        <ele>207</ele>
        <time>2018-07-24T08:46:01Z</time>
      </trkpt>
      <trkpt lat="46.00628" lon="4.70506">
        <ele>207</ele>
        <time>2018-07-24T08:46:02Z</time>
      </trkpt>
      <trkpt lat="46.00633" lon="4.70505">
        <ele>208</ele>
        <time>2018-07-24T08:46:03Z</time>
      </trkpt>
      <trkpt lat="46.00638" lon="4.70503">
        <ele>208</ele>
        <time>2018-07-24T08:46:04Z</time>
      </trkpt>
      <trkpt lat="46.00641" lon="4.70503">
        <ele>208</ele>
        <time>2018-07-24T08:46:05Z</time>
      </trkpt>
      <trkpt lat="46.00647" lon="4.70504">
        <ele>209</ele>
        <time>2018-07-24T08:46:06Z</time>
      </trkpt>
      <trkpt lat="46.00651" lon="4.705">
        <ele>211</ele>
        <time>2018-07-24T08:46:07Z</time>
      </trkpt>
      <trkpt lat="46.00656" lon="4.70501">
        <ele>210</ele>
        <time>2018-07-24T08:46:08Z</time>
      </trkpt>
      <trkpt lat="46.00661" lon="4.70502">
        <ele>211</ele>
        <time>2018-07-24T08:46:09Z</time>
      </trkpt>
      <trkpt lat="46.00667" lon="4.70501">
        <ele>212</ele>
        <time>2018-07-24T08:46:10Z</time>
      </trkpt>
      <trkpt lat="46.00672" lon="4.705">
        <ele>212</ele>
        <time>2018-07-24T08:46:11Z</time>
      </trkpt>
      <trkpt lat="46.00676" lon="4.705">
        <ele>212</ele>
        <time>2018-07-24T08:46:12Z</time>
      </trkpt>
      <trkpt lat="46.00682" lon="4.70498">
        <ele>211</ele>
        <time>2018-07-24T08:46:13Z</time>
      </trkpt>
      <trkpt lat="46.00687" lon="4.70499">
        <ele>211</ele>
        <time>2018-07-24T08:46:14Z</time>
      </trkpt>
      <trkpt lat="46.00692" lon="4.70498">
        <ele>211</ele>
        <time>2018-07-24T08:46:15Z</time>
      </trkpt>
      <trkpt lat="46.00698" lon="4.70499">
        <ele>211</ele>
        <time>2018-07-24T08:46:16Z</time>
      </trkpt>
      <trkpt lat="46.00702" lon="4.70497">
        <ele>211</ele>
        <time>2018-07-24T08:46:17Z</time>
      </trkpt>
      <trkpt lat="46.00708" lon="4.70498">
        <ele>210</ele>
        <time>2018-07-24T08:46:18Z</time>
      </trkpt>
      <trkpt lat="46.00714" lon="4.705">
        <ele>210</ele>
        <time>2018-07-24T08:46:19Z</time>
      </trkpt>
      <trkpt lat="46.00721" lon="4.70495">
        <ele>210</ele>
        <time>2018-07-24T08:46:20Z</time>
      </trkpt>
      <trkpt lat="46.00726" lon="4.705">
        <ele>207</ele>
        <time>2018-07-24T08:46:21Z</time>
      </trkpt>
      <trkpt lat="46.00731" lon="4.70502">
        <ele>207</ele>
        <time>2018-07-24T08:46:22Z</time>
      </trkpt>
      <trkpt lat="46.00737" lon="4.705">
        <ele>207</ele>
        <time>2018-07-24T08:46:23Z</time>
      </trkpt>
      <trkpt lat="46.00743" lon="4.70502">
        <ele>208</ele>
        <time>2018-07-24T08:46:24Z</time>
      </trkpt>
      <trkpt lat="46.00749" lon="4.70505">
        <ele>208</ele>
        <time>2018-07-24T08:46:25Z</time>
      </trkpt>
      <trkpt lat="46.00755" lon="4.70508">
        <ele>207</ele>
        <time>2018-07-24T08:46:26Z</time>
      </trkpt>
      <trkpt lat="46.00761" lon="4.70511">
        <ele>206</ele>
        <time>2018-07-24T08:46:27Z</time>
      </trkpt>
      <trkpt lat="46.00767" lon="4.70516">
        <ele>205</ele>
        <time>2018-07-24T08:46:28Z</time>
      </trkpt>
      <trkpt lat="46.00773" lon="4.70518">
        <ele>205</ele>
        <time>2018-07-24T08:46:29Z</time>
      </trkpt>
      <trkpt lat="46.0078" lon="4.70521">
        <ele>204</ele>
        <time>2018-07-24T08:46:30Z</time>
      </trkpt>
      <trkpt lat="46.00786" lon="4.70525">
        <ele>204</ele>
        <time>2018-07-24T08:46:31Z</time>
      </trkpt>
      <trkpt lat="46.00794" lon="4.70528">
        <ele>204</ele>
        <time>2018-07-24T08:46:32Z</time>
      </trkpt>
      <trkpt lat="46.00801" lon="4.7053">
        <ele>204</ele>
        <time>2018-07-24T08:46:33Z</time>
      </trkpt>
      <trkpt lat="46.00808" lon="4.70533">
        <ele>204</ele>
        <time>2018-07-24T08:46:34Z</time>
      </trkpt>
      <trkpt lat="46.00814" lon="4.70537">
        <ele>203</ele>
        <time>2018-07-24T08:46:35Z</time>
      </trkpt>
      <trkpt lat="46.00821" lon="4.70541">
        <ele>203</ele>
        <time>2018-07-24T08:46:36Z</time>
      </trkpt>
      <trkpt lat="46.00827" lon="4.70543">
        <ele>203</ele>
        <time>2018-07-24T08:46:37Z</time>
      </trkpt>
      <trkpt lat="46.00833" lon="4.70545">
        <ele>203</ele>
        <time>2018-07-24T08:46:38Z</time>
      </trkpt>
      <trkpt lat="46.0084" lon="4.70547">
        <ele>201</ele>
        <time>2018-07-24T08:46:39Z</time>
      </trkpt>
      <trkpt lat="46.00847" lon="4.7055">
        <ele>201</ele>
        <time>2018-07-24T08:46:40Z</time>
      </trkpt>
      <trkpt lat="46.00852" lon="4.70553">
        <ele>201</ele>
        <time>2018-07-24T08:46:41Z</time>
      </trkpt>
      <trkpt lat="46.00858" lon="4.70557">
        <ele>201</ele>
        <time>2018-07-24T08:46:42Z</time>
      </trkpt>
      <trkpt lat="46.00865" lon="4.7056">
        <ele>201</ele>
        <time>2018-07-24T08:46:43Z</time>
      </trkpt>
      <trkpt lat="46.00873" lon="4.70563">
        <ele>201</ele>
        <time>2018-07-24T08:46:44Z</time>
      </trkpt>
      <trkpt lat="46.0088" lon="4.70567">
        <ele>200</ele>
        <time>2018-07-24T08:46:45Z</time>
      </trkpt>
      <trkpt lat="46.00887" lon="4.7057">
        <ele>200</ele>
        <time>2018-07-24T08:46:46Z</time>
      </trkpt>
      <trkpt lat="46.00894" lon="4.70572">
        <ele>200</ele>
        <time>2018-07-24T08:46:47Z</time>
      </trkpt>
      <trkpt lat="46.00901" lon="4.70575">
        <ele>199</ele>
        <time>2018-07-24T08:46:48Z</time>
      </trkpt>
      <trkpt lat="46.00908" lon="4.70576">
        <ele>199</ele>
        <time>2018-07-24T08:46:49Z</time>
      </trkpt>
      <trkpt lat="46.00914" lon="4.7058">
        <ele>198</ele>
        <time>2018-07-24T08:46:50Z</time>
      </trkpt>
      <trkpt lat="46.00922" lon="4.70583">
        <ele>198</ele>
        <time>2018-07-24T08:46:51Z</time>
      </trkpt>
      <trkpt lat="46.00929" lon="4.70587">
        <ele>198</ele>
        <time>2018-07-24T08:46:52Z</time>
      </trkpt>
      <trkpt lat="46.00936" lon="4.7059">
        <ele>198</ele>
        <time>2018-07-24T08:46:53Z</time>
      </trkpt>
      <trkpt lat="46.00943" lon="4.70594">
        <ele>197</ele>
        <time>2018-07-24T08:46:54Z</time>
      </trkpt>
      <trkpt lat="46.0095" lon="4.70597">
        <ele>197</ele>
        <time>2018-07-24T08:46:55Z</time>
      </trkpt>
      <trkpt lat="46.00957" lon="4.70601">
        <ele>197</ele>
        <time>2018-07-24T08:46:56Z</time>
      </trkpt>
      <trkpt lat="46.00965" lon="4.70603">
        <ele>197</ele>
        <time>2018-07-24T08:46:57Z</time>
      </trkpt>
      <trkpt lat="46.00973" lon="4.70606">
        <ele>197</ele>
        <time>2018-07-24T08:46:58Z</time>
      </trkpt>
      <trkpt lat="46.00981" lon="4.70609">
        <ele>197</ele>
        <time>2018-07-24T08:46:59Z</time>
      </trkpt>
      <trkpt lat="46.00988" lon="4.70614">
        <ele>197</ele>
        <time>2018-07-24T08:47:00Z</time>
      </trkpt>
      <trkpt lat="46.00996" lon="4.70618">
        <ele>197</ele>
        <time>2018-07-24T08:47:01Z</time>
      </trkpt>
      <trkpt lat="46.01004" lon="4.70621">
        <ele>196</ele>
        <time>2018-07-24T08:47:02Z</time>
      </trkpt>
      <trkpt lat="46.01011" lon="4.70623">
        <ele>196</ele>
        <time>2018-07-24T08:47:03Z</time>
      </trkpt>
      <trkpt lat="46.01018" lon="4.70628">
        <ele>196</ele>
        <time>2018-07-24T08:47:04Z</time>
      </trkpt>
      <trkpt lat="46.01025" lon="4.70631">
        <ele>196</ele>
        <time>2018-07-24T08:47:05Z</time>
      </trkpt>
      <trkpt lat="46.01032" lon="4.70633">
        <ele>196</ele>
        <time>2018-07-24T08:47:06Z</time>
      </trkpt>
      <trkpt lat="46.0104" lon="4.70636">
        <ele>196</ele>
        <time>2018-07-24T08:47:07Z</time>
      </trkpt>
      <trkpt lat="46.01047" lon="4.7064">
        <ele>195</ele>
        <time>2018-07-24T08:47:08Z</time>
      </trkpt>
      <trkpt lat="46.01054" lon="4.70644">
        <ele>195</ele>
        <time>2018-07-24T08:47:09Z</time>
      </trkpt>
      <trkpt lat="46.0106" lon="4.70646">
        <ele>195</ele>
        <time>2018-07-24T08:47:10Z</time>
      </trkpt>
      <trkpt lat="46.01066" lon="4.70649">
        <ele>195</ele>
        <time>2018-07-24T08:47:11Z</time>
      </trkpt>
      <trkpt lat="46.01072" lon="4.70651">
        <ele>195</ele>
        <time>2018-07-24T08:47:12Z</time>
      </trkpt>
      <trkpt lat="46.01079" lon="4.70655">
        <ele>195</ele>
        <time>2018-07-24T08:47:13Z</time>
      </trkpt>
      <trkpt lat="46.01086" lon="4.70657">
        <ele>195</ele>
        <time>2018-07-24T08:47:14Z</time>
      </trkpt>
      <trkpt lat="46.01092" lon="4.7066">
        <ele>195</ele>
        <time>2018-07-24T08:47:15Z</time>
      </trkpt>
      <trkpt lat="46.01098" lon="4.70663">
        <ele>195</ele>
        <time>2018-07-24T08:47:16Z</time>
      </trkpt>
      <trkpt lat="46.01105" lon="4.70667">
        <ele>195</ele>
        <time>2018-07-24T08:47:17Z</time>
      </trkpt>
      <trkpt lat="46.01112" lon="4.7067">
        <ele>195</ele>
        <time>2018-07-24T08:47:18Z</time>
      </trkpt>
      <trkpt lat="46.01117" lon="4.70672">
        <ele>195</ele>
        <time>2018-07-24T08:47:19Z</time>
      </trkpt>
      <trkpt lat="46.01124" lon="4.70677">
        <ele>195</ele>
        <time>2018-07-24T08:47:20Z</time>
      </trkpt>
      <trkpt lat="46.0113" lon="4.7068">
        <ele>194</ele>
        <time>2018-07-24T08:47:21Z</time>
      </trkpt>
      <trkpt lat="46.01136" lon="4.70682">
        <ele>194</ele>
        <time>2018-07-24T08:47:22Z</time>
      </trkpt>
      <trkpt lat="46.01142" lon="4.70685">
        <ele>194</ele>
        <time>2018-07-24T08:47:23Z</time>
      </trkpt>
      <trkpt lat="46.01148" lon="4.70688">
        <ele>194</ele>
        <time>2018-07-24T08:47:24Z</time>
      </trkpt>
      <trkpt lat="46.01153" lon="4.70691">
        <ele>194</ele>
        <time>2018-07-24T08:47:25Z</time>
      </trkpt>
      <trkpt lat="46.01158" lon="4.70693">
        <ele>194</ele>
        <time>2018-07-24T08:47:26Z</time>
      </trkpt>
      <trkpt lat="46.01164" lon="4.70696">
        <ele>194</ele>
        <time>2018-07-24T08:47:27Z</time>
      </trkpt>
      <trkpt lat="46.01172" lon="4.70697">
        <ele>194</ele>
        <time>2018-07-24T08:47:28Z</time>
      </trkpt>
      <trkpt lat="46.01179" lon="4.70699">
        <ele>194</ele>
        <time>2018-07-24T08:47:29Z</time>
      </trkpt>
      <trkpt lat="46.01185" lon="4.70703">
        <ele>194</ele>
        <time>2018-07-24T08:47:30Z</time>
      </trkpt>
      <trkpt lat="46.01192" lon="4.70706">
        <ele>194</ele>
        <time>2018-07-24T08:47:31Z</time>
      </trkpt>
      <trkpt lat="46.01199" lon="4.70708">
        <ele>194</ele>
        <time>2018-07-24T08:47:32Z</time>
      </trkpt>
      <trkpt lat="46.01206" lon="4.70711">
        <ele>194</ele>
        <time>2018-07-24T08:47:33Z</time>
      </trkpt>
      <trkpt lat="46.01213" lon="4.70714">
        <ele>194</ele>
        <time>2018-07-24T08:47:34Z</time>
      </trkpt>
      <trkpt lat="46.0122" lon="4.70718">
        <ele>194</ele>
        <time>2018-07-24T08:47:35Z</time>
      </trkpt>
      <trkpt lat="46.01227" lon="4.70721">
        <ele>194</ele>
        <time>2018-07-24T08:47:36Z</time>
      </trkpt>
      <trkpt lat="46.01233" lon="4.70724">
        <ele>194</ele>
        <time>2018-07-24T08:47:37Z</time>
      </trkpt>
      <trkpt lat="46.01242" lon="4.70728">
        <ele>193</ele>
        <time>2018-07-24T08:47:38Z</time>
      </trkpt>
      <trkpt lat="46.01249" lon="4.70729">
        <ele>193</ele>
        <time>2018-07-24T08:47:39Z</time>
      </trkpt>
      <trkpt lat="46.01256" lon="4.70732">
        <ele>192</ele>
        <time>2018-07-24T08:47:40Z</time>
      </trkpt>
      <trkpt lat="46.01263" lon="4.70734">
        <ele>192</ele>
        <time>2018-07-24T08:47:41Z</time>
      </trkpt>
      <trkpt lat="46.01269" lon="4.70736">
        <ele>192</ele>
        <time>2018-07-24T08:47:42Z</time>
      </trkpt>
      <trkpt lat="46.01275" lon="4.70738">
        <ele>192</ele>
        <time>2018-07-24T08:47:43Z</time>
      </trkpt>
      <trkpt lat="46.01281" lon="4.7074">
        <ele>192</ele>
        <time>2018-07-24T08:47:44Z</time>
      </trkpt>
      <trkpt lat="46.01287" lon="4.70742">
        <ele>191</ele>
        <time>2018-07-24T08:47:45Z</time>
      </trkpt>
      <trkpt lat="46.01291" lon="4.70741">
        <ele>191</ele>
        <time>2018-07-24T08:47:46Z</time>
      </trkpt>
      <trkpt lat="46.01299" lon="4.70742">
        <ele>191</ele>
        <time>2018-07-24T08:47:47Z</time>
      </trkpt>
      <trkpt lat="46.01305" lon="4.7074">
        <ele>191</ele>
        <time>2018-07-24T08:47:48Z</time>
      </trkpt>
      <trkpt lat="46.01311" lon="4.70742">
        <ele>190</ele>
        <time>2018-07-24T08:47:49Z</time>
      </trkpt>
      <trkpt lat="46.01317" lon="4.70743">
        <ele>190</ele>
        <time>2018-07-24T08:47:50Z</time>
      </trkpt>
      <trkpt lat="46.01323" lon="4.70744">
        <ele>190</ele>
        <time>2018-07-24T08:47:51Z</time>
      </trkpt>
      <trkpt lat="46.01331" lon="4.70745">
        <ele>189</ele>
        <time>2018-07-24T08:47:52Z</time>
      </trkpt>
      <trkpt lat="46.01337" lon="4.70746">
        <ele>189</ele>
        <time>2018-07-24T08:47:53Z</time>
      </trkpt>
      <trkpt lat="46.01343" lon="4.70747">
        <ele>189</ele>
        <time>2018-07-24T08:47:54Z</time>
      </trkpt>
      <trkpt lat="46.01352" lon="4.70748">
        <ele>189</ele>
        <time>2018-07-24T08:47:55Z</time>
      </trkpt>
      <trkpt lat="46.01358" lon="4.70749">
        <ele>189</ele>
        <time>2018-07-24T08:47:56Z</time>
      </trkpt>
      <trkpt lat="46.01365" lon="4.7075">
        <ele>189</ele>
        <time>2018-07-24T08:47:57Z</time>
      </trkpt>
      <trkpt lat="46.01372" lon="4.7075">
        <ele>189</ele>
        <time>2018-07-24T08:47:58Z</time>
      </trkpt>
      <trkpt lat="46.0138" lon="4.70749">
        <ele>189</ele>
        <time>2018-07-24T08:47:59Z</time>
      </trkpt>
      <trkpt lat="46.01387" lon="4.70749">
        <ele>189</ele>
        <time>2018-07-24T08:48:00Z</time>
      </trkpt>
      <trkpt lat="46.01394" lon="4.70748">
        <ele>189</ele>
        <time>2018-07-24T08:48:01Z</time>
      </trkpt>
      <trkpt lat="46.01401" lon="4.70747">
        <ele>189</ele>
        <time>2018-07-24T08:48:02Z</time>
      </trkpt>
      <trkpt lat="46.01407" lon="4.70746">
        <ele>189</ele>
        <time>2018-07-24T08:48:03Z</time>
      </trkpt>
      <trkpt lat="46.01415" lon="4.70743">
        <ele>189</ele>
        <time>2018-07-24T08:48:04Z</time>
      </trkpt>
      <trkpt lat="46.01422" lon="4.70742">
        <ele>189</ele>
        <time>2018-07-24T08:48:05Z</time>
      </trkpt>
      <trkpt lat="46.01429" lon="4.70741">
        <ele>189</ele>
        <time>2018-07-24T08:48:06Z</time>
      </trkpt>
      <trkpt lat="46.01435" lon="4.70739">
        <ele>189</ele>
        <time>2018-07-24T08:48:07Z</time>
      </trkpt>
      <trkpt lat="46.01442" lon="4.70738">
        <ele>189</ele>
        <time>2018-07-24T08:48:08Z</time>
      </trkpt>
      <trkpt lat="46.01449" lon="4.70737">
        <ele>189</ele>
        <time>2018-07-24T08:48:09Z</time>
      </trkpt>
      <trkpt lat="46.01455" lon="4.70735">
        <ele>189</ele>
        <time>2018-07-24T08:48:10Z</time>
      </trkpt>
      <trkpt lat="46.01462" lon="4.70734">
        <ele>190</ele>
        <time>2018-07-24T08:48:11Z</time>
      </trkpt>
      <trkpt lat="46.01469" lon="4.70734">
        <ele>190</ele>
        <time>2018-07-24T08:48:12Z</time>
      </trkpt>
      <trkpt lat="46.01476" lon="4.70733">
        <ele>190</ele>
        <time>2018-07-24T08:48:13Z</time>
      </trkpt>
      <trkpt lat="46.01483" lon="4.70732">
        <ele>190</ele>
        <time>2018-07-24T08:48:14Z</time>
      </trkpt>
      <trkpt lat="46.0149" lon="4.70732">
        <ele>190</ele>
        <time>2018-07-24T08:48:15Z</time>
      </trkpt>
      <trkpt lat="46.01497" lon="4.70732">
        <ele>190</ele>
        <time>2018-07-24T08:48:16Z</time>
      </trkpt>
      <trkpt lat="46.01505" lon="4.70731">
        <ele>190</ele>
        <time>2018-07-24T08:48:17Z</time>
      </trkpt>
      <trkpt lat="46.01511" lon="4.7073">
        <ele>190</ele>
        <time>2018-07-24T08:48:18Z</time>
      </trkpt>
      <trkpt lat="46.01519" lon="4.70729">
        <ele>190</ele>
        <time>2018-07-24T08:48:19Z</time>
      </trkpt>
      <trkpt lat="46.01527" lon="4.70725">
        <ele>190</ele>
        <time>2018-07-24T08:48:20Z</time>
      </trkpt>
      <trkpt lat="46.01535" lon="4.70725">
        <ele>190</ele>
        <time>2018-07-24T08:48:21Z</time>
      </trkpt>
      <trkpt lat="46.01542" lon="4.70724">
        <ele>190</ele>
        <time>2018-07-24T08:48:22Z</time>
      </trkpt>
      <trkpt lat="46.01549" lon="4.70719">
        <ele>190</ele>
        <time>2018-07-24T08:48:23Z</time>
      </trkpt>
      <trkpt lat="46.01556" lon="4.70719">
        <ele>190</ele>
        <time>2018-07-24T08:48:24Z</time>
      </trkpt>
      <trkpt lat="46.01563" lon="4.7072">
        <ele>190</ele>
        <time>2018-07-24T08:48:25Z</time>
      </trkpt>
      <trkpt lat="46.01571" lon="4.7072">
        <ele>190</ele>
        <time>2018-07-24T08:48:26Z</time>
      </trkpt>
      <trkpt lat="46.01578" lon="4.70719">
        <ele>190</ele>
        <time>2018-07-24T08:48:27Z</time>
      </trkpt>
      <trkpt lat="46.01586" lon="4.70718">
        <ele>190</ele>
        <time>2018-07-24T08:48:28Z</time>
      </trkpt>
      <trkpt lat="46.01593" lon="4.70718">
        <ele>190</ele>
        <time>2018-07-24T08:48:29Z</time>
      </trkpt>
      <trkpt lat="46.016" lon="4.70717">
        <ele>190</ele>
        <time>2018-07-24T08:48:30Z</time>
      </trkpt>
      <trkpt lat="46.01607" lon="4.70717">
        <ele>190</ele>
        <time>2018-07-24T08:48:31Z</time>
      </trkpt>
      <trkpt lat="46.01614" lon="4.70716">
        <ele>190</ele>
        <time>2018-07-24T08:48:32Z</time>
      </trkpt>
      <trkpt lat="46.01622" lon="4.70716">
        <ele>190</ele>
        <time>2018-07-24T08:48:33Z</time>
      </trkpt>
      <trkpt lat="46.01629" lon="4.70716">
        <ele>190</ele>
        <time>2018-07-24T08:48:34Z</time>
      </trkpt>
      <trkpt lat="46.01637" lon="4.70716">
        <ele>190</ele>
        <time>2018-07-24T08:48:35Z</time>
      </trkpt>
      <trkpt lat="46.01645" lon="4.70715">
        <ele>190</ele>
        <time>2018-07-24T08:48:36Z</time>
      </trkpt>
      <trkpt lat="46.01653" lon="4.70716">
        <ele>190</ele>
        <time>2018-07-24T08:48:37Z</time>
      </trkpt>
      <trkpt lat="46.01659" lon="4.70714">
        <ele>190</ele>
        <time>2018-07-24T08:48:38Z</time>
      </trkpt>
      <trkpt lat="46.01666" lon="4.70713">
        <ele>190</ele>
        <time>2018-07-24T08:48:39Z</time>
      </trkpt>
      <trkpt lat="46.01672" lon="4.70714">
        <ele>189</ele>
        <time>2018-07-24T08:48:40Z</time>
      </trkpt>
      <trkpt lat="46.0168" lon="4.70716">
        <ele>189</ele>
        <time>2018-07-24T08:48:41Z</time>
      </trkpt>
      <trkpt lat="46.01688" lon="4.70713">
        <ele>189</ele>
        <time>2018-07-24T08:48:42Z</time>
      </trkpt>
      <trkpt lat="46.01694" lon="4.70709">
        <ele>189</ele>
        <time>2018-07-24T08:48:43Z</time>
      </trkpt>
      <trkpt lat="46.01701" lon="4.70708">
        <ele>189</ele>
        <time>2018-07-24T08:48:44Z</time>
      </trkpt>
      <trkpt lat="46.01708" lon="4.70707">
        <ele>189</ele>
        <time>2018-07-24T08:48:45Z</time>
      </trkpt>
      <trkpt lat="46.01714" lon="4.7071">
        <ele>188</ele>
        <time>2018-07-24T08:48:46Z</time>
      </trkpt>
      <trkpt lat="46.01721" lon="4.7071">
        <ele>188</ele>
        <time>2018-07-24T08:48:47Z</time>
      </trkpt>
      <trkpt lat="46.01729" lon="4.70712">
        <ele>188</ele>
        <time>2018-07-24T08:48:48Z</time>
      </trkpt>
      <trkpt lat="46.01736" lon="4.7071">
        <ele>188</ele>
        <time>2018-07-24T08:48:49Z</time>
      </trkpt>
      <trkpt lat="46.01743" lon="4.70709">
        <ele>188</ele>
        <time>2018-07-24T08:48:50Z</time>
      </trkpt>
      <trkpt lat="46.01749" lon="4.70708">
        <ele>188</ele>
        <time>2018-07-24T08:48:51Z</time>
      </trkpt>
      <trkpt lat="46.01756" lon="4.70706">
        <ele>187</ele>
        <time>2018-07-24T08:48:52Z</time>
      </trkpt>
      <trkpt lat="46.01766" lon="4.70706">
        <ele>187</ele>
        <time>2018-07-24T08:48:53Z</time>
      </trkpt>
      <trkpt lat="46.01773" lon="4.70706">
        <ele>187</ele>
        <time>2018-07-24T08:48:54Z</time>
      </trkpt>
      <trkpt lat="46.0178" lon="4.70703">
        <ele>187</ele>
        <time>2018-07-24T08:48:55Z</time>
      </trkpt>
      <trkpt lat="46.01787" lon="4.70701">
        <ele>187</ele>
        <time>2018-07-24T08:48:56Z</time>
      </trkpt>
      <trkpt lat="46.01794" lon="4.707">
        <ele>187</ele>
        <time>2018-07-24T08:48:57Z</time>
      </trkpt>
      <trkpt lat="46.01802" lon="4.70703">
        <ele>187</ele>
        <time>2018-07-24T08:48:58Z</time>
      </trkpt>
      <trkpt lat="46.01809" lon="4.70703">
        <ele>187</ele>
        <time>2018-07-24T08:48:59Z</time>
      </trkpt>
      <trkpt lat="46.01816" lon="4.70702">
        <ele>187</ele>
        <time>2018-07-24T08:49:00Z</time>
      </trkpt>
      <trkpt lat="46.01822" lon="4.70702">
        <ele>187</ele>
        <time>2018-07-24T08:49:01Z</time>
      </trkpt>
      <trkpt lat="46.01829" lon="4.70701">
        <ele>187</ele>
        <time>2018-07-24T08:49:02Z</time>
      </trkpt>
      <trkpt lat="46.01835" lon="4.707">
        <ele>185</ele>
        <time>2018-07-24T08:49:03Z</time>
      </trkpt>
      <trkpt lat="46.01841" lon="4.707">
        <ele>185</ele>
        <time>2018-07-24T08:49:04Z</time>
      </trkpt>
      <trkpt lat="46.01848" lon="4.70699">
        <ele>185</ele>
        <time>2018-07-24T08:49:05Z</time>
      </trkpt>
      <trkpt lat="46.01854" lon="4.707">
        <ele>185</ele>
        <time>2018-07-24T08:49:06Z</time>
      </trkpt>
      <trkpt lat="46.0186" lon="4.70699">
        <ele>185</ele>
        <time>2018-07-24T08:49:07Z</time>
      </trkpt>
      <trkpt lat="46.01866" lon="4.70699">
        <ele>185</ele>
        <time>2018-07-24T08:49:08Z</time>
      </trkpt>
      <trkpt lat="46.01873" lon="4.70698">
        <ele>185</ele>
        <time>2018-07-24T08:49:09Z</time>
      </trkpt>
      <trkpt lat="46.0188" lon="4.70698">
        <ele>185</ele>
        <time>2018-07-24T08:49:10Z</time>
      </trkpt>
      <trkpt lat="46.01886" lon="4.70698">
        <ele>184</ele>
        <time>2018-07-24T08:49:11Z</time>
      </trkpt>
      <trkpt lat="46.01894" lon="4.70699">
        <ele>184</ele>
        <time>2018-07-24T08:49:12Z</time>
      </trkpt>
      <trkpt lat="46.01901" lon="4.70699">
        <ele>184</ele>
        <time>2018-07-24T08:49:13Z</time>
      </trkpt>
      <trkpt lat="46.01908" lon="4.70699">
        <ele>184</ele>
        <time>2018-07-24T08:49:14Z</time>
      </trkpt>
      <trkpt lat="46.01915" lon="4.70699">
        <ele>184</ele>
        <time>2018-07-24T08:49:15Z</time>
      </trkpt>
      <trkpt lat="46.01923" lon="4.707">
        <ele>182</ele>
        <time>2018-07-24T08:49:16Z</time>
      </trkpt>
      <trkpt lat="46.01931" lon="4.70701">
        <ele>182</ele>
        <time>2018-07-24T08:49:17Z</time>
      </trkpt>
      <trkpt lat="46.01939" lon="4.707">
        <ele>182</ele>
        <time>2018-07-24T08:49:18Z</time>
      </trkpt>
      <trkpt lat="46.01947" lon="4.70702">
        <ele>182</ele>
        <time>2018-07-24T08:49:19Z</time>
      </trkpt>
      <trkpt lat="46.01955" lon="4.70703">
        <ele>181</ele>
        <time>2018-07-24T08:49:20Z</time>
      </trkpt>
      <trkpt lat="46.01963" lon="4.70704">
        <ele>181</ele>
        <time>2018-07-24T08:49:21Z</time>
      </trkpt>
      <trkpt lat="46.0197" lon="4.70706">
        <ele>181</ele>
        <time>2018-07-24T08:49:22Z</time>
      </trkpt>
      <trkpt lat="46.01978" lon="4.70707">
        <ele>181</ele>
        <time>2018-07-24T08:49:23Z</time>
      </trkpt>
      <trkpt lat="46.01984" lon="4.70709">
        <ele>181</ele>
        <time>2018-07-24T08:49:24Z</time>
      </trkpt>
      <trkpt lat="46.01992" lon="4.70711">
        <ele>181</ele>
        <time>2018-07-24T08:49:25Z</time>
      </trkpt>
      <trkpt lat="46.01999" lon="4.70712">
        <ele>181</ele>
        <time>2018-07-24T08:49:26Z</time>
      </trkpt>
      <trkpt lat="46.02007" lon="4.70713">
        <ele>179</ele>
        <time>2018-07-24T08:49:27Z</time>
      </trkpt>
      <trkpt lat="46.02014" lon="4.70715">
        <ele>179</ele>
        <time>2018-07-24T08:49:28Z</time>
      </trkpt>
      <trkpt lat="46.02022" lon="4.70716">
        <ele>179</ele>
        <time>2018-07-24T08:49:29Z</time>
      </trkpt>
      <trkpt lat="46.02029" lon="4.70717">
        <ele>179</ele>
        <time>2018-07-24T08:49:30Z</time>
      </trkpt>
      <trkpt lat="46.02036" lon="4.70719">
        <ele>179</ele>
        <time>2018-07-24T08:49:31Z</time>
      </trkpt>
      <trkpt lat="46.02044" lon="4.7072">
        <ele>179</ele>
        <time>2018-07-24T08:49:32Z</time>
      </trkpt>
      <trkpt lat="46.02051" lon="4.70721">
        <ele>179</ele>
        <time>2018-07-24T08:49:33Z</time>
      </trkpt>
      <trkpt lat="46.02059" lon="4.70723">
        <ele>179</ele>
        <time>2018-07-24T08:49:34Z</time>
      </trkpt>
      <trkpt lat="46.02066" lon="4.70724">
        <ele>179</ele>
        <time>2018-07-24T08:49:35Z</time>
      </trkpt>
      <trkpt lat="46.02074" lon="4.70725">
        <ele>178</ele>
        <time>2018-07-24T08:49:36Z</time>
      </trkpt>
      <trkpt lat="46.02081" lon="4.70727">
        <ele>178</ele>
        <time>2018-07-24T08:49:37Z</time>
      </trkpt>
      <trkpt lat="46.02088" lon="4.70728">
        <ele>178</ele>
        <time>2018-07-24T08:49:38Z</time>
      </trkpt>
      <trkpt lat="46.02096" lon="4.7073">
        <ele>178</ele>
        <time>2018-07-24T08:49:39Z</time>
      </trkpt>
      <trkpt lat="46.02104" lon="4.70731">
        <ele>178</ele>
        <time>2018-07-24T08:49:40Z</time>
      </trkpt>
      <trkpt lat="46.02111" lon="4.70731">
        <ele>179</ele>
        <time>2018-07-24T08:49:41Z</time>
      </trkpt>
      <trkpt lat="46.02118" lon="4.70731">
        <ele>179</ele>
        <time>2018-07-24T08:49:42Z</time>
      </trkpt>
      <trkpt lat="46.02125" lon="4.70732">
        <ele>179</ele>
        <time>2018-07-24T08:49:43Z</time>
      </trkpt>
      <trkpt lat="46.02132" lon="4.70734">
        <ele>179</ele>
        <time>2018-07-24T08:49:44Z</time>
      </trkpt>
      <trkpt lat="46.02139" lon="4.70735">
        <ele>179</ele>
        <time>2018-07-24T08:49:45Z</time>
      </trkpt>
      <trkpt lat="46.02145" lon="4.70737">
        <ele>179</ele>
        <time>2018-07-24T08:49:46Z</time>
      </trkpt>
      <trkpt lat="46.02152" lon="4.70739">
        <ele>179</ele>
        <time>2018-07-24T08:49:47Z</time>
      </trkpt>
      <trkpt lat="46.02158" lon="4.7074">
        <ele>179</ele>
        <time>2018-07-24T08:49:48Z</time>
      </trkpt>
      <trkpt lat="46.02166" lon="4.7074">
        <ele>179</ele>
        <time>2018-07-24T08:49:49Z</time>
      </trkpt>
      <trkpt lat="46.02173" lon="4.70742">
        <ele>180</ele>
        <time>2018-07-24T08:49:50Z</time>
      </trkpt>
      <trkpt lat="46.0218" lon="4.70743">
        <ele>180</ele>
        <time>2018-07-24T08:49:51Z</time>
      </trkpt>
      <trkpt lat="46.02187" lon="4.70744">
        <ele>180</ele>
        <time>2018-07-24T08:49:52Z</time>
      </trkpt>
      <trkpt lat="46.02193" lon="4.70745">
        <ele>180</ele>
        <time>2018-07-24T08:49:53Z</time>
      </trkpt>
      <trkpt lat="46.022" lon="4.70747">
        <ele>180</ele>
        <time>2018-07-24T08:49:54Z</time>
      </trkpt>
      <trkpt lat="46.02206" lon="4.70747">
        <ele>180</ele>
        <time>2018-07-24T08:49:55Z</time>
      </trkpt>
      <trkpt lat="46.02212" lon="4.70748">
        <ele>180</ele>
        <time>2018-07-24T08:49:56Z</time>
      </trkpt>
      <trkpt lat="46.02219" lon="4.70749">
        <ele>180</ele>
        <time>2018-07-24T08:49:57Z</time>
      </trkpt>
      <trkpt lat="46.02226" lon="4.70751">
        <ele>180</ele>
        <time>2018-07-24T08:49:58Z</time>
      </trkpt>
      <trkpt lat="46.02233" lon="4.70753">
        <ele>180</ele>
        <time>2018-07-24T08:49:59Z</time>
      </trkpt>
      <trkpt lat="46.0224" lon="4.70754">
        <ele>180</ele>
        <time>2018-07-24T08:50:00Z</time>
      </trkpt>
      <trkpt lat="46.02246" lon="4.70755">
        <ele>181</ele>
        <time>2018-07-24T08:50:01Z</time>
      </trkpt>
      <trkpt lat="46.02252" lon="4.70756">
        <ele>181</ele>
        <time>2018-07-24T08:50:02Z</time>
      </trkpt>
      <trkpt lat="46.02258" lon="4.70756">
        <ele>181</ele>
        <time>2018-07-24T08:50:03Z</time>
      </trkpt>
      <trkpt lat="46.02264" lon="4.70755">
        <ele>181</ele>
        <time>2018-07-24T08:50:04Z</time>
      </trkpt>
      <trkpt lat="46.02269" lon="4.70756">
        <ele>181</ele>
        <time>2018-07-24T08:50:05Z</time>
      </trkpt>
      <trkpt lat="46.02275" lon="4.70757">
        <ele>181</ele>
        <time>2018-07-24T08:50:06Z</time>
      </trkpt>
      <trkpt lat="46.02281" lon="4.70757">
        <ele>181</ele>
        <time>2018-07-24T08:50:07Z</time>
      </trkpt>
      <trkpt lat="46.02288" lon="4.70761">
        <ele>181</ele>
        <time>2018-07-24T08:50:08Z</time>
      </trkpt>
      <trkpt lat="46.02293" lon="4.70762">
        <ele>180</ele>
        <time>2018-07-24T08:50:09Z</time>
      </trkpt>
      <trkpt lat="46.023" lon="4.70763">
        <ele>180</ele>
        <time>2018-07-24T08:50:10Z</time>
      </trkpt>
      <trkpt lat="46.02306" lon="4.70765">
        <ele>180</ele>
        <time>2018-07-24T08:50:11Z</time>
      </trkpt>
      <trkpt lat="46.02312" lon="4.70765">
        <ele>180</ele>
        <time>2018-07-24T08:50:12Z</time>
      </trkpt>
      <trkpt lat="46.02318" lon="4.70766">
        <ele>180</ele>
        <time>2018-07-24T08:50:13Z</time>
      </trkpt>
      <trkpt lat="46.02323" lon="4.70768">
        <ele>180</ele>
        <time>2018-07-24T08:50:14Z</time>
      </trkpt>
      <trkpt lat="46.02327" lon="4.7077">
        <ele>180</ele>
        <time>2018-07-24T08:50:15Z</time>
      </trkpt>
      <trkpt lat="46.02332" lon="4.70771">
        <ele>180</ele>
        <time>2018-07-24T08:50:16Z</time>
      </trkpt>
      <trkpt lat="46.02337" lon="4.70773">
        <ele>182</ele>
        <time>2018-07-24T08:50:17Z</time>
      </trkpt>
      <trkpt lat="46.02344" lon="4.70773">
        <ele>182</ele>
        <time>2018-07-24T08:50:18Z</time>
      </trkpt>
      <trkpt lat="46.02349" lon="4.70774">
        <ele>183</ele>
        <time>2018-07-24T08:50:19Z</time>
      </trkpt>
      <trkpt lat="46.02354" lon="4.70775">
        <ele>183</ele>
        <time>2018-07-24T08:50:20Z</time>
      </trkpt>
      <trkpt lat="46.02359" lon="4.70776">
        <ele>183</ele>
        <time>2018-07-24T08:50:21Z</time>
      </trkpt>
      <trkpt lat="46.02368" lon="4.70778">
        <ele>183</ele>
        <time>2018-07-24T08:50:23Z</time>
      </trkpt>
      <trkpt lat="46.02369" lon="4.7078">
        <ele>184</ele>
        <time>2018-07-24T08:50:24Z</time>
      </trkpt>
      <trkpt lat="46.02374" lon="4.70781">
        <ele>184</ele>
        <time>2018-07-24T08:50:25Z</time>
      </trkpt>
      <trkpt lat="46.02379" lon="4.70781">
        <ele>184</ele>
        <time>2018-07-24T08:50:26Z</time>
      </trkpt>
      <trkpt lat="46.02385" lon="4.70782">
        <ele>184</ele>
        <time>2018-07-24T08:50:27Z</time>
      </trkpt>
      <trkpt lat="46.0239" lon="4.70783">
        <ele>184</ele>
        <time>2018-07-24T08:50:28Z</time>
      </trkpt>
      <trkpt lat="46.02398" lon="4.70786">
        <ele>185</ele>
        <time>2018-07-24T08:50:30Z</time>
      </trkpt>
      <trkpt lat="46.02402" lon="4.70785">
        <ele>185</ele>
        <time>2018-07-24T08:50:31Z</time>
      </trkpt>
      <trkpt lat="46.02411" lon="4.70784">
        <ele>185</ele>
        <time>2018-07-24T08:50:34Z</time>
      </trkpt>
      <trkpt lat="46.02413" lon="4.70783">
        <ele>185</ele>
        <time>2018-07-24T08:50:35Z</time>
      </trkpt>
      <trkpt lat="46.02416" lon="4.70784">
        <ele>185</ele>
        <time>2018-07-24T08:50:37Z</time>
      </trkpt>
      <trkpt lat="46.02423" lon="4.70785">
        <ele>189</ele>
        <time>2018-07-24T08:50:38Z</time>
      </trkpt>
      <trkpt lat="46.0243" lon="4.70784">
        <ele>189</ele>
        <time>2018-07-24T08:50:40Z</time>
      </trkpt>
      <trkpt lat="46.02432" lon="4.70784">
        <ele>189</ele>
        <time>2018-07-24T08:50:41Z</time>
      </trkpt>
      <trkpt lat="46.02438" lon="4.70778">
        <ele>189</ele>
        <time>2018-07-24T08:50:43Z</time>
      </trkpt>
      <trkpt lat="46.02441" lon="4.7077">
        <ele>189</ele>
        <time>2018-07-24T08:50:44Z</time>
      </trkpt>
      <trkpt lat="46.02443" lon="4.70764">
        <ele>190</ele>
        <time>2018-07-24T08:50:45Z</time>
      </trkpt>
      <trkpt lat="46.02444" lon="4.70756">
        <ele>190</ele>
        <time>2018-07-24T08:50:46Z</time>
      </trkpt>
      <trkpt lat="46.0245" lon="4.70746">
        <ele>190</ele>
        <time>2018-07-24T08:50:48Z</time>
      </trkpt>
      <trkpt lat="46.02451" lon="4.7074">
        <ele>190</ele>
        <time>2018-07-24T08:50:49Z</time>
      </trkpt>
      <trkpt lat="46.02453" lon="4.70734">
        <ele>190</ele>
        <time>2018-07-24T08:50:50Z</time>
      </trkpt>
      <trkpt lat="46.02456" lon="4.70728">
        <ele>190</ele>
        <time>2018-07-24T08:50:51Z</time>
      </trkpt>
      <trkpt lat="46.02457" lon="4.70722">
        <ele>190</ele>
        <time>2018-07-24T08:50:52Z</time>
      </trkpt>
      <trkpt lat="46.02458" lon="4.70715">
        <ele>190</ele>
        <time>2018-07-24T08:50:53Z</time>
      </trkpt>
      <trkpt lat="46.02459" lon="4.70709">
        <ele>190</ele>
        <time>2018-07-24T08:50:54Z</time>
      </trkpt>
      <trkpt lat="46.02461" lon="4.70702">
        <ele>190</ele>
        <time>2018-07-24T08:50:55Z</time>
      </trkpt>
      <trkpt lat="46.02462" lon="4.70694">
        <ele>190</ele>
        <time>2018-07-24T08:50:56Z</time>
      </trkpt>
      <trkpt lat="46.02463" lon="4.70686">
        <ele>190</ele>
        <time>2018-07-24T08:50:57Z</time>
      </trkpt>
      <trkpt lat="46.02466" lon="4.70679">
        <ele>190</ele>
        <time>2018-07-24T08:50:58Z</time>
      </trkpt>
      <trkpt lat="46.02468" lon="4.70672">
        <ele>190</ele>
        <time>2018-07-24T08:50:59Z</time>
      </trkpt>
      <trkpt lat="46.0247" lon="4.70664">
        <ele>189</ele>
        <time>2018-07-24T08:51:00Z</time>
      </trkpt>
      <trkpt lat="46.02474" lon="4.70655">
        <ele>189</ele>
        <time>2018-07-24T08:51:01Z</time>
      </trkpt>
      <trkpt lat="46.02476" lon="4.70647">
        <ele>189</ele>
        <time>2018-07-24T08:51:02Z</time>
      </trkpt>
      <trkpt lat="46.02476" lon="4.7064">
        <ele>188</ele>
        <time>2018-07-24T08:51:03Z</time>
      </trkpt>
      <trkpt lat="46.02478" lon="4.70633">
        <ele>188</ele>
        <time>2018-07-24T08:51:04Z</time>
      </trkpt>
      <trkpt lat="46.02477" lon="4.70627">
        <ele>188</ele>
        <time>2018-07-24T08:51:05Z</time>
      </trkpt>
      <trkpt lat="46.0248" lon="4.70622">
        <ele>188</ele>
        <time>2018-07-24T08:51:06Z</time>
      </trkpt>
      <trkpt lat="46.02485" lon="4.7062">
        <ele>188</ele>
        <time>2018-07-24T08:51:07Z</time>
      </trkpt>
      <trkpt lat="46.0249" lon="4.70617">
        <ele>188</ele>
        <time>2018-07-24T08:51:08Z</time>
      </trkpt>
      <trkpt lat="46.02495" lon="4.70618">
        <ele>188</ele>
        <time>2018-07-24T08:51:09Z</time>
      </trkpt>
      <trkpt lat="46.025" lon="4.70619">
        <ele>188</ele>
        <time>2018-07-24T08:51:10Z</time>
      </trkpt>
      <trkpt lat="46.02505" lon="4.70621">
        <ele>189</ele>
        <time>2018-07-24T08:51:11Z</time>
      </trkpt>
      <trkpt lat="46.02508" lon="4.70622">
        <ele>189</ele>
        <time>2018-07-24T08:51:12Z</time>
      </trkpt>
      <trkpt lat="46.02514" lon="4.70624">
        <ele>189</ele>
        <time>2018-07-24T08:51:13Z</time>
      </trkpt>
      <trkpt lat="46.02519" lon="4.70627">
        <ele>189</ele>
        <time>2018-07-24T08:51:14Z</time>
      </trkpt>
      <trkpt lat="46.02524" lon="4.70628">
        <ele>189</ele>
        <time>2018-07-24T08:51:15Z</time>
      </trkpt>
      <trkpt lat="46.02529" lon="4.70628">
        <ele>189</ele>
        <time>2018-07-24T08:51:16Z</time>
      </trkpt>
      <trkpt lat="46.02534" lon="4.7063">
        <ele>189</ele>
        <time>2018-07-24T08:51:17Z</time>
      </trkpt>
      <trkpt lat="46.0254" lon="4.70631">
        <ele>189</ele>
        <time>2018-07-24T08:51:18Z</time>
      </trkpt>
      <trkpt lat="46.02546" lon="4.70634">
        <ele>189</ele>
        <time>2018-07-24T08:51:19Z</time>
      </trkpt>
      <trkpt lat="46.0255" lon="4.70635">
        <ele>189</ele>
        <time>2018-07-24T08:51:20Z</time>
      </trkpt>
      <trkpt lat="46.02556" lon="4.70636">
        <ele>189</ele>
        <time>2018-07-24T08:51:21Z</time>
      </trkpt>
      <trkpt lat="46.02561" lon="4.70637">
        <ele>189</ele>
        <time>2018-07-24T08:51:22Z</time>
      </trkpt>
      <trkpt lat="46.02567" lon="4.7064">
        <ele>189</ele>
        <time>2018-07-24T08:51:23Z</time>
      </trkpt>
      <trkpt lat="46.02572" lon="4.70641">
        <ele>189</ele>
        <time>2018-07-24T08:51:24Z</time>
      </trkpt>
      <trkpt lat="46.02576" lon="4.7064">
        <ele>189</ele>
        <time>2018-07-24T08:51:25Z</time>
      </trkpt>
      <trkpt lat="46.0258" lon="4.70642">
        <ele>190</ele>
        <time>2018-07-24T08:51:26Z</time>
      </trkpt>
      <trkpt lat="46.02586" lon="4.70644">
        <ele>190</ele>
        <time>2018-07-24T08:51:27Z</time>
      </trkpt>
      <trkpt lat="46.02591" lon="4.70646">
        <ele>190</ele>
        <time>2018-07-24T08:51:28Z</time>
      </trkpt>
      <trkpt lat="46.02596" lon="4.70647">
        <ele>190</ele>
        <time>2018-07-24T08:51:29Z</time>
      </trkpt>
      <trkpt lat="46.02601" lon="4.70648">
        <ele>190</ele>
        <time>2018-07-24T08:51:30Z</time>
      </trkpt>
      <trkpt lat="46.02605" lon="4.70648">
        <ele>190</ele>
        <time>2018-07-24T08:51:31Z</time>
      </trkpt>
      <trkpt lat="46.02611" lon="4.7065">
        <ele>190</ele>
        <time>2018-07-24T08:51:32Z</time>
      </trkpt>
      <trkpt lat="46.02616" lon="4.70652">
        <ele>190</ele>
        <time>2018-07-24T08:51:33Z</time>
      </trkpt>
      <trkpt lat="46.02624" lon="4.70653">
        <ele>190</ele>
        <time>2018-07-24T08:51:35Z</time>
      </trkpt>
      <trkpt lat="46.02628" lon="4.70654">
        <ele>190</ele>
        <time>2018-07-24T08:51:36Z</time>
      </trkpt>
      <trkpt lat="46.02634" lon="4.70654">
        <ele>190</ele>
        <time>2018-07-24T08:51:37Z</time>
      </trkpt>
      <trkpt lat="46.0264" lon="4.70655">
        <ele>190</ele>
        <time>2018-07-24T08:51:38Z</time>
      </trkpt>
      <trkpt lat="46.02645" lon="4.70657">
        <ele>190</ele>
        <time>2018-07-24T08:51:39Z</time>
      </trkpt>
      <trkpt lat="46.0265" lon="4.70657">
        <ele>190</ele>
        <time>2018-07-24T08:51:40Z</time>
      </trkpt>
      <trkpt lat="46.02656" lon="4.70657">
        <ele>190</ele>
        <time>2018-07-24T08:51:41Z</time>
      </trkpt>
      <trkpt lat="46.02661" lon="4.70659">
        <ele>190</ele>
        <time>2018-07-24T08:51:42Z</time>
      </trkpt>
      <trkpt lat="46.02666" lon="4.70658">
        <ele>190</ele>
        <time>2018-07-24T08:51:43Z</time>
      </trkpt>
      <trkpt lat="46.02671" lon="4.70659">
        <ele>190</ele>
        <time>2018-07-24T08:51:44Z</time>
      </trkpt>
      <trkpt lat="46.02676" lon="4.70661">
        <ele>190</ele>
        <time>2018-07-24T08:51:45Z</time>
      </trkpt>
      <trkpt lat="46.02681" lon="4.70662">
        <ele>190</ele>
        <time>2018-07-24T08:51:46Z</time>
      </trkpt>
      <trkpt lat="46.0269" lon="4.70663">
        <ele>190</ele>
        <time>2018-07-24T08:51:48Z</time>
      </trkpt>
      <trkpt lat="46.02694" lon="4.70664">
        <ele>189</ele>
        <time>2018-07-24T08:51:49Z</time>
      </trkpt>
      <trkpt lat="46.02699" lon="4.70664">
        <ele>189</ele>
        <time>2018-07-24T08:51:50Z</time>
      </trkpt>
      <trkpt lat="46.02704" lon="4.70665">
        <ele>189</ele>
        <time>2018-07-24T08:51:51Z</time>
      </trkpt>
      <trkpt lat="46.02712" lon="4.70664">
        <ele>189</ele>
        <time>2018-07-24T08:51:53Z</time>
      </trkpt>
      <trkpt lat="46.02716" lon="4.70666">
        <ele>189</ele>
        <time>2018-07-24T08:51:54Z</time>
      </trkpt>
      <trkpt lat="46.02721" lon="4.70668">
        <ele>189</ele>
        <time>2018-07-24T08:51:55Z</time>
      </trkpt>
      <trkpt lat="46.02726" lon="4.70668">
        <ele>189</ele>
        <time>2018-07-24T08:51:56Z</time>
      </trkpt>
      <trkpt lat="46.02731" lon="4.70669">
        <ele>189</ele>
        <time>2018-07-24T08:51:57Z</time>
      </trkpt>
      <trkpt lat="46.02736" lon="4.70666">
        <ele>189</ele>
        <time>2018-07-24T08:51:58Z</time>
      </trkpt>
      <trkpt lat="46.0274" lon="4.70667">
        <ele>189</ele>
        <time>2018-07-24T08:51:59Z</time>
      </trkpt>
      <trkpt lat="46.02748" lon="4.70665">
        <ele>189</ele>
        <time>2018-07-24T08:52:00Z</time>
      </trkpt>
      <trkpt lat="46.02756" lon="4.70667">
        <ele>189</ele>
        <time>2018-07-24T08:52:02Z</time>
      </trkpt>
      <trkpt lat="46.02761" lon="4.70669">
        <ele>189</ele>
        <time>2018-07-24T08:52:03Z</time>
      </trkpt>
      <trkpt lat="46.02766" lon="4.7067">
        <ele>189</ele>
        <time>2018-07-24T08:52:04Z</time>
      </trkpt>
      <trkpt lat="46.02771" lon="4.70669">
        <ele>189</ele>
        <time>2018-07-24T08:52:05Z</time>
      </trkpt>
      <trkpt lat="46.02777" lon="4.7067">
        <ele>189</ele>
        <time>2018-07-24T08:52:06Z</time>
      </trkpt>
      <trkpt lat="46.02782" lon="4.70671">
        <ele>189</ele>
        <time>2018-07-24T08:52:07Z</time>
      </trkpt>
      <trkpt lat="46.02788" lon="4.70672">
        <ele>189</ele>
        <time>2018-07-24T08:52:08Z</time>
      </trkpt>
      <trkpt lat="46.02792" lon="4.70673">
        <ele>189</ele>
        <time>2018-07-24T08:52:09Z</time>
      </trkpt>
      <trkpt lat="46.02798" lon="4.70672">
        <ele>189</ele>
        <time>2018-07-24T08:52:10Z</time>
      </trkpt>
      <trkpt lat="46.02804" lon="4.70671">
        <ele>189</ele>
        <time>2018-07-24T08:52:11Z</time>
      </trkpt>
      <trkpt lat="46.02809" lon="4.70671">
        <ele>189</ele>
        <time>2018-07-24T08:52:12Z</time>
      </trkpt>
      <trkpt lat="46.02815" lon="4.70671">
        <ele>189</ele>
        <time>2018-07-24T08:52:13Z</time>
      </trkpt>
      <trkpt lat="46.02822" lon="4.7067">
        <ele>189</ele>
        <time>2018-07-24T08:52:14Z</time>
      </trkpt>
      <trkpt lat="46.02828" lon="4.70669">
        <ele>189</ele>
        <time>2018-07-24T08:52:15Z</time>
      </trkpt>
      <trkpt lat="46.02833" lon="4.70667">
        <ele>189</ele>
        <time>2018-07-24T08:52:16Z</time>
      </trkpt>
      <trkpt lat="46.02839" lon="4.70666">
        <ele>189</ele>
        <time>2018-07-24T08:52:17Z</time>
      </trkpt>
      <trkpt lat="46.02845" lon="4.70665">
        <ele>189</ele>
        <time>2018-07-24T08:52:18Z</time>
      </trkpt>
      <trkpt lat="46.0285" lon="4.70664">
        <ele>190</ele>
        <time>2018-07-24T08:52:19Z</time>
      </trkpt>
      <trkpt lat="46.02854" lon="4.70662">
        <ele>190</ele>
        <time>2018-07-24T08:52:20Z</time>
      </trkpt>
      <trkpt lat="46.0286" lon="4.7066">
        <ele>190</ele>
        <time>2018-07-24T08:52:21Z</time>
      </trkpt>
      <trkpt lat="46.02866" lon="4.70659">
        <ele>190</ele>
        <time>2018-07-24T08:52:22Z</time>
      </trkpt>
      <trkpt lat="46.02872" lon="4.70659">
        <ele>190</ele>
        <time>2018-07-24T08:52:23Z</time>
      </trkpt>
      <trkpt lat="46.02877" lon="4.70659">
        <ele>190</ele>
        <time>2018-07-24T08:52:24Z</time>
      </trkpt>
      <trkpt lat="46.02882" lon="4.70658">
        <ele>190</ele>
        <time>2018-07-24T08:52:25Z</time>
      </trkpt>
      <trkpt lat="46.02888" lon="4.70658">
        <ele>190</ele>
        <time>2018-07-24T08:52:26Z</time>
      </trkpt>
      <trkpt lat="46.02893" lon="4.70659">
        <ele>190</ele>
        <time>2018-07-24T08:52:27Z</time>
      </trkpt>
      <trkpt lat="46.02899" lon="4.70659">
        <ele>191</ele>
        <time>2018-07-24T08:52:28Z</time>
      </trkpt>
      <trkpt lat="46.02904" lon="4.70659">
        <ele>191</ele>
        <time>2018-07-24T08:52:29Z</time>
      </trkpt>
      <trkpt lat="46.02909" lon="4.70659">
        <ele>191</ele>
        <time>2018-07-24T08:52:30Z</time>
      </trkpt>
      <trkpt lat="46.02914" lon="4.70659">
        <ele>191</ele>
        <time>2018-07-24T08:52:31Z</time>
      </trkpt>
      <trkpt lat="46.02919" lon="4.70658">
        <ele>191</ele>
        <time>2018-07-24T08:52:32Z</time>
      </trkpt>
      <trkpt lat="46.02924" lon="4.70657">
        <ele>191</ele>
        <time>2018-07-24T08:52:33Z</time>
      </trkpt>
      <trkpt lat="46.02928" lon="4.70653">
        <ele>192</ele>
        <time>2018-07-24T08:52:34Z</time>
      </trkpt>
      <trkpt lat="46.02932" lon="4.70648">
        <ele>192</ele>
        <time>2018-07-24T08:52:35Z</time>
      </trkpt>
      <trkpt lat="46.02933" lon="4.7064">
        <ele>192</ele>
        <time>2018-07-24T08:52:36Z</time>
      </trkpt>
      <trkpt lat="46.02934" lon="4.70634">
        <ele>192</ele>
        <time>2018-07-24T08:52:37Z</time>
      </trkpt>
      <trkpt lat="46.02937" lon="4.70622">
        <ele>192</ele>
        <time>2018-07-24T08:52:39Z</time>
      </trkpt>
      <trkpt lat="46.02938" lon="4.70616">
        <ele>192</ele>
        <time>2018-07-24T08:52:40Z</time>
      </trkpt>
      <trkpt lat="46.0294" lon="4.70608">
        <ele>192</ele>
        <time>2018-07-24T08:52:41Z</time>
      </trkpt>
      <trkpt lat="46.02942" lon="4.70601">
        <ele>192</ele>
        <time>2018-07-24T08:52:42Z</time>
      </trkpt>
      <trkpt lat="46.02943" lon="4.70594">
        <ele>192</ele>
        <time>2018-07-24T08:52:43Z</time>
      </trkpt>
      <trkpt lat="46.02945" lon="4.70588">
        <ele>192</ele>
        <time>2018-07-24T08:52:44Z</time>
      </trkpt>
      <trkpt lat="46.02948" lon="4.7058">
        <ele>191</ele>
        <time>2018-07-24T08:52:45Z</time>
      </trkpt>
      <trkpt lat="46.02952" lon="4.70575">
        <ele>191</ele>
        <time>2018-07-24T08:52:46Z</time>
      </trkpt>
      <trkpt lat="46.02955" lon="4.70568">
        <ele>191</ele>
        <time>2018-07-24T08:52:47Z</time>
      </trkpt>
      <trkpt lat="46.02958" lon="4.70561">
        <ele>191</ele>
        <time>2018-07-24T08:52:48Z</time>
      </trkpt>
      <trkpt lat="46.02959" lon="4.70555">
        <ele>191</ele>
        <time>2018-07-24T08:52:49Z</time>
      </trkpt>
      <trkpt lat="46.02965" lon="4.7055">
        <ele>191</ele>
        <time>2018-07-24T08:52:50Z</time>
      </trkpt>
      <trkpt lat="46.02969" lon="4.70545">
        <ele>191</ele>
        <time>2018-07-24T08:52:51Z</time>
      </trkpt>
      <trkpt lat="46.02975" lon="4.70541">
        <ele>191</ele>
        <time>2018-07-24T08:52:52Z</time>
      </trkpt>
      <trkpt lat="46.0298" lon="4.70536">
        <ele>191</ele>
        <time>2018-07-24T08:52:53Z</time>
      </trkpt>
      <trkpt lat="46.02984" lon="4.70532">
        <ele>191</ele>
        <time>2018-07-24T08:52:54Z</time>
      </trkpt>
      <trkpt lat="46.02988" lon="4.70528">
        <ele>191</ele>
        <time>2018-07-24T08:52:55Z</time>
      </trkpt>
      <trkpt lat="46.02991" lon="4.70523">
        <ele>191</ele>
        <time>2018-07-24T08:52:56Z</time>
      </trkpt>
      <trkpt lat="46.02996" lon="4.70519">
        <ele>191</ele>
        <time>2018-07-24T08:52:57Z</time>
      </trkpt>
      <trkpt lat="46.03" lon="4.70515">
        <ele>191</ele>
        <time>2018-07-24T08:52:58Z</time>
      </trkpt>
      <trkpt lat="46.03005" lon="4.70509">
        <ele>191</ele>
        <time>2018-07-24T08:52:59Z</time>
      </trkpt>
      <trkpt lat="46.0301" lon="4.70506">
        <ele>191</ele>
        <time>2018-07-24T08:53:00Z</time>
      </trkpt>
      <trkpt lat="46.03014" lon="4.70502">
        <ele>191</ele>
        <time>2018-07-24T08:53:01Z</time>
      </trkpt>
      <trkpt lat="46.03018" lon="4.70496">
        <ele>191</ele>
        <time>2018-07-24T08:53:02Z</time>
      </trkpt>
      <trkpt lat="46.03022" lon="4.70491">
        <ele>191</ele>
        <time>2018-07-24T08:53:03Z</time>
      </trkpt>
      <trkpt lat="46.03024" lon="4.70486">
        <ele>191</ele>
        <time>2018-07-24T08:53:04Z</time>
      </trkpt>
      <trkpt lat="46.03029" lon="4.70482">
        <ele>191</ele>
        <time>2018-07-24T08:53:05Z</time>
      </trkpt>
      <trkpt lat="46.03033" lon="4.70478">
        <ele>191</ele>
        <time>2018-07-24T08:53:06Z</time>
      </trkpt>
      <trkpt lat="46.03037" lon="4.70474">
        <ele>191</ele>
        <time>2018-07-24T08:53:07Z</time>
      </trkpt>
      <trkpt lat="46.03041" lon="4.70471">
        <ele>191</ele>
        <time>2018-07-24T08:53:08Z</time>
      </trkpt>
      <trkpt lat="46.03045" lon="4.70467">
        <ele>191</ele>
        <time>2018-07-24T08:53:09Z</time>
      </trkpt>
      <trkpt lat="46.03049" lon="4.7046">
        <ele>191</ele>
        <time>2018-07-24T08:53:10Z</time>
      </trkpt>
      <trkpt lat="46.03053" lon="4.70458">
        <ele>191</ele>
        <time>2018-07-24T08:53:11Z</time>
      </trkpt>
      <trkpt lat="46.03058" lon="4.70454">
        <ele>191</ele>
        <time>2018-07-24T08:53:12Z</time>
      </trkpt>
      <trkpt lat="46.03062" lon="4.70452">
        <ele>191</ele>
        <time>2018-07-24T08:53:13Z</time>
      </trkpt>
      <trkpt lat="46.03067" lon="4.70448">
        <ele>191</ele>
        <time>2018-07-24T08:53:14Z</time>
      </trkpt>
      <trkpt lat="46.03072" lon="4.70445">
        <ele>191</ele>
        <time>2018-07-24T08:53:15Z</time>
      </trkpt>
      <trkpt lat="46.03076" lon="4.70442">
        <ele>191</ele>
        <time>2018-07-24T08:53:16Z</time>
      </trkpt>
      <trkpt lat="46.03081" lon="4.70441">
        <ele>191</ele>
        <time>2018-07-24T08:53:17Z</time>
      </trkpt>
      <trkpt lat="46.03085" lon="4.70438">
        <ele>192</ele>
        <time>2018-07-24T08:53:18Z</time>
      </trkpt>
      <trkpt lat="46.0309" lon="4.70435">
        <ele>192</ele>
        <time>2018-07-24T08:53:19Z</time>
      </trkpt>
      <trkpt lat="46.03095" lon="4.70431">
        <ele>192</ele>
        <time>2018-07-24T08:53:20Z</time>
      </trkpt>
      <trkpt lat="46.031" lon="4.70429">
        <ele>192</ele>
        <time>2018-07-24T08:53:21Z</time>
      </trkpt>
      <trkpt lat="46.03105" lon="4.70428">
        <ele>192</ele>
        <time>2018-07-24T08:53:22Z</time>
      </trkpt>
      <trkpt lat="46.0311" lon="4.70426">
        <ele>192</ele>
        <time>2018-07-24T08:53:23Z</time>
      </trkpt>
      <trkpt lat="46.03114" lon="4.70424">
        <ele>192</ele>
        <time>2018-07-24T08:53:24Z</time>
      </trkpt>
      <trkpt lat="46.03119" lon="4.70422">
        <ele>192</ele>
        <time>2018-07-24T08:53:25Z</time>
      </trkpt>
      <trkpt lat="46.03124" lon="4.7042">
        <ele>192</ele>
        <time>2018-07-24T08:53:26Z</time>
      </trkpt>
      <trkpt lat="46.03129" lon="4.70418">
        <ele>192</ele>
        <time>2018-07-24T08:53:27Z</time>
      </trkpt>
      <trkpt lat="46.03135" lon="4.70416">
        <ele>192</ele>
        <time>2018-07-24T08:53:28Z</time>
      </trkpt>
      <trkpt lat="46.0314" lon="4.70414">
        <ele>192</ele>
        <time>2018-07-24T08:53:29Z</time>
      </trkpt>
      <trkpt lat="46.03144" lon="4.70412">
        <ele>192</ele>
        <time>2018-07-24T08:53:30Z</time>
      </trkpt>
      <trkpt lat="46.0315" lon="4.70409">
        <ele>192</ele>
        <time>2018-07-24T08:53:31Z</time>
      </trkpt>
      <trkpt lat="46.03155" lon="4.70407">
        <ele>192</ele>
        <time>2018-07-24T08:53:32Z</time>
      </trkpt>
      <trkpt lat="46.0316" lon="4.70404">
        <ele>192</ele>
        <time>2018-07-24T08:53:33Z</time>
      </trkpt>
      <trkpt lat="46.03165" lon="4.70403">
        <ele>192</ele>
        <time>2018-07-24T08:53:34Z</time>
      </trkpt>
      <trkpt lat="46.0317" lon="4.704">
        <ele>192</ele>
        <time>2018-07-24T08:53:35Z</time>
      </trkpt>
      <trkpt lat="46.03174" lon="4.70399">
        <ele>192</ele>
        <time>2018-07-24T08:53:36Z</time>
      </trkpt>
      <trkpt lat="46.03181" lon="4.70393">
        <ele>192</ele>
        <time>2018-07-24T08:53:38Z</time>
      </trkpt>
      <trkpt lat="46.03185" lon="4.70391">
        <ele>192</ele>
        <time>2018-07-24T08:53:39Z</time>
      </trkpt>
      <trkpt lat="46.0319" lon="4.70388">
        <ele>192</ele>
        <time>2018-07-24T08:53:40Z</time>
      </trkpt>
      <trkpt lat="46.03196" lon="4.70386">
        <ele>192</ele>
        <time>2018-07-24T08:53:41Z</time>
      </trkpt>
      <trkpt lat="46.03201" lon="4.70384">
        <ele>192</ele>
        <time>2018-07-24T08:53:42Z</time>
      </trkpt>
      <trkpt lat="46.03206" lon="4.70381">
        <ele>192</ele>
        <time>2018-07-24T08:53:43Z</time>
      </trkpt>
      <trkpt lat="46.03211" lon="4.70379">
        <ele>192</ele>
        <time>2018-07-24T08:53:44Z</time>
      </trkpt>
      <trkpt lat="46.03217" lon="4.70376">
        <ele>192</ele>
        <time>2018-07-24T08:53:45Z</time>
      </trkpt>
      <trkpt lat="46.03222" lon="4.70373">
        <ele>192</ele>
        <time>2018-07-24T08:53:46Z</time>
      </trkpt>
      <trkpt lat="46.03226" lon="4.70369">
        <ele>192</ele>
        <time>2018-07-24T08:53:47Z</time>
      </trkpt>
      <trkpt lat="46.03231" lon="4.70366">
        <ele>192</ele>
        <time>2018-07-24T08:53:48Z</time>
      </trkpt>
      <trkpt lat="46.03237" lon="4.70364">
        <ele>192</ele>
        <time>2018-07-24T08:53:49Z</time>
      </trkpt>
      <trkpt lat="46.03242" lon="4.70359">
        <ele>192</ele>
        <time>2018-07-24T08:53:50Z</time>
      </trkpt>
      <trkpt lat="46.03247" lon="4.70354">
        <ele>192</ele>
        <time>2018-07-24T08:53:51Z</time>
      </trkpt>
      <trkpt lat="46.03252" lon="4.70352">
        <ele>191</ele>
        <time>2018-07-24T08:53:52Z</time>
      </trkpt>
      <trkpt lat="46.03257" lon="4.7035">
        <ele>191</ele>
        <time>2018-07-24T08:53:53Z</time>
      </trkpt>
      <trkpt lat="46.03262" lon="4.70349">
        <ele>191</ele>
        <time>2018-07-24T08:53:54Z</time>
      </trkpt>
      <trkpt lat="46.03267" lon="4.70347">
        <ele>191</ele>
        <time>2018-07-24T08:53:55Z</time>
      </trkpt>
      <trkpt lat="46.03272" lon="4.70346">
        <ele>191</ele>
        <time>2018-07-24T08:53:56Z</time>
      </trkpt>
      <trkpt lat="46.03278" lon="4.70343">
        <ele>191</ele>
        <time>2018-07-24T08:53:57Z</time>
      </trkpt>
      <trkpt lat="46.03284" lon="4.70343">
        <ele>191</ele>
        <time>2018-07-24T08:53:58Z</time>
      </trkpt>
      <trkpt lat="46.03289" lon="4.70339">
        <ele>191</ele>
        <time>2018-07-24T08:53:59Z</time>
      </trkpt>
      <trkpt lat="46.03295" lon="4.70337">
        <ele>191</ele>
        <time>2018-07-24T08:54:00Z</time>
      </trkpt>
      <trkpt lat="46.03301" lon="4.70334">
        <ele>191</ele>
        <time>2018-07-24T08:54:01Z</time>
      </trkpt>
      <trkpt lat="46.03308" lon="4.70332">
        <ele>192</ele>
        <time>2018-07-24T08:54:02Z</time>
      </trkpt>
      <trkpt lat="46.03315" lon="4.7033">
        <ele>192</ele>
        <time>2018-07-24T08:54:03Z</time>
      </trkpt>
      <trkpt lat="46.03321" lon="4.70328">
        <ele>192</ele>
        <time>2018-07-24T08:54:04Z</time>
      </trkpt>
      <trkpt lat="46.03328" lon="4.70325">
        <ele>192</ele>
        <time>2018-07-24T08:54:05Z</time>
      </trkpt>
      <trkpt lat="46.03334" lon="4.70322">
        <ele>191</ele>
        <time>2018-07-24T08:54:06Z</time>
      </trkpt>
      <trkpt lat="46.03341" lon="4.7032">
        <ele>191</ele>
        <time>2018-07-24T08:54:07Z</time>
      </trkpt>
      <trkpt lat="46.03347" lon="4.70317">
        <ele>191</ele>
        <time>2018-07-24T08:54:08Z</time>
      </trkpt>
      <trkpt lat="46.03355" lon="4.70314">
        <ele>191</ele>
        <time>2018-07-24T08:54:09Z</time>
      </trkpt>
      <trkpt lat="46.03361" lon="4.70312">
        <ele>191</ele>
        <time>2018-07-24T08:54:10Z</time>
      </trkpt>
      <trkpt lat="46.03369" lon="4.7031">
        <ele>191</ele>
        <time>2018-07-24T08:54:11Z</time>
      </trkpt>
      <trkpt lat="46.03376" lon="4.70307">
        <ele>191</ele>
        <time>2018-07-24T08:54:12Z</time>
      </trkpt>
      <trkpt lat="46.03382" lon="4.70305">
        <ele>191</ele>
        <time>2018-07-24T08:54:13Z</time>
      </trkpt>
      <trkpt lat="46.03389" lon="4.70303">
        <ele>191</ele>
        <time>2018-07-24T08:54:14Z</time>
      </trkpt>
      <trkpt lat="46.03393" lon="4.70293">
        <ele>191</ele>
        <time>2018-07-24T08:54:15Z</time>
      </trkpt>
      <trkpt lat="46.03401" lon="4.70291">
        <ele>191</ele>
        <time>2018-07-24T08:54:16Z</time>
      </trkpt>
      <trkpt lat="46.03407" lon="4.7029">
        <ele>191</ele>
        <time>2018-07-24T08:54:17Z</time>
      </trkpt>
      <trkpt lat="46.03414" lon="4.70287">
        <ele>191</ele>
        <time>2018-07-24T08:54:18Z</time>
      </trkpt>
      <trkpt lat="46.0342" lon="4.70285">
        <ele>189</ele>
        <time>2018-07-24T08:54:19Z</time>
      </trkpt>
      <trkpt lat="46.03427" lon="4.70283">
        <ele>189</ele>
        <time>2018-07-24T08:54:20Z</time>
      </trkpt>
      <trkpt lat="46.03434" lon="4.70281">
        <ele>189</ele>
        <time>2018-07-24T08:54:21Z</time>
      </trkpt>
      <trkpt lat="46.03442" lon="4.7028">
        <ele>189</ele>
        <time>2018-07-24T08:54:22Z</time>
      </trkpt>
      <trkpt lat="46.03449" lon="4.70279">
        <ele>188</ele>
        <time>2018-07-24T08:54:23Z</time>
      </trkpt>
      <trkpt lat="46.03456" lon="4.70276">
        <ele>188</ele>
        <time>2018-07-24T08:54:24Z</time>
      </trkpt>
      <trkpt lat="46.03462" lon="4.70274">
        <ele>188</ele>
        <time>2018-07-24T08:54:25Z</time>
      </trkpt>
      <trkpt lat="46.03469" lon="4.70272">
        <ele>188</ele>
        <time>2018-07-24T08:54:26Z</time>
      </trkpt>
      <trkpt lat="46.03476" lon="4.7027">
        <ele>188</ele>
        <time>2018-07-24T08:54:27Z</time>
      </trkpt>
      <trkpt lat="46.03483" lon="4.70268">
        <ele>188</ele>
        <time>2018-07-24T08:54:28Z</time>
      </trkpt>
      <trkpt lat="46.03489" lon="4.70267">
        <ele>188</ele>
        <time>2018-07-24T08:54:29Z</time>
      </trkpt>
      <trkpt lat="46.03494" lon="4.70264">
        <ele>187</ele>
        <time>2018-07-24T08:54:30Z</time>
      </trkpt>
      <trkpt lat="46.03503" lon="4.70265">
        <ele>187</ele>
        <time>2018-07-24T08:54:31Z</time>
      </trkpt>
      <trkpt lat="46.03507" lon="4.70261">
        <ele>187</ele>
        <time>2018-07-24T08:54:32Z</time>
      </trkpt>
      <trkpt lat="46.03512" lon="4.70259">
        <ele>187</ele>
        <time>2018-07-24T08:54:33Z</time>
      </trkpt>
      <trkpt lat="46.03517" lon="4.70258">
        <ele>187</ele>
        <time>2018-07-24T08:54:34Z</time>
      </trkpt>
      <trkpt lat="46.03522" lon="4.70256">
        <ele>187</ele>
        <time>2018-07-24T08:54:35Z</time>
      </trkpt>
      <trkpt lat="46.03527" lon="4.70254">
        <ele>187</ele>
        <time>2018-07-24T08:54:36Z</time>
      </trkpt>
      <trkpt lat="46.03531" lon="4.70251">
        <ele>187</ele>
        <time>2018-07-24T08:54:37Z</time>
      </trkpt>
      <trkpt lat="46.03537" lon="4.70249">
        <ele>189</ele>
        <time>2018-07-24T08:54:38Z</time>
      </trkpt>
      <trkpt lat="46.03542" lon="4.70246">
        <ele>189</ele>
        <time>2018-07-24T08:54:39Z</time>
      </trkpt>
      <trkpt lat="46.03548" lon="4.70245">
        <ele>189</ele>
        <time>2018-07-24T08:54:40Z</time>
      </trkpt>
      <trkpt lat="46.03553" lon="4.70244">
        <ele>190</ele>
        <time>2018-07-24T08:54:41Z</time>
      </trkpt>
      <trkpt lat="46.03558" lon="4.70243">
        <ele>190</ele>
        <time>2018-07-24T08:54:42Z</time>
      </trkpt>
      <trkpt lat="46.03563" lon="4.7024">
        <ele>190</ele>
        <time>2018-07-24T08:54:43Z</time>
      </trkpt>
      <trkpt lat="46.03569" lon="4.70238">
        <ele>190</ele>
        <time>2018-07-24T08:54:44Z</time>
      </trkpt>
      <trkpt lat="46.03575" lon="4.70237">
        <ele>190</ele>
        <time>2018-07-24T08:54:45Z</time>
      </trkpt>
      <trkpt lat="46.03581" lon="4.70237">
        <ele>190</ele>
        <time>2018-07-24T08:54:46Z</time>
      </trkpt>
      <trkpt lat="46.03586" lon="4.70234">
        <ele>190</ele>
        <time>2018-07-24T08:54:47Z</time>
      </trkpt>
      <trkpt lat="46.03591" lon="4.70232">
        <ele>190</ele>
        <time>2018-07-24T08:54:48Z</time>
      </trkpt>
      <trkpt lat="46.03596" lon="4.70232">
        <ele>190</ele>
        <time>2018-07-24T08:54:49Z</time>
      </trkpt>
      <trkpt lat="46.03602" lon="4.7023">
        <ele>190</ele>
        <time>2018-07-24T08:54:50Z</time>
      </trkpt>
      <trkpt lat="46.03607" lon="4.70229">
        <ele>190</ele>
        <time>2018-07-24T08:54:51Z</time>
      </trkpt>
      <trkpt lat="46.03612" lon="4.70228">
        <ele>190</ele>
        <time>2018-07-24T08:54:52Z</time>
      </trkpt>
      <trkpt lat="46.03617" lon="4.70226">
        <ele>190</ele>
        <time>2018-07-24T08:54:53Z</time>
      </trkpt>
      <trkpt lat="46.03622" lon="4.70223">
        <ele>190</ele>
        <time>2018-07-24T08:54:54Z</time>
      </trkpt>
      <trkpt lat="46.03628" lon="4.70223">
        <ele>190</ele>
        <time>2018-07-24T08:54:55Z</time>
      </trkpt>
      <trkpt lat="46.03633" lon="4.70221">
        <ele>190</ele>
        <time>2018-07-24T08:54:56Z</time>
      </trkpt>
      <trkpt lat="46.0364" lon="4.70219">
        <ele>190</ele>
        <time>2018-07-24T08:54:57Z</time>
      </trkpt>
      <trkpt lat="46.03645" lon="4.70216">
        <ele>190</ele>
        <time>2018-07-24T08:54:58Z</time>
      </trkpt>
      <trkpt lat="46.03651" lon="4.70215">
        <ele>190</ele>
        <time>2018-07-24T08:54:59Z</time>
      </trkpt>
      <trkpt lat="46.03656" lon="4.70214">
        <ele>190</ele>
        <time>2018-07-24T08:55:00Z</time>
      </trkpt>
      <trkpt lat="46.03663" lon="4.70212">
        <ele>190</ele>
        <time>2018-07-24T08:55:01Z</time>
      </trkpt>
      <trkpt lat="46.03668" lon="4.70211">
        <ele>188</ele>
        <time>2018-07-24T08:55:02Z</time>
      </trkpt>
      <trkpt lat="46.03675" lon="4.70209">
        <ele>188</ele>
        <time>2018-07-24T08:55:03Z</time>
      </trkpt>
      <trkpt lat="46.03681" lon="4.70203">
        <ele>189</ele>
        <time>2018-07-24T08:55:04Z</time>
      </trkpt>
      <trkpt lat="46.03687" lon="4.702">
        <ele>189</ele>
        <time>2018-07-24T08:55:05Z</time>
      </trkpt>
      <trkpt lat="46.03693" lon="4.70198">
        <ele>189</ele>
        <time>2018-07-24T08:55:06Z</time>
      </trkpt>
      <trkpt lat="46.03699" lon="4.70196">
        <ele>189</ele>
        <time>2018-07-24T08:55:07Z</time>
      </trkpt>
      <trkpt lat="46.03706" lon="4.70196">
        <ele>188</ele>
        <time>2018-07-24T08:55:08Z</time>
      </trkpt>
      <trkpt lat="46.03712" lon="4.70193">
        <ele>188</ele>
        <time>2018-07-24T08:55:09Z</time>
      </trkpt>
      <trkpt lat="46.03718" lon="4.70191">
        <ele>188</ele>
        <time>2018-07-24T08:55:10Z</time>
      </trkpt>
      <trkpt lat="46.03724" lon="4.70189">
        <ele>188</ele>
        <time>2018-07-24T08:55:11Z</time>
      </trkpt>
      <trkpt lat="46.03731" lon="4.70186">
        <ele>188</ele>
        <time>2018-07-24T08:55:12Z</time>
      </trkpt>
      <trkpt lat="46.03735" lon="4.70182">
        <ele>188</ele>
        <time>2018-07-24T08:55:13Z</time>
      </trkpt>
      <trkpt lat="46.03741" lon="4.7018">
        <ele>188</ele>
        <time>2018-07-24T08:55:14Z</time>
      </trkpt>
      <trkpt lat="46.03747" lon="4.70173">
        <ele>187</ele>
        <time>2018-07-24T08:55:15Z</time>
      </trkpt>
      <trkpt lat="46.03754" lon="4.7017">
        <ele>187</ele>
        <time>2018-07-24T08:55:16Z</time>
      </trkpt>
      <trkpt lat="46.0376" lon="4.70167">
        <ele>188</ele>
        <time>2018-07-24T08:55:17Z</time>
      </trkpt>
      <trkpt lat="46.03765" lon="4.70167">
        <ele>188</ele>
        <time>2018-07-24T08:55:18Z</time>
      </trkpt>
      <trkpt lat="46.0377" lon="4.70165">
        <ele>188</ele>
        <time>2018-07-24T08:55:19Z</time>
      </trkpt>
      <trkpt lat="46.03777" lon="4.70164">
        <ele>189</ele>
        <time>2018-07-24T08:55:20Z</time>
      </trkpt>
      <trkpt lat="46.03783" lon="4.70164">
        <ele>189</ele>
        <time>2018-07-24T08:55:21Z</time>
      </trkpt>
      <trkpt lat="46.03787" lon="4.70161">
        <ele>189</ele>
        <time>2018-07-24T08:55:22Z</time>
      </trkpt>
      <trkpt lat="46.03793" lon="4.70161">
        <ele>189</ele>
        <time>2018-07-24T08:55:23Z</time>
      </trkpt>
      <trkpt lat="46.03801" lon="4.70159">
        <ele>190</ele>
        <time>2018-07-24T08:55:25Z</time>
      </trkpt>
      <trkpt lat="46.03806" lon="4.70161">
        <ele>190</ele>
        <time>2018-07-24T08:55:26Z</time>
      </trkpt>
      <trkpt lat="46.03814" lon="4.70156">
        <ele>190</ele>
        <time>2018-07-24T08:55:28Z</time>
      </trkpt>
      <trkpt lat="46.03822" lon="4.70154">
        <ele>190</ele>
        <time>2018-07-24T08:55:29Z</time>
      </trkpt>
      <trkpt lat="46.03827" lon="4.70153">
        <ele>191</ele>
        <time>2018-07-24T08:55:30Z</time>
      </trkpt>
      <trkpt lat="46.03832" lon="4.70146">
        <ele>190</ele>
        <time>2018-07-24T08:55:31Z</time>
      </trkpt>
      <trkpt lat="46.03835" lon="4.70144">
        <ele>192</ele>
        <time>2018-07-24T08:55:32Z</time>
      </trkpt>
      <trkpt lat="46.03841" lon="4.7014">
        <ele>192</ele>
        <time>2018-07-24T08:55:33Z</time>
      </trkpt>
      <trkpt lat="46.03847" lon="4.70136">
        <ele>192</ele>
        <time>2018-07-24T08:55:34Z</time>
      </trkpt>
      <trkpt lat="46.03851" lon="4.70137">
        <ele>193</ele>
        <time>2018-07-24T08:55:35Z</time>
      </trkpt>
      <trkpt lat="46.03857" lon="4.70136">
        <ele>193</ele>
        <time>2018-07-24T08:55:37Z</time>
      </trkpt>
      <trkpt lat="46.03864" lon="4.70135">
        <ele>193</ele>
        <time>2018-07-24T08:55:38Z</time>
      </trkpt>
      <trkpt lat="46.03869" lon="4.70134">
        <ele>193</ele>
        <time>2018-07-24T08:55:39Z</time>
      </trkpt>
      <trkpt lat="46.03874" lon="4.70132">
        <ele>193</ele>
        <time>2018-07-24T08:55:40Z</time>
      </trkpt>
      <trkpt lat="46.03875" lon="4.70131">
        <ele>193</ele>
        <time>2018-07-24T08:55:41Z</time>
      </trkpt>
      <trkpt lat="46.03885" lon="4.70128">
        <ele>193</ele>
        <time>2018-07-24T08:55:42Z</time>
      </trkpt>
      <trkpt lat="46.03891" lon="4.70125">
        <ele>193</ele>
        <time>2018-07-24T08:55:44Z</time>
      </trkpt>
      <trkpt lat="46.03894" lon="4.70123">
        <ele>194</ele>
        <time>2018-07-24T08:55:45Z</time>
      </trkpt>
      <trkpt lat="46.03901" lon="4.70125">
        <ele>194</ele>
        <time>2018-07-24T08:55:46Z</time>
      </trkpt>
      <trkpt lat="46.03908" lon="4.70122">
        <ele>194</ele>
        <time>2018-07-24T08:55:47Z</time>
      </trkpt>
      <trkpt lat="46.03912" lon="4.7012">
        <ele>194</ele>
        <time>2018-07-24T08:55:48Z</time>
      </trkpt>
      <trkpt lat="46.03918" lon="4.70118">
        <ele>196</ele>
        <time>2018-07-24T08:55:49Z</time>
      </trkpt>
      <trkpt lat="46.03922" lon="4.70116">
        <ele>196</ele>
        <time>2018-07-24T08:55:50Z</time>
      </trkpt>
      <trkpt lat="46.03928" lon="4.70115">
        <ele>196</ele>
        <time>2018-07-24T08:55:51Z</time>
      </trkpt>
      <trkpt lat="46.03934" lon="4.7011">
        <ele>196</ele>
        <time>2018-07-24T08:55:53Z</time>
      </trkpt>
      <trkpt lat="46.03939" lon="4.70108">
        <ele>196</ele>
        <time>2018-07-24T08:55:54Z</time>
      </trkpt>
      <trkpt lat="46.03945" lon="4.70104">
        <ele>196</ele>
        <time>2018-07-24T08:55:57Z</time>
      </trkpt>
      <trkpt lat="46.03948" lon="4.70103">
        <ele>196</ele>
        <time>2018-07-24T08:55:58Z</time>
      </trkpt>
      <trkpt lat="46.03956" lon="4.70103">
        <ele>196</ele>
        <time>2018-07-24T08:55:59Z</time>
      </trkpt>
      <trkpt lat="46.03958" lon="4.70102">
        <ele>196</ele>
        <time>2018-07-24T08:56:00Z</time>
      </trkpt>
      <trkpt lat="46.0396" lon="4.70102">
        <ele>196</ele>
        <time>2018-07-24T08:56:01Z</time>
      </trkpt>
      <trkpt lat="46.03967" lon="4.701">
        <ele>196</ele>
        <time>2018-07-24T08:56:02Z</time>
      </trkpt>
      <trkpt lat="46.03975" lon="4.70099">
        <ele>196</ele>
        <time>2018-07-24T08:56:04Z</time>
      </trkpt>
      <trkpt lat="46.03977" lon="4.70099">
        <ele>196</ele>
        <time>2018-07-24T08:56:05Z</time>
      </trkpt>
      <trkpt lat="46.03988" lon="4.70099">
        <ele>196</ele>
        <time>2018-07-24T08:56:06Z</time>
      </trkpt>
      <trkpt lat="46.03991" lon="4.70097">
        <ele>196</ele>
        <time>2018-07-24T08:56:07Z</time>
      </trkpt>
      <trkpt lat="46.03997" lon="4.70097">
        <ele>196</ele>
        <time>2018-07-24T08:56:08Z</time>
      </trkpt>
      <trkpt lat="46.04003" lon="4.70098">
        <ele>196</ele>
        <time>2018-07-24T08:56:10Z</time>
      </trkpt>
      <trkpt lat="46.04008" lon="4.70095">
        <ele>196</ele>
        <time>2018-07-24T08:56:11Z</time>
      </trkpt>
      <trkpt lat="46.04013" lon="4.70094">
        <ele>196</ele>
        <time>2018-07-24T08:56:12Z</time>
      </trkpt>
      <trkpt lat="46.04017" lon="4.70095">
        <ele>195</ele>
        <time>2018-07-24T08:56:13Z</time>
      </trkpt>
      <trkpt lat="46.04023" lon="4.70096">
        <ele>195</ele>
        <time>2018-07-24T08:56:14Z</time>
      </trkpt>
      <trkpt lat="46.04027" lon="4.70095">
        <ele>195</ele>
        <time>2018-07-24T08:56:15Z</time>
      </trkpt>
      <trkpt lat="46.04033" lon="4.70092">
        <ele>195</ele>
        <time>2018-07-24T08:56:16Z</time>
      </trkpt>
      <trkpt lat="46.04039" lon="4.70095">
        <ele>195</ele>
        <time>2018-07-24T08:56:17Z</time>
      </trkpt>
      <trkpt lat="46.04042" lon="4.70092">
        <ele>195</ele>
        <time>2018-07-24T08:56:18Z</time>
      </trkpt>
      <trkpt lat="46.04048" lon="4.70093">
        <ele>195</ele>
        <time>2018-07-24T08:56:19Z</time>
      </trkpt>
      <trkpt lat="46.04054" lon="4.70092">
        <ele>195</ele>
        <time>2018-07-24T08:56:20Z</time>
      </trkpt>
      <trkpt lat="46.04059" lon="4.70092">
        <ele>195</ele>
        <time>2018-07-24T08:56:21Z</time>
      </trkpt>
      <trkpt lat="46.04063" lon="4.70091">
        <ele>195</ele>
        <time>2018-07-24T08:56:22Z</time>
      </trkpt>
      <trkpt lat="46.04068" lon="4.70089">
        <ele>194</ele>
        <time>2018-07-24T08:56:23Z</time>
      </trkpt>
      <trkpt lat="46.04079" lon="4.7009">
        <ele>194</ele>
        <time>2018-07-24T08:56:24Z</time>
      </trkpt>
      <trkpt lat="46.04083" lon="4.7009">
        <ele>194</ele>
        <time>2018-07-24T08:56:25Z</time>
      </trkpt>
      <trkpt lat="46.0409" lon="4.7009">
        <ele>193</ele>
        <time>2018-07-24T08:56:26Z</time>
      </trkpt>
      <trkpt lat="46.04097" lon="4.70084">
        <ele>193</ele>
        <time>2018-07-24T08:56:28Z</time>
      </trkpt>
      <trkpt lat="46.04102" lon="4.70081">
        <ele>193</ele>
        <time>2018-07-24T08:56:29Z</time>
      </trkpt>
      <trkpt lat="46.04108" lon="4.70078">
        <ele>193</ele>
        <time>2018-07-24T08:56:30Z</time>
      </trkpt>
      <trkpt lat="46.04111" lon="4.70074">
        <ele>192</ele>
        <time>2018-07-24T08:56:31Z</time>
      </trkpt>
      <trkpt lat="46.04115" lon="4.70068">
        <ele>192</ele>
        <time>2018-07-24T08:56:32Z</time>
      </trkpt>
      <trkpt lat="46.0412" lon="4.70066">
        <ele>192</ele>
        <time>2018-07-24T08:56:33Z</time>
      </trkpt>
      <trkpt lat="46.04125" lon="4.70064">
        <ele>192</ele>
        <time>2018-07-24T08:56:34Z</time>
      </trkpt>
      <trkpt lat="46.04129" lon="4.70062">
        <ele>192</ele>
        <time>2018-07-24T08:56:35Z</time>
      </trkpt>
      <trkpt lat="46.04137" lon="4.70062">
        <ele>192</ele>
        <time>2018-07-24T08:56:37Z</time>
      </trkpt>
      <trkpt lat="46.04145" lon="4.70062">
        <ele>191</ele>
        <time>2018-07-24T08:56:38Z</time>
      </trkpt>
      <trkpt lat="46.04148" lon="4.70058">
        <ele>191</ele>
        <time>2018-07-24T08:56:39Z</time>
      </trkpt>
      <trkpt lat="46.04151" lon="4.70052">
        <ele>191</ele>
        <time>2018-07-24T08:56:40Z</time>
      </trkpt>
      <trkpt lat="46.04157" lon="4.70044">
        <ele>191</ele>
        <time>2018-07-24T08:56:42Z</time>
      </trkpt>
      <trkpt lat="46.04163" lon="4.70042">
        <ele>191</ele>
        <time>2018-07-24T08:56:43Z</time>
      </trkpt>
      <trkpt lat="46.04168" lon="4.70041">
        <ele>189</ele>
        <time>2018-07-24T08:56:44Z</time>
      </trkpt>
      <trkpt lat="46.04172" lon="4.70039">
        <ele>189</ele>
        <time>2018-07-24T08:56:45Z</time>
      </trkpt>
      <trkpt lat="46.04178" lon="4.70037">
        <ele>189</ele>
        <time>2018-07-24T08:56:46Z</time>
      </trkpt>
      <trkpt lat="46.04184" lon="4.70036">
        <ele>189</ele>
        <time>2018-07-24T08:56:47Z</time>
      </trkpt>
      <trkpt lat="46.04191" lon="4.70032">
        <ele>188</ele>
        <time>2018-07-24T08:56:49Z</time>
      </trkpt>
      <trkpt lat="46.04199" lon="4.70026">
        <ele>188</ele>
        <time>2018-07-24T08:56:50Z</time>
      </trkpt>
      <trkpt lat="46.04201" lon="4.70019">
        <ele>188</ele>
        <time>2018-07-24T08:56:51Z</time>
      </trkpt>
      <trkpt lat="46.04205" lon="4.70011">
        <ele>188</ele>
        <time>2018-07-24T08:56:52Z</time>
      </trkpt>
      <trkpt lat="46.04209" lon="4.70006">
        <ele>188</ele>
        <time>2018-07-24T08:56:53Z</time>
      </trkpt>
      <trkpt lat="46.04214" lon="4.70004">
        <ele>188</ele>
        <time>2018-07-24T08:56:54Z</time>
      </trkpt>
      <trkpt lat="46.04217" lon="4.69998">
        <ele>188</ele>
        <time>2018-07-24T08:56:55Z</time>
      </trkpt>
      <trkpt lat="46.04221" lon="4.69992">
        <ele>188</ele>
        <time>2018-07-24T08:56:56Z</time>
      </trkpt>
      <trkpt lat="46.04226" lon="4.69987">
        <ele>188</ele>
        <time>2018-07-24T08:56:57Z</time>
      </trkpt>
      <trkpt lat="46.0423" lon="4.69984">
        <ele>188</ele>
        <time>2018-07-24T08:56:58Z</time>
      </trkpt>
      <trkpt lat="46.04235" lon="4.6998">
        <ele>188</ele>
        <time>2018-07-24T08:56:59Z</time>
      </trkpt>
      <trkpt lat="46.04238" lon="4.69977">
        <ele>188</ele>
        <time>2018-07-24T08:57:00Z</time>
      </trkpt>
      <trkpt lat="46.04242" lon="4.69972">
        <ele>188</ele>
        <time>2018-07-24T08:57:01Z</time>
      </trkpt>
      <trkpt lat="46.04245" lon="4.69967">
        <ele>188</ele>
        <time>2018-07-24T08:57:02Z</time>
      </trkpt>
      <trkpt lat="46.04249" lon="4.69962">
        <ele>188</ele>
        <time>2018-07-24T08:57:03Z</time>
      </trkpt>
      <trkpt lat="46.04254" lon="4.69959">
        <ele>188</ele>
        <time>2018-07-24T08:57:04Z</time>
      </trkpt>
      <trkpt lat="46.04258" lon="4.69955">
        <ele>188</ele>
        <time>2018-07-24T08:57:05Z</time>
      </trkpt>
      <trkpt lat="46.04262" lon="4.69951">
        <ele>188</ele>
        <time>2018-07-24T08:57:06Z</time>
      </trkpt>
      <trkpt lat="46.04267" lon="4.69947">
        <ele>188</ele>
        <time>2018-07-24T08:57:07Z</time>
      </trkpt>
      <trkpt lat="46.04271" lon="4.69943">
        <ele>189</ele>
        <time>2018-07-24T08:57:08Z</time>
      </trkpt>
      <trkpt lat="46.04275" lon="4.69936">
        <ele>189</ele>
        <time>2018-07-24T08:57:09Z</time>
      </trkpt>
      <trkpt lat="46.04279" lon="4.69933">
        <ele>189</ele>
        <time>2018-07-24T08:57:10Z</time>
      </trkpt>
      <trkpt lat="46.04283" lon="4.69928">
        <ele>189</ele>
        <time>2018-07-24T08:57:11Z</time>
      </trkpt>
      <trkpt lat="46.04286" lon="4.69923">
        <ele>189</ele>
        <time>2018-07-24T08:57:12Z</time>
      </trkpt>
      <trkpt lat="46.04295" lon="4.6992">
        <ele>189</ele>
        <time>2018-07-24T08:57:14Z</time>
      </trkpt>
      <trkpt lat="46.04299" lon="4.69916">
        <ele>190</ele>
        <time>2018-07-24T08:57:15Z</time>
      </trkpt>
      <trkpt lat="46.04302" lon="4.69908">
        <ele>190</ele>
        <time>2018-07-24T08:57:16Z</time>
      </trkpt>
      <trkpt lat="46.04305" lon="4.69904">
        <ele>190</ele>
        <time>2018-07-24T08:57:17Z</time>
      </trkpt>
      <trkpt lat="46.0431" lon="4.69894">
        <ele>190</ele>
        <time>2018-07-24T08:57:19Z</time>
      </trkpt>
      <trkpt lat="46.04313" lon="4.69889">
        <ele>190</ele>
        <time>2018-07-24T08:57:20Z</time>
      </trkpt>
      <trkpt lat="46.04318" lon="4.69879">
        <ele>190</ele>
        <time>2018-07-24T08:57:22Z</time>
      </trkpt>
      <trkpt lat="46.04321" lon="4.69875">
        <ele>190</ele>
        <time>2018-07-24T08:57:23Z</time>
      </trkpt>
      <trkpt lat="46.04325" lon="4.69869">
        <ele>191</ele>
        <time>2018-07-24T08:57:24Z</time>
      </trkpt>
      <trkpt lat="46.04329" lon="4.69865">
        <ele>191</ele>
        <time>2018-07-24T08:57:25Z</time>
      </trkpt>
      <trkpt lat="46.04332" lon="4.69859">
        <ele>191</ele>
        <time>2018-07-24T08:57:26Z</time>
      </trkpt>
      <trkpt lat="46.04335" lon="4.69852">
        <ele>192</ele>
        <time>2018-07-24T08:57:27Z</time>
      </trkpt>
      <trkpt lat="46.04341" lon="4.69844">
        <ele>192</ele>
        <time>2018-07-24T08:57:29Z</time>
      </trkpt>
      <trkpt lat="46.04344" lon="4.6984">
        <ele>192</ele>
        <time>2018-07-24T08:57:30Z</time>
      </trkpt>
      <trkpt lat="46.04351" lon="4.69834">
        <ele>193</ele>
        <time>2018-07-24T08:57:32Z</time>
      </trkpt>
      <trkpt lat="46.04355" lon="4.69833">
        <ele>193</ele>
        <time>2018-07-24T08:57:33Z</time>
      </trkpt>
      <trkpt lat="46.0436" lon="4.69828">
        <ele>193</ele>
        <time>2018-07-24T08:57:35Z</time>
      </trkpt>
      <trkpt lat="46.04366" lon="4.69826">
        <ele>193</ele>
        <time>2018-07-24T08:57:36Z</time>
      </trkpt>
      <trkpt lat="46.04373" lon="4.69823">
        <ele>194</ele>
        <time>2018-07-24T08:57:38Z</time>
      </trkpt>
      <trkpt lat="46.04377" lon="4.69821">
        <ele>194</ele>
        <time>2018-07-24T08:57:39Z</time>
      </trkpt>
      <trkpt lat="46.04384" lon="4.69818">
        <ele>194</ele>
        <time>2018-07-24T08:57:41Z</time>
      </trkpt>
      <trkpt lat="46.04386" lon="4.69817">
        <ele>194</ele>
        <time>2018-07-24T08:57:42Z</time>
      </trkpt>
      <trkpt lat="46.04391" lon="4.69813">
        <ele>194</ele>
        <time>2018-07-24T08:57:43Z</time>
      </trkpt>
      <trkpt lat="46.04395" lon="4.69811">
        <ele>194</ele>
        <time>2018-07-24T08:57:44Z</time>
      </trkpt>
      <trkpt lat="46.04403" lon="4.69807">
        <ele>194</ele>
        <time>2018-07-24T08:57:48Z</time>
      </trkpt>
      <trkpt lat="46.04411" lon="4.69804">
        <ele>194</ele>
        <time>2018-07-24T08:57:49Z</time>
      </trkpt>
      <trkpt lat="46.04418" lon="4.69803">
        <ele>196</ele>
        <time>2018-07-24T08:57:52Z</time>
      </trkpt>
      <trkpt lat="46.0442" lon="4.69802">
        <ele>196</ele>
        <time>2018-07-24T08:57:53Z</time>
      </trkpt>
      <trkpt lat="46.04429" lon="4.698">
        <ele>196</ele>
        <time>2018-07-24T08:57:56Z</time>
      </trkpt>
      <trkpt lat="46.04432" lon="4.698">
        <ele>196</ele>
        <time>2018-07-24T08:57:57Z</time>
      </trkpt>
      <trkpt lat="46.04439" lon="4.69799">
        <ele>196</ele>
        <time>2018-07-24T08:57:59Z</time>
      </trkpt>
      <trkpt lat="46.04442" lon="4.69799">
        <ele>196</ele>
        <time>2018-07-24T08:58:00Z</time>
      </trkpt>
      <trkpt lat="46.04445" lon="4.69798">
        <ele>196</ele>
        <time>2018-07-24T08:58:01Z</time>
      </trkpt>
      <trkpt lat="46.04455" lon="4.69796">
        <ele>196</ele>
        <time>2018-07-24T08:58:02Z</time>
      </trkpt>
      <trkpt lat="46.04463" lon="4.69794">
        <ele>197</ele>
        <time>2018-07-24T08:58:04Z</time>
      </trkpt>
      <trkpt lat="46.04467" lon="4.69793">
        <ele>197</ele>
        <time>2018-07-24T08:58:05Z</time>
      </trkpt>
      <trkpt lat="46.04474" lon="4.69791">
        <ele>197</ele>
        <time>2018-07-24T08:58:07Z</time>
      </trkpt>
      <trkpt lat="46.04478" lon="4.69791">
        <ele>197</ele>
        <time>2018-07-24T08:58:08Z</time>
      </trkpt>
      <trkpt lat="46.04486" lon="4.6979">
        <ele>197</ele>
        <time>2018-07-24T08:58:10Z</time>
      </trkpt>
      <trkpt lat="46.04489" lon="4.69789">
        <ele>197</ele>
        <time>2018-07-24T08:58:11Z</time>
      </trkpt>
      <trkpt lat="46.04497" lon="4.69787">
        <ele>197</ele>
        <time>2018-07-24T08:58:13Z</time>
      </trkpt>
      <trkpt lat="46.04501" lon="4.69786">
        <ele>199</ele>
        <time>2018-07-24T08:58:14Z</time>
      </trkpt>
      <trkpt lat="46.04508" lon="4.69785">
        <ele>199</ele>
        <time>2018-07-24T08:58:17Z</time>
      </trkpt>
      <trkpt lat="46.04511" lon="4.69785">
        <ele>199</ele>
        <time>2018-07-24T08:58:18Z</time>
      </trkpt>
      <trkpt lat="46.04517" lon="4.69786">
        <ele>199</ele>
        <time>2018-07-24T08:58:20Z</time>
      </trkpt>
      <trkpt lat="46.0452" lon="4.69786">
        <ele>199</ele>
        <time>2018-07-24T08:58:21Z</time>
      </trkpt>
      <trkpt lat="46.04527" lon="4.69787">
        <ele>199</ele>
        <time>2018-07-24T08:58:23Z</time>
      </trkpt>
      <trkpt lat="46.0453" lon="4.69788">
        <ele>199</ele>
        <time>2018-07-24T08:58:24Z</time>
      </trkpt>
      <trkpt lat="46.04539" lon="4.69789">
        <ele>199</ele>
        <time>2018-07-24T08:58:25Z</time>
      </trkpt>
      <trkpt lat="46.04542" lon="4.69789">
        <ele>199</ele>
        <time>2018-07-24T08:58:26Z</time>
      </trkpt>
      <trkpt lat="46.0455" lon="4.69789">
        <ele>199</ele>
        <time>2018-07-24T08:58:28Z</time>
      </trkpt>
      <trkpt lat="46.04553" lon="4.6979">
        <ele>199</ele>
        <time>2018-07-24T08:58:29Z</time>
      </trkpt>
      <trkpt lat="46.04562" lon="4.69792">
        <ele>200</ele>
        <time>2018-07-24T08:58:31Z</time>
      </trkpt>
      <trkpt lat="46.04566" lon="4.69793">
        <ele>200</ele>
        <time>2018-07-24T08:58:32Z</time>
      </trkpt>
      <trkpt lat="46.04574" lon="4.69795">
        <ele>200</ele>
        <time>2018-07-24T08:58:34Z</time>
      </trkpt>
      <trkpt lat="46.04578" lon="4.69797">
        <ele>200</ele>
        <time>2018-07-24T08:58:35Z</time>
      </trkpt>
      <trkpt lat="46.04586" lon="4.69799">
        <ele>201</ele>
        <time>2018-07-24T08:58:37Z</time>
      </trkpt>
      <trkpt lat="46.0459" lon="4.69801">
        <ele>201</ele>
        <time>2018-07-24T08:58:38Z</time>
      </trkpt>
      <trkpt lat="46.04598" lon="4.69804">
        <ele>201</ele>
        <time>2018-07-24T08:58:40Z</time>
      </trkpt>
      <trkpt lat="46.04602" lon="4.69806">
        <ele>201</ele>
        <time>2018-07-24T08:58:41Z</time>
      </trkpt>
      <trkpt lat="46.04609" lon="4.69809">
        <ele>201</ele>
        <time>2018-07-24T08:58:43Z</time>
      </trkpt>
      <trkpt lat="46.04613" lon="4.6981">
        <ele>201</ele>
        <time>2018-07-24T08:58:44Z</time>
      </trkpt>
      <trkpt lat="46.04621" lon="4.69812">
        <ele>202</ele>
        <time>2018-07-24T08:58:46Z</time>
      </trkpt>
      <trkpt lat="46.04625" lon="4.69812">
        <ele>202</ele>
        <time>2018-07-24T08:58:47Z</time>
      </trkpt>
      <trkpt lat="46.04633" lon="4.69815">
        <ele>202</ele>
        <time>2018-07-24T08:58:49Z</time>
      </trkpt>
      <trkpt lat="46.04637" lon="4.69817">
        <ele>202</ele>
        <time>2018-07-24T08:58:50Z</time>
      </trkpt>
      <trkpt lat="46.04645" lon="4.69821">
        <ele>202</ele>
        <time>2018-07-24T08:58:52Z</time>
      </trkpt>
      <trkpt lat="46.04649" lon="4.69821">
        <ele>202</ele>
        <time>2018-07-24T08:58:53Z</time>
      </trkpt>
      <trkpt lat="46.04658" lon="4.69825">
        <ele>202</ele>
        <time>2018-07-24T08:58:55Z</time>
      </trkpt>
      <trkpt lat="46.04662" lon="4.69827">
        <ele>203</ele>
        <time>2018-07-24T08:58:56Z</time>
      </trkpt>
      <trkpt lat="46.0467" lon="4.6983">
        <ele>203</ele>
        <time>2018-07-24T08:58:58Z</time>
      </trkpt>
      <trkpt lat="46.04674" lon="4.69831">
        <ele>203</ele>
        <time>2018-07-24T08:58:59Z</time>
      </trkpt>
      <trkpt lat="46.04681" lon="4.69834">
        <ele>203</ele>
        <time>2018-07-24T08:59:01Z</time>
      </trkpt>
      <trkpt lat="46.04686" lon="4.69835">
        <ele>202</ele>
        <time>2018-07-24T08:59:02Z</time>
      </trkpt>
      <trkpt lat="46.04694" lon="4.69836">
        <ele>202</ele>
        <time>2018-07-24T08:59:04Z</time>
      </trkpt>
      <trkpt lat="46.04699" lon="4.69836">
        <ele>202</ele>
        <time>2018-07-24T08:59:05Z</time>
      </trkpt>
      <trkpt lat="46.04703" lon="4.69837">
        <ele>202</ele>
        <time>2018-07-24T08:59:06Z</time>
      </trkpt>
      <trkpt lat="46.04708" lon="4.69838">
        <ele>203</ele>
        <time>2018-07-24T08:59:07Z</time>
      </trkpt>
      <trkpt lat="46.04712" lon="4.69839">
        <ele>203</ele>
        <time>2018-07-24T08:59:08Z</time>
      </trkpt>
      <trkpt lat="46.04717" lon="4.6984">
        <ele>203</ele>
        <time>2018-07-24T08:59:09Z</time>
      </trkpt>
      <trkpt lat="46.04721" lon="4.6984">
        <ele>203</ele>
        <time>2018-07-24T08:59:10Z</time>
      </trkpt>
      <trkpt lat="46.04726" lon="4.6984">
        <ele>203</ele>
        <time>2018-07-24T08:59:11Z</time>
      </trkpt>
      <trkpt lat="46.04734" lon="4.69841">
        <ele>203</ele>
        <time>2018-07-24T08:59:13Z</time>
      </trkpt>
      <trkpt lat="46.04738" lon="4.6984">
        <ele>204</ele>
        <time>2018-07-24T08:59:14Z</time>
      </trkpt>
      <trkpt lat="46.04746" lon="4.6984">
        <ele>204</ele>
        <time>2018-07-24T08:59:16Z</time>
      </trkpt>
      <trkpt lat="46.04748" lon="4.6984">
        <ele>204</ele>
        <time>2018-07-24T08:59:17Z</time>
      </trkpt>
      <trkpt lat="46.04755" lon="4.69843">
        <ele>205</ele>
        <time>2018-07-24T08:59:18Z</time>
      </trkpt>
      <trkpt lat="46.04759" lon="4.69845">
        <ele>205</ele>
        <time>2018-07-24T08:59:19Z</time>
      </trkpt>
      <trkpt lat="46.04767" lon="4.69845">
        <ele>204</ele>
        <time>2018-07-24T08:59:21Z</time>
      </trkpt>
      <trkpt lat="46.04771" lon="4.69846">
        <ele>204</ele>
        <time>2018-07-24T08:59:22Z</time>
      </trkpt>
      <trkpt lat="46.04779" lon="4.69846">
        <ele>204</ele>
        <time>2018-07-24T08:59:24Z</time>
      </trkpt>
      <trkpt lat="46.04783" lon="4.69846">
        <ele>204</ele>
        <time>2018-07-24T08:59:25Z</time>
      </trkpt>
      <trkpt lat="46.04789" lon="4.69846">
        <ele>205</ele>
        <time>2018-07-24T08:59:27Z</time>
      </trkpt>
      <trkpt lat="46.04793" lon="4.69837">
        <ele>205</ele>
        <time>2018-07-24T08:59:28Z</time>
      </trkpt>
      <trkpt lat="46.04795" lon="4.69828">
        <ele>206</ele>
        <time>2018-07-24T08:59:31Z</time>
      </trkpt>
      <trkpt lat="46.04797" lon="4.6982">
        <ele>206</ele>
        <time>2018-07-24T08:59:32Z</time>
      </trkpt>
      <trkpt lat="46.04802" lon="4.69809">
        <ele>206</ele>
        <time>2018-07-24T08:59:35Z</time>
      </trkpt>
      <trkpt lat="46.04803" lon="4.69808">
        <ele>206</ele>
        <time>2018-07-24T08:59:36Z</time>
      </trkpt>
      <trkpt lat="46.04811" lon="4.69809">
        <ele>206</ele>
        <time>2018-07-24T08:59:38Z</time>
      </trkpt>
      <trkpt lat="46.04813" lon="4.6981">
        <ele>207</ele>
        <time>2018-07-24T08:59:39Z</time>
      </trkpt>
      <trkpt lat="46.04815" lon="4.69812">
        <ele>207</ele>
        <time>2018-07-24T08:59:40Z</time>
      </trkpt>
      <trkpt lat="46.04821" lon="4.69815">
        <ele>207</ele>
        <time>2018-07-24T08:59:41Z</time>
      </trkpt>
      <trkpt lat="46.04828" lon="4.69817">
        <ele>207</ele>
        <time>2018-07-24T08:59:43Z</time>
      </trkpt>
      <trkpt lat="46.04831" lon="4.69819">
        <ele>207</ele>
        <time>2018-07-24T08:59:44Z</time>
      </trkpt>
      <trkpt lat="46.04839" lon="4.69823">
        <ele>207</ele>
        <time>2018-07-24T08:59:46Z</time>
      </trkpt>
      <trkpt lat="46.04843" lon="4.69826">
        <ele>207</ele>
        <time>2018-07-24T08:59:47Z</time>
      </trkpt>
      <trkpt lat="46.04848" lon="4.69827">
        <ele>207</ele>
        <time>2018-07-24T08:59:48Z</time>
      </trkpt>
      <trkpt lat="46.04854" lon="4.69828">
        <ele>207</ele>
        <time>2018-07-24T08:59:49Z</time>
      </trkpt>
      <trkpt lat="46.04859" lon="4.69833">
        <ele>207</ele>
        <time>2018-07-24T08:59:50Z</time>
      </trkpt>
      <trkpt lat="46.04863" lon="4.69835">
        <ele>206</ele>
        <time>2018-07-24T08:59:51Z</time>
      </trkpt>
      <trkpt lat="46.04869" lon="4.69839">
        <ele>206</ele>
        <time>2018-07-24T08:59:52Z</time>
      </trkpt>
      <trkpt lat="46.04874" lon="4.69843">
        <ele>206</ele>
        <time>2018-07-24T08:59:53Z</time>
      </trkpt>
      <trkpt lat="46.04882" lon="4.69847">
        <ele>206</ele>
        <time>2018-07-24T08:59:55Z</time>
      </trkpt>
      <trkpt lat="46.04886" lon="4.6985">
        <ele>206</ele>
        <time>2018-07-24T08:59:56Z</time>
      </trkpt>
      <trkpt lat="46.0489" lon="4.69853">
        <ele>206</ele>
        <time>2018-07-24T08:59:57Z</time>
      </trkpt>
      <trkpt lat="46.04894" lon="4.69856">
        <ele>206</ele>
        <time>2018-07-24T08:59:58Z</time>
      </trkpt>
      <trkpt lat="46.04902" lon="4.6986">
        <ele>206</ele>
        <time>2018-07-24T09:00:00Z</time>
      </trkpt>
      <trkpt lat="46.04905" lon="4.69862">
        <ele>206</ele>
        <time>2018-07-24T09:00:01Z</time>
      </trkpt>
      <trkpt lat="46.04911" lon="4.69866">
        <ele>206</ele>
        <time>2018-07-24T09:00:02Z</time>
      </trkpt>
      <trkpt lat="46.04915" lon="4.69868">
        <ele>206</ele>
        <time>2018-07-24T09:00:03Z</time>
      </trkpt>
      <trkpt lat="46.04923" lon="4.69874">
        <ele>207</ele>
        <time>2018-07-24T09:00:05Z</time>
      </trkpt>
      <trkpt lat="46.04927" lon="4.69876">
        <ele>207</ele>
        <time>2018-07-24T09:00:06Z</time>
      </trkpt>
      <trkpt lat="46.04933" lon="4.69878">
        <ele>207</ele>
        <time>2018-07-24T09:00:07Z</time>
      </trkpt>
      <trkpt lat="46.04937" lon="4.69882">
        <ele>207</ele>
        <time>2018-07-24T09:00:08Z</time>
      </trkpt>
      <trkpt lat="46.04944" lon="4.69889">
        <ele>207</ele>
        <time>2018-07-24T09:00:10Z</time>
      </trkpt>
      <trkpt lat="46.04947" lon="4.69893">
        <ele>207</ele>
        <time>2018-07-24T09:00:11Z</time>
      </trkpt>
      <trkpt lat="46.0495" lon="4.69897">
        <ele>207</ele>
        <time>2018-07-24T09:00:12Z</time>
      </trkpt>
      <trkpt lat="46.04954" lon="4.69901">
        <ele>207</ele>
        <time>2018-07-24T09:00:13Z</time>
      </trkpt>
      <trkpt lat="46.04957" lon="4.69906">
        <ele>207</ele>
        <time>2018-07-24T09:00:14Z</time>
      </trkpt>
      <trkpt lat="46.04961" lon="4.69912">
        <ele>206</ele>
        <time>2018-07-24T09:00:15Z</time>
      </trkpt>
      <trkpt lat="46.04965" lon="4.69917">
        <ele>206</ele>
        <time>2018-07-24T09:00:16Z</time>
      </trkpt>
      <trkpt lat="46.0497" lon="4.69922">
        <ele>206</ele>
        <time>2018-07-24T09:00:17Z</time>
      </trkpt>
      <trkpt lat="46.04972" lon="4.69928">
        <ele>206</ele>
        <time>2018-07-24T09:00:18Z</time>
      </trkpt>
      <trkpt lat="46.04976" lon="4.69935">
        <ele>206</ele>
        <time>2018-07-24T09:00:19Z</time>
      </trkpt>
      <trkpt lat="46.0498" lon="4.69941">
        <ele>206</ele>
        <time>2018-07-24T09:00:20Z</time>
      </trkpt>
      <trkpt lat="46.04985" lon="4.69946">
        <ele>206</ele>
        <time>2018-07-24T09:00:21Z</time>
      </trkpt>
      <trkpt lat="46.04989" lon="4.69952">
        <ele>206</ele>
        <time>2018-07-24T09:00:22Z</time>
      </trkpt>
      <trkpt lat="46.04993" lon="4.69957">
        <ele>206</ele>
        <time>2018-07-24T09:00:23Z</time>
      </trkpt>
      <trkpt lat="46.04997" lon="4.69962">
        <ele>205</ele>
        <time>2018-07-24T09:00:24Z</time>
      </trkpt>
      <trkpt lat="46.05" lon="4.69967">
        <ele>205</ele>
        <time>2018-07-24T09:00:25Z</time>
      </trkpt>
      <trkpt lat="46.05003" lon="4.69973">
        <ele>205</ele>
        <time>2018-07-24T09:00:26Z</time>
      </trkpt>
      <trkpt lat="46.05007" lon="4.69978">
        <ele>205</ele>
        <time>2018-07-24T09:00:27Z</time>
      </trkpt>
      <trkpt lat="46.05011" lon="4.69984">
        <ele>205</ele>
        <time>2018-07-24T09:00:28Z</time>
      </trkpt>
      <trkpt lat="46.05014" lon="4.69989">
        <ele>205</ele>
        <time>2018-07-24T09:00:29Z</time>
      </trkpt>
      <trkpt lat="46.05019" lon="4.69994">
        <ele>205</ele>
        <time>2018-07-24T09:00:30Z</time>
      </trkpt>
      <trkpt lat="46.05022" lon="4.69999">
        <ele>205</ele>
        <time>2018-07-24T09:00:31Z</time>
      </trkpt>
      <trkpt lat="46.05027" lon="4.70005">
        <ele>204</ele>
        <time>2018-07-24T09:00:32Z</time>
      </trkpt>
      <trkpt lat="46.05033" lon="4.70008">
        <ele>204</ele>
        <time>2018-07-24T09:00:33Z</time>
      </trkpt>
      <trkpt lat="46.05037" lon="4.70012">
        <ele>204</ele>
        <time>2018-07-24T09:00:34Z</time>
      </trkpt>
      <trkpt lat="46.05042" lon="4.70016">
        <ele>204</ele>
        <time>2018-07-24T09:00:35Z</time>
      </trkpt>
      <trkpt lat="46.05048" lon="4.7002">
        <ele>204</ele>
        <time>2018-07-24T09:00:36Z</time>
      </trkpt>
      <trkpt lat="46.05053" lon="4.70024">
        <ele>204</ele>
        <time>2018-07-24T09:00:37Z</time>
      </trkpt>
      <trkpt lat="46.05057" lon="4.70028">
        <ele>204</ele>
        <time>2018-07-24T09:00:38Z</time>
      </trkpt>
      <trkpt lat="46.05062" lon="4.70031">
        <ele>204</ele>
        <time>2018-07-24T09:00:39Z</time>
      </trkpt>
      <trkpt lat="46.05066" lon="4.70034">
        <ele>204</ele>
        <time>2018-07-24T09:00:40Z</time>
      </trkpt>
      <trkpt lat="46.05071" lon="4.70036">
        <ele>204</ele>
        <time>2018-07-24T09:00:41Z</time>
      </trkpt>
      <trkpt lat="46.05076" lon="4.70037">
        <ele>204</ele>
        <time>2018-07-24T09:00:42Z</time>
      </trkpt>
      <trkpt lat="46.0508" lon="4.70035">
        <ele>204</ele>
        <time>2018-07-24T09:00:43Z</time>
      </trkpt>
      <trkpt lat="46.05085" lon="4.70032">
        <ele>203</ele>
        <time>2018-07-24T09:00:44Z</time>
      </trkpt>
      <trkpt lat="46.05089" lon="4.70027">
        <ele>203</ele>
        <time>2018-07-24T09:00:45Z</time>
      </trkpt>
      <trkpt lat="46.05092" lon="4.70022">
        <ele>203</ele>
        <time>2018-07-24T09:00:46Z</time>
      </trkpt>
      <trkpt lat="46.05094" lon="4.70016">
        <ele>203</ele>
        <time>2018-07-24T09:00:47Z</time>
      </trkpt>
      <trkpt lat="46.05097" lon="4.70009">
        <ele>203</ele>
        <time>2018-07-24T09:00:48Z</time>
      </trkpt>
      <trkpt lat="46.05098" lon="4.70004">
        <ele>204</ele>
        <time>2018-07-24T09:00:49Z</time>
      </trkpt>
      <trkpt lat="46.051" lon="4.69997">
        <ele>204</ele>
        <time>2018-07-24T09:00:50Z</time>
      </trkpt>
      <trkpt lat="46.051" lon="4.69989">
        <ele>204</ele>
        <time>2018-07-24T09:00:51Z</time>
      </trkpt>
      <trkpt lat="46.05103" lon="4.69982">
        <ele>203</ele>
        <time>2018-07-24T09:00:52Z</time>
      </trkpt>
      <trkpt lat="46.05104" lon="4.69972">
        <ele>203</ele>
        <time>2018-07-24T09:00:53Z</time>
      </trkpt>
      <trkpt lat="46.05107" lon="4.69963">
        <ele>203</ele>
        <time>2018-07-24T09:00:54Z</time>
      </trkpt>
      <trkpt lat="46.05106" lon="4.69955">
        <ele>203</ele>
        <time>2018-07-24T09:00:55Z</time>
      </trkpt>
      <trkpt lat="46.05106" lon="4.69947">
        <ele>203</ele>
        <time>2018-07-24T09:00:56Z</time>
      </trkpt>
      <trkpt lat="46.05108" lon="4.69939">
        <ele>203</ele>
        <time>2018-07-24T09:00:57Z</time>
      </trkpt>
      <trkpt lat="46.0511" lon="4.69928">
        <ele>203</ele>
        <time>2018-07-24T09:00:58Z</time>
      </trkpt>
      <trkpt lat="46.05112" lon="4.6992">
        <ele>203</ele>
        <time>2018-07-24T09:00:59Z</time>
      </trkpt>
      <trkpt lat="46.05111" lon="4.69911">
        <ele>204</ele>
        <time>2018-07-24T09:01:00Z</time>
      </trkpt>
      <trkpt lat="46.05112" lon="4.69902">
        <ele>204</ele>
        <time>2018-07-24T09:01:01Z</time>
      </trkpt>
      <trkpt lat="46.05113" lon="4.69894">
        <ele>204</ele>
        <time>2018-07-24T09:01:02Z</time>
      </trkpt>
      <trkpt lat="46.05113" lon="4.69885">
        <ele>204</ele>
        <time>2018-07-24T09:01:03Z</time>
      </trkpt>
      <trkpt lat="46.05114" lon="4.69879">
        <ele>204</ele>
        <time>2018-07-24T09:01:04Z</time>
      </trkpt>
      <trkpt lat="46.05116" lon="4.69873">
        <ele>204</ele>
        <time>2018-07-24T09:01:05Z</time>
      </trkpt>
      <trkpt lat="46.05118" lon="4.6986">
        <ele>204</ele>
        <time>2018-07-24T09:01:07Z</time>
      </trkpt>
      <trkpt lat="46.05119" lon="4.69854">
        <ele>204</ele>
        <time>2018-07-24T09:01:08Z</time>
      </trkpt>
      <trkpt lat="46.0512" lon="4.69847">
        <ele>204</ele>
        <time>2018-07-24T09:01:09Z</time>
      </trkpt>
      <trkpt lat="46.05121" lon="4.6984">
        <ele>204</ele>
        <time>2018-07-24T09:01:10Z</time>
      </trkpt>
      <trkpt lat="46.05125" lon="4.69834">
        <ele>204</ele>
        <time>2018-07-24T09:01:11Z</time>
      </trkpt>
      <trkpt lat="46.0513" lon="4.6983">
        <ele>204</ele>
        <time>2018-07-24T09:01:12Z</time>
      </trkpt>
      <trkpt lat="46.05135" lon="4.69825">
        <ele>204</ele>
        <time>2018-07-24T09:01:13Z</time>
      </trkpt>
      <trkpt lat="46.0514" lon="4.69824">
        <ele>204</ele>
        <time>2018-07-24T09:01:14Z</time>
      </trkpt>
      <trkpt lat="46.05146" lon="4.69825">
        <ele>204</ele>
        <time>2018-07-24T09:01:15Z</time>
      </trkpt>
      <trkpt lat="46.05151" lon="4.69827">
        <ele>204</ele>
        <time>2018-07-24T09:01:16Z</time>
      </trkpt>
      <trkpt lat="46.05158" lon="4.69828">
        <ele>203</ele>
        <time>2018-07-24T09:01:17Z</time>
      </trkpt>
      <trkpt lat="46.05163" lon="4.69829">
        <ele>203</ele>
        <time>2018-07-24T09:01:18Z</time>
      </trkpt>
      <trkpt lat="46.05169" lon="4.69832">
        <ele>203</ele>
        <time>2018-07-24T09:01:19Z</time>
      </trkpt>
      <trkpt lat="46.05173" lon="4.69834">
        <ele>203</ele>
        <time>2018-07-24T09:01:20Z</time>
      </trkpt>
      <trkpt lat="46.0518" lon="4.69836">
        <ele>202</ele>
        <time>2018-07-24T09:01:21Z</time>
      </trkpt>
      <trkpt lat="46.05188" lon="4.69839">
        <ele>202</ele>
        <time>2018-07-24T09:01:22Z</time>
      </trkpt>
      <trkpt lat="46.05195" lon="4.69841">
        <ele>202</ele>
        <time>2018-07-24T09:01:23Z</time>
      </trkpt>
      <trkpt lat="46.05202" lon="4.69843">
        <ele>201</ele>
        <time>2018-07-24T09:01:24Z</time>
      </trkpt>
      <trkpt lat="46.05208" lon="4.69845">
        <ele>201</ele>
        <time>2018-07-24T09:01:25Z</time>
      </trkpt>
      <trkpt lat="46.05216" lon="4.69848">
        <ele>201</ele>
        <time>2018-07-24T09:01:26Z</time>
      </trkpt>
      <trkpt lat="46.05222" lon="4.69851">
        <ele>201</ele>
        <time>2018-07-24T09:01:27Z</time>
      </trkpt>
      <trkpt lat="46.05227" lon="4.69854">
        <ele>201</ele>
        <time>2018-07-24T09:01:28Z</time>
      </trkpt>
      <trkpt lat="46.05233" lon="4.69856">
        <ele>201</ele>
        <time>2018-07-24T09:01:29Z</time>
      </trkpt>
      <trkpt lat="46.0524" lon="4.69858">
        <ele>201</ele>
        <time>2018-07-24T09:01:30Z</time>
      </trkpt>
      <trkpt lat="46.05247" lon="4.69859">
        <ele>200</ele>
        <time>2018-07-24T09:01:31Z</time>
      </trkpt>
      <trkpt lat="46.05254" lon="4.69862">
        <ele>199</ele>
        <time>2018-07-24T09:01:32Z</time>
      </trkpt>
      <trkpt lat="46.0526" lon="4.69862">
        <ele>199</ele>
        <time>2018-07-24T09:01:33Z</time>
      </trkpt>
      <trkpt lat="46.05266" lon="4.69864">
        <ele>199</ele>
        <time>2018-07-24T09:01:34Z</time>
      </trkpt>
      <trkpt lat="46.05272" lon="4.69867">
        <ele>199</ele>
        <time>2018-07-24T09:01:35Z</time>
      </trkpt>
      <trkpt lat="46.05278" lon="4.69869">
        <ele>199</ele>
        <time>2018-07-24T09:01:36Z</time>
      </trkpt>
      <trkpt lat="46.05287" lon="4.69872">
        <ele>199</ele>
        <time>2018-07-24T09:01:37Z</time>
      </trkpt>
      <trkpt lat="46.05294" lon="4.69873">
        <ele>199</ele>
        <time>2018-07-24T09:01:38Z</time>
      </trkpt>
      <trkpt lat="46.05301" lon="4.69875">
        <ele>199</ele>
        <time>2018-07-24T09:01:39Z</time>
      </trkpt>
      <trkpt lat="46.05306" lon="4.69876">
        <ele>199</ele>
        <time>2018-07-24T09:01:40Z</time>
      </trkpt>
      <trkpt lat="46.05313" lon="4.69878">
        <ele>199</ele>
        <time>2018-07-24T09:01:41Z</time>
      </trkpt>
      <trkpt lat="46.05319" lon="4.6988">
        <ele>199</ele>
        <time>2018-07-24T09:01:42Z</time>
      </trkpt>
      <trkpt lat="46.05325" lon="4.69881">
        <ele>199</ele>
        <time>2018-07-24T09:01:43Z</time>
      </trkpt>
      <trkpt lat="46.05331" lon="4.69882">
        <ele>199</ele>
        <time>2018-07-24T09:01:44Z</time>
      </trkpt>
      <trkpt lat="46.05335" lon="4.69882">
        <ele>199</ele>
        <time>2018-07-24T09:01:45Z</time>
      </trkpt>
      <trkpt lat="46.0534" lon="4.69883">
        <ele>199</ele>
        <time>2018-07-24T09:01:46Z</time>
      </trkpt>
      <trkpt lat="46.05346" lon="4.69884">
        <ele>199</ele>
        <time>2018-07-24T09:01:47Z</time>
      </trkpt>
      <trkpt lat="46.05351" lon="4.69884">
        <ele>199</ele>
        <time>2018-07-24T09:01:48Z</time>
      </trkpt>
      <trkpt lat="46.05358" lon="4.69887">
        <ele>199</ele>
        <time>2018-07-24T09:01:49Z</time>
      </trkpt>
      <trkpt lat="46.05364" lon="4.69888">
        <ele>199</ele>
        <time>2018-07-24T09:01:50Z</time>
      </trkpt>
      <trkpt lat="46.0537" lon="4.6989">
        <ele>199</ele>
        <time>2018-07-24T09:01:51Z</time>
      </trkpt>
      <trkpt lat="46.05375" lon="4.69894">
        <ele>199</ele>
        <time>2018-07-24T09:01:52Z</time>
      </trkpt>
      <trkpt lat="46.05381" lon="4.69897">
        <ele>199</ele>
        <time>2018-07-24T09:01:53Z</time>
      </trkpt>
      <trkpt lat="46.05388" lon="4.69899">
        <ele>199</ele>
        <time>2018-07-24T09:01:54Z</time>
      </trkpt>
      <trkpt lat="46.05393" lon="4.69902">
        <ele>199</ele>
        <time>2018-07-24T09:01:55Z</time>
      </trkpt>
      <trkpt lat="46.05399" lon="4.69905">
        <ele>199</ele>
        <time>2018-07-24T09:01:56Z</time>
      </trkpt>
      <trkpt lat="46.05404" lon="4.69901">
        <ele>199</ele>
        <time>2018-07-24T09:01:57Z</time>
      </trkpt>
      <trkpt lat="46.0541" lon="4.69902">
        <ele>199</ele>
        <time>2018-07-24T09:01:58Z</time>
      </trkpt>
      <trkpt lat="46.05415" lon="4.69902">
        <ele>199</ele>
        <time>2018-07-24T09:01:59Z</time>
      </trkpt>
      <trkpt lat="46.05421" lon="4.69901">
        <ele>199</ele>
        <time>2018-07-24T09:02:00Z</time>
      </trkpt>
      <trkpt lat="46.05427" lon="4.699">
        <ele>199</ele>
        <time>2018-07-24T09:02:01Z</time>
      </trkpt>
      <trkpt lat="46.05433" lon="4.69898">
        <ele>199</ele>
        <time>2018-07-24T09:02:02Z</time>
      </trkpt>
      <trkpt lat="46.05438" lon="4.69894">
        <ele>199</ele>
        <time>2018-07-24T09:02:03Z</time>
      </trkpt>
      <trkpt lat="46.05445" lon="4.69892">
        <ele>199</ele>
        <time>2018-07-24T09:02:04Z</time>
      </trkpt>
      <trkpt lat="46.05451" lon="4.6989">
        <ele>199</ele>
        <time>2018-07-24T09:02:05Z</time>
      </trkpt>
      <trkpt lat="46.05456" lon="4.69888">
        <ele>199</ele>
        <time>2018-07-24T09:02:06Z</time>
      </trkpt>
      <trkpt lat="46.05461" lon="4.69886">
        <ele>199</ele>
        <time>2018-07-24T09:02:07Z</time>
      </trkpt>
      <trkpt lat="46.05466" lon="4.69884">
        <ele>199</ele>
        <time>2018-07-24T09:02:08Z</time>
      </trkpt>
      <trkpt lat="46.05471" lon="4.69882">
        <ele>199</ele>
        <time>2018-07-24T09:02:09Z</time>
      </trkpt>
      <trkpt lat="46.05476" lon="4.6988">
        <ele>199</ele>
        <time>2018-07-24T09:02:10Z</time>
      </trkpt>
      <trkpt lat="46.0548" lon="4.69878">
        <ele>199</ele>
        <time>2018-07-24T09:02:11Z</time>
      </trkpt>
      <trkpt lat="46.05485" lon="4.69876">
        <ele>199</ele>
        <time>2018-07-24T09:02:12Z</time>
      </trkpt>
      <trkpt lat="46.0549" lon="4.69875">
        <ele>199</ele>
        <time>2018-07-24T09:02:13Z</time>
      </trkpt>
      <trkpt lat="46.05494" lon="4.69877">
        <ele>199</ele>
        <time>2018-07-24T09:02:14Z</time>
      </trkpt>
      <trkpt lat="46.055" lon="4.69875">
        <ele>199</ele>
        <time>2018-07-24T09:02:15Z</time>
      </trkpt>
      <trkpt lat="46.05505" lon="4.69873">
        <ele>199</ele>
        <time>2018-07-24T09:02:16Z</time>
      </trkpt>
      <trkpt lat="46.05511" lon="4.69871">
        <ele>199</ele>
        <time>2018-07-24T09:02:17Z</time>
      </trkpt>
      <trkpt lat="46.05515" lon="4.69868">
        <ele>199</ele>
        <time>2018-07-24T09:02:18Z</time>
      </trkpt>
      <trkpt lat="46.05522" lon="4.69866">
        <ele>200</ele>
        <time>2018-07-24T09:02:19Z</time>
      </trkpt>
      <trkpt lat="46.05528" lon="4.69867">
        <ele>200</ele>
        <time>2018-07-24T09:02:20Z</time>
      </trkpt>
      <trkpt lat="46.05533" lon="4.69867">
        <ele>200</ele>
        <time>2018-07-24T09:02:21Z</time>
      </trkpt>
      <trkpt lat="46.0554" lon="4.69864">
        <ele>200</ele>
        <time>2018-07-24T09:02:23Z</time>
      </trkpt>
      <trkpt lat="46.05545" lon="4.69863">
        <ele>200</ele>
        <time>2018-07-24T09:02:24Z</time>
      </trkpt>
      <trkpt lat="46.05553" lon="4.69859">
        <ele>200</ele>
        <time>2018-07-24T09:02:26Z</time>
      </trkpt>
      <trkpt lat="46.05556" lon="4.69857">
        <ele>200</ele>
        <time>2018-07-24T09:02:27Z</time>
      </trkpt>
      <trkpt lat="46.05564" lon="4.69854">
        <ele>200</ele>
        <time>2018-07-24T09:02:29Z</time>
      </trkpt>
      <trkpt lat="46.05568" lon="4.69856">
        <ele>200</ele>
        <time>2018-07-24T09:02:30Z</time>
      </trkpt>
      <trkpt lat="46.05575" lon="4.69863">
        <ele>200</ele>
        <time>2018-07-24T09:02:32Z</time>
      </trkpt>
      <trkpt lat="46.05579" lon="4.69868">
        <ele>200</ele>
        <time>2018-07-24T09:02:33Z</time>
      </trkpt>
      <trkpt lat="46.05582" lon="4.69872">
        <ele>200</ele>
        <time>2018-07-24T09:02:34Z</time>
      </trkpt>
      <trkpt lat="46.05585" lon="4.69878">
        <ele>201</ele>
        <time>2018-07-24T09:02:35Z</time>
      </trkpt>
      <trkpt lat="46.05588" lon="4.69885">
        <ele>201</ele>
        <time>2018-07-24T09:02:36Z</time>
      </trkpt>
      <trkpt lat="46.05592" lon="4.6989">
        <ele>201</ele>
        <time>2018-07-24T09:02:37Z</time>
      </trkpt>
      <trkpt lat="46.05595" lon="4.69897">
        <ele>201</ele>
        <time>2018-07-24T09:02:38Z</time>
      </trkpt>
      <trkpt lat="46.05598" lon="4.69905">
        <ele>201</ele>
        <time>2018-07-24T09:02:39Z</time>
      </trkpt>
      <trkpt lat="46.05602" lon="4.69912">
        <ele>201</ele>
        <time>2018-07-24T09:02:40Z</time>
      </trkpt>
      <trkpt lat="46.05606" lon="4.69922">
        <ele>201</ele>
        <time>2018-07-24T09:02:41Z</time>
      </trkpt>
      <trkpt lat="46.05609" lon="4.69928">
        <ele>201</ele>
        <time>2018-07-24T09:02:42Z</time>
      </trkpt>
      <trkpt lat="46.05613" lon="4.69934">
        <ele>201</ele>
        <time>2018-07-24T09:02:43Z</time>
      </trkpt>
      <trkpt lat="46.05617" lon="4.69941">
        <ele>201</ele>
        <time>2018-07-24T09:02:44Z</time>
      </trkpt>
      <trkpt lat="46.05622" lon="4.69948">
        <ele>200</ele>
        <time>2018-07-24T09:02:45Z</time>
      </trkpt>
      <trkpt lat="46.05625" lon="4.69955">
        <ele>200</ele>
        <time>2018-07-24T09:02:46Z</time>
      </trkpt>
      <trkpt lat="46.05629" lon="4.69962">
        <ele>200</ele>
        <time>2018-07-24T09:02:47Z</time>
      </trkpt>
      <trkpt lat="46.05634" lon="4.69969">
        <ele>200</ele>
        <time>2018-07-24T09:02:48Z</time>
      </trkpt>
      <trkpt lat="46.05638" lon="4.69975">
        <ele>200</ele>
        <time>2018-07-24T09:02:49Z</time>
      </trkpt>
      <trkpt lat="46.05642" lon="4.69981">
        <ele>200</ele>
        <time>2018-07-24T09:02:50Z</time>
      </trkpt>
      <trkpt lat="46.05645" lon="4.69988">
        <ele>200</ele>
        <time>2018-07-24T09:02:51Z</time>
      </trkpt>
      <trkpt lat="46.05648" lon="4.69995">
        <ele>200</ele>
        <time>2018-07-24T09:02:52Z</time>
      </trkpt>
      <trkpt lat="46.05651" lon="4.70002">
        <ele>200</ele>
        <time>2018-07-24T09:02:53Z</time>
      </trkpt>
      <trkpt lat="46.05652" lon="4.70009">
        <ele>200</ele>
        <time>2018-07-24T09:02:54Z</time>
      </trkpt>
      <trkpt lat="46.05656" lon="4.70015">
        <ele>200</ele>
        <time>2018-07-24T09:02:55Z</time>
      </trkpt>
      <trkpt lat="46.05658" lon="4.70024">
        <ele>200</ele>
        <time>2018-07-24T09:02:56Z</time>
      </trkpt>
      <trkpt lat="46.05662" lon="4.70031">
        <ele>200</ele>
        <time>2018-07-24T09:02:57Z</time>
      </trkpt>
      <trkpt lat="46.05665" lon="4.70036">
        <ele>200</ele>
        <time>2018-07-24T09:02:58Z</time>
      </trkpt>
      <trkpt lat="46.05669" lon="4.70043">
        <ele>199</ele>
        <time>2018-07-24T09:02:59Z</time>
      </trkpt>
      <trkpt lat="46.05672" lon="4.70048">
        <ele>199</ele>
        <time>2018-07-24T09:03:00Z</time>
      </trkpt>
      <trkpt lat="46.05676" lon="4.70057">
        <ele>199</ele>
        <time>2018-07-24T09:03:01Z</time>
      </trkpt>
      <trkpt lat="46.0568" lon="4.70061">
        <ele>199</ele>
        <time>2018-07-24T09:03:02Z</time>
      </trkpt>
      <trkpt lat="46.05684" lon="4.70068">
        <ele>199</ele>
        <time>2018-07-24T09:03:03Z</time>
      </trkpt>
      <trkpt lat="46.05691" lon="4.70074">
        <ele>199</ele>
        <time>2018-07-24T09:03:04Z</time>
      </trkpt>
      <trkpt lat="46.05693" lon="4.70081">
        <ele>199</ele>
        <time>2018-07-24T09:03:05Z</time>
      </trkpt>
      <trkpt lat="46.05698" lon="4.70087">
        <ele>198</ele>
        <time>2018-07-24T09:03:06Z</time>
      </trkpt>
      <trkpt lat="46.05701" lon="4.70094">
        <ele>198</ele>
        <time>2018-07-24T09:03:07Z</time>
      </trkpt>
      <trkpt lat="46.05704" lon="4.70101">
        <ele>198</ele>
        <time>2018-07-24T09:03:08Z</time>
      </trkpt>
      <trkpt lat="46.05707" lon="4.70107">
        <ele>198</ele>
        <time>2018-07-24T09:03:09Z</time>
      </trkpt>
      <trkpt lat="46.0571" lon="4.70113">
        <ele>198</ele>
        <time>2018-07-24T09:03:10Z</time>
      </trkpt>
      <trkpt lat="46.05713" lon="4.7012">
        <ele>198</ele>
        <time>2018-07-24T09:03:11Z</time>
      </trkpt>
      <trkpt lat="46.05717" lon="4.70127">
        <ele>198</ele>
        <time>2018-07-24T09:03:12Z</time>
      </trkpt>
      <trkpt lat="46.05721" lon="4.70136">
        <ele>198</ele>
        <time>2018-07-24T09:03:13Z</time>
      </trkpt>
      <trkpt lat="46.05725" lon="4.70143">
        <ele>198</ele>
        <time>2018-07-24T09:03:14Z</time>
      </trkpt>
      <trkpt lat="46.05727" lon="4.7015">
        <ele>198</ele>
        <time>2018-07-24T09:03:15Z</time>
      </trkpt>
      <trkpt lat="46.05733" lon="4.70157">
        <ele>199</ele>
        <time>2018-07-24T09:03:16Z</time>
      </trkpt>
      <trkpt lat="46.05736" lon="4.70164">
        <ele>199</ele>
        <time>2018-07-24T09:03:17Z</time>
      </trkpt>
      <trkpt lat="46.05739" lon="4.70172">
        <ele>198</ele>
        <time>2018-07-24T09:03:18Z</time>
      </trkpt>
      <trkpt lat="46.05743" lon="4.70179">
        <ele>198</ele>
        <time>2018-07-24T09:03:19Z</time>
      </trkpt>
      <trkpt lat="46.05747" lon="4.70186">
        <ele>198</ele>
        <time>2018-07-24T09:03:20Z</time>
      </trkpt>
      <trkpt lat="46.05749" lon="4.70192">
        <ele>198</ele>
        <time>2018-07-24T09:03:21Z</time>
      </trkpt>
      <trkpt lat="46.05752" lon="4.70199">
        <ele>198</ele>
        <time>2018-07-24T09:03:22Z</time>
      </trkpt>
      <trkpt lat="46.05756" lon="4.70206">
        <ele>198</ele>
        <time>2018-07-24T09:03:23Z</time>
      </trkpt>
      <trkpt lat="46.05759" lon="4.70213">
        <ele>198</ele>
        <time>2018-07-24T09:03:24Z</time>
      </trkpt>
      <trkpt lat="46.05763" lon="4.7022">
        <ele>198</ele>
        <time>2018-07-24T09:03:25Z</time>
      </trkpt>
      <trkpt lat="46.05767" lon="4.70227">
        <ele>198</ele>
        <time>2018-07-24T09:03:26Z</time>
      </trkpt>
      <trkpt lat="46.05772" lon="4.70234">
        <ele>198</ele>
        <time>2018-07-24T09:03:27Z</time>
      </trkpt>
      <trkpt lat="46.05775" lon="4.7024">
        <ele>198</ele>
        <time>2018-07-24T09:03:28Z</time>
      </trkpt>
      <trkpt lat="46.05779" lon="4.70247">
        <ele>198</ele>
        <time>2018-07-24T09:03:29Z</time>
      </trkpt>
      <trkpt lat="46.05781" lon="4.70253">
        <ele>198</ele>
        <time>2018-07-24T09:03:30Z</time>
      </trkpt>
      <trkpt lat="46.05785" lon="4.70259">
        <ele>198</ele>
        <time>2018-07-24T09:03:31Z</time>
      </trkpt>
      <trkpt lat="46.05789" lon="4.70264">
        <ele>198</ele>
        <time>2018-07-24T09:03:32Z</time>
      </trkpt>
      <trkpt lat="46.05793" lon="4.7027">
        <ele>197</ele>
        <time>2018-07-24T09:03:33Z</time>
      </trkpt>
      <trkpt lat="46.05797" lon="4.70277">
        <ele>197</ele>
        <time>2018-07-24T09:03:34Z</time>
      </trkpt>
      <trkpt lat="46.05801" lon="4.70283">
        <ele>197</ele>
        <time>2018-07-24T09:03:35Z</time>
      </trkpt>
      <trkpt lat="46.05807" lon="4.70287">
        <ele>197</ele>
        <time>2018-07-24T09:03:36Z</time>
      </trkpt>
      <trkpt lat="46.05811" lon="4.70294">
        <ele>197</ele>
        <time>2018-07-24T09:03:37Z</time>
      </trkpt>
      <trkpt lat="46.05815" lon="4.70299">
        <ele>197</ele>
        <time>2018-07-24T09:03:38Z</time>
      </trkpt>
      <trkpt lat="46.05818" lon="4.70304">
        <ele>197</ele>
        <time>2018-07-24T09:03:39Z</time>
      </trkpt>
      <trkpt lat="46.05822" lon="4.70311">
        <ele>197</ele>
        <time>2018-07-24T09:03:40Z</time>
      </trkpt>
      <trkpt lat="46.05827" lon="4.70318">
        <ele>197</ele>
        <time>2018-07-24T09:03:41Z</time>
      </trkpt>
      <trkpt lat="46.05831" lon="4.70324">
        <ele>197</ele>
        <time>2018-07-24T09:03:42Z</time>
      </trkpt>
      <trkpt lat="46.05835" lon="4.70331">
        <ele>197</ele>
        <time>2018-07-24T09:03:43Z</time>
      </trkpt>
      <trkpt lat="46.05839" lon="4.70337">
        <ele>197</ele>
        <time>2018-07-24T09:03:44Z</time>
      </trkpt>
      <trkpt lat="46.05843" lon="4.70343">
        <ele>197</ele>
        <time>2018-07-24T09:03:45Z</time>
      </trkpt>
      <trkpt lat="46.05847" lon="4.70348">
        <ele>196</ele>
        <time>2018-07-24T09:03:46Z</time>
      </trkpt>
      <trkpt lat="46.05851" lon="4.70355">
        <ele>196</ele>
        <time>2018-07-24T09:03:47Z</time>
      </trkpt>
      <trkpt lat="46.05854" lon="4.70361">
        <ele>196</ele>
        <time>2018-07-24T09:03:48Z</time>
      </trkpt>
      <trkpt lat="46.05858" lon="4.70368">
        <ele>196</ele>
        <time>2018-07-24T09:03:49Z</time>
      </trkpt>
      <trkpt lat="46.05861" lon="4.70373">
        <ele>196</ele>
        <time>2018-07-24T09:03:50Z</time>
      </trkpt>
      <trkpt lat="46.05864" lon="4.7038">
        <ele>196</ele>
        <time>2018-07-24T09:03:51Z</time>
      </trkpt>
      <trkpt lat="46.0587" lon="4.70388">
        <ele>196</ele>
        <time>2018-07-24T09:03:52Z</time>
      </trkpt>
      <trkpt lat="46.05874" lon="4.70394">
        <ele>196</ele>
        <time>2018-07-24T09:03:53Z</time>
      </trkpt>
      <trkpt lat="46.05875" lon="4.70399">
        <ele>196</ele>
        <time>2018-07-24T09:03:54Z</time>
      </trkpt>
      <trkpt lat="46.05879" lon="4.70405">
        <ele>196</ele>
        <time>2018-07-24T09:03:55Z</time>
      </trkpt>
      <trkpt lat="46.05883" lon="4.70412">
        <ele>196</ele>
        <time>2018-07-24T09:03:56Z</time>
      </trkpt>
      <trkpt lat="46.05887" lon="4.70418">
        <ele>195</ele>
        <time>2018-07-24T09:03:57Z</time>
      </trkpt>
      <trkpt lat="46.05891" lon="4.70424">
        <ele>195</ele>
        <time>2018-07-24T09:03:58Z</time>
      </trkpt>
      <trkpt lat="46.05895" lon="4.70431">
        <ele>195</ele>
        <time>2018-07-24T09:03:59Z</time>
      </trkpt>
      <trkpt lat="46.05898" lon="4.70437">
        <ele>195</ele>
        <time>2018-07-24T09:04:00Z</time>
      </trkpt>
      <trkpt lat="46.05902" lon="4.70443">
        <ele>195</ele>
        <time>2018-07-24T09:04:01Z</time>
      </trkpt>
      <trkpt lat="46.05906" lon="4.70452">
        <ele>195</ele>
        <time>2018-07-24T09:04:02Z</time>
      </trkpt>
      <trkpt lat="46.05911" lon="4.70458">
        <ele>195</ele>
        <time>2018-07-24T09:04:03Z</time>
      </trkpt>
      <trkpt lat="46.05914" lon="4.70465">
        <ele>195</ele>
        <time>2018-07-24T09:04:04Z</time>
      </trkpt>
      <trkpt lat="46.05919" lon="4.70472">
        <ele>195</ele>
        <time>2018-07-24T09:04:05Z</time>
      </trkpt>
      <trkpt lat="46.05922" lon="4.70479">
        <ele>195</ele>
        <time>2018-07-24T09:04:06Z</time>
      </trkpt>
      <trkpt lat="46.05924" lon="4.70487">
        <ele>196</ele>
        <time>2018-07-24T09:04:07Z</time>
      </trkpt>
      <trkpt lat="46.05926" lon="4.70497">
        <ele>196</ele>
        <time>2018-07-24T09:04:08Z</time>
      </trkpt>
      <trkpt lat="46.05927" lon="4.70505">
        <ele>195</ele>
        <time>2018-07-24T09:04:09Z</time>
      </trkpt>
      <trkpt lat="46.05928" lon="4.70513">
        <ele>195</ele>
        <time>2018-07-24T09:04:10Z</time>
      </trkpt>
      <trkpt lat="46.05928" lon="4.7052">
        <ele>195</ele>
        <time>2018-07-24T09:04:11Z</time>
      </trkpt>
      <trkpt lat="46.05927" lon="4.70528">
        <ele>195</ele>
        <time>2018-07-24T09:04:12Z</time>
      </trkpt>
      <trkpt lat="46.05925" lon="4.70536">
        <ele>195</ele>
        <time>2018-07-24T09:04:13Z</time>
      </trkpt>
      <trkpt lat="46.05923" lon="4.70543">
        <ele>195</ele>
        <time>2018-07-24T09:04:14Z</time>
      </trkpt>
      <trkpt lat="46.05921" lon="4.7055">
        <ele>195</ele>
        <time>2018-07-24T09:04:15Z</time>
      </trkpt>
      <trkpt lat="46.05917" lon="4.70558">
        <ele>195</ele>
        <time>2018-07-24T09:04:16Z</time>
      </trkpt>
      <trkpt lat="46.05915" lon="4.70566">
        <ele>195</ele>
        <time>2018-07-24T09:04:17Z</time>
      </trkpt>
      <trkpt lat="46.05912" lon="4.70574">
        <ele>195</ele>
        <time>2018-07-24T09:04:18Z</time>
      </trkpt>
      <trkpt lat="46.0591" lon="4.70582">
        <ele>195</ele>
        <time>2018-07-24T09:04:19Z</time>
      </trkpt>
      <trkpt lat="46.05909" lon="4.70591">
        <ele>195</ele>
        <time>2018-07-24T09:04:20Z</time>
      </trkpt>
      <trkpt lat="46.05907" lon="4.706">
        <ele>194</ele>
        <time>2018-07-24T09:04:21Z</time>
      </trkpt>
      <trkpt lat="46.05906" lon="4.70608">
        <ele>194</ele>
        <time>2018-07-24T09:04:22Z</time>
      </trkpt>
      <trkpt lat="46.05905" lon="4.70616">
        <ele>194</ele>
        <time>2018-07-24T09:04:23Z</time>
      </trkpt>
      <trkpt lat="46.05905" lon="4.70625">
        <ele>194</ele>
        <time>2018-07-24T09:04:24Z</time>
      </trkpt>
      <trkpt lat="46.05904" lon="4.70634">
        <ele>194</ele>
        <time>2018-07-24T09:04:25Z</time>
      </trkpt>
      <trkpt lat="46.05904" lon="4.70641">
        <ele>194</ele>
        <time>2018-07-24T09:04:26Z</time>
      </trkpt>
      <trkpt lat="46.05902" lon="4.70649">
        <ele>194</ele>
        <time>2018-07-24T09:04:27Z</time>
      </trkpt>
      <trkpt lat="46.05902" lon="4.70656">
        <ele>194</ele>
        <time>2018-07-24T09:04:28Z</time>
      </trkpt>
      <trkpt lat="46.05901" lon="4.70663">
        <ele>194</ele>
        <time>2018-07-24T09:04:29Z</time>
      </trkpt>
      <trkpt lat="46.05901" lon="4.70671">
        <ele>194</ele>
        <time>2018-07-24T09:04:30Z</time>
      </trkpt>
      <trkpt lat="46.05903" lon="4.70679">
        <ele>194</ele>
        <time>2018-07-24T09:04:31Z</time>
      </trkpt>
      <trkpt lat="46.05904" lon="4.70687">
        <ele>194</ele>
        <time>2018-07-24T09:04:32Z</time>
      </trkpt>
      <trkpt lat="46.05905" lon="4.70696">
        <ele>194</ele>
        <time>2018-07-24T09:04:33Z</time>
      </trkpt>
      <trkpt lat="46.05906" lon="4.70704">
        <ele>194</ele>
        <time>2018-07-24T09:04:34Z</time>
      </trkpt>
      <trkpt lat="46.05907" lon="4.70712">
        <ele>194</ele>
        <time>2018-07-24T09:04:35Z</time>
      </trkpt>
      <trkpt lat="46.05909" lon="4.70721">
        <ele>194</ele>
        <time>2018-07-24T09:04:36Z</time>
      </trkpt>
      <trkpt lat="46.0591" lon="4.70729">
        <ele>194</ele>
        <time>2018-07-24T09:04:37Z</time>
      </trkpt>
      <trkpt lat="46.05912" lon="4.70738">
        <ele>194</ele>
        <time>2018-07-24T09:04:38Z</time>
      </trkpt>
      <trkpt lat="46.05914" lon="4.70746">
        <ele>194</ele>
        <time>2018-07-24T09:04:39Z</time>
      </trkpt>
      <trkpt lat="46.05915" lon="4.70755">
        <ele>194</ele>
        <time>2018-07-24T09:04:40Z</time>
      </trkpt>
      <trkpt lat="46.05918" lon="4.70763">
        <ele>194</ele>
        <time>2018-07-24T09:04:41Z</time>
      </trkpt>
      <trkpt lat="46.05919" lon="4.70773">
        <ele>194</ele>
        <time>2018-07-24T09:04:42Z</time>
      </trkpt>
      <trkpt lat="46.0592" lon="4.70781">
        <ele>194</ele>
        <time>2018-07-24T09:04:43Z</time>
      </trkpt>
      <trkpt lat="46.05921" lon="4.70788">
        <ele>194</ele>
        <time>2018-07-24T09:04:44Z</time>
      </trkpt>
      <trkpt lat="46.05923" lon="4.70796">
        <ele>194</ele>
        <time>2018-07-24T09:04:45Z</time>
      </trkpt>
      <trkpt lat="46.05924" lon="4.70804">
        <ele>194</ele>
        <time>2018-07-24T09:04:46Z</time>
      </trkpt>
      <trkpt lat="46.05925" lon="4.70812">
        <ele>194</ele>
        <time>2018-07-24T09:04:47Z</time>
      </trkpt>
      <trkpt lat="46.05925" lon="4.70821">
        <ele>195</ele>
        <time>2018-07-24T09:04:48Z</time>
      </trkpt>
      <trkpt lat="46.05926" lon="4.70829">
        <ele>195</ele>
        <time>2018-07-24T09:04:49Z</time>
      </trkpt>
      <trkpt lat="46.05926" lon="4.70837">
        <ele>195</ele>
        <time>2018-07-24T09:04:50Z</time>
      </trkpt>
      <trkpt lat="46.05927" lon="4.70845">
        <ele>194</ele>
        <time>2018-07-24T09:04:51Z</time>
      </trkpt>
      <trkpt lat="46.05928" lon="4.70853">
        <ele>194</ele>
        <time>2018-07-24T09:04:52Z</time>
      </trkpt>
      <trkpt lat="46.05928" lon="4.70862">
        <ele>194</ele>
        <time>2018-07-24T09:04:53Z</time>
      </trkpt>
      <trkpt lat="46.0593" lon="4.7087">
        <ele>194</ele>
        <time>2018-07-24T09:04:54Z</time>
      </trkpt>
      <trkpt lat="46.05931" lon="4.70879">
        <ele>194</ele>
        <time>2018-07-24T09:04:55Z</time>
      </trkpt>
      <trkpt lat="46.05932" lon="4.70887">
        <ele>194</ele>
        <time>2018-07-24T09:04:56Z</time>
      </trkpt>
      <trkpt lat="46.05933" lon="4.70895">
        <ele>194</ele>
        <time>2018-07-24T09:04:57Z</time>
      </trkpt>
      <trkpt lat="46.05934" lon="4.70902">
        <ele>194</ele>
        <time>2018-07-24T09:04:58Z</time>
      </trkpt>
      <trkpt lat="46.05936" lon="4.7091">
        <ele>194</ele>
        <time>2018-07-24T09:04:59Z</time>
      </trkpt>
      <trkpt lat="46.05937" lon="4.70918">
        <ele>194</ele>
        <time>2018-07-24T09:05:00Z</time>
      </trkpt>
      <trkpt lat="46.05939" lon="4.70926">
        <ele>194</ele>
        <time>2018-07-24T09:05:01Z</time>
      </trkpt>
      <trkpt lat="46.05941" lon="4.70934">
        <ele>193</ele>
        <time>2018-07-24T09:05:02Z</time>
      </trkpt>
      <trkpt lat="46.05944" lon="4.70942">
        <ele>193</ele>
        <time>2018-07-24T09:05:03Z</time>
      </trkpt>
      <trkpt lat="46.05947" lon="4.70949">
        <ele>193</ele>
        <time>2018-07-24T09:05:04Z</time>
      </trkpt>
      <trkpt lat="46.0595" lon="4.70958">
        <ele>193</ele>
        <time>2018-07-24T09:05:05Z</time>
      </trkpt>
      <trkpt lat="46.05952" lon="4.70966">
        <ele>193</ele>
        <time>2018-07-24T09:05:06Z</time>
      </trkpt>
      <trkpt lat="46.05955" lon="4.70975">
        <ele>193</ele>
        <time>2018-07-24T09:05:07Z</time>
      </trkpt>
      <trkpt lat="46.05957" lon="4.70985">
        <ele>193</ele>
        <time>2018-07-24T09:05:08Z</time>
      </trkpt>
      <trkpt lat="46.05959" lon="4.70993">
        <ele>193</ele>
        <time>2018-07-24T09:05:09Z</time>
      </trkpt>
      <trkpt lat="46.05962" lon="4.71002">
        <ele>193</ele>
        <time>2018-07-24T09:05:10Z</time>
      </trkpt>
      <trkpt lat="46.05964" lon="4.71011">
        <ele>193</ele>
        <time>2018-07-24T09:05:11Z</time>
      </trkpt>
      <trkpt lat="46.05967" lon="4.71018">
        <ele>193</ele>
        <time>2018-07-24T09:05:12Z</time>
      </trkpt>
      <trkpt lat="46.05969" lon="4.71026">
        <ele>193</ele>
        <time>2018-07-24T09:05:13Z</time>
      </trkpt>
      <trkpt lat="46.05974" lon="4.71035">
        <ele>193</ele>
        <time>2018-07-24T09:05:14Z</time>
      </trkpt>
      <trkpt lat="46.05976" lon="4.71043">
        <ele>193</ele>
        <time>2018-07-24T09:05:15Z</time>
      </trkpt>
      <trkpt lat="46.0598" lon="4.71049">
        <ele>193</ele>
        <time>2018-07-24T09:05:16Z</time>
      </trkpt>
      <trkpt lat="46.05982" lon="4.71055">
        <ele>193</ele>
        <time>2018-07-24T09:05:17Z</time>
      </trkpt>
      <trkpt lat="46.05985" lon="4.71062">
        <ele>193</ele>
        <time>2018-07-24T09:05:18Z</time>
      </trkpt>
      <trkpt lat="46.05987" lon="4.71068">
        <ele>193</ele>
        <time>2018-07-24T09:05:19Z</time>
      </trkpt>
      <trkpt lat="46.05991" lon="4.71076">
        <ele>193</ele>
        <time>2018-07-24T09:05:20Z</time>
      </trkpt>
      <trkpt lat="46.05995" lon="4.71084">
        <ele>193</ele>
        <time>2018-07-24T09:05:21Z</time>
      </trkpt>
      <trkpt lat="46.05997" lon="4.71091">
        <ele>193</ele>
        <time>2018-07-24T09:05:22Z</time>
      </trkpt>
      <trkpt lat="46.05999" lon="4.71099">
        <ele>193</ele>
        <time>2018-07-24T09:05:23Z</time>
      </trkpt>
      <trkpt lat="46.06001" lon="4.71106">
        <ele>193</ele>
        <time>2018-07-24T09:05:24Z</time>
      </trkpt>
      <trkpt lat="46.06004" lon="4.71113">
        <ele>193</ele>
        <time>2018-07-24T09:05:25Z</time>
      </trkpt>
      <trkpt lat="46.06007" lon="4.7112">
        <ele>193</ele>
        <time>2018-07-24T09:05:26Z</time>
      </trkpt>
      <trkpt lat="46.06008" lon="4.71127">
        <ele>193</ele>
        <time>2018-07-24T09:05:27Z</time>
      </trkpt>
      <trkpt lat="46.06011" lon="4.71134">
        <ele>193</ele>
        <time>2018-07-24T09:05:28Z</time>
      </trkpt>
      <trkpt lat="46.06013" lon="4.71141">
        <ele>193</ele>
        <time>2018-07-24T09:05:29Z</time>
      </trkpt>
      <trkpt lat="46.06015" lon="4.71149">
        <ele>194</ele>
        <time>2018-07-24T09:05:30Z</time>
      </trkpt>
      <trkpt lat="46.06018" lon="4.71156">
        <ele>194</ele>
        <time>2018-07-24T09:05:31Z</time>
      </trkpt>
      <trkpt lat="46.0602" lon="4.71163">
        <ele>194</ele>
        <time>2018-07-24T09:05:32Z</time>
      </trkpt>
      <trkpt lat="46.06023" lon="4.71171">
        <ele>194</ele>
        <time>2018-07-24T09:05:33Z</time>
      </trkpt>
      <trkpt lat="46.06025" lon="4.71177">
        <ele>193</ele>
        <time>2018-07-24T09:05:34Z</time>
      </trkpt>
      <trkpt lat="46.06029" lon="4.71184">
        <ele>193</ele>
        <time>2018-07-24T09:05:35Z</time>
      </trkpt>
      <trkpt lat="46.06031" lon="4.71192">
        <ele>193</ele>
        <time>2018-07-24T09:05:36Z</time>
      </trkpt>
      <trkpt lat="46.06032" lon="4.712">
        <ele>193</ele>
        <time>2018-07-24T09:05:37Z</time>
      </trkpt>
      <trkpt lat="46.06036" lon="4.71208">
        <ele>193</ele>
        <time>2018-07-24T09:05:38Z</time>
      </trkpt>
      <trkpt lat="46.06039" lon="4.71217">
        <ele>193</ele>
        <time>2018-07-24T09:05:39Z</time>
      </trkpt>
      <trkpt lat="46.06041" lon="4.71225">
        <ele>193</ele>
        <time>2018-07-24T09:05:40Z</time>
      </trkpt>
      <trkpt lat="46.06044" lon="4.71233">
        <ele>193</ele>
        <time>2018-07-24T09:05:41Z</time>
      </trkpt>
      <trkpt lat="46.06047" lon="4.7124">
        <ele>193</ele>
        <time>2018-07-24T09:05:42Z</time>
      </trkpt>
      <trkpt lat="46.0605" lon="4.71248">
        <ele>193</ele>
        <time>2018-07-24T09:05:43Z</time>
      </trkpt>
      <trkpt lat="46.06052" lon="4.71255">
        <ele>193</ele>
        <time>2018-07-24T09:05:44Z</time>
      </trkpt>
      <trkpt lat="46.06054" lon="4.71263">
        <ele>193</ele>
        <time>2018-07-24T09:05:45Z</time>
      </trkpt>
      <trkpt lat="46.06056" lon="4.71269">
        <ele>193</ele>
        <time>2018-07-24T09:05:46Z</time>
      </trkpt>
      <trkpt lat="46.06058" lon="4.71275">
        <ele>193</ele>
        <time>2018-07-24T09:05:47Z</time>
      </trkpt>
      <trkpt lat="46.06064" lon="4.71281">
        <ele>193</ele>
        <time>2018-07-24T09:05:48Z</time>
      </trkpt>
      <trkpt lat="46.06066" lon="4.71286">
        <ele>193</ele>
        <time>2018-07-24T09:05:49Z</time>
      </trkpt>
      <trkpt lat="46.06068" lon="4.71293">
        <ele>193</ele>
        <time>2018-07-24T09:05:50Z</time>
      </trkpt>
      <trkpt lat="46.0607" lon="4.71299">
        <ele>193</ele>
        <time>2018-07-24T09:05:51Z</time>
      </trkpt>
      <trkpt lat="46.06072" lon="4.71306">
        <ele>193</ele>
        <time>2018-07-24T09:05:52Z</time>
      </trkpt>
      <trkpt lat="46.06075" lon="4.71312">
        <ele>193</ele>
        <time>2018-07-24T09:05:53Z</time>
      </trkpt>
      <trkpt lat="46.06078" lon="4.71317">
        <ele>193</ele>
        <time>2018-07-24T09:05:54Z</time>
      </trkpt>
      <trkpt lat="46.06081" lon="4.71324">
        <ele>193</ele>
        <time>2018-07-24T09:05:55Z</time>
      </trkpt>
      <trkpt lat="46.06083" lon="4.71332">
        <ele>193</ele>
        <time>2018-07-24T09:05:56Z</time>
      </trkpt>
      <trkpt lat="46.06085" lon="4.71339">
        <ele>193</ele>
        <time>2018-07-24T09:05:57Z</time>
      </trkpt>
      <trkpt lat="46.06088" lon="4.71346">
        <ele>193</ele>
        <time>2018-07-24T09:05:58Z</time>
      </trkpt>
      <trkpt lat="46.06089" lon="4.71355">
        <ele>193</ele>
        <time>2018-07-24T09:05:59Z</time>
      </trkpt>
      <trkpt lat="46.0609" lon="4.71362">
        <ele>193</ele>
        <time>2018-07-24T09:06:00Z</time>
      </trkpt>
      <trkpt lat="46.06092" lon="4.71369">
        <ele>193</ele>
        <time>2018-07-24T09:06:01Z</time>
      </trkpt>
      <trkpt lat="46.06095" lon="4.7138">
        <ele>193</ele>
        <time>2018-07-24T09:06:02Z</time>
      </trkpt>
      <trkpt lat="46.06097" lon="4.71387">
        <ele>193</ele>
        <time>2018-07-24T09:06:03Z</time>
      </trkpt>
      <trkpt lat="46.061" lon="4.71394">
        <ele>193</ele>
        <time>2018-07-24T09:06:04Z</time>
      </trkpt>
      <trkpt lat="46.06103" lon="4.71402">
        <ele>193</ele>
        <time>2018-07-24T09:06:05Z</time>
      </trkpt>
      <trkpt lat="46.06104" lon="4.71411">
        <ele>193</ele>
        <time>2018-07-24T09:06:06Z</time>
      </trkpt>
      <trkpt lat="46.06107" lon="4.71419">
        <ele>193</ele>
        <time>2018-07-24T09:06:07Z</time>
      </trkpt>
      <trkpt lat="46.0611" lon="4.71427">
        <ele>193</ele>
        <time>2018-07-24T09:06:08Z</time>
      </trkpt>
      <trkpt lat="46.06112" lon="4.71435">
        <ele>193</ele>
        <time>2018-07-24T09:06:09Z</time>
      </trkpt>
      <trkpt lat="46.06113" lon="4.71441">
        <ele>193</ele>
        <time>2018-07-24T09:06:10Z</time>
      </trkpt>
      <trkpt lat="46.06116" lon="4.71449">
        <ele>193</ele>
        <time>2018-07-24T09:06:11Z</time>
      </trkpt>
      <trkpt lat="46.06118" lon="4.71457">
        <ele>193</ele>
        <time>2018-07-24T09:06:12Z</time>
      </trkpt>
      <trkpt lat="46.0612" lon="4.71466">
        <ele>193</ele>
        <time>2018-07-24T09:06:13Z</time>
      </trkpt>
      <trkpt lat="46.06122" lon="4.71474">
        <ele>193</ele>
        <time>2018-07-24T09:06:14Z</time>
      </trkpt>
      <trkpt lat="46.06124" lon="4.71482">
        <ele>193</ele>
        <time>2018-07-24T09:06:15Z</time>
      </trkpt>
      <trkpt lat="46.06127" lon="4.71489">
        <ele>192</ele>
        <time>2018-07-24T09:06:16Z</time>
      </trkpt>
      <trkpt lat="46.0613" lon="4.71498">
        <ele>192</ele>
        <time>2018-07-24T09:06:17Z</time>
      </trkpt>
      <trkpt lat="46.06134" lon="4.71505">
        <ele>192</ele>
        <time>2018-07-24T09:06:18Z</time>
      </trkpt>
      <trkpt lat="46.06137" lon="4.71513">
        <ele>192</ele>
        <time>2018-07-24T09:06:19Z</time>
      </trkpt>
      <trkpt lat="46.06141" lon="4.7152">
        <ele>192</ele>
        <time>2018-07-24T09:06:20Z</time>
      </trkpt>
      <trkpt lat="46.06145" lon="4.71528">
        <ele>192</ele>
        <time>2018-07-24T09:06:21Z</time>
      </trkpt>
      <trkpt lat="46.0615" lon="4.71535">
        <ele>192</ele>
        <time>2018-07-24T09:06:22Z</time>
      </trkpt>
      <trkpt lat="46.06155" lon="4.71542">
        <ele>192</ele>
        <time>2018-07-24T09:06:23Z</time>
      </trkpt>
      <trkpt lat="46.0616" lon="4.71548">
        <ele>192</ele>
        <time>2018-07-24T09:06:24Z</time>
      </trkpt>
      <trkpt lat="46.06165" lon="4.71555">
        <ele>192</ele>
        <time>2018-07-24T09:06:25Z</time>
      </trkpt>
      <trkpt lat="46.0617" lon="4.71562">
        <ele>191</ele>
        <time>2018-07-24T09:06:26Z</time>
      </trkpt>
      <trkpt lat="46.06174" lon="4.7157">
        <ele>191</ele>
        <time>2018-07-24T09:06:27Z</time>
      </trkpt>
      <trkpt lat="46.06179" lon="4.71577">
        <ele>191</ele>
        <time>2018-07-24T09:06:28Z</time>
      </trkpt>
      <trkpt lat="46.06185" lon="4.71584">
        <ele>191</ele>
        <time>2018-07-24T09:06:29Z</time>
      </trkpt>
      <trkpt lat="46.0619" lon="4.7159">
        <ele>191</ele>
        <time>2018-07-24T09:06:30Z</time>
      </trkpt>
      <trkpt lat="46.06193" lon="4.71597">
        <ele>191</ele>
        <time>2018-07-24T09:06:31Z</time>
      </trkpt>
      <trkpt lat="46.06198" lon="4.71602">
        <ele>191</ele>
        <time>2018-07-24T09:06:32Z</time>
      </trkpt>
      <trkpt lat="46.06201" lon="4.71611">
        <ele>191</ele>
        <time>2018-07-24T09:06:33Z</time>
      </trkpt>
      <trkpt lat="46.06205" lon="4.71617">
        <ele>191</ele>
        <time>2018-07-24T09:06:34Z</time>
      </trkpt>
      <trkpt lat="46.0621" lon="4.71624">
        <ele>191</ele>
        <time>2018-07-24T09:06:35Z</time>
      </trkpt>
      <trkpt lat="46.06214" lon="4.7163">
        <ele>191</ele>
        <time>2018-07-24T09:06:36Z</time>
      </trkpt>
      <trkpt lat="46.06218" lon="4.71638">
        <ele>191</ele>
        <time>2018-07-24T09:06:37Z</time>
      </trkpt>
      <trkpt lat="46.06222" lon="4.71645">
        <ele>191</ele>
        <time>2018-07-24T09:06:38Z</time>
      </trkpt>
      <trkpt lat="46.06226" lon="4.71653">
        <ele>191</ele>
        <time>2018-07-24T09:06:39Z</time>
      </trkpt>
      <trkpt lat="46.06231" lon="4.71661">
        <ele>191</ele>
        <time>2018-07-24T09:06:40Z</time>
      </trkpt>
      <trkpt lat="46.06235" lon="4.7167">
        <ele>191</ele>
        <time>2018-07-24T09:06:41Z</time>
      </trkpt>
      <trkpt lat="46.06239" lon="4.71678">
        <ele>191</ele>
        <time>2018-07-24T09:06:42Z</time>
      </trkpt>
      <trkpt lat="46.0624" lon="4.71686">
        <ele>191</ele>
        <time>2018-07-24T09:06:43Z</time>
      </trkpt>
      <trkpt lat="46.06242" lon="4.71693">
        <ele>191</ele>
        <time>2018-07-24T09:06:44Z</time>
      </trkpt>
      <trkpt lat="46.06245" lon="4.71702">
        <ele>191</ele>
        <time>2018-07-24T09:06:45Z</time>
      </trkpt>
      <trkpt lat="46.06248" lon="4.7171">
        <ele>191</ele>
        <time>2018-07-24T09:06:46Z</time>
      </trkpt>
      <trkpt lat="46.06252" lon="4.71717">
        <ele>190</ele>
        <time>2018-07-24T09:06:47Z</time>
      </trkpt>
      <trkpt lat="46.06254" lon="4.71724">
        <ele>190</ele>
        <time>2018-07-24T09:06:48Z</time>
      </trkpt>
      <trkpt lat="46.06256" lon="4.71732">
        <ele>190</ele>
        <time>2018-07-24T09:06:49Z</time>
      </trkpt>
      <trkpt lat="46.06259" lon="4.71739">
        <ele>190</ele>
        <time>2018-07-24T09:06:50Z</time>
      </trkpt>
      <trkpt lat="46.0626" lon="4.71746">
        <ele>190</ele>
        <time>2018-07-24T09:06:51Z</time>
      </trkpt>
      <trkpt lat="46.06263" lon="4.71756">
        <ele>190</ele>
        <time>2018-07-24T09:06:52Z</time>
      </trkpt>
      <trkpt lat="46.06266" lon="4.71762">
        <ele>190</ele>
        <time>2018-07-24T09:06:53Z</time>
      </trkpt>
      <trkpt lat="46.06269" lon="4.71771">
        <ele>190</ele>
        <time>2018-07-24T09:06:54Z</time>
      </trkpt>
      <trkpt lat="46.06271" lon="4.71781">
        <ele>190</ele>
        <time>2018-07-24T09:06:55Z</time>
      </trkpt>
      <trkpt lat="46.06273" lon="4.7179">
        <ele>190</ele>
        <time>2018-07-24T09:06:56Z</time>
      </trkpt>
      <trkpt lat="46.06277" lon="4.71799">
        <ele>190</ele>
        <time>2018-07-24T09:06:57Z</time>
      </trkpt>
      <trkpt lat="46.06279" lon="4.71808">
        <ele>190</ele>
        <time>2018-07-24T09:06:58Z</time>
      </trkpt>
      <trkpt lat="46.06284" lon="4.71818">
        <ele>189</ele>
        <time>2018-07-24T09:06:59Z</time>
      </trkpt>
      <trkpt lat="46.06286" lon="4.71827">
        <ele>189</ele>
        <time>2018-07-24T09:07:00Z</time>
      </trkpt>
      <trkpt lat="46.06288" lon="4.71837">
        <ele>189</ele>
        <time>2018-07-24T09:07:01Z</time>
      </trkpt>
      <trkpt lat="46.06291" lon="4.71847">
        <ele>189</ele>
        <time>2018-07-24T09:07:02Z</time>
      </trkpt>
      <trkpt lat="46.06293" lon="4.71855">
        <ele>189</ele>
        <time>2018-07-24T09:07:03Z</time>
      </trkpt>
      <trkpt lat="46.06294" lon="4.71865">
        <ele>189</ele>
        <time>2018-07-24T09:07:04Z</time>
      </trkpt>
      <trkpt lat="46.06296" lon="4.71876">
        <ele>189</ele>
        <time>2018-07-24T09:07:05Z</time>
      </trkpt>
      <trkpt lat="46.06303" lon="4.71906">
        <ele>189</ele>
        <time>2018-07-24T09:07:08Z</time>
      </trkpt>
      <trkpt lat="46.06305" lon="4.71915">
        <ele>189</ele>
        <time>2018-07-24T09:07:09Z</time>
      </trkpt>
      <trkpt lat="46.06307" lon="4.71924">
        <ele>190</ele>
        <time>2018-07-24T09:07:10Z</time>
      </trkpt>
      <trkpt lat="46.06307" lon="4.71931">
        <ele>190</ele>
        <time>2018-07-24T09:07:11Z</time>
      </trkpt>
      <trkpt lat="46.06309" lon="4.71938">
        <ele>190</ele>
        <time>2018-07-24T09:07:12Z</time>
      </trkpt>
      <trkpt lat="46.06311" lon="4.71946">
        <ele>190</ele>
        <time>2018-07-24T09:07:13Z</time>
      </trkpt>
      <trkpt lat="46.06315" lon="4.71951">
        <ele>190</ele>
        <time>2018-07-24T09:07:14Z</time>
      </trkpt>
      <trkpt lat="46.06319" lon="4.71962">
        <ele>190</ele>
        <time>2018-07-24T09:07:16Z</time>
      </trkpt>
      <trkpt lat="46.06322" lon="4.71969">
        <ele>190</ele>
        <time>2018-07-24T09:07:17Z</time>
      </trkpt>
      <trkpt lat="46.06323" lon="4.71975">
        <ele>190</ele>
        <time>2018-07-24T09:07:18Z</time>
      </trkpt>
      <trkpt lat="46.06324" lon="4.71982">
        <ele>190</ele>
        <time>2018-07-24T09:07:19Z</time>
      </trkpt>
      <trkpt lat="46.06326" lon="4.71989">
        <ele>190</ele>
        <time>2018-07-24T09:07:20Z</time>
      </trkpt>
      <trkpt lat="46.06328" lon="4.71996">
        <ele>189</ele>
        <time>2018-07-24T09:07:21Z</time>
      </trkpt>
      <trkpt lat="46.06331" lon="4.72005">
        <ele>189</ele>
        <time>2018-07-24T09:07:22Z</time>
      </trkpt>
      <trkpt lat="46.06333" lon="4.72012">
        <ele>189</ele>
        <time>2018-07-24T09:07:23Z</time>
      </trkpt>
      <trkpt lat="46.06335" lon="4.7202">
        <ele>189</ele>
        <time>2018-07-24T09:07:24Z</time>
      </trkpt>
      <trkpt lat="46.06337" lon="4.72028">
        <ele>189</ele>
        <time>2018-07-24T09:07:25Z</time>
      </trkpt>
      <trkpt lat="46.0634" lon="4.72036">
        <ele>189</ele>
        <time>2018-07-24T09:07:26Z</time>
      </trkpt>
      <trkpt lat="46.06347" lon="4.72044">
        <ele>189</ele>
        <time>2018-07-24T09:07:27Z</time>
      </trkpt>
      <trkpt lat="46.06349" lon="4.72052">
        <ele>189</ele>
        <time>2018-07-24T09:07:28Z</time>
      </trkpt>
      <trkpt lat="46.06353" lon="4.72058">
        <ele>189</ele>
        <time>2018-07-24T09:07:29Z</time>
      </trkpt>
      <trkpt lat="46.06356" lon="4.72066">
        <ele>189</ele>
        <time>2018-07-24T09:07:30Z</time>
      </trkpt>
      <trkpt lat="46.06357" lon="4.72072">
        <ele>189</ele>
        <time>2018-07-24T09:07:31Z</time>
      </trkpt>
      <trkpt lat="46.06361" lon="4.72083">
        <ele>189</ele>
        <time>2018-07-24T09:07:32Z</time>
      </trkpt>
      <trkpt lat="46.06364" lon="4.7209">
        <ele>189</ele>
        <time>2018-07-24T09:07:33Z</time>
      </trkpt>
      <trkpt lat="46.06367" lon="4.72099">
        <ele>189</ele>
        <time>2018-07-24T09:07:34Z</time>
      </trkpt>
      <trkpt lat="46.06369" lon="4.72107">
        <ele>189</ele>
        <time>2018-07-24T09:07:35Z</time>
      </trkpt>
      <trkpt lat="46.06371" lon="4.72114">
        <ele>189</ele>
        <time>2018-07-24T09:07:36Z</time>
      </trkpt>
      <trkpt lat="46.06373" lon="4.72122">
        <ele>189</ele>
        <time>2018-07-24T09:07:37Z</time>
      </trkpt>
      <trkpt lat="46.06376" lon="4.72129">
        <ele>189</ele>
        <time>2018-07-24T09:07:38Z</time>
      </trkpt>
      <trkpt lat="46.06378" lon="4.72136">
        <ele>189</ele>
        <time>2018-07-24T09:07:39Z</time>
      </trkpt>
      <trkpt lat="46.06382" lon="4.72147">
        <ele>189</ele>
        <time>2018-07-24T09:07:41Z</time>
      </trkpt>
      <trkpt lat="46.06383" lon="4.72154">
        <ele>189</ele>
        <time>2018-07-24T09:07:42Z</time>
      </trkpt>
      <trkpt lat="46.06385" lon="4.72159">
        <ele>189</ele>
        <time>2018-07-24T09:07:43Z</time>
      </trkpt>
      <trkpt lat="46.06387" lon="4.72166">
        <ele>188</ele>
        <time>2018-07-24T09:07:44Z</time>
      </trkpt>
      <trkpt lat="46.06389" lon="4.72172">
        <ele>189</ele>
        <time>2018-07-24T09:07:45Z</time>
      </trkpt>
      <trkpt lat="46.06391" lon="4.72178">
        <ele>189</ele>
        <time>2018-07-24T09:07:46Z</time>
      </trkpt>
      <trkpt lat="46.06393" lon="4.72184">
        <ele>189</ele>
        <time>2018-07-24T09:07:47Z</time>
      </trkpt>
      <trkpt lat="46.06395" lon="4.7219">
        <ele>189</ele>
        <time>2018-07-24T09:07:48Z</time>
      </trkpt>
      <trkpt lat="46.06397" lon="4.72197">
        <ele>189</ele>
        <time>2018-07-24T09:07:49Z</time>
      </trkpt>
      <trkpt lat="46.06399" lon="4.72202">
        <ele>190</ele>
        <time>2018-07-24T09:07:50Z</time>
      </trkpt>
      <trkpt lat="46.06401" lon="4.72213">
        <ele>190</ele>
        <time>2018-07-24T09:07:52Z</time>
      </trkpt>
      <trkpt lat="46.06403" lon="4.72219">
        <ele>190</ele>
        <time>2018-07-24T09:07:53Z</time>
      </trkpt>
      <trkpt lat="46.06405" lon="4.72224">
        <ele>190</ele>
        <time>2018-07-24T09:07:55Z</time>
      </trkpt>
      <trkpt lat="46.06407" lon="4.72232">
        <ele>190</ele>
        <time>2018-07-24T09:07:56Z</time>
      </trkpt>
      <trkpt lat="46.0641" lon="4.72243">
        <ele>189</ele>
        <time>2018-07-24T09:07:58Z</time>
      </trkpt>
      <trkpt lat="46.06411" lon="4.72249">
        <ele>189</ele>
        <time>2018-07-24T09:07:59Z</time>
      </trkpt>
      <trkpt lat="46.06413" lon="4.72261">
        <ele>191</ele>
        <time>2018-07-24T09:08:01Z</time>
      </trkpt>
      <trkpt lat="46.06413" lon="4.72268">
        <ele>191</ele>
        <time>2018-07-24T09:08:02Z</time>
      </trkpt>
      <trkpt lat="46.06416" lon="4.72278">
        <ele>192</ele>
        <time>2018-07-24T09:08:04Z</time>
      </trkpt>
      <trkpt lat="46.0642" lon="4.72282">
        <ele>190</ele>
        <time>2018-07-24T09:08:05Z</time>
      </trkpt>
      <trkpt lat="46.06427" lon="4.72286">
        <ele>190</ele>
        <time>2018-07-24T09:08:07Z</time>
      </trkpt>
      <trkpt lat="46.06433" lon="4.72288">
        <ele>190</ele>
        <time>2018-07-24T09:08:08Z</time>
      </trkpt>
      <trkpt lat="46.06437" lon="4.72288">
        <ele>190</ele>
        <time>2018-07-24T09:08:09Z</time>
      </trkpt>
      <trkpt lat="46.06442" lon="4.72292">
        <ele>190</ele>
        <time>2018-07-24T09:08:10Z</time>
      </trkpt>
      <trkpt lat="46.06446" lon="4.72296">
        <ele>190</ele>
        <time>2018-07-24T09:08:11Z</time>
      </trkpt>
      <trkpt lat="46.06449" lon="4.72302">
        <ele>190</ele>
        <time>2018-07-24T09:08:12Z</time>
      </trkpt>
      <trkpt lat="46.06449" lon="4.72308">
        <ele>191</ele>
        <time>2018-07-24T09:08:13Z</time>
      </trkpt>
      <trkpt lat="46.06447" lon="4.72315">
        <ele>191</ele>
        <time>2018-07-24T09:08:14Z</time>
      </trkpt>
      <trkpt lat="46.06448" lon="4.72324">
        <ele>191</ele>
        <time>2018-07-24T09:08:15Z</time>
      </trkpt>
      <trkpt lat="46.06447" lon="4.7233">
        <ele>191</ele>
        <time>2018-07-24T09:08:16Z</time>
      </trkpt>
      <trkpt lat="46.06445" lon="4.72336">
        <ele>194</ele>
        <time>2018-07-24T09:08:17Z</time>
      </trkpt>
      <trkpt lat="46.06441" lon="4.72341">
        <ele>194</ele>
        <time>2018-07-24T09:08:18Z</time>
      </trkpt>
      <trkpt lat="46.06438" lon="4.72353">
        <ele>194</ele>
        <time>2018-07-24T09:08:20Z</time>
      </trkpt>
      <trkpt lat="46.06435" lon="4.72358">
        <ele>194</ele>
        <time>2018-07-24T09:08:21Z</time>
      </trkpt>
      <trkpt lat="46.06434" lon="4.7237">
        <ele>194</ele>
        <time>2018-07-24T09:08:24Z</time>
      </trkpt>
      <trkpt lat="46.06432" lon="4.7238">
        <ele>195</ele>
        <time>2018-07-24T09:08:25Z</time>
      </trkpt>
      <trkpt lat="46.0643" lon="4.72389">
        <ele>195</ele>
        <time>2018-07-24T09:08:28Z</time>
      </trkpt>
      <trkpt lat="46.06429" lon="4.72392">
        <ele>195</ele>
        <time>2018-07-24T09:08:29Z</time>
      </trkpt>
      <trkpt lat="46.06427" lon="4.72395">
        <ele>195</ele>
        <time>2018-07-24T09:08:30Z</time>
      </trkpt>
      <trkpt lat="46.06423" lon="4.72406">
        <ele>195</ele>
        <time>2018-07-24T09:08:31Z</time>
      </trkpt>
      <trkpt lat="46.06423" lon="4.72417">
        <ele>196</ele>
        <time>2018-07-24T09:08:33Z</time>
      </trkpt>
      <trkpt lat="46.06423" lon="4.7242">
        <ele>196</ele>
        <time>2018-07-24T09:08:34Z</time>
      </trkpt>
      <trkpt lat="46.06421" lon="4.72433">
        <ele>197</ele>
        <time>2018-07-24T09:08:36Z</time>
      </trkpt>
      <trkpt lat="46.06418" lon="4.72437">
        <ele>197</ele>
        <time>2018-07-24T09:08:37Z</time>
      </trkpt>
      <trkpt lat="46.06413" lon="4.72446">
        <ele>197</ele>
        <time>2018-07-24T09:08:39Z</time>
      </trkpt>
      <trkpt lat="46.06412" lon="4.72448">
        <ele>197</ele>
        <time>2018-07-24T09:08:40Z</time>
      </trkpt>
      <trkpt lat="46.06407" lon="4.72456">
        <ele>197</ele>
        <time>2018-07-24T09:08:42Z</time>
      </trkpt>
      <trkpt lat="46.06404" lon="4.72459">
        <ele>197</ele>
        <time>2018-07-24T09:08:43Z</time>
      </trkpt>
      <trkpt lat="46.06398" lon="4.72464">
        <ele>197</ele>
        <time>2018-07-24T09:08:45Z</time>
      </trkpt>
      <trkpt lat="46.06395" lon="4.72468">
        <ele>197</ele>
        <time>2018-07-24T09:08:46Z</time>
      </trkpt>
      <trkpt lat="46.06396" lon="4.7248">
        <ele>198</ele>
        <time>2018-07-24T09:08:48Z</time>
      </trkpt>
      <trkpt lat="46.06396" lon="4.72482">
        <ele>198</ele>
        <time>2018-07-24T09:08:49Z</time>
      </trkpt>
      <trkpt lat="46.06399" lon="4.7249">
        <ele>198</ele>
        <time>2018-07-24T09:08:50Z</time>
      </trkpt>
      <trkpt lat="46.06404" lon="4.72496">
        <ele>199</ele>
        <time>2018-07-24T09:08:51Z</time>
      </trkpt>
      <trkpt lat="46.06404" lon="4.72503">
        <ele>198</ele>
        <time>2018-07-24T09:08:52Z</time>
      </trkpt>
      <trkpt lat="46.06407" lon="4.72511">
        <ele>198</ele>
        <time>2018-07-24T09:08:53Z</time>
      </trkpt>
      <trkpt lat="46.06409" lon="4.72519">
        <ele>198</ele>
        <time>2018-07-24T09:08:54Z</time>
      </trkpt>
      <trkpt lat="46.0641" lon="4.72528">
        <ele>197</ele>
        <time>2018-07-24T09:08:55Z</time>
      </trkpt>
      <trkpt lat="46.06411" lon="4.72538">
        <ele>197</ele>
        <time>2018-07-24T09:08:56Z</time>
      </trkpt>
      <trkpt lat="46.06413" lon="4.72548">
        <ele>196</ele>
        <time>2018-07-24T09:08:57Z</time>
      </trkpt>
      <trkpt lat="46.06417" lon="4.72557">
        <ele>196</ele>
        <time>2018-07-24T09:08:58Z</time>
      </trkpt>
      <trkpt lat="46.06417" lon="4.72565">
        <ele>195</ele>
        <time>2018-07-24T09:08:59Z</time>
      </trkpt>
      <trkpt lat="46.06417" lon="4.72575">
        <ele>195</ele>
        <time>2018-07-24T09:09:00Z</time>
      </trkpt>
      <trkpt lat="46.06418" lon="4.72586">
        <ele>195</ele>
        <time>2018-07-24T09:09:01Z</time>
      </trkpt>
      <trkpt lat="46.0642" lon="4.72596">
        <ele>194</ele>
        <time>2018-07-24T09:09:02Z</time>
      </trkpt>
      <trkpt lat="46.06422" lon="4.72604">
        <ele>193</ele>
        <time>2018-07-24T09:09:03Z</time>
      </trkpt>
      <trkpt lat="46.06423" lon="4.72613">
        <ele>193</ele>
        <time>2018-07-24T09:09:04Z</time>
      </trkpt>
      <trkpt lat="46.06426" lon="4.72625">
        <ele>193</ele>
        <time>2018-07-24T09:09:05Z</time>
      </trkpt>
      <trkpt lat="46.06428" lon="4.72635">
        <ele>192</ele>
        <time>2018-07-24T09:09:06Z</time>
      </trkpt>
      <trkpt lat="46.0643" lon="4.72645">
        <ele>192</ele>
        <time>2018-07-24T09:09:07Z</time>
      </trkpt>
      <trkpt lat="46.06432" lon="4.72657">
        <ele>192</ele>
        <time>2018-07-24T09:09:08Z</time>
      </trkpt>
      <trkpt lat="46.06434" lon="4.72668">
        <ele>191</ele>
        <time>2018-07-24T09:09:09Z</time>
      </trkpt>
      <trkpt lat="46.06436" lon="4.72679">
        <ele>191</ele>
        <time>2018-07-24T09:09:10Z</time>
      </trkpt>
      <trkpt lat="46.06438" lon="4.7269">
        <ele>190</ele>
        <time>2018-07-24T09:09:11Z</time>
      </trkpt>
      <trkpt lat="46.0644" lon="4.72699">
        <ele>190</ele>
        <time>2018-07-24T09:09:12Z</time>
      </trkpt>
      <trkpt lat="46.06443" lon="4.72711">
        <ele>190</ele>
        <time>2018-07-24T09:09:13Z</time>
      </trkpt>
      <trkpt lat="46.06445" lon="4.72722">
        <ele>190</ele>
        <time>2018-07-24T09:09:14Z</time>
      </trkpt>
      <trkpt lat="46.06447" lon="4.72733">
        <ele>189</ele>
        <time>2018-07-24T09:09:15Z</time>
      </trkpt>
      <trkpt lat="46.06449" lon="4.72743">
        <ele>189</ele>
        <time>2018-07-24T09:09:16Z</time>
      </trkpt>
      <trkpt lat="46.0645" lon="4.72752">
        <ele>188</ele>
        <time>2018-07-24T09:09:17Z</time>
      </trkpt>
      <trkpt lat="46.06451" lon="4.72761">
        <ele>188</ele>
        <time>2018-07-24T09:09:18Z</time>
      </trkpt>
      <trkpt lat="46.06452" lon="4.72771">
        <ele>188</ele>
        <time>2018-07-24T09:09:19Z</time>
      </trkpt>
      <trkpt lat="46.06453" lon="4.72782">
        <ele>188</ele>
        <time>2018-07-24T09:09:20Z</time>
      </trkpt>
      <trkpt lat="46.06455" lon="4.72792">
        <ele>188</ele>
        <time>2018-07-24T09:09:21Z</time>
      </trkpt>
      <trkpt lat="46.06456" lon="4.72802">
        <ele>188</ele>
        <time>2018-07-24T09:09:22Z</time>
      </trkpt>
      <trkpt lat="46.06458" lon="4.72812">
        <ele>188</ele>
        <time>2018-07-24T09:09:23Z</time>
      </trkpt>
      <trkpt lat="46.06459" lon="4.72822">
        <ele>188</ele>
        <time>2018-07-24T09:09:24Z</time>
      </trkpt>
      <trkpt lat="46.0646" lon="4.72832">
        <ele>188</ele>
        <time>2018-07-24T09:09:25Z</time>
      </trkpt>
      <trkpt lat="46.06462" lon="4.7284">
        <ele>188</ele>
        <time>2018-07-24T09:09:26Z</time>
      </trkpt>
      <trkpt lat="46.06463" lon="4.72849">
        <ele>188</ele>
        <time>2018-07-24T09:09:27Z</time>
      </trkpt>
      <trkpt lat="46.06465" lon="4.72858">
        <ele>188</ele>
        <time>2018-07-24T09:09:28Z</time>
      </trkpt>
      <trkpt lat="46.06467" lon="4.72866">
        <ele>188</ele>
        <time>2018-07-24T09:09:29Z</time>
      </trkpt>
      <trkpt lat="46.06469" lon="4.72875">
        <ele>188</ele>
        <time>2018-07-24T09:09:30Z</time>
      </trkpt>
      <trkpt lat="46.06471" lon="4.72884">
        <ele>188</ele>
        <time>2018-07-24T09:09:31Z</time>
      </trkpt>
      <trkpt lat="46.06472" lon="4.72892">
        <ele>188</ele>
        <time>2018-07-24T09:09:32Z</time>
      </trkpt>
      <trkpt lat="46.06474" lon="4.72901">
        <ele>188</ele>
        <time>2018-07-24T09:09:33Z</time>
      </trkpt>
      <trkpt lat="46.06475" lon="4.72909">
        <ele>188</ele>
        <time>2018-07-24T09:09:34Z</time>
      </trkpt>
      <trkpt lat="46.06477" lon="4.72919">
        <ele>188</ele>
        <time>2018-07-24T09:09:35Z</time>
      </trkpt>
      <trkpt lat="46.06479" lon="4.72928">
        <ele>188</ele>
        <time>2018-07-24T09:09:36Z</time>
      </trkpt>
      <trkpt lat="46.06481" lon="4.72936">
        <ele>188</ele>
        <time>2018-07-24T09:09:37Z</time>
      </trkpt>
      <trkpt lat="46.06482" lon="4.72945">
        <ele>188</ele>
        <time>2018-07-24T09:09:38Z</time>
      </trkpt>
      <trkpt lat="46.06483" lon="4.72953">
        <ele>188</ele>
        <time>2018-07-24T09:09:39Z</time>
      </trkpt>
      <trkpt lat="46.06483" lon="4.72961">
        <ele>188</ele>
        <time>2018-07-24T09:09:40Z</time>
      </trkpt>
      <trkpt lat="46.06482" lon="4.72968">
        <ele>188</ele>
        <time>2018-07-24T09:09:41Z</time>
      </trkpt>
      <trkpt lat="46.0648" lon="4.72976">
        <ele>188</ele>
        <time>2018-07-24T09:09:42Z</time>
      </trkpt>
      <trkpt lat="46.06476" lon="4.72981">
        <ele>188</ele>
        <time>2018-07-24T09:09:43Z</time>
      </trkpt>
      <trkpt lat="46.06479" lon="4.72988">
        <ele>189</ele>
        <time>2018-07-24T09:09:44Z</time>
      </trkpt>
      <trkpt lat="46.06483" lon="4.72996">
        <ele>189</ele>
        <time>2018-07-24T09:09:45Z</time>
      </trkpt>
      <trkpt lat="46.06488" lon="4.73006">
        <ele>189</ele>
        <time>2018-07-24T09:09:47Z</time>
      </trkpt>
      <trkpt lat="46.06493" lon="4.73012">
        <ele>189</ele>
        <time>2018-07-24T09:09:48Z</time>
      </trkpt>
      <trkpt lat="46.06496" lon="4.7302">
        <ele>189</ele>
        <time>2018-07-24T09:09:49Z</time>
      </trkpt>
      <trkpt lat="46.065" lon="4.73028">
        <ele>189</ele>
        <time>2018-07-24T09:09:50Z</time>
      </trkpt>
      <trkpt lat="46.06503" lon="4.73036">
        <ele>189</ele>
        <time>2018-07-24T09:09:51Z</time>
      </trkpt>
      <trkpt lat="46.06507" lon="4.73045">
        <ele>189</ele>
        <time>2018-07-24T09:09:52Z</time>
      </trkpt>
      <trkpt lat="46.06508" lon="4.73052">
        <ele>188</ele>
        <time>2018-07-24T09:09:53Z</time>
      </trkpt>
      <trkpt lat="46.06512" lon="4.73062">
        <ele>189</ele>
        <time>2018-07-24T09:09:54Z</time>
      </trkpt>
      <trkpt lat="46.06515" lon="4.73072">
        <ele>189</ele>
        <time>2018-07-24T09:09:55Z</time>
      </trkpt>
      <trkpt lat="46.06518" lon="4.73081">
        <ele>189</ele>
        <time>2018-07-24T09:09:56Z</time>
      </trkpt>
      <trkpt lat="46.06523" lon="4.73089">
        <ele>188</ele>
        <time>2018-07-24T09:09:57Z</time>
      </trkpt>
      <trkpt lat="46.06527" lon="4.73098">
        <ele>188</ele>
        <time>2018-07-24T09:09:58Z</time>
      </trkpt>
      <trkpt lat="46.06529" lon="4.73109">
        <ele>188</ele>
        <time>2018-07-24T09:09:59Z</time>
      </trkpt>
      <trkpt lat="46.06533" lon="4.73118">
        <ele>188</ele>
        <time>2018-07-24T09:10:00Z</time>
      </trkpt>
      <trkpt lat="46.06536" lon="4.73126">
        <ele>188</ele>
        <time>2018-07-24T09:10:01Z</time>
      </trkpt>
      <trkpt lat="46.06539" lon="4.73135">
        <ele>188</ele>
        <time>2018-07-24T09:10:02Z</time>
      </trkpt>
      <trkpt lat="46.0654" lon="4.73142">
        <ele>188</ele>
        <time>2018-07-24T09:10:03Z</time>
      </trkpt>
      <trkpt lat="46.06542" lon="4.73151">
        <ele>187</ele>
        <time>2018-07-24T09:10:04Z</time>
      </trkpt>
      <trkpt lat="46.06542" lon="4.7316">
        <ele>187</ele>
        <time>2018-07-24T09:10:05Z</time>
      </trkpt>
      <trkpt lat="46.06543" lon="4.73168">
        <ele>187</ele>
        <time>2018-07-24T09:10:06Z</time>
      </trkpt>
      <trkpt lat="46.06543" lon="4.73177">
        <ele>187</ele>
        <time>2018-07-24T09:10:07Z</time>
      </trkpt>
      <trkpt lat="46.06543" lon="4.73186">
        <ele>187</ele>
        <time>2018-07-24T09:10:08Z</time>
      </trkpt>
      <trkpt lat="46.06545" lon="4.73197">
        <ele>187</ele>
        <time>2018-07-24T09:10:09Z</time>
      </trkpt>
      <trkpt lat="46.06546" lon="4.73206">
        <ele>186</ele>
        <time>2018-07-24T09:10:10Z</time>
      </trkpt>
      <trkpt lat="46.06549" lon="4.73217">
        <ele>186</ele>
        <time>2018-07-24T09:10:11Z</time>
      </trkpt>
      <trkpt lat="46.06551" lon="4.73226">
        <ele>186</ele>
        <time>2018-07-24T09:10:12Z</time>
      </trkpt>
      <trkpt lat="46.06555" lon="4.73236">
        <ele>186</ele>
        <time>2018-07-24T09:10:13Z</time>
      </trkpt>
      <trkpt lat="46.0656" lon="4.73245">
        <ele>186</ele>
        <time>2018-07-24T09:10:14Z</time>
      </trkpt>
      <trkpt lat="46.06564" lon="4.73254">
        <ele>184</ele>
        <time>2018-07-24T09:10:15Z</time>
      </trkpt>
      <trkpt lat="46.06567" lon="4.73262">
        <ele>184</ele>
        <time>2018-07-24T09:10:16Z</time>
      </trkpt>
      <trkpt lat="46.0657" lon="4.73271">
        <ele>184</ele>
        <time>2018-07-24T09:10:17Z</time>
      </trkpt>
      <trkpt lat="46.06572" lon="4.7328">
        <ele>184</ele>
        <time>2018-07-24T09:10:18Z</time>
      </trkpt>
      <trkpt lat="46.06576" lon="4.73288">
        <ele>184</ele>
        <time>2018-07-24T09:10:19Z</time>
      </trkpt>
      <trkpt lat="46.06577" lon="4.73297">
        <ele>184</ele>
        <time>2018-07-24T09:10:20Z</time>
      </trkpt>
      <trkpt lat="46.0658" lon="4.73306">
        <ele>183</ele>
        <time>2018-07-24T09:10:21Z</time>
      </trkpt>
      <trkpt lat="46.06582" lon="4.73318">
        <ele>183</ele>
        <time>2018-07-24T09:10:22Z</time>
      </trkpt>
      <trkpt lat="46.06584" lon="4.73329">
        <ele>182</ele>
        <time>2018-07-24T09:10:23Z</time>
      </trkpt>
      <trkpt lat="46.06585" lon="4.73339">
        <ele>182</ele>
        <time>2018-07-24T09:10:24Z</time>
      </trkpt>
      <trkpt lat="46.06592" lon="4.73343">
        <ele>182</ele>
        <time>2018-07-24T09:10:27Z</time>
      </trkpt>
      <trkpt lat="46.06606" lon="4.73343">
        <ele>182</ele>
        <time>2018-07-24T09:10:28Z</time>
      </trkpt>
      <trkpt lat="46.06615" lon="4.73347">
        <ele>182</ele>
        <time>2018-07-24T09:10:29Z</time>
      </trkpt>
      <trkpt lat="46.06621" lon="4.73351">
        <ele>182</ele>
        <time>2018-07-24T09:10:30Z</time>
      </trkpt>
      <trkpt lat="46.06628" lon="4.73356">
        <ele>182</ele>
        <time>2018-07-24T09:10:31Z</time>
      </trkpt>
      <trkpt lat="46.06637" lon="4.73361">
        <ele>182</ele>
        <time>2018-07-24T09:10:32Z</time>
      </trkpt>
      <trkpt lat="46.06644" lon="4.73367">
        <ele>182</ele>
        <time>2018-07-24T09:10:33Z</time>
      </trkpt>
      <trkpt lat="46.0665" lon="4.73373">
        <ele>182</ele>
        <time>2018-07-24T09:10:34Z</time>
      </trkpt>
      <trkpt lat="46.06656" lon="4.73381">
        <ele>182</ele>
        <time>2018-07-24T09:10:35Z</time>
      </trkpt>
      <trkpt lat="46.06661" lon="4.7339">
        <ele>182</ele>
        <time>2018-07-24T09:10:36Z</time>
      </trkpt>
      <trkpt lat="46.06667" lon="4.73399">
        <ele>182</ele>
        <time>2018-07-24T09:10:37Z</time>
      </trkpt>
      <trkpt lat="46.06672" lon="4.73407">
        <ele>181</ele>
        <time>2018-07-24T09:10:38Z</time>
      </trkpt>
      <trkpt lat="46.06678" lon="4.73415">
        <ele>181</ele>
        <time>2018-07-24T09:10:39Z</time>
      </trkpt>
      <trkpt lat="46.06684" lon="4.73421">
        <ele>181</ele>
        <time>2018-07-24T09:10:40Z</time>
      </trkpt>
      <trkpt lat="46.06689" lon="4.73427">
        <ele>181</ele>
        <time>2018-07-24T09:10:41Z</time>
      </trkpt>
      <trkpt lat="46.06694" lon="4.73434">
        <ele>181</ele>
        <time>2018-07-24T09:10:42Z</time>
      </trkpt>
      <trkpt lat="46.06698" lon="4.73441">
        <ele>180</ele>
        <time>2018-07-24T09:10:43Z</time>
      </trkpt>
      <trkpt lat="46.06702" lon="4.73449">
        <ele>180</ele>
        <time>2018-07-24T09:10:44Z</time>
      </trkpt>
      <trkpt lat="46.06706" lon="4.73455">
        <ele>180</ele>
        <time>2018-07-24T09:10:45Z</time>
      </trkpt>
      <trkpt lat="46.06711" lon="4.73463">
        <ele>180</ele>
        <time>2018-07-24T09:10:46Z</time>
      </trkpt>
      <trkpt lat="46.06715" lon="4.73469">
        <ele>180</ele>
        <time>2018-07-24T09:10:47Z</time>
      </trkpt>
      <trkpt lat="46.06719" lon="4.73475">
        <ele>180</ele>
        <time>2018-07-24T09:10:48Z</time>
      </trkpt>
      <trkpt lat="46.06724" lon="4.73482">
        <ele>180</ele>
        <time>2018-07-24T09:10:49Z</time>
      </trkpt>
      <trkpt lat="46.06729" lon="4.73488">
        <ele>180</ele>
        <time>2018-07-24T09:10:50Z</time>
      </trkpt>
      <trkpt lat="46.06734" lon="4.73495">
        <ele>180</ele>
        <time>2018-07-24T09:10:51Z</time>
      </trkpt>
      <trkpt lat="46.06737" lon="4.73502">
        <ele>180</ele>
        <time>2018-07-24T09:10:52Z</time>
      </trkpt>
      <trkpt lat="46.06741" lon="4.73509">
        <ele>180</ele>
        <time>2018-07-24T09:10:53Z</time>
      </trkpt>
      <trkpt lat="46.06746" lon="4.73518">
        <ele>180</ele>
        <time>2018-07-24T09:10:54Z</time>
      </trkpt>
      <trkpt lat="46.0675" lon="4.73526">
        <ele>179</ele>
        <time>2018-07-24T09:10:55Z</time>
      </trkpt>
      <trkpt lat="46.06755" lon="4.73533">
        <ele>179</ele>
        <time>2018-07-24T09:10:56Z</time>
      </trkpt>
      <trkpt lat="46.0676" lon="4.73539">
        <ele>179</ele>
        <time>2018-07-24T09:10:57Z</time>
      </trkpt>
      <trkpt lat="46.06766" lon="4.73549">
        <ele>179</ele>
        <time>2018-07-24T09:10:58Z</time>
      </trkpt>
      <trkpt lat="46.06769" lon="4.73556">
        <ele>179</ele>
        <time>2018-07-24T09:10:59Z</time>
      </trkpt>
      <trkpt lat="46.06772" lon="4.73565">
        <ele>180</ele>
        <time>2018-07-24T09:11:00Z</time>
      </trkpt>
      <trkpt lat="46.06776" lon="4.73574">
        <ele>180</ele>
        <time>2018-07-24T09:11:01Z</time>
      </trkpt>
      <trkpt lat="46.0678" lon="4.73582">
        <ele>180</ele>
        <time>2018-07-24T09:11:02Z</time>
      </trkpt>
      <trkpt lat="46.06786" lon="4.73589">
        <ele>179</ele>
        <time>2018-07-24T09:11:03Z</time>
      </trkpt>
      <trkpt lat="46.0679" lon="4.73595">
        <ele>179</ele>
        <time>2018-07-24T09:11:04Z</time>
      </trkpt>
      <trkpt lat="46.06795" lon="4.73602">
        <ele>179</ele>
        <time>2018-07-24T09:11:05Z</time>
      </trkpt>
      <trkpt lat="46.06799" lon="4.73608">
        <ele>178</ele>
        <time>2018-07-24T09:11:06Z</time>
      </trkpt>
      <trkpt lat="46.06805" lon="4.73616">
        <ele>178</ele>
        <time>2018-07-24T09:11:07Z</time>
      </trkpt>
      <trkpt lat="46.0681" lon="4.73622">
        <ele>178</ele>
        <time>2018-07-24T09:11:08Z</time>
      </trkpt>
      <trkpt lat="46.06816" lon="4.73628">
        <ele>178</ele>
        <time>2018-07-24T09:11:09Z</time>
      </trkpt>
      <trkpt lat="46.0682" lon="4.73634">
        <ele>178</ele>
        <time>2018-07-24T09:11:10Z</time>
      </trkpt>
      <trkpt lat="46.06825" lon="4.7364">
        <ele>177</ele>
        <time>2018-07-24T09:11:11Z</time>
      </trkpt>
      <trkpt lat="46.06831" lon="4.73645">
        <ele>177</ele>
        <time>2018-07-24T09:11:12Z</time>
      </trkpt>
      <trkpt lat="46.06835" lon="4.73651">
        <ele>176</ele>
        <time>2018-07-24T09:11:13Z</time>
      </trkpt>
      <trkpt lat="46.0684" lon="4.73656">
        <ele>176</ele>
        <time>2018-07-24T09:11:14Z</time>
      </trkpt>
      <trkpt lat="46.06845" lon="4.73661">
        <ele>176</ele>
        <time>2018-07-24T09:11:15Z</time>
      </trkpt>
      <trkpt lat="46.06848" lon="4.73666">
        <ele>176</ele>
        <time>2018-07-24T09:11:16Z</time>
      </trkpt>
      <trkpt lat="46.06853" lon="4.7367">
        <ele>176</ele>
        <time>2018-07-24T09:11:17Z</time>
      </trkpt>
      <trkpt lat="46.06859" lon="4.73674">
        <ele>176</ele>
        <time>2018-07-24T09:11:18Z</time>
      </trkpt>
      <trkpt lat="46.06864" lon="4.73681">
        <ele>176</ele>
        <time>2018-07-24T09:11:19Z</time>
      </trkpt>
      <trkpt lat="46.06869" lon="4.73686">
        <ele>176</ele>
        <time>2018-07-24T09:11:20Z</time>
      </trkpt>
      <trkpt lat="46.06875" lon="4.7369">
        <ele>176</ele>
        <time>2018-07-24T09:11:21Z</time>
      </trkpt>
      <trkpt lat="46.0688" lon="4.73696">
        <ele>176</ele>
        <time>2018-07-24T09:11:22Z</time>
      </trkpt>
      <trkpt lat="46.06885" lon="4.73702">
        <ele>176</ele>
        <time>2018-07-24T09:11:23Z</time>
      </trkpt>
      <trkpt lat="46.0689" lon="4.73708">
        <ele>176</ele>
        <time>2018-07-24T09:11:24Z</time>
      </trkpt>
      <trkpt lat="46.06895" lon="4.73714">
        <ele>176</ele>
        <time>2018-07-24T09:11:25Z</time>
      </trkpt>
      <trkpt lat="46.06901" lon="4.7372">
        <ele>176</ele>
        <time>2018-07-24T09:11:26Z</time>
      </trkpt>
      <trkpt lat="46.06905" lon="4.73727">
        <ele>176</ele>
        <time>2018-07-24T09:11:27Z</time>
      </trkpt>
      <trkpt lat="46.0691" lon="4.73735">
        <ele>177</ele>
        <time>2018-07-24T09:11:28Z</time>
      </trkpt>
      <trkpt lat="46.06914" lon="4.73741">
        <ele>177</ele>
        <time>2018-07-24T09:11:29Z</time>
      </trkpt>
      <trkpt lat="46.06919" lon="4.73748">
        <ele>177</ele>
        <time>2018-07-24T09:11:30Z</time>
      </trkpt>
      <trkpt lat="46.06921" lon="4.73754">
        <ele>177</ele>
        <time>2018-07-24T09:11:31Z</time>
      </trkpt>
      <trkpt lat="46.06926" lon="4.7376">
        <ele>177</ele>
        <time>2018-07-24T09:11:32Z</time>
      </trkpt>
      <trkpt lat="46.06931" lon="4.73765">
        <ele>176</ele>
        <time>2018-07-24T09:11:33Z</time>
      </trkpt>
      <trkpt lat="46.06935" lon="4.7377">
        <ele>176</ele>
        <time>2018-07-24T09:11:34Z</time>
      </trkpt>
      <trkpt lat="46.0694" lon="4.73774">
        <ele>176</ele>
        <time>2018-07-24T09:11:35Z</time>
      </trkpt>
      <trkpt lat="46.06945" lon="4.73777">
        <ele>176</ele>
        <time>2018-07-24T09:11:36Z</time>
      </trkpt>
      <trkpt lat="46.0695" lon="4.7378">
        <ele>176</ele>
        <time>2018-07-24T09:11:37Z</time>
      </trkpt>
      <trkpt lat="46.06956" lon="4.73782">
        <ele>176</ele>
        <time>2018-07-24T09:11:38Z</time>
      </trkpt>
      <trkpt lat="46.06961" lon="4.73784">
        <ele>176</ele>
        <time>2018-07-24T09:11:39Z</time>
      </trkpt>
      <trkpt lat="46.06967" lon="4.73786">
        <ele>176</ele>
        <time>2018-07-24T09:11:40Z</time>
      </trkpt>
      <trkpt lat="46.06974" lon="4.73788">
        <ele>176</ele>
        <time>2018-07-24T09:11:41Z</time>
      </trkpt>
      <trkpt lat="46.0698" lon="4.73788">
        <ele>176</ele>
        <time>2018-07-24T09:11:42Z</time>
      </trkpt>
      <trkpt lat="46.06986" lon="4.73789">
        <ele>176</ele>
        <time>2018-07-24T09:11:43Z</time>
      </trkpt>
      <trkpt lat="46.06992" lon="4.7379">
        <ele>176</ele>
        <time>2018-07-24T09:11:44Z</time>
      </trkpt>
      <trkpt lat="46.06999" lon="4.73791">
        <ele>176</ele>
        <time>2018-07-24T09:11:45Z</time>
      </trkpt>
      <trkpt lat="46.07004" lon="4.73793">
        <ele>177</ele>
        <time>2018-07-24T09:11:46Z</time>
      </trkpt>
      <trkpt lat="46.07011" lon="4.73794">
        <ele>177</ele>
        <time>2018-07-24T09:11:47Z</time>
      </trkpt>
      <trkpt lat="46.07017" lon="4.73795">
        <ele>177</ele>
        <time>2018-07-24T09:11:48Z</time>
      </trkpt>
      <trkpt lat="46.07024" lon="4.73795">
        <ele>177</ele>
        <time>2018-07-24T09:11:49Z</time>
      </trkpt>
      <trkpt lat="46.07029" lon="4.73795">
        <ele>177</ele>
        <time>2018-07-24T09:11:50Z</time>
      </trkpt>
      <trkpt lat="46.07036" lon="4.73795">
        <ele>177</ele>
        <time>2018-07-24T09:11:51Z</time>
      </trkpt>
      <trkpt lat="46.07042" lon="4.73797">
        <ele>177</ele>
        <time>2018-07-24T09:11:52Z</time>
      </trkpt>
      <trkpt lat="46.07047" lon="4.73798">
        <ele>177</ele>
        <time>2018-07-24T09:11:53Z</time>
      </trkpt>
      <trkpt lat="46.07054" lon="4.73799">
        <ele>177</ele>
        <time>2018-07-24T09:11:54Z</time>
      </trkpt>
      <trkpt lat="46.07061" lon="4.73802">
        <ele>177</ele>
        <time>2018-07-24T09:11:55Z</time>
      </trkpt>
      <trkpt lat="46.07068" lon="4.73803">
        <ele>178</ele>
        <time>2018-07-24T09:11:56Z</time>
      </trkpt>
      <trkpt lat="46.07074" lon="4.73806">
        <ele>178</ele>
        <time>2018-07-24T09:11:57Z</time>
      </trkpt>
      <trkpt lat="46.0708" lon="4.73809">
        <ele>178</ele>
        <time>2018-07-24T09:11:58Z</time>
      </trkpt>
      <trkpt lat="46.07087" lon="4.73812">
        <ele>178</ele>
        <time>2018-07-24T09:11:59Z</time>
      </trkpt>
      <trkpt lat="46.07093" lon="4.73816">
        <ele>178</ele>
        <time>2018-07-24T09:12:00Z</time>
      </trkpt>
      <trkpt lat="46.07099" lon="4.7382">
        <ele>178</ele>
        <time>2018-07-24T09:12:01Z</time>
      </trkpt>
      <trkpt lat="46.07104" lon="4.73825">
        <ele>178</ele>
        <time>2018-07-24T09:12:02Z</time>
      </trkpt>
      <trkpt lat="46.0711" lon="4.73829">
        <ele>178</ele>
        <time>2018-07-24T09:12:03Z</time>
      </trkpt>
      <trkpt lat="46.07115" lon="4.73833">
        <ele>177</ele>
        <time>2018-07-24T09:12:04Z</time>
      </trkpt>
      <trkpt lat="46.0712" lon="4.73838">
        <ele>177</ele>
        <time>2018-07-24T09:12:05Z</time>
      </trkpt>
      <trkpt lat="46.07125" lon="4.73844">
        <ele>176</ele>
        <time>2018-07-24T09:12:06Z</time>
      </trkpt>
      <trkpt lat="46.0713" lon="4.7385">
        <ele>176</ele>
        <time>2018-07-24T09:12:07Z</time>
      </trkpt>
      <trkpt lat="46.07135" lon="4.73856">
        <ele>176</ele>
        <time>2018-07-24T09:12:08Z</time>
      </trkpt>
      <trkpt lat="46.07139" lon="4.73863">
        <ele>176</ele>
        <time>2018-07-24T09:12:09Z</time>
      </trkpt>
      <trkpt lat="46.07144" lon="4.73872">
        <ele>176</ele>
        <time>2018-07-24T09:12:10Z</time>
      </trkpt>
      <trkpt lat="46.07147" lon="4.73879">
        <ele>176</ele>
        <time>2018-07-24T09:12:11Z</time>
      </trkpt>
      <trkpt lat="46.0715" lon="4.73888">
        <ele>176</ele>
        <time>2018-07-24T09:12:12Z</time>
      </trkpt>
      <trkpt lat="46.07154" lon="4.73896">
        <ele>177</ele>
        <time>2018-07-24T09:12:13Z</time>
      </trkpt>
      <trkpt lat="46.07157" lon="4.73904">
        <ele>177</ele>
        <time>2018-07-24T09:12:14Z</time>
      </trkpt>
      <trkpt lat="46.0716" lon="4.73912">
        <ele>177</ele>
        <time>2018-07-24T09:12:15Z</time>
      </trkpt>
      <trkpt lat="46.07162" lon="4.73921">
        <ele>177</ele>
        <time>2018-07-24T09:12:16Z</time>
      </trkpt>
      <trkpt lat="46.07166" lon="4.73929">
        <ele>177</ele>
        <time>2018-07-24T09:12:17Z</time>
      </trkpt>
      <trkpt lat="46.07167" lon="4.73936">
        <ele>177</ele>
        <time>2018-07-24T09:12:18Z</time>
      </trkpt>
      <trkpt lat="46.07169" lon="4.73944">
        <ele>177</ele>
        <time>2018-07-24T09:12:19Z</time>
      </trkpt>
      <trkpt lat="46.07174" lon="4.73953">
        <ele>177</ele>
        <time>2018-07-24T09:12:20Z</time>
      </trkpt>
      <trkpt lat="46.07176" lon="4.73959">
        <ele>178</ele>
        <time>2018-07-24T09:12:21Z</time>
      </trkpt>
      <trkpt lat="46.07178" lon="4.73968">
        <ele>178</ele>
        <time>2018-07-24T09:12:22Z</time>
      </trkpt>
      <trkpt lat="46.0718" lon="4.73976">
        <ele>178</ele>
        <time>2018-07-24T09:12:23Z</time>
      </trkpt>
      <trkpt lat="46.07183" lon="4.73984">
        <ele>178</ele>
        <time>2018-07-24T09:12:24Z</time>
      </trkpt>
      <trkpt lat="46.07185" lon="4.73992">
        <ele>178</ele>
        <time>2018-07-24T09:12:25Z</time>
      </trkpt>
      <trkpt lat="46.07188" lon="4.73999">
        <ele>178</ele>
        <time>2018-07-24T09:12:26Z</time>
      </trkpt>
      <trkpt lat="46.07191" lon="4.74006">
        <ele>178</ele>
        <time>2018-07-24T09:12:27Z</time>
      </trkpt>
      <trkpt lat="46.07193" lon="4.74013">
        <ele>178</ele>
        <time>2018-07-24T09:12:28Z</time>
      </trkpt>
      <trkpt lat="46.07196" lon="4.74019">
        <ele>178</ele>
        <time>2018-07-24T09:12:29Z</time>
      </trkpt>
      <trkpt lat="46.07197" lon="4.74025">
        <ele>178</ele>
        <time>2018-07-24T09:12:30Z</time>
      </trkpt>
      <trkpt lat="46.07198" lon="4.7403">
        <ele>178</ele>
        <time>2018-07-24T09:12:31Z</time>
      </trkpt>
      <trkpt lat="46.07201" lon="4.74036">
        <ele>178</ele>
        <time>2018-07-24T09:12:32Z</time>
      </trkpt>
      <trkpt lat="46.07203" lon="4.74043">
        <ele>178</ele>
        <time>2018-07-24T09:12:33Z</time>
      </trkpt>
      <trkpt lat="46.07205" lon="4.7405">
        <ele>178</ele>
        <time>2018-07-24T09:12:34Z</time>
      </trkpt>
      <trkpt lat="46.07207" lon="4.74056">
        <ele>178</ele>
        <time>2018-07-24T09:12:35Z</time>
      </trkpt>
      <trkpt lat="46.07209" lon="4.74062">
        <ele>177</ele>
        <time>2018-07-24T09:12:36Z</time>
      </trkpt>
      <trkpt lat="46.07211" lon="4.74069">
        <ele>177</ele>
        <time>2018-07-24T09:12:37Z</time>
      </trkpt>
      <trkpt lat="46.07213" lon="4.74075">
        <ele>177</ele>
        <time>2018-07-24T09:12:38Z</time>
      </trkpt>
      <trkpt lat="46.07215" lon="4.74082">
        <ele>177</ele>
        <time>2018-07-24T09:12:39Z</time>
      </trkpt>
      <trkpt lat="46.07216" lon="4.74088">
        <ele>177</ele>
        <time>2018-07-24T09:12:40Z</time>
      </trkpt>
      <trkpt lat="46.07218" lon="4.74095">
        <ele>177</ele>
        <time>2018-07-24T09:12:41Z</time>
      </trkpt>
      <trkpt lat="46.0722" lon="4.74101">
        <ele>177</ele>
        <time>2018-07-24T09:12:42Z</time>
      </trkpt>
      <trkpt lat="46.07224" lon="4.74112">
        <ele>177</ele>
        <time>2018-07-24T09:12:44Z</time>
      </trkpt>
      <trkpt lat="46.07226" lon="4.74119">
        <ele>177</ele>
        <time>2018-07-24T09:12:45Z</time>
      </trkpt>
      <trkpt lat="46.0723" lon="4.74126">
        <ele>177</ele>
        <time>2018-07-24T09:12:46Z</time>
      </trkpt>
      <trkpt lat="46.07233" lon="4.74132">
        <ele>177</ele>
        <time>2018-07-24T09:12:47Z</time>
      </trkpt>
      <trkpt lat="46.07236" lon="4.74139">
        <ele>177</ele>
        <time>2018-07-24T09:12:48Z</time>
      </trkpt>
      <trkpt lat="46.07238" lon="4.74147">
        <ele>177</ele>
        <time>2018-07-24T09:12:49Z</time>
      </trkpt>
      <trkpt lat="46.0724" lon="4.74154">
        <ele>177</ele>
        <time>2018-07-24T09:12:50Z</time>
      </trkpt>
      <trkpt lat="46.07243" lon="4.74163">
        <ele>177</ele>
        <time>2018-07-24T09:12:51Z</time>
      </trkpt>
      <trkpt lat="46.07245" lon="4.74171">
        <ele>177</ele>
        <time>2018-07-24T09:12:52Z</time>
      </trkpt>
      <trkpt lat="46.07248" lon="4.74178">
        <ele>176</ele>
        <time>2018-07-24T09:12:53Z</time>
      </trkpt>
      <trkpt lat="46.07251" lon="4.74187">
        <ele>176</ele>
        <time>2018-07-24T09:12:54Z</time>
      </trkpt>
      <trkpt lat="46.07253" lon="4.74196">
        <ele>176</ele>
        <time>2018-07-24T09:12:55Z</time>
      </trkpt>
      <trkpt lat="46.07256" lon="4.74205">
        <ele>176</ele>
        <time>2018-07-24T09:12:56Z</time>
      </trkpt>
      <trkpt lat="46.0726" lon="4.74215">
        <ele>176</ele>
        <time>2018-07-24T09:12:57Z</time>
      </trkpt>
      <trkpt lat="46.07263" lon="4.74225">
        <ele>176</ele>
        <time>2018-07-24T09:12:58Z</time>
      </trkpt>
      <trkpt lat="46.07266" lon="4.74234">
        <ele>175</ele>
        <time>2018-07-24T09:12:59Z</time>
      </trkpt>
      <trkpt lat="46.07269" lon="4.74244">
        <ele>175</ele>
        <time>2018-07-24T09:13:00Z</time>
      </trkpt>
      <trkpt lat="46.07274" lon="4.74254">
        <ele>175</ele>
        <time>2018-07-24T09:13:01Z</time>
      </trkpt>
      <trkpt lat="46.07276" lon="4.74265">
        <ele>175</ele>
        <time>2018-07-24T09:13:02Z</time>
      </trkpt>
      <trkpt lat="46.0728" lon="4.74276">
        <ele>175</ele>
        <time>2018-07-24T09:13:03Z</time>
      </trkpt>
      <trkpt lat="46.07283" lon="4.74288">
        <ele>174</ele>
        <time>2018-07-24T09:13:04Z</time>
      </trkpt>
      <trkpt lat="46.07286" lon="4.743">
        <ele>174</ele>
        <time>2018-07-24T09:13:05Z</time>
      </trkpt>
      <trkpt lat="46.07288" lon="4.74312">
        <ele>174</ele>
        <time>2018-07-24T09:13:06Z</time>
      </trkpt>
      <trkpt lat="46.07289" lon="4.74324">
        <ele>174</ele>
        <time>2018-07-24T09:13:07Z</time>
      </trkpt>
      <trkpt lat="46.0729" lon="4.74336">
        <ele>174</ele>
        <time>2018-07-24T09:13:08Z</time>
      </trkpt>
      <trkpt lat="46.07292" lon="4.74348">
        <ele>174</ele>
        <time>2018-07-24T09:13:09Z</time>
      </trkpt>
      <trkpt lat="46.07293" lon="4.74359">
        <ele>174</ele>
        <time>2018-07-24T09:13:10Z</time>
      </trkpt>
      <trkpt lat="46.07295" lon="4.7437">
        <ele>174</ele>
        <time>2018-07-24T09:13:11Z</time>
      </trkpt>
      <trkpt lat="46.07296" lon="4.74382">
        <ele>174</ele>
        <time>2018-07-24T09:13:12Z</time>
      </trkpt>
      <trkpt lat="46.07296" lon="4.74392">
        <ele>174</ele>
        <time>2018-07-24T09:13:13Z</time>
      </trkpt>
      <trkpt lat="46.07297" lon="4.74403">
        <ele>174</ele>
        <time>2018-07-24T09:13:14Z</time>
      </trkpt>
      <trkpt lat="46.073" lon="4.74412">
        <ele>174</ele>
        <time>2018-07-24T09:13:15Z</time>
      </trkpt>
      <trkpt lat="46.07301" lon="4.74422">
        <ele>175</ele>
        <time>2018-07-24T09:13:16Z</time>
      </trkpt>
      <trkpt lat="46.07305" lon="4.74431">
        <ele>175</ele>
        <time>2018-07-24T09:13:17Z</time>
      </trkpt>
      <trkpt lat="46.07307" lon="4.74441">
        <ele>175</ele>
        <time>2018-07-24T09:13:18Z</time>
      </trkpt>
      <trkpt lat="46.07311" lon="4.74452">
        <ele>175</ele>
        <time>2018-07-24T09:13:19Z</time>
      </trkpt>
      <trkpt lat="46.07313" lon="4.74461">
        <ele>175</ele>
        <time>2018-07-24T09:13:20Z</time>
      </trkpt>
      <trkpt lat="46.07316" lon="4.74472">
        <ele>175</ele>
        <time>2018-07-24T09:13:21Z</time>
      </trkpt>
      <trkpt lat="46.07319" lon="4.74481">
        <ele>175</ele>
        <time>2018-07-24T09:13:22Z</time>
      </trkpt>
      <trkpt lat="46.07322" lon="4.74489">
        <ele>175</ele>
        <time>2018-07-24T09:13:23Z</time>
      </trkpt>
      <trkpt lat="46.07326" lon="4.74498">
        <ele>176</ele>
        <time>2018-07-24T09:13:24Z</time>
      </trkpt>
      <trkpt lat="46.0733" lon="4.74506">
        <ele>176</ele>
        <time>2018-07-24T09:13:25Z</time>
      </trkpt>
      <trkpt lat="46.07335" lon="4.74514">
        <ele>175</ele>
        <time>2018-07-24T09:13:26Z</time>
      </trkpt>
      <trkpt lat="46.07339" lon="4.74521">
        <ele>175</ele>
        <time>2018-07-24T09:13:27Z</time>
      </trkpt>
      <trkpt lat="46.07343" lon="4.74528">
        <ele>175</ele>
        <time>2018-07-24T09:13:28Z</time>
      </trkpt>
      <trkpt lat="46.07347" lon="4.74536">
        <ele>175</ele>
        <time>2018-07-24T09:13:29Z</time>
      </trkpt>
      <trkpt lat="46.07352" lon="4.74542">
        <ele>175</ele>
        <time>2018-07-24T09:13:30Z</time>
      </trkpt>
      <trkpt lat="46.07357" lon="4.7455">
        <ele>175</ele>
        <time>2018-07-24T09:13:31Z</time>
      </trkpt>
      <trkpt lat="46.07362" lon="4.74557">
        <ele>175</ele>
        <time>2018-07-24T09:13:32Z</time>
      </trkpt>
      <trkpt lat="46.07368" lon="4.74566">
        <ele>175</ele>
        <time>2018-07-24T09:13:33Z</time>
      </trkpt>
      <trkpt lat="46.07373" lon="4.74574">
        <ele>175</ele>
        <time>2018-07-24T09:13:34Z</time>
      </trkpt>
      <trkpt lat="46.07375" lon="4.74583">
        <ele>175</ele>
        <time>2018-07-24T09:13:35Z</time>
      </trkpt>
      <trkpt lat="46.0738" lon="4.74592">
        <ele>174</ele>
        <time>2018-07-24T09:13:36Z</time>
      </trkpt>
      <trkpt lat="46.07384" lon="4.74602">
        <ele>174</ele>
        <time>2018-07-24T09:13:37Z</time>
      </trkpt>
      <trkpt lat="46.07388" lon="4.74608">
        <ele>174</ele>
        <time>2018-07-24T09:13:38Z</time>
      </trkpt>
      <trkpt lat="46.07391" lon="4.74616">
        <ele>174</ele>
        <time>2018-07-24T09:13:39Z</time>
      </trkpt>
      <trkpt lat="46.07395" lon="4.74624">
        <ele>174</ele>
        <time>2018-07-24T09:13:40Z</time>
      </trkpt>
      <trkpt lat="46.07398" lon="4.74631">
        <ele>174</ele>
        <time>2018-07-24T09:13:41Z</time>
      </trkpt>
      <trkpt lat="46.07401" lon="4.74638">
        <ele>174</ele>
        <time>2018-07-24T09:13:42Z</time>
      </trkpt>
      <trkpt lat="46.07404" lon="4.74645">
        <ele>173</ele>
        <time>2018-07-24T09:13:43Z</time>
      </trkpt>
      <trkpt lat="46.07408" lon="4.74651">
        <ele>173</ele>
        <time>2018-07-24T09:13:44Z</time>
      </trkpt>
      <trkpt lat="46.07411" lon="4.74658">
        <ele>173</ele>
        <time>2018-07-24T09:13:45Z</time>
      </trkpt>
      <trkpt lat="46.07414" lon="4.7467">
        <ele>172</ele>
        <time>2018-07-24T09:13:47Z</time>
      </trkpt>
      <trkpt lat="46.07418" lon="4.74676">
        <ele>172</ele>
        <time>2018-07-24T09:13:48Z</time>
      </trkpt>
      <trkpt lat="46.07421" lon="4.74683">
        <ele>172</ele>
        <time>2018-07-24T09:13:49Z</time>
      </trkpt>
      <trkpt lat="46.07426" lon="4.74691">
        <ele>173</ele>
        <time>2018-07-24T09:13:50Z</time>
      </trkpt>
      <trkpt lat="46.0743" lon="4.74698">
        <ele>173</ele>
        <time>2018-07-24T09:13:51Z</time>
      </trkpt>
      <trkpt lat="46.07434" lon="4.74705">
        <ele>173</ele>
        <time>2018-07-24T09:13:52Z</time>
      </trkpt>
      <trkpt lat="46.07438" lon="4.74713">
        <ele>173</ele>
        <time>2018-07-24T09:13:53Z</time>
      </trkpt>
      <trkpt lat="46.07442" lon="4.74721">
        <ele>173</ele>
        <time>2018-07-24T09:13:54Z</time>
      </trkpt>
      <trkpt lat="46.07446" lon="4.74727">
        <ele>173</ele>
        <time>2018-07-24T09:13:55Z</time>
      </trkpt>
      <trkpt lat="46.0745" lon="4.74735">
        <ele>173</ele>
        <time>2018-07-24T09:13:56Z</time>
      </trkpt>
      <trkpt lat="46.07456" lon="4.7474">
        <ele>173</ele>
        <time>2018-07-24T09:13:57Z</time>
      </trkpt>
      <trkpt lat="46.07461" lon="4.74746">
        <ele>173</ele>
        <time>2018-07-24T09:13:58Z</time>
      </trkpt>
      <trkpt lat="46.07465" lon="4.74752">
        <ele>173</ele>
        <time>2018-07-24T09:13:59Z</time>
      </trkpt>
      <trkpt lat="46.07468" lon="4.74756">
        <ele>173</ele>
        <time>2018-07-24T09:14:00Z</time>
      </trkpt>
      <trkpt lat="46.07474" lon="4.74761">
        <ele>173</ele>
        <time>2018-07-24T09:14:01Z</time>
      </trkpt>
      <trkpt lat="46.07479" lon="4.74767">
        <ele>173</ele>
        <time>2018-07-24T09:14:02Z</time>
      </trkpt>
      <trkpt lat="46.07484" lon="4.74771">
        <ele>173</ele>
        <time>2018-07-24T09:14:03Z</time>
      </trkpt>
      <trkpt lat="46.0749" lon="4.74777">
        <ele>173</ele>
        <time>2018-07-24T09:14:04Z</time>
      </trkpt>
      <trkpt lat="46.07496" lon="4.74782">
        <ele>173</ele>
        <time>2018-07-24T09:14:05Z</time>
      </trkpt>
      <trkpt lat="46.07502" lon="4.74787">
        <ele>172</ele>
        <time>2018-07-24T09:14:06Z</time>
      </trkpt>
      <trkpt lat="46.07508" lon="4.74792">
        <ele>172</ele>
        <time>2018-07-24T09:14:07Z</time>
      </trkpt>
      <trkpt lat="46.07514" lon="4.74797">
        <ele>172</ele>
        <time>2018-07-24T09:14:08Z</time>
      </trkpt>
      <trkpt lat="46.07519" lon="4.74801">
        <ele>172</ele>
        <time>2018-07-24T09:14:09Z</time>
      </trkpt>
      <trkpt lat="46.07524" lon="4.74805">
        <ele>172</ele>
        <time>2018-07-24T09:14:10Z</time>
      </trkpt>
      <trkpt lat="46.07529" lon="4.74809">
        <ele>172</ele>
        <time>2018-07-24T09:14:11Z</time>
      </trkpt>
      <trkpt lat="46.07535" lon="4.74813">
        <ele>172</ele>
        <time>2018-07-24T09:14:12Z</time>
      </trkpt>
      <trkpt lat="46.0754" lon="4.74817">
        <ele>172</ele>
        <time>2018-07-24T09:14:13Z</time>
      </trkpt>
      <trkpt lat="46.07544" lon="4.74821">
        <ele>172</ele>
        <time>2018-07-24T09:14:14Z</time>
      </trkpt>
      <trkpt lat="46.07549" lon="4.74825">
        <ele>172</ele>
        <time>2018-07-24T09:14:15Z</time>
      </trkpt>
      <trkpt lat="46.07555" lon="4.74829">
        <ele>172</ele>
        <time>2018-07-24T09:14:16Z</time>
      </trkpt>
      <trkpt lat="46.07561" lon="4.74832">
        <ele>172</ele>
        <time>2018-07-24T09:14:17Z</time>
      </trkpt>
      <trkpt lat="46.07566" lon="4.74836">
        <ele>171</ele>
        <time>2018-07-24T09:14:18Z</time>
      </trkpt>
      <trkpt lat="46.07571" lon="4.7484">
        <ele>171</ele>
        <time>2018-07-24T09:14:19Z</time>
      </trkpt>
      <trkpt lat="46.07577" lon="4.74844">
        <ele>171</ele>
        <time>2018-07-24T09:14:20Z</time>
      </trkpt>
      <trkpt lat="46.07582" lon="4.74849">
        <ele>171</ele>
        <time>2018-07-24T09:14:21Z</time>
      </trkpt>
      <trkpt lat="46.07588" lon="4.74853">
        <ele>171</ele>
        <time>2018-07-24T09:14:22Z</time>
      </trkpt>
      <trkpt lat="46.07593" lon="4.74857">
        <ele>171</ele>
        <time>2018-07-24T09:14:23Z</time>
      </trkpt>
      <trkpt lat="46.07597" lon="4.74863">
        <ele>171</ele>
        <time>2018-07-24T09:14:24Z</time>
      </trkpt>
      <trkpt lat="46.07604" lon="4.74867">
        <ele>171</ele>
        <time>2018-07-24T09:14:25Z</time>
      </trkpt>
      <trkpt lat="46.07609" lon="4.74871">
        <ele>171</ele>
        <time>2018-07-24T09:14:26Z</time>
      </trkpt>
      <trkpt lat="46.07615" lon="4.74876">
        <ele>171</ele>
        <time>2018-07-24T09:14:27Z</time>
      </trkpt>
      <trkpt lat="46.0762" lon="4.7488">
        <ele>171</ele>
        <time>2018-07-24T09:14:28Z</time>
      </trkpt>
      <trkpt lat="46.07626" lon="4.74884">
        <ele>171</ele>
        <time>2018-07-24T09:14:29Z</time>
      </trkpt>
      <trkpt lat="46.07631" lon="4.74888">
        <ele>171</ele>
        <time>2018-07-24T09:14:30Z</time>
      </trkpt>
      <trkpt lat="46.07636" lon="4.74892">
        <ele>171</ele>
        <time>2018-07-24T09:14:31Z</time>
      </trkpt>
      <trkpt lat="46.07642" lon="4.74896">
        <ele>171</ele>
        <time>2018-07-24T09:14:32Z</time>
      </trkpt>
      <trkpt lat="46.07648" lon="4.749">
        <ele>171</ele>
        <time>2018-07-24T09:14:33Z</time>
      </trkpt>
      <trkpt lat="46.07652" lon="4.74904">
        <ele>171</ele>
        <time>2018-07-24T09:14:34Z</time>
      </trkpt>
      <trkpt lat="46.07657" lon="4.74909">
        <ele>172</ele>
        <time>2018-07-24T09:14:35Z</time>
      </trkpt>
      <trkpt lat="46.07662" lon="4.74914">
        <ele>172</ele>
        <time>2018-07-24T09:14:36Z</time>
      </trkpt>
      <trkpt lat="46.07667" lon="4.74918">
        <ele>172</ele>
        <time>2018-07-24T09:14:37Z</time>
      </trkpt>
      <trkpt lat="46.07672" lon="4.74921">
        <ele>172</ele>
        <time>2018-07-24T09:14:38Z</time>
      </trkpt>
      <trkpt lat="46.07678" lon="4.74926">
        <ele>172</ele>
        <time>2018-07-24T09:14:39Z</time>
      </trkpt>
      <trkpt lat="46.07682" lon="4.7493">
        <ele>172</ele>
        <time>2018-07-24T09:14:40Z</time>
      </trkpt>
      <trkpt lat="46.07686" lon="4.74933">
        <ele>172</ele>
        <time>2018-07-24T09:14:41Z</time>
      </trkpt>
      <trkpt lat="46.0769" lon="4.74937">
        <ele>172</ele>
        <time>2018-07-24T09:14:42Z</time>
      </trkpt>
      <trkpt lat="46.07697" lon="4.74941">
        <ele>172</ele>
        <time>2018-07-24T09:14:43Z</time>
      </trkpt>
      <trkpt lat="46.07702" lon="4.74945">
        <ele>172</ele>
        <time>2018-07-24T09:14:44Z</time>
      </trkpt>
      <trkpt lat="46.07707" lon="4.74949">
        <ele>172</ele>
        <time>2018-07-24T09:14:45Z</time>
      </trkpt>
      <trkpt lat="46.0771" lon="4.74954">
        <ele>172</ele>
        <time>2018-07-24T09:14:46Z</time>
      </trkpt>
      <trkpt lat="46.07715" lon="4.74959">
        <ele>172</ele>
        <time>2018-07-24T09:14:47Z</time>
      </trkpt>
      <trkpt lat="46.07721" lon="4.74964">
        <ele>172</ele>
        <time>2018-07-24T09:14:48Z</time>
      </trkpt>
      <trkpt lat="46.07726" lon="4.7497">
        <ele>172</ele>
        <time>2018-07-24T09:14:49Z</time>
      </trkpt>
      <trkpt lat="46.07732" lon="4.74974">
        <ele>172</ele>
        <time>2018-07-24T09:14:50Z</time>
      </trkpt>
      <trkpt lat="46.07736" lon="4.74978">
        <ele>172</ele>
        <time>2018-07-24T09:14:51Z</time>
      </trkpt>
      <trkpt lat="46.07741" lon="4.74983">
        <ele>173</ele>
        <time>2018-07-24T09:14:52Z</time>
      </trkpt>
      <trkpt lat="46.07746" lon="4.74988">
        <ele>173</ele>
        <time>2018-07-24T09:14:53Z</time>
      </trkpt>
      <trkpt lat="46.07751" lon="4.74992">
        <ele>172</ele>
        <time>2018-07-24T09:14:54Z</time>
      </trkpt>
      <trkpt lat="46.07757" lon="4.74997">
        <ele>172</ele>
        <time>2018-07-24T09:14:55Z</time>
      </trkpt>
      <trkpt lat="46.07764" lon="4.75002">
        <ele>172</ele>
        <time>2018-07-24T09:14:56Z</time>
      </trkpt>
      <trkpt lat="46.07769" lon="4.75006">
        <ele>172</ele>
        <time>2018-07-24T09:14:57Z</time>
      </trkpt>
      <trkpt lat="46.07775" lon="4.7501">
        <ele>172</ele>
        <time>2018-07-24T09:14:58Z</time>
      </trkpt>
      <trkpt lat="46.0778" lon="4.75014">
        <ele>172</ele>
        <time>2018-07-24T09:14:59Z</time>
      </trkpt>
      <trkpt lat="46.07786" lon="4.7502">
        <ele>172</ele>
        <time>2018-07-24T09:15:00Z</time>
      </trkpt>
      <trkpt lat="46.07791" lon="4.75024">
        <ele>172</ele>
        <time>2018-07-24T09:15:01Z</time>
      </trkpt>
      <trkpt lat="46.07795" lon="4.75027">
        <ele>171</ele>
        <time>2018-07-24T09:15:02Z</time>
      </trkpt>
      <trkpt lat="46.078" lon="4.75032">
        <ele>171</ele>
        <time>2018-07-24T09:15:03Z</time>
      </trkpt>
      <trkpt lat="46.07804" lon="4.75037">
        <ele>171</ele>
        <time>2018-07-24T09:15:04Z</time>
      </trkpt>
      <trkpt lat="46.07809" lon="4.75042">
        <ele>171</ele>
        <time>2018-07-24T09:15:05Z</time>
      </trkpt>
      <trkpt lat="46.07815" lon="4.75048">
        <ele>171</ele>
        <time>2018-07-24T09:15:06Z</time>
      </trkpt>
      <trkpt lat="46.07819" lon="4.75053">
        <ele>171</ele>
        <time>2018-07-24T09:15:07Z</time>
      </trkpt>
      <trkpt lat="46.07824" lon="4.75057">
        <ele>171</ele>
        <time>2018-07-24T09:15:08Z</time>
      </trkpt>
      <trkpt lat="46.07828" lon="4.75063">
        <ele>171</ele>
        <time>2018-07-24T09:15:09Z</time>
      </trkpt>
      <trkpt lat="46.07832" lon="4.75068">
        <ele>171</ele>
        <time>2018-07-24T09:15:10Z</time>
      </trkpt>
      <trkpt lat="46.07837" lon="4.75073">
        <ele>171</ele>
        <time>2018-07-24T09:15:11Z</time>
      </trkpt>
      <trkpt lat="46.0784" lon="4.75078">
        <ele>171</ele>
        <time>2018-07-24T09:15:12Z</time>
      </trkpt>
      <trkpt lat="46.07844" lon="4.75084">
        <ele>171</ele>
        <time>2018-07-24T09:15:13Z</time>
      </trkpt>
      <trkpt lat="46.07848" lon="4.7509">
        <ele>171</ele>
        <time>2018-07-24T09:15:14Z</time>
      </trkpt>
      <trkpt lat="46.07852" lon="4.75097">
        <ele>171</ele>
        <time>2018-07-24T09:15:15Z</time>
      </trkpt>
      <trkpt lat="46.07856" lon="4.75103">
        <ele>171</ele>
        <time>2018-07-24T09:15:16Z</time>
      </trkpt>
      <trkpt lat="46.07859" lon="4.75109">
        <ele>171</ele>
        <time>2018-07-24T09:15:17Z</time>
      </trkpt>
      <trkpt lat="46.07862" lon="4.75115">
        <ele>171</ele>
        <time>2018-07-24T09:15:18Z</time>
      </trkpt>
      <trkpt lat="46.07866" lon="4.75122">
        <ele>171</ele>
        <time>2018-07-24T09:15:19Z</time>
      </trkpt>
      <trkpt lat="46.0787" lon="4.75128">
        <ele>171</ele>
        <time>2018-07-24T09:15:20Z</time>
      </trkpt>
      <trkpt lat="46.07874" lon="4.75134">
        <ele>171</ele>
        <time>2018-07-24T09:15:21Z</time>
      </trkpt>
      <trkpt lat="46.07878" lon="4.75141">
        <ele>171</ele>
        <time>2018-07-24T09:15:22Z</time>
      </trkpt>
      <trkpt lat="46.07882" lon="4.75147">
        <ele>171</ele>
        <time>2018-07-24T09:15:23Z</time>
      </trkpt>
      <trkpt lat="46.07885" lon="4.75154">
        <ele>171</ele>
        <time>2018-07-24T09:15:24Z</time>
      </trkpt>
      <trkpt lat="46.07889" lon="4.75159">
        <ele>171</ele>
        <time>2018-07-24T09:15:25Z</time>
      </trkpt>
      <trkpt lat="46.07893" lon="4.75166">
        <ele>171</ele>
        <time>2018-07-24T09:15:26Z</time>
      </trkpt>
      <trkpt lat="46.07898" lon="4.75174">
        <ele>171</ele>
        <time>2018-07-24T09:15:27Z</time>
      </trkpt>
      <trkpt lat="46.07902" lon="4.7518">
        <ele>171</ele>
        <time>2018-07-24T09:15:28Z</time>
      </trkpt>
      <trkpt lat="46.07908" lon="4.75186">
        <ele>171</ele>
        <time>2018-07-24T09:15:29Z</time>
      </trkpt>
      <trkpt lat="46.07911" lon="4.75193">
        <ele>171</ele>
        <time>2018-07-24T09:15:30Z</time>
      </trkpt>
      <trkpt lat="46.07916" lon="4.75198">
        <ele>171</ele>
        <time>2018-07-24T09:15:31Z</time>
      </trkpt>
      <trkpt lat="46.07918" lon="4.75205">
        <ele>171</ele>
        <time>2018-07-24T09:15:32Z</time>
      </trkpt>
      <trkpt lat="46.07922" lon="4.75212">
        <ele>171</ele>
        <time>2018-07-24T09:15:33Z</time>
      </trkpt>
      <trkpt lat="46.07926" lon="4.75219">
        <ele>171</ele>
        <time>2018-07-24T09:15:34Z</time>
      </trkpt>
      <trkpt lat="46.07929" lon="4.75225">
        <ele>171</ele>
        <time>2018-07-24T09:15:35Z</time>
      </trkpt>
      <trkpt lat="46.07932" lon="4.75232">
        <ele>170</ele>
        <time>2018-07-24T09:15:36Z</time>
      </trkpt>
      <trkpt lat="46.07935" lon="4.75239">
        <ele>170</ele>
        <time>2018-07-24T09:15:37Z</time>
      </trkpt>
      <trkpt lat="46.07938" lon="4.75247">
        <ele>170</ele>
        <time>2018-07-24T09:15:38Z</time>
      </trkpt>
      <trkpt lat="46.07942" lon="4.75254">
        <ele>170</ele>
        <time>2018-07-24T09:15:39Z</time>
      </trkpt>
      <trkpt lat="46.07944" lon="4.75261">
        <ele>170</ele>
        <time>2018-07-24T09:15:40Z</time>
      </trkpt>
      <trkpt lat="46.07948" lon="4.75268">
        <ele>169</ele>
        <time>2018-07-24T09:15:41Z</time>
      </trkpt>
      <trkpt lat="46.0795" lon="4.75275">
        <ele>169</ele>
        <time>2018-07-24T09:15:42Z</time>
      </trkpt>
      <trkpt lat="46.07954" lon="4.7528">
        <ele>169</ele>
        <time>2018-07-24T09:15:43Z</time>
      </trkpt>
      <trkpt lat="46.07958" lon="4.75287">
        <ele>169</ele>
        <time>2018-07-24T09:15:44Z</time>
      </trkpt>
      <trkpt lat="46.07961" lon="4.75293">
        <ele>169</ele>
        <time>2018-07-24T09:15:45Z</time>
      </trkpt>
      <trkpt lat="46.07964" lon="4.75301">
        <ele>169</ele>
        <time>2018-07-24T09:15:46Z</time>
      </trkpt>
      <trkpt lat="46.07967" lon="4.75308">
        <ele>169</ele>
        <time>2018-07-24T09:15:47Z</time>
      </trkpt>
      <trkpt lat="46.0797" lon="4.75316">
        <ele>169</ele>
        <time>2018-07-24T09:15:48Z</time>
      </trkpt>
      <trkpt lat="46.07973" lon="4.75322">
        <ele>169</ele>
        <time>2018-07-24T09:15:49Z</time>
      </trkpt>
      <trkpt lat="46.07976" lon="4.75329">
        <ele>169</ele>
        <time>2018-07-24T09:15:50Z</time>
      </trkpt>
      <trkpt lat="46.07979" lon="4.75336">
        <ele>168</ele>
        <time>2018-07-24T09:15:51Z</time>
      </trkpt>
      <trkpt lat="46.07982" lon="4.75343">
        <ele>168</ele>
        <time>2018-07-24T09:15:52Z</time>
      </trkpt>
      <trkpt lat="46.07985" lon="4.7535">
        <ele>168</ele>
        <time>2018-07-24T09:15:53Z</time>
      </trkpt>
      <trkpt lat="46.07988" lon="4.75355">
        <ele>168</ele>
        <time>2018-07-24T09:15:54Z</time>
      </trkpt>
      <trkpt lat="46.07992" lon="4.75362">
        <ele>168</ele>
        <time>2018-07-24T09:15:55Z</time>
      </trkpt>
      <trkpt lat="46.07995" lon="4.7537">
        <ele>168</ele>
        <time>2018-07-24T09:15:56Z</time>
      </trkpt>
      <trkpt lat="46.07998" lon="4.75377">
        <ele>168</ele>
        <time>2018-07-24T09:15:57Z</time>
      </trkpt>
      <trkpt lat="46.08002" lon="4.75382">
        <ele>167</ele>
        <time>2018-07-24T09:15:58Z</time>
      </trkpt>
      <trkpt lat="46.08006" lon="4.75387">
        <ele>167</ele>
        <time>2018-07-24T09:15:59Z</time>
      </trkpt>
      <trkpt lat="46.08008" lon="4.75392">
        <ele>167</ele>
        <time>2018-07-24T09:16:00Z</time>
      </trkpt>
      <trkpt lat="46.08011" lon="4.75402">
        <ele>166</ele>
        <time>2018-07-24T09:16:02Z</time>
      </trkpt>
      <trkpt lat="46.08013" lon="4.75408">
        <ele>166</ele>
        <time>2018-07-24T09:16:03Z</time>
      </trkpt>
      <trkpt lat="46.08017" lon="4.75419">
        <ele>166</ele>
        <time>2018-07-24T09:16:05Z</time>
      </trkpt>
      <trkpt lat="46.0802" lon="4.75424">
        <ele>166</ele>
        <time>2018-07-24T09:16:06Z</time>
      </trkpt>
      <trkpt lat="46.08025" lon="4.75434">
        <ele>166</ele>
        <time>2018-07-24T09:16:08Z</time>
      </trkpt>
      <trkpt lat="46.08028" lon="4.75439">
        <ele>166</ele>
        <time>2018-07-24T09:16:09Z</time>
      </trkpt>
      <trkpt lat="46.08031" lon="4.75445">
        <ele>166</ele>
        <time>2018-07-24T09:16:10Z</time>
      </trkpt>
      <trkpt lat="46.08033" lon="4.7545">
        <ele>166</ele>
        <time>2018-07-24T09:16:11Z</time>
      </trkpt>
      <trkpt lat="46.08035" lon="4.75456">
        <ele>166</ele>
        <time>2018-07-24T09:16:12Z</time>
      </trkpt>
      <trkpt lat="46.08038" lon="4.75462">
        <ele>166</ele>
        <time>2018-07-24T09:16:13Z</time>
      </trkpt>
      <trkpt lat="46.0804" lon="4.75467">
        <ele>166</ele>
        <time>2018-07-24T09:16:14Z</time>
      </trkpt>
      <trkpt lat="46.08044" lon="4.75474">
        <ele>166</ele>
        <time>2018-07-24T09:16:15Z</time>
      </trkpt>
      <trkpt lat="46.08047" lon="4.7548">
        <ele>166</ele>
        <time>2018-07-24T09:16:17Z</time>
      </trkpt>
      <trkpt lat="46.0805" lon="4.75488">
        <ele>166</ele>
        <time>2018-07-24T09:16:18Z</time>
      </trkpt>
      <trkpt lat="46.08053" lon="4.75495">
        <ele>166</ele>
        <time>2018-07-24T09:16:20Z</time>
      </trkpt>
      <trkpt lat="46.08056" lon="4.75504">
        <ele>167</ele>
        <time>2018-07-24T09:16:21Z</time>
      </trkpt>
      <trkpt lat="46.08059" lon="4.75509">
        <ele>167</ele>
        <time>2018-07-24T09:16:22Z</time>
      </trkpt>
      <trkpt lat="46.08061" lon="4.75515">
        <ele>167</ele>
        <time>2018-07-24T09:16:23Z</time>
      </trkpt>
      <trkpt lat="46.08064" lon="4.75521">
        <ele>168</ele>
        <time>2018-07-24T09:16:24Z</time>
      </trkpt>
      <trkpt lat="46.08066" lon="4.75527">
        <ele>168</ele>
        <time>2018-07-24T09:16:25Z</time>
      </trkpt>
      <trkpt lat="46.08069" lon="4.75533">
        <ele>168</ele>
        <time>2018-07-24T09:16:26Z</time>
      </trkpt>
      <trkpt lat="46.08074" lon="4.7554">
        <ele>169</ele>
        <time>2018-07-24T09:16:27Z</time>
      </trkpt>
      <trkpt lat="46.08076" lon="4.75545">
        <ele>169</ele>
        <time>2018-07-24T09:16:28Z</time>
      </trkpt>
      <trkpt lat="46.08078" lon="4.75551">
        <ele>169</ele>
        <time>2018-07-24T09:16:29Z</time>
      </trkpt>
      <trkpt lat="46.08084" lon="4.7556">
        <ele>172</ele>
        <time>2018-07-24T09:16:31Z</time>
      </trkpt>
      <trkpt lat="46.08084" lon="4.75563">
        <ele>173</ele>
        <time>2018-07-24T09:16:32Z</time>
      </trkpt>
      <trkpt lat="46.08088" lon="4.75572">
        <ele>173</ele>
        <time>2018-07-24T09:16:36Z</time>
      </trkpt>
      <trkpt lat="46.08089" lon="4.75574">
        <ele>173</ele>
        <time>2018-07-24T09:16:37Z</time>
      </trkpt>
      <trkpt lat="46.08089" lon="4.7558">
        <ele>174</ele>
        <time>2018-07-24T09:16:40Z</time>
      </trkpt>
      <trkpt lat="46.08084" lon="4.75586">
        <ele>174</ele>
        <time>2018-07-24T09:16:41Z</time>
      </trkpt>
      <trkpt lat="46.08078" lon="4.75593">
        <ele>174</ele>
        <time>2018-07-24T09:16:48Z</time>
      </trkpt>
      <trkpt lat="46.08077" lon="4.75595">
        <ele>174</ele>
        <time>2018-07-24T09:16:49Z</time>
      </trkpt>
      <trkpt lat="46.08071" lon="4.756">
        <ele>173</ele>
        <time>2018-07-24T09:16:54Z</time>
      </trkpt>
      <trkpt lat="46.08069" lon="4.75601">
        <ele>173</ele>
        <time>2018-07-24T09:16:55Z</time>
      </trkpt>
      <trkpt lat="46.08062" lon="4.75604">
        <ele>173</ele>
        <time>2018-07-24T09:16:58Z</time>
      </trkpt>
      <trkpt lat="46.0806" lon="4.75606">
        <ele>173</ele>
        <time>2018-07-24T09:16:59Z</time>
      </trkpt>
      <trkpt lat="46.08055" lon="4.75613">
        <ele>173</ele>
        <time>2018-07-24T09:17:09Z</time>
      </trkpt>
      <trkpt lat="46.08055" lon="4.75613">
        <ele>173</ele>
        <time>2018-07-24T09:17:10Z</time>
      </trkpt>
      <trkpt lat="46.08055" lon="4.75613">
        <ele>173</ele>
        <time>2018-07-24T09:17:11Z</time>
      </trkpt>
      <trkpt lat="46.08054" lon="4.75615">
        <ele>173</ele>
        <time>2018-07-24T09:17:14Z</time>
      </trkpt>
      <trkpt lat="46.08053" lon="4.75616">
        <ele>173</ele>
        <time>2018-07-24T09:17:15Z</time>
      </trkpt>
      <trkpt lat="46.08053" lon="4.75624">
        <ele>173</ele>
        <time>2018-07-24T09:17:41Z</time>
      </trkpt>
      <trkpt lat="46.08053" lon="4.75624">
        <ele>173</ele>
        <time>2018-07-24T09:17:42Z</time>
      </trkpt>
      <trkpt lat="46.08047" lon="4.75614">
        <ele>173</ele>
        <time>2018-07-24T09:18:46Z</time>
      </trkpt>
      <trkpt lat="46.08047" lon="4.75614">
        <ele>173</ele>
        <time>2018-07-24T09:18:47Z</time>
      </trkpt>
      <trkpt lat="46.08055" lon="4.75612">
        <ele>173</ele>
        <time>2018-07-24T09:23:29.595Z</time>
      </trkpt>
      <trkpt lat="46.08056" lon="4.75612">
        <ele>173</ele>
        <time>2018-07-24T09:23:30.595Z</time>
      </trkpt>
      <trkpt lat="46.08047" lon="4.75612">
        <ele>173</ele>
        <time>2018-07-24T09:23:55Z</time>
      </trkpt>
      <trkpt lat="46.08047" lon="4.75612">
        <ele>173</ele>
        <time>2018-07-24T09:23:56Z</time>
      </trkpt>
      <trkpt lat="46.08046" lon="4.75614">
        <ele>173</ele>
        <time>2018-07-24T09:25:51Z</time>
      </trkpt>
      <trkpt lat="46.08046" lon="4.75615">
        <ele>173</ele>
        <time>2018-07-24T09:25:52Z</time>
      </trkpt>
      <trkpt lat="46.08048" lon="4.75617">
        <ele>173</ele>
        <time>2018-07-24T09:25:59.326Z</time>
      </trkpt>
      <trkpt lat="46.08049" lon="4.75617">
        <ele>173</ele>
        <time>2018-07-24T09:25:58Z</time>
      </trkpt>
      <trkpt lat="46.0804" lon="4.7562">
        <ele>173</ele>
        <time>2018-07-24T09:26:16Z</time>
      </trkpt>
      <trkpt lat="46.0804" lon="4.7562">
        <ele>173</ele>
        <time>2018-07-24T09:26:17Z</time>
      </trkpt>
      <trkpt lat="46.0804" lon="4.75623">
        <ele>173</ele>
        <time>2018-07-24T09:26:46Z</time>
      </trkpt>
      <trkpt lat="46.08021" lon="4.75641">
        <ele>173</ele>
        <time>2018-07-24T09:26:50Z</time>
      </trkpt>
      <trkpt lat="46.08015" lon="4.75642">
        <ele>174</ele>
        <time>2018-07-24T09:26:53Z</time>
      </trkpt>
      <trkpt lat="46.08003" lon="4.7565">
        <ele>174</ele>
        <time>2018-07-24T09:26:54Z</time>
      </trkpt>
      <trkpt lat="46.07999" lon="4.75657">
        <ele>173</ele>
        <time>2018-07-24T09:26:55Z</time>
      </trkpt>
      <trkpt lat="46.07994" lon="4.75663">
        <ele>174</ele>
        <time>2018-07-24T09:26:56Z</time>
      </trkpt>
      <trkpt lat="46.0799" lon="4.75669">
        <ele>175</ele>
        <time>2018-07-24T09:26:57Z</time>
      </trkpt>
      <trkpt lat="46.07985" lon="4.75674">
        <ele>174</ele>
        <time>2018-07-24T09:26:58Z</time>
      </trkpt>
      <trkpt lat="46.07981" lon="4.75679">
        <ele>174</ele>
        <time>2018-07-24T09:26:59Z</time>
      </trkpt>
      <trkpt lat="46.07977" lon="4.75684">
        <ele>174</ele>
        <time>2018-07-24T09:27:00Z</time>
      </trkpt>
      <trkpt lat="46.07972" lon="4.75694">
        <ele>173</ele>
        <time>2018-07-24T09:27:01Z</time>
      </trkpt>
      <trkpt lat="46.07967" lon="4.75697">
        <ele>173</ele>
        <time>2018-07-24T09:27:02Z</time>
      </trkpt>
      <trkpt lat="46.07963" lon="4.757">
        <ele>173</ele>
        <time>2018-07-24T09:27:03Z</time>
      </trkpt>
      <trkpt lat="46.07958" lon="4.75702">
        <ele>173</ele>
        <time>2018-07-24T09:27:04Z</time>
      </trkpt>
      <trkpt lat="46.07955" lon="4.75706">
        <ele>173</ele>
        <time>2018-07-24T09:27:05Z</time>
      </trkpt>
      <trkpt lat="46.07951" lon="4.7571">
        <ele>173</ele>
        <time>2018-07-24T09:27:06Z</time>
      </trkpt>
      <trkpt lat="46.07943" lon="4.75716">
        <ele>173</ele>
        <time>2018-07-24T09:27:08Z</time>
      </trkpt>
      <trkpt lat="46.07939" lon="4.7572">
        <ele>173</ele>
        <time>2018-07-24T09:27:09Z</time>
      </trkpt>
      <trkpt lat="46.07934" lon="4.75725">
        <ele>173</ele>
        <time>2018-07-24T09:27:10Z</time>
      </trkpt>
      <trkpt lat="46.0793" lon="4.75729">
        <ele>173</ele>
        <time>2018-07-24T09:27:11Z</time>
      </trkpt>
      <trkpt lat="46.07924" lon="4.75736">
        <ele>173</ele>
        <time>2018-07-24T09:27:13Z</time>
      </trkpt>
      <trkpt lat="46.0792" lon="4.75739">
        <ele>173</ele>
        <time>2018-07-24T09:27:14Z</time>
      </trkpt>
      <trkpt lat="46.07912" lon="4.75744">
        <ele>172</ele>
        <time>2018-07-24T09:27:16Z</time>
      </trkpt>
      <trkpt lat="46.07909" lon="4.75746">
        <ele>171</ele>
        <time>2018-07-24T09:27:17Z</time>
      </trkpt>
      <trkpt lat="46.07902" lon="4.75754">
        <ele>172</ele>
        <time>2018-07-24T09:27:19Z</time>
      </trkpt>
      <trkpt lat="46.07898" lon="4.75757">
        <ele>172</ele>
        <time>2018-07-24T09:27:20Z</time>
      </trkpt>
      <trkpt lat="46.07895" lon="4.75763">
        <ele>172</ele>
        <time>2018-07-24T09:27:21Z</time>
      </trkpt>
      <trkpt lat="46.07889" lon="4.75761">
        <ele>172</ele>
        <time>2018-07-24T09:27:22Z</time>
      </trkpt>
      <trkpt lat="46.07886" lon="4.75765">
        <ele>171</ele>
        <time>2018-07-24T09:27:23Z</time>
      </trkpt>
      <trkpt lat="46.07882" lon="4.7577">
        <ele>171</ele>
        <time>2018-07-24T09:27:24Z</time>
      </trkpt>
      <trkpt lat="46.07876" lon="4.75772">
        <ele>171</ele>
        <time>2018-07-24T09:27:25Z</time>
      </trkpt>
      <trkpt lat="46.07872" lon="4.75776">
        <ele>171</ele>
        <time>2018-07-24T09:27:26Z</time>
      </trkpt>
      <trkpt lat="46.07867" lon="4.75779">
        <ele>171</ele>
        <time>2018-07-24T09:27:27Z</time>
      </trkpt>
      <trkpt lat="46.07864" lon="4.75784">
        <ele>171</ele>
        <time>2018-07-24T09:27:28Z</time>
      </trkpt>
      <trkpt lat="46.0786" lon="4.75788">
        <ele>171</ele>
        <time>2018-07-24T09:27:29Z</time>
      </trkpt>
      <trkpt lat="46.07856" lon="4.75791">
        <ele>171</ele>
        <time>2018-07-24T09:27:30Z</time>
      </trkpt>
      <trkpt lat="46.07852" lon="4.75796">
        <ele>171</ele>
        <time>2018-07-24T09:27:31Z</time>
      </trkpt>
      <trkpt lat="46.07848" lon="4.758">
        <ele>171</ele>
        <time>2018-07-24T09:27:32Z</time>
      </trkpt>
      <trkpt lat="46.07844" lon="4.75804">
        <ele>171</ele>
        <time>2018-07-24T09:27:33Z</time>
      </trkpt>
      <trkpt lat="46.0784" lon="4.75809">
        <ele>172</ele>
        <time>2018-07-24T09:27:34Z</time>
      </trkpt>
      <trkpt lat="46.07833" lon="4.75817">
        <ele>170</ele>
        <time>2018-07-24T09:27:36Z</time>
      </trkpt>
      <trkpt lat="46.0783" lon="4.7582">
        <ele>171</ele>
        <time>2018-07-24T09:27:37Z</time>
      </trkpt>
      <trkpt lat="46.07823" lon="4.75828">
        <ele>171</ele>
        <time>2018-07-24T09:27:39Z</time>
      </trkpt>
      <trkpt lat="46.07819" lon="4.7583">
        <ele>171</ele>
        <time>2018-07-24T09:27:40Z</time>
      </trkpt>
      <trkpt lat="46.07816" lon="4.75834">
        <ele>172</ele>
        <time>2018-07-24T09:27:41Z</time>
      </trkpt>
      <trkpt lat="46.07812" lon="4.75838">
        <ele>172</ele>
        <time>2018-07-24T09:27:42Z</time>
      </trkpt>
      <trkpt lat="46.07808" lon="4.75843">
        <ele>172</ele>
        <time>2018-07-24T09:27:43Z</time>
      </trkpt>
      <trkpt lat="46.07804" lon="4.75848">
        <ele>172</ele>
        <time>2018-07-24T09:27:44Z</time>
      </trkpt>
      <trkpt lat="46.07801" lon="4.75851">
        <ele>172</ele>
        <time>2018-07-24T09:27:45Z</time>
      </trkpt>
      <trkpt lat="46.07797" lon="4.75855">
        <ele>172</ele>
        <time>2018-07-24T09:27:46Z</time>
      </trkpt>
      <trkpt lat="46.07793" lon="4.75859">
        <ele>172</ele>
        <time>2018-07-24T09:27:47Z</time>
      </trkpt>
      <trkpt lat="46.07789" lon="4.75864">
        <ele>172</ele>
        <time>2018-07-24T09:27:48Z</time>
      </trkpt>
      <trkpt lat="46.07785" lon="4.75868">
        <ele>172</ele>
        <time>2018-07-24T09:27:49Z</time>
      </trkpt>
      <trkpt lat="46.07781" lon="4.75871">
        <ele>172</ele>
        <time>2018-07-24T09:27:50Z</time>
      </trkpt>
      <trkpt lat="46.07777" lon="4.75875">
        <ele>172</ele>
        <time>2018-07-24T09:27:51Z</time>
      </trkpt>
      <trkpt lat="46.07774" lon="4.75881">
        <ele>172</ele>
        <time>2018-07-24T09:27:52Z</time>
      </trkpt>
      <trkpt lat="46.0777" lon="4.75885">
        <ele>172</ele>
        <time>2018-07-24T09:27:53Z</time>
      </trkpt>
      <trkpt lat="46.07767" lon="4.7589">
        <ele>172</ele>
        <time>2018-07-24T09:27:54Z</time>
      </trkpt>
      <trkpt lat="46.07763" lon="4.75895">
        <ele>173</ele>
        <time>2018-07-24T09:27:55Z</time>
      </trkpt>
      <trkpt lat="46.07758" lon="4.75899">
        <ele>173</ele>
        <time>2018-07-24T09:27:56Z</time>
      </trkpt>
      <trkpt lat="46.07753" lon="4.75903">
        <ele>173</ele>
        <time>2018-07-24T09:27:57Z</time>
      </trkpt>
      <trkpt lat="46.07748" lon="4.75907">
        <ele>172</ele>
        <time>2018-07-24T09:27:58Z</time>
      </trkpt>
      <trkpt lat="46.07744" lon="4.7591">
        <ele>172</ele>
        <time>2018-07-24T09:27:59Z</time>
      </trkpt>
      <trkpt lat="46.07739" lon="4.75914">
        <ele>172</ele>
        <time>2018-07-24T09:28:00Z</time>
      </trkpt>
      <trkpt lat="46.07735" lon="4.75918">
        <ele>173</ele>
        <time>2018-07-24T09:28:01Z</time>
      </trkpt>
      <trkpt lat="46.07731" lon="4.75922">
        <ele>173</ele>
        <time>2018-07-24T09:28:02Z</time>
      </trkpt>
      <trkpt lat="46.07726" lon="4.75924">
        <ele>173</ele>
        <time>2018-07-24T09:28:03Z</time>
      </trkpt>
      <trkpt lat="46.07722" lon="4.75929">
        <ele>172</ele>
        <time>2018-07-24T09:28:04Z</time>
      </trkpt>
      <trkpt lat="46.07718" lon="4.75933">
        <ele>172</ele>
        <time>2018-07-24T09:28:05Z</time>
      </trkpt>
      <trkpt lat="46.07714" lon="4.75936">
        <ele>172</ele>
        <time>2018-07-24T09:28:06Z</time>
      </trkpt>
      <trkpt lat="46.0771" lon="4.75937">
        <ele>172</ele>
        <time>2018-07-24T09:28:07Z</time>
      </trkpt>
      <trkpt lat="46.07705" lon="4.75938">
        <ele>172</ele>
        <time>2018-07-24T09:28:08Z</time>
      </trkpt>
      <trkpt lat="46.07697" lon="4.75946">
        <ele>172</ele>
        <time>2018-07-24T09:28:10Z</time>
      </trkpt>
      <trkpt lat="46.07693" lon="4.7595">
        <ele>172</ele>
        <time>2018-07-24T09:28:11Z</time>
      </trkpt>
      <trkpt lat="46.07689" lon="4.75953">
        <ele>172</ele>
        <time>2018-07-24T09:28:12Z</time>
      </trkpt>
      <trkpt lat="46.07684" lon="4.75957">
        <ele>172</ele>
        <time>2018-07-24T09:28:13Z</time>
      </trkpt>
      <trkpt lat="46.0768" lon="4.75962">
        <ele>172</ele>
        <time>2018-07-24T09:28:14Z</time>
      </trkpt>
      <trkpt lat="46.07675" lon="4.75965">
        <ele>172</ele>
        <time>2018-07-24T09:28:15Z</time>
      </trkpt>
      <trkpt lat="46.07671" lon="4.75968">
        <ele>172</ele>
        <time>2018-07-24T09:28:16Z</time>
      </trkpt>
      <trkpt lat="46.07666" lon="4.75971">
        <ele>170</ele>
        <time>2018-07-24T09:28:17Z</time>
      </trkpt>
      <trkpt lat="46.07663" lon="4.75977">
        <ele>170</ele>
        <time>2018-07-24T09:28:18Z</time>
      </trkpt>
      <trkpt lat="46.07659" lon="4.75981">
        <ele>170</ele>
        <time>2018-07-24T09:28:19Z</time>
      </trkpt>
      <trkpt lat="46.07654" lon="4.75982">
        <ele>170</ele>
        <time>2018-07-24T09:28:20Z</time>
      </trkpt>
      <trkpt lat="46.07649" lon="4.75984">
        <ele>170</ele>
        <time>2018-07-24T09:28:21Z</time>
      </trkpt>
      <trkpt lat="46.07647" lon="4.7599">
        <ele>170</ele>
        <time>2018-07-24T09:28:22Z</time>
      </trkpt>
      <trkpt lat="46.07645" lon="4.75996">
        <ele>170</ele>
        <time>2018-07-24T09:28:23Z</time>
      </trkpt>
      <trkpt lat="46.07646" lon="4.76007">
        <ele>172</ele>
        <time>2018-07-24T09:28:27Z</time>
      </trkpt>
      <trkpt lat="46.07647" lon="4.76011">
        <ele>172</ele>
        <time>2018-07-24T09:28:28Z</time>
      </trkpt>
      <trkpt lat="46.07649" lon="4.76018">
        <ele>172</ele>
        <time>2018-07-24T09:28:30Z</time>
      </trkpt>
      <trkpt lat="46.07656" lon="4.76033">
        <ele>172</ele>
        <time>2018-07-24T09:28:31Z</time>
      </trkpt>
      <trkpt lat="46.07661" lon="4.7604">
        <ele>172</ele>
        <time>2018-07-24T09:28:32Z</time>
      </trkpt>
      <trkpt lat="46.07663" lon="4.76043">
        <ele>172</ele>
        <time>2018-07-24T09:28:33Z</time>
      </trkpt>
      <trkpt lat="46.07665" lon="4.76049">
        <ele>172</ele>
        <time>2018-07-24T09:28:34Z</time>
      </trkpt>
      <trkpt lat="46.07668" lon="4.76054">
        <ele>174</ele>
        <time>2018-07-24T09:28:35Z</time>
      </trkpt>
      <trkpt lat="46.0767" lon="4.76061">
        <ele>174</ele>
        <time>2018-07-24T09:28:36Z</time>
      </trkpt>
      <trkpt lat="46.0767" lon="4.76067">
        <ele>174</ele>
        <time>2018-07-24T09:28:37Z</time>
      </trkpt>
      <trkpt lat="46.07672" lon="4.76072">
        <ele>174</ele>
        <time>2018-07-24T09:28:39Z</time>
      </trkpt>
      <trkpt lat="46.07677" lon="4.76081">
        <ele>174</ele>
        <time>2018-07-24T09:28:40Z</time>
      </trkpt>
      <trkpt lat="46.0768" lon="4.76092">
        <ele>173</ele>
        <time>2018-07-24T09:28:45Z</time>
      </trkpt>
      <trkpt lat="46.0768" lon="4.76095">
        <ele>173</ele>
        <time>2018-07-24T09:28:46Z</time>
      </trkpt>
      <trkpt lat="46.07676" lon="4.76104">
        <ele>173</ele>
        <time>2018-07-24T09:28:47Z</time>
      </trkpt>
      <trkpt lat="46.07673" lon="4.76108">
        <ele>173</ele>
        <time>2018-07-24T09:28:48Z</time>
      </trkpt>
      <trkpt lat="46.07666" lon="4.76115">
        <ele>172</ele>
        <time>2018-07-24T09:28:50Z</time>
      </trkpt>
      <trkpt lat="46.07663" lon="4.76119">
        <ele>172</ele>
        <time>2018-07-24T09:28:51Z</time>
      </trkpt>
      <trkpt lat="46.0766" lon="4.76124">
        <ele>172</ele>
        <time>2018-07-24T09:28:52Z</time>
      </trkpt>
      <trkpt lat="46.07656" lon="4.76128">
        <ele>172</ele>
        <time>2018-07-24T09:28:53Z</time>
      </trkpt>
      <trkpt lat="46.07652" lon="4.76132">
        <ele>172</ele>
        <time>2018-07-24T09:28:54Z</time>
      </trkpt>
      <trkpt lat="46.07648" lon="4.76136">
        <ele>172</ele>
        <time>2018-07-24T09:28:55Z</time>
      </trkpt>
      <trkpt lat="46.07644" lon="4.76139">
        <ele>172</ele>
        <time>2018-07-24T09:28:56Z</time>
      </trkpt>
      <trkpt lat="46.0764" lon="4.76144">
        <ele>172</ele>
        <time>2018-07-24T09:28:57Z</time>
      </trkpt>
      <trkpt lat="46.07635" lon="4.76148">
        <ele>172</ele>
        <time>2018-07-24T09:28:58Z</time>
      </trkpt>
      <trkpt lat="46.07632" lon="4.76152">
        <ele>172</ele>
        <time>2018-07-24T09:28:59Z</time>
      </trkpt>
      <trkpt lat="46.07628" lon="4.76158">
        <ele>172</ele>
        <time>2018-07-24T09:29:00Z</time>
      </trkpt>
      <trkpt lat="46.07623" lon="4.76163">
        <ele>172</ele>
        <time>2018-07-24T09:29:01Z</time>
      </trkpt>
      <trkpt lat="46.07619" lon="4.76168">
        <ele>173</ele>
        <time>2018-07-24T09:29:02Z</time>
      </trkpt>
      <trkpt lat="46.07615" lon="4.76175">
        <ele>173</ele>
        <time>2018-07-24T09:29:03Z</time>
      </trkpt>
      <trkpt lat="46.07611" lon="4.7618">
        <ele>173</ele>
        <time>2018-07-24T09:29:04Z</time>
      </trkpt>
      <trkpt lat="46.07606" lon="4.76185">
        <ele>173</ele>
        <time>2018-07-24T09:29:05Z</time>
      </trkpt>
      <trkpt lat="46.07601" lon="4.7619">
        <ele>173</ele>
        <time>2018-07-24T09:29:06Z</time>
      </trkpt>
      <trkpt lat="46.07596" lon="4.76194">
        <ele>173</ele>
        <time>2018-07-24T09:29:07Z</time>
      </trkpt>
      <trkpt lat="46.07591" lon="4.76198">
        <ele>173</ele>
        <time>2018-07-24T09:29:08Z</time>
      </trkpt>
      <trkpt lat="46.07587" lon="4.76203">
        <ele>173</ele>
        <time>2018-07-24T09:29:09Z</time>
      </trkpt>
      <trkpt lat="46.07583" lon="4.76207">
        <ele>173</ele>
        <time>2018-07-24T09:29:10Z</time>
      </trkpt>
      <trkpt lat="46.07578" lon="4.76211">
        <ele>173</ele>
        <time>2018-07-24T09:29:11Z</time>
      </trkpt>
      <trkpt lat="46.07574" lon="4.76217">
        <ele>173</ele>
        <time>2018-07-24T09:29:12Z</time>
      </trkpt>
      <trkpt lat="46.0757" lon="4.76221">
        <ele>173</ele>
        <time>2018-07-24T09:29:13Z</time>
      </trkpt>
      <trkpt lat="46.07565" lon="4.76226">
        <ele>173</ele>
        <time>2018-07-24T09:29:14Z</time>
      </trkpt>
      <trkpt lat="46.07561" lon="4.76231">
        <ele>173</ele>
        <time>2018-07-24T09:29:15Z</time>
      </trkpt>
      <trkpt lat="46.07557" lon="4.76237">
        <ele>173</ele>
        <time>2018-07-24T09:29:16Z</time>
      </trkpt>
      <trkpt lat="46.07551" lon="4.76243">
        <ele>173</ele>
        <time>2018-07-24T09:29:17Z</time>
      </trkpt>
      <trkpt lat="46.07547" lon="4.76247">
        <ele>173</ele>
        <time>2018-07-24T09:29:18Z</time>
      </trkpt>
      <trkpt lat="46.07542" lon="4.76253">
        <ele>174</ele>
        <time>2018-07-24T09:29:19Z</time>
      </trkpt>
      <trkpt lat="46.07538" lon="4.76257">
        <ele>174</ele>
        <time>2018-07-24T09:29:20Z</time>
      </trkpt>
      <trkpt lat="46.07533" lon="4.76261">
        <ele>174</ele>
        <time>2018-07-24T09:29:21Z</time>
      </trkpt>
      <trkpt lat="46.07528" lon="4.76266">
        <ele>174</ele>
        <time>2018-07-24T09:29:22Z</time>
      </trkpt>
      <trkpt lat="46.07522" lon="4.7627">
        <ele>174</ele>
        <time>2018-07-24T09:29:23Z</time>
      </trkpt>
      <trkpt lat="46.07518" lon="4.76276">
        <ele>174</ele>
        <time>2018-07-24T09:29:24Z</time>
      </trkpt>
      <trkpt lat="46.07513" lon="4.76282">
        <ele>174</ele>
        <time>2018-07-24T09:29:25Z</time>
      </trkpt>
      <trkpt lat="46.07509" lon="4.76287">
        <ele>174</ele>
        <time>2018-07-24T09:29:26Z</time>
      </trkpt>
      <trkpt lat="46.07505" lon="4.7629">
        <ele>174</ele>
        <time>2018-07-24T09:29:27Z</time>
      </trkpt>
      <trkpt lat="46.07501" lon="4.76295">
        <ele>174</ele>
        <time>2018-07-24T09:29:28Z</time>
      </trkpt>
      <trkpt lat="46.07496" lon="4.763">
        <ele>173</ele>
        <time>2018-07-24T09:29:29Z</time>
      </trkpt>
      <trkpt lat="46.07492" lon="4.76303">
        <ele>173</ele>
        <time>2018-07-24T09:29:30Z</time>
      </trkpt>
      <trkpt lat="46.07487" lon="4.76306">
        <ele>173</ele>
        <time>2018-07-24T09:29:31Z</time>
      </trkpt>
      <trkpt lat="46.07481" lon="4.76308">
        <ele>173</ele>
        <time>2018-07-24T09:29:32Z</time>
      </trkpt>
      <trkpt lat="46.07475" lon="4.7631">
        <ele>172</ele>
        <time>2018-07-24T09:29:33Z</time>
      </trkpt>
      <trkpt lat="46.0747" lon="4.76313">
        <ele>172</ele>
        <time>2018-07-24T09:29:34Z</time>
      </trkpt>
      <trkpt lat="46.07467" lon="4.76318">
        <ele>172</ele>
        <time>2018-07-24T09:29:35Z</time>
      </trkpt>
      <trkpt lat="46.07463" lon="4.76324">
        <ele>172</ele>
        <time>2018-07-24T09:29:36Z</time>
      </trkpt>
      <trkpt lat="46.07462" lon="4.76331">
        <ele>172</ele>
        <time>2018-07-24T09:29:37Z</time>
      </trkpt>
      <trkpt lat="46.07459" lon="4.76337">
        <ele>172</ele>
        <time>2018-07-24T09:29:38Z</time>
      </trkpt>
      <trkpt lat="46.07455" lon="4.76342">
        <ele>172</ele>
        <time>2018-07-24T09:29:39Z</time>
      </trkpt>
      <trkpt lat="46.07451" lon="4.76347">
        <ele>172</ele>
        <time>2018-07-24T09:29:40Z</time>
      </trkpt>
      <trkpt lat="46.07447" lon="4.76351">
        <ele>172</ele>
        <time>2018-07-24T09:29:41Z</time>
      </trkpt>
      <trkpt lat="46.07443" lon="4.76357">
        <ele>171</ele>
        <time>2018-07-24T09:29:42Z</time>
      </trkpt>
      <trkpt lat="46.07439" lon="4.76362">
        <ele>171</ele>
        <time>2018-07-24T09:29:43Z</time>
      </trkpt>
      <trkpt lat="46.07435" lon="4.76368">
        <ele>171</ele>
        <time>2018-07-24T09:29:44Z</time>
      </trkpt>
      <trkpt lat="46.07431" lon="4.76372">
        <ele>171</ele>
        <time>2018-07-24T09:29:45Z</time>
      </trkpt>
      <trkpt lat="46.07427" lon="4.76377">
        <ele>171</ele>
        <time>2018-07-24T09:29:46Z</time>
      </trkpt>
      <trkpt lat="46.07422" lon="4.76381">
        <ele>171</ele>
        <time>2018-07-24T09:29:47Z</time>
      </trkpt>
      <trkpt lat="46.07418" lon="4.76385">
        <ele>171</ele>
        <time>2018-07-24T09:29:48Z</time>
      </trkpt>
      <trkpt lat="46.07413" lon="4.7639">
        <ele>170</ele>
        <time>2018-07-24T09:29:49Z</time>
      </trkpt>
      <trkpt lat="46.07408" lon="4.76395">
        <ele>170</ele>
        <time>2018-07-24T09:29:50Z</time>
      </trkpt>
      <trkpt lat="46.07404" lon="4.76399">
        <ele>170</ele>
        <time>2018-07-24T09:29:51Z</time>
      </trkpt>
      <trkpt lat="46.07399" lon="4.76404">
        <ele>170</ele>
        <time>2018-07-24T09:29:52Z</time>
      </trkpt>
      <trkpt lat="46.07395" lon="4.76409">
        <ele>170</ele>
        <time>2018-07-24T09:29:53Z</time>
      </trkpt>
      <trkpt lat="46.0739" lon="4.76414">
        <ele>170</ele>
        <time>2018-07-24T09:29:54Z</time>
      </trkpt>
      <trkpt lat="46.07386" lon="4.76418">
        <ele>171</ele>
        <time>2018-07-24T09:29:55Z</time>
      </trkpt>
      <trkpt lat="46.07381" lon="4.76423">
        <ele>171</ele>
        <time>2018-07-24T09:29:56Z</time>
      </trkpt>
      <trkpt lat="46.07377" lon="4.76427">
        <ele>171</ele>
        <time>2018-07-24T09:29:57Z</time>
      </trkpt>
      <trkpt lat="46.07372" lon="4.76432">
        <ele>171</ele>
        <time>2018-07-24T09:29:58Z</time>
      </trkpt>
      <trkpt lat="46.07368" lon="4.76436">
        <ele>171</ele>
        <time>2018-07-24T09:29:59Z</time>
      </trkpt>
      <trkpt lat="46.07365" lon="4.76441">
        <ele>171</ele>
        <time>2018-07-24T09:30:00Z</time>
      </trkpt>
      <trkpt lat="46.0736" lon="4.76445">
        <ele>171</ele>
        <time>2018-07-24T09:30:01Z</time>
      </trkpt>
      <trkpt lat="46.07356" lon="4.7645">
        <ele>171</ele>
        <time>2018-07-24T09:30:02Z</time>
      </trkpt>
      <trkpt lat="46.07351" lon="4.76456">
        <ele>171</ele>
        <time>2018-07-24T09:30:03Z</time>
      </trkpt>
      <trkpt lat="46.07347" lon="4.76461">
        <ele>171</ele>
        <time>2018-07-24T09:30:04Z</time>
      </trkpt>
      <trkpt lat="46.07342" lon="4.76466">
        <ele>171</ele>
        <time>2018-07-24T09:30:05Z</time>
      </trkpt>
      <trkpt lat="46.07338" lon="4.76471">
        <ele>171</ele>
        <time>2018-07-24T09:30:06Z</time>
      </trkpt>
      <trkpt lat="46.07334" lon="4.76476">
        <ele>171</ele>
        <time>2018-07-24T09:30:07Z</time>
      </trkpt>
      <trkpt lat="46.07329" lon="4.76482">
        <ele>170</ele>
        <time>2018-07-24T09:30:08Z</time>
      </trkpt>
      <trkpt lat="46.07325" lon="4.76486">
        <ele>170</ele>
        <time>2018-07-24T09:30:09Z</time>
      </trkpt>
      <trkpt lat="46.07321" lon="4.7649">
        <ele>170</ele>
        <time>2018-07-24T09:30:10Z</time>
      </trkpt>
      <trkpt lat="46.07316" lon="4.76494">
        <ele>170</ele>
        <time>2018-07-24T09:30:11Z</time>
      </trkpt>
      <trkpt lat="46.07312" lon="4.76499">
        <ele>170</ele>
        <time>2018-07-24T09:30:12Z</time>
      </trkpt>
      <trkpt lat="46.07308" lon="4.76504">
        <ele>170</ele>
        <time>2018-07-24T09:30:13Z</time>
      </trkpt>
      <trkpt lat="46.07302" lon="4.76508">
        <ele>170</ele>
        <time>2018-07-24T09:30:14Z</time>
      </trkpt>
      <trkpt lat="46.07298" lon="4.76513">
        <ele>170</ele>
        <time>2018-07-24T09:30:15Z</time>
      </trkpt>
      <trkpt lat="46.07293" lon="4.76519">
        <ele>170</ele>
        <time>2018-07-24T09:30:16Z</time>
      </trkpt>
      <trkpt lat="46.07289" lon="4.76522">
        <ele>170</ele>
        <time>2018-07-24T09:30:17Z</time>
      </trkpt>
      <trkpt lat="46.07284" lon="4.76527">
        <ele>170</ele>
        <time>2018-07-24T09:30:18Z</time>
      </trkpt>
      <trkpt lat="46.07279" lon="4.7653">
        <ele>170</ele>
        <time>2018-07-24T09:30:19Z</time>
      </trkpt>
      <trkpt lat="46.07275" lon="4.76534">
        <ele>170</ele>
        <time>2018-07-24T09:30:20Z</time>
      </trkpt>
      <trkpt lat="46.07272" lon="4.7654">
        <ele>170</ele>
        <time>2018-07-24T09:30:21Z</time>
      </trkpt>
      <trkpt lat="46.07268" lon="4.76545">
        <ele>170</ele>
        <time>2018-07-24T09:30:22Z</time>
      </trkpt>
      <trkpt lat="46.07265" lon="4.76549">
        <ele>170</ele>
        <time>2018-07-24T09:30:23Z</time>
      </trkpt>
      <trkpt lat="46.07261" lon="4.76554">
        <ele>170</ele>
        <time>2018-07-24T09:30:24Z</time>
      </trkpt>
      <trkpt lat="46.07257" lon="4.76558">
        <ele>170</ele>
        <time>2018-07-24T09:30:25Z</time>
      </trkpt>
      <trkpt lat="46.07253" lon="4.76563">
        <ele>170</ele>
        <time>2018-07-24T09:30:26Z</time>
      </trkpt>
      <trkpt lat="46.07248" lon="4.76568">
        <ele>170</ele>
        <time>2018-07-24T09:30:27Z</time>
      </trkpt>
      <trkpt lat="46.07244" lon="4.76573">
        <ele>170</ele>
        <time>2018-07-24T09:30:28Z</time>
      </trkpt>
      <trkpt lat="46.0724" lon="4.76578">
        <ele>170</ele>
        <time>2018-07-24T09:30:29Z</time>
      </trkpt>
      <trkpt lat="46.07236" lon="4.76583">
        <ele>170</ele>
        <time>2018-07-24T09:30:30Z</time>
      </trkpt>
      <trkpt lat="46.0723" lon="4.76589">
        <ele>170</ele>
        <time>2018-07-24T09:30:31Z</time>
      </trkpt>
      <trkpt lat="46.07226" lon="4.76594">
        <ele>170</ele>
        <time>2018-07-24T09:30:32Z</time>
      </trkpt>
      <trkpt lat="46.07222" lon="4.766">
        <ele>170</ele>
        <time>2018-07-24T09:30:33Z</time>
      </trkpt>
      <trkpt lat="46.07218" lon="4.76605">
        <ele>170</ele>
        <time>2018-07-24T09:30:34Z</time>
      </trkpt>
      <trkpt lat="46.07213" lon="4.7661">
        <ele>170</ele>
        <time>2018-07-24T09:30:35Z</time>
      </trkpt>
      <trkpt lat="46.07209" lon="4.76617">
        <ele>170</ele>
        <time>2018-07-24T09:30:36Z</time>
      </trkpt>
      <trkpt lat="46.07205" lon="4.76622">
        <ele>171</ele>
        <time>2018-07-24T09:30:37Z</time>
      </trkpt>
      <trkpt lat="46.072" lon="4.76628">
        <ele>170</ele>
        <time>2018-07-24T09:30:38Z</time>
      </trkpt>
      <trkpt lat="46.07195" lon="4.76633">
        <ele>170</ele>
        <time>2018-07-24T09:30:39Z</time>
      </trkpt>
      <trkpt lat="46.07191" lon="4.7664">
        <ele>170</ele>
        <time>2018-07-24T09:30:40Z</time>
      </trkpt>
      <trkpt lat="46.07187" lon="4.76647">
        <ele>170</ele>
        <time>2018-07-24T09:30:41Z</time>
      </trkpt>
      <trkpt lat="46.07183" lon="4.76655">
        <ele>170</ele>
        <time>2018-07-24T09:30:42Z</time>
      </trkpt>
      <trkpt lat="46.0718" lon="4.76662">
        <ele>170</ele>
        <time>2018-07-24T09:30:43Z</time>
      </trkpt>
      <trkpt lat="46.07176" lon="4.76669">
        <ele>170</ele>
        <time>2018-07-24T09:30:44Z</time>
      </trkpt>
      <trkpt lat="46.07173" lon="4.76676">
        <ele>170</ele>
        <time>2018-07-24T09:30:45Z</time>
      </trkpt>
      <trkpt lat="46.07169" lon="4.76684">
        <ele>170</ele>
        <time>2018-07-24T09:30:46Z</time>
      </trkpt>
      <trkpt lat="46.07165" lon="4.76689">
        <ele>170</ele>
        <time>2018-07-24T09:30:47Z</time>
      </trkpt>
      <trkpt lat="46.07161" lon="4.76694">
        <ele>170</ele>
        <time>2018-07-24T09:30:48Z</time>
      </trkpt>
      <trkpt lat="46.07157" lon="4.767">
        <ele>170</ele>
        <time>2018-07-24T09:30:49Z</time>
      </trkpt>
      <trkpt lat="46.07154" lon="4.76709">
        <ele>170</ele>
        <time>2018-07-24T09:30:50Z</time>
      </trkpt>
      <trkpt lat="46.07151" lon="4.76715">
        <ele>170</ele>
        <time>2018-07-24T09:30:51Z</time>
      </trkpt>
      <trkpt lat="46.07148" lon="4.76723">
        <ele>170</ele>
        <time>2018-07-24T09:30:52Z</time>
      </trkpt>
      <trkpt lat="46.07144" lon="4.76731">
        <ele>171</ele>
        <time>2018-07-24T09:30:53Z</time>
      </trkpt>
      <trkpt lat="46.07141" lon="4.76737">
        <ele>171</ele>
        <time>2018-07-24T09:30:54Z</time>
      </trkpt>
      <trkpt lat="46.07137" lon="4.76744">
        <ele>171</ele>
        <time>2018-07-24T09:30:55Z</time>
      </trkpt>
      <trkpt lat="46.07135" lon="4.76753">
        <ele>171</ele>
        <time>2018-07-24T09:30:56Z</time>
      </trkpt>
      <trkpt lat="46.0713" lon="4.76757">
        <ele>171</ele>
        <time>2018-07-24T09:30:57Z</time>
      </trkpt>
      <trkpt lat="46.07128" lon="4.76763">
        <ele>171</ele>
        <time>2018-07-24T09:30:58Z</time>
      </trkpt>
      <trkpt lat="46.07125" lon="4.76769">
        <ele>171</ele>
        <time>2018-07-24T09:30:59Z</time>
      </trkpt>
      <trkpt lat="46.07121" lon="4.76775">
        <ele>171</ele>
        <time>2018-07-24T09:31:00Z</time>
      </trkpt>
      <trkpt lat="46.07117" lon="4.76781">
        <ele>171</ele>
        <time>2018-07-24T09:31:01Z</time>
      </trkpt>
      <trkpt lat="46.07115" lon="4.76789">
        <ele>171</ele>
        <time>2018-07-24T09:31:02Z</time>
      </trkpt>
      <trkpt lat="46.07112" lon="4.76796">
        <ele>172</ele>
        <time>2018-07-24T09:31:03Z</time>
      </trkpt>
      <trkpt lat="46.07108" lon="4.76801">
        <ele>172</ele>
        <time>2018-07-24T09:31:04Z</time>
      </trkpt>
      <trkpt lat="46.07105" lon="4.76807">
        <ele>172</ele>
        <time>2018-07-24T09:31:05Z</time>
      </trkpt>
      <trkpt lat="46.07101" lon="4.76815">
        <ele>172</ele>
        <time>2018-07-24T09:31:06Z</time>
      </trkpt>
      <trkpt lat="46.07098" lon="4.76821">
        <ele>172</ele>
        <time>2018-07-24T09:31:07Z</time>
      </trkpt>
      <trkpt lat="46.07094" lon="4.76828">
        <ele>172</ele>
        <time>2018-07-24T09:31:08Z</time>
      </trkpt>
      <trkpt lat="46.07092" lon="4.76838">
        <ele>172</ele>
        <time>2018-07-24T09:31:09Z</time>
      </trkpt>
      <trkpt lat="46.0709" lon="4.76844">
        <ele>172</ele>
        <time>2018-07-24T09:31:10Z</time>
      </trkpt>
      <trkpt lat="46.07085" lon="4.76849">
        <ele>172</ele>
        <time>2018-07-24T09:31:11Z</time>
      </trkpt>
      <trkpt lat="46.07084" lon="4.76857">
        <ele>173</ele>
        <time>2018-07-24T09:31:12Z</time>
      </trkpt>
      <trkpt lat="46.07081" lon="4.76863">
        <ele>172</ele>
        <time>2018-07-24T09:31:13Z</time>
      </trkpt>
      <trkpt lat="46.07078" lon="4.76869">
        <ele>172</ele>
        <time>2018-07-24T09:31:14Z</time>
      </trkpt>
      <trkpt lat="46.07075" lon="4.76875">
        <ele>172</ele>
        <time>2018-07-24T09:31:15Z</time>
      </trkpt>
      <trkpt lat="46.07071" lon="4.7688">
        <ele>172</ele>
        <time>2018-07-24T09:31:16Z</time>
      </trkpt>
      <trkpt lat="46.07068" lon="4.76885">
        <ele>172</ele>
        <time>2018-07-24T09:31:17Z</time>
      </trkpt>
      <trkpt lat="46.07065" lon="4.76892">
        <ele>172</ele>
        <time>2018-07-24T09:31:18Z</time>
      </trkpt>
      <trkpt lat="46.07062" lon="4.76899">
        <ele>172</ele>
        <time>2018-07-24T09:31:19Z</time>
      </trkpt>
      <trkpt lat="46.07059" lon="4.76907">
        <ele>172</ele>
        <time>2018-07-24T09:31:20Z</time>
      </trkpt>
      <trkpt lat="46.07056" lon="4.76912">
        <ele>172</ele>
        <time>2018-07-24T09:31:21Z</time>
      </trkpt>
      <trkpt lat="46.07053" lon="4.76918">
        <ele>173</ele>
        <time>2018-07-24T09:31:22Z</time>
      </trkpt>
      <trkpt lat="46.07049" lon="4.76922">
        <ele>173</ele>
        <time>2018-07-24T09:31:23Z</time>
      </trkpt>
      <trkpt lat="46.07046" lon="4.7693">
        <ele>173</ele>
        <time>2018-07-24T09:31:24Z</time>
      </trkpt>
      <trkpt lat="46.07043" lon="4.76937">
        <ele>173</ele>
        <time>2018-07-24T09:31:25Z</time>
      </trkpt>
      <trkpt lat="46.0704" lon="4.76943">
        <ele>173</ele>
        <time>2018-07-24T09:31:26Z</time>
      </trkpt>
      <trkpt lat="46.07037" lon="4.76949">
        <ele>173</ele>
        <time>2018-07-24T09:31:27Z</time>
      </trkpt>
      <trkpt lat="46.07034" lon="4.76954">
        <ele>173</ele>
        <time>2018-07-24T09:31:28Z</time>
      </trkpt>
      <trkpt lat="46.07031" lon="4.76959">
        <ele>173</ele>
        <time>2018-07-24T09:31:29Z</time>
      </trkpt>
      <trkpt lat="46.07025" lon="4.76969">
        <ele>173</ele>
        <time>2018-07-24T09:31:31Z</time>
      </trkpt>
      <trkpt lat="46.07021" lon="4.76974">
        <ele>173</ele>
        <time>2018-07-24T09:31:32Z</time>
      </trkpt>
      <trkpt lat="46.07018" lon="4.76979">
        <ele>173</ele>
        <time>2018-07-24T09:31:33Z</time>
      </trkpt>
      <trkpt lat="46.07015" lon="4.76986">
        <ele>173</ele>
        <time>2018-07-24T09:31:34Z</time>
      </trkpt>
      <trkpt lat="46.07013" lon="4.76992">
        <ele>173</ele>
        <time>2018-07-24T09:31:35Z</time>
      </trkpt>
      <trkpt lat="46.07011" lon="4.77001">
        <ele>173</ele>
        <time>2018-07-24T09:31:36Z</time>
      </trkpt>
      <trkpt lat="46.07007" lon="4.77007">
        <ele>173</ele>
        <time>2018-07-24T09:31:37Z</time>
      </trkpt>
      <trkpt lat="46.07004" lon="4.77012">
        <ele>173</ele>
        <time>2018-07-24T09:31:38Z</time>
      </trkpt>
      <trkpt lat="46.07002" lon="4.77017">
        <ele>174</ele>
        <time>2018-07-24T09:31:39Z</time>
      </trkpt>
      <trkpt lat="46.06998" lon="4.77023">
        <ele>173</ele>
        <time>2018-07-24T09:31:40Z</time>
      </trkpt>
      <trkpt lat="46.06994" lon="4.77031">
        <ele>173</ele>
        <time>2018-07-24T09:31:41Z</time>
      </trkpt>
      <trkpt lat="46.06991" lon="4.77036">
        <ele>173</ele>
        <time>2018-07-24T09:31:42Z</time>
      </trkpt>
      <trkpt lat="46.06988" lon="4.77041">
        <ele>173</ele>
        <time>2018-07-24T09:31:43Z</time>
      </trkpt>
      <trkpt lat="46.06985" lon="4.77047">
        <ele>173</ele>
        <time>2018-07-24T09:31:44Z</time>
      </trkpt>
      <trkpt lat="46.0698" lon="4.77056">
        <ele>173</ele>
        <time>2018-07-24T09:31:46Z</time>
      </trkpt>
      <trkpt lat="46.06977" lon="4.77061">
        <ele>173</ele>
        <time>2018-07-24T09:31:47Z</time>
      </trkpt>
      <trkpt lat="46.0697" lon="4.77068">
        <ele>173</ele>
        <time>2018-07-24T09:31:49Z</time>
      </trkpt>
      <trkpt lat="46.06964" lon="4.77068">
        <ele>173</ele>
        <time>2018-07-24T09:31:50Z</time>
      </trkpt>
      <trkpt lat="46.06959" lon="4.7707">
        <ele>173</ele>
        <time>2018-07-24T09:31:51Z</time>
      </trkpt>
      <trkpt lat="46.06953" lon="4.7707">
        <ele>173</ele>
        <time>2018-07-24T09:31:52Z</time>
      </trkpt>
      <trkpt lat="46.06948" lon="4.7707">
        <ele>173</ele>
        <time>2018-07-24T09:31:53Z</time>
      </trkpt>
      <trkpt lat="46.06942" lon="4.77069">
        <ele>173</ele>
        <time>2018-07-24T09:31:54Z</time>
      </trkpt>
      <trkpt lat="46.06936" lon="4.77069">
        <ele>173</ele>
        <time>2018-07-24T09:31:55Z</time>
      </trkpt>
      <trkpt lat="46.06932" lon="4.77067">
        <ele>173</ele>
        <time>2018-07-24T09:31:56Z</time>
      </trkpt>
      <trkpt lat="46.06926" lon="4.77068">
        <ele>173</ele>
        <time>2018-07-24T09:31:57Z</time>
      </trkpt>
      <trkpt lat="46.06919" lon="4.77068">
        <ele>173</ele>
        <time>2018-07-24T09:31:58Z</time>
      </trkpt>
      <trkpt lat="46.06915" lon="4.77065">
        <ele>173</ele>
        <time>2018-07-24T09:31:59Z</time>
      </trkpt>
      <trkpt lat="46.06907" lon="4.7707">
        <ele>173</ele>
        <time>2018-07-24T09:32:00Z</time>
      </trkpt>
      <trkpt lat="46.06902" lon="4.77069">
        <ele>173</ele>
        <time>2018-07-24T09:32:01Z</time>
      </trkpt>
      <trkpt lat="46.06895" lon="4.77071">
        <ele>173</ele>
        <time>2018-07-24T09:32:02Z</time>
      </trkpt>
      <trkpt lat="46.0689" lon="4.7707">
        <ele>173</ele>
        <time>2018-07-24T09:32:03Z</time>
      </trkpt>
      <trkpt lat="46.06885" lon="4.77071">
        <ele>173</ele>
        <time>2018-07-24T09:32:04Z</time>
      </trkpt>
      <trkpt lat="46.0688" lon="4.7707">
        <ele>173</ele>
        <time>2018-07-24T09:32:05Z</time>
      </trkpt>
      <trkpt lat="46.06875" lon="4.7707">
        <ele>173</ele>
        <time>2018-07-24T09:32:06Z</time>
      </trkpt>
      <trkpt lat="46.0687" lon="4.77072">
        <ele>173</ele>
        <time>2018-07-24T09:32:07Z</time>
      </trkpt>
      <trkpt lat="46.06865" lon="4.77074">
        <ele>173</ele>
        <time>2018-07-24T09:32:08Z</time>
      </trkpt>
      <trkpt lat="46.06857" lon="4.77074">
        <ele>173</ele>
        <time>2018-07-24T09:32:10Z</time>
      </trkpt>
      <trkpt lat="46.06852" lon="4.77077">
        <ele>173</ele>
        <time>2018-07-24T09:32:11Z</time>
      </trkpt>
      <trkpt lat="46.06847" lon="4.77079">
        <ele>173</ele>
        <time>2018-07-24T09:32:12Z</time>
      </trkpt>
      <trkpt lat="46.06841" lon="4.77083">
        <ele>173</ele>
        <time>2018-07-24T09:32:13Z</time>
      </trkpt>
      <trkpt lat="46.06836" lon="4.77085">
        <ele>173</ele>
        <time>2018-07-24T09:32:14Z</time>
      </trkpt>
      <trkpt lat="46.06832" lon="4.77087">
        <ele>173</ele>
        <time>2018-07-24T09:32:15Z</time>
      </trkpt>
      <trkpt lat="46.06827" lon="4.7709">
        <ele>173</ele>
        <time>2018-07-24T09:32:16Z</time>
      </trkpt>
      <trkpt lat="46.06822" lon="4.77094">
        <ele>173</ele>
        <time>2018-07-24T09:32:17Z</time>
      </trkpt>
      <trkpt lat="46.06816" lon="4.77097">
        <ele>173</ele>
        <time>2018-07-24T09:32:18Z</time>
      </trkpt>
      <trkpt lat="46.06811" lon="4.77101">
        <ele>172</ele>
        <time>2018-07-24T09:32:19Z</time>
      </trkpt>
      <trkpt lat="46.06805" lon="4.77107">
        <ele>172</ele>
        <time>2018-07-24T09:32:20Z</time>
      </trkpt>
      <trkpt lat="46.06801" lon="4.7711">
        <ele>172</ele>
        <time>2018-07-24T09:32:21Z</time>
      </trkpt>
      <trkpt lat="46.06794" lon="4.77118">
        <ele>172</ele>
        <time>2018-07-24T09:32:23Z</time>
      </trkpt>
      <trkpt lat="46.0679" lon="4.7712">
        <ele>172</ele>
        <time>2018-07-24T09:32:24Z</time>
      </trkpt>
      <trkpt lat="46.06785" lon="4.77124">
        <ele>172</ele>
        <time>2018-07-24T09:32:25Z</time>
      </trkpt>
      <trkpt lat="46.06781" lon="4.77128">
        <ele>172</ele>
        <time>2018-07-24T09:32:26Z</time>
      </trkpt>
      <trkpt lat="46.06776" lon="4.77133">
        <ele>172</ele>
        <time>2018-07-24T09:32:27Z</time>
      </trkpt>
      <trkpt lat="46.06772" lon="4.77138">
        <ele>172</ele>
        <time>2018-07-24T09:32:28Z</time>
      </trkpt>
      <trkpt lat="46.06768" lon="4.77142">
        <ele>172</ele>
        <time>2018-07-24T09:32:29Z</time>
      </trkpt>
      <trkpt lat="46.06763" lon="4.77146">
        <ele>172</ele>
        <time>2018-07-24T09:32:30Z</time>
      </trkpt>
      <trkpt lat="46.06758" lon="4.7715">
        <ele>172</ele>
        <time>2018-07-24T09:32:31Z</time>
      </trkpt>
      <trkpt lat="46.06753" lon="4.77155">
        <ele>172</ele>
        <time>2018-07-24T09:32:32Z</time>
      </trkpt>
      <trkpt lat="46.06748" lon="4.77159">
        <ele>172</ele>
        <time>2018-07-24T09:32:33Z</time>
      </trkpt>
      <trkpt lat="46.06745" lon="4.77162">
        <ele>172</ele>
        <time>2018-07-24T09:32:34Z</time>
      </trkpt>
      <trkpt lat="46.06741" lon="4.77166">
        <ele>172</ele>
        <time>2018-07-24T09:32:35Z</time>
      </trkpt>
      <trkpt lat="46.06735" lon="4.77168">
        <ele>172</ele>
        <time>2018-07-24T09:32:36Z</time>
      </trkpt>
      <trkpt lat="46.06728" lon="4.77174">
        <ele>172</ele>
        <time>2018-07-24T09:32:38Z</time>
      </trkpt>
      <trkpt lat="46.06722" lon="4.77178">
        <ele>172</ele>
        <time>2018-07-24T09:32:39Z</time>
      </trkpt>
      <trkpt lat="46.06717" lon="4.77181">
        <ele>172</ele>
        <time>2018-07-24T09:32:40Z</time>
      </trkpt>
      <trkpt lat="46.06712" lon="4.77184">
        <ele>172</ele>
        <time>2018-07-24T09:32:41Z</time>
      </trkpt>
      <trkpt lat="46.06706" lon="4.77187">
        <ele>172</ele>
        <time>2018-07-24T09:32:42Z</time>
      </trkpt>
      <trkpt lat="46.06701" lon="4.77188">
        <ele>172</ele>
        <time>2018-07-24T09:32:43Z</time>
      </trkpt>
      <trkpt lat="46.06695" lon="4.77191">
        <ele>172</ele>
        <time>2018-07-24T09:32:44Z</time>
      </trkpt>
      <trkpt lat="46.0669" lon="4.77193">
        <ele>172</ele>
        <time>2018-07-24T09:32:45Z</time>
      </trkpt>
      <trkpt lat="46.06685" lon="4.77198">
        <ele>172</ele>
        <time>2018-07-24T09:32:46Z</time>
      </trkpt>
      <trkpt lat="46.06682" lon="4.77204">
        <ele>172</ele>
        <time>2018-07-24T09:32:47Z</time>
      </trkpt>
      <trkpt lat="46.0668" lon="4.77212">
        <ele>172</ele>
        <time>2018-07-24T09:32:48Z</time>
      </trkpt>
      <trkpt lat="46.0668" lon="4.77221">
        <ele>172</ele>
        <time>2018-07-24T09:32:49Z</time>
      </trkpt>
      <trkpt lat="46.0668" lon="4.77228">
        <ele>172</ele>
        <time>2018-07-24T09:32:50Z</time>
      </trkpt>
      <trkpt lat="46.0668" lon="4.77236">
        <ele>172</ele>
        <time>2018-07-24T09:32:51Z</time>
      </trkpt>
      <trkpt lat="46.06677" lon="4.77243">
        <ele>173</ele>
        <time>2018-07-24T09:32:52Z</time>
      </trkpt>
      <trkpt lat="46.06673" lon="4.77248">
        <ele>173</ele>
        <time>2018-07-24T09:32:53Z</time>
      </trkpt>
      <trkpt lat="46.06669" lon="4.77253">
        <ele>173</ele>
        <time>2018-07-24T09:32:54Z</time>
      </trkpt>
      <trkpt lat="46.06667" lon="4.77261">
        <ele>173</ele>
        <time>2018-07-24T09:32:55Z</time>
      </trkpt>
      <trkpt lat="46.06664" lon="4.77268">
        <ele>173</ele>
        <time>2018-07-24T09:32:56Z</time>
      </trkpt>
      <trkpt lat="46.06661" lon="4.77275">
        <ele>174</ele>
        <time>2018-07-24T09:32:57Z</time>
      </trkpt>
      <trkpt lat="46.06659" lon="4.77281">
        <ele>174</ele>
        <time>2018-07-24T09:32:58Z</time>
      </trkpt>
      <trkpt lat="46.06656" lon="4.7729">
        <ele>174</ele>
        <time>2018-07-24T09:32:59Z</time>
      </trkpt>
      <trkpt lat="46.06652" lon="4.77296">
        <ele>174</ele>
        <time>2018-07-24T09:33:00Z</time>
      </trkpt>
      <trkpt lat="46.06651" lon="4.77304">
        <ele>174</ele>
        <time>2018-07-24T09:33:01Z</time>
      </trkpt>
      <trkpt lat="46.06648" lon="4.77311">
        <ele>174</ele>
        <time>2018-07-24T09:33:02Z</time>
      </trkpt>
      <trkpt lat="46.06648" lon="4.77319">
        <ele>174</ele>
        <time>2018-07-24T09:33:03Z</time>
      </trkpt>
      <trkpt lat="46.06646" lon="4.77326">
        <ele>174</ele>
        <time>2018-07-24T09:33:04Z</time>
      </trkpt>
      <trkpt lat="46.06642" lon="4.77332">
        <ele>174</ele>
        <time>2018-07-24T09:33:05Z</time>
      </trkpt>
      <trkpt lat="46.06639" lon="4.77338">
        <ele>175</ele>
        <time>2018-07-24T09:33:06Z</time>
      </trkpt>
      <trkpt lat="46.06637" lon="4.77346">
        <ele>176</ele>
        <time>2018-07-24T09:33:07Z</time>
      </trkpt>
      <trkpt lat="46.06634" lon="4.77352">
        <ele>176</ele>
        <time>2018-07-24T09:33:08Z</time>
      </trkpt>
      <trkpt lat="46.06631" lon="4.77358">
        <ele>176</ele>
        <time>2018-07-24T09:33:09Z</time>
      </trkpt>
      <trkpt lat="46.06629" lon="4.77365">
        <ele>176</ele>
        <time>2018-07-24T09:33:10Z</time>
      </trkpt>
      <trkpt lat="46.06626" lon="4.77369">
        <ele>176</ele>
        <time>2018-07-24T09:33:11Z</time>
      </trkpt>
      <trkpt lat="46.06621" lon="4.7738">
        <ele>176</ele>
        <time>2018-07-24T09:33:13Z</time>
      </trkpt>
      <trkpt lat="46.06619" lon="4.77385">
        <ele>177</ele>
        <time>2018-07-24T09:33:14Z</time>
      </trkpt>
      <trkpt lat="46.06614" lon="4.77396">
        <ele>177</ele>
        <time>2018-07-24T09:33:16Z</time>
      </trkpt>
      <trkpt lat="46.06612" lon="4.77401">
        <ele>177</ele>
        <time>2018-07-24T09:33:17Z</time>
      </trkpt>
      <trkpt lat="46.06608" lon="4.77407">
        <ele>177</ele>
        <time>2018-07-24T09:33:18Z</time>
      </trkpt>
      <trkpt lat="46.06606" lon="4.77413">
        <ele>177</ele>
        <time>2018-07-24T09:33:19Z</time>
      </trkpt>
      <trkpt lat="46.06604" lon="4.7742">
        <ele>179</ele>
        <time>2018-07-24T09:33:20Z</time>
      </trkpt>
      <trkpt lat="46.06601" lon="4.77425">
        <ele>179</ele>
        <time>2018-07-24T09:33:21Z</time>
      </trkpt>
      <trkpt lat="46.06597" lon="4.77432">
        <ele>179</ele>
        <time>2018-07-24T09:33:22Z</time>
      </trkpt>
      <trkpt lat="46.06596" lon="4.77439">
        <ele>180</ele>
        <time>2018-07-24T09:33:23Z</time>
      </trkpt>
      <trkpt lat="46.06592" lon="4.77445">
        <ele>180</ele>
        <time>2018-07-24T09:33:24Z</time>
      </trkpt>
      <trkpt lat="46.06591" lon="4.7745">
        <ele>180</ele>
        <time>2018-07-24T09:33:25Z</time>
      </trkpt>
      <trkpt lat="46.06591" lon="4.77461">
        <ele>180</ele>
        <time>2018-07-24T09:33:27Z</time>
      </trkpt>
      <trkpt lat="46.06592" lon="4.77468">
        <ele>181</ele>
        <time>2018-07-24T09:33:28Z</time>
      </trkpt>
      <trkpt lat="46.06595" lon="4.77478">
        <ele>181</ele>
        <time>2018-07-24T09:33:30Z</time>
      </trkpt>
      <trkpt lat="46.06599" lon="4.77483">
        <ele>181</ele>
        <time>2018-07-24T09:33:31Z</time>
      </trkpt>
      <trkpt lat="46.06601" lon="4.77489">
        <ele>181</ele>
        <time>2018-07-24T09:33:32Z</time>
      </trkpt>
      <trkpt lat="46.06604" lon="4.77494">
        <ele>181</ele>
        <time>2018-07-24T09:33:33Z</time>
      </trkpt>
      <trkpt lat="46.0661" lon="4.77502">
        <ele>183</ele>
        <time>2018-07-24T09:33:35Z</time>
      </trkpt>
      <trkpt lat="46.06613" lon="4.77508">
        <ele>183</ele>
        <time>2018-07-24T09:33:36Z</time>
      </trkpt>
      <trkpt lat="46.06618" lon="4.77516">
        <ele>183</ele>
        <time>2018-07-24T09:33:38Z</time>
      </trkpt>
      <trkpt lat="46.06619" lon="4.77517">
        <ele>183</ele>
        <time>2018-07-24T09:33:39Z</time>
      </trkpt>
      <trkpt lat="46.06623" lon="4.77526">
        <ele>183</ele>
        <time>2018-07-24T09:33:42Z</time>
      </trkpt>
      <trkpt lat="46.06624" lon="4.7753">
        <ele>183</ele>
        <time>2018-07-24T09:33:43Z</time>
      </trkpt>
      <trkpt lat="46.06626" lon="4.77542">
        <ele>183</ele>
        <time>2018-07-24T09:33:46Z</time>
      </trkpt>
      <trkpt lat="46.06626" lon="4.77546">
        <ele>183</ele>
        <time>2018-07-24T09:33:47Z</time>
      </trkpt>
      <trkpt lat="46.06627" lon="4.77555">
        <ele>183</ele>
        <time>2018-07-24T09:33:49Z</time>
      </trkpt>
      <trkpt lat="46.06628" lon="4.77559">
        <ele>183</ele>
        <time>2018-07-24T09:33:50Z</time>
      </trkpt>
      <trkpt lat="46.06629" lon="4.77569">
        <ele>183</ele>
        <time>2018-07-24T09:33:52Z</time>
      </trkpt>
      <trkpt lat="46.06629" lon="4.77574">
        <ele>183</ele>
        <time>2018-07-24T09:33:53Z</time>
      </trkpt>
      <trkpt lat="46.06629" lon="4.77583">
        <ele>183</ele>
        <time>2018-07-24T09:33:55Z</time>
      </trkpt>
      <trkpt lat="46.06629" lon="4.77587">
        <ele>185</ele>
        <time>2018-07-24T09:33:56Z</time>
      </trkpt>
      <trkpt lat="46.06629" lon="4.77596">
        <ele>185</ele>
        <time>2018-07-24T09:33:58Z</time>
      </trkpt>
      <trkpt lat="46.06629" lon="4.77601">
        <ele>185</ele>
        <time>2018-07-24T09:33:59Z</time>
      </trkpt>
      <trkpt lat="46.06629" lon="4.7761">
        <ele>185</ele>
        <time>2018-07-24T09:34:01Z</time>
      </trkpt>
      <trkpt lat="46.06629" lon="4.77614">
        <ele>185</ele>
        <time>2018-07-24T09:34:02Z</time>
      </trkpt>
      <trkpt lat="46.06628" lon="4.77623">
        <ele>185</ele>
        <time>2018-07-24T09:34:04Z</time>
      </trkpt>
      <trkpt lat="46.06627" lon="4.77627">
        <ele>185</ele>
        <time>2018-07-24T09:34:05Z</time>
      </trkpt>
      <trkpt lat="46.06625" lon="4.77639">
        <ele>185</ele>
        <time>2018-07-24T09:34:08Z</time>
      </trkpt>
      <trkpt lat="46.06624" lon="4.77643">
        <ele>185</ele>
        <time>2018-07-24T09:34:09Z</time>
      </trkpt>
      <trkpt lat="46.06622" lon="4.77653">
        <ele>185</ele>
        <time>2018-07-24T09:34:12Z</time>
      </trkpt>
      <trkpt lat="46.0662" lon="4.77657">
        <ele>185</ele>
        <time>2018-07-24T09:34:13Z</time>
      </trkpt>
      <trkpt lat="46.06615" lon="4.77666">
        <ele>185</ele>
        <time>2018-07-24T09:34:16Z</time>
      </trkpt>
      <trkpt lat="46.06613" lon="4.77668">
        <ele>187</ele>
        <time>2018-07-24T09:34:17Z</time>
      </trkpt>
      <trkpt lat="46.06607" lon="4.77674">
        <ele>187</ele>
        <time>2018-07-24T09:34:20Z</time>
      </trkpt>
      <trkpt lat="46.06605" lon="4.77675">
        <ele>187</ele>
        <time>2018-07-24T09:34:21Z</time>
      </trkpt>
      <trkpt lat="46.06598" lon="4.77678">
        <ele>187</ele>
        <time>2018-07-24T09:34:24Z</time>
      </trkpt>
      <trkpt lat="46.06596" lon="4.77679">
        <ele>187</ele>
        <time>2018-07-24T09:34:25Z</time>
      </trkpt>
      <trkpt lat="46.06589" lon="4.77681">
        <ele>187</ele>
        <time>2018-07-24T09:34:28Z</time>
      </trkpt>
      <trkpt lat="46.06586" lon="4.77682">
        <ele>187</ele>
        <time>2018-07-24T09:34:29Z</time>
      </trkpt>
      <trkpt lat="46.06579" lon="4.77687">
        <ele>188</ele>
        <time>2018-07-24T09:34:32Z</time>
      </trkpt>
      <trkpt lat="46.06569" lon="4.77694">
        <ele>188</ele>
        <time>2018-07-24T09:34:33Z</time>
      </trkpt>
      <trkpt lat="46.06563" lon="4.777">
        <ele>189</ele>
        <time>2018-07-24T09:34:35Z</time>
      </trkpt>
      <trkpt lat="46.06557" lon="4.77705">
        <ele>189</ele>
        <time>2018-07-24T09:34:36Z</time>
      </trkpt>
      <trkpt lat="46.06553" lon="4.7771">
        <ele>189</ele>
        <time>2018-07-24T09:34:38Z</time>
      </trkpt>
      <trkpt lat="46.06547" lon="4.77719">
        <ele>189</ele>
        <time>2018-07-24T09:34:39Z</time>
      </trkpt>
      <trkpt lat="46.06543" lon="4.77726">
        <ele>189</ele>
        <time>2018-07-24T09:34:41Z</time>
      </trkpt>
      <trkpt lat="46.06541" lon="4.77729">
        <ele>190</ele>
        <time>2018-07-24T09:34:42Z</time>
      </trkpt>
      <trkpt lat="46.06536" lon="4.77735">
        <ele>190</ele>
        <time>2018-07-24T09:34:44Z</time>
      </trkpt>
      <trkpt lat="46.06534" lon="4.77738">
        <ele>190</ele>
        <time>2018-07-24T09:34:45Z</time>
      </trkpt>
      <trkpt lat="46.06529" lon="4.77745">
        <ele>190</ele>
        <time>2018-07-24T09:34:47Z</time>
      </trkpt>
      <trkpt lat="46.06528" lon="4.77749">
        <ele>190</ele>
        <time>2018-07-24T09:34:48Z</time>
      </trkpt>
      <trkpt lat="46.06522" lon="4.77762">
        <ele>192</ele>
        <time>2018-07-24T09:34:49Z</time>
      </trkpt>
      <trkpt lat="46.06517" lon="4.77772">
        <ele>192</ele>
        <time>2018-07-24T09:34:51Z</time>
      </trkpt>
      <trkpt lat="46.06516" lon="4.77775">
        <ele>192</ele>
        <time>2018-07-24T09:34:52Z</time>
      </trkpt>
      <trkpt lat="46.06513" lon="4.77781">
        <ele>192</ele>
        <time>2018-07-24T09:34:54Z</time>
      </trkpt>
      <trkpt lat="46.06508" lon="4.77789">
        <ele>192</ele>
        <time>2018-07-24T09:34:55Z</time>
      </trkpt>
      <trkpt lat="46.06504" lon="4.77797">
        <ele>192</ele>
        <time>2018-07-24T09:34:58Z</time>
      </trkpt>
      <trkpt lat="46.06503" lon="4.778">
        <ele>192</ele>
        <time>2018-07-24T09:34:59Z</time>
      </trkpt>
      <trkpt lat="46.065" lon="4.77807">
        <ele>192</ele>
        <time>2018-07-24T09:35:01Z</time>
      </trkpt>
      <trkpt lat="46.06498" lon="4.77811">
        <ele>192</ele>
        <time>2018-07-24T09:35:02Z</time>
      </trkpt>
      <trkpt lat="46.06495" lon="4.77819">
        <ele>192</ele>
        <time>2018-07-24T09:35:04Z</time>
      </trkpt>
      <trkpt lat="46.06493" lon="4.77823">
        <ele>192</ele>
        <time>2018-07-24T09:35:05Z</time>
      </trkpt>
      <trkpt lat="46.0649" lon="4.7783">
        <ele>192</ele>
        <time>2018-07-24T09:35:07Z</time>
      </trkpt>
      <trkpt lat="46.06488" lon="4.77834">
        <ele>192</ele>
        <time>2018-07-24T09:35:08Z</time>
      </trkpt>
      <trkpt lat="46.06484" lon="4.77845">
        <ele>192</ele>
        <time>2018-07-24T09:35:11Z</time>
      </trkpt>
      <trkpt lat="46.06483" lon="4.77849">
        <ele>192</ele>
        <time>2018-07-24T09:35:12Z</time>
      </trkpt>
      <trkpt lat="46.06478" lon="4.77859">
        <ele>192</ele>
        <time>2018-07-24T09:35:15Z</time>
      </trkpt>
      <trkpt lat="46.06477" lon="4.77863">
        <ele>192</ele>
        <time>2018-07-24T09:35:16Z</time>
      </trkpt>
      <trkpt lat="46.06474" lon="4.7787">
        <ele>193</ele>
        <time>2018-07-24T09:35:18Z</time>
      </trkpt>
      <trkpt lat="46.06472" lon="4.77874">
        <ele>193</ele>
        <time>2018-07-24T09:35:19Z</time>
      </trkpt>
      <trkpt lat="46.06469" lon="4.77883">
        <ele>193</ele>
        <time>2018-07-24T09:35:21Z</time>
      </trkpt>
      <trkpt lat="46.06468" lon="4.77887">
        <ele>193</ele>
        <time>2018-07-24T09:35:22Z</time>
      </trkpt>
      <trkpt lat="46.06465" lon="4.77895">
        <ele>193</ele>
        <time>2018-07-24T09:35:24Z</time>
      </trkpt>
      <trkpt lat="46.06464" lon="4.77898">
        <ele>193</ele>
        <time>2018-07-24T09:35:25Z</time>
      </trkpt>
      <trkpt lat="46.0646" lon="4.77908">
        <ele>193</ele>
        <time>2018-07-24T09:35:28Z</time>
      </trkpt>
      <trkpt lat="46.06459" lon="4.77912">
        <ele>193</ele>
        <time>2018-07-24T09:35:29Z</time>
      </trkpt>
      <trkpt lat="46.06456" lon="4.77924">
        <ele>194</ele>
        <time>2018-07-24T09:35:32Z</time>
      </trkpt>
      <trkpt lat="46.06455" lon="4.77928">
        <ele>194</ele>
        <time>2018-07-24T09:35:33Z</time>
      </trkpt>
      <trkpt lat="46.06452" lon="4.7794">
        <ele>195</ele>
        <time>2018-07-24T09:35:36Z</time>
      </trkpt>
      <trkpt lat="46.06451" lon="4.77944">
        <ele>195</ele>
        <time>2018-07-24T09:35:37Z</time>
      </trkpt>
      <trkpt lat="46.06449" lon="4.77952">
        <ele>195</ele>
        <time>2018-07-24T09:35:39Z</time>
      </trkpt>
      <trkpt lat="46.06448" lon="4.77957">
        <ele>195</ele>
        <time>2018-07-24T09:35:40Z</time>
      </trkpt>
      <trkpt lat="46.06446" lon="4.77965">
        <ele>195</ele>
        <time>2018-07-24T09:35:42Z</time>
      </trkpt>
      <trkpt lat="46.06445" lon="4.7797">
        <ele>195</ele>
        <time>2018-07-24T09:35:43Z</time>
      </trkpt>
      <trkpt lat="46.06443" lon="4.77982">
        <ele>195</ele>
        <time>2018-07-24T09:35:46Z</time>
      </trkpt>
      <trkpt lat="46.06442" lon="4.77986">
        <ele>195</ele>
        <time>2018-07-24T09:35:47Z</time>
      </trkpt>
      <trkpt lat="46.06441" lon="4.77994">
        <ele>195</ele>
        <time>2018-07-24T09:35:49Z</time>
      </trkpt>
      <trkpt lat="46.06441" lon="4.77999">
        <ele>195</ele>
        <time>2018-07-24T09:35:50Z</time>
      </trkpt>
      <trkpt lat="46.06439" lon="4.78007">
        <ele>197</ele>
        <time>2018-07-24T09:35:52Z</time>
      </trkpt>
      <trkpt lat="46.06438" lon="4.78011">
        <ele>197</ele>
        <time>2018-07-24T09:35:53Z</time>
      </trkpt>
      <trkpt lat="46.06435" lon="4.7802">
        <ele>197</ele>
        <time>2018-07-24T09:35:55Z</time>
      </trkpt>
      <trkpt lat="46.06434" lon="4.78024">
        <ele>198</ele>
        <time>2018-07-24T09:35:56Z</time>
      </trkpt>
      <trkpt lat="46.06428" lon="4.78034">
        <ele>198</ele>
        <time>2018-07-24T09:35:59Z</time>
      </trkpt>
      <trkpt lat="46.06426" lon="4.78037">
        <ele>198</ele>
        <time>2018-07-24T09:36:00Z</time>
      </trkpt>
      <trkpt lat="46.06421" lon="4.78043">
        <ele>198</ele>
        <time>2018-07-24T09:36:02Z</time>
      </trkpt>
      <trkpt lat="46.06413" lon="4.78053">
        <ele>198</ele>
        <time>2018-07-24T09:36:03Z</time>
      </trkpt>
      <trkpt lat="46.06408" lon="4.7806">
        <ele>198</ele>
        <time>2018-07-24T09:36:05Z</time>
      </trkpt>
      <trkpt lat="46.06405" lon="4.78064">
        <ele>198</ele>
        <time>2018-07-24T09:36:06Z</time>
      </trkpt>
      <trkpt lat="46.064" lon="4.78073">
        <ele>198</ele>
        <time>2018-07-24T09:36:08Z</time>
      </trkpt>
      <trkpt lat="46.06398" lon="4.78077">
        <ele>198</ele>
        <time>2018-07-24T09:36:09Z</time>
      </trkpt>
      <trkpt lat="46.06395" lon="4.78088">
        <ele>200</ele>
        <time>2018-07-24T09:36:11Z</time>
      </trkpt>
      <trkpt lat="46.06393" lon="4.78094">
        <ele>200</ele>
        <time>2018-07-24T09:36:12Z</time>
      </trkpt>
      <trkpt lat="46.06392" lon="4.78104">
        <ele>200</ele>
        <time>2018-07-24T09:36:14Z</time>
      </trkpt>
      <trkpt lat="46.06391" lon="4.78109">
        <ele>200</ele>
        <time>2018-07-24T09:36:15Z</time>
      </trkpt>
      <trkpt lat="46.06389" lon="4.7812">
        <ele>200</ele>
        <time>2018-07-24T09:36:17Z</time>
      </trkpt>
      <trkpt lat="46.06389" lon="4.78126">
        <ele>201</ele>
        <time>2018-07-24T09:36:18Z</time>
      </trkpt>
      <trkpt lat="46.06389" lon="4.78137">
        <ele>201</ele>
        <time>2018-07-24T09:36:20Z</time>
      </trkpt>
      <trkpt lat="46.0639" lon="4.78143">
        <ele>201</ele>
        <time>2018-07-24T09:36:21Z</time>
      </trkpt>
      <trkpt lat="46.0639" lon="4.78155">
        <ele>201</ele>
        <time>2018-07-24T09:36:23Z</time>
      </trkpt>
      <trkpt lat="46.0639" lon="4.78158">
        <ele>201</ele>
        <time>2018-07-24T09:36:24Z</time>
      </trkpt>
      <trkpt lat="46.0639" lon="4.78168">
        <ele>204</ele>
        <time>2018-07-24T09:36:26Z</time>
      </trkpt>
      <trkpt lat="46.0639" lon="4.78171">
        <ele>204</ele>
        <time>2018-07-24T09:36:27Z</time>
      </trkpt>
      <trkpt lat="46.06389" lon="4.78178">
        <ele>204</ele>
        <time>2018-07-24T09:36:29Z</time>
      </trkpt>
      <trkpt lat="46.06388" lon="4.7819">
        <ele>204</ele>
        <time>2018-07-24T09:36:30Z</time>
      </trkpt>
      <trkpt lat="46.06385" lon="4.78199">
        <ele>204</ele>
        <time>2018-07-24T09:36:32Z</time>
      </trkpt>
      <trkpt lat="46.06382" lon="4.78204">
        <ele>204</ele>
        <time>2018-07-24T09:36:33Z</time>
      </trkpt>
      <trkpt lat="46.06376" lon="4.7821">
        <ele>204</ele>
        <time>2018-07-24T09:36:35Z</time>
      </trkpt>
      <trkpt lat="46.06374" lon="4.78212">
        <ele>204</ele>
        <time>2018-07-24T09:36:36Z</time>
      </trkpt>
      <trkpt lat="46.0637" lon="4.78216">
        <ele>204</ele>
        <time>2018-07-24T09:36:37Z</time>
      </trkpt>
      <trkpt lat="46.06367" lon="4.78219">
        <ele>204</ele>
        <time>2018-07-24T09:36:38Z</time>
      </trkpt>
      <trkpt lat="46.06361" lon="4.78225">
        <ele>205</ele>
        <time>2018-07-24T09:36:41Z</time>
      </trkpt>
      <trkpt lat="46.06359" lon="4.78226">
        <ele>205</ele>
        <time>2018-07-24T09:36:42Z</time>
      </trkpt>
      <trkpt lat="46.06353" lon="4.7823">
        <ele>205</ele>
        <time>2018-07-24T09:36:44Z</time>
      </trkpt>
      <trkpt lat="46.06344" lon="4.78235">
        <ele>205</ele>
        <time>2018-07-24T09:36:45Z</time>
      </trkpt>
      <trkpt lat="46.06336" lon="4.78235">
        <ele>205</ele>
        <time>2018-07-24T09:36:47Z</time>
      </trkpt>
      <trkpt lat="46.06332" lon="4.78233">
        <ele>206</ele>
        <time>2018-07-24T09:36:48Z</time>
      </trkpt>
      <trkpt lat="46.06328" lon="4.78231">
        <ele>205</ele>
        <time>2018-07-24T09:36:49Z</time>
      </trkpt>
      <trkpt lat="46.06323" lon="4.78229">
        <ele>205</ele>
        <time>2018-07-24T09:36:50Z</time>
      </trkpt>
      <trkpt lat="46.06315" lon="4.78226">
        <ele>205</ele>
        <time>2018-07-24T09:36:52Z</time>
      </trkpt>
      <trkpt lat="46.06311" lon="4.78223">
        <ele>205</ele>
        <time>2018-07-24T09:36:53Z</time>
      </trkpt>
      <trkpt lat="46.06306" lon="4.78218">
        <ele>205</ele>
        <time>2018-07-24T09:36:55Z</time>
      </trkpt>
      <trkpt lat="46.063" lon="4.78215">
        <ele>205</ele>
        <time>2018-07-24T09:36:56Z</time>
      </trkpt>
      <trkpt lat="46.06293" lon="4.7821">
        <ele>205</ele>
        <time>2018-07-24T09:36:58Z</time>
      </trkpt>
      <trkpt lat="46.0629" lon="4.78207">
        <ele>205</ele>
        <time>2018-07-24T09:36:59Z</time>
      </trkpt>
      <trkpt lat="46.06282" lon="4.78201">
        <ele>205</ele>
        <time>2018-07-24T09:37:02Z</time>
      </trkpt>
      <trkpt lat="46.06281" lon="4.782">
        <ele>205</ele>
        <time>2018-07-24T09:37:03Z</time>
      </trkpt>
      <trkpt lat="46.06279" lon="4.78198">
        <ele>205</ele>
        <time>2018-07-24T09:37:04Z</time>
      </trkpt>
      <trkpt lat="46.06272" lon="4.78193">
        <ele>205</ele>
        <time>2018-07-24T09:37:05Z</time>
      </trkpt>
      <trkpt lat="46.06265" lon="4.78188">
        <ele>205</ele>
        <time>2018-07-24T09:37:07Z</time>
      </trkpt>
      <trkpt lat="46.06258" lon="4.78185">
        <ele>205</ele>
        <time>2018-07-24T09:37:08Z</time>
      </trkpt>
      <trkpt lat="46.06253" lon="4.78182">
        <ele>205</ele>
        <time>2018-07-24T09:37:09Z</time>
      </trkpt>
      <trkpt lat="46.06249" lon="4.7818">
        <ele>206</ele>
        <time>2018-07-24T09:37:10Z</time>
      </trkpt>
      <trkpt lat="46.06241" lon="4.78174">
        <ele>206</ele>
        <time>2018-07-24T09:37:12Z</time>
      </trkpt>
      <trkpt lat="46.06236" lon="4.78171">
        <ele>206</ele>
        <time>2018-07-24T09:37:13Z</time>
      </trkpt>
      <trkpt lat="46.06231" lon="4.78168">
        <ele>206</ele>
        <time>2018-07-24T09:37:14Z</time>
      </trkpt>
      <trkpt lat="46.06227" lon="4.78164">
        <ele>205</ele>
        <time>2018-07-24T09:37:15Z</time>
      </trkpt>
      <trkpt lat="46.06219" lon="4.7816">
        <ele>205</ele>
        <time>2018-07-24T09:37:17Z</time>
      </trkpt>
      <trkpt lat="46.06215" lon="4.78158">
        <ele>205</ele>
        <time>2018-07-24T09:37:18Z</time>
      </trkpt>
      <trkpt lat="46.06207" lon="4.78154">
        <ele>205</ele>
        <time>2018-07-24T09:37:20Z</time>
      </trkpt>
      <trkpt lat="46.06204" lon="4.78151">
        <ele>205</ele>
        <time>2018-07-24T09:37:21Z</time>
      </trkpt>
      <trkpt lat="46.06197" lon="4.78146">
        <ele>205</ele>
        <time>2018-07-24T09:37:23Z</time>
      </trkpt>
      <trkpt lat="46.06191" lon="4.78145">
        <ele>206</ele>
        <time>2018-07-24T09:37:24Z</time>
      </trkpt>
      <trkpt lat="46.06187" lon="4.78142">
        <ele>206</ele>
        <time>2018-07-24T09:37:25Z</time>
      </trkpt>
      <trkpt lat="46.06183" lon="4.7814">
        <ele>206</ele>
        <time>2018-07-24T09:37:26Z</time>
      </trkpt>
      <trkpt lat="46.06176" lon="4.78134">
        <ele>206</ele>
        <time>2018-07-24T09:37:28Z</time>
      </trkpt>
      <trkpt lat="46.06171" lon="4.78131">
        <ele>206</ele>
        <time>2018-07-24T09:37:29Z</time>
      </trkpt>
      <trkpt lat="46.06163" lon="4.78127">
        <ele>208</ele>
        <time>2018-07-24T09:37:31Z</time>
      </trkpt>
      <trkpt lat="46.06162" lon="4.78126">
        <ele>208</ele>
        <time>2018-07-24T09:37:32Z</time>
      </trkpt>
      <trkpt lat="46.06154" lon="4.78121">
        <ele>208</ele>
        <time>2018-07-24T09:37:34Z</time>
      </trkpt>
      <trkpt lat="46.06153" lon="4.78119">
        <ele>208</ele>
        <time>2018-07-24T09:37:35Z</time>
      </trkpt>
      <trkpt lat="46.06147" lon="4.78114">
        <ele>208</ele>
        <time>2018-07-24T09:37:38Z</time>
      </trkpt>
      <trkpt lat="46.06145" lon="4.78112">
        <ele>208</ele>
        <time>2018-07-24T09:37:39Z</time>
      </trkpt>
      <trkpt lat="46.06137" lon="4.78105">
        <ele>208</ele>
        <time>2018-07-24T09:37:42Z</time>
      </trkpt>
      <trkpt lat="46.06135" lon="4.78102">
        <ele>209</ele>
        <time>2018-07-24T09:37:43Z</time>
      </trkpt>
      <trkpt lat="46.06128" lon="4.78094">
        <ele>209</ele>
        <time>2018-07-24T09:37:46Z</time>
      </trkpt>
      <trkpt lat="46.06126" lon="4.78091">
        <ele>209</ele>
        <time>2018-07-24T09:37:47Z</time>
      </trkpt>
      <trkpt lat="46.06124" lon="4.78089">
        <ele>209</ele>
        <time>2018-07-24T09:37:48Z</time>
      </trkpt>
      <trkpt lat="46.06117" lon="4.78079">
        <ele>210</ele>
        <time>2018-07-24T09:37:49Z</time>
      </trkpt>
      <trkpt lat="46.06112" lon="4.78071">
        <ele>210</ele>
        <time>2018-07-24T09:37:51Z</time>
      </trkpt>
      <trkpt lat="46.06109" lon="4.78068">
        <ele>210</ele>
        <time>2018-07-24T09:37:52Z</time>
      </trkpt>
      <trkpt lat="46.06104" lon="4.7806">
        <ele>210</ele>
        <time>2018-07-24T09:37:54Z</time>
      </trkpt>
      <trkpt lat="46.06101" lon="4.78056">
        <ele>210</ele>
        <time>2018-07-24T09:37:55Z</time>
      </trkpt>
      <trkpt lat="46.06095" lon="4.78049">
        <ele>210</ele>
        <time>2018-07-24T09:37:57Z</time>
      </trkpt>
      <trkpt lat="46.06091" lon="4.78046">
        <ele>210</ele>
        <time>2018-07-24T09:37:58Z</time>
      </trkpt>
      <trkpt lat="46.06083" lon="4.78039">
        <ele>211</ele>
        <time>2018-07-24T09:38:00Z</time>
      </trkpt>
      <trkpt lat="46.06079" lon="4.78036">
        <ele>211</ele>
        <time>2018-07-24T09:38:01Z</time>
      </trkpt>
      <trkpt lat="46.06072" lon="4.78032">
        <ele>211</ele>
        <time>2018-07-24T09:38:03Z</time>
      </trkpt>
      <trkpt lat="46.06069" lon="4.78029">
        <ele>211</ele>
        <time>2018-07-24T09:38:04Z</time>
      </trkpt>
      <trkpt lat="46.06061" lon="4.78024">
        <ele>211</ele>
        <time>2018-07-24T09:38:06Z</time>
      </trkpt>
      <trkpt lat="46.06058" lon="4.7802">
        <ele>211</ele>
        <time>2018-07-24T09:38:07Z</time>
      </trkpt>
      <trkpt lat="46.06052" lon="4.78013">
        <ele>211</ele>
        <time>2018-07-24T09:38:09Z</time>
      </trkpt>
      <trkpt lat="46.06049" lon="4.78008">
        <ele>211</ele>
        <time>2018-07-24T09:38:10Z</time>
      </trkpt>
      <trkpt lat="46.06044" lon="4.77999">
        <ele>211</ele>
        <time>2018-07-24T09:38:12Z</time>
      </trkpt>
      <trkpt lat="46.06041" lon="4.77995">
        <ele>211</ele>
        <time>2018-07-24T09:38:13Z</time>
      </trkpt>
      <trkpt lat="46.06034" lon="4.77987">
        <ele>211</ele>
        <time>2018-07-24T09:38:15Z</time>
      </trkpt>
      <trkpt lat="46.0603" lon="4.77983">
        <ele>211</ele>
        <time>2018-07-24T09:38:16Z</time>
      </trkpt>
      <trkpt lat="46.06024" lon="4.77975">
        <ele>211</ele>
        <time>2018-07-24T09:38:18Z</time>
      </trkpt>
      <trkpt lat="46.06022" lon="4.77973">
        <ele>211</ele>
        <time>2018-07-24T09:38:19Z</time>
      </trkpt>
      <trkpt lat="46.06015" lon="4.77966">
        <ele>211</ele>
        <time>2018-07-24T09:38:21Z</time>
      </trkpt>
      <trkpt lat="46.06011" lon="4.77963">
        <ele>211</ele>
        <time>2018-07-24T09:38:22Z</time>
      </trkpt>
      <trkpt lat="46.06004" lon="4.77958">
        <ele>211</ele>
        <time>2018-07-24T09:38:24Z</time>
      </trkpt>
      <trkpt lat="46.06001" lon="4.77955">
        <ele>211</ele>
        <time>2018-07-24T09:38:25Z</time>
      </trkpt>
      <trkpt lat="46.05997" lon="4.77945">
        <ele>212</ele>
        <time>2018-07-24T09:38:27Z</time>
      </trkpt>
      <trkpt lat="46.05995" lon="4.77941">
        <ele>212</ele>
        <time>2018-07-24T09:38:28Z</time>
      </trkpt>
      <trkpt lat="46.05992" lon="4.7793">
        <ele>212</ele>
        <time>2018-07-24T09:38:30Z</time>
      </trkpt>
      <trkpt lat="46.0599" lon="4.77925">
        <ele>212</ele>
        <time>2018-07-24T09:38:31Z</time>
      </trkpt>
      <trkpt lat="46.05989" lon="4.77916">
        <ele>211</ele>
        <time>2018-07-24T09:38:34Z</time>
      </trkpt>
      <trkpt lat="46.05983" lon="4.77905">
        <ele>211</ele>
        <time>2018-07-24T09:38:35Z</time>
      </trkpt>
      <trkpt lat="46.05981" lon="4.77898">
        <ele>211</ele>
        <time>2018-07-24T09:38:36Z</time>
      </trkpt>
      <trkpt lat="46.05979" lon="4.77893">
        <ele>211</ele>
        <time>2018-07-24T09:38:37Z</time>
      </trkpt>
      <trkpt lat="46.05973" lon="4.77883">
        <ele>211</ele>
        <time>2018-07-24T09:38:39Z</time>
      </trkpt>
      <trkpt lat="46.05969" lon="4.77878">
        <ele>211</ele>
        <time>2018-07-24T09:38:40Z</time>
      </trkpt>
      <trkpt lat="46.05965" lon="4.77867">
        <ele>211</ele>
        <time>2018-07-24T09:38:42Z</time>
      </trkpt>
      <trkpt lat="46.05962" lon="4.77862">
        <ele>211</ele>
        <time>2018-07-24T09:38:43Z</time>
      </trkpt>
      <trkpt lat="46.0596" lon="4.77856">
        <ele>211</ele>
        <time>2018-07-24T09:38:44Z</time>
      </trkpt>
      <trkpt lat="46.05957" lon="4.77852">
        <ele>211</ele>
        <time>2018-07-24T09:38:45Z</time>
      </trkpt>
      <trkpt lat="46.05952" lon="4.77843">
        <ele>211</ele>
        <time>2018-07-24T09:38:47Z</time>
      </trkpt>
      <trkpt lat="46.05947" lon="4.77839">
        <ele>211</ele>
        <time>2018-07-24T09:38:48Z</time>
      </trkpt>
      <trkpt lat="46.05942" lon="4.7783">
        <ele>210</ele>
        <time>2018-07-24T09:38:50Z</time>
      </trkpt>
      <trkpt lat="46.05937" lon="4.77824">
        <ele>210</ele>
        <time>2018-07-24T09:38:51Z</time>
      </trkpt>
      <trkpt lat="46.05933" lon="4.77819">
        <ele>210</ele>
        <time>2018-07-24T09:38:52Z</time>
      </trkpt>
      <trkpt lat="46.05927" lon="4.77813">
        <ele>210</ele>
        <time>2018-07-24T09:38:53Z</time>
      </trkpt>
      <trkpt lat="46.05924" lon="4.77808">
        <ele>210</ele>
        <time>2018-07-24T09:38:54Z</time>
      </trkpt>
      <trkpt lat="46.05921" lon="4.77802">
        <ele>210</ele>
        <time>2018-07-24T09:38:55Z</time>
      </trkpt>
      <trkpt lat="46.05916" lon="4.77792">
        <ele>210</ele>
        <time>2018-07-24T09:38:57Z</time>
      </trkpt>
      <trkpt lat="46.05913" lon="4.77786">
        <ele>210</ele>
        <time>2018-07-24T09:38:58Z</time>
      </trkpt>
      <trkpt lat="46.05911" lon="4.7778">
        <ele>210</ele>
        <time>2018-07-24T09:38:59Z</time>
      </trkpt>
      <trkpt lat="46.05907" lon="4.77773">
        <ele>210</ele>
        <time>2018-07-24T09:39:00Z</time>
      </trkpt>
      <trkpt lat="46.05905" lon="4.77765">
        <ele>209</ele>
        <time>2018-07-24T09:39:01Z</time>
      </trkpt>
      <trkpt lat="46.05903" lon="4.77757">
        <ele>209</ele>
        <time>2018-07-24T09:39:02Z</time>
      </trkpt>
      <trkpt lat="46.059" lon="4.77749">
        <ele>209</ele>
        <time>2018-07-24T09:39:03Z</time>
      </trkpt>
      <trkpt lat="46.05899" lon="4.77741">
        <ele>209</ele>
        <time>2018-07-24T09:39:04Z</time>
      </trkpt>
      <trkpt lat="46.05898" lon="4.77732">
        <ele>209</ele>
        <time>2018-07-24T09:39:05Z</time>
      </trkpt>
      <trkpt lat="46.05896" lon="4.77723">
        <ele>209</ele>
        <time>2018-07-24T09:39:06Z</time>
      </trkpt>
      <trkpt lat="46.05897" lon="4.77714">
        <ele>208</ele>
        <time>2018-07-24T09:39:07Z</time>
      </trkpt>
      <trkpt lat="46.05896" lon="4.77706">
        <ele>208</ele>
        <time>2018-07-24T09:39:08Z</time>
      </trkpt>
      <trkpt lat="46.05893" lon="4.77697">
        <ele>208</ele>
        <time>2018-07-24T09:39:09Z</time>
      </trkpt>
      <trkpt lat="46.05892" lon="4.77689">
        <ele>208</ele>
        <time>2018-07-24T09:39:10Z</time>
      </trkpt>
      <trkpt lat="46.0589" lon="4.77682">
        <ele>208</ele>
        <time>2018-07-24T09:39:11Z</time>
      </trkpt>
      <trkpt lat="46.05885" lon="4.77673">
        <ele>208</ele>
        <time>2018-07-24T09:39:12Z</time>
      </trkpt>
      <trkpt lat="46.05882" lon="4.77667">
        <ele>208</ele>
        <time>2018-07-24T09:39:13Z</time>
      </trkpt>
      <trkpt lat="46.05878" lon="4.77659">
        <ele>208</ele>
        <time>2018-07-24T09:39:14Z</time>
      </trkpt>
      <trkpt lat="46.05874" lon="4.77653">
        <ele>208</ele>
        <time>2018-07-24T09:39:15Z</time>
      </trkpt>
      <trkpt lat="46.05871" lon="4.77648">
        <ele>208</ele>
        <time>2018-07-24T09:39:16Z</time>
      </trkpt>
      <trkpt lat="46.05865" lon="4.77644">
        <ele>208</ele>
        <time>2018-07-24T09:39:17Z</time>
      </trkpt>
      <trkpt lat="46.05862" lon="4.77639">
        <ele>208</ele>
        <time>2018-07-24T09:39:18Z</time>
      </trkpt>
      <trkpt lat="46.05855" lon="4.77632">
        <ele>208</ele>
        <time>2018-07-24T09:39:20Z</time>
      </trkpt>
      <trkpt lat="46.05851" lon="4.77627">
        <ele>208</ele>
        <time>2018-07-24T09:39:21Z</time>
      </trkpt>
      <trkpt lat="46.05847" lon="4.77622">
        <ele>208</ele>
        <time>2018-07-24T09:39:22Z</time>
      </trkpt>
      <trkpt lat="46.05842" lon="4.77618">
        <ele>208</ele>
        <time>2018-07-24T09:39:23Z</time>
      </trkpt>
      <trkpt lat="46.05839" lon="4.77614">
        <ele>208</ele>
        <time>2018-07-24T09:39:24Z</time>
      </trkpt>
      <trkpt lat="46.05834" lon="4.77609">
        <ele>208</ele>
        <time>2018-07-24T09:39:25Z</time>
      </trkpt>
      <trkpt lat="46.05829" lon="4.77603">
        <ele>208</ele>
        <time>2018-07-24T09:39:26Z</time>
      </trkpt>
      <trkpt lat="46.05825" lon="4.77599">
        <ele>208</ele>
        <time>2018-07-24T09:39:27Z</time>
      </trkpt>
      <trkpt lat="46.05821" lon="4.77594">
        <ele>208</ele>
        <time>2018-07-24T09:39:28Z</time>
      </trkpt>
      <trkpt lat="46.05816" lon="4.77589">
        <ele>208</ele>
        <time>2018-07-24T09:39:29Z</time>
      </trkpt>
      <trkpt lat="46.05811" lon="4.77583">
        <ele>208</ele>
        <time>2018-07-24T09:39:30Z</time>
      </trkpt>
      <trkpt lat="46.05806" lon="4.77577">
        <ele>208</ele>
        <time>2018-07-24T09:39:31Z</time>
      </trkpt>
      <trkpt lat="46.058" lon="4.77572">
        <ele>208</ele>
        <time>2018-07-24T09:39:32Z</time>
      </trkpt>
      <trkpt lat="46.05795" lon="4.77566">
        <ele>208</ele>
        <time>2018-07-24T09:39:33Z</time>
      </trkpt>
      <trkpt lat="46.05789" lon="4.77558">
        <ele>208</ele>
        <time>2018-07-24T09:39:35Z</time>
      </trkpt>
      <trkpt lat="46.05786" lon="4.77553">
        <ele>208</ele>
        <time>2018-07-24T09:39:36Z</time>
      </trkpt>
      <trkpt lat="46.05782" lon="4.77549">
        <ele>208</ele>
        <time>2018-07-24T09:39:37Z</time>
      </trkpt>
      <trkpt lat="46.05779" lon="4.77543">
        <ele>208</ele>
        <time>2018-07-24T09:39:38Z</time>
      </trkpt>
      <trkpt lat="46.05775" lon="4.77537">
        <ele>208</ele>
        <time>2018-07-24T09:39:39Z</time>
      </trkpt>
      <trkpt lat="46.05771" lon="4.77531">
        <ele>208</ele>
        <time>2018-07-24T09:39:40Z</time>
      </trkpt>
      <trkpt lat="46.05768" lon="4.77525">
        <ele>208</ele>
        <time>2018-07-24T09:39:41Z</time>
      </trkpt>
      <trkpt lat="46.05764" lon="4.77519">
        <ele>208</ele>
        <time>2018-07-24T09:39:42Z</time>
      </trkpt>
      <trkpt lat="46.0576" lon="4.77513">
        <ele>208</ele>
        <time>2018-07-24T09:39:43Z</time>
      </trkpt>
      <trkpt lat="46.05756" lon="4.77507">
        <ele>208</ele>
        <time>2018-07-24T09:39:44Z</time>
      </trkpt>
      <trkpt lat="46.05752" lon="4.77501">
        <ele>208</ele>
        <time>2018-07-24T09:39:45Z</time>
      </trkpt>
      <trkpt lat="46.05749" lon="4.77495">
        <ele>208</ele>
        <time>2018-07-24T09:39:46Z</time>
      </trkpt>
      <trkpt lat="46.05745" lon="4.7749">
        <ele>208</ele>
        <time>2018-07-24T09:39:47Z</time>
      </trkpt>
      <trkpt lat="46.05739" lon="4.77483">
        <ele>207</ele>
        <time>2018-07-24T09:39:48Z</time>
      </trkpt>
      <trkpt lat="46.05735" lon="4.77477">
        <ele>207</ele>
        <time>2018-07-24T09:39:49Z</time>
      </trkpt>
      <trkpt lat="46.05731" lon="4.77471">
        <ele>207</ele>
        <time>2018-07-24T09:39:50Z</time>
      </trkpt>
      <trkpt lat="46.05727" lon="4.77467">
        <ele>207</ele>
        <time>2018-07-24T09:39:51Z</time>
      </trkpt>
      <trkpt lat="46.05724" lon="4.77462">
        <ele>207</ele>
        <time>2018-07-24T09:39:52Z</time>
      </trkpt>
      <trkpt lat="46.05722" lon="4.77458">
        <ele>207</ele>
        <time>2018-07-24T09:39:53Z</time>
      </trkpt>
      <trkpt lat="46.05716" lon="4.77454">
        <ele>207</ele>
        <time>2018-07-24T09:39:54Z</time>
      </trkpt>
      <trkpt lat="46.0571" lon="4.7745">
        <ele>207</ele>
        <time>2018-07-24T09:39:55Z</time>
      </trkpt>
      <trkpt lat="46.05705" lon="4.77446">
        <ele>207</ele>
        <time>2018-07-24T09:39:56Z</time>
      </trkpt>
      <trkpt lat="46.05699" lon="4.77442">
        <ele>206</ele>
        <time>2018-07-24T09:39:57Z</time>
      </trkpt>
      <trkpt lat="46.05694" lon="4.77437">
        <ele>206</ele>
        <time>2018-07-24T09:39:58Z</time>
      </trkpt>
      <trkpt lat="46.05689" lon="4.77433">
        <ele>206</ele>
        <time>2018-07-24T09:39:59Z</time>
      </trkpt>
      <trkpt lat="46.05684" lon="4.77429">
        <ele>206</ele>
        <time>2018-07-24T09:40:00Z</time>
      </trkpt>
      <trkpt lat="46.05679" lon="4.77423">
        <ele>206</ele>
        <time>2018-07-24T09:40:01Z</time>
      </trkpt>
      <trkpt lat="46.05675" lon="4.77418">
        <ele>205</ele>
        <time>2018-07-24T09:40:02Z</time>
      </trkpt>
      <trkpt lat="46.0567" lon="4.77414">
        <ele>205</ele>
        <time>2018-07-24T09:40:03Z</time>
      </trkpt>
      <trkpt lat="46.05665" lon="4.77409">
        <ele>204</ele>
        <time>2018-07-24T09:40:04Z</time>
      </trkpt>
      <trkpt lat="46.05658" lon="4.77405">
        <ele>204</ele>
        <time>2018-07-24T09:40:05Z</time>
      </trkpt>
      <trkpt lat="46.05653" lon="4.77399">
        <ele>204</ele>
        <time>2018-07-24T09:40:06Z</time>
      </trkpt>
      <trkpt lat="46.05647" lon="4.77394">
        <ele>203</ele>
        <time>2018-07-24T09:40:07Z</time>
      </trkpt>
      <trkpt lat="46.05642" lon="4.77388">
        <ele>203</ele>
        <time>2018-07-24T09:40:08Z</time>
      </trkpt>
      <trkpt lat="46.05636" lon="4.77382">
        <ele>203</ele>
        <time>2018-07-24T09:40:09Z</time>
      </trkpt>
      <trkpt lat="46.05629" lon="4.77377">
        <ele>203</ele>
        <time>2018-07-24T09:40:10Z</time>
      </trkpt>
      <trkpt lat="46.05623" lon="4.77373">
        <ele>203</ele>
        <time>2018-07-24T09:40:11Z</time>
      </trkpt>
      <trkpt lat="46.05617" lon="4.77368">
        <ele>203</ele>
        <time>2018-07-24T09:40:12Z</time>
      </trkpt>
      <trkpt lat="46.0561" lon="4.77364">
        <ele>202</ele>
        <time>2018-07-24T09:40:13Z</time>
      </trkpt>
      <trkpt lat="46.05602" lon="4.7736">
        <ele>202</ele>
        <time>2018-07-24T09:40:14Z</time>
      </trkpt>
      <trkpt lat="46.05596" lon="4.77356">
        <ele>202</ele>
        <time>2018-07-24T09:40:15Z</time>
      </trkpt>
      <trkpt lat="46.0559" lon="4.77352">
        <ele>202</ele>
        <time>2018-07-24T09:40:16Z</time>
      </trkpt>
      <trkpt lat="46.05583" lon="4.77348">
        <ele>201</ele>
        <time>2018-07-24T09:40:17Z</time>
      </trkpt>
      <trkpt lat="46.05576" lon="4.77342">
        <ele>201</ele>
        <time>2018-07-24T09:40:18Z</time>
      </trkpt>
      <trkpt lat="46.05569" lon="4.77337">
        <ele>201</ele>
        <time>2018-07-24T09:40:19Z</time>
      </trkpt>
      <trkpt lat="46.05563" lon="4.77333">
        <ele>200</ele>
        <time>2018-07-24T09:40:20Z</time>
      </trkpt>
      <trkpt lat="46.05555" lon="4.77328">
        <ele>200</ele>
        <time>2018-07-24T09:40:21Z</time>
      </trkpt>
      <trkpt lat="46.05548" lon="4.77325">
        <ele>200</ele>
        <time>2018-07-24T09:40:22Z</time>
      </trkpt>
      <trkpt lat="46.05543" lon="4.77321">
        <ele>200</ele>
        <time>2018-07-24T09:40:23Z</time>
      </trkpt>
      <trkpt lat="46.05536" lon="4.77317">
        <ele>200</ele>
        <time>2018-07-24T09:40:24Z</time>
      </trkpt>
      <trkpt lat="46.0553" lon="4.77314">
        <ele>200</ele>
        <time>2018-07-24T09:40:25Z</time>
      </trkpt>
      <trkpt lat="46.05524" lon="4.7731">
        <ele>200</ele>
        <time>2018-07-24T09:40:26Z</time>
      </trkpt>
      <trkpt lat="46.05518" lon="4.77306">
        <ele>200</ele>
        <time>2018-07-24T09:40:27Z</time>
      </trkpt>
      <trkpt lat="46.05512" lon="4.77301">
        <ele>200</ele>
        <time>2018-07-24T09:40:28Z</time>
      </trkpt>
      <trkpt lat="46.05506" lon="4.77298">
        <ele>200</ele>
        <time>2018-07-24T09:40:29Z</time>
      </trkpt>
      <trkpt lat="46.05501" lon="4.77294">
        <ele>200</ele>
        <time>2018-07-24T09:40:30Z</time>
      </trkpt>
      <trkpt lat="46.05495" lon="4.77291">
        <ele>201</ele>
        <time>2018-07-24T09:40:31Z</time>
      </trkpt>
      <trkpt lat="46.0549" lon="4.77289">
        <ele>201</ele>
        <time>2018-07-24T09:40:32Z</time>
      </trkpt>
      <trkpt lat="46.05486" lon="4.77285">
        <ele>201</ele>
        <time>2018-07-24T09:40:33Z</time>
      </trkpt>
      <trkpt lat="46.05481" lon="4.77282">
        <ele>201</ele>
        <time>2018-07-24T09:40:34Z</time>
      </trkpt>
      <trkpt lat="46.05476" lon="4.77278">
        <ele>201</ele>
        <time>2018-07-24T09:40:35Z</time>
      </trkpt>
      <trkpt lat="46.05472" lon="4.77275">
        <ele>201</ele>
        <time>2018-07-24T09:40:36Z</time>
      </trkpt>
      <trkpt lat="46.05464" lon="4.77273">
        <ele>201</ele>
        <time>2018-07-24T09:40:38Z</time>
      </trkpt>
      <trkpt lat="46.05461" lon="4.7727">
        <ele>201</ele>
        <time>2018-07-24T09:40:39Z</time>
      </trkpt>
      <trkpt lat="46.05452" lon="4.77266">
        <ele>201</ele>
        <time>2018-07-24T09:40:41Z</time>
      </trkpt>
      <trkpt lat="46.05448" lon="4.77264">
        <ele>201</ele>
        <time>2018-07-24T09:40:42Z</time>
      </trkpt>
      <trkpt lat="46.05443" lon="4.77262">
        <ele>201</ele>
        <time>2018-07-24T09:40:43Z</time>
      </trkpt>
      <trkpt lat="46.05438" lon="4.77261">
        <ele>201</ele>
        <time>2018-07-24T09:40:44Z</time>
      </trkpt>
      <trkpt lat="46.0543" lon="4.77256">
        <ele>201</ele>
        <time>2018-07-24T09:40:46Z</time>
      </trkpt>
      <trkpt lat="46.05425" lon="4.77254">
        <ele>201</ele>
        <time>2018-07-24T09:40:47Z</time>
      </trkpt>
      <trkpt lat="46.0542" lon="4.77252">
        <ele>201</ele>
        <time>2018-07-24T09:40:48Z</time>
      </trkpt>
      <trkpt lat="46.05415" lon="4.77249">
        <ele>201</ele>
        <time>2018-07-24T09:40:49Z</time>
      </trkpt>
      <trkpt lat="46.05409" lon="4.77247">
        <ele>201</ele>
        <time>2018-07-24T09:40:50Z</time>
      </trkpt>
      <trkpt lat="46.05403" lon="4.77247">
        <ele>202</ele>
        <time>2018-07-24T09:40:51Z</time>
      </trkpt>
      <trkpt lat="46.05399" lon="4.77244">
        <ele>202</ele>
        <time>2018-07-24T09:40:52Z</time>
      </trkpt>
      <trkpt lat="46.05394" lon="4.77239">
        <ele>202</ele>
        <time>2018-07-24T09:40:53Z</time>
      </trkpt>
      <trkpt lat="46.05391" lon="4.77235">
        <ele>202</ele>
        <time>2018-07-24T09:40:54Z</time>
      </trkpt>
      <trkpt lat="46.05386" lon="4.7723">
        <ele>202</ele>
        <time>2018-07-24T09:40:55Z</time>
      </trkpt>
      <trkpt lat="46.05382" lon="4.77228">
        <ele>202</ele>
        <time>2018-07-24T09:40:56Z</time>
      </trkpt>
      <trkpt lat="46.05377" lon="4.77226">
        <ele>203</ele>
        <time>2018-07-24T09:40:57Z</time>
      </trkpt>
      <trkpt lat="46.05373" lon="4.77224">
        <ele>203</ele>
        <time>2018-07-24T09:40:58Z</time>
      </trkpt>
      <trkpt lat="46.05369" lon="4.77221">
        <ele>203</ele>
        <time>2018-07-24T09:40:59Z</time>
      </trkpt>
      <trkpt lat="46.05364" lon="4.77219">
        <ele>203</ele>
        <time>2018-07-24T09:41:00Z</time>
      </trkpt>
      <trkpt lat="46.05359" lon="4.77216">
        <ele>203</ele>
        <time>2018-07-24T09:41:01Z</time>
      </trkpt>
      <trkpt lat="46.05353" lon="4.77213">
        <ele>203</ele>
        <time>2018-07-24T09:41:02Z</time>
      </trkpt>
      <trkpt lat="46.05349" lon="4.77209">
        <ele>203</ele>
        <time>2018-07-24T09:41:03Z</time>
      </trkpt>
      <trkpt lat="46.0534" lon="4.77205">
        <ele>203</ele>
        <time>2018-07-24T09:41:05Z</time>
      </trkpt>
      <trkpt lat="46.05333" lon="4.772">
        <ele>205</ele>
        <time>2018-07-24T09:41:06Z</time>
      </trkpt>
      <trkpt lat="46.05329" lon="4.77196">
        <ele>205</ele>
        <time>2018-07-24T09:41:07Z</time>
      </trkpt>
      <trkpt lat="46.05325" lon="4.77194">
        <ele>205</ele>
        <time>2018-07-24T09:41:08Z</time>
      </trkpt>
      <trkpt lat="46.05321" lon="4.7719">
        <ele>205</ele>
        <time>2018-07-24T09:41:09Z</time>
      </trkpt>
      <trkpt lat="46.05315" lon="4.77187">
        <ele>205</ele>
        <time>2018-07-24T09:41:10Z</time>
      </trkpt>
      <trkpt lat="46.05311" lon="4.77183">
        <ele>205</ele>
        <time>2018-07-24T09:41:11Z</time>
      </trkpt>
      <trkpt lat="46.05306" lon="4.7718">
        <ele>205</ele>
        <time>2018-07-24T09:41:12Z</time>
      </trkpt>
      <trkpt lat="46.05301" lon="4.77175">
        <ele>205</ele>
        <time>2018-07-24T09:41:13Z</time>
      </trkpt>
      <trkpt lat="46.05297" lon="4.77171">
        <ele>205</ele>
        <time>2018-07-24T09:41:14Z</time>
      </trkpt>
      <trkpt lat="46.05293" lon="4.77167">
        <ele>204</ele>
        <time>2018-07-24T09:41:15Z</time>
      </trkpt>
      <trkpt lat="46.05288" lon="4.77164">
        <ele>204</ele>
        <time>2018-07-24T09:41:16Z</time>
      </trkpt>
      <trkpt lat="46.05284" lon="4.77159">
        <ele>204</ele>
        <time>2018-07-24T09:41:17Z</time>
      </trkpt>
      <trkpt lat="46.05282" lon="4.77153">
        <ele>204</ele>
        <time>2018-07-24T09:41:18Z</time>
      </trkpt>
      <trkpt lat="46.05278" lon="4.77148">
        <ele>204</ele>
        <time>2018-07-24T09:41:19Z</time>
      </trkpt>
      <trkpt lat="46.05273" lon="4.77142">
        <ele>204</ele>
        <time>2018-07-24T09:41:20Z</time>
      </trkpt>
      <trkpt lat="46.05268" lon="4.77136">
        <ele>204</ele>
        <time>2018-07-24T09:41:21Z</time>
      </trkpt>
      <trkpt lat="46.05265" lon="4.77132">
        <ele>204</ele>
        <time>2018-07-24T09:41:22Z</time>
      </trkpt>
      <trkpt lat="46.05259" lon="4.77127">
        <ele>204</ele>
        <time>2018-07-24T09:41:23Z</time>
      </trkpt>
      <trkpt lat="46.05255" lon="4.77124">
        <ele>204</ele>
        <time>2018-07-24T09:41:24Z</time>
      </trkpt>
      <trkpt lat="46.05251" lon="4.7712">
        <ele>204</ele>
        <time>2018-07-24T09:41:25Z</time>
      </trkpt>
      <trkpt lat="46.05247" lon="4.77116">
        <ele>203</ele>
        <time>2018-07-24T09:41:26Z</time>
      </trkpt>
      <trkpt lat="46.05243" lon="4.77112">
        <ele>203</ele>
        <time>2018-07-24T09:41:27Z</time>
      </trkpt>
      <trkpt lat="46.05239" lon="4.77109">
        <ele>203</ele>
        <time>2018-07-24T09:41:28Z</time>
      </trkpt>
      <trkpt lat="46.05235" lon="4.77101">
        <ele>203</ele>
        <time>2018-07-24T09:41:30Z</time>
      </trkpt>
      <trkpt lat="46.05231" lon="4.77097">
        <ele>203</ele>
        <time>2018-07-24T09:41:31Z</time>
      </trkpt>
      <trkpt lat="46.05228" lon="4.77092">
        <ele>203</ele>
        <time>2018-07-24T09:41:32Z</time>
      </trkpt>
      <trkpt lat="46.05225" lon="4.77085">
        <ele>203</ele>
        <time>2018-07-24T09:41:33Z</time>
      </trkpt>
      <trkpt lat="46.05222" lon="4.77079">
        <ele>201</ele>
        <time>2018-07-24T09:41:34Z</time>
      </trkpt>
      <trkpt lat="46.0522" lon="4.77074">
        <ele>201</ele>
        <time>2018-07-24T09:41:35Z</time>
      </trkpt>
      <trkpt lat="46.05218" lon="4.77068">
        <ele>201</ele>
        <time>2018-07-24T09:41:36Z</time>
      </trkpt>
      <trkpt lat="46.05215" lon="4.77062">
        <ele>201</ele>
        <time>2018-07-24T09:41:37Z</time>
      </trkpt>
      <trkpt lat="46.05211" lon="4.77052">
        <ele>201</ele>
        <time>2018-07-24T09:41:38Z</time>
      </trkpt>
      <trkpt lat="46.05209" lon="4.77045">
        <ele>201</ele>
        <time>2018-07-24T09:41:39Z</time>
      </trkpt>
      <trkpt lat="46.05207" lon="4.77038">
        <ele>200</ele>
        <time>2018-07-24T09:41:40Z</time>
      </trkpt>
      <trkpt lat="46.05205" lon="4.77031">
        <ele>200</ele>
        <time>2018-07-24T09:41:41Z</time>
      </trkpt>
      <trkpt lat="46.05203" lon="4.77024">
        <ele>200</ele>
        <time>2018-07-24T09:41:42Z</time>
      </trkpt>
      <trkpt lat="46.052" lon="4.77017">
        <ele>200</ele>
        <time>2018-07-24T09:41:43Z</time>
      </trkpt>
      <trkpt lat="46.05199" lon="4.77009">
        <ele>200</ele>
        <time>2018-07-24T09:41:44Z</time>
      </trkpt>
      <trkpt lat="46.05197" lon="4.77002">
        <ele>200</ele>
        <time>2018-07-24T09:41:45Z</time>
      </trkpt>
      <trkpt lat="46.05196" lon="4.76995">
        <ele>198</ele>
        <time>2018-07-24T09:41:46Z</time>
      </trkpt>
      <trkpt lat="46.05194" lon="4.76987">
        <ele>198</ele>
        <time>2018-07-24T09:41:47Z</time>
      </trkpt>
      <trkpt lat="46.05192" lon="4.76977">
        <ele>198</ele>
        <time>2018-07-24T09:41:48Z</time>
      </trkpt>
      <trkpt lat="46.05189" lon="4.7697">
        <ele>198</ele>
        <time>2018-07-24T09:41:49Z</time>
      </trkpt>
      <trkpt lat="46.05185" lon="4.7696">
        <ele>198</ele>
        <time>2018-07-24T09:41:50Z</time>
      </trkpt>
      <trkpt lat="46.05181" lon="4.76952">
        <ele>197</ele>
        <time>2018-07-24T09:41:51Z</time>
      </trkpt>
      <trkpt lat="46.05176" lon="4.76943">
        <ele>197</ele>
        <time>2018-07-24T09:41:52Z</time>
      </trkpt>
      <trkpt lat="46.05174" lon="4.76935">
        <ele>197</ele>
        <time>2018-07-24T09:41:53Z</time>
      </trkpt>
      <trkpt lat="46.0517" lon="4.76928">
        <ele>197</ele>
        <time>2018-07-24T09:41:54Z</time>
      </trkpt>
      <trkpt lat="46.05166" lon="4.76921">
        <ele>196</ele>
        <time>2018-07-24T09:41:55Z</time>
      </trkpt>
      <trkpt lat="46.05161" lon="4.76912">
        <ele>196</ele>
        <time>2018-07-24T09:41:56Z</time>
      </trkpt>
      <trkpt lat="46.05155" lon="4.76904">
        <ele>195</ele>
        <time>2018-07-24T09:41:57Z</time>
      </trkpt>
      <trkpt lat="46.05153" lon="4.76896">
        <ele>195</ele>
        <time>2018-07-24T09:41:58Z</time>
      </trkpt>
      <trkpt lat="46.05148" lon="4.76889">
        <ele>195</ele>
        <time>2018-07-24T09:41:59Z</time>
      </trkpt>
      <trkpt lat="46.05144" lon="4.7688">
        <ele>195</ele>
        <time>2018-07-24T09:42:00Z</time>
      </trkpt>
      <trkpt lat="46.05139" lon="4.76872">
        <ele>195</ele>
        <time>2018-07-24T09:42:01Z</time>
      </trkpt>
      <trkpt lat="46.05135" lon="4.76863">
        <ele>195</ele>
        <time>2018-07-24T09:42:02Z</time>
      </trkpt>
      <trkpt lat="46.05132" lon="4.76855">
        <ele>195</ele>
        <time>2018-07-24T09:42:03Z</time>
      </trkpt>
      <trkpt lat="46.05128" lon="4.76846">
        <ele>195</ele>
        <time>2018-07-24T09:42:04Z</time>
      </trkpt>
      <trkpt lat="46.05124" lon="4.76838">
        <ele>195</ele>
        <time>2018-07-24T09:42:05Z</time>
      </trkpt>
      <trkpt lat="46.05121" lon="4.7683">
        <ele>194</ele>
        <time>2018-07-24T09:42:06Z</time>
      </trkpt>
      <trkpt lat="46.05117" lon="4.76823">
        <ele>194</ele>
        <time>2018-07-24T09:42:07Z</time>
      </trkpt>
      <trkpt lat="46.05114" lon="4.76813">
        <ele>194</ele>
        <time>2018-07-24T09:42:08Z</time>
      </trkpt>
      <trkpt lat="46.0511" lon="4.76805">
        <ele>194</ele>
        <time>2018-07-24T09:42:09Z</time>
      </trkpt>
      <trkpt lat="46.05107" lon="4.76796">
        <ele>194</ele>
        <time>2018-07-24T09:42:10Z</time>
      </trkpt>
      <trkpt lat="46.05105" lon="4.76787">
        <ele>194</ele>
        <time>2018-07-24T09:42:11Z</time>
      </trkpt>
      <trkpt lat="46.05103" lon="4.76779">
        <ele>194</ele>
        <time>2018-07-24T09:42:12Z</time>
      </trkpt>
      <trkpt lat="46.05102" lon="4.76769">
        <ele>194</ele>
        <time>2018-07-24T09:42:13Z</time>
      </trkpt>
      <trkpt lat="46.05101" lon="4.76761">
        <ele>194</ele>
        <time>2018-07-24T09:42:14Z</time>
      </trkpt>
      <trkpt lat="46.05098" lon="4.76751">
        <ele>194</ele>
        <time>2018-07-24T09:42:15Z</time>
      </trkpt>
      <trkpt lat="46.05096" lon="4.76744">
        <ele>193</ele>
        <time>2018-07-24T09:42:16Z</time>
      </trkpt>
      <trkpt lat="46.05095" lon="4.76736">
        <ele>193</ele>
        <time>2018-07-24T09:42:17Z</time>
      </trkpt>
      <trkpt lat="46.05093" lon="4.76727">
        <ele>193</ele>
        <time>2018-07-24T09:42:18Z</time>
      </trkpt>
      <trkpt lat="46.05093" lon="4.76716">
        <ele>193</ele>
        <time>2018-07-24T09:42:19Z</time>
      </trkpt>
      <trkpt lat="46.05091" lon="4.76707">
        <ele>193</ele>
        <time>2018-07-24T09:42:20Z</time>
      </trkpt>
      <trkpt lat="46.0509" lon="4.76696">
        <ele>193</ele>
        <time>2018-07-24T09:42:21Z</time>
      </trkpt>
      <trkpt lat="46.05089" lon="4.76688">
        <ele>193</ele>
        <time>2018-07-24T09:42:22Z</time>
      </trkpt>
      <trkpt lat="46.05088" lon="4.76679">
        <ele>193</ele>
        <time>2018-07-24T09:42:23Z</time>
      </trkpt>
      <trkpt lat="46.05088" lon="4.76671">
        <ele>193</ele>
        <time>2018-07-24T09:42:24Z</time>
      </trkpt>
      <trkpt lat="46.05088" lon="4.76662">
        <ele>192</ele>
        <time>2018-07-24T09:42:25Z</time>
      </trkpt>
      <trkpt lat="46.05086" lon="4.76655">
        <ele>192</ele>
        <time>2018-07-24T09:42:26Z</time>
      </trkpt>
      <trkpt lat="46.05085" lon="4.76647">
        <ele>191</ele>
        <time>2018-07-24T09:42:27Z</time>
      </trkpt>
      <trkpt lat="46.0508" lon="4.76642">
        <ele>192</ele>
        <time>2018-07-24T09:42:28Z</time>
      </trkpt>
      <trkpt lat="46.05079" lon="4.76635">
        <ele>192</ele>
        <time>2018-07-24T09:42:29Z</time>
      </trkpt>
      <trkpt lat="46.05081" lon="4.76624">
        <ele>192</ele>
        <time>2018-07-24T09:42:33Z</time>
      </trkpt>
      <trkpt lat="46.0508" lon="4.76621">
        <ele>192</ele>
        <time>2018-07-24T09:42:34Z</time>
      </trkpt>
      <trkpt lat="46.0508" lon="4.76614">
        <ele>191</ele>
        <time>2018-07-24T09:42:36Z</time>
      </trkpt>
      <trkpt lat="46.05077" lon="4.76604">
        <ele>191</ele>
        <time>2018-07-24T09:42:37Z</time>
      </trkpt>
      <trkpt lat="46.0507" lon="4.76599">
        <ele>191</ele>
        <time>2018-07-24T09:42:40Z</time>
      </trkpt>
      <trkpt lat="46.05064" lon="4.76595">
        <ele>191</ele>
        <time>2018-07-24T09:42:41Z</time>
      </trkpt>
      <trkpt lat="46.05058" lon="4.76591">
        <ele>191</ele>
        <time>2018-07-24T09:42:44Z</time>
      </trkpt>
      <trkpt lat="46.05052" lon="4.76585">
        <ele>191</ele>
        <time>2018-07-24T09:42:45Z</time>
      </trkpt>
      <trkpt lat="46.05046" lon="4.76577">
        <ele>190</ele>
        <time>2018-07-24T09:42:49Z</time>
      </trkpt>
      <trkpt lat="46.05044" lon="4.76574">
        <ele>190</ele>
        <time>2018-07-24T09:42:50Z</time>
      </trkpt>
      <trkpt lat="46.05041" lon="4.76571">
        <ele>190</ele>
        <time>2018-07-24T09:42:51Z</time>
      </trkpt>
      <trkpt lat="46.05033" lon="4.76565">
        <ele>190</ele>
        <time>2018-07-24T09:42:52Z</time>
      </trkpt>
      <trkpt lat="46.05026" lon="4.76562">
        <ele>190</ele>
        <time>2018-07-24T09:42:54Z</time>
      </trkpt>
      <trkpt lat="46.05024" lon="4.76561">
        <ele>190</ele>
        <time>2018-07-24T09:42:55Z</time>
      </trkpt>
      <trkpt lat="46.05015" lon="4.76558">
        <ele>190</ele>
        <time>2018-07-24T09:42:57Z</time>
      </trkpt>
      <trkpt lat="46.05011" lon="4.76552">
        <ele>190</ele>
        <time>2018-07-24T09:42:58Z</time>
      </trkpt>
      <trkpt lat="46.05009" lon="4.76546">
        <ele>190</ele>
        <time>2018-07-24T09:42:59Z</time>
      </trkpt>
      <trkpt lat="46.05006" lon="4.7654">
        <ele>190</ele>
        <time>2018-07-24T09:43:00Z</time>
      </trkpt>
      <trkpt lat="46.05003" lon="4.76533">
        <ele>190</ele>
        <time>2018-07-24T09:43:01Z</time>
      </trkpt>
      <trkpt lat="46.05001" lon="4.76527">
        <ele>190</ele>
        <time>2018-07-24T09:43:02Z</time>
      </trkpt>
      <trkpt lat="46.04997" lon="4.76521">
        <ele>191</ele>
        <time>2018-07-24T09:43:03Z</time>
      </trkpt>
      <trkpt lat="46.04994" lon="4.76516">
        <ele>191</ele>
        <time>2018-07-24T09:43:04Z</time>
      </trkpt>
      <trkpt lat="46.04992" lon="4.76511">
        <ele>191</ele>
        <time>2018-07-24T09:43:05Z</time>
      </trkpt>
      <trkpt lat="46.04989" lon="4.76505">
        <ele>191</ele>
        <time>2018-07-24T09:43:06Z</time>
      </trkpt>
      <trkpt lat="46.04987" lon="4.76498">
        <ele>190</ele>
        <time>2018-07-24T09:43:07Z</time>
      </trkpt>
      <trkpt lat="46.04985" lon="4.76492">
        <ele>190</ele>
        <time>2018-07-24T09:43:08Z</time>
      </trkpt>
      <trkpt lat="46.04984" lon="4.76486">
        <ele>190</ele>
        <time>2018-07-24T09:43:09Z</time>
      </trkpt>
      <trkpt lat="46.04979" lon="4.76479">
        <ele>191</ele>
        <time>2018-07-24T09:43:10Z</time>
      </trkpt>
      <trkpt lat="46.04977" lon="4.76473">
        <ele>191</ele>
        <time>2018-07-24T09:43:11Z</time>
      </trkpt>
      <trkpt lat="46.04977" lon="4.76466">
        <ele>190</ele>
        <time>2018-07-24T09:43:12Z</time>
      </trkpt>
      <trkpt lat="46.04974" lon="4.76455">
        <ele>190</ele>
        <time>2018-07-24T09:43:14Z</time>
      </trkpt>
      <trkpt lat="46.04972" lon="4.76449">
        <ele>190</ele>
        <time>2018-07-24T09:43:15Z</time>
      </trkpt>
      <trkpt lat="46.04969" lon="4.76444">
        <ele>190</ele>
        <time>2018-07-24T09:43:16Z</time>
      </trkpt>
      <trkpt lat="46.04965" lon="4.76439">
        <ele>190</ele>
        <time>2018-07-24T09:43:17Z</time>
      </trkpt>
      <trkpt lat="46.04959" lon="4.76431">
        <ele>191</ele>
        <time>2018-07-24T09:43:19Z</time>
      </trkpt>
      <trkpt lat="46.04954" lon="4.76429">
        <ele>191</ele>
        <time>2018-07-24T09:43:20Z</time>
      </trkpt>
      <trkpt lat="46.04948" lon="4.76429">
        <ele>191</ele>
        <time>2018-07-24T09:43:21Z</time>
      </trkpt>
      <trkpt lat="46.04944" lon="4.76428">
        <ele>191</ele>
        <time>2018-07-24T09:43:22Z</time>
      </trkpt>
      <trkpt lat="46.04939" lon="4.76428">
        <ele>191</ele>
        <time>2018-07-24T09:43:23Z</time>
      </trkpt>
      <trkpt lat="46.04935" lon="4.76429">
        <ele>191</ele>
        <time>2018-07-24T09:43:24Z</time>
      </trkpt>
      <trkpt lat="46.04929" lon="4.76431">
        <ele>191</ele>
        <time>2018-07-24T09:43:25Z</time>
      </trkpt>
      <trkpt lat="46.04923" lon="4.76433">
        <ele>191</ele>
        <time>2018-07-24T09:43:26Z</time>
      </trkpt>
      <trkpt lat="46.04914" lon="4.76437">
        <ele>193</ele>
        <time>2018-07-24T09:43:28Z</time>
      </trkpt>
      <trkpt lat="46.04909" lon="4.76436">
        <ele>193</ele>
        <time>2018-07-24T09:43:29Z</time>
      </trkpt>
      <trkpt lat="46.04901" lon="4.76436">
        <ele>193</ele>
        <time>2018-07-24T09:43:31Z</time>
      </trkpt>
      <trkpt lat="46.04898" lon="4.76437">
        <ele>193</ele>
        <time>2018-07-24T09:43:32Z</time>
      </trkpt>
      <trkpt lat="46.04893" lon="4.76441">
        <ele>193</ele>
        <time>2018-07-24T09:43:33Z</time>
      </trkpt>
      <trkpt lat="46.04888" lon="4.76442">
        <ele>193</ele>
        <time>2018-07-24T09:43:34Z</time>
      </trkpt>
      <trkpt lat="46.04883" lon="4.76443">
        <ele>193</ele>
        <time>2018-07-24T09:43:35Z</time>
      </trkpt>
      <trkpt lat="46.04879" lon="4.76443">
        <ele>193</ele>
        <time>2018-07-24T09:43:36Z</time>
      </trkpt>
      <trkpt lat="46.04874" lon="4.76444">
        <ele>193</ele>
        <time>2018-07-24T09:43:37Z</time>
      </trkpt>
      <trkpt lat="46.04869" lon="4.76443">
        <ele>193</ele>
        <time>2018-07-24T09:43:38Z</time>
      </trkpt>
      <trkpt lat="46.04864" lon="4.76443">
        <ele>193</ele>
        <time>2018-07-24T09:43:39Z</time>
      </trkpt>
      <trkpt lat="46.04859" lon="4.76443">
        <ele>193</ele>
        <time>2018-07-24T09:43:40Z</time>
      </trkpt>
      <trkpt lat="46.04851" lon="4.76442">
        <ele>193</ele>
        <time>2018-07-24T09:43:42Z</time>
      </trkpt>
      <trkpt lat="46.0485" lon="4.76442">
        <ele>193</ele>
        <time>2018-07-24T09:43:43Z</time>
      </trkpt>
      <trkpt lat="46.04841" lon="4.76443">
        <ele>194</ele>
        <time>2018-07-24T09:43:45Z</time>
      </trkpt>
      <trkpt lat="46.04837" lon="4.76437">
        <ele>194</ele>
        <time>2018-07-24T09:43:46Z</time>
      </trkpt>
      <trkpt lat="46.04832" lon="4.76438">
        <ele>193</ele>
        <time>2018-07-24T09:43:47Z</time>
      </trkpt>
      <trkpt lat="46.04827" lon="4.76438">
        <ele>193</ele>
        <time>2018-07-24T09:43:48Z</time>
      </trkpt>
      <trkpt lat="46.04819" lon="4.76436">
        <ele>193</ele>
        <time>2018-07-24T09:43:50Z</time>
      </trkpt>
      <trkpt lat="46.04815" lon="4.76433">
        <ele>193</ele>
        <time>2018-07-24T09:43:51Z</time>
      </trkpt>
      <trkpt lat="46.04808" lon="4.76429">
        <ele>193</ele>
        <time>2018-07-24T09:43:53Z</time>
      </trkpt>
      <trkpt lat="46.04802" lon="4.76433">
        <ele>193</ele>
        <time>2018-07-24T09:43:54Z</time>
      </trkpt>
      <trkpt lat="46.04796" lon="4.76433">
        <ele>193</ele>
        <time>2018-07-24T09:43:55Z</time>
      </trkpt>
      <trkpt lat="46.0479" lon="4.76437">
        <ele>192</ele>
        <time>2018-07-24T09:43:56Z</time>
      </trkpt>
      <trkpt lat="46.04783" lon="4.76445">
        <ele>192</ele>
        <time>2018-07-24T09:43:58Z</time>
      </trkpt>
      <trkpt lat="46.04777" lon="4.76455">
        <ele>192</ele>
        <time>2018-07-24T09:43:59Z</time>
      </trkpt>
      <trkpt lat="46.04768" lon="4.76462">
        <ele>192</ele>
        <time>2018-07-24T09:44:00Z</time>
      </trkpt>
      <trkpt lat="46.04765" lon="4.76463">
        <ele>192</ele>
        <time>2018-07-24T09:44:01Z</time>
      </trkpt>
      <trkpt lat="46.04759" lon="4.76472">
        <ele>192</ele>
        <time>2018-07-24T09:44:02Z</time>
      </trkpt>
      <trkpt lat="46.04756" lon="4.7647">
        <ele>192</ele>
        <time>2018-07-24T09:44:03Z</time>
      </trkpt>
      <trkpt lat="46.0475" lon="4.76471">
        <ele>190</ele>
        <time>2018-07-24T09:44:04Z</time>
      </trkpt>
      <trkpt lat="46.04745" lon="4.76472">
        <ele>190</ele>
        <time>2018-07-24T09:44:05Z</time>
      </trkpt>
      <trkpt lat="46.0474" lon="4.76475">
        <ele>190</ele>
        <time>2018-07-24T09:44:06Z</time>
      </trkpt>
      <trkpt lat="46.04734" lon="4.76477">
        <ele>190</ele>
        <time>2018-07-24T09:44:07Z</time>
      </trkpt>
      <trkpt lat="46.04731" lon="4.76477">
        <ele>189</ele>
        <time>2018-07-24T09:44:08Z</time>
      </trkpt>
      <trkpt lat="46.04722" lon="4.7648">
        <ele>189</ele>
        <time>2018-07-24T09:44:10Z</time>
      </trkpt>
      <trkpt lat="46.04718" lon="4.76481">
        <ele>189</ele>
        <time>2018-07-24T09:44:11Z</time>
      </trkpt>
      <trkpt lat="46.04713" lon="4.76483">
        <ele>189</ele>
        <time>2018-07-24T09:44:12Z</time>
      </trkpt>
      <trkpt lat="46.04708" lon="4.76485">
        <ele>189</ele>
        <time>2018-07-24T09:44:13Z</time>
      </trkpt>
      <trkpt lat="46.047" lon="4.76488">
        <ele>188</ele>
        <time>2018-07-24T09:44:16Z</time>
      </trkpt>
      <trkpt lat="46.04699" lon="4.76488">
        <ele>188</ele>
        <time>2018-07-24T09:44:17Z</time>
      </trkpt>
      <trkpt lat="46.04692" lon="4.76489">
        <ele>188</ele>
        <time>2018-07-24T09:44:20Z</time>
      </trkpt>
      <trkpt lat="46.04684" lon="4.76494">
        <ele>187</ele>
        <time>2018-07-24T09:44:21Z</time>
      </trkpt>
      <trkpt lat="46.04676" lon="4.765">
        <ele>187</ele>
        <time>2018-07-24T09:44:23Z</time>
      </trkpt>
      <trkpt lat="46.04672" lon="4.76504">
        <ele>186</ele>
        <time>2018-07-24T09:44:24Z</time>
      </trkpt>
      <trkpt lat="46.04663" lon="4.76503">
        <ele>186</ele>
        <time>2018-07-24T09:44:26Z</time>
      </trkpt>
      <trkpt lat="46.04655" lon="4.76504">
        <ele>186</ele>
        <time>2018-07-24T09:44:27Z</time>
      </trkpt>
      <trkpt lat="46.04648" lon="4.76505">
        <ele>186</ele>
        <time>2018-07-24T09:44:28Z</time>
      </trkpt>
      <trkpt lat="46.04643" lon="4.76506">
        <ele>186</ele>
        <time>2018-07-24T09:44:29Z</time>
      </trkpt>
      <trkpt lat="46.04636" lon="4.76508">
        <ele>186</ele>
        <time>2018-07-24T09:44:30Z</time>
      </trkpt>
      <trkpt lat="46.0463" lon="4.76509">
        <ele>186</ele>
        <time>2018-07-24T09:44:31Z</time>
      </trkpt>
      <trkpt lat="46.04625" lon="4.76513">
        <ele>186</ele>
        <time>2018-07-24T09:44:32Z</time>
      </trkpt>
      <trkpt lat="46.04621" lon="4.76514">
        <ele>186</ele>
        <time>2018-07-24T09:44:33Z</time>
      </trkpt>
      <trkpt lat="46.04616" lon="4.76516">
        <ele>186</ele>
        <time>2018-07-24T09:44:34Z</time>
      </trkpt>
      <trkpt lat="46.0461" lon="4.7652">
        <ele>186</ele>
        <time>2018-07-24T09:44:35Z</time>
      </trkpt>
      <trkpt lat="46.04606" lon="4.76521">
        <ele>186</ele>
        <time>2018-07-24T09:44:36Z</time>
      </trkpt>
      <trkpt lat="46.04601" lon="4.76523">
        <ele>186</ele>
        <time>2018-07-24T09:44:37Z</time>
      </trkpt>
      <trkpt lat="46.04595" lon="4.76525">
        <ele>186</ele>
        <time>2018-07-24T09:44:38Z</time>
      </trkpt>
      <trkpt lat="46.04589" lon="4.76529">
        <ele>186</ele>
        <time>2018-07-24T09:44:39Z</time>
      </trkpt>
      <trkpt lat="46.04584" lon="4.76531">
        <ele>186</ele>
        <time>2018-07-24T09:44:40Z</time>
      </trkpt>
      <trkpt lat="46.04577" lon="4.76535">
        <ele>187</ele>
        <time>2018-07-24T09:44:41Z</time>
      </trkpt>
      <trkpt lat="46.04572" lon="4.76537">
        <ele>187</ele>
        <time>2018-07-24T09:44:42Z</time>
      </trkpt>
      <trkpt lat="46.04566" lon="4.7654">
        <ele>187</ele>
        <time>2018-07-24T09:44:43Z</time>
      </trkpt>
      <trkpt lat="46.0456" lon="4.76543">
        <ele>187</ele>
        <time>2018-07-24T09:44:44Z</time>
      </trkpt>
      <trkpt lat="46.04554" lon="4.76546">
        <ele>188</ele>
        <time>2018-07-24T09:44:45Z</time>
      </trkpt>
      <trkpt lat="46.0455" lon="4.76548">
        <ele>188</ele>
        <time>2018-07-24T09:44:46Z</time>
      </trkpt>
      <trkpt lat="46.04545" lon="4.76549">
        <ele>188</ele>
        <time>2018-07-24T09:44:47Z</time>
      </trkpt>
      <trkpt lat="46.04537" lon="4.76551">
        <ele>188</ele>
        <time>2018-07-24T09:44:49Z</time>
      </trkpt>
      <trkpt lat="46.04533" lon="4.76552">
        <ele>188</ele>
        <time>2018-07-24T09:44:50Z</time>
      </trkpt>
      <trkpt lat="46.04525" lon="4.76551">
        <ele>189</ele>
        <time>2018-07-24T09:44:52Z</time>
      </trkpt>
      <trkpt lat="46.04522" lon="4.76552">
        <ele>189</ele>
        <time>2018-07-24T09:44:53Z</time>
      </trkpt>
      <trkpt lat="46.04516" lon="4.76555">
        <ele>189</ele>
        <time>2018-07-24T09:44:55Z</time>
      </trkpt>
      <trkpt lat="46.0451" lon="4.76557">
        <ele>189</ele>
        <time>2018-07-24T09:44:56Z</time>
      </trkpt>
      <trkpt lat="46.04502" lon="4.76555">
        <ele>189</ele>
        <time>2018-07-24T09:44:58Z</time>
      </trkpt>
      <trkpt lat="46.045" lon="4.76556">
        <ele>192</ele>
        <time>2018-07-24T09:44:59Z</time>
      </trkpt>
      <trkpt lat="46.04494" lon="4.76554">
        <ele>192</ele>
        <time>2018-07-24T09:45:00Z</time>
      </trkpt>
      <trkpt lat="46.04489" lon="4.76552">
        <ele>193</ele>
        <time>2018-07-24T09:45:01Z</time>
      </trkpt>
      <trkpt lat="46.04484" lon="4.76553">
        <ele>193</ele>
        <time>2018-07-24T09:45:03Z</time>
      </trkpt>
      <trkpt lat="46.04479" lon="4.76554">
        <ele>193</ele>
        <time>2018-07-24T09:45:04Z</time>
      </trkpt>
      <trkpt lat="46.04473" lon="4.76553">
        <ele>193</ele>
        <time>2018-07-24T09:45:06Z</time>
      </trkpt>
      <trkpt lat="46.0447" lon="4.76554">
        <ele>193</ele>
        <time>2018-07-24T09:45:07Z</time>
      </trkpt>
      <trkpt lat="46.04464" lon="4.76554">
        <ele>193</ele>
        <time>2018-07-24T09:45:08Z</time>
      </trkpt>
      <trkpt lat="46.0446" lon="4.76554">
        <ele>194</ele>
        <time>2018-07-24T09:45:09Z</time>
      </trkpt>
      <trkpt lat="46.04453" lon="4.76554">
        <ele>194</ele>
        <time>2018-07-24T09:45:12Z</time>
      </trkpt>
      <trkpt lat="46.0445" lon="4.76555">
        <ele>194</ele>
        <time>2018-07-24T09:45:13Z</time>
      </trkpt>
      <trkpt lat="46.04442" lon="4.76558">
        <ele>195</ele>
        <time>2018-07-24T09:45:14Z</time>
      </trkpt>
      <trkpt lat="46.04437" lon="4.7656">
        <ele>195</ele>
        <time>2018-07-24T09:45:15Z</time>
      </trkpt>
      <trkpt lat="46.04429" lon="4.76558">
        <ele>195</ele>
        <time>2018-07-24T09:45:17Z</time>
      </trkpt>
      <trkpt lat="46.04422" lon="4.76556">
        <ele>195</ele>
        <time>2018-07-24T09:45:18Z</time>
      </trkpt>
      <trkpt lat="46.04414" lon="4.76557">
        <ele>197</ele>
        <time>2018-07-24T09:45:20Z</time>
      </trkpt>
      <trkpt lat="46.04409" lon="4.76557">
        <ele>197</ele>
        <time>2018-07-24T09:45:21Z</time>
      </trkpt>
      <trkpt lat="46.04405" lon="4.76556">
        <ele>197</ele>
        <time>2018-07-24T09:45:22Z</time>
      </trkpt>
      <trkpt lat="46.044" lon="4.76556">
        <ele>197</ele>
        <time>2018-07-24T09:45:23Z</time>
      </trkpt>
      <trkpt lat="46.04392" lon="4.76556">
        <ele>197</ele>
        <time>2018-07-24T09:45:25Z</time>
      </trkpt>
      <trkpt lat="46.04387" lon="4.76556">
        <ele>197</ele>
        <time>2018-07-24T09:45:26Z</time>
      </trkpt>
      <trkpt lat="46.04381" lon="4.76558">
        <ele>197</ele>
        <time>2018-07-24T09:45:28Z</time>
      </trkpt>
      <trkpt lat="46.04375" lon="4.7656">
        <ele>197</ele>
        <time>2018-07-24T09:45:29Z</time>
      </trkpt>
      <trkpt lat="46.04366" lon="4.76563">
        <ele>197</ele>
        <time>2018-07-24T09:45:32Z</time>
      </trkpt>
      <trkpt lat="46.04358" lon="4.76567">
        <ele>197</ele>
        <time>2018-07-24T09:45:33Z</time>
      </trkpt>
      <trkpt lat="46.04351" lon="4.76569">
        <ele>198</ele>
        <time>2018-07-24T09:45:36Z</time>
      </trkpt>
      <trkpt lat="46.04344" lon="4.76571">
        <ele>198</ele>
        <time>2018-07-24T09:45:37Z</time>
      </trkpt>
      <trkpt lat="46.04335" lon="4.76572">
        <ele>198</ele>
        <time>2018-07-24T09:45:40Z</time>
      </trkpt>
      <trkpt lat="46.04329" lon="4.76574">
        <ele>198</ele>
        <time>2018-07-24T09:45:41Z</time>
      </trkpt>
      <trkpt lat="46.04326" lon="4.76575">
        <ele>198</ele>
        <time>2018-07-24T09:45:43Z</time>
      </trkpt>
      <trkpt lat="46.04318" lon="4.76576">
        <ele>197</ele>
        <time>2018-07-24T09:45:44Z</time>
      </trkpt>
      <trkpt lat="46.0431" lon="4.76574">
        <ele>197</ele>
        <time>2018-07-24T09:45:46Z</time>
      </trkpt>
      <trkpt lat="46.04306" lon="4.76572">
        <ele>197</ele>
        <time>2018-07-24T09:45:47Z</time>
      </trkpt>
      <trkpt lat="46.04298" lon="4.76574">
        <ele>197</ele>
        <time>2018-07-24T09:45:49Z</time>
      </trkpt>
      <trkpt lat="46.04294" lon="4.76573">
        <ele>197</ele>
        <time>2018-07-24T09:45:50Z</time>
      </trkpt>
      <trkpt lat="46.04287" lon="4.76577">
        <ele>197</ele>
        <time>2018-07-24T09:45:52Z</time>
      </trkpt>
      <trkpt lat="46.04285" lon="4.76577">
        <ele>197</ele>
        <time>2018-07-24T09:45:53Z</time>
      </trkpt>
      <trkpt lat="46.04277" lon="4.76576">
        <ele>197</ele>
        <time>2018-07-24T09:45:57Z</time>
      </trkpt>
      <trkpt lat="46.04275" lon="4.76576">
        <ele>197</ele>
        <time>2018-07-24T09:45:58Z</time>
      </trkpt>
      <trkpt lat="46.04267" lon="4.76575">
        <ele>197</ele>
        <time>2018-07-24T09:46:00Z</time>
      </trkpt>
      <trkpt lat="46.04265" lon="4.76574">
        <ele>197</ele>
        <time>2018-07-24T09:46:01Z</time>
      </trkpt>
      <trkpt lat="46.04258" lon="4.76574">
        <ele>197</ele>
        <time>2018-07-24T09:46:04Z</time>
      </trkpt>
      <trkpt lat="46.04248" lon="4.76575">
        <ele>197</ele>
        <time>2018-07-24T09:46:05Z</time>
      </trkpt>
      <trkpt lat="46.04244" lon="4.76576">
        <ele>197</ele>
        <time>2018-07-24T09:46:07Z</time>
      </trkpt>
      <trkpt lat="46.04236" lon="4.76577">
        <ele>197</ele>
        <time>2018-07-24T09:46:08Z</time>
      </trkpt>
      <trkpt lat="46.04232" lon="4.76578">
        <ele>197</ele>
        <time>2018-07-24T09:46:10Z</time>
      </trkpt>
      <trkpt lat="46.04224" lon="4.76581">
        <ele>197</ele>
        <time>2018-07-24T09:46:11Z</time>
      </trkpt>
      <trkpt lat="46.04218" lon="4.76583">
        <ele>197</ele>
        <time>2018-07-24T09:46:14Z</time>
      </trkpt>
      <trkpt lat="46.04209" lon="4.76584">
        <ele>198</ele>
        <time>2018-07-24T09:46:15Z</time>
      </trkpt>
      <trkpt lat="46.04202" lon="4.76587">
        <ele>198</ele>
        <time>2018-07-24T09:46:17Z</time>
      </trkpt>
      <trkpt lat="46.042" lon="4.76588">
        <ele>198</ele>
        <time>2018-07-24T09:46:18Z</time>
      </trkpt>
      <trkpt lat="46.04193" lon="4.76592">
        <ele>198</ele>
        <time>2018-07-24T09:46:19Z</time>
      </trkpt>
      <trkpt lat="46.04191" lon="4.76594">
        <ele>198</ele>
        <time>2018-07-24T09:46:20Z</time>
      </trkpt>
      <trkpt lat="46.04184" lon="4.76599">
        <ele>198</ele>
        <time>2018-07-24T09:46:22Z</time>
      </trkpt>
      <trkpt lat="46.04182" lon="4.76601">
        <ele>198</ele>
        <time>2018-07-24T09:46:23Z</time>
      </trkpt>
      <trkpt lat="46.04179" lon="4.76603">
        <ele>198</ele>
        <time>2018-07-24T09:46:24Z</time>
      </trkpt>
      <trkpt lat="46.04172" lon="4.7661">
        <ele>198</ele>
        <time>2018-07-24T09:46:25Z</time>
      </trkpt>
      <trkpt lat="46.04166" lon="4.76617">
        <ele>199</ele>
        <time>2018-07-24T09:46:27Z</time>
      </trkpt>
      <trkpt lat="46.04163" lon="4.7662">
        <ele>199</ele>
        <time>2018-07-24T09:46:28Z</time>
      </trkpt>
      <trkpt lat="46.04156" lon="4.76626">
        <ele>200</ele>
        <time>2018-07-24T09:46:30Z</time>
      </trkpt>
      <trkpt lat="46.04152" lon="4.76629">
        <ele>200</ele>
        <time>2018-07-24T09:46:31Z</time>
      </trkpt>
      <trkpt lat="46.04145" lon="4.76634">
        <ele>200</ele>
        <time>2018-07-24T09:46:33Z</time>
      </trkpt>
      <trkpt lat="46.04142" lon="4.76636">
        <ele>200</ele>
        <time>2018-07-24T09:46:34Z</time>
      </trkpt>
      <trkpt lat="46.04137" lon="4.7664">
        <ele>200</ele>
        <time>2018-07-24T09:46:36Z</time>
      </trkpt>
      <trkpt lat="46.04132" lon="4.76643">
        <ele>200</ele>
        <time>2018-07-24T09:46:37Z</time>
      </trkpt>
      <trkpt lat="46.04124" lon="4.76645">
        <ele>200</ele>
        <time>2018-07-24T09:46:39Z</time>
      </trkpt>
      <trkpt lat="46.04122" lon="4.76646">
        <ele>200</ele>
        <time>2018-07-24T09:46:40Z</time>
      </trkpt>
      <trkpt lat="46.04117" lon="4.76647">
        <ele>200</ele>
        <time>2018-07-24T09:46:41Z</time>
      </trkpt>
      <trkpt lat="46.04113" lon="4.76648">
        <ele>200</ele>
        <time>2018-07-24T09:46:42Z</time>
      </trkpt>
      <trkpt lat="46.04105" lon="4.76649">
        <ele>200</ele>
        <time>2018-07-24T09:46:44Z</time>
      </trkpt>
      <trkpt lat="46.04101" lon="4.76649">
        <ele>201</ele>
        <time>2018-07-24T09:46:45Z</time>
      </trkpt>
      <trkpt lat="46.04097" lon="4.7665">
        <ele>201</ele>
        <time>2018-07-24T09:46:47Z</time>
      </trkpt>
      <trkpt lat="46.04091" lon="4.76652">
        <ele>201</ele>
        <time>2018-07-24T09:46:48Z</time>
      </trkpt>
      <trkpt lat="46.04083" lon="4.76653">
        <ele>201</ele>
        <time>2018-07-24T09:46:50Z</time>
      </trkpt>
      <trkpt lat="46.04081" lon="4.76653">
        <ele>201</ele>
        <time>2018-07-24T09:46:51Z</time>
      </trkpt>
      <trkpt lat="46.04075" lon="4.76653">
        <ele>201</ele>
        <time>2018-07-24T09:46:52Z</time>
      </trkpt>
      <trkpt lat="46.04071" lon="4.76654">
        <ele>201</ele>
        <time>2018-07-24T09:46:53Z</time>
      </trkpt>
      <trkpt lat="46.04063" lon="4.76656">
        <ele>201</ele>
        <time>2018-07-24T09:46:55Z</time>
      </trkpt>
      <trkpt lat="46.04059" lon="4.76657">
        <ele>201</ele>
        <time>2018-07-24T09:46:56Z</time>
      </trkpt>
      <trkpt lat="46.04054" lon="4.76658">
        <ele>201</ele>
        <time>2018-07-24T09:46:57Z</time>
      </trkpt>
      <trkpt lat="46.0405" lon="4.76659">
        <ele>201</ele>
        <time>2018-07-24T09:46:58Z</time>
      </trkpt>
      <trkpt lat="46.04042" lon="4.7666">
        <ele>201</ele>
        <time>2018-07-24T09:47:00Z</time>
      </trkpt>
      <trkpt lat="46.04037" lon="4.76661">
        <ele>201</ele>
        <time>2018-07-24T09:47:01Z</time>
      </trkpt>
      <trkpt lat="46.04029" lon="4.76663">
        <ele>201</ele>
        <time>2018-07-24T09:47:03Z</time>
      </trkpt>
      <trkpt lat="46.04025" lon="4.76664">
        <ele>201</ele>
        <time>2018-07-24T09:47:04Z</time>
      </trkpt>
      <trkpt lat="46.04016" lon="4.76665">
        <ele>201</ele>
        <time>2018-07-24T09:47:06Z</time>
      </trkpt>
      <trkpt lat="46.04012" lon="4.76664">
        <ele>202</ele>
        <time>2018-07-24T09:47:07Z</time>
      </trkpt>
      <trkpt lat="46.04005" lon="4.76664">
        <ele>202</ele>
        <time>2018-07-24T09:47:09Z</time>
      </trkpt>
      <trkpt lat="46.04" lon="4.76667">
        <ele>202</ele>
        <time>2018-07-24T09:47:10Z</time>
      </trkpt>
      <trkpt lat="46.03992" lon="4.76669">
        <ele>202</ele>
        <time>2018-07-24T09:47:12Z</time>
      </trkpt>
      <trkpt lat="46.03987" lon="4.7667">
        <ele>203</ele>
        <time>2018-07-24T09:47:13Z</time>
      </trkpt>
      <trkpt lat="46.03983" lon="4.76672">
        <ele>203</ele>
        <time>2018-07-24T09:47:14Z</time>
      </trkpt>
      <trkpt lat="46.03978" lon="4.76672">
        <ele>203</ele>
        <time>2018-07-24T09:47:15Z</time>
      </trkpt>
      <trkpt lat="46.0397" lon="4.76675">
        <ele>203</ele>
        <time>2018-07-24T09:47:17Z</time>
      </trkpt>
      <trkpt lat="46.03965" lon="4.76676">
        <ele>203</ele>
        <time>2018-07-24T09:47:18Z</time>
      </trkpt>
      <trkpt lat="46.03958" lon="4.76674">
        <ele>203</ele>
        <time>2018-07-24T09:47:20Z</time>
      </trkpt>
      <trkpt lat="46.03954" lon="4.76674">
        <ele>204</ele>
        <time>2018-07-24T09:47:21Z</time>
      </trkpt>
      <trkpt lat="46.0395" lon="4.76675">
        <ele>204</ele>
        <time>2018-07-24T09:47:22Z</time>
      </trkpt>
      <trkpt lat="46.03945" lon="4.76677">
        <ele>204</ele>
        <time>2018-07-24T09:47:23Z</time>
      </trkpt>
      <trkpt lat="46.0394" lon="4.76679">
        <ele>204</ele>
        <time>2018-07-24T09:47:24Z</time>
      </trkpt>
      <trkpt lat="46.03936" lon="4.76681">
        <ele>204</ele>
        <time>2018-07-24T09:47:25Z</time>
      </trkpt>
      <trkpt lat="46.03927" lon="4.76683">
        <ele>204</ele>
        <time>2018-07-24T09:47:27Z</time>
      </trkpt>
      <trkpt lat="46.03922" lon="4.76684">
        <ele>204</ele>
        <time>2018-07-24T09:47:28Z</time>
      </trkpt>
      <trkpt lat="46.03917" lon="4.76686">
        <ele>204</ele>
        <time>2018-07-24T09:47:29Z</time>
      </trkpt>
      <trkpt lat="46.03913" lon="4.76686">
        <ele>205</ele>
        <time>2018-07-24T09:47:30Z</time>
      </trkpt>
      <trkpt lat="46.03908" lon="4.76687">
        <ele>205</ele>
        <time>2018-07-24T09:47:31Z</time>
      </trkpt>
      <trkpt lat="46.03903" lon="4.76689">
        <ele>205</ele>
        <time>2018-07-24T09:47:32Z</time>
      </trkpt>
      <trkpt lat="46.03899" lon="4.7669">
        <ele>205</ele>
        <time>2018-07-24T09:47:33Z</time>
      </trkpt>
      <trkpt lat="46.03894" lon="4.76692">
        <ele>205</ele>
        <time>2018-07-24T09:47:34Z</time>
      </trkpt>
      <trkpt lat="46.03889" lon="4.76694">
        <ele>205</ele>
        <time>2018-07-24T09:47:35Z</time>
      </trkpt>
      <trkpt lat="46.03884" lon="4.76696">
        <ele>205</ele>
        <time>2018-07-24T09:47:36Z</time>
      </trkpt>
      <trkpt lat="46.03879" lon="4.76696">
        <ele>205</ele>
        <time>2018-07-24T09:47:37Z</time>
      </trkpt>
      <trkpt lat="46.03874" lon="4.76699">
        <ele>205</ele>
        <time>2018-07-24T09:47:38Z</time>
      </trkpt>
      <trkpt lat="46.03869" lon="4.767">
        <ele>205</ele>
        <time>2018-07-24T09:47:39Z</time>
      </trkpt>
      <trkpt lat="46.03863" lon="4.76703">
        <ele>205</ele>
        <time>2018-07-24T09:47:40Z</time>
      </trkpt>
      <trkpt lat="46.03859" lon="4.76705">
        <ele>205</ele>
        <time>2018-07-24T09:47:41Z</time>
      </trkpt>
      <trkpt lat="46.03854" lon="4.76705">
        <ele>205</ele>
        <time>2018-07-24T09:47:42Z</time>
      </trkpt>
      <trkpt lat="46.03846" lon="4.76708">
        <ele>205</ele>
        <time>2018-07-24T09:47:44Z</time>
      </trkpt>
      <trkpt lat="46.03842" lon="4.76707">
        <ele>205</ele>
        <time>2018-07-24T09:47:45Z</time>
      </trkpt>
      <trkpt lat="46.03837" lon="4.76707">
        <ele>205</ele>
        <time>2018-07-24T09:47:46Z</time>
      </trkpt>
      <trkpt lat="46.03833" lon="4.76708">
        <ele>205</ele>
        <time>2018-07-24T09:47:47Z</time>
      </trkpt>
      <trkpt lat="46.03828" lon="4.7671">
        <ele>205</ele>
        <time>2018-07-24T09:47:48Z</time>
      </trkpt>
      <trkpt lat="46.03823" lon="4.76711">
        <ele>205</ele>
        <time>2018-07-24T09:47:49Z</time>
      </trkpt>
      <trkpt lat="46.03818" lon="4.76711">
        <ele>205</ele>
        <time>2018-07-24T09:47:50Z</time>
      </trkpt>
      <trkpt lat="46.03813" lon="4.76711">
        <ele>205</ele>
        <time>2018-07-24T09:47:51Z</time>
      </trkpt>
      <trkpt lat="46.03808" lon="4.76709">
        <ele>205</ele>
        <time>2018-07-24T09:47:53Z</time>
      </trkpt>
      <trkpt lat="46.03799" lon="4.76708">
        <ele>205</ele>
        <time>2018-07-24T09:47:54Z</time>
      </trkpt>
      <trkpt lat="46.03793" lon="4.76708">
        <ele>205</ele>
        <time>2018-07-24T09:47:56Z</time>
      </trkpt>
      <trkpt lat="46.03788" lon="4.76709">
        <ele>205</ele>
        <time>2018-07-24T09:47:57Z</time>
      </trkpt>
      <trkpt lat="46.03784" lon="4.76709">
        <ele>205</ele>
        <time>2018-07-24T09:47:58Z</time>
      </trkpt>
      <trkpt lat="46.03779" lon="4.76707">
        <ele>205</ele>
        <time>2018-07-24T09:47:59Z</time>
      </trkpt>
      <trkpt lat="46.03774" lon="4.76707">
        <ele>205</ele>
        <time>2018-07-24T09:48:03.037Z</time>
      </trkpt>
      <trkpt lat="46.0377" lon="4.76704">
        <ele>205</ele>
        <time>2018-07-24T09:48:01Z</time>
      </trkpt>
      <trkpt lat="46.03765" lon="4.767">
        <ele>205</ele>
        <time>2018-07-24T09:48:02Z</time>
      </trkpt>
      <trkpt lat="46.03761" lon="4.76698">
        <ele>205</ele>
        <time>2018-07-24T09:48:03Z</time>
      </trkpt>
      <trkpt lat="46.03755" lon="4.76697">
        <ele>205</ele>
        <time>2018-07-24T09:48:04Z</time>
      </trkpt>
      <trkpt lat="46.03752" lon="4.76695">
        <ele>205</ele>
        <time>2018-07-24T09:48:05Z</time>
      </trkpt>
      <trkpt lat="46.03746" lon="4.76695">
        <ele>205</ele>
        <time>2018-07-24T09:48:06Z</time>
      </trkpt>
      <trkpt lat="46.03742" lon="4.76693">
        <ele>205</ele>
        <time>2018-07-24T09:48:07Z</time>
      </trkpt>
      <trkpt lat="46.03736" lon="4.76691">
        <ele>205</ele>
        <time>2018-07-24T09:48:08Z</time>
      </trkpt>
      <trkpt lat="46.0373" lon="4.76689">
        <ele>205</ele>
        <time>2018-07-24T09:48:09Z</time>
      </trkpt>
      <trkpt lat="46.03723" lon="4.76688">
        <ele>205</ele>
        <time>2018-07-24T09:48:10Z</time>
      </trkpt>
      <trkpt lat="46.03718" lon="4.76686">
        <ele>205</ele>
        <time>2018-07-24T09:48:11Z</time>
      </trkpt>
      <trkpt lat="46.03714" lon="4.76683">
        <ele>205</ele>
        <time>2018-07-24T09:48:12Z</time>
      </trkpt>
      <trkpt lat="46.03708" lon="4.76679">
        <ele>205</ele>
        <time>2018-07-24T09:48:13Z</time>
      </trkpt>
      <trkpt lat="46.03702" lon="4.76675">
        <ele>205</ele>
        <time>2018-07-24T09:48:14Z</time>
      </trkpt>
      <trkpt lat="46.03699" lon="4.7667">
        <ele>205</ele>
        <time>2018-07-24T09:48:15Z</time>
      </trkpt>
      <trkpt lat="46.03693" lon="4.76662">
        <ele>204</ele>
        <time>2018-07-24T09:48:17Z</time>
      </trkpt>
      <trkpt lat="46.03691" lon="4.76654">
        <ele>204</ele>
        <time>2018-07-24T09:48:18Z</time>
      </trkpt>
      <trkpt lat="46.03689" lon="4.76646">
        <ele>204</ele>
        <time>2018-07-24T09:48:19Z</time>
      </trkpt>
      <trkpt lat="46.03687" lon="4.76639">
        <ele>204</ele>
        <time>2018-07-24T09:48:20Z</time>
      </trkpt>
      <trkpt lat="46.03686" lon="4.76632">
        <ele>203</ele>
        <time>2018-07-24T09:48:21Z</time>
      </trkpt>
      <trkpt lat="46.03685" lon="4.76624">
        <ele>203</ele>
        <time>2018-07-24T09:48:22Z</time>
      </trkpt>
      <trkpt lat="46.03684" lon="4.76617">
        <ele>203</ele>
        <time>2018-07-24T09:48:23Z</time>
      </trkpt>
      <trkpt lat="46.03682" lon="4.76609">
        <ele>203</ele>
        <time>2018-07-24T09:48:24Z</time>
      </trkpt>
      <trkpt lat="46.03678" lon="4.766">
        <ele>203</ele>
        <time>2018-07-24T09:48:25Z</time>
      </trkpt>
      <trkpt lat="46.03674" lon="4.76594">
        <ele>203</ele>
        <time>2018-07-24T09:48:26Z</time>
      </trkpt>
      <trkpt lat="46.03668" lon="4.76587">
        <ele>202</ele>
        <time>2018-07-24T09:48:27Z</time>
      </trkpt>
      <trkpt lat="46.03663" lon="4.76583">
        <ele>202</ele>
        <time>2018-07-24T09:48:28Z</time>
      </trkpt>
      <trkpt lat="46.03657" lon="4.76577">
        <ele>201</ele>
        <time>2018-07-24T09:48:29Z</time>
      </trkpt>
      <trkpt lat="46.03653" lon="4.7657">
        <ele>201</ele>
        <time>2018-07-24T09:48:30Z</time>
      </trkpt>
      <trkpt lat="46.03649" lon="4.76562">
        <ele>201</ele>
        <time>2018-07-24T09:48:31Z</time>
      </trkpt>
      <trkpt lat="46.03643" lon="4.76554">
        <ele>201</ele>
        <time>2018-07-24T09:48:32Z</time>
      </trkpt>
      <trkpt lat="46.03639" lon="4.76545">
        <ele>200</ele>
        <time>2018-07-24T09:48:33Z</time>
      </trkpt>
      <trkpt lat="46.03638" lon="4.76535">
        <ele>200</ele>
        <time>2018-07-24T09:48:34Z</time>
      </trkpt>
      <trkpt lat="46.03635" lon="4.76525">
        <ele>200</ele>
        <time>2018-07-24T09:48:35Z</time>
      </trkpt>
      <trkpt lat="46.03632" lon="4.76514">
        <ele>200</ele>
        <time>2018-07-24T09:48:36Z</time>
      </trkpt>
      <trkpt lat="46.03628" lon="4.76505">
        <ele>200</ele>
        <time>2018-07-24T09:48:37Z</time>
      </trkpt>
      <trkpt lat="46.03624" lon="4.76497">
        <ele>199</ele>
        <time>2018-07-24T09:48:38Z</time>
      </trkpt>
      <trkpt lat="46.03619" lon="4.7649">
        <ele>199</ele>
        <time>2018-07-24T09:48:39Z</time>
      </trkpt>
      <trkpt lat="46.03615" lon="4.76485">
        <ele>199</ele>
        <time>2018-07-24T09:48:40Z</time>
      </trkpt>
      <trkpt lat="46.03612" lon="4.76478">
        <ele>199</ele>
        <time>2018-07-24T09:48:41Z</time>
      </trkpt>
      <trkpt lat="46.03608" lon="4.76471">
        <ele>199</ele>
        <time>2018-07-24T09:48:42Z</time>
      </trkpt>
      <trkpt lat="46.03605" lon="4.76463">
        <ele>199</ele>
        <time>2018-07-24T09:48:43Z</time>
      </trkpt>
      <trkpt lat="46.03603" lon="4.76454">
        <ele>199</ele>
        <time>2018-07-24T09:48:44Z</time>
      </trkpt>
      <trkpt lat="46.03602" lon="4.76445">
        <ele>199</ele>
        <time>2018-07-24T09:48:45Z</time>
      </trkpt>
      <trkpt lat="46.03602" lon="4.76436">
        <ele>199</ele>
        <time>2018-07-24T09:48:46Z</time>
      </trkpt>
      <trkpt lat="46.03602" lon="4.7643">
        <ele>199</ele>
        <time>2018-07-24T09:48:47Z</time>
      </trkpt>
      <trkpt lat="46.03604" lon="4.76421">
        <ele>199</ele>
        <time>2018-07-24T09:48:48Z</time>
      </trkpt>
      <trkpt lat="46.03605" lon="4.76414">
        <ele>198</ele>
        <time>2018-07-24T09:48:49Z</time>
      </trkpt>
      <trkpt lat="46.03606" lon="4.76402">
        <ele>197</ele>
        <time>2018-07-24T09:48:50Z</time>
      </trkpt>
      <trkpt lat="46.03609" lon="4.76394">
        <ele>197</ele>
        <time>2018-07-24T09:48:51Z</time>
      </trkpt>
      <trkpt lat="46.0361" lon="4.76385">
        <ele>197</ele>
        <time>2018-07-24T09:48:52Z</time>
      </trkpt>
      <trkpt lat="46.03609" lon="4.76376">
        <ele>197</ele>
        <time>2018-07-24T09:48:53Z</time>
      </trkpt>
      <trkpt lat="46.03609" lon="4.76366">
        <ele>197</ele>
        <time>2018-07-24T09:48:54Z</time>
      </trkpt>
      <trkpt lat="46.0361" lon="4.76356">
        <ele>196</ele>
        <time>2018-07-24T09:48:55Z</time>
      </trkpt>
      <trkpt lat="46.0361" lon="4.76346">
        <ele>196</ele>
        <time>2018-07-24T09:48:56Z</time>
      </trkpt>
      <trkpt lat="46.03611" lon="4.76336">
        <ele>196</ele>
        <time>2018-07-24T09:48:57Z</time>
      </trkpt>
      <trkpt lat="46.03612" lon="4.76326">
        <ele>195</ele>
        <time>2018-07-24T09:48:58Z</time>
      </trkpt>
      <trkpt lat="46.03613" lon="4.76317">
        <ele>195</ele>
        <time>2018-07-24T09:48:59Z</time>
      </trkpt>
      <trkpt lat="46.03613" lon="4.76306">
        <ele>195</ele>
        <time>2018-07-24T09:49:00Z</time>
      </trkpt>
      <trkpt lat="46.03614" lon="4.76296">
        <ele>195</ele>
        <time>2018-07-24T09:49:01Z</time>
      </trkpt>
      <trkpt lat="46.03615" lon="4.76284">
        <ele>194</ele>
        <time>2018-07-24T09:49:02Z</time>
      </trkpt>
      <trkpt lat="46.03616" lon="4.76275">
        <ele>194</ele>
        <time>2018-07-24T09:49:03Z</time>
      </trkpt>
      <trkpt lat="46.03618" lon="4.76265">
        <ele>194</ele>
        <time>2018-07-24T09:49:04Z</time>
      </trkpt>
      <trkpt lat="46.0362" lon="4.76257">
        <ele>194</ele>
        <time>2018-07-24T09:49:05Z</time>
      </trkpt>
      <trkpt lat="46.03621" lon="4.76246">
        <ele>193</ele>
        <time>2018-07-24T09:49:06Z</time>
      </trkpt>
      <trkpt lat="46.03623" lon="4.76238">
        <ele>193</ele>
        <time>2018-07-24T09:49:07Z</time>
      </trkpt>
      <trkpt lat="46.03625" lon="4.76228">
        <ele>193</ele>
        <time>2018-07-24T09:49:08Z</time>
      </trkpt>
      <trkpt lat="46.03625" lon="4.76219">
        <ele>193</ele>
        <time>2018-07-24T09:49:09Z</time>
      </trkpt>
      <trkpt lat="46.03626" lon="4.76209">
        <ele>193</ele>
        <time>2018-07-24T09:49:10Z</time>
      </trkpt>
      <trkpt lat="46.03628" lon="4.762">
        <ele>193</ele>
        <time>2018-07-24T09:49:11Z</time>
      </trkpt>
      <trkpt lat="46.03629" lon="4.76191">
        <ele>193</ele>
        <time>2018-07-24T09:49:12Z</time>
      </trkpt>
      <trkpt lat="46.03631" lon="4.76181">
        <ele>193</ele>
        <time>2018-07-24T09:49:13Z</time>
      </trkpt>
      <trkpt lat="46.03632" lon="4.76172">
        <ele>192</ele>
        <time>2018-07-24T09:49:14Z</time>
      </trkpt>
      <trkpt lat="46.03632" lon="4.76163">
        <ele>192</ele>
        <time>2018-07-24T09:49:15Z</time>
      </trkpt>
      <trkpt lat="46.03632" lon="4.76154">
        <ele>192</ele>
        <time>2018-07-24T09:49:16Z</time>
      </trkpt>
      <trkpt lat="46.03632" lon="4.76145">
        <ele>192</ele>
        <time>2018-07-24T09:49:17Z</time>
      </trkpt>
      <trkpt lat="46.03633" lon="4.76138">
        <ele>192</ele>
        <time>2018-07-24T09:49:18Z</time>
      </trkpt>
      <trkpt lat="46.03634" lon="4.76129">
        <ele>192</ele>
        <time>2018-07-24T09:49:19Z</time>
      </trkpt>
      <trkpt lat="46.03631" lon="4.76122">
        <ele>192</ele>
        <time>2018-07-24T09:49:20Z</time>
      </trkpt>
      <trkpt lat="46.03631" lon="4.76114">
        <ele>192</ele>
        <time>2018-07-24T09:49:21Z</time>
      </trkpt>
      <trkpt lat="46.0363" lon="4.76105">
        <ele>192</ele>
        <time>2018-07-24T09:49:22Z</time>
      </trkpt>
      <trkpt lat="46.03629" lon="4.76096">
        <ele>192</ele>
        <time>2018-07-24T09:49:23Z</time>
      </trkpt>
      <trkpt lat="46.03628" lon="4.76087">
        <ele>192</ele>
        <time>2018-07-24T09:49:24Z</time>
      </trkpt>
      <trkpt lat="46.03627" lon="4.76078">
        <ele>191</ele>
        <time>2018-07-24T09:49:25Z</time>
      </trkpt>
      <trkpt lat="46.03624" lon="4.76069">
        <ele>191</ele>
        <time>2018-07-24T09:49:26Z</time>
      </trkpt>
      <trkpt lat="46.03622" lon="4.76059">
        <ele>191</ele>
        <time>2018-07-24T09:49:27Z</time>
      </trkpt>
      <trkpt lat="46.03619" lon="4.76051">
        <ele>191</ele>
        <time>2018-07-24T09:49:28Z</time>
      </trkpt>
      <trkpt lat="46.03616" lon="4.76043">
        <ele>191</ele>
        <time>2018-07-24T09:49:29Z</time>
      </trkpt>
      <trkpt lat="46.03613" lon="4.76035">
        <ele>191</ele>
        <time>2018-07-24T09:49:30Z</time>
      </trkpt>
      <trkpt lat="46.03611" lon="4.76028">
        <ele>191</ele>
        <time>2018-07-24T09:49:31Z</time>
      </trkpt>
      <trkpt lat="46.03607" lon="4.7602">
        <ele>191</ele>
        <time>2018-07-24T09:49:32Z</time>
      </trkpt>
      <trkpt lat="46.03605" lon="4.76012">
        <ele>191</ele>
        <time>2018-07-24T09:49:33Z</time>
      </trkpt>
      <trkpt lat="46.03603" lon="4.76004">
        <ele>191</ele>
        <time>2018-07-24T09:49:34Z</time>
      </trkpt>
      <trkpt lat="46.03602" lon="4.75996">
        <ele>190</ele>
        <time>2018-07-24T09:49:35Z</time>
      </trkpt>
      <trkpt lat="46.03599" lon="4.75988">
        <ele>190</ele>
        <time>2018-07-24T09:49:36Z</time>
      </trkpt>
      <trkpt lat="46.03596" lon="4.7598">
        <ele>190</ele>
        <time>2018-07-24T09:49:37Z</time>
      </trkpt>
      <trkpt lat="46.03591" lon="4.75972">
        <ele>190</ele>
        <time>2018-07-24T09:49:38Z</time>
      </trkpt>
      <trkpt lat="46.03587" lon="4.75965">
        <ele>190</ele>
        <time>2018-07-24T09:49:39Z</time>
      </trkpt>
      <trkpt lat="46.03584" lon="4.75957">
        <ele>190</ele>
        <time>2018-07-24T09:49:40Z</time>
      </trkpt>
      <trkpt lat="46.03582" lon="4.7595">
        <ele>190</ele>
        <time>2018-07-24T09:49:41Z</time>
      </trkpt>
      <trkpt lat="46.03579" lon="4.75943">
        <ele>190</ele>
        <time>2018-07-24T09:49:42Z</time>
      </trkpt>
      <trkpt lat="46.03576" lon="4.75936">
        <ele>190</ele>
        <time>2018-07-24T09:49:43Z</time>
      </trkpt>
      <trkpt lat="46.03572" lon="4.75928">
        <ele>190</ele>
        <time>2018-07-24T09:49:44Z</time>
      </trkpt>
      <trkpt lat="46.03568" lon="4.7592">
        <ele>189</ele>
        <time>2018-07-24T09:49:45Z</time>
      </trkpt>
      <trkpt lat="46.03566" lon="4.75912">
        <ele>189</ele>
        <time>2018-07-24T09:49:46Z</time>
      </trkpt>
      <trkpt lat="46.03565" lon="4.75906">
        <ele>189</ele>
        <time>2018-07-24T09:49:47Z</time>
      </trkpt>
      <trkpt lat="46.03561" lon="4.75899">
        <ele>189</ele>
        <time>2018-07-24T09:49:48Z</time>
      </trkpt>
      <trkpt lat="46.03556" lon="4.75892">
        <ele>189</ele>
        <time>2018-07-24T09:49:49Z</time>
      </trkpt>
      <trkpt lat="46.03554" lon="4.75885">
        <ele>189</ele>
        <time>2018-07-24T09:49:50Z</time>
      </trkpt>
      <trkpt lat="46.03551" lon="4.75877">
        <ele>189</ele>
        <time>2018-07-24T09:49:51Z</time>
      </trkpt>
      <trkpt lat="46.03547" lon="4.75869">
        <ele>189</ele>
        <time>2018-07-24T09:49:52Z</time>
      </trkpt>
      <trkpt lat="46.03543" lon="4.75861">
        <ele>189</ele>
        <time>2018-07-24T09:49:53Z</time>
      </trkpt>
      <trkpt lat="46.0354" lon="4.75853">
        <ele>190</ele>
        <time>2018-07-24T09:49:54Z</time>
      </trkpt>
      <trkpt lat="46.03536" lon="4.75845">
        <ele>190</ele>
        <time>2018-07-24T09:49:55Z</time>
      </trkpt>
      <trkpt lat="46.0353" lon="4.75837">
        <ele>190</ele>
        <time>2018-07-24T09:49:56Z</time>
      </trkpt>
      <trkpt lat="46.03526" lon="4.75828">
        <ele>189</ele>
        <time>2018-07-24T09:49:57Z</time>
      </trkpt>
      <trkpt lat="46.03522" lon="4.7582">
        <ele>189</ele>
        <time>2018-07-24T09:49:58Z</time>
      </trkpt>
      <trkpt lat="46.03519" lon="4.75812">
        <ele>189</ele>
        <time>2018-07-24T09:49:59Z</time>
      </trkpt>
      <trkpt lat="46.03515" lon="4.75804">
        <ele>189</ele>
        <time>2018-07-24T09:50:00Z</time>
      </trkpt>
      <trkpt lat="46.03511" lon="4.75797">
        <ele>189</ele>
        <time>2018-07-24T09:50:01Z</time>
      </trkpt>
      <trkpt lat="46.03508" lon="4.75789">
        <ele>189</ele>
        <time>2018-07-24T09:50:02Z</time>
      </trkpt>
      <trkpt lat="46.03506" lon="4.75781">
        <ele>189</ele>
        <time>2018-07-24T09:50:03Z</time>
      </trkpt>
      <trkpt lat="46.03502" lon="4.75772">
        <ele>189</ele>
        <time>2018-07-24T09:50:04Z</time>
      </trkpt>
      <trkpt lat="46.03499" lon="4.75765">
        <ele>189</ele>
        <time>2018-07-24T09:50:05Z</time>
      </trkpt>
      <trkpt lat="46.03497" lon="4.75758">
        <ele>189</ele>
        <time>2018-07-24T09:50:06Z</time>
      </trkpt>
      <trkpt lat="46.03495" lon="4.75751">
        <ele>189</ele>
        <time>2018-07-24T09:50:07Z</time>
      </trkpt>
      <trkpt lat="46.03492" lon="4.75743">
        <ele>189</ele>
        <time>2018-07-24T09:50:08Z</time>
      </trkpt>
      <trkpt lat="46.03489" lon="4.75737">
        <ele>189</ele>
        <time>2018-07-24T09:50:09Z</time>
      </trkpt>
      <trkpt lat="46.03486" lon="4.7573">
        <ele>189</ele>
        <time>2018-07-24T09:50:10Z</time>
      </trkpt>
      <trkpt lat="46.03484" lon="4.75722">
        <ele>189</ele>
        <time>2018-07-24T09:50:11Z</time>
      </trkpt>
      <trkpt lat="46.0348" lon="4.75714">
        <ele>189</ele>
        <time>2018-07-24T09:50:12Z</time>
      </trkpt>
      <trkpt lat="46.03478" lon="4.75708">
        <ele>189</ele>
        <time>2018-07-24T09:50:13Z</time>
      </trkpt>
      <trkpt lat="46.03475" lon="4.75699">
        <ele>189</ele>
        <time>2018-07-24T09:50:14Z</time>
      </trkpt>
      <trkpt lat="46.03472" lon="4.75691">
        <ele>189</ele>
        <time>2018-07-24T09:50:15Z</time>
      </trkpt>
      <trkpt lat="46.03468" lon="4.75684">
        <ele>189</ele>
        <time>2018-07-24T09:50:16Z</time>
      </trkpt>
      <trkpt lat="46.03465" lon="4.75677">
        <ele>189</ele>
        <time>2018-07-24T09:50:17Z</time>
      </trkpt>
      <trkpt lat="46.03463" lon="4.75669">
        <ele>189</ele>
        <time>2018-07-24T09:50:18Z</time>
      </trkpt>
      <trkpt lat="46.0346" lon="4.75662">
        <ele>188</ele>
        <time>2018-07-24T09:50:19Z</time>
      </trkpt>
      <trkpt lat="46.03457" lon="4.75655">
        <ele>188</ele>
        <time>2018-07-24T09:50:20Z</time>
      </trkpt>
      <trkpt lat="46.03454" lon="4.75649">
        <ele>188</ele>
        <time>2018-07-24T09:50:21Z</time>
      </trkpt>
      <trkpt lat="46.03451" lon="4.75644">
        <ele>188</ele>
        <time>2018-07-24T09:50:22Z</time>
      </trkpt>
      <trkpt lat="46.03448" lon="4.75634">
        <ele>188</ele>
        <time>2018-07-24T09:50:26Z</time>
      </trkpt>
      <trkpt lat="46.03447" lon="4.75632">
        <ele>188</ele>
        <time>2018-07-24T09:50:27Z</time>
      </trkpt>
      <trkpt lat="46.03443" lon="4.75622">
        <ele>188</ele>
        <time>2018-07-24T09:50:36Z</time>
      </trkpt>
      <trkpt lat="46.03443" lon="4.7562">
        <ele>188</ele>
        <time>2018-07-24T09:50:37Z</time>
      </trkpt>
      <trkpt lat="46.03441" lon="4.75617">
        <ele>187</ele>
        <time>2018-07-24T09:50:38Z</time>
      </trkpt>
      <trkpt lat="46.03436" lon="4.75611">
        <ele>187</ele>
        <time>2018-07-24T09:50:39Z</time>
      </trkpt>
      <trkpt lat="46.03427" lon="4.75613">
        <ele>187</ele>
        <time>2018-07-24T09:50:42Z</time>
      </trkpt>
      <trkpt lat="46.03425" lon="4.75614">
        <ele>187</ele>
        <time>2018-07-24T09:50:43Z</time>
      </trkpt>
      <trkpt lat="46.0342" lon="4.75615">
        <ele>188</ele>
        <time>2018-07-24T09:50:44Z</time>
      </trkpt>
      <trkpt lat="46.03416" lon="4.75617">
        <ele>188</ele>
        <time>2018-07-24T09:50:45Z</time>
      </trkpt>
      <trkpt lat="46.03408" lon="4.7562">
        <ele>188</ele>
        <time>2018-07-24T09:50:47Z</time>
      </trkpt>
      <trkpt lat="46.03404" lon="4.75622">
        <ele>188</ele>
        <time>2018-07-24T09:50:48Z</time>
      </trkpt>
      <trkpt lat="46.03399" lon="4.75622">
        <ele>188</ele>
        <time>2018-07-24T09:50:49Z</time>
      </trkpt>
      <trkpt lat="46.03394" lon="4.75623">
        <ele>188</ele>
        <time>2018-07-24T09:50:50Z</time>
      </trkpt>
      <trkpt lat="46.03389" lon="4.75624">
        <ele>188</ele>
        <time>2018-07-24T09:50:51Z</time>
      </trkpt>
      <trkpt lat="46.03384" lon="4.75626">
        <ele>188</ele>
        <time>2018-07-24T09:50:52Z</time>
      </trkpt>
      <trkpt lat="46.03379" lon="4.75627">
        <ele>188</ele>
        <time>2018-07-24T09:50:53Z</time>
      </trkpt>
      <trkpt lat="46.03374" lon="4.75629">
        <ele>188</ele>
        <time>2018-07-24T09:50:54Z</time>
      </trkpt>
      <trkpt lat="46.03368" lon="4.75629">
        <ele>188</ele>
        <time>2018-07-24T09:50:55Z</time>
      </trkpt>
      <trkpt lat="46.03362" lon="4.7563">
        <ele>188</ele>
        <time>2018-07-24T09:50:56Z</time>
      </trkpt>
      <trkpt lat="46.03356" lon="4.7563">
        <ele>188</ele>
        <time>2018-07-24T09:50:57Z</time>
      </trkpt>
      <trkpt lat="46.0335" lon="4.7563">
        <ele>188</ele>
        <time>2018-07-24T09:50:58Z</time>
      </trkpt>
      <trkpt lat="46.03345" lon="4.75629">
        <ele>188</ele>
        <time>2018-07-24T09:50:59Z</time>
      </trkpt>
      <trkpt lat="46.03339" lon="4.7563">
        <ele>188</ele>
        <time>2018-07-24T09:51:00Z</time>
      </trkpt>
      <trkpt lat="46.03334" lon="4.75631">
        <ele>188</ele>
        <time>2018-07-24T09:51:01Z</time>
      </trkpt>
      <trkpt lat="46.03328" lon="4.75631">
        <ele>189</ele>
        <time>2018-07-24T09:51:02Z</time>
      </trkpt>
      <trkpt lat="46.03323" lon="4.75631">
        <ele>189</ele>
        <time>2018-07-24T09:51:03Z</time>
      </trkpt>
      <trkpt lat="46.03317" lon="4.7563">
        <ele>189</ele>
        <time>2018-07-24T09:51:04Z</time>
      </trkpt>
      <trkpt lat="46.03312" lon="4.75629">
        <ele>189</ele>
        <time>2018-07-24T09:51:05Z</time>
      </trkpt>
      <trkpt lat="46.03306" lon="4.7563">
        <ele>189</ele>
        <time>2018-07-24T09:51:06Z</time>
      </trkpt>
      <trkpt lat="46.033" lon="4.75631">
        <ele>189</ele>
        <time>2018-07-24T09:51:07Z</time>
      </trkpt>
      <trkpt lat="46.03294" lon="4.75634">
        <ele>189</ele>
        <time>2018-07-24T09:51:08Z</time>
      </trkpt>
      <trkpt lat="46.0329" lon="4.75637">
        <ele>190</ele>
        <time>2018-07-24T09:51:09Z</time>
      </trkpt>
      <trkpt lat="46.03285" lon="4.75644">
        <ele>190</ele>
        <time>2018-07-24T09:51:10Z</time>
      </trkpt>
      <trkpt lat="46.03281" lon="4.75648">
        <ele>190</ele>
        <time>2018-07-24T09:51:11Z</time>
      </trkpt>
      <trkpt lat="46.03275" lon="4.75653">
        <ele>191</ele>
        <time>2018-07-24T09:51:12Z</time>
      </trkpt>
      <trkpt lat="46.0327" lon="4.75657">
        <ele>191</ele>
        <time>2018-07-24T09:51:13Z</time>
      </trkpt>
      <trkpt lat="46.03264" lon="4.75658">
        <ele>192</ele>
        <time>2018-07-24T09:51:14Z</time>
      </trkpt>
      <trkpt lat="46.03256" lon="4.75659">
        <ele>193</ele>
        <time>2018-07-24T09:51:16Z</time>
      </trkpt>
      <trkpt lat="46.0325" lon="4.75659">
        <ele>193</ele>
        <time>2018-07-24T09:51:17Z</time>
      </trkpt>
      <trkpt lat="46.03245" lon="4.7566">
        <ele>193</ele>
        <time>2018-07-24T09:51:18Z</time>
      </trkpt>
      <trkpt lat="46.03238" lon="4.7566">
        <ele>192</ele>
        <time>2018-07-24T09:51:19Z</time>
      </trkpt>
      <trkpt lat="46.0323" lon="4.75664">
        <ele>192</ele>
        <time>2018-07-24T09:51:21Z</time>
      </trkpt>
      <trkpt lat="46.03225" lon="4.75663">
        <ele>191</ele>
        <time>2018-07-24T09:51:22Z</time>
      </trkpt>
      <trkpt lat="46.03218" lon="4.75665">
        <ele>190</ele>
        <time>2018-07-24T09:51:23Z</time>
      </trkpt>
      <trkpt lat="46.03209" lon="4.75665">
        <ele>190</ele>
        <time>2018-07-24T09:51:24Z</time>
      </trkpt>
      <trkpt lat="46.03203" lon="4.75665">
        <ele>189</ele>
        <time>2018-07-24T09:51:25Z</time>
      </trkpt>
      <trkpt lat="46.03194" lon="4.75668">
        <ele>192</ele>
        <time>2018-07-24T09:51:26Z</time>
      </trkpt>
      <trkpt lat="46.03189" lon="4.7567">
        <ele>191</ele>
        <time>2018-07-24T09:51:27Z</time>
      </trkpt>
      <trkpt lat="46.03181" lon="4.7567">
        <ele>190</ele>
        <time>2018-07-24T09:51:28Z</time>
      </trkpt>
      <trkpt lat="46.03175" lon="4.7567">
        <ele>190</ele>
        <time>2018-07-24T09:51:29Z</time>
      </trkpt>
      <trkpt lat="46.03168" lon="4.7567">
        <ele>189</ele>
        <time>2018-07-24T09:51:30Z</time>
      </trkpt>
      <trkpt lat="46.03163" lon="4.75672">
        <ele>188</ele>
        <time>2018-07-24T09:51:31Z</time>
      </trkpt>
      <trkpt lat="46.03157" lon="4.75675">
        <ele>188</ele>
        <time>2018-07-24T09:51:32Z</time>
      </trkpt>
      <trkpt lat="46.03151" lon="4.75672">
        <ele>187</ele>
        <time>2018-07-24T09:51:33Z</time>
      </trkpt>
      <trkpt lat="46.03145" lon="4.75673">
        <ele>187</ele>
        <time>2018-07-24T09:51:34Z</time>
      </trkpt>
      <trkpt lat="46.03139" lon="4.75671">
        <ele>187</ele>
        <time>2018-07-24T09:51:35Z</time>
      </trkpt>
      <trkpt lat="46.03133" lon="4.75674">
        <ele>187</ele>
        <time>2018-07-24T09:51:36Z</time>
      </trkpt>
      <trkpt lat="46.03128" lon="4.75674">
        <ele>187</ele>
        <time>2018-07-24T09:51:37Z</time>
      </trkpt>
      <trkpt lat="46.03123" lon="4.75672">
        <ele>186</ele>
        <time>2018-07-24T09:51:38Z</time>
      </trkpt>
      <trkpt lat="46.03118" lon="4.75674">
        <ele>186</ele>
        <time>2018-07-24T09:51:39Z</time>
      </trkpt>
      <trkpt lat="46.03113" lon="4.75674">
        <ele>186</ele>
        <time>2018-07-24T09:51:40Z</time>
      </trkpt>
      <trkpt lat="46.03108" lon="4.75673">
        <ele>186</ele>
        <time>2018-07-24T09:51:41Z</time>
      </trkpt>
      <trkpt lat="46.03102" lon="4.75672">
        <ele>185</ele>
        <time>2018-07-24T09:51:42Z</time>
      </trkpt>
      <trkpt lat="46.03096" lon="4.75673">
        <ele>185</ele>
        <time>2018-07-24T09:51:43Z</time>
      </trkpt>
      <trkpt lat="46.03092" lon="4.75671">
        <ele>185</ele>
        <time>2018-07-24T09:51:44Z</time>
      </trkpt>
      <trkpt lat="46.03086" lon="4.75673">
        <ele>185</ele>
        <time>2018-07-24T09:51:45Z</time>
      </trkpt>
      <trkpt lat="46.03081" lon="4.75673">
        <ele>184</ele>
        <time>2018-07-24T09:51:46Z</time>
      </trkpt>
      <trkpt lat="46.03075" lon="4.75673">
        <ele>184</ele>
        <time>2018-07-24T09:51:47Z</time>
      </trkpt>
      <trkpt lat="46.03068" lon="4.75673">
        <ele>184</ele>
        <time>2018-07-24T09:51:48Z</time>
      </trkpt>
      <trkpt lat="46.03063" lon="4.75678">
        <ele>184</ele>
        <time>2018-07-24T09:51:49Z</time>
      </trkpt>
      <trkpt lat="46.03056" lon="4.75679">
        <ele>184</ele>
        <time>2018-07-24T09:51:50Z</time>
      </trkpt>
      <trkpt lat="46.0305" lon="4.7568">
        <ele>184</ele>
        <time>2018-07-24T09:51:51Z</time>
      </trkpt>
      <trkpt lat="46.03043" lon="4.75683">
        <ele>184</ele>
        <time>2018-07-24T09:51:52Z</time>
      </trkpt>
      <trkpt lat="46.03037" lon="4.75686">
        <ele>184</ele>
        <time>2018-07-24T09:51:53Z</time>
      </trkpt>
      <trkpt lat="46.03031" lon="4.75686">
        <ele>183</ele>
        <time>2018-07-24T09:51:54Z</time>
      </trkpt>
      <trkpt lat="46.03025" lon="4.75687">
        <ele>183</ele>
        <time>2018-07-24T09:51:55Z</time>
      </trkpt>
      <trkpt lat="46.0302" lon="4.7569">
        <ele>183</ele>
        <time>2018-07-24T09:51:56Z</time>
      </trkpt>
      <trkpt lat="46.03013" lon="4.7569">
        <ele>183</ele>
        <time>2018-07-24T09:51:57Z</time>
      </trkpt>
      <trkpt lat="46.03007" lon="4.75693">
        <ele>183</ele>
        <time>2018-07-24T09:51:58Z</time>
      </trkpt>
      <trkpt lat="46.03002" lon="4.75694">
        <ele>183</ele>
        <time>2018-07-24T09:51:59Z</time>
      </trkpt>
      <trkpt lat="46.02996" lon="4.75695">
        <ele>183</ele>
        <time>2018-07-24T09:52:00Z</time>
      </trkpt>
      <trkpt lat="46.0299" lon="4.75696">
        <ele>183</ele>
        <time>2018-07-24T09:52:01Z</time>
      </trkpt>
      <trkpt lat="46.02984" lon="4.75699">
        <ele>183</ele>
        <time>2018-07-24T09:52:02Z</time>
      </trkpt>
      <trkpt lat="46.02978" lon="4.75702">
        <ele>183</ele>
        <time>2018-07-24T09:52:03Z</time>
      </trkpt>
      <trkpt lat="46.02972" lon="4.75705">
        <ele>183</ele>
        <time>2018-07-24T09:52:04Z</time>
      </trkpt>
      <trkpt lat="46.02966" lon="4.75707">
        <ele>183</ele>
        <time>2018-07-24T09:52:05Z</time>
      </trkpt>
      <trkpt lat="46.0296" lon="4.75707">
        <ele>183</ele>
        <time>2018-07-24T09:52:06Z</time>
      </trkpt>
      <trkpt lat="46.02955" lon="4.75709">
        <ele>183</ele>
        <time>2018-07-24T09:52:07Z</time>
      </trkpt>
      <trkpt lat="46.02948" lon="4.7571">
        <ele>183</ele>
        <time>2018-07-24T09:52:08Z</time>
      </trkpt>
      <trkpt lat="46.02942" lon="4.7571">
        <ele>183</ele>
        <time>2018-07-24T09:52:09Z</time>
      </trkpt>
      <trkpt lat="46.02936" lon="4.75711">
        <ele>183</ele>
        <time>2018-07-24T09:52:10Z</time>
      </trkpt>
      <trkpt lat="46.02929" lon="4.75711">
        <ele>183</ele>
        <time>2018-07-24T09:52:11Z</time>
      </trkpt>
      <trkpt lat="46.02925" lon="4.75712">
        <ele>183</ele>
        <time>2018-07-24T09:52:12Z</time>
      </trkpt>
      <trkpt lat="46.0292" lon="4.75713">
        <ele>183</ele>
        <time>2018-07-24T09:52:13Z</time>
      </trkpt>
      <trkpt lat="46.02915" lon="4.75713">
        <ele>183</ele>
        <time>2018-07-24T09:52:14Z</time>
      </trkpt>
      <trkpt lat="46.02908" lon="4.75712">
        <ele>183</ele>
        <time>2018-07-24T09:52:15Z</time>
      </trkpt>
      <trkpt lat="46.02902" lon="4.75715">
        <ele>183</ele>
        <time>2018-07-24T09:52:16Z</time>
      </trkpt>
      <trkpt lat="46.02895" lon="4.75716">
        <ele>183</ele>
        <time>2018-07-24T09:52:17Z</time>
      </trkpt>
      <trkpt lat="46.02888" lon="4.75716">
        <ele>183</ele>
        <time>2018-07-24T09:52:18Z</time>
      </trkpt>
      <trkpt lat="46.0288" lon="4.75717">
        <ele>183</ele>
        <time>2018-07-24T09:52:19Z</time>
      </trkpt>
      <trkpt lat="46.02873" lon="4.75717">
        <ele>183</ele>
        <time>2018-07-24T09:52:20Z</time>
      </trkpt>
      <trkpt lat="46.02866" lon="4.75717">
        <ele>183</ele>
        <time>2018-07-24T09:52:21Z</time>
      </trkpt>
      <trkpt lat="46.02858" lon="4.75715">
        <ele>183</ele>
        <time>2018-07-24T09:52:22Z</time>
      </trkpt>
      <trkpt lat="46.02851" lon="4.75719">
        <ele>183</ele>
        <time>2018-07-24T09:52:23Z</time>
      </trkpt>
      <trkpt lat="46.02844" lon="4.75722">
        <ele>184</ele>
        <time>2018-07-24T09:52:24Z</time>
      </trkpt>
      <trkpt lat="46.02838" lon="4.75723">
        <ele>184</ele>
        <time>2018-07-24T09:52:25Z</time>
      </trkpt>
      <trkpt lat="46.0283" lon="4.75723">
        <ele>184</ele>
        <time>2018-07-24T09:52:26Z</time>
      </trkpt>
      <trkpt lat="46.02823" lon="4.75721">
        <ele>184</ele>
        <time>2018-07-24T09:52:27Z</time>
      </trkpt>
      <trkpt lat="46.02816" lon="4.75719">
        <ele>183</ele>
        <time>2018-07-24T09:52:28Z</time>
      </trkpt>
      <trkpt lat="46.02808" lon="4.75718">
        <ele>183</ele>
        <time>2018-07-24T09:52:29Z</time>
      </trkpt>
      <trkpt lat="46.02801" lon="4.75717">
        <ele>183</ele>
        <time>2018-07-24T09:52:30Z</time>
      </trkpt>
      <trkpt lat="46.02794" lon="4.75714">
        <ele>183</ele>
        <time>2018-07-24T09:52:31Z</time>
      </trkpt>
      <trkpt lat="46.02787" lon="4.75712">
        <ele>183</ele>
        <time>2018-07-24T09:52:32Z</time>
      </trkpt>
      <trkpt lat="46.02779" lon="4.75711">
        <ele>183</ele>
        <time>2018-07-24T09:52:33Z</time>
      </trkpt>
      <trkpt lat="46.02772" lon="4.75711">
        <ele>183</ele>
        <time>2018-07-24T09:52:34Z</time>
      </trkpt>
      <trkpt lat="46.02766" lon="4.75715">
        <ele>183</ele>
        <time>2018-07-24T09:52:35Z</time>
      </trkpt>
      <trkpt lat="46.0276" lon="4.75715">
        <ele>183</ele>
        <time>2018-07-24T09:52:36Z</time>
      </trkpt>
      <trkpt lat="46.02752" lon="4.75714">
        <ele>183</ele>
        <time>2018-07-24T09:52:37Z</time>
      </trkpt>
      <trkpt lat="46.02746" lon="4.75714">
        <ele>182</ele>
        <time>2018-07-24T09:52:38Z</time>
      </trkpt>
      <trkpt lat="46.02739" lon="4.75714">
        <ele>182</ele>
        <time>2018-07-24T09:52:39Z</time>
      </trkpt>
      <trkpt lat="46.02734" lon="4.75715">
        <ele>182</ele>
        <time>2018-07-24T09:52:40Z</time>
      </trkpt>
      <trkpt lat="46.02729" lon="4.75719">
        <ele>182</ele>
        <time>2018-07-24T09:52:41Z</time>
      </trkpt>
      <trkpt lat="46.02724" lon="4.75722">
        <ele>182</ele>
        <time>2018-07-24T09:52:42Z</time>
      </trkpt>
      <trkpt lat="46.0272" lon="4.75726">
        <ele>182</ele>
        <time>2018-07-24T09:52:43Z</time>
      </trkpt>
      <trkpt lat="46.02715" lon="4.75727">
        <ele>182</ele>
        <time>2018-07-24T09:52:44Z</time>
      </trkpt>
      <trkpt lat="46.0271" lon="4.7573">
        <ele>182</ele>
        <time>2018-07-24T09:52:45Z</time>
      </trkpt>
      <trkpt lat="46.02706" lon="4.75734">
        <ele>182</ele>
        <time>2018-07-24T09:52:46Z</time>
      </trkpt>
      <trkpt lat="46.02701" lon="4.75736">
        <ele>182</ele>
        <time>2018-07-24T09:52:47Z</time>
      </trkpt>
      <trkpt lat="46.02695" lon="4.75738">
        <ele>182</ele>
        <time>2018-07-24T09:52:48Z</time>
      </trkpt>
      <trkpt lat="46.02688" lon="4.75734">
        <ele>182</ele>
        <time>2018-07-24T09:52:49Z</time>
      </trkpt>
      <trkpt lat="46.02683" lon="4.75735">
        <ele>181</ele>
        <time>2018-07-24T09:52:50Z</time>
      </trkpt>
      <trkpt lat="46.02678" lon="4.75739">
        <ele>181</ele>
        <time>2018-07-24T09:52:51Z</time>
      </trkpt>
      <trkpt lat="46.02674" lon="4.7574">
        <ele>181</ele>
        <time>2018-07-24T09:52:52Z</time>
      </trkpt>
      <trkpt lat="46.02669" lon="4.75739">
        <ele>181</ele>
        <time>2018-07-24T09:52:53Z</time>
      </trkpt>
      <trkpt lat="46.02664" lon="4.7574">
        <ele>181</ele>
        <time>2018-07-24T09:52:54Z</time>
      </trkpt>
      <trkpt lat="46.02659" lon="4.7574">
        <ele>181</ele>
        <time>2018-07-24T09:52:55Z</time>
      </trkpt>
      <trkpt lat="46.02655" lon="4.75742">
        <ele>181</ele>
        <time>2018-07-24T09:52:56Z</time>
      </trkpt>
      <trkpt lat="46.02647" lon="4.75744">
        <ele>182</ele>
        <time>2018-07-24T09:52:58Z</time>
      </trkpt>
      <trkpt lat="46.02644" lon="4.75744">
        <ele>182</ele>
        <time>2018-07-24T09:52:59Z</time>
      </trkpt>
      <trkpt lat="46.02637" lon="4.75741">
        <ele>182</ele>
        <time>2018-07-24T09:53:02Z</time>
      </trkpt>
      <trkpt lat="46.02635" lon="4.75741">
        <ele>182</ele>
        <time>2018-07-24T09:53:03Z</time>
      </trkpt>
      <trkpt lat="46.02628" lon="4.7574">
        <ele>182</ele>
        <time>2018-07-24T09:53:06Z</time>
      </trkpt>
      <trkpt lat="46.02626" lon="4.7574">
        <ele>182</ele>
        <time>2018-07-24T09:53:07Z</time>
      </trkpt>
      <trkpt lat="46.02618" lon="4.75738">
        <ele>182</ele>
        <time>2018-07-24T09:53:10Z</time>
      </trkpt>
      <trkpt lat="46.02615" lon="4.75737">
        <ele>182</ele>
        <time>2018-07-24T09:53:11Z</time>
      </trkpt>
      <trkpt lat="46.02606" lon="4.75736">
        <ele>183</ele>
        <time>2018-07-24T09:53:14Z</time>
      </trkpt>
      <trkpt lat="46.02603" lon="4.75736">
        <ele>183</ele>
        <time>2018-07-24T09:53:15Z</time>
      </trkpt>
      <trkpt lat="46.02595" lon="4.75735">
        <ele>183</ele>
        <time>2018-07-24T09:53:18Z</time>
      </trkpt>
      <trkpt lat="46.02592" lon="4.75735">
        <ele>183</ele>
        <time>2018-07-24T09:53:19Z</time>
      </trkpt>
      <trkpt lat="46.02584" lon="4.75735">
        <ele>183</ele>
        <time>2018-07-24T09:53:22Z</time>
      </trkpt>
      <trkpt lat="46.02581" lon="4.75735">
        <ele>184</ele>
        <time>2018-07-24T09:53:23Z</time>
      </trkpt>
      <trkpt lat="46.02575" lon="4.75735">
        <ele>185</ele>
        <time>2018-07-24T09:53:25Z</time>
      </trkpt>
      <trkpt lat="46.02566" lon="4.75735">
        <ele>185</ele>
        <time>2018-07-24T09:53:26Z</time>
      </trkpt>
      <trkpt lat="46.02558" lon="4.75734">
        <ele>186</ele>
        <time>2018-07-24T09:53:31Z</time>
      </trkpt>
      <trkpt lat="46.02556" lon="4.75734">
        <ele>186</ele>
        <time>2018-07-24T09:53:32Z</time>
      </trkpt>
      <trkpt lat="46.02548" lon="4.75735">
        <ele>186</ele>
        <time>2018-07-24T09:53:35Z</time>
      </trkpt>
      <trkpt lat="46.02546" lon="4.75735">
        <ele>186</ele>
        <time>2018-07-24T09:53:36Z</time>
      </trkpt>
      <trkpt lat="46.02537" lon="4.75736">
        <ele>187</ele>
        <time>2018-07-24T09:53:39Z</time>
      </trkpt>
      <trkpt lat="46.02535" lon="4.75737">
        <ele>187</ele>
        <time>2018-07-24T09:53:40Z</time>
      </trkpt>
      <trkpt lat="46.02526" lon="4.75739">
        <ele>187</ele>
        <time>2018-07-24T09:53:43Z</time>
      </trkpt>
      <trkpt lat="46.02523" lon="4.75741">
        <ele>187</ele>
        <time>2018-07-24T09:53:44Z</time>
      </trkpt>
      <trkpt lat="46.02515" lon="4.75745">
        <ele>188</ele>
        <time>2018-07-24T09:53:47Z</time>
      </trkpt>
      <trkpt lat="46.02512" lon="4.75746">
        <ele>188</ele>
        <time>2018-07-24T09:53:48Z</time>
      </trkpt>
      <trkpt lat="46.02506" lon="4.75749">
        <ele>189</ele>
        <time>2018-07-24T09:53:50Z</time>
      </trkpt>
      <trkpt lat="46.02503" lon="4.7575">
        <ele>190</ele>
        <time>2018-07-24T09:53:51Z</time>
      </trkpt>
      <trkpt lat="46.025" lon="4.75751">
        <ele>190</ele>
        <time>2018-07-24T09:53:52Z</time>
      </trkpt>
      <trkpt lat="46.0249" lon="4.75755">
        <ele>190</ele>
        <time>2018-07-24T09:53:53Z</time>
      </trkpt>
      <trkpt lat="46.02483" lon="4.7576">
        <ele>191</ele>
        <time>2018-07-24T09:53:57Z</time>
      </trkpt>
      <trkpt lat="46.0248" lon="4.75761">
        <ele>191</ele>
        <time>2018-07-24T09:53:58Z</time>
      </trkpt>
      <trkpt lat="46.02473" lon="4.75765">
        <ele>191</ele>
        <time>2018-07-24T09:54:01Z</time>
      </trkpt>
      <trkpt lat="46.0247" lon="4.75766">
        <ele>191</ele>
        <time>2018-07-24T09:54:02Z</time>
      </trkpt>
      <trkpt lat="46.02463" lon="4.7577">
        <ele>191</ele>
        <time>2018-07-24T09:54:05Z</time>
      </trkpt>
      <trkpt lat="46.0246" lon="4.75771">
        <ele>191</ele>
        <time>2018-07-24T09:54:06Z</time>
      </trkpt>
      <trkpt lat="46.02454" lon="4.75775">
        <ele>191</ele>
        <time>2018-07-24T09:54:08Z</time>
      </trkpt>
      <trkpt lat="46.02451" lon="4.75777">
        <ele>191</ele>
        <time>2018-07-24T09:54:09Z</time>
      </trkpt>
      <trkpt lat="46.02446" lon="4.7578">
        <ele>191</ele>
        <time>2018-07-24T09:54:11Z</time>
      </trkpt>
      <trkpt lat="46.02443" lon="4.75781">
        <ele>191</ele>
        <time>2018-07-24T09:54:12Z</time>
      </trkpt>
      <trkpt lat="46.02435" lon="4.75786">
        <ele>191</ele>
        <time>2018-07-24T09:54:15Z</time>
      </trkpt>
      <trkpt lat="46.02432" lon="4.75787">
        <ele>191</ele>
        <time>2018-07-24T09:54:16Z</time>
      </trkpt>
      <trkpt lat="46.02426" lon="4.7579">
        <ele>191</ele>
        <time>2018-07-24T09:54:18Z</time>
      </trkpt>
      <trkpt lat="46.02423" lon="4.75792">
        <ele>192</ele>
        <time>2018-07-24T09:54:19Z</time>
      </trkpt>
      <trkpt lat="46.02418" lon="4.75795">
        <ele>192</ele>
        <time>2018-07-24T09:54:21Z</time>
      </trkpt>
      <trkpt lat="46.02409" lon="4.75802">
        <ele>192</ele>
        <time>2018-07-24T09:54:22Z</time>
      </trkpt>
      <trkpt lat="46.02403" lon="4.75806">
        <ele>192</ele>
        <time>2018-07-24T09:54:25Z</time>
      </trkpt>
      <trkpt lat="46.02401" lon="4.75808">
        <ele>192</ele>
        <time>2018-07-24T09:54:26Z</time>
      </trkpt>
      <trkpt lat="46.02392" lon="4.75813">
        <ele>192</ele>
        <time>2018-07-24T09:54:29Z</time>
      </trkpt>
      <trkpt lat="46.0239" lon="4.75814">
        <ele>192</ele>
        <time>2018-07-24T09:54:30Z</time>
      </trkpt>
      <trkpt lat="46.02383" lon="4.75818">
        <ele>192</ele>
        <time>2018-07-24T09:54:32Z</time>
      </trkpt>
      <trkpt lat="46.02381" lon="4.7582">
        <ele>192</ele>
        <time>2018-07-24T09:54:33Z</time>
      </trkpt>
      <trkpt lat="46.02377" lon="4.75822">
        <ele>192</ele>
        <time>2018-07-24T09:54:34Z</time>
      </trkpt>
      <trkpt lat="46.02369" lon="4.75829">
        <ele>192</ele>
        <time>2018-07-24T09:54:35Z</time>
      </trkpt>
      <trkpt lat="46.02362" lon="4.75834">
        <ele>193</ele>
        <time>2018-07-24T09:54:37Z</time>
      </trkpt>
      <trkpt lat="46.02358" lon="4.75837">
        <ele>193</ele>
        <time>2018-07-24T09:54:38Z</time>
      </trkpt>
      <trkpt lat="46.02351" lon="4.75843">
        <ele>193</ele>
        <time>2018-07-24T09:54:40Z</time>
      </trkpt>
      <trkpt lat="46.02348" lon="4.75846">
        <ele>193</ele>
        <time>2018-07-24T09:54:41Z</time>
      </trkpt>
      <trkpt lat="46.02343" lon="4.7585">
        <ele>193</ele>
        <time>2018-07-24T09:54:43Z</time>
      </trkpt>
      <trkpt lat="46.02338" lon="4.75855">
        <ele>193</ele>
        <time>2018-07-24T09:54:44Z</time>
      </trkpt>
      <trkpt lat="46.02332" lon="4.75861">
        <ele>193</ele>
        <time>2018-07-24T09:54:46Z</time>
      </trkpt>
      <trkpt lat="46.02328" lon="4.75864">
        <ele>193</ele>
        <time>2018-07-24T09:54:47Z</time>
      </trkpt>
      <trkpt lat="46.02323" lon="4.7587">
        <ele>193</ele>
        <time>2018-07-24T09:54:49Z</time>
      </trkpt>
      <trkpt lat="46.02319" lon="4.75875">
        <ele>193</ele>
        <time>2018-07-24T09:54:50Z</time>
      </trkpt>
      <trkpt lat="46.02315" lon="4.75879">
        <ele>193</ele>
        <time>2018-07-24T09:54:51Z</time>
      </trkpt>
      <trkpt lat="46.0231" lon="4.75882">
        <ele>193</ele>
        <time>2018-07-24T09:54:52Z</time>
      </trkpt>
      <trkpt lat="46.02303" lon="4.75888">
        <ele>193</ele>
        <time>2018-07-24T09:54:54Z</time>
      </trkpt>
      <trkpt lat="46.02297" lon="4.75892">
        <ele>193</ele>
        <time>2018-07-24T09:54:55Z</time>
      </trkpt>
      <trkpt lat="46.02292" lon="4.75897">
        <ele>193</ele>
        <time>2018-07-24T09:54:56Z</time>
      </trkpt>
      <trkpt lat="46.02287" lon="4.75902">
        <ele>193</ele>
        <time>2018-07-24T09:54:57Z</time>
      </trkpt>
      <trkpt lat="46.02284" lon="4.75905">
        <ele>193</ele>
        <time>2018-07-24T09:54:58Z</time>
      </trkpt>
      <trkpt lat="46.0228" lon="4.7591">
        <ele>193</ele>
        <time>2018-07-24T09:54:59Z</time>
      </trkpt>
      <trkpt lat="46.02275" lon="4.75914">
        <ele>193</ele>
        <time>2018-07-24T09:55:00Z</time>
      </trkpt>
      <trkpt lat="46.02271" lon="4.75918">
        <ele>193</ele>
        <time>2018-07-24T09:55:01Z</time>
      </trkpt>
      <trkpt lat="46.02267" lon="4.75921">
        <ele>193</ele>
        <time>2018-07-24T09:55:02Z</time>
      </trkpt>
      <trkpt lat="46.02261" lon="4.75924">
        <ele>193</ele>
        <time>2018-07-24T09:55:03Z</time>
      </trkpt>
      <trkpt lat="46.02256" lon="4.75928">
        <ele>193</ele>
        <time>2018-07-24T09:55:04Z</time>
      </trkpt>
      <trkpt lat="46.02251" lon="4.7593">
        <ele>193</ele>
        <time>2018-07-24T09:55:05Z</time>
      </trkpt>
      <trkpt lat="46.02246" lon="4.75933">
        <ele>193</ele>
        <time>2018-07-24T09:55:06Z</time>
      </trkpt>
      <trkpt lat="46.02241" lon="4.75938">
        <ele>193</ele>
        <time>2018-07-24T09:55:07Z</time>
      </trkpt>
      <trkpt lat="46.02235" lon="4.75941">
        <ele>193</ele>
        <time>2018-07-24T09:55:08Z</time>
      </trkpt>
      <trkpt lat="46.0223" lon="4.75946">
        <ele>193</ele>
        <time>2018-07-24T09:55:09Z</time>
      </trkpt>
      <trkpt lat="46.02226" lon="4.75952">
        <ele>193</ele>
        <time>2018-07-24T09:55:10Z</time>
      </trkpt>
      <trkpt lat="46.02221" lon="4.75957">
        <ele>192</ele>
        <time>2018-07-24T09:55:11Z</time>
      </trkpt>
      <trkpt lat="46.02215" lon="4.75961">
        <ele>192</ele>
        <time>2018-07-24T09:55:12Z</time>
      </trkpt>
      <trkpt lat="46.0221" lon="4.75966">
        <ele>192</ele>
        <time>2018-07-24T09:55:13Z</time>
      </trkpt>
      <trkpt lat="46.02204" lon="4.7597">
        <ele>192</ele>
        <time>2018-07-24T09:55:14Z</time>
      </trkpt>
      <trkpt lat="46.02199" lon="4.75974">
        <ele>192</ele>
        <time>2018-07-24T09:55:15Z</time>
      </trkpt>
      <trkpt lat="46.02194" lon="4.7598">
        <ele>192</ele>
        <time>2018-07-24T09:55:16Z</time>
      </trkpt>
      <trkpt lat="46.0219" lon="4.75984">
        <ele>192</ele>
        <time>2018-07-24T09:55:17Z</time>
      </trkpt>
      <trkpt lat="46.02185" lon="4.75988">
        <ele>192</ele>
        <time>2018-07-24T09:55:18Z</time>
      </trkpt>
      <trkpt lat="46.0218" lon="4.75993">
        <ele>192</ele>
        <time>2018-07-24T09:55:19Z</time>
      </trkpt>
      <trkpt lat="46.02175" lon="4.75997">
        <ele>192</ele>
        <time>2018-07-24T09:55:20Z</time>
      </trkpt>
      <trkpt lat="46.0217" lon="4.76001">
        <ele>192</ele>
        <time>2018-07-24T09:55:21Z</time>
      </trkpt>
      <trkpt lat="46.02166" lon="4.76006">
        <ele>192</ele>
        <time>2018-07-24T09:55:22Z</time>
      </trkpt>
      <trkpt lat="46.02162" lon="4.76011">
        <ele>193</ele>
        <time>2018-07-24T09:55:23Z</time>
      </trkpt>
      <trkpt lat="46.02154" lon="4.76017">
        <ele>193</ele>
        <time>2018-07-24T09:55:25Z</time>
      </trkpt>
      <trkpt lat="46.02151" lon="4.76023">
        <ele>193</ele>
        <time>2018-07-24T09:55:26Z</time>
      </trkpt>
      <trkpt lat="46.02144" lon="4.7603">
        <ele>193</ele>
        <time>2018-07-24T09:55:28Z</time>
      </trkpt>
      <trkpt lat="46.02139" lon="4.76035">
        <ele>193</ele>
        <time>2018-07-24T09:55:29Z</time>
      </trkpt>
      <trkpt lat="46.02135" lon="4.7604">
        <ele>193</ele>
        <time>2018-07-24T09:55:30Z</time>
      </trkpt>
      <trkpt lat="46.0213" lon="4.76043">
        <ele>193</ele>
        <time>2018-07-24T09:55:31Z</time>
      </trkpt>
      <trkpt lat="46.02125" lon="4.76047">
        <ele>194</ele>
        <time>2018-07-24T09:55:32Z</time>
      </trkpt>
      <trkpt lat="46.0212" lon="4.76048">
        <ele>194</ele>
        <time>2018-07-24T09:55:33Z</time>
      </trkpt>
      <trkpt lat="46.02116" lon="4.76052">
        <ele>194</ele>
        <time>2018-07-24T09:55:34Z</time>
      </trkpt>
      <trkpt lat="46.02112" lon="4.76056">
        <ele>194</ele>
        <time>2018-07-24T09:55:35Z</time>
      </trkpt>
      <trkpt lat="46.02107" lon="4.76061">
        <ele>194</ele>
        <time>2018-07-24T09:55:36Z</time>
      </trkpt>
      <trkpt lat="46.02103" lon="4.76065">
        <ele>194</ele>
        <time>2018-07-24T09:55:37Z</time>
      </trkpt>
      <trkpt lat="46.02099" lon="4.76069">
        <ele>195</ele>
        <time>2018-07-24T09:55:38Z</time>
      </trkpt>
      <trkpt lat="46.02095" lon="4.76071">
        <ele>195</ele>
        <time>2018-07-24T09:55:39Z</time>
      </trkpt>
      <trkpt lat="46.02086" lon="4.76075">
        <ele>195</ele>
        <time>2018-07-24T09:55:41Z</time>
      </trkpt>
      <trkpt lat="46.02082" lon="4.76078">
        <ele>196</ele>
        <time>2018-07-24T09:55:42Z</time>
      </trkpt>
      <trkpt lat="46.02075" lon="4.7608">
        <ele>196</ele>
        <time>2018-07-24T09:55:44Z</time>
      </trkpt>
      <trkpt lat="46.02071" lon="4.76081">
        <ele>196</ele>
        <time>2018-07-24T09:55:45Z</time>
      </trkpt>
      <trkpt lat="46.02062" lon="4.76084">
        <ele>197</ele>
        <time>2018-07-24T09:55:47Z</time>
      </trkpt>
      <trkpt lat="46.02059" lon="4.76085">
        <ele>197</ele>
        <time>2018-07-24T09:55:48Z</time>
      </trkpt>
      <trkpt lat="46.0205" lon="4.76087">
        <ele>197</ele>
        <time>2018-07-24T09:55:50Z</time>
      </trkpt>
      <trkpt lat="46.02047" lon="4.76088">
        <ele>197</ele>
        <time>2018-07-24T09:55:51Z</time>
      </trkpt>
      <trkpt lat="46.02042" lon="4.7609">
        <ele>197</ele>
        <time>2018-07-24T09:55:52Z</time>
      </trkpt>
      <trkpt lat="46.02038" lon="4.76092">
        <ele>197</ele>
        <time>2018-07-24T09:55:53Z</time>
      </trkpt>
      <trkpt lat="46.02034" lon="4.76094">
        <ele>197</ele>
        <time>2018-07-24T09:55:54Z</time>
      </trkpt>
      <trkpt lat="46.02028" lon="4.76093">
        <ele>197</ele>
        <time>2018-07-24T09:55:55Z</time>
      </trkpt>
      <trkpt lat="46.0202" lon="4.76096">
        <ele>197</ele>
        <time>2018-07-24T09:55:57Z</time>
      </trkpt>
      <trkpt lat="46.02016" lon="4.76097">
        <ele>197</ele>
        <time>2018-07-24T09:55:58Z</time>
      </trkpt>
      <trkpt lat="46.02008" lon="4.76099">
        <ele>197</ele>
        <time>2018-07-24T09:56:00Z</time>
      </trkpt>
      <trkpt lat="46.02002" lon="4.76101">
        <ele>197</ele>
        <time>2018-07-24T09:56:01Z</time>
      </trkpt>
      <trkpt lat="46.01997" lon="4.76102">
        <ele>198</ele>
        <time>2018-07-24T09:56:02Z</time>
      </trkpt>
      <trkpt lat="46.01993" lon="4.76103">
        <ele>198</ele>
        <time>2018-07-24T09:56:03Z</time>
      </trkpt>
      <trkpt lat="46.01988" lon="4.76106">
        <ele>198</ele>
        <time>2018-07-24T09:56:04Z</time>
      </trkpt>
      <trkpt lat="46.01981" lon="4.76108">
        <ele>198</ele>
        <time>2018-07-24T09:56:05Z</time>
      </trkpt>
      <trkpt lat="46.01973" lon="4.76111">
        <ele>198</ele>
        <time>2018-07-24T09:56:07Z</time>
      </trkpt>
      <trkpt lat="46.01969" lon="4.76112">
        <ele>198</ele>
        <time>2018-07-24T09:56:08Z</time>
      </trkpt>
      <trkpt lat="46.01961" lon="4.76112">
        <ele>198</ele>
        <time>2018-07-24T09:56:10Z</time>
      </trkpt>
      <trkpt lat="46.01957" lon="4.76113">
        <ele>198</ele>
        <time>2018-07-24T09:56:11Z</time>
      </trkpt>
      <trkpt lat="46.0195" lon="4.76114">
        <ele>198</ele>
        <time>2018-07-24T09:56:13Z</time>
      </trkpt>
      <trkpt lat="46.01946" lon="4.76116">
        <ele>198</ele>
        <time>2018-07-24T09:56:14Z</time>
      </trkpt>
      <trkpt lat="46.01938" lon="4.76121">
        <ele>198</ele>
        <time>2018-07-24T09:56:16Z</time>
      </trkpt>
      <trkpt lat="46.01933" lon="4.7612">
        <ele>198</ele>
        <time>2018-07-24T09:56:17Z</time>
      </trkpt>
      <trkpt lat="46.01929" lon="4.7612">
        <ele>198</ele>
        <time>2018-07-24T09:56:18Z</time>
      </trkpt>
      <trkpt lat="46.01923" lon="4.76122">
        <ele>198</ele>
        <time>2018-07-24T09:56:19Z</time>
      </trkpt>
      <trkpt lat="46.01917" lon="4.76123">
        <ele>198</ele>
        <time>2018-07-24T09:56:20Z</time>
      </trkpt>
      <trkpt lat="46.01912" lon="4.76124">
        <ele>199</ele>
        <time>2018-07-24T09:56:21Z</time>
      </trkpt>
      <trkpt lat="46.01906" lon="4.76124">
        <ele>199</ele>
        <time>2018-07-24T09:56:22Z</time>
      </trkpt>
      <trkpt lat="46.01902" lon="4.76125">
        <ele>199</ele>
        <time>2018-07-24T09:56:23Z</time>
      </trkpt>
      <trkpt lat="46.01897" lon="4.76126">
        <ele>199</ele>
        <time>2018-07-24T09:56:24Z</time>
      </trkpt>
      <trkpt lat="46.01892" lon="4.76126">
        <ele>199</ele>
        <time>2018-07-24T09:56:25Z</time>
      </trkpt>
      <trkpt lat="46.01884" lon="4.76126">
        <ele>199</ele>
        <time>2018-07-24T09:56:27Z</time>
      </trkpt>
      <trkpt lat="46.0188" lon="4.76126">
        <ele>199</ele>
        <time>2018-07-24T09:56:28Z</time>
      </trkpt>
      <trkpt lat="46.01872" lon="4.76125">
        <ele>199</ele>
        <time>2018-07-24T09:56:30Z</time>
      </trkpt>
      <trkpt lat="46.01867" lon="4.76125">
        <ele>199</ele>
        <time>2018-07-24T09:56:31Z</time>
      </trkpt>
      <trkpt lat="46.01861" lon="4.76125">
        <ele>199</ele>
        <time>2018-07-24T09:56:32Z</time>
      </trkpt>
      <trkpt lat="46.01857" lon="4.76125">
        <ele>199</ele>
        <time>2018-07-24T09:56:33Z</time>
      </trkpt>
      <trkpt lat="46.0185" lon="4.76128">
        <ele>199</ele>
        <time>2018-07-24T09:56:34Z</time>
      </trkpt>
      <trkpt lat="46.01846" lon="4.76125">
        <ele>199</ele>
        <time>2018-07-24T09:56:35Z</time>
      </trkpt>
      <trkpt lat="46.01838" lon="4.76126">
        <ele>199</ele>
        <time>2018-07-24T09:56:37Z</time>
      </trkpt>
      <trkpt lat="46.01833" lon="4.76128">
        <ele>198</ele>
        <time>2018-07-24T09:56:38Z</time>
      </trkpt>
      <trkpt lat="46.0183" lon="4.7612">
        <ele>198</ele>
        <time>2018-07-24T09:56:39Z</time>
      </trkpt>
      <trkpt lat="46.01823" lon="4.76126">
        <ele>198</ele>
        <time>2018-07-24T09:56:40Z</time>
      </trkpt>
      <trkpt lat="46.01817" lon="4.76127">
        <ele>198</ele>
        <time>2018-07-24T09:56:41Z</time>
      </trkpt>
      <trkpt lat="46.01813" lon="4.76127">
        <ele>198</ele>
        <time>2018-07-24T09:56:42Z</time>
      </trkpt>
      <trkpt lat="46.01804" lon="4.76125">
        <ele>198</ele>
        <time>2018-07-24T09:56:44Z</time>
      </trkpt>
      <trkpt lat="46.01797" lon="4.76128">
        <ele>198</ele>
        <time>2018-07-24T09:56:45Z</time>
      </trkpt>
      <trkpt lat="46.01792" lon="4.76128">
        <ele>198</ele>
        <time>2018-07-24T09:56:46Z</time>
      </trkpt>
      <trkpt lat="46.01787" lon="4.76126">
        <ele>198</ele>
        <time>2018-07-24T09:56:47Z</time>
      </trkpt>
      <trkpt lat="46.01778" lon="4.76126">
        <ele>198</ele>
        <time>2018-07-24T09:56:49Z</time>
      </trkpt>
      <trkpt lat="46.01774" lon="4.76123">
        <ele>198</ele>
        <time>2018-07-24T09:56:50Z</time>
      </trkpt>
      <trkpt lat="46.01765" lon="4.76123">
        <ele>198</ele>
        <time>2018-07-24T09:56:52Z</time>
      </trkpt>
      <trkpt lat="46.01762" lon="4.76123">
        <ele>198</ele>
        <time>2018-07-24T09:56:53Z</time>
      </trkpt>
      <trkpt lat="46.01756" lon="4.76123">
        <ele>198</ele>
        <time>2018-07-24T09:56:54Z</time>
      </trkpt>
      <trkpt lat="46.01751" lon="4.76123">
        <ele>198</ele>
        <time>2018-07-24T09:56:55Z</time>
      </trkpt>
      <trkpt lat="46.01746" lon="4.76123">
        <ele>197</ele>
        <time>2018-07-24T09:56:56Z</time>
      </trkpt>
      <trkpt lat="46.01742" lon="4.76122">
        <ele>197</ele>
        <time>2018-07-24T09:56:57Z</time>
      </trkpt>
      <trkpt lat="46.01736" lon="4.76125">
        <ele>197</ele>
        <time>2018-07-24T09:56:58Z</time>
      </trkpt>
      <trkpt lat="46.01731" lon="4.76126">
        <ele>197</ele>
        <time>2018-07-24T09:56:59Z</time>
      </trkpt>
      <trkpt lat="46.01724" lon="4.76125">
        <ele>197</ele>
        <time>2018-07-24T09:57:01Z</time>
      </trkpt>
      <trkpt lat="46.01721" lon="4.76122">
        <ele>197</ele>
        <time>2018-07-24T09:57:02Z</time>
      </trkpt>
      <trkpt lat="46.01716" lon="4.76122">
        <ele>197</ele>
        <time>2018-07-24T09:57:03Z</time>
      </trkpt>
      <trkpt lat="46.01711" lon="4.76121">
        <ele>198</ele>
        <time>2018-07-24T09:57:04Z</time>
      </trkpt>
      <trkpt lat="46.01706" lon="4.7612">
        <ele>198</ele>
        <time>2018-07-24T09:57:05Z</time>
      </trkpt>
      <trkpt lat="46.01702" lon="4.76119">
        <ele>198</ele>
        <time>2018-07-24T09:57:06Z</time>
      </trkpt>
      <trkpt lat="46.01693" lon="4.76117">
        <ele>198</ele>
        <time>2018-07-24T09:57:08Z</time>
      </trkpt>
      <trkpt lat="46.01689" lon="4.76118">
        <ele>198</ele>
        <time>2018-07-24T09:57:09Z</time>
      </trkpt>
      <trkpt lat="46.0168" lon="4.76116">
        <ele>198</ele>
        <time>2018-07-24T09:57:11Z</time>
      </trkpt>
      <trkpt lat="46.01677" lon="4.76116">
        <ele>198</ele>
        <time>2018-07-24T09:57:12Z</time>
      </trkpt>
      <trkpt lat="46.01668" lon="4.76115">
        <ele>198</ele>
        <time>2018-07-24T09:57:14Z</time>
      </trkpt>
      <trkpt lat="46.01665" lon="4.76116">
        <ele>199</ele>
        <time>2018-07-24T09:57:15Z</time>
      </trkpt>
      <trkpt lat="46.0166" lon="4.76115">
        <ele>199</ele>
        <time>2018-07-24T09:57:16Z</time>
      </trkpt>
      <trkpt lat="46.01655" lon="4.76117">
        <ele>199</ele>
        <time>2018-07-24T09:57:17Z</time>
      </trkpt>
      <trkpt lat="46.01647" lon="4.76116">
        <ele>199</ele>
        <time>2018-07-24T09:57:19Z</time>
      </trkpt>
      <trkpt lat="46.01642" lon="4.76115">
        <ele>199</ele>
        <time>2018-07-24T09:57:20Z</time>
      </trkpt>
      <trkpt lat="46.01638" lon="4.76114">
        <ele>199</ele>
        <time>2018-07-24T09:57:21Z</time>
      </trkpt>
      <trkpt lat="46.01633" lon="4.76115">
        <ele>199</ele>
        <time>2018-07-24T09:57:22Z</time>
      </trkpt>
      <trkpt lat="46.01626" lon="4.76111">
        <ele>199</ele>
        <time>2018-07-24T09:57:24Z</time>
      </trkpt>
      <trkpt lat="46.01621" lon="4.76109">
        <ele>200</ele>
        <time>2018-07-24T09:57:25Z</time>
      </trkpt>
      <trkpt lat="46.01614" lon="4.76108">
        <ele>200</ele>
        <time>2018-07-24T09:57:26Z</time>
      </trkpt>
      <trkpt lat="46.01609" lon="4.76107">
        <ele>200</ele>
        <time>2018-07-24T09:57:27Z</time>
      </trkpt>
      <trkpt lat="46.01601" lon="4.76105">
        <ele>200</ele>
        <time>2018-07-24T09:57:29Z</time>
      </trkpt>
      <trkpt lat="46.01595" lon="4.76103">
        <ele>200</ele>
        <time>2018-07-24T09:57:30Z</time>
      </trkpt>
      <trkpt lat="46.01588" lon="4.76104">
        <ele>200</ele>
        <time>2018-07-24T09:57:32Z</time>
      </trkpt>
      <trkpt lat="46.01584" lon="4.76104">
        <ele>200</ele>
        <time>2018-07-24T09:57:33Z</time>
      </trkpt>
      <trkpt lat="46.01575" lon="4.76104">
        <ele>202</ele>
        <time>2018-07-24T09:57:35Z</time>
      </trkpt>
      <trkpt lat="46.01572" lon="4.76103">
        <ele>202</ele>
        <time>2018-07-24T09:57:36Z</time>
      </trkpt>
      <trkpt lat="46.01564" lon="4.76099">
        <ele>202</ele>
        <time>2018-07-24T09:57:38Z</time>
      </trkpt>
      <trkpt lat="46.0156" lon="4.76095">
        <ele>202</ele>
        <time>2018-07-24T09:57:39Z</time>
      </trkpt>
      <trkpt lat="46.01556" lon="4.76092">
        <ele>202</ele>
        <time>2018-07-24T09:57:40Z</time>
      </trkpt>
      <trkpt lat="46.01551" lon="4.76091">
        <ele>202</ele>
        <time>2018-07-24T09:57:41Z</time>
      </trkpt>
      <trkpt lat="46.01547" lon="4.76089">
        <ele>202</ele>
        <time>2018-07-24T09:57:42Z</time>
      </trkpt>
      <trkpt lat="46.01542" lon="4.76088">
        <ele>202</ele>
        <time>2018-07-24T09:57:43Z</time>
      </trkpt>
      <trkpt lat="46.01538" lon="4.76087">
        <ele>202</ele>
        <time>2018-07-24T09:57:44Z</time>
      </trkpt>
      <trkpt lat="46.01533" lon="4.76085">
        <ele>202</ele>
        <time>2018-07-24T09:57:45Z</time>
      </trkpt>
      <trkpt lat="46.01528" lon="4.76084">
        <ele>202</ele>
        <time>2018-07-24T09:57:46Z</time>
      </trkpt>
      <trkpt lat="46.01523" lon="4.76083">
        <ele>202</ele>
        <time>2018-07-24T09:57:47Z</time>
      </trkpt>
      <trkpt lat="46.01519" lon="4.76082">
        <ele>202</ele>
        <time>2018-07-24T09:57:48Z</time>
      </trkpt>
      <trkpt lat="46.01514" lon="4.7608">
        <ele>202</ele>
        <time>2018-07-24T09:57:49Z</time>
      </trkpt>
      <trkpt lat="46.01509" lon="4.76079">
        <ele>203</ele>
        <time>2018-07-24T09:57:50Z</time>
      </trkpt>
      <trkpt lat="46.01505" lon="4.76078">
        <ele>203</ele>
        <time>2018-07-24T09:57:51Z</time>
      </trkpt>
      <trkpt lat="46.01496" lon="4.76075">
        <ele>203</ele>
        <time>2018-07-24T09:57:53Z</time>
      </trkpt>
      <trkpt lat="46.01491" lon="4.76075">
        <ele>203</ele>
        <time>2018-07-24T09:57:54Z</time>
      </trkpt>
      <trkpt lat="46.01486" lon="4.76074">
        <ele>203</ele>
        <time>2018-07-24T09:57:55Z</time>
      </trkpt>
      <trkpt lat="46.01481" lon="4.76073">
        <ele>203</ele>
        <time>2018-07-24T09:57:56Z</time>
      </trkpt>
      <trkpt lat="46.01476" lon="4.76072">
        <ele>203</ele>
        <time>2018-07-24T09:57:57Z</time>
      </trkpt>
      <trkpt lat="46.0147" lon="4.7607">
        <ele>203</ele>
        <time>2018-07-24T09:57:58Z</time>
      </trkpt>
      <trkpt lat="46.01466" lon="4.76068">
        <ele>203</ele>
        <time>2018-07-24T09:57:59Z</time>
      </trkpt>
      <trkpt lat="46.01461" lon="4.76067">
        <ele>203</ele>
        <time>2018-07-24T09:58:00Z</time>
      </trkpt>
      <trkpt lat="46.01453" lon="4.76065">
        <ele>203</ele>
        <time>2018-07-24T09:58:02Z</time>
      </trkpt>
      <trkpt lat="46.01449" lon="4.76063">
        <ele>203</ele>
        <time>2018-07-24T09:58:03Z</time>
      </trkpt>
      <trkpt lat="46.01441" lon="4.7606">
        <ele>203</ele>
        <time>2018-07-24T09:58:05Z</time>
      </trkpt>
      <trkpt lat="46.01437" lon="4.76057">
        <ele>203</ele>
        <time>2018-07-24T09:58:06Z</time>
      </trkpt>
      <trkpt lat="46.01433" lon="4.76052">
        <ele>204</ele>
        <time>2018-07-24T09:58:07Z</time>
      </trkpt>
      <trkpt lat="46.01428" lon="4.76049">
        <ele>204</ele>
        <time>2018-07-24T09:58:08Z</time>
      </trkpt>
      <trkpt lat="46.0142" lon="4.76044">
        <ele>204</ele>
        <time>2018-07-24T09:58:10Z</time>
      </trkpt>
      <trkpt lat="46.01416" lon="4.76042">
        <ele>204</ele>
        <time>2018-07-24T09:58:11Z</time>
      </trkpt>
      <trkpt lat="46.01408" lon="4.76038">
        <ele>204</ele>
        <time>2018-07-24T09:58:13Z</time>
      </trkpt>
      <trkpt lat="46.01403" lon="4.76036">
        <ele>204</ele>
        <time>2018-07-24T09:58:14Z</time>
      </trkpt>
      <trkpt lat="46.01398" lon="4.76035">
        <ele>204</ele>
        <time>2018-07-24T09:58:15Z</time>
      </trkpt>
      <trkpt lat="46.01394" lon="4.76036">
        <ele>203</ele>
        <time>2018-07-24T09:58:16Z</time>
      </trkpt>
      <trkpt lat="46.0139" lon="4.76036">
        <ele>203</ele>
        <time>2018-07-24T09:58:17Z</time>
      </trkpt>
      <trkpt lat="46.01384" lon="4.76037">
        <ele>203</ele>
        <time>2018-07-24T09:58:18Z</time>
      </trkpt>
      <trkpt lat="46.01379" lon="4.76038">
        <ele>203</ele>
        <time>2018-07-24T09:58:19Z</time>
      </trkpt>
      <trkpt lat="46.01375" lon="4.76041">
        <ele>203</ele>
        <time>2018-07-24T09:58:20Z</time>
      </trkpt>
      <trkpt lat="46.01367" lon="4.76043">
        <ele>203</ele>
        <time>2018-07-24T09:58:22Z</time>
      </trkpt>
      <trkpt lat="46.01362" lon="4.76043">
        <ele>203</ele>
        <time>2018-07-24T09:58:23Z</time>
      </trkpt>
      <trkpt lat="46.01359" lon="4.76048">
        <ele>203</ele>
        <time>2018-07-24T09:58:24Z</time>
      </trkpt>
      <trkpt lat="46.01355" lon="4.7605">
        <ele>203</ele>
        <time>2018-07-24T09:58:25Z</time>
      </trkpt>
      <trkpt lat="46.01346" lon="4.76051">
        <ele>203</ele>
        <time>2018-07-24T09:58:27Z</time>
      </trkpt>
      <trkpt lat="46.01341" lon="4.76051">
        <ele>203</ele>
        <time>2018-07-24T09:58:28Z</time>
      </trkpt>
      <trkpt lat="46.01337" lon="4.76052">
        <ele>203</ele>
        <time>2018-07-24T09:58:29Z</time>
      </trkpt>
      <trkpt lat="46.01332" lon="4.76053">
        <ele>203</ele>
        <time>2018-07-24T09:58:30Z</time>
      </trkpt>
      <trkpt lat="46.01327" lon="4.76054">
        <ele>203</ele>
        <time>2018-07-24T09:58:31Z</time>
      </trkpt>
      <trkpt lat="46.01323" lon="4.76056">
        <ele>203</ele>
        <time>2018-07-24T09:58:32Z</time>
      </trkpt>
      <trkpt lat="46.01314" lon="4.76055">
        <ele>203</ele>
        <time>2018-07-24T09:58:34Z</time>
      </trkpt>
      <trkpt lat="46.0131" lon="4.76056">
        <ele>203</ele>
        <time>2018-07-24T09:58:35Z</time>
      </trkpt>
      <trkpt lat="46.01304" lon="4.76058">
        <ele>203</ele>
        <time>2018-07-24T09:58:36Z</time>
      </trkpt>
      <trkpt lat="46.013" lon="4.76059">
        <ele>203</ele>
        <time>2018-07-24T09:58:37Z</time>
      </trkpt>
      <trkpt lat="46.01295" lon="4.7606">
        <ele>204</ele>
        <time>2018-07-24T09:58:38Z</time>
      </trkpt>
      <trkpt lat="46.0129" lon="4.76061">
        <ele>204</ele>
        <time>2018-07-24T09:58:39Z</time>
      </trkpt>
      <trkpt lat="46.01284" lon="4.76065">
        <ele>204</ele>
        <time>2018-07-24T09:58:40Z</time>
      </trkpt>
      <trkpt lat="46.0128" lon="4.76066">
        <ele>204</ele>
        <time>2018-07-24T09:58:41Z</time>
      </trkpt>
      <trkpt lat="46.01275" lon="4.76067">
        <ele>204</ele>
        <time>2018-07-24T09:58:42Z</time>
      </trkpt>
      <trkpt lat="46.0127" lon="4.7607">
        <ele>204</ele>
        <time>2018-07-24T09:58:43Z</time>
      </trkpt>
      <trkpt lat="46.01264" lon="4.76069">
        <ele>204</ele>
        <time>2018-07-24T09:58:45Z</time>
      </trkpt>
      <trkpt lat="46.0126" lon="4.76066">
        <ele>204</ele>
        <time>2018-07-24T09:58:46Z</time>
      </trkpt>
      <trkpt lat="46.01256" lon="4.76066">
        <ele>204</ele>
        <time>2018-07-24T09:58:47Z</time>
      </trkpt>
      <trkpt lat="46.01251" lon="4.76065">
        <ele>204</ele>
        <time>2018-07-24T09:58:48Z</time>
      </trkpt>
      <trkpt lat="46.01245" lon="4.76063">
        <ele>205</ele>
        <time>2018-07-24T09:58:50Z</time>
      </trkpt>
      <trkpt lat="46.0124" lon="4.76062">
        <ele>205</ele>
        <time>2018-07-24T09:58:51Z</time>
      </trkpt>
      <trkpt lat="46.01236" lon="4.76061">
        <ele>205</ele>
        <time>2018-07-24T09:58:52Z</time>
      </trkpt>
      <trkpt lat="46.0123" lon="4.76061">
        <ele>206</ele>
        <time>2018-07-24T09:58:53Z</time>
      </trkpt>
      <trkpt lat="46.01226" lon="4.7606">
        <ele>206</ele>
        <time>2018-07-24T09:58:54Z</time>
      </trkpt>
      <trkpt lat="46.0122" lon="4.76059">
        <ele>206</ele>
        <time>2018-07-24T09:58:55Z</time>
      </trkpt>
      <trkpt lat="46.01212" lon="4.76058">
        <ele>206</ele>
        <time>2018-07-24T09:58:57Z</time>
      </trkpt>
      <trkpt lat="46.01208" lon="4.76057">
        <ele>206</ele>
        <time>2018-07-24T09:58:58Z</time>
      </trkpt>
      <trkpt lat="46.012" lon="4.76055">
        <ele>206</ele>
        <time>2018-07-24T09:59:00Z</time>
      </trkpt>
      <trkpt lat="46.01195" lon="4.76053">
        <ele>206</ele>
        <time>2018-07-24T09:59:01Z</time>
      </trkpt>
      <trkpt lat="46.0119" lon="4.76052">
        <ele>206</ele>
        <time>2018-07-24T09:59:02Z</time>
      </trkpt>
      <trkpt lat="46.01185" lon="4.7605">
        <ele>207</ele>
        <time>2018-07-24T09:59:03Z</time>
      </trkpt>
      <trkpt lat="46.01177" lon="4.76048">
        <ele>207</ele>
        <time>2018-07-24T09:59:05Z</time>
      </trkpt>
      <trkpt lat="46.01176" lon="4.76048">
        <ele>207</ele>
        <time>2018-07-24T09:59:06Z</time>
      </trkpt>
      <trkpt lat="46.01168" lon="4.76047">
        <ele>207</ele>
        <time>2018-07-24T09:59:09Z</time>
      </trkpt>
      <trkpt lat="46.01165" lon="4.76047">
        <ele>208</ele>
        <time>2018-07-24T09:59:10Z</time>
      </trkpt>
      <trkpt lat="46.01156" lon="4.76045">
        <ele>208</ele>
        <time>2018-07-24T09:59:11Z</time>
      </trkpt>
      <trkpt lat="46.01147" lon="4.76045">
        <ele>208</ele>
        <time>2018-07-24T09:59:13Z</time>
      </trkpt>
      <trkpt lat="46.01143" lon="4.76045">
        <ele>208</ele>
        <time>2018-07-24T09:59:14Z</time>
      </trkpt>
      <trkpt lat="46.01139" lon="4.76046">
        <ele>208</ele>
        <time>2018-07-24T09:59:15Z</time>
      </trkpt>
      <trkpt lat="46.01134" lon="4.76047">
        <ele>208</ele>
        <time>2018-07-24T09:59:16Z</time>
      </trkpt>
      <trkpt lat="46.01126" lon="4.76048">
        <ele>208</ele>
        <time>2018-07-24T09:59:18Z</time>
      </trkpt>
      <trkpt lat="46.01121" lon="4.7605">
        <ele>208</ele>
        <time>2018-07-24T09:59:19Z</time>
      </trkpt>
      <trkpt lat="46.01112" lon="4.7605">
        <ele>208</ele>
        <time>2018-07-24T09:59:21Z</time>
      </trkpt>
      <trkpt lat="46.01108" lon="4.76051">
        <ele>208</ele>
        <time>2018-07-24T09:59:22Z</time>
      </trkpt>
      <trkpt lat="46.011" lon="4.76052">
        <ele>208</ele>
        <time>2018-07-24T09:59:24Z</time>
      </trkpt>
      <trkpt lat="46.01096" lon="4.76052">
        <ele>208</ele>
        <time>2018-07-24T09:59:25Z</time>
      </trkpt>
      <trkpt lat="46.01088" lon="4.76054">
        <ele>208</ele>
        <time>2018-07-24T09:59:27Z</time>
      </trkpt>
      <trkpt lat="46.01084" lon="4.76055">
        <ele>208</ele>
        <time>2018-07-24T09:59:28Z</time>
      </trkpt>
      <trkpt lat="46.01076" lon="4.76057">
        <ele>209</ele>
        <time>2018-07-24T09:59:32Z</time>
      </trkpt>
      <trkpt lat="46.01069" lon="4.76058">
        <ele>209</ele>
        <time>2018-07-24T09:59:33Z</time>
      </trkpt>
      <trkpt lat="46.01062" lon="4.76059">
        <ele>209</ele>
        <time>2018-07-24T09:59:36Z</time>
      </trkpt>
      <trkpt lat="46.01054" lon="4.7606">
        <ele>210</ele>
        <time>2018-07-24T09:59:37Z</time>
      </trkpt>
      <trkpt lat="46.01046" lon="4.76059">
        <ele>210</ele>
        <time>2018-07-24T09:59:40Z</time>
      </trkpt>
      <trkpt lat="46.01044" lon="4.76059">
        <ele>210</ele>
        <time>2018-07-24T09:59:41Z</time>
      </trkpt>
      <trkpt lat="46.01036" lon="4.76059">
        <ele>210</ele>
        <time>2018-07-24T09:59:42Z</time>
      </trkpt>
      <trkpt lat="46.01034" lon="4.76059">
        <ele>210</ele>
        <time>2018-07-24T09:59:43Z</time>
      </trkpt>
      <trkpt lat="46.01032" lon="4.76059">
        <ele>210</ele>
        <time>2018-07-24T09:59:44Z</time>
      </trkpt>
      <trkpt lat="46.01025" lon="4.7606">
        <ele>210</ele>
        <time>2018-07-24T09:59:45Z</time>
      </trkpt>
      <trkpt lat="46.01017" lon="4.76061">
        <ele>210</ele>
        <time>2018-07-24T09:59:48Z</time>
      </trkpt>
      <trkpt lat="46.01011" lon="4.76062">
        <ele>210</ele>
        <time>2018-07-24T09:59:49Z</time>
      </trkpt>
      <trkpt lat="46.01004" lon="4.76061">
        <ele>210</ele>
        <time>2018-07-24T09:59:52Z</time>
      </trkpt>
      <trkpt lat="46.00998" lon="4.76061">
        <ele>212</ele>
        <time>2018-07-24T09:59:53Z</time>
      </trkpt>
      <trkpt lat="46.00991" lon="4.76061">
        <ele>212</ele>
        <time>2018-07-24T09:59:55Z</time>
      </trkpt>
      <trkpt lat="46.00989" lon="4.76061">
        <ele>212</ele>
        <time>2018-07-24T09:59:56Z</time>
      </trkpt>
      <trkpt lat="46.00981" lon="4.76062">
        <ele>212</ele>
        <time>2018-07-24T09:59:58Z</time>
      </trkpt>
      <trkpt lat="46.00979" lon="4.76062">
        <ele>212</ele>
        <time>2018-07-24T09:59:59Z</time>
      </trkpt>
      <trkpt lat="46.00972" lon="4.76064">
        <ele>212</ele>
        <time>2018-07-24T10:00:00Z</time>
      </trkpt>
      <trkpt lat="46.00968" lon="4.76065">
        <ele>212</ele>
        <time>2018-07-24T10:00:01Z</time>
      </trkpt>
      <trkpt lat="46.0096" lon="4.76066">
        <ele>212</ele>
        <time>2018-07-24T10:00:03Z</time>
      </trkpt>
      <trkpt lat="46.00956" lon="4.76067">
        <ele>212</ele>
        <time>2018-07-24T10:00:04Z</time>
      </trkpt>
      <trkpt lat="46.00948" lon="4.76069">
        <ele>212</ele>
        <time>2018-07-24T10:00:06Z</time>
      </trkpt>
      <trkpt lat="46.00944" lon="4.76071">
        <ele>212</ele>
        <time>2018-07-24T10:00:07Z</time>
      </trkpt>
      <trkpt lat="46.00936" lon="4.76074">
        <ele>212</ele>
        <time>2018-07-24T10:00:09Z</time>
      </trkpt>
      <trkpt lat="46.00932" lon="4.76075">
        <ele>212</ele>
        <time>2018-07-24T10:00:10Z</time>
      </trkpt>
      <trkpt lat="46.00924" lon="4.76077">
        <ele>213</ele>
        <time>2018-07-24T10:00:13Z</time>
      </trkpt>
      <trkpt lat="46.00922" lon="4.76078">
        <ele>213</ele>
        <time>2018-07-24T10:00:14Z</time>
      </trkpt>
      <trkpt lat="46.00914" lon="4.7608">
        <ele>213</ele>
        <time>2018-07-24T10:00:15Z</time>
      </trkpt>
      <trkpt lat="46.00911" lon="4.76082">
        <ele>213</ele>
        <time>2018-07-24T10:00:16Z</time>
      </trkpt>
      <trkpt lat="46.00904" lon="4.76085">
        <ele>214</ele>
        <time>2018-07-24T10:00:19Z</time>
      </trkpt>
      <trkpt lat="46.00901" lon="4.76086">
        <ele>214</ele>
        <time>2018-07-24T10:00:20Z</time>
      </trkpt>
      <trkpt lat="46.00895" lon="4.76088">
        <ele>214</ele>
        <time>2018-07-24T10:00:22Z</time>
      </trkpt>
      <trkpt lat="46.00891" lon="4.76088">
        <ele>214</ele>
        <time>2018-07-24T10:00:23Z</time>
      </trkpt>
      <trkpt lat="46.00885" lon="4.7609">
        <ele>215</ele>
        <time>2018-07-24T10:00:25Z</time>
      </trkpt>
      <trkpt lat="46.00882" lon="4.7609">
        <ele>215</ele>
        <time>2018-07-24T10:00:26Z</time>
      </trkpt>
      <trkpt lat="46.00872" lon="4.76093">
        <ele>215</ele>
        <time>2018-07-24T10:00:27Z</time>
      </trkpt>
      <trkpt lat="46.00864" lon="4.76096">
        <ele>215</ele>
        <time>2018-07-24T10:00:31Z</time>
      </trkpt>
      <trkpt lat="46.00861" lon="4.76097">
        <ele>215</ele>
        <time>2018-07-24T10:00:32Z</time>
      </trkpt>
      <trkpt lat="46.00854" lon="4.76099">
        <ele>215</ele>
        <time>2018-07-24T10:00:35Z</time>
      </trkpt>
      <trkpt lat="46.00851" lon="4.761">
        <ele>216</ele>
        <time>2018-07-24T10:00:36Z</time>
      </trkpt>
      <trkpt lat="46.00842" lon="4.76101">
        <ele>216</ele>
        <time>2018-07-24T10:00:39Z</time>
      </trkpt>
      <trkpt lat="46.0084" lon="4.76101">
        <ele>216</ele>
        <time>2018-07-24T10:00:40Z</time>
      </trkpt>
      <trkpt lat="46.00831" lon="4.76102">
        <ele>217</ele>
        <time>2018-07-24T10:00:43Z</time>
      </trkpt>
      <trkpt lat="46.00829" lon="4.76102">
        <ele>217</ele>
        <time>2018-07-24T10:00:44Z</time>
      </trkpt>
      <trkpt lat="46.00821" lon="4.76103">
        <ele>218</ele>
        <time>2018-07-24T10:00:47Z</time>
      </trkpt>
      <trkpt lat="46.00818" lon="4.76103">
        <ele>218</ele>
        <time>2018-07-24T10:00:48Z</time>
      </trkpt>
      <trkpt lat="46.00809" lon="4.76105">
        <ele>218</ele>
        <time>2018-07-24T10:00:51Z</time>
      </trkpt>
      <trkpt lat="46.00806" lon="4.76105">
        <ele>218</ele>
        <time>2018-07-24T10:00:52Z</time>
      </trkpt>
      <trkpt lat="46.00798" lon="4.76104">
        <ele>218</ele>
        <time>2018-07-24T10:00:55Z</time>
      </trkpt>
      <trkpt lat="46.00795" lon="4.76104">
        <ele>218</ele>
        <time>2018-07-24T10:00:56Z</time>
      </trkpt>
      <trkpt lat="46.00787" lon="4.76103">
        <ele>219</ele>
        <time>2018-07-24T10:00:59Z</time>
      </trkpt>
      <trkpt lat="46.00784" lon="4.76103">
        <ele>219</ele>
        <time>2018-07-24T10:01:00Z</time>
      </trkpt>
      <trkpt lat="46.00776" lon="4.76104">
        <ele>219</ele>
        <time>2018-07-24T10:01:03Z</time>
      </trkpt>
      <trkpt lat="46.00774" lon="4.76105">
        <ele>219</ele>
        <time>2018-07-24T10:01:04Z</time>
      </trkpt>
      <trkpt lat="46.00765" lon="4.76105">
        <ele>219</ele>
        <time>2018-07-24T10:01:07Z</time>
      </trkpt>
      <trkpt lat="46.00762" lon="4.76105">
        <ele>219</ele>
        <time>2018-07-24T10:01:08Z</time>
      </trkpt>
      <trkpt lat="46.00754" lon="4.76106">
        <ele>219</ele>
        <time>2018-07-24T10:01:11Z</time>
      </trkpt>
      <trkpt lat="46.00752" lon="4.76107">
        <ele>219</ele>
        <time>2018-07-24T10:01:12Z</time>
      </trkpt>
      <trkpt lat="46.00745" lon="4.76108">
        <ele>223</ele>
        <time>2018-07-24T10:01:15Z</time>
      </trkpt>
      <trkpt lat="46.00743" lon="4.76108">
        <ele>223</ele>
        <time>2018-07-24T10:01:16Z</time>
      </trkpt>
      <trkpt lat="46.00735" lon="4.76109">
        <ele>223</ele>
        <time>2018-07-24T10:01:19Z</time>
      </trkpt>
      <trkpt lat="46.00733" lon="4.76109">
        <ele>223</ele>
        <time>2018-07-24T10:01:20Z</time>
      </trkpt>
      <trkpt lat="46.00726" lon="4.76108">
        <ele>223</ele>
        <time>2018-07-24T10:01:23Z</time>
      </trkpt>
      <trkpt lat="46.00724" lon="4.76109">
        <ele>224</ele>
        <time>2018-07-24T10:01:24Z</time>
      </trkpt>
      <trkpt lat="46.00715" lon="4.76109">
        <ele>224</ele>
        <time>2018-07-24T10:01:28Z</time>
      </trkpt>
      <trkpt lat="46.00713" lon="4.76108">
        <ele>224</ele>
        <time>2018-07-24T10:01:29Z</time>
      </trkpt>
      <trkpt lat="46.00705" lon="4.76107">
        <ele>224</ele>
        <time>2018-07-24T10:01:33Z</time>
      </trkpt>
      <trkpt lat="46.00704" lon="4.76106">
        <ele>225</ele>
        <time>2018-07-24T10:01:34Z</time>
      </trkpt>
      <trkpt lat="46.00695" lon="4.76106">
        <ele>225</ele>
        <time>2018-07-24T10:01:40Z</time>
      </trkpt>
      <trkpt lat="46.00693" lon="4.76106">
        <ele>225</ele>
        <time>2018-07-24T10:01:41Z</time>
      </trkpt>
      <trkpt lat="46.00685" lon="4.76108">
        <ele>225</ele>
        <time>2018-07-24T10:01:47Z</time>
      </trkpt>
      <trkpt lat="46.00683" lon="4.76109">
        <ele>225</ele>
        <time>2018-07-24T10:01:48Z</time>
      </trkpt>
      <trkpt lat="46.00675" lon="4.76112">
        <ele>226</ele>
        <time>2018-07-24T10:01:52Z</time>
      </trkpt>
      <trkpt lat="46.00672" lon="4.76113">
        <ele>226</ele>
        <time>2018-07-24T10:01:53Z</time>
      </trkpt>
      <trkpt lat="46.00666" lon="4.76115">
        <ele>228</ele>
        <time>2018-07-24T10:01:56Z</time>
      </trkpt>
      <trkpt lat="46.00663" lon="4.76115">
        <ele>228</ele>
        <time>2018-07-24T10:01:57Z</time>
      </trkpt>
      <trkpt lat="46.00655" lon="4.76116">
        <ele>228</ele>
        <time>2018-07-24T10:02:01Z</time>
      </trkpt>
      <trkpt lat="46.00653" lon="4.76116">
        <ele>228</ele>
        <time>2018-07-24T10:02:02Z</time>
      </trkpt>
      <trkpt lat="46.00645" lon="4.76111">
        <ele>228</ele>
        <time>2018-07-24T10:02:06Z</time>
      </trkpt>
      <trkpt lat="46.00643" lon="4.7611">
        <ele>228</ele>
        <time>2018-07-24T10:02:07Z</time>
      </trkpt>
      <trkpt lat="46.00634" lon="4.76108">
        <ele>227</ele>
        <time>2018-07-24T10:02:11Z</time>
      </trkpt>
      <trkpt lat="46.00632" lon="4.76109">
        <ele>227</ele>
        <time>2018-07-24T10:02:12Z</time>
      </trkpt>
      <trkpt lat="46.00626" lon="4.76116">
        <ele>228</ele>
        <time>2018-07-24T10:02:15Z</time>
      </trkpt>
      <trkpt lat="46.00626" lon="4.7612">
        <ele>228</ele>
        <time>2018-07-24T10:02:16Z</time>
      </trkpt>
      <trkpt lat="46.00625" lon="4.76131">
        <ele>228</ele>
        <time>2018-07-24T10:02:19Z</time>
      </trkpt>
      <trkpt lat="46.00626" lon="4.76135">
        <ele>228</ele>
        <time>2018-07-24T10:02:20Z</time>
      </trkpt>
      <trkpt lat="46.00626" lon="4.76146">
        <ele>228</ele>
        <time>2018-07-24T10:02:23Z</time>
      </trkpt>
      <trkpt lat="46.00626" lon="4.7615">
        <ele>228</ele>
        <time>2018-07-24T10:02:24Z</time>
      </trkpt>
      <trkpt lat="46.00626" lon="4.76158">
        <ele>228</ele>
        <time>2018-07-24T10:02:26Z</time>
      </trkpt>
      <trkpt lat="46.00625" lon="4.76172">
        <ele>230</ele>
        <time>2018-07-24T10:02:27Z</time>
      </trkpt>
      <trkpt lat="46.00625" lon="4.76183">
        <ele>230</ele>
        <time>2018-07-24T10:02:31Z</time>
      </trkpt>
      <trkpt lat="46.00625" lon="4.76187">
        <ele>230</ele>
        <time>2018-07-24T10:02:32Z</time>
      </trkpt>
      <trkpt lat="46.00621" lon="4.76195">
        <ele>230</ele>
        <time>2018-07-24T10:02:35Z</time>
      </trkpt>
      <trkpt lat="46.00614" lon="4.76199">
        <ele>230</ele>
        <time>2018-07-24T10:02:36Z</time>
      </trkpt>
      <trkpt lat="46.0061" lon="4.76194">
        <ele>230</ele>
        <time>2018-07-24T10:02:37Z</time>
      </trkpt>
      <trkpt lat="46.00605" lon="4.76193">
        <ele>230</ele>
        <time>2018-07-24T10:02:38Z</time>
      </trkpt>
      <trkpt lat="46.00601" lon="4.76192">
        <ele>230</ele>
        <time>2018-07-24T10:02:39Z</time>
      </trkpt>
      <trkpt lat="46.00596" lon="4.7619">
        <ele>230</ele>
        <time>2018-07-24T10:02:40Z</time>
      </trkpt>
      <trkpt lat="46.00589" lon="4.76188">
        <ele>230</ele>
        <time>2018-07-24T10:02:41Z</time>
      </trkpt>
      <trkpt lat="46.00583" lon="4.76186">
        <ele>230</ele>
        <time>2018-07-24T10:02:42Z</time>
      </trkpt>
      <trkpt lat="46.00579" lon="4.76183">
        <ele>230</ele>
        <time>2018-07-24T10:02:43Z</time>
      </trkpt>
      <trkpt lat="46.00573" lon="4.76182">
        <ele>230</ele>
        <time>2018-07-24T10:02:44Z</time>
      </trkpt>
      <trkpt lat="46.00567" lon="4.7618">
        <ele>230</ele>
        <time>2018-07-24T10:02:45Z</time>
      </trkpt>
      <trkpt lat="46.0056" lon="4.76179">
        <ele>230</ele>
        <time>2018-07-24T10:02:46Z</time>
      </trkpt>
      <trkpt lat="46.00555" lon="4.76177">
        <ele>230</ele>
        <time>2018-07-24T10:02:47Z</time>
      </trkpt>
      <trkpt lat="46.00549" lon="4.76176">
        <ele>230</ele>
        <time>2018-07-24T10:02:48Z</time>
      </trkpt>
      <trkpt lat="46.00543" lon="4.76173">
        <ele>230</ele>
        <time>2018-07-24T10:02:49Z</time>
      </trkpt>
      <trkpt lat="46.00537" lon="4.76169">
        <ele>230</ele>
        <time>2018-07-24T10:02:50Z</time>
      </trkpt>
      <trkpt lat="46.0053" lon="4.76164">
        <ele>228</ele>
        <time>2018-07-24T10:02:51Z</time>
      </trkpt>
      <trkpt lat="46.00523" lon="4.76157">
        <ele>228</ele>
        <time>2018-07-24T10:02:52Z</time>
      </trkpt>
      <trkpt lat="46.00516" lon="4.7615">
        <ele>228</ele>
        <time>2018-07-24T10:02:53Z</time>
      </trkpt>
      <trkpt lat="46.00509" lon="4.76142">
        <ele>228</ele>
        <time>2018-07-24T10:02:54Z</time>
      </trkpt>
      <trkpt lat="46.00502" lon="4.76135">
        <ele>227</ele>
        <time>2018-07-24T10:02:55Z</time>
      </trkpt>
      <trkpt lat="46.00495" lon="4.76127">
        <ele>227</ele>
        <time>2018-07-24T10:02:56Z</time>
      </trkpt>
      <trkpt lat="46.00489" lon="4.76119">
        <ele>227</ele>
        <time>2018-07-24T10:02:57Z</time>
      </trkpt>
      <trkpt lat="46.00481" lon="4.76111">
        <ele>227</ele>
        <time>2018-07-24T10:02:58Z</time>
      </trkpt>
      <trkpt lat="46.00473" lon="4.76104">
        <ele>227</ele>
        <time>2018-07-24T10:02:59Z</time>
      </trkpt>
      <trkpt lat="46.00464" lon="4.76097">
        <ele>227</ele>
        <time>2018-07-24T10:03:00Z</time>
      </trkpt>
      <trkpt lat="46.00455" lon="4.7609">
        <ele>227</ele>
        <time>2018-07-24T10:03:01Z</time>
      </trkpt>
      <trkpt lat="46.00448" lon="4.76085">
        <ele>227</ele>
        <time>2018-07-24T10:03:02Z</time>
      </trkpt>
      <trkpt lat="46.0044" lon="4.76081">
        <ele>224</ele>
        <time>2018-07-24T10:03:03Z</time>
      </trkpt>
      <trkpt lat="46.0043" lon="4.76078">
        <ele>225</ele>
        <time>2018-07-24T10:03:04Z</time>
      </trkpt>
      <trkpt lat="46.00421" lon="4.76075">
        <ele>225</ele>
        <time>2018-07-24T10:03:05Z</time>
      </trkpt>
      <trkpt lat="46.00412" lon="4.76073">
        <ele>226</ele>
        <time>2018-07-24T10:03:06Z</time>
      </trkpt>
      <trkpt lat="46.00404" lon="4.76073">
        <ele>226</ele>
        <time>2018-07-24T10:03:07Z</time>
      </trkpt>
      <trkpt lat="46.00396" lon="4.76073">
        <ele>226</ele>
        <time>2018-07-24T10:03:08Z</time>
      </trkpt>
      <trkpt lat="46.00391" lon="4.76073">
        <ele>226</ele>
        <time>2018-07-24T10:03:09Z</time>
      </trkpt>
      <trkpt lat="46.00384" lon="4.76073">
        <ele>226</ele>
        <time>2018-07-24T10:03:10Z</time>
      </trkpt>
      <trkpt lat="46.00378" lon="4.76073">
        <ele>226</ele>
        <time>2018-07-24T10:03:11Z</time>
      </trkpt>
      <trkpt lat="46.0037" lon="4.76069">
        <ele>226</ele>
        <time>2018-07-24T10:03:12Z</time>
      </trkpt>
      <trkpt lat="46.00365" lon="4.76059">
        <ele>226</ele>
        <time>2018-07-24T10:03:13Z</time>
      </trkpt>
      <trkpt lat="46.00369" lon="4.76051">
        <ele>226</ele>
        <time>2018-07-24T10:03:14Z</time>
      </trkpt>
      <trkpt lat="46.00373" lon="4.7604">
        <ele>225</ele>
        <time>2018-07-24T10:03:15Z</time>
      </trkpt>
      <trkpt lat="46.00379" lon="4.76035">
        <ele>225</ele>
        <time>2018-07-24T10:03:16Z</time>
      </trkpt>
      <trkpt lat="46.00388" lon="4.76029">
        <ele>225</ele>
        <time>2018-07-24T10:03:17Z</time>
      </trkpt>
      <trkpt lat="46.00392" lon="4.76026">
        <ele>224</ele>
        <time>2018-07-24T10:03:18Z</time>
      </trkpt>
      <trkpt lat="46.00398" lon="4.76022">
        <ele>224</ele>
        <time>2018-07-24T10:03:19Z</time>
      </trkpt>
      <trkpt lat="46.00404" lon="4.76018">
        <ele>224</ele>
        <time>2018-07-24T10:03:20Z</time>
      </trkpt>
      <trkpt lat="46.00411" lon="4.76011">
        <ele>223</ele>
        <time>2018-07-24T10:03:21Z</time>
      </trkpt>
      <trkpt lat="46.00416" lon="4.76008">
        <ele>222</ele>
        <time>2018-07-24T10:03:22Z</time>
      </trkpt>
      <trkpt lat="46.00422" lon="4.76005">
        <ele>221</ele>
        <time>2018-07-24T10:03:23Z</time>
      </trkpt>
      <trkpt lat="46.00431" lon="4.75997">
        <ele>220</ele>
        <time>2018-07-24T10:03:24Z</time>
      </trkpt>
      <trkpt lat="46.00437" lon="4.75991">
        <ele>220</ele>
        <time>2018-07-24T10:03:25Z</time>
      </trkpt>
      <trkpt lat="46.00444" lon="4.75985">
        <ele>220</ele>
        <time>2018-07-24T10:03:26Z</time>
      </trkpt>
      <trkpt lat="46.00448" lon="4.75975">
        <ele>219</ele>
        <time>2018-07-24T10:03:27Z</time>
      </trkpt>
      <trkpt lat="46.00451" lon="4.75963">
        <ele>219</ele>
        <time>2018-07-24T10:03:28Z</time>
      </trkpt>
      <trkpt lat="46.00452" lon="4.75946">
        <ele>219</ele>
        <time>2018-07-24T10:03:29Z</time>
      </trkpt>
      <trkpt lat="46.00452" lon="4.75932">
        <ele>218</ele>
        <time>2018-07-24T10:03:30Z</time>
      </trkpt>
      <trkpt lat="46.00449" lon="4.75921">
        <ele>218</ele>
        <time>2018-07-24T10:03:31Z</time>
      </trkpt>
      <trkpt lat="46.00443" lon="4.75908">
        <ele>217</ele>
        <time>2018-07-24T10:03:32Z</time>
      </trkpt>
      <trkpt lat="46.00438" lon="4.75896">
        <ele>217</ele>
        <time>2018-07-24T10:03:33Z</time>
      </trkpt>
      <trkpt lat="46.00432" lon="4.75886">
        <ele>217</ele>
        <time>2018-07-24T10:03:34Z</time>
      </trkpt>
      <trkpt lat="46.00426" lon="4.75874">
        <ele>217</ele>
        <time>2018-07-24T10:03:35Z</time>
      </trkpt>
      <trkpt lat="46.0042" lon="4.75863">
        <ele>216</ele>
        <time>2018-07-24T10:03:36Z</time>
      </trkpt>
      <trkpt lat="46.00415" lon="4.75853">
        <ele>214</ele>
        <time>2018-07-24T10:03:37Z</time>
      </trkpt>
      <trkpt lat="46.00408" lon="4.75841">
        <ele>214</ele>
        <time>2018-07-24T10:03:38Z</time>
      </trkpt>
      <trkpt lat="46.00401" lon="4.75831">
        <ele>213</ele>
        <time>2018-07-24T10:03:39Z</time>
      </trkpt>
      <trkpt lat="46.00395" lon="4.7582">
        <ele>213</ele>
        <time>2018-07-24T10:03:40Z</time>
      </trkpt>
      <trkpt lat="46.00388" lon="4.75811">
        <ele>213</ele>
        <time>2018-07-24T10:03:41Z</time>
      </trkpt>
      <trkpt lat="46.00382" lon="4.75801">
        <ele>213</ele>
        <time>2018-07-24T10:03:42Z</time>
      </trkpt>
      <trkpt lat="46.00376" lon="4.75791">
        <ele>213</ele>
        <time>2018-07-24T10:03:43Z</time>
      </trkpt>
      <trkpt lat="46.0037" lon="4.7578">
        <ele>213</ele>
        <time>2018-07-24T10:03:44Z</time>
      </trkpt>
      <trkpt lat="46.00364" lon="4.7577">
        <ele>212</ele>
        <time>2018-07-24T10:03:45Z</time>
      </trkpt>
      <trkpt lat="46.00358" lon="4.7576">
        <ele>212</ele>
        <time>2018-07-24T10:03:46Z</time>
      </trkpt>
      <trkpt lat="46.00352" lon="4.75749">
        <ele>210</ele>
        <time>2018-07-24T10:03:47Z</time>
      </trkpt>
      <trkpt lat="46.00344" lon="4.75741">
        <ele>210</ele>
        <time>2018-07-24T10:03:48Z</time>
      </trkpt>
      <trkpt lat="46.00338" lon="4.7573">
        <ele>210</ele>
        <time>2018-07-24T10:03:49Z</time>
      </trkpt>
      <trkpt lat="46.00332" lon="4.75719">
        <ele>208</ele>
        <time>2018-07-24T10:03:50Z</time>
      </trkpt>
      <trkpt lat="46.00326" lon="4.75709">
        <ele>208</ele>
        <time>2018-07-24T10:03:51Z</time>
      </trkpt>
      <trkpt lat="46.00313" lon="4.75699">
        <ele>208</ele>
        <time>2018-07-24T10:03:52Z</time>
      </trkpt>
      <trkpt lat="46.00305" lon="4.7569">
        <ele>208</ele>
        <time>2018-07-24T10:03:53Z</time>
      </trkpt>
      <trkpt lat="46.00303" lon="4.75677">
        <ele>208</ele>
        <time>2018-07-24T10:03:54Z</time>
      </trkpt>
      <trkpt lat="46.00301" lon="4.75667">
        <ele>208</ele>
        <time>2018-07-24T10:03:55Z</time>
      </trkpt>
      <trkpt lat="46.0029" lon="4.75655">
        <ele>206</ele>
        <time>2018-07-24T10:03:56Z</time>
      </trkpt>
      <trkpt lat="46.00283" lon="4.75645">
        <ele>207</ele>
        <time>2018-07-24T10:03:57Z</time>
      </trkpt>
      <trkpt lat="46.00276" lon="4.75633">
        <ele>206</ele>
        <time>2018-07-24T10:03:58Z</time>
      </trkpt>
      <trkpt lat="46.00269" lon="4.75623">
        <ele>206</ele>
        <time>2018-07-24T10:03:59Z</time>
      </trkpt>
      <trkpt lat="46.00261" lon="4.75613">
        <ele>206</ele>
        <time>2018-07-24T10:04:00Z</time>
      </trkpt>
      <trkpt lat="46.00254" lon="4.75602">
        <ele>205</ele>
        <time>2018-07-24T10:04:01Z</time>
      </trkpt>
      <trkpt lat="46.00246" lon="4.75592">
        <ele>207</ele>
        <time>2018-07-24T10:04:02Z</time>
      </trkpt>
      <trkpt lat="46.0024" lon="4.75582">
        <ele>205</ele>
        <time>2018-07-24T10:04:03Z</time>
      </trkpt>
      <trkpt lat="46.00232" lon="4.7557">
        <ele>206</ele>
        <time>2018-07-24T10:04:04Z</time>
      </trkpt>
      <trkpt lat="46.00225" lon="4.75558">
        <ele>206</ele>
        <time>2018-07-24T10:04:05Z</time>
      </trkpt>
      <trkpt lat="46.00218" lon="4.75544">
        <ele>206</ele>
        <time>2018-07-24T10:04:06Z</time>
      </trkpt>
      <trkpt lat="46.00217" lon="4.75528">
        <ele>205</ele>
        <time>2018-07-24T10:04:07Z</time>
      </trkpt>
      <trkpt lat="46.00215" lon="4.75513">
        <ele>204</ele>
        <time>2018-07-24T10:04:08Z</time>
      </trkpt>
      <trkpt lat="46.00214" lon="4.75498">
        <ele>198</ele>
        <time>2018-07-24T10:04:09Z</time>
      </trkpt>
      <trkpt lat="46.00212" lon="4.75482">
        <ele>198</ele>
        <time>2018-07-24T10:04:10Z</time>
      </trkpt>
      <trkpt lat="46.00215" lon="4.75467">
        <ele>198</ele>
        <time>2018-07-24T10:04:11Z</time>
      </trkpt>
      <trkpt lat="46.00215" lon="4.7545">
        <ele>197</ele>
        <time>2018-07-24T10:04:12Z</time>
      </trkpt>
      <trkpt lat="46.00215" lon="4.75433">
        <ele>196</ele>
        <time>2018-07-24T10:04:13Z</time>
      </trkpt>
      <trkpt lat="46.00216" lon="4.75419">
        <ele>196</ele>
        <time>2018-07-24T10:04:14Z</time>
      </trkpt>
      <trkpt lat="46.00214" lon="4.75404">
        <ele>192</ele>
        <time>2018-07-24T10:04:15Z</time>
      </trkpt>
      <trkpt lat="46.00214" lon="4.75389">
        <ele>192</ele>
        <time>2018-07-24T10:04:16Z</time>
      </trkpt>
      <trkpt lat="46.00214" lon="4.75374">
        <ele>191</ele>
        <time>2018-07-24T10:04:17Z</time>
      </trkpt>
      <trkpt lat="46.00215" lon="4.75359">
        <ele>191</ele>
        <time>2018-07-24T10:04:18Z</time>
      </trkpt>
      <trkpt lat="46.00215" lon="4.75344">
        <ele>190</ele>
        <time>2018-07-24T10:04:19Z</time>
      </trkpt>
      <trkpt lat="46.00215" lon="4.75329">
        <ele>186</ele>
        <time>2018-07-24T10:04:20Z</time>
      </trkpt>
      <trkpt lat="46.00215" lon="4.75314">
        <ele>186</ele>
        <time>2018-07-24T10:04:21Z</time>
      </trkpt>
      <trkpt lat="46.00216" lon="4.75298">
        <ele>185</ele>
        <time>2018-07-24T10:04:22Z</time>
      </trkpt>
      <trkpt lat="46.00215" lon="4.75283">
        <ele>185</ele>
        <time>2018-07-24T10:04:23Z</time>
      </trkpt>
      <trkpt lat="46.00214" lon="4.75267">
        <ele>184</ele>
        <time>2018-07-24T10:04:24Z</time>
      </trkpt>
      <trkpt lat="46.00215" lon="4.75254">
        <ele>184</ele>
        <time>2018-07-24T10:04:25Z</time>
      </trkpt>
      <trkpt lat="46.00216" lon="4.7524">
        <ele>180</ele>
        <time>2018-07-24T10:04:26Z</time>
      </trkpt>
      <trkpt lat="46.00216" lon="4.75225">
        <ele>180</ele>
        <time>2018-07-24T10:04:27Z</time>
      </trkpt>
      <trkpt lat="46.00217" lon="4.75214">
        <ele>180</ele>
        <time>2018-07-24T10:04:28Z</time>
      </trkpt>
      <trkpt lat="46.00217" lon="4.75202">
        <ele>179</ele>
        <time>2018-07-24T10:04:29Z</time>
      </trkpt>
      <trkpt lat="46.00217" lon="4.7519">
        <ele>179</ele>
        <time>2018-07-24T10:04:30Z</time>
      </trkpt>
      <trkpt lat="46.00215" lon="4.75178">
        <ele>179</ele>
        <time>2018-07-24T10:04:31Z</time>
      </trkpt>
      <trkpt lat="46.00215" lon="4.75168">
        <ele>179</ele>
        <time>2018-07-24T10:04:32Z</time>
      </trkpt>
      <trkpt lat="46.00214" lon="4.75158">
        <ele>177</ele>
        <time>2018-07-24T10:04:33Z</time>
      </trkpt>
      <trkpt lat="46.00214" lon="4.75149">
        <ele>177</ele>
        <time>2018-07-24T10:04:34Z</time>
      </trkpt>
      <trkpt lat="46.00216" lon="4.75141">
        <ele>177</ele>
        <time>2018-07-24T10:04:35Z</time>
      </trkpt>
      <trkpt lat="46.00217" lon="4.75129">
        <ele>176</ele>
        <time>2018-07-24T10:04:37Z</time>
      </trkpt>
      <trkpt lat="46.00218" lon="4.75128">
        <ele>176</ele>
        <time>2018-07-24T10:04:38Z</time>
      </trkpt>
      <trkpt lat="46.0022" lon="4.75116">
        <ele>176</ele>
        <time>2018-07-24T10:04:51Z</time>
      </trkpt>
      <trkpt lat="46.0022" lon="4.75115">
        <ele>176</ele>
        <time>2018-07-24T10:04:52Z</time>
      </trkpt>
      <trkpt lat="46.00213" lon="4.75108">
        <ele>176</ele>
        <time>2018-07-24T10:04:55Z</time>
      </trkpt>
      <trkpt lat="46.00211" lon="4.75108">
        <ele>176</ele>
        <time>2018-07-24T10:04:56Z</time>
      </trkpt>
      <trkpt lat="46.00201" lon="4.75105">
        <ele>176</ele>
        <time>2018-07-24T10:04:57Z</time>
      </trkpt>
      <trkpt lat="46.00194" lon="4.75105">
        <ele>176</ele>
        <time>2018-07-24T10:04:59Z</time>
      </trkpt>
      <trkpt lat="46.00192" lon="4.75105">
        <ele>176</ele>
        <time>2018-07-24T10:05:00Z</time>
      </trkpt>
      <trkpt lat="46.00178" lon="4.75102">
        <ele>176</ele>
        <time>2018-07-24T10:05:01Z</time>
      </trkpt>
      <trkpt lat="46.0017" lon="4.75107">
        <ele>176</ele>
        <time>2018-07-24T10:05:03Z</time>
      </trkpt>
      <trkpt lat="46.00165" lon="4.75106">
        <ele>175</ele>
        <time>2018-07-24T10:05:04Z</time>
      </trkpt>
      <trkpt lat="46.0016" lon="4.75105">
        <ele>175</ele>
        <time>2018-07-24T10:05:05Z</time>
      </trkpt>
      <trkpt lat="46.00155" lon="4.75105">
        <ele>175</ele>
        <time>2018-07-24T10:05:06Z</time>
      </trkpt>
      <trkpt lat="46.00149" lon="4.75106">
        <ele>175</ele>
        <time>2018-07-24T10:05:07Z</time>
      </trkpt>
      <trkpt lat="46.00145" lon="4.75103">
        <ele>175</ele>
        <time>2018-07-24T10:05:08Z</time>
      </trkpt>
      <trkpt lat="46.0014" lon="4.75103">
        <ele>175</ele>
        <time>2018-07-24T10:05:09Z</time>
      </trkpt>
      <trkpt lat="46.00135" lon="4.75103">
        <ele>175</ele>
        <time>2018-07-24T10:05:10Z</time>
      </trkpt>
      <trkpt lat="46.0013" lon="4.75102">
        <ele>175</ele>
        <time>2018-07-24T10:05:11Z</time>
      </trkpt>
      <trkpt lat="46.00125" lon="4.751">
        <ele>175</ele>
        <time>2018-07-24T10:05:12Z</time>
      </trkpt>
      <trkpt lat="46.0012" lon="4.75101">
        <ele>175</ele>
        <time>2018-07-24T10:05:13Z</time>
      </trkpt>
      <trkpt lat="46.00114" lon="4.75101">
        <ele>175</ele>
        <time>2018-07-24T10:05:14Z</time>
      </trkpt>
      <trkpt lat="46.00109" lon="4.75102">
        <ele>175</ele>
        <time>2018-07-24T10:05:15Z</time>
      </trkpt>
      <trkpt lat="46.00103" lon="4.75101">
        <ele>174</ele>
        <time>2018-07-24T10:05:16Z</time>
      </trkpt>
      <trkpt lat="46.00098" lon="4.75099">
        <ele>174</ele>
        <time>2018-07-24T10:05:17Z</time>
      </trkpt>
      <trkpt lat="46.0009" lon="4.751">
        <ele>174</ele>
        <time>2018-07-24T10:05:18Z</time>
      </trkpt>
      <trkpt lat="46.00084" lon="4.75099">
        <ele>174</ele>
        <time>2018-07-24T10:05:19Z</time>
      </trkpt>
      <trkpt lat="46.00078" lon="4.751">
        <ele>174</ele>
        <time>2018-07-24T10:05:20Z</time>
      </trkpt>
      <trkpt lat="46.00075" lon="4.75101">
        <ele>174</ele>
        <time>2018-07-24T10:05:21Z</time>
      </trkpt>
      <trkpt lat="46.00068" lon="4.75102">
        <ele>174</ele>
        <time>2018-07-24T10:05:22Z</time>
      </trkpt>
      <trkpt lat="46.00061" lon="4.75104">
        <ele>174</ele>
        <time>2018-07-24T10:05:23Z</time>
      </trkpt>
      <trkpt lat="46.00055" lon="4.75105">
        <ele>174</ele>
        <time>2018-07-24T10:05:24Z</time>
      </trkpt>
      <trkpt lat="46.00048" lon="4.75105">
        <ele>174</ele>
        <time>2018-07-24T10:05:25Z</time>
      </trkpt>
      <trkpt lat="46.00043" lon="4.75105">
        <ele>174</ele>
        <time>2018-07-24T10:05:26Z</time>
      </trkpt>
      <trkpt lat="46.00037" lon="4.75104">
        <ele>174</ele>
        <time>2018-07-24T10:05:27Z</time>
      </trkpt>
      <trkpt lat="46.00032" lon="4.75105">
        <ele>174</ele>
        <time>2018-07-24T10:05:28Z</time>
      </trkpt>
      <trkpt lat="46.00026" lon="4.75102">
        <ele>174</ele>
        <time>2018-07-24T10:05:30Z</time>
      </trkpt>
      <trkpt lat="46.0002" lon="4.751">
        <ele>174</ele>
        <time>2018-07-24T10:05:31Z</time>
      </trkpt>
      <trkpt lat="46.00015" lon="4.75102">
        <ele>174</ele>
        <time>2018-07-24T10:05:32Z</time>
      </trkpt>
      <trkpt lat="46.00009" lon="4.75106">
        <ele>174</ele>
        <time>2018-07-24T10:05:33Z</time>
      </trkpt>
      <trkpt lat="46.00003" lon="4.75109">
        <ele>174</ele>
        <time>2018-07-24T10:05:34Z</time>
      </trkpt>
      <trkpt lat="45.99997" lon="4.75113">
        <ele>173</ele>
        <time>2018-07-24T10:05:35Z</time>
      </trkpt>
      <trkpt lat="45.99991" lon="4.75116">
        <ele>173</ele>
        <time>2018-07-24T10:05:36Z</time>
      </trkpt>
      <trkpt lat="45.99985" lon="4.75117">
        <ele>173</ele>
        <time>2018-07-24T10:05:37Z</time>
      </trkpt>
      <trkpt lat="45.99979" lon="4.75121">
        <ele>173</ele>
        <time>2018-07-24T10:05:38Z</time>
      </trkpt>
      <trkpt lat="45.99973" lon="4.75123">
        <ele>173</ele>
        <time>2018-07-24T10:05:39Z</time>
      </trkpt>
      <trkpt lat="45.99967" lon="4.75126">
        <ele>173</ele>
        <time>2018-07-24T10:05:40Z</time>
      </trkpt>
      <trkpt lat="45.99961" lon="4.75129">
        <ele>173</ele>
        <time>2018-07-24T10:05:41Z</time>
      </trkpt>
      <trkpt lat="45.99954" lon="4.75132">
        <ele>173</ele>
        <time>2018-07-24T10:05:42Z</time>
      </trkpt>
      <trkpt lat="45.9995" lon="4.75136">
        <ele>173</ele>
        <time>2018-07-24T10:05:43Z</time>
      </trkpt>
      <trkpt lat="45.99944" lon="4.75139">
        <ele>173</ele>
        <time>2018-07-24T10:05:44Z</time>
      </trkpt>
      <trkpt lat="45.99939" lon="4.7514">
        <ele>173</ele>
        <time>2018-07-24T10:05:45Z</time>
      </trkpt>
      <trkpt lat="45.99934" lon="4.75143">
        <ele>173</ele>
        <time>2018-07-24T10:05:46Z</time>
      </trkpt>
      <trkpt lat="45.99927" lon="4.75144">
        <ele>173</ele>
        <time>2018-07-24T10:05:47Z</time>
      </trkpt>
      <trkpt lat="45.99922" lon="4.75146">
        <ele>173</ele>
        <time>2018-07-24T10:05:48Z</time>
      </trkpt>
      <trkpt lat="45.99918" lon="4.75149">
        <ele>173</ele>
        <time>2018-07-24T10:05:49Z</time>
      </trkpt>
      <trkpt lat="45.99913" lon="4.75152">
        <ele>172</ele>
        <time>2018-07-24T10:05:50Z</time>
      </trkpt>
      <trkpt lat="45.99907" lon="4.75155">
        <ele>172</ele>
        <time>2018-07-24T10:05:51Z</time>
      </trkpt>
      <trkpt lat="45.99902" lon="4.75158">
        <ele>172</ele>
        <time>2018-07-24T10:05:52Z</time>
      </trkpt>
      <trkpt lat="45.99895" lon="4.75162">
        <ele>172</ele>
        <time>2018-07-24T10:05:53Z</time>
      </trkpt>
      <trkpt lat="45.9989" lon="4.75162">
        <ele>172</ele>
        <time>2018-07-24T10:05:54Z</time>
      </trkpt>
      <trkpt lat="45.99884" lon="4.75165">
        <ele>172</ele>
        <time>2018-07-24T10:05:55Z</time>
      </trkpt>
      <trkpt lat="45.99879" lon="4.75167">
        <ele>174</ele>
        <time>2018-07-24T10:05:56Z</time>
      </trkpt>
      <trkpt lat="45.99873" lon="4.75169">
        <ele>174</ele>
        <time>2018-07-24T10:05:57Z</time>
      </trkpt>
      <trkpt lat="45.99868" lon="4.75171">
        <ele>174</ele>
        <time>2018-07-24T10:05:58Z</time>
      </trkpt>
      <trkpt lat="45.99862" lon="4.75173">
        <ele>174</ele>
        <time>2018-07-24T10:05:59Z</time>
      </trkpt>
      <trkpt lat="45.99857" lon="4.75176">
        <ele>174</ele>
        <time>2018-07-24T10:06:00Z</time>
      </trkpt>
      <trkpt lat="45.99852" lon="4.75179">
        <ele>174</ele>
        <time>2018-07-24T10:06:01Z</time>
      </trkpt>
      <trkpt lat="45.99844" lon="4.75181">
        <ele>174</ele>
        <time>2018-07-24T10:06:03Z</time>
      </trkpt>
      <trkpt lat="45.99839" lon="4.75184">
        <ele>174</ele>
        <time>2018-07-24T10:06:04Z</time>
      </trkpt>
      <trkpt lat="45.99833" lon="4.75186">
        <ele>173</ele>
        <time>2018-07-24T10:06:05Z</time>
      </trkpt>
      <trkpt lat="45.99828" lon="4.75188">
        <ele>173</ele>
        <time>2018-07-24T10:06:06Z</time>
      </trkpt>
      <trkpt lat="45.99824" lon="4.75189">
        <ele>173</ele>
        <time>2018-07-24T10:06:07Z</time>
      </trkpt>
      <trkpt lat="45.99819" lon="4.75192">
        <ele>174</ele>
        <time>2018-07-24T10:06:08Z</time>
      </trkpt>
      <trkpt lat="45.99814" lon="4.75192">
        <ele>174</ele>
        <time>2018-07-24T10:06:09Z</time>
      </trkpt>
      <trkpt lat="45.99809" lon="4.75196">
        <ele>174</ele>
        <time>2018-07-24T10:06:10Z</time>
      </trkpt>
      <trkpt lat="45.998" lon="4.75199">
        <ele>174</ele>
        <time>2018-07-24T10:06:12Z</time>
      </trkpt>
      <trkpt lat="45.99795" lon="4.75203">
        <ele>174</ele>
        <time>2018-07-24T10:06:13Z</time>
      </trkpt>
      <trkpt lat="45.99789" lon="4.75207">
        <ele>174</ele>
        <time>2018-07-24T10:06:14Z</time>
      </trkpt>
      <trkpt lat="45.99784" lon="4.7521">
        <ele>174</ele>
        <time>2018-07-24T10:06:15Z</time>
      </trkpt>
      <trkpt lat="45.99779" lon="4.75212">
        <ele>174</ele>
        <time>2018-07-24T10:06:16Z</time>
      </trkpt>
      <trkpt lat="45.99774" lon="4.75216">
        <ele>174</ele>
        <time>2018-07-24T10:06:17Z</time>
      </trkpt>
      <trkpt lat="45.99765" lon="4.75217">
        <ele>175</ele>
        <time>2018-07-24T10:06:19Z</time>
      </trkpt>
      <trkpt lat="45.99759" lon="4.7522">
        <ele>175</ele>
        <time>2018-07-24T10:06:20Z</time>
      </trkpt>
      <trkpt lat="45.99755" lon="4.75224">
        <ele>175</ele>
        <time>2018-07-24T10:06:21Z</time>
      </trkpt>
      <trkpt lat="45.9975" lon="4.75226">
        <ele>175</ele>
        <time>2018-07-24T10:06:22Z</time>
      </trkpt>
      <trkpt lat="45.99745" lon="4.75228">
        <ele>175</ele>
        <time>2018-07-24T10:06:23Z</time>
      </trkpt>
      <trkpt lat="45.99739" lon="4.75232">
        <ele>175</ele>
        <time>2018-07-24T10:06:24Z</time>
      </trkpt>
      <trkpt lat="45.99733" lon="4.75234">
        <ele>175</ele>
        <time>2018-07-24T10:06:25Z</time>
      </trkpt>
      <trkpt lat="45.99728" lon="4.75236">
        <ele>175</ele>
        <time>2018-07-24T10:06:26Z</time>
      </trkpt>
      <trkpt lat="45.99722" lon="4.75239">
        <ele>174</ele>
        <time>2018-07-24T10:06:27Z</time>
      </trkpt>
      <trkpt lat="45.99718" lon="4.75241">
        <ele>174</ele>
        <time>2018-07-24T10:06:28Z</time>
      </trkpt>
      <trkpt lat="45.99712" lon="4.75244">
        <ele>174</ele>
        <time>2018-07-24T10:06:29Z</time>
      </trkpt>
      <trkpt lat="45.99707" lon="4.75246">
        <ele>174</ele>
        <time>2018-07-24T10:06:30Z</time>
      </trkpt>
      <trkpt lat="45.99703" lon="4.75246">
        <ele>174</ele>
        <time>2018-07-24T10:06:31Z</time>
      </trkpt>
      <trkpt lat="45.99698" lon="4.75249">
        <ele>174</ele>
        <time>2018-07-24T10:06:32Z</time>
      </trkpt>
      <trkpt lat="45.99694" lon="4.75251">
        <ele>176</ele>
        <time>2018-07-24T10:06:33Z</time>
      </trkpt>
      <trkpt lat="45.99689" lon="4.75254">
        <ele>175</ele>
        <time>2018-07-24T10:06:34Z</time>
      </trkpt>
      <trkpt lat="45.99685" lon="4.75256">
        <ele>175</ele>
        <time>2018-07-24T10:06:35Z</time>
      </trkpt>
      <trkpt lat="45.9968" lon="4.75258">
        <ele>175</ele>
        <time>2018-07-24T10:06:36Z</time>
      </trkpt>
      <trkpt lat="45.99675" lon="4.75259">
        <ele>175</ele>
        <time>2018-07-24T10:06:37Z</time>
      </trkpt>
      <trkpt lat="45.9967" lon="4.7526">
        <ele>175</ele>
        <time>2018-07-24T10:06:38Z</time>
      </trkpt>
      <trkpt lat="45.99666" lon="4.75261">
        <ele>174</ele>
        <time>2018-07-24T10:06:39Z</time>
      </trkpt>
      <trkpt lat="45.99661" lon="4.75263">
        <ele>174</ele>
        <time>2018-07-24T10:06:40Z</time>
      </trkpt>
      <trkpt lat="45.99656" lon="4.75263">
        <ele>174</ele>
        <time>2018-07-24T10:06:41Z</time>
      </trkpt>
      <trkpt lat="45.99651" lon="4.75265">
        <ele>174</ele>
        <time>2018-07-24T10:06:42Z</time>
      </trkpt>
      <trkpt lat="45.99643" lon="4.75265">
        <ele>174</ele>
        <time>2018-07-24T10:06:44Z</time>
      </trkpt>
      <trkpt lat="45.99639" lon="4.75264">
        <ele>174</ele>
        <time>2018-07-24T10:06:45Z</time>
      </trkpt>
      <trkpt lat="45.99633" lon="4.75264">
        <ele>174</ele>
        <time>2018-07-24T10:06:47Z</time>
      </trkpt>
      <trkpt lat="45.99627" lon="4.75264">
        <ele>174</ele>
        <time>2018-07-24T10:06:48Z</time>
      </trkpt>
      <trkpt lat="45.99619" lon="4.75267">
        <ele>174</ele>
        <time>2018-07-24T10:06:50Z</time>
      </trkpt>
      <trkpt lat="45.99617" lon="4.75267">
        <ele>174</ele>
        <time>2018-07-24T10:06:51Z</time>
      </trkpt>
      <trkpt lat="45.99612" lon="4.75269">
        <ele>173</ele>
        <time>2018-07-24T10:06:52Z</time>
      </trkpt>
      <trkpt lat="45.99608" lon="4.75271">
        <ele>173</ele>
        <time>2018-07-24T10:06:53Z</time>
      </trkpt>
      <trkpt lat="45.99601" lon="4.75271">
        <ele>173</ele>
        <time>2018-07-24T10:06:56Z</time>
      </trkpt>
      <trkpt lat="45.99599" lon="4.75271">
        <ele>173</ele>
        <time>2018-07-24T10:06:57Z</time>
      </trkpt>
      <trkpt lat="45.99591" lon="4.75271">
        <ele>173</ele>
        <time>2018-07-24T10:06:58Z</time>
      </trkpt>
      <trkpt lat="45.99588" lon="4.75269">
        <ele>173</ele>
        <time>2018-07-24T10:06:59Z</time>
      </trkpt>
      <trkpt lat="45.99582" lon="4.75263">
        <ele>172</ele>
        <time>2018-07-24T10:07:01Z</time>
      </trkpt>
      <trkpt lat="45.99577" lon="4.75261">
        <ele>172</ele>
        <time>2018-07-24T10:07:02Z</time>
      </trkpt>
      <trkpt lat="45.99572" lon="4.75261">
        <ele>172</ele>
        <time>2018-07-24T10:07:03Z</time>
      </trkpt>
      <trkpt lat="45.99567" lon="4.75263">
        <ele>172</ele>
        <time>2018-07-24T10:07:04Z</time>
      </trkpt>
      <trkpt lat="45.9956" lon="4.75269">
        <ele>172</ele>
        <time>2018-07-24T10:07:06Z</time>
      </trkpt>
      <trkpt lat="45.99556" lon="4.75273">
        <ele>172</ele>
        <time>2018-07-24T10:07:07Z</time>
      </trkpt>
      <trkpt lat="45.99552" lon="4.75277">
        <ele>172</ele>
        <time>2018-07-24T10:07:08Z</time>
      </trkpt>
      <trkpt lat="45.99547" lon="4.7528">
        <ele>172</ele>
        <time>2018-07-24T10:07:09Z</time>
      </trkpt>
      <trkpt lat="45.9954" lon="4.75285">
        <ele>172</ele>
        <time>2018-07-24T10:07:11Z</time>
      </trkpt>
      <trkpt lat="45.99535" lon="4.75286">
        <ele>172</ele>
        <time>2018-07-24T10:07:12Z</time>
      </trkpt>
      <trkpt lat="45.9953" lon="4.75288">
        <ele>172</ele>
        <time>2018-07-24T10:07:13Z</time>
      </trkpt>
      <trkpt lat="45.99524" lon="4.7529">
        <ele>172</ele>
        <time>2018-07-24T10:07:14Z</time>
      </trkpt>
      <trkpt lat="45.99519" lon="4.75292">
        <ele>172</ele>
        <time>2018-07-24T10:07:15Z</time>
      </trkpt>
      <trkpt lat="45.99513" lon="4.75293">
        <ele>172</ele>
        <time>2018-07-24T10:07:16Z</time>
      </trkpt>
      <trkpt lat="45.99508" lon="4.75294">
        <ele>172</ele>
        <time>2018-07-24T10:07:17Z</time>
      </trkpt>
      <trkpt lat="45.99503" lon="4.75296">
        <ele>172</ele>
        <time>2018-07-24T10:07:18Z</time>
      </trkpt>
      <trkpt lat="45.99497" lon="4.75297">
        <ele>171</ele>
        <time>2018-07-24T10:07:19Z</time>
      </trkpt>
      <trkpt lat="45.99492" lon="4.75298">
        <ele>171</ele>
        <time>2018-07-24T10:07:20Z</time>
      </trkpt>
      <trkpt lat="45.99486" lon="4.75298">
        <ele>171</ele>
        <time>2018-07-24T10:07:21Z</time>
      </trkpt>
      <trkpt lat="45.99481" lon="4.75299">
        <ele>171</ele>
        <time>2018-07-24T10:07:22Z</time>
      </trkpt>
      <trkpt lat="45.99476" lon="4.753">
        <ele>171</ele>
        <time>2018-07-24T10:07:23Z</time>
      </trkpt>
      <trkpt lat="45.99471" lon="4.75303">
        <ele>171</ele>
        <time>2018-07-24T10:07:24Z</time>
      </trkpt>
      <trkpt lat="45.99466" lon="4.75303">
        <ele>171</ele>
        <time>2018-07-24T10:07:25Z</time>
      </trkpt>
      <trkpt lat="45.9946" lon="4.75304">
        <ele>171</ele>
        <time>2018-07-24T10:07:26Z</time>
      </trkpt>
      <trkpt lat="45.99455" lon="4.75305">
        <ele>171</ele>
        <time>2018-07-24T10:07:27Z</time>
      </trkpt>
      <trkpt lat="45.99449" lon="4.75306">
        <ele>171</ele>
        <time>2018-07-24T10:07:28Z</time>
      </trkpt>
      <trkpt lat="45.99443" lon="4.75306">
        <ele>171</ele>
        <time>2018-07-24T10:07:29Z</time>
      </trkpt>
      <trkpt lat="45.99436" lon="4.75308">
        <ele>171</ele>
        <time>2018-07-24T10:07:30Z</time>
      </trkpt>
      <trkpt lat="45.99431" lon="4.75309">
        <ele>171</ele>
        <time>2018-07-24T10:07:31Z</time>
      </trkpt>
      <trkpt lat="45.99425" lon="4.7531">
        <ele>171</ele>
        <time>2018-07-24T10:07:32Z</time>
      </trkpt>
      <trkpt lat="45.9942" lon="4.75311">
        <ele>171</ele>
        <time>2018-07-24T10:07:33Z</time>
      </trkpt>
      <trkpt lat="45.99413" lon="4.75313">
        <ele>170</ele>
        <time>2018-07-24T10:07:34Z</time>
      </trkpt>
      <trkpt lat="45.99408" lon="4.75316">
        <ele>170</ele>
        <time>2018-07-24T10:07:35Z</time>
      </trkpt>
      <trkpt lat="45.99403" lon="4.75318">
        <ele>170</ele>
        <time>2018-07-24T10:07:36Z</time>
      </trkpt>
      <trkpt lat="45.99398" lon="4.7532">
        <ele>170</ele>
        <time>2018-07-24T10:07:37Z</time>
      </trkpt>
      <trkpt lat="45.99393" lon="4.75324">
        <ele>170</ele>
        <time>2018-07-24T10:07:38Z</time>
      </trkpt>
      <trkpt lat="45.99388" lon="4.75328">
        <ele>170</ele>
        <time>2018-07-24T10:07:39Z</time>
      </trkpt>
      <trkpt lat="45.99383" lon="4.75332">
        <ele>170</ele>
        <time>2018-07-24T10:07:40Z</time>
      </trkpt>
      <trkpt lat="45.99379" lon="4.75337">
        <ele>171</ele>
        <time>2018-07-24T10:07:41Z</time>
      </trkpt>
      <trkpt lat="45.99375" lon="4.75342">
        <ele>171</ele>
        <time>2018-07-24T10:07:42Z</time>
      </trkpt>
      <trkpt lat="45.99371" lon="4.75347">
        <ele>172</ele>
        <time>2018-07-24T10:07:43Z</time>
      </trkpt>
      <trkpt lat="45.99367" lon="4.75353">
        <ele>172</ele>
        <time>2018-07-24T10:07:44Z</time>
      </trkpt>
      <trkpt lat="45.99364" lon="4.7536">
        <ele>172</ele>
        <time>2018-07-24T10:07:45Z</time>
      </trkpt>
      <trkpt lat="45.9936" lon="4.75366">
        <ele>172</ele>
        <time>2018-07-24T10:07:46Z</time>
      </trkpt>
      <trkpt lat="45.99357" lon="4.75373">
        <ele>172</ele>
        <time>2018-07-24T10:07:47Z</time>
      </trkpt>
      <trkpt lat="45.99353" lon="4.7538">
        <ele>172</ele>
        <time>2018-07-24T10:07:48Z</time>
      </trkpt>
      <trkpt lat="45.9935" lon="4.75387">
        <ele>172</ele>
        <time>2018-07-24T10:07:49Z</time>
      </trkpt>
      <trkpt lat="45.99347" lon="4.75393">
        <ele>172</ele>
        <time>2018-07-24T10:07:50Z</time>
      </trkpt>
      <trkpt lat="45.99345" lon="4.754">
        <ele>173</ele>
        <time>2018-07-24T10:07:51Z</time>
      </trkpt>
      <trkpt lat="45.99343" lon="4.75406">
        <ele>173</ele>
        <time>2018-07-24T10:07:52Z</time>
      </trkpt>
      <trkpt lat="45.99341" lon="4.75412">
        <ele>173</ele>
        <time>2018-07-24T10:07:53Z</time>
      </trkpt>
      <trkpt lat="45.9934" lon="4.75418">
        <ele>174</ele>
        <time>2018-07-24T10:07:54Z</time>
      </trkpt>
      <trkpt lat="45.99338" lon="4.75426">
        <ele>175</ele>
        <time>2018-07-24T10:07:55Z</time>
      </trkpt>
      <trkpt lat="45.99337" lon="4.75434">
        <ele>175</ele>
        <time>2018-07-24T10:07:56Z</time>
      </trkpt>
      <trkpt lat="45.99336" lon="4.75442">
        <ele>176</ele>
        <time>2018-07-24T10:07:57Z</time>
      </trkpt>
      <trkpt lat="45.99333" lon="4.75448">
        <ele>173</ele>
        <time>2018-07-24T10:07:58Z</time>
      </trkpt>
      <trkpt lat="45.99331" lon="4.75455">
        <ele>174</ele>
        <time>2018-07-24T10:07:59Z</time>
      </trkpt>
      <trkpt lat="45.99329" lon="4.75463">
        <ele>174</ele>
        <time>2018-07-24T10:08:00Z</time>
      </trkpt>
      <trkpt lat="45.99327" lon="4.75469">
        <ele>174</ele>
        <time>2018-07-24T10:08:01Z</time>
      </trkpt>
      <trkpt lat="45.99323" lon="4.75475">
        <ele>174</ele>
        <time>2018-07-24T10:08:02Z</time>
      </trkpt>
      <trkpt lat="45.9932" lon="4.75482">
        <ele>175</ele>
        <time>2018-07-24T10:08:03Z</time>
      </trkpt>
      <trkpt lat="45.99316" lon="4.75488">
        <ele>175</ele>
        <time>2018-07-24T10:08:04Z</time>
      </trkpt>
      <trkpt lat="45.99312" lon="4.75493">
        <ele>175</ele>
        <time>2018-07-24T10:08:05Z</time>
      </trkpt>
      <trkpt lat="45.99307" lon="4.75499">
        <ele>174</ele>
        <time>2018-07-24T10:08:06Z</time>
      </trkpt>
      <trkpt lat="45.99303" lon="4.75505">
        <ele>177</ele>
        <time>2018-07-24T10:08:07Z</time>
      </trkpt>
      <trkpt lat="45.99299" lon="4.7551">
        <ele>177</ele>
        <time>2018-07-24T10:08:08Z</time>
      </trkpt>
      <trkpt lat="45.99295" lon="4.75515">
        <ele>177</ele>
        <time>2018-07-24T10:08:09Z</time>
      </trkpt>
      <trkpt lat="45.9929" lon="4.7552">
        <ele>176</ele>
        <time>2018-07-24T10:08:10Z</time>
      </trkpt>
      <trkpt lat="45.99286" lon="4.75524">
        <ele>176</ele>
        <time>2018-07-24T10:08:11Z</time>
      </trkpt>
      <trkpt lat="45.99281" lon="4.75527">
        <ele>176</ele>
        <time>2018-07-24T10:08:12Z</time>
      </trkpt>
      <trkpt lat="45.99277" lon="4.7553">
        <ele>176</ele>
        <time>2018-07-24T10:08:13Z</time>
      </trkpt>
      <trkpt lat="45.99272" lon="4.75533">
        <ele>176</ele>
        <time>2018-07-24T10:08:14Z</time>
      </trkpt>
      <trkpt lat="45.99267" lon="4.75537">
        <ele>176</ele>
        <time>2018-07-24T10:08:15Z</time>
      </trkpt>
      <trkpt lat="45.99262" lon="4.75541">
        <ele>176</ele>
        <time>2018-07-24T10:08:16Z</time>
      </trkpt>
      <trkpt lat="45.99256" lon="4.75545">
        <ele>176</ele>
        <time>2018-07-24T10:08:17Z</time>
      </trkpt>
      <trkpt lat="45.99251" lon="4.75548">
        <ele>176</ele>
        <time>2018-07-24T10:08:18Z</time>
      </trkpt>
      <trkpt lat="45.99246" lon="4.75551">
        <ele>175</ele>
        <time>2018-07-24T10:08:19Z</time>
      </trkpt>
      <trkpt lat="45.99242" lon="4.75557">
        <ele>175</ele>
        <time>2018-07-24T10:08:20Z</time>
      </trkpt>
      <trkpt lat="45.99237" lon="4.75562">
        <ele>175</ele>
        <time>2018-07-24T10:08:21Z</time>
      </trkpt>
      <trkpt lat="45.99232" lon="4.75565">
        <ele>175</ele>
        <time>2018-07-24T10:08:22Z</time>
      </trkpt>
      <trkpt lat="45.99227" lon="4.75568">
        <ele>175</ele>
        <time>2018-07-24T10:08:23Z</time>
      </trkpt>
      <trkpt lat="45.99222" lon="4.7557">
        <ele>175</ele>
        <time>2018-07-24T10:08:24Z</time>
      </trkpt>
      <trkpt lat="45.99217" lon="4.75574">
        <ele>175</ele>
        <time>2018-07-24T10:08:25Z</time>
      </trkpt>
      <trkpt lat="45.99213" lon="4.75577">
        <ele>175</ele>
        <time>2018-07-24T10:08:26Z</time>
      </trkpt>
      <trkpt lat="45.99204" lon="4.75581">
        <ele>175</ele>
        <time>2018-07-24T10:08:28Z</time>
      </trkpt>
      <trkpt lat="45.992" lon="4.75584">
        <ele>178</ele>
        <time>2018-07-24T10:08:29Z</time>
      </trkpt>
      <trkpt lat="45.99196" lon="4.75586">
        <ele>178</ele>
        <time>2018-07-24T10:08:30Z</time>
      </trkpt>
      <trkpt lat="45.99192" lon="4.75591">
        <ele>178</ele>
        <time>2018-07-24T10:08:31Z</time>
      </trkpt>
      <trkpt lat="45.99187" lon="4.75594">
        <ele>177</ele>
        <time>2018-07-24T10:08:32Z</time>
      </trkpt>
      <trkpt lat="45.99183" lon="4.75595">
        <ele>177</ele>
        <time>2018-07-24T10:08:33Z</time>
      </trkpt>
      <trkpt lat="45.99176" lon="4.75603">
        <ele>177</ele>
        <time>2018-07-24T10:08:35Z</time>
      </trkpt>
      <trkpt lat="45.99173" lon="4.75603">
        <ele>177</ele>
        <time>2018-07-24T10:08:36Z</time>
      </trkpt>
      <trkpt lat="45.99167" lon="4.75604">
        <ele>177</ele>
        <time>2018-07-24T10:08:38Z</time>
      </trkpt>
      <trkpt lat="45.99162" lon="4.75605">
        <ele>176</ele>
        <time>2018-07-24T10:08:39Z</time>
      </trkpt>
      <trkpt lat="45.99157" lon="4.75607">
        <ele>176</ele>
        <time>2018-07-24T10:08:40Z</time>
      </trkpt>
      <trkpt lat="45.99152" lon="4.75608">
        <ele>176</ele>
        <time>2018-07-24T10:08:41Z</time>
      </trkpt>
      <trkpt lat="45.99146" lon="4.75602">
        <ele>176</ele>
        <time>2018-07-24T10:08:43Z</time>
      </trkpt>
      <trkpt lat="45.99142" lon="4.756">
        <ele>176</ele>
        <time>2018-07-24T10:08:44Z</time>
      </trkpt>
      <trkpt lat="45.99134" lon="4.75607">
        <ele>176</ele>
        <time>2018-07-24T10:08:45Z</time>
      </trkpt>
      <trkpt lat="45.9913" lon="4.7561">
        <ele>177</ele>
        <time>2018-07-24T10:08:46Z</time>
      </trkpt>
      <trkpt lat="45.99125" lon="4.75619">
        <ele>177</ele>
        <time>2018-07-24T10:08:47Z</time>
      </trkpt>
      <trkpt lat="45.99122" lon="4.75625">
        <ele>177</ele>
        <time>2018-07-24T10:08:48Z</time>
      </trkpt>
      <trkpt lat="45.99119" lon="4.7563">
        <ele>177</ele>
        <time>2018-07-24T10:08:49Z</time>
      </trkpt>
      <trkpt lat="45.99116" lon="4.75636">
        <ele>177</ele>
        <time>2018-07-24T10:08:50Z</time>
      </trkpt>
      <trkpt lat="45.99111" lon="4.75639">
        <ele>178</ele>
        <time>2018-07-24T10:08:51Z</time>
      </trkpt>
      <trkpt lat="45.99107" lon="4.75643">
        <ele>178</ele>
        <time>2018-07-24T10:08:52Z</time>
      </trkpt>
      <trkpt lat="45.99102" lon="4.75648">
        <ele>178</ele>
        <time>2018-07-24T10:08:53Z</time>
      </trkpt>
      <trkpt lat="45.99098" lon="4.75648">
        <ele>178</ele>
        <time>2018-07-24T10:08:54Z</time>
      </trkpt>
      <trkpt lat="45.99094" lon="4.75649">
        <ele>178</ele>
        <time>2018-07-24T10:08:55Z</time>
      </trkpt>
      <trkpt lat="45.99088" lon="4.75652">
        <ele>179</ele>
        <time>2018-07-24T10:08:56Z</time>
      </trkpt>
      <trkpt lat="45.99084" lon="4.75654">
        <ele>179</ele>
        <time>2018-07-24T10:08:57Z</time>
      </trkpt>
      <trkpt lat="45.99079" lon="4.75654">
        <ele>178</ele>
        <time>2018-07-24T10:08:58Z</time>
      </trkpt>
      <trkpt lat="45.99072" lon="4.75653">
        <ele>178</ele>
        <time>2018-07-24T10:08:59Z</time>
      </trkpt>
      <trkpt lat="45.99068" lon="4.75653">
        <ele>178</ele>
        <time>2018-07-24T10:09:00Z</time>
      </trkpt>
      <trkpt lat="45.99062" lon="4.75653">
        <ele>178</ele>
        <time>2018-07-24T10:09:01Z</time>
      </trkpt>
      <trkpt lat="45.99057" lon="4.75655">
        <ele>178</ele>
        <time>2018-07-24T10:09:02Z</time>
      </trkpt>
      <trkpt lat="45.99051" lon="4.75654">
        <ele>178</ele>
        <time>2018-07-24T10:09:03Z</time>
      </trkpt>
      <trkpt lat="45.99045" lon="4.75654">
        <ele>178</ele>
        <time>2018-07-24T10:09:04Z</time>
      </trkpt>
      <trkpt lat="45.9904" lon="4.75656">
        <ele>178</ele>
        <time>2018-07-24T10:09:05Z</time>
      </trkpt>
      <trkpt lat="45.99033" lon="4.75655">
        <ele>178</ele>
        <time>2018-07-24T10:09:06Z</time>
      </trkpt>
      <trkpt lat="45.99028" lon="4.75655">
        <ele>178</ele>
        <time>2018-07-24T10:09:07Z</time>
      </trkpt>
      <trkpt lat="45.99022" lon="4.75654">
        <ele>178</ele>
        <time>2018-07-24T10:09:08Z</time>
      </trkpt>
      <trkpt lat="45.99016" lon="4.75655">
        <ele>178</ele>
        <time>2018-07-24T10:09:09Z</time>
      </trkpt>
      <trkpt lat="45.99011" lon="4.75654">
        <ele>178</ele>
        <time>2018-07-24T10:09:10Z</time>
      </trkpt>
      <trkpt lat="45.99006" lon="4.75655">
        <ele>179</ele>
        <time>2018-07-24T10:09:11Z</time>
      </trkpt>
      <trkpt lat="45.99" lon="4.75654">
        <ele>179</ele>
        <time>2018-07-24T10:09:12Z</time>
      </trkpt>
      <trkpt lat="45.98996" lon="4.75651">
        <ele>178</ele>
        <time>2018-07-24T10:09:13Z</time>
      </trkpt>
      <trkpt lat="45.9899" lon="4.75657">
        <ele>178</ele>
        <time>2018-07-24T10:09:14Z</time>
      </trkpt>
      <trkpt lat="45.98984" lon="4.75659">
        <ele>178</ele>
        <time>2018-07-24T10:09:15Z</time>
      </trkpt>
      <trkpt lat="45.98978" lon="4.75659">
        <ele>177</ele>
        <time>2018-07-24T10:09:16Z</time>
      </trkpt>
      <trkpt lat="45.98972" lon="4.7566">
        <ele>177</ele>
        <time>2018-07-24T10:09:17Z</time>
      </trkpt>
      <trkpt lat="45.98967" lon="4.75661">
        <ele>177</ele>
        <time>2018-07-24T10:09:18Z</time>
      </trkpt>
      <trkpt lat="45.98961" lon="4.75664">
        <ele>177</ele>
        <time>2018-07-24T10:09:19Z</time>
      </trkpt>
      <trkpt lat="45.98956" lon="4.75666">
        <ele>177</ele>
        <time>2018-07-24T10:09:20Z</time>
      </trkpt>
      <trkpt lat="45.9895" lon="4.75668">
        <ele>181</ele>
        <time>2018-07-24T10:09:21Z</time>
      </trkpt>
      <trkpt lat="45.98944" lon="4.7567">
        <ele>180</ele>
        <time>2018-07-24T10:09:22Z</time>
      </trkpt>
      <trkpt lat="45.98937" lon="4.75675">
        <ele>180</ele>
        <time>2018-07-24T10:09:23Z</time>
      </trkpt>
      <trkpt lat="45.98933" lon="4.75677">
        <ele>180</ele>
        <time>2018-07-24T10:09:24Z</time>
      </trkpt>
      <trkpt lat="45.98927" lon="4.75679">
        <ele>180</ele>
        <time>2018-07-24T10:09:25Z</time>
      </trkpt>
      <trkpt lat="45.98922" lon="4.75681">
        <ele>180</ele>
        <time>2018-07-24T10:09:26Z</time>
      </trkpt>
      <trkpt lat="45.98917" lon="4.75685">
        <ele>180</ele>
        <time>2018-07-24T10:09:27Z</time>
      </trkpt>
      <trkpt lat="45.98912" lon="4.75687">
        <ele>179</ele>
        <time>2018-07-24T10:09:28Z</time>
      </trkpt>
      <trkpt lat="45.98908" lon="4.75689">
        <ele>179</ele>
        <time>2018-07-24T10:09:29Z</time>
      </trkpt>
      <trkpt lat="45.98902" lon="4.75691">
        <ele>179</ele>
        <time>2018-07-24T10:09:30Z</time>
      </trkpt>
      <trkpt lat="45.98899" lon="4.757">
        <ele>180</ele>
        <time>2018-07-24T10:09:31Z</time>
      </trkpt>
      <trkpt lat="45.98893" lon="4.757">
        <ele>180</ele>
        <time>2018-07-24T10:09:32Z</time>
      </trkpt>
      <trkpt lat="45.98886" lon="4.75699">
        <ele>180</ele>
        <time>2018-07-24T10:09:33Z</time>
      </trkpt>
      <trkpt lat="45.98881" lon="4.75699">
        <ele>180</ele>
        <time>2018-07-24T10:09:34Z</time>
      </trkpt>
      <trkpt lat="45.98877" lon="4.75701">
        <ele>180</ele>
        <time>2018-07-24T10:09:35Z</time>
      </trkpt>
      <trkpt lat="45.98872" lon="4.75703">
        <ele>180</ele>
        <time>2018-07-24T10:09:36Z</time>
      </trkpt>
      <trkpt lat="45.98867" lon="4.75705">
        <ele>180</ele>
        <time>2018-07-24T10:09:37Z</time>
      </trkpt>
      <trkpt lat="45.98861" lon="4.75707">
        <ele>180</ele>
        <time>2018-07-24T10:09:38Z</time>
      </trkpt>
      <trkpt lat="45.98857" lon="4.75709">
        <ele>180</ele>
        <time>2018-07-24T10:09:39Z</time>
      </trkpt>
      <trkpt lat="45.98852" lon="4.75708">
        <ele>180</ele>
        <time>2018-07-24T10:09:40Z</time>
      </trkpt>
      <trkpt lat="45.98847" lon="4.75708">
        <ele>180</ele>
        <time>2018-07-24T10:09:41Z</time>
      </trkpt>
      <trkpt lat="45.98842" lon="4.75709">
        <ele>180</ele>
        <time>2018-07-24T10:09:42Z</time>
      </trkpt>
      <trkpt lat="45.98835" lon="4.75709">
        <ele>180</ele>
        <time>2018-07-24T10:09:44Z</time>
      </trkpt>
      <trkpt lat="45.9883" lon="4.7571">
        <ele>179</ele>
        <time>2018-07-24T10:09:45Z</time>
      </trkpt>
      <trkpt lat="45.98823" lon="4.75713">
        <ele>179</ele>
        <time>2018-07-24T10:09:46Z</time>
      </trkpt>
      <trkpt lat="45.98818" lon="4.75712">
        <ele>179</ele>
        <time>2018-07-24T10:09:47Z</time>
      </trkpt>
      <trkpt lat="45.9881" lon="4.75715">
        <ele>179</ele>
        <time>2018-07-24T10:09:49Z</time>
      </trkpt>
      <trkpt lat="45.98806" lon="4.75716">
        <ele>179</ele>
        <time>2018-07-24T10:09:50Z</time>
      </trkpt>
      <trkpt lat="45.988" lon="4.75717">
        <ele>178</ele>
        <time>2018-07-24T10:09:51Z</time>
      </trkpt>
      <trkpt lat="45.98796" lon="4.75718">
        <ele>178</ele>
        <time>2018-07-24T10:09:52Z</time>
      </trkpt>
      <trkpt lat="45.98791" lon="4.75719">
        <ele>178</ele>
        <time>2018-07-24T10:09:53Z</time>
      </trkpt>
      <trkpt lat="45.98787" lon="4.75718">
        <ele>178</ele>
        <time>2018-07-24T10:09:54Z</time>
      </trkpt>
      <trkpt lat="45.98778" lon="4.75716">
        <ele>178</ele>
        <time>2018-07-24T10:09:56Z</time>
      </trkpt>
      <trkpt lat="45.98774" lon="4.75714">
        <ele>178</ele>
        <time>2018-07-24T10:09:57Z</time>
      </trkpt>
      <trkpt lat="45.98766" lon="4.75717">
        <ele>178</ele>
        <time>2018-07-24T10:09:59Z</time>
      </trkpt>
      <trkpt lat="45.98762" lon="4.75721">
        <ele>178</ele>
        <time>2018-07-24T10:10:00Z</time>
      </trkpt>
      <trkpt lat="45.98761" lon="4.75726">
        <ele>178</ele>
        <time>2018-07-24T10:10:02Z</time>
      </trkpt>
      <trkpt lat="45.98761" lon="4.75736">
        <ele>178</ele>
        <time>2018-07-24T10:10:03Z</time>
      </trkpt>
      <trkpt lat="45.98761" lon="4.75742">
        <ele>178</ele>
        <time>2018-07-24T10:10:04Z</time>
      </trkpt>
      <trkpt lat="45.98762" lon="4.75752">
        <ele>179</ele>
        <time>2018-07-24T10:10:05Z</time>
      </trkpt>
      <trkpt lat="45.98761" lon="4.75764">
        <ele>179</ele>
        <time>2018-07-24T10:10:07Z</time>
      </trkpt>
      <trkpt lat="45.98761" lon="4.75771">
        <ele>179</ele>
        <time>2018-07-24T10:10:08Z</time>
      </trkpt>
      <trkpt lat="45.98759" lon="4.75782">
        <ele>179</ele>
        <time>2018-07-24T10:10:10Z</time>
      </trkpt>
      <trkpt lat="45.98759" lon="4.7579">
        <ele>179</ele>
        <time>2018-07-24T10:10:11Z</time>
      </trkpt>
      <trkpt lat="45.98758" lon="4.75798">
        <ele>179</ele>
        <time>2018-07-24T10:10:12Z</time>
      </trkpt>
      <trkpt lat="45.98757" lon="4.75805">
        <ele>179</ele>
        <time>2018-07-24T10:10:13Z</time>
      </trkpt>
      <trkpt lat="45.98757" lon="4.75812">
        <ele>179</ele>
        <time>2018-07-24T10:10:14Z</time>
      </trkpt>
      <trkpt lat="45.98756" lon="4.75818">
        <ele>179</ele>
        <time>2018-07-24T10:10:15Z</time>
      </trkpt>
      <trkpt lat="45.98754" lon="4.75829">
        <ele>178</ele>
        <time>2018-07-24T10:10:17Z</time>
      </trkpt>
      <trkpt lat="45.98753" lon="4.75838">
        <ele>178</ele>
        <time>2018-07-24T10:10:18Z</time>
      </trkpt>
      <trkpt lat="45.98749" lon="4.75848">
        <ele>178</ele>
        <time>2018-07-24T10:10:20Z</time>
      </trkpt>
      <trkpt lat="45.98749" lon="4.75856">
        <ele>179</ele>
        <time>2018-07-24T10:10:21Z</time>
      </trkpt>
      <trkpt lat="45.98748" lon="4.75864">
        <ele>179</ele>
        <time>2018-07-24T10:10:22Z</time>
      </trkpt>
      <trkpt lat="45.98745" lon="4.75869">
        <ele>179</ele>
        <time>2018-07-24T10:10:23Z</time>
      </trkpt>
      <trkpt lat="45.98743" lon="4.75877">
        <ele>179</ele>
        <time>2018-07-24T10:10:24Z</time>
      </trkpt>
      <trkpt lat="45.98741" lon="4.75884">
        <ele>179</ele>
        <time>2018-07-24T10:10:25Z</time>
      </trkpt>
      <trkpt lat="45.9874" lon="4.75892">
        <ele>179</ele>
        <time>2018-07-24T10:10:26Z</time>
      </trkpt>
      <trkpt lat="45.98739" lon="4.75899">
        <ele>179</ele>
        <time>2018-07-24T10:10:27Z</time>
      </trkpt>
      <trkpt lat="45.98736" lon="4.75907">
        <ele>180</ele>
        <time>2018-07-24T10:10:28Z</time>
      </trkpt>
      <trkpt lat="45.98734" lon="4.75913">
        <ele>180</ele>
        <time>2018-07-24T10:10:29Z</time>
      </trkpt>
      <trkpt lat="45.98733" lon="4.7592">
        <ele>180</ele>
        <time>2018-07-24T10:10:30Z</time>
      </trkpt>
      <trkpt lat="45.98731" lon="4.75926">
        <ele>180</ele>
        <time>2018-07-24T10:10:31Z</time>
      </trkpt>
      <trkpt lat="45.9873" lon="4.75938">
        <ele>180</ele>
        <time>2018-07-24T10:10:33Z</time>
      </trkpt>
      <trkpt lat="45.98728" lon="4.75944">
        <ele>180</ele>
        <time>2018-07-24T10:10:34Z</time>
      </trkpt>
      <trkpt lat="45.98727" lon="4.75951">
        <ele>180</ele>
        <time>2018-07-24T10:10:35Z</time>
      </trkpt>
      <trkpt lat="45.98727" lon="4.75958">
        <ele>180</ele>
        <time>2018-07-24T10:10:36Z</time>
      </trkpt>
      <trkpt lat="45.98724" lon="4.7597">
        <ele>181</ele>
        <time>2018-07-24T10:10:38Z</time>
      </trkpt>
      <trkpt lat="45.98723" lon="4.75976">
        <ele>181</ele>
        <time>2018-07-24T10:10:39Z</time>
      </trkpt>
      <trkpt lat="45.98722" lon="4.75986">
        <ele>181</ele>
        <time>2018-07-24T10:10:41Z</time>
      </trkpt>
      <trkpt lat="45.9872" lon="4.75991">
        <ele>181</ele>
        <time>2018-07-24T10:10:42Z</time>
      </trkpt>
      <trkpt lat="45.9872" lon="4.76003">
        <ele>181</ele>
        <time>2018-07-24T10:10:44Z</time>
      </trkpt>
      <trkpt lat="45.98719" lon="4.76009">
        <ele>181</ele>
        <time>2018-07-24T10:10:45Z</time>
      </trkpt>
      <trkpt lat="45.98717" lon="4.76018">
        <ele>182</ele>
        <time>2018-07-24T10:10:46Z</time>
      </trkpt>
      <trkpt lat="45.98717" lon="4.76025">
        <ele>182</ele>
        <time>2018-07-24T10:10:47Z</time>
      </trkpt>
      <trkpt lat="45.98716" lon="4.76031">
        <ele>182</ele>
        <time>2018-07-24T10:10:48Z</time>
      </trkpt>
      <trkpt lat="45.98715" lon="4.76039">
        <ele>182</ele>
        <time>2018-07-24T10:10:49Z</time>
      </trkpt>
      <trkpt lat="45.98716" lon="4.76046">
        <ele>182</ele>
        <time>2018-07-24T10:10:50Z</time>
      </trkpt>
      <trkpt lat="45.98715" lon="4.76052">
        <ele>182</ele>
        <time>2018-07-24T10:10:51Z</time>
      </trkpt>
      <trkpt lat="45.98715" lon="4.76058">
        <ele>182</ele>
        <time>2018-07-24T10:10:52Z</time>
      </trkpt>
      <trkpt lat="45.98714" lon="4.76065">
        <ele>182</ele>
        <time>2018-07-24T10:10:53Z</time>
      </trkpt>
      <trkpt lat="45.98714" lon="4.76071">
        <ele>182</ele>
        <time>2018-07-24T10:10:54Z</time>
      </trkpt>
      <trkpt lat="45.98713" lon="4.76078">
        <ele>182</ele>
        <time>2018-07-24T10:10:55Z</time>
      </trkpt>
      <trkpt lat="45.98711" lon="4.76089">
        <ele>183</ele>
        <time>2018-07-24T10:10:57Z</time>
      </trkpt>
      <trkpt lat="45.98711" lon="4.76092">
        <ele>183</ele>
        <time>2018-07-24T10:10:58Z</time>
      </trkpt>
      <trkpt lat="45.9871" lon="4.761">
        <ele>183</ele>
        <time>2018-07-24T10:10:59Z</time>
      </trkpt>
      <trkpt lat="45.98709" lon="4.76106">
        <ele>183</ele>
        <time>2018-07-24T10:11:00Z</time>
      </trkpt>
      <trkpt lat="45.98709" lon="4.76113">
        <ele>183</ele>
        <time>2018-07-24T10:11:01Z</time>
      </trkpt>
      <trkpt lat="45.98709" lon="4.76119">
        <ele>183</ele>
        <time>2018-07-24T10:11:02Z</time>
      </trkpt>
      <trkpt lat="45.98708" lon="4.76127">
        <ele>183</ele>
        <time>2018-07-24T10:11:03Z</time>
      </trkpt>
      <trkpt lat="45.98706" lon="4.76133">
        <ele>183</ele>
        <time>2018-07-24T10:11:04Z</time>
      </trkpt>
      <trkpt lat="45.98708" lon="4.76143">
        <ele>183</ele>
        <time>2018-07-24T10:11:05Z</time>
      </trkpt>
      <trkpt lat="45.98708" lon="4.76149">
        <ele>183</ele>
        <time>2018-07-24T10:11:06Z</time>
      </trkpt>
      <trkpt lat="45.98707" lon="4.76156">
        <ele>183</ele>
        <time>2018-07-24T10:11:07Z</time>
      </trkpt>
      <trkpt lat="45.98707" lon="4.76166">
        <ele>184</ele>
        <time>2018-07-24T10:11:08Z</time>
      </trkpt>
      <trkpt lat="45.98707" lon="4.76178">
        <ele>184</ele>
        <time>2018-07-24T10:11:10Z</time>
      </trkpt>
      <trkpt lat="45.98708" lon="4.76184">
        <ele>184</ele>
        <time>2018-07-24T10:11:11Z</time>
      </trkpt>
      <trkpt lat="45.98706" lon="4.76195">
        <ele>184</ele>
        <time>2018-07-24T10:11:13Z</time>
      </trkpt>
      <trkpt lat="45.98705" lon="4.76202">
        <ele>184</ele>
        <time>2018-07-24T10:11:14Z</time>
      </trkpt>
      <trkpt lat="45.98702" lon="4.7621">
        <ele>184</ele>
        <time>2018-07-24T10:11:16Z</time>
      </trkpt>
      <trkpt lat="45.98698" lon="4.76216">
        <ele>184</ele>
        <time>2018-07-24T10:11:17Z</time>
      </trkpt>
      <trkpt lat="45.98691" lon="4.76221">
        <ele>184</ele>
        <time>2018-07-24T10:11:19Z</time>
      </trkpt>
      <trkpt lat="45.98686" lon="4.76221">
        <ele>184</ele>
        <time>2018-07-24T10:11:20Z</time>
      </trkpt>
      <trkpt lat="45.98682" lon="4.76222">
        <ele>184</ele>
        <time>2018-07-24T10:11:21Z</time>
      </trkpt>
      <trkpt lat="45.98677" lon="4.76222">
        <ele>184</ele>
        <time>2018-07-24T10:11:22Z</time>
      </trkpt>
      <trkpt lat="45.98673" lon="4.76223">
        <ele>184</ele>
        <time>2018-07-24T10:11:23Z</time>
      </trkpt>
      <trkpt lat="45.98667" lon="4.76222">
        <ele>184</ele>
        <time>2018-07-24T10:11:24Z</time>
      </trkpt>
      <trkpt lat="45.98659" lon="4.76222">
        <ele>185</ele>
        <time>2018-07-24T10:11:27Z</time>
      </trkpt>
      <trkpt lat="45.98655" lon="4.76221">
        <ele>185</ele>
        <time>2018-07-24T10:11:28Z</time>
      </trkpt>
      <trkpt lat="45.98649" lon="4.76223">
        <ele>185</ele>
        <time>2018-07-24T10:11:30Z</time>
      </trkpt>
      <trkpt lat="45.98646" lon="4.76223">
        <ele>185</ele>
        <time>2018-07-24T10:11:31Z</time>
      </trkpt>
      <trkpt lat="45.98638" lon="4.76222">
        <ele>186</ele>
        <time>2018-07-24T10:11:34Z</time>
      </trkpt>
      <trkpt lat="45.98635" lon="4.76221">
        <ele>186</ele>
        <time>2018-07-24T10:11:35Z</time>
      </trkpt>
      <trkpt lat="45.98629" lon="4.76217">
        <ele>186</ele>
        <time>2018-07-24T10:11:37Z</time>
      </trkpt>
      <trkpt lat="45.98626" lon="4.76215">
        <ele>186</ele>
        <time>2018-07-24T10:11:38Z</time>
      </trkpt>
      <trkpt lat="45.98618" lon="4.76212">
        <ele>186</ele>
        <time>2018-07-24T10:11:41Z</time>
      </trkpt>
      <trkpt lat="45.98615" lon="4.76211">
        <ele>186</ele>
        <time>2018-07-24T10:11:42Z</time>
      </trkpt>
      <trkpt lat="45.98608" lon="4.76217">
        <ele>187</ele>
        <time>2018-07-24T10:11:45Z</time>
      </trkpt>
      <trkpt lat="45.98607" lon="4.76221">
        <ele>187</ele>
        <time>2018-07-24T10:11:46Z</time>
      </trkpt>
      <trkpt lat="45.98606" lon="4.76225">
        <ele>187</ele>
        <time>2018-07-24T10:11:47Z</time>
      </trkpt>
      <trkpt lat="45.98603" lon="4.76238">
        <ele>187</ele>
        <time>2018-07-24T10:11:48Z</time>
      </trkpt>
      <trkpt lat="45.98602" lon="4.7625">
        <ele>187</ele>
        <time>2018-07-24T10:11:50Z</time>
      </trkpt>
      <trkpt lat="45.98602" lon="4.76257">
        <ele>187</ele>
        <time>2018-07-24T10:11:51Z</time>
      </trkpt>
      <trkpt lat="45.98602" lon="4.76263">
        <ele>187</ele>
        <time>2018-07-24T10:11:52Z</time>
      </trkpt>
      <trkpt lat="45.98601" lon="4.7627">
        <ele>187</ele>
        <time>2018-07-24T10:11:53Z</time>
      </trkpt>
      <trkpt lat="45.986" lon="4.76279">
        <ele>187</ele>
        <time>2018-07-24T10:11:54Z</time>
      </trkpt>
      <trkpt lat="45.98601" lon="4.76284">
        <ele>187</ele>
        <time>2018-07-24T10:11:55Z</time>
      </trkpt>
      <trkpt lat="45.986" lon="4.76291">
        <ele>187</ele>
        <time>2018-07-24T10:11:56Z</time>
      </trkpt>
      <trkpt lat="45.98599" lon="4.76297">
        <ele>187</ele>
        <time>2018-07-24T10:11:57Z</time>
      </trkpt>
      <trkpt lat="45.98599" lon="4.76304">
        <ele>187</ele>
        <time>2018-07-24T10:11:58Z</time>
      </trkpt>
      <trkpt lat="45.986" lon="4.76313">
        <ele>187</ele>
        <time>2018-07-24T10:11:59Z</time>
      </trkpt>
      <trkpt lat="45.98598" lon="4.76324">
        <ele>188</ele>
        <time>2018-07-24T10:12:01Z</time>
      </trkpt>
      <trkpt lat="45.98599" lon="4.7633">
        <ele>188</ele>
        <time>2018-07-24T10:12:02Z</time>
      </trkpt>
      <trkpt lat="45.986" lon="4.76341">
        <ele>188</ele>
        <time>2018-07-24T10:12:04Z</time>
      </trkpt>
      <trkpt lat="45.98603" lon="4.76347">
        <ele>188</ele>
        <time>2018-07-24T10:12:05Z</time>
      </trkpt>
      <trkpt lat="45.98606" lon="4.76359">
        <ele>188</ele>
        <time>2018-07-24T10:12:07Z</time>
      </trkpt>
      <trkpt lat="45.98607" lon="4.76365">
        <ele>188</ele>
        <time>2018-07-24T10:12:08Z</time>
      </trkpt>
      <trkpt lat="45.98608" lon="4.76371">
        <ele>188</ele>
        <time>2018-07-24T10:12:09Z</time>
      </trkpt>
      <trkpt lat="45.9861" lon="4.76377">
        <ele>188</ele>
        <time>2018-07-24T10:12:10Z</time>
      </trkpt>
      <trkpt lat="45.98614" lon="4.76388">
        <ele>188</ele>
        <time>2018-07-24T10:12:12Z</time>
      </trkpt>
      <trkpt lat="45.98617" lon="4.76394">
        <ele>188</ele>
        <time>2018-07-24T10:12:13Z</time>
      </trkpt>
      <trkpt lat="45.9862" lon="4.76399">
        <ele>188</ele>
        <time>2018-07-24T10:12:14Z</time>
      </trkpt>
      <trkpt lat="45.98623" lon="4.76405">
        <ele>188</ele>
        <time>2018-07-24T10:12:15Z</time>
      </trkpt>
      <trkpt lat="45.98627" lon="4.7641">
        <ele>188</ele>
        <time>2018-07-24T10:12:16Z</time>
      </trkpt>
      <trkpt lat="45.98631" lon="4.76414">
        <ele>188</ele>
        <time>2018-07-24T10:12:17Z</time>
      </trkpt>
      <trkpt lat="45.98634" lon="4.76418">
        <ele>189</ele>
        <time>2018-07-24T10:12:18Z</time>
      </trkpt>
      <trkpt lat="45.98638" lon="4.76422">
        <ele>188</ele>
        <time>2018-07-24T10:12:19Z</time>
      </trkpt>
      <trkpt lat="45.98642" lon="4.76426">
        <ele>188</ele>
        <time>2018-07-24T10:12:20Z</time>
      </trkpt>
      <trkpt lat="45.98647" lon="4.76427">
        <ele>188</ele>
        <time>2018-07-24T10:12:21Z</time>
      </trkpt>
      <trkpt lat="45.98652" lon="4.76432">
        <ele>188</ele>
        <time>2018-07-24T10:12:22Z</time>
      </trkpt>
      <trkpt lat="45.98658" lon="4.76436">
        <ele>188</ele>
        <time>2018-07-24T10:12:23Z</time>
      </trkpt>
      <trkpt lat="45.98663" lon="4.7644">
        <ele>188</ele>
        <time>2018-07-24T10:12:24Z</time>
      </trkpt>
      <trkpt lat="45.98667" lon="4.76444">
        <ele>187</ele>
        <time>2018-07-24T10:12:25Z</time>
      </trkpt>
      <trkpt lat="45.98671" lon="4.7645">
        <ele>187</ele>
        <time>2018-07-24T10:12:26Z</time>
      </trkpt>
      <trkpt lat="45.98676" lon="4.76455">
        <ele>187</ele>
        <time>2018-07-24T10:12:27Z</time>
      </trkpt>
      <trkpt lat="45.98683" lon="4.76458">
        <ele>187</ele>
        <time>2018-07-24T10:12:28Z</time>
      </trkpt>
      <trkpt lat="45.98687" lon="4.76462">
        <ele>187</ele>
        <time>2018-07-24T10:12:29Z</time>
      </trkpt>
      <trkpt lat="45.98693" lon="4.76465">
        <ele>187</ele>
        <time>2018-07-24T10:12:30Z</time>
      </trkpt>
      <trkpt lat="45.98698" lon="4.76469">
        <ele>187</ele>
        <time>2018-07-24T10:12:31Z</time>
      </trkpt>
      <trkpt lat="45.98701" lon="4.76475">
        <ele>187</ele>
        <time>2018-07-24T10:12:32Z</time>
      </trkpt>
      <trkpt lat="45.98708" lon="4.76477">
        <ele>187</ele>
        <time>2018-07-24T10:12:33Z</time>
      </trkpt>
      <trkpt lat="45.98713" lon="4.76481">
        <ele>187</ele>
        <time>2018-07-24T10:12:34Z</time>
      </trkpt>
      <trkpt lat="45.98716" lon="4.76486">
        <ele>187</ele>
        <time>2018-07-24T10:12:35Z</time>
      </trkpt>
      <trkpt lat="45.98722" lon="4.76493">
        <ele>187</ele>
        <time>2018-07-24T10:12:37Z</time>
      </trkpt>
      <trkpt lat="45.98725" lon="4.76497">
        <ele>188</ele>
        <time>2018-07-24T10:12:38Z</time>
      </trkpt>
      <trkpt lat="45.98728" lon="4.76501">
        <ele>188</ele>
        <time>2018-07-24T10:12:39Z</time>
      </trkpt>
      <trkpt lat="45.98733" lon="4.76504">
        <ele>188</ele>
        <time>2018-07-24T10:12:40Z</time>
      </trkpt>
      <trkpt lat="45.98737" lon="4.76508">
        <ele>188</ele>
        <time>2018-07-24T10:12:41Z</time>
      </trkpt>
      <trkpt lat="45.98741" lon="4.76511">
        <ele>188</ele>
        <time>2018-07-24T10:12:42Z</time>
      </trkpt>
      <trkpt lat="45.98748" lon="4.76519">
        <ele>188</ele>
        <time>2018-07-24T10:12:44Z</time>
      </trkpt>
      <trkpt lat="45.98752" lon="4.76521">
        <ele>190</ele>
        <time>2018-07-24T10:12:45Z</time>
      </trkpt>
      <trkpt lat="45.98754" lon="4.76523">
        <ele>190</ele>
        <time>2018-07-24T10:12:46Z</time>
      </trkpt>
      <trkpt lat="45.9876" lon="4.76529">
        <ele>190</ele>
        <time>2018-07-24T10:12:47Z</time>
      </trkpt>
      <trkpt lat="45.98763" lon="4.76535">
        <ele>191</ele>
        <time>2018-07-24T10:12:48Z</time>
      </trkpt>
      <trkpt lat="45.98768" lon="4.76538">
        <ele>191</ele>
        <time>2018-07-24T10:12:49Z</time>
      </trkpt>
      <trkpt lat="45.98774" lon="4.76547">
        <ele>191</ele>
        <time>2018-07-24T10:12:51Z</time>
      </trkpt>
      <trkpt lat="45.98778" lon="4.76551">
        <ele>191</ele>
        <time>2018-07-24T10:12:52Z</time>
      </trkpt>
      <trkpt lat="45.98784" lon="4.76557">
        <ele>191</ele>
        <time>2018-07-24T10:12:54Z</time>
      </trkpt>
      <trkpt lat="45.98787" lon="4.76561">
        <ele>191</ele>
        <time>2018-07-24T10:12:55Z</time>
      </trkpt>
      <trkpt lat="45.98794" lon="4.76568">
        <ele>192</ele>
        <time>2018-07-24T10:12:57Z</time>
      </trkpt>
      <trkpt lat="45.98797" lon="4.76571">
        <ele>192</ele>
        <time>2018-07-24T10:12:58Z</time>
      </trkpt>
      <trkpt lat="45.98804" lon="4.76578">
        <ele>192</ele>
        <time>2018-07-24T10:13:00Z</time>
      </trkpt>
      <trkpt lat="45.98807" lon="4.76581">
        <ele>193</ele>
        <time>2018-07-24T10:13:01Z</time>
      </trkpt>
      <trkpt lat="45.98814" lon="4.76587">
        <ele>193</ele>
        <time>2018-07-24T10:13:03Z</time>
      </trkpt>
      <trkpt lat="45.98817" lon="4.7659">
        <ele>193</ele>
        <time>2018-07-24T10:13:04Z</time>
      </trkpt>
      <trkpt lat="45.98823" lon="4.76596">
        <ele>193</ele>
        <time>2018-07-24T10:13:06Z</time>
      </trkpt>
      <trkpt lat="45.98826" lon="4.76599">
        <ele>193</ele>
        <time>2018-07-24T10:13:07Z</time>
      </trkpt>
      <trkpt lat="45.98832" lon="4.76604">
        <ele>193</ele>
        <time>2018-07-24T10:13:10Z</time>
      </trkpt>
      <trkpt lat="45.98834" lon="4.76606">
        <ele>196</ele>
        <time>2018-07-24T10:13:11Z</time>
      </trkpt>
      <trkpt lat="45.98841" lon="4.76613">
        <ele>196</ele>
        <time>2018-07-24T10:13:14Z</time>
      </trkpt>
      <trkpt lat="45.98844" lon="4.76616">
        <ele>196</ele>
        <time>2018-07-24T10:13:15Z</time>
      </trkpt>
      <trkpt lat="45.98851" lon="4.76625">
        <ele>196</ele>
        <time>2018-07-24T10:13:16Z</time>
      </trkpt>
      <trkpt lat="45.98858" lon="4.76631">
        <ele>196</ele>
        <time>2018-07-24T10:13:18Z</time>
      </trkpt>
      <trkpt lat="45.98862" lon="4.76633">
        <ele>196</ele>
        <time>2018-07-24T10:13:19Z</time>
      </trkpt>
      <trkpt lat="45.98868" lon="4.76639">
        <ele>196</ele>
        <time>2018-07-24T10:13:21Z</time>
      </trkpt>
      <trkpt lat="45.98872" lon="4.76642">
        <ele>196</ele>
        <time>2018-07-24T10:13:22Z</time>
      </trkpt>
      <trkpt lat="45.98878" lon="4.76648">
        <ele>196</ele>
        <time>2018-07-24T10:13:24Z</time>
      </trkpt>
      <trkpt lat="45.98881" lon="4.76651">
        <ele>196</ele>
        <time>2018-07-24T10:13:25Z</time>
      </trkpt>
      <trkpt lat="45.98887" lon="4.76657">
        <ele>196</ele>
        <time>2018-07-24T10:13:27Z</time>
      </trkpt>
      <trkpt lat="45.9889" lon="4.7666">
        <ele>196</ele>
        <time>2018-07-24T10:13:28Z</time>
      </trkpt>
      <trkpt lat="45.98896" lon="4.76666">
        <ele>197</ele>
        <time>2018-07-24T10:13:30Z</time>
      </trkpt>
      <trkpt lat="45.98899" lon="4.76669">
        <ele>195</ele>
        <time>2018-07-24T10:13:31Z</time>
      </trkpt>
      <trkpt lat="45.98905" lon="4.76676">
        <ele>195</ele>
        <time>2018-07-24T10:13:33Z</time>
      </trkpt>
      <trkpt lat="45.98909" lon="4.76679">
        <ele>195</ele>
        <time>2018-07-24T10:13:34Z</time>
      </trkpt>
      <trkpt lat="45.98915" lon="4.76686">
        <ele>195</ele>
        <time>2018-07-24T10:13:36Z</time>
      </trkpt>
      <trkpt lat="45.98919" lon="4.7669">
        <ele>198</ele>
        <time>2018-07-24T10:13:37Z</time>
      </trkpt>
      <trkpt lat="45.98926" lon="4.76696">
        <ele>198</ele>
        <time>2018-07-24T10:13:39Z</time>
      </trkpt>
      <trkpt lat="45.9893" lon="4.76699">
        <ele>198</ele>
        <time>2018-07-24T10:13:40Z</time>
      </trkpt>
      <trkpt lat="45.98936" lon="4.76705">
        <ele>198</ele>
        <time>2018-07-24T10:13:42Z</time>
      </trkpt>
      <trkpt lat="45.98939" lon="4.76709">
        <ele>198</ele>
        <time>2018-07-24T10:13:43Z</time>
      </trkpt>
      <trkpt lat="45.98945" lon="4.76716">
        <ele>198</ele>
        <time>2018-07-24T10:13:45Z</time>
      </trkpt>
      <trkpt lat="45.98949" lon="4.76719">
        <ele>198</ele>
        <time>2018-07-24T10:13:46Z</time>
      </trkpt>
      <trkpt lat="45.98954" lon="4.76721">
        <ele>198</ele>
        <time>2018-07-24T10:13:47Z</time>
      </trkpt>
      <trkpt lat="45.98957" lon="4.76725">
        <ele>198</ele>
        <time>2018-07-24T10:13:48Z</time>
      </trkpt>
      <trkpt lat="45.98961" lon="4.76729">
        <ele>198</ele>
        <time>2018-07-24T10:13:49Z</time>
      </trkpt>
      <trkpt lat="45.98965" lon="4.76732">
        <ele>198</ele>
        <time>2018-07-24T10:13:50Z</time>
      </trkpt>
      <trkpt lat="45.98971" lon="4.76739">
        <ele>198</ele>
        <time>2018-07-24T10:13:52Z</time>
      </trkpt>
      <trkpt lat="45.98975" lon="4.76744">
        <ele>199</ele>
        <time>2018-07-24T10:13:53Z</time>
      </trkpt>
      <trkpt lat="45.98978" lon="4.7675">
        <ele>199</ele>
        <time>2018-07-24T10:13:54Z</time>
      </trkpt>
      <trkpt lat="45.98982" lon="4.76755">
        <ele>197</ele>
        <time>2018-07-24T10:13:55Z</time>
      </trkpt>
      <trkpt lat="45.98983" lon="4.76764">
        <ele>197</ele>
        <time>2018-07-24T10:13:56Z</time>
      </trkpt>
      <trkpt lat="45.98986" lon="4.76769">
        <ele>197</ele>
        <time>2018-07-24T10:13:57Z</time>
      </trkpt>
      <trkpt lat="45.9899" lon="4.76775">
        <ele>197</ele>
        <time>2018-07-24T10:13:58Z</time>
      </trkpt>
      <trkpt lat="45.98992" lon="4.76781">
        <ele>197</ele>
        <time>2018-07-24T10:13:59Z</time>
      </trkpt>
      <trkpt lat="45.98993" lon="4.7679">
        <ele>197</ele>
        <time>2018-07-24T10:14:00Z</time>
      </trkpt>
      <trkpt lat="45.98995" lon="4.76794">
        <ele>197</ele>
        <time>2018-07-24T10:14:01Z</time>
      </trkpt>
      <trkpt lat="45.99" lon="4.76805">
        <ele>197</ele>
        <time>2018-07-24T10:14:03Z</time>
      </trkpt>
      <trkpt lat="45.99001" lon="4.7681">
        <ele>201</ele>
        <time>2018-07-24T10:14:04Z</time>
      </trkpt>
      <trkpt lat="45.99005" lon="4.7682">
        <ele>200</ele>
        <time>2018-07-24T10:14:06Z</time>
      </trkpt>
      <trkpt lat="45.99008" lon="4.76827">
        <ele>200</ele>
        <time>2018-07-24T10:14:07Z</time>
      </trkpt>
      <trkpt lat="45.9901" lon="4.76832">
        <ele>200</ele>
        <time>2018-07-24T10:14:08Z</time>
      </trkpt>
      <trkpt lat="45.99014" lon="4.76839">
        <ele>199</ele>
        <time>2018-07-24T10:14:09Z</time>
      </trkpt>
      <trkpt lat="45.99018" lon="4.76849">
        <ele>199</ele>
        <time>2018-07-24T10:14:11Z</time>
      </trkpt>
      <trkpt lat="45.99019" lon="4.76853">
        <ele>199</ele>
        <time>2018-07-24T10:14:12Z</time>
      </trkpt>
      <trkpt lat="45.99023" lon="4.76862">
        <ele>199</ele>
        <time>2018-07-24T10:14:14Z</time>
      </trkpt>
      <trkpt lat="45.99025" lon="4.76867">
        <ele>199</ele>
        <time>2018-07-24T10:14:15Z</time>
      </trkpt>
      <trkpt lat="45.9903" lon="4.76878">
        <ele>199</ele>
        <time>2018-07-24T10:14:17Z</time>
      </trkpt>
      <trkpt lat="45.99033" lon="4.76883">
        <ele>199</ele>
        <time>2018-07-24T10:14:18Z</time>
      </trkpt>
      <trkpt lat="45.99036" lon="4.76888">
        <ele>199</ele>
        <time>2018-07-24T10:14:19Z</time>
      </trkpt>
      <trkpt lat="45.99038" lon="4.76893">
        <ele>199</ele>
        <time>2018-07-24T10:14:20Z</time>
      </trkpt>
      <trkpt lat="45.99042" lon="4.76903">
        <ele>199</ele>
        <time>2018-07-24T10:14:22Z</time>
      </trkpt>
      <trkpt lat="45.99045" lon="4.76908">
        <ele>199</ele>
        <time>2018-07-24T10:14:23Z</time>
      </trkpt>
      <trkpt lat="45.99049" lon="4.7692">
        <ele>198</ele>
        <time>2018-07-24T10:14:25Z</time>
      </trkpt>
      <trkpt lat="45.99051" lon="4.76924">
        <ele>198</ele>
        <time>2018-07-24T10:14:26Z</time>
      </trkpt>
      <trkpt lat="45.99055" lon="4.76929">
        <ele>198</ele>
        <time>2018-07-24T10:14:27Z</time>
      </trkpt>
      <trkpt lat="45.99058" lon="4.76934">
        <ele>198</ele>
        <time>2018-07-24T10:14:28Z</time>
      </trkpt>
      <trkpt lat="45.9906" lon="4.7694">
        <ele>198</ele>
        <time>2018-07-24T10:14:29Z</time>
      </trkpt>
      <trkpt lat="45.99062" lon="4.76946">
        <ele>198</ele>
        <time>2018-07-24T10:14:30Z</time>
      </trkpt>
      <trkpt lat="45.99067" lon="4.76951">
        <ele>198</ele>
        <time>2018-07-24T10:14:31Z</time>
      </trkpt>
      <trkpt lat="45.99069" lon="4.76955">
        <ele>198</ele>
        <time>2018-07-24T10:14:32Z</time>
      </trkpt>
      <trkpt lat="45.99072" lon="4.76961">
        <ele>198</ele>
        <time>2018-07-24T10:14:33Z</time>
      </trkpt>
      <trkpt lat="45.99074" lon="4.76967">
        <ele>198</ele>
        <time>2018-07-24T10:14:34Z</time>
      </trkpt>
      <trkpt lat="45.99077" lon="4.76972">
        <ele>198</ele>
        <time>2018-07-24T10:14:35Z</time>
      </trkpt>
      <trkpt lat="45.99081" lon="4.76976">
        <ele>198</ele>
        <time>2018-07-24T10:14:36Z</time>
      </trkpt>
      <trkpt lat="45.99087" lon="4.76984">
        <ele>201</ele>
        <time>2018-07-24T10:14:38Z</time>
      </trkpt>
      <trkpt lat="45.9909" lon="4.76989">
        <ele>201</ele>
        <time>2018-07-24T10:14:39Z</time>
      </trkpt>
      <trkpt lat="45.99093" lon="4.76997">
        <ele>201</ele>
        <time>2018-07-24T10:14:40Z</time>
      </trkpt>
      <trkpt lat="45.99096" lon="4.77002">
        <ele>200</ele>
        <time>2018-07-24T10:14:41Z</time>
      </trkpt>
      <trkpt lat="45.991" lon="4.77013">
        <ele>201</ele>
        <time>2018-07-24T10:14:43Z</time>
      </trkpt>
      <trkpt lat="45.99103" lon="4.77018">
        <ele>201</ele>
        <time>2018-07-24T10:14:44Z</time>
      </trkpt>
      <trkpt lat="45.99105" lon="4.7703">
        <ele>202</ele>
        <time>2018-07-24T10:14:46Z</time>
      </trkpt>
      <trkpt lat="45.99107" lon="4.77034">
        <ele>202</ele>
        <time>2018-07-24T10:14:47Z</time>
      </trkpt>
      <trkpt lat="45.99111" lon="4.77044">
        <ele>202</ele>
        <time>2018-07-24T10:14:49Z</time>
      </trkpt>
      <trkpt lat="45.99113" lon="4.77048">
        <ele>202</ele>
        <time>2018-07-24T10:14:50Z</time>
      </trkpt>
      <trkpt lat="45.99115" lon="4.77058">
        <ele>202</ele>
        <time>2018-07-24T10:14:52Z</time>
      </trkpt>
      <trkpt lat="45.99118" lon="4.77065">
        <ele>202</ele>
        <time>2018-07-24T10:14:53Z</time>
      </trkpt>
      <trkpt lat="45.99122" lon="4.77075">
        <ele>202</ele>
        <time>2018-07-24T10:14:55Z</time>
      </trkpt>
      <trkpt lat="45.99123" lon="4.77078">
        <ele>202</ele>
        <time>2018-07-24T10:14:56Z</time>
      </trkpt>
      <trkpt lat="45.99125" lon="4.77084">
        <ele>201</ele>
        <time>2018-07-24T10:14:58Z</time>
      </trkpt>
      <trkpt lat="45.99128" lon="4.77094">
        <ele>201</ele>
        <time>2018-07-24T10:14:59Z</time>
      </trkpt>
      <trkpt lat="45.99131" lon="4.77104">
        <ele>201</ele>
        <time>2018-07-24T10:15:01Z</time>
      </trkpt>
      <trkpt lat="45.99133" lon="4.77109">
        <ele>201</ele>
        <time>2018-07-24T10:15:02Z</time>
      </trkpt>
      <trkpt lat="45.99136" lon="4.77121">
        <ele>201</ele>
        <time>2018-07-24T10:15:04Z</time>
      </trkpt>
      <trkpt lat="45.99137" lon="4.77126">
        <ele>201</ele>
        <time>2018-07-24T10:15:05Z</time>
      </trkpt>
      <trkpt lat="45.9914" lon="4.77137">
        <ele>201</ele>
        <time>2018-07-24T10:15:07Z</time>
      </trkpt>
      <trkpt lat="45.99141" lon="4.77139">
        <ele>201</ele>
        <time>2018-07-24T10:15:08Z</time>
      </trkpt>
      <trkpt lat="45.99143" lon="4.77146">
        <ele>201</ele>
        <time>2018-07-24T10:15:09Z</time>
      </trkpt>
      <trkpt lat="45.99145" lon="4.77152">
        <ele>201</ele>
        <time>2018-07-24T10:15:10Z</time>
      </trkpt>
      <trkpt lat="45.99148" lon="4.77162">
        <ele>201</ele>
        <time>2018-07-24T10:15:12Z</time>
      </trkpt>
      <trkpt lat="45.9915" lon="4.77167">
        <ele>200</ele>
        <time>2018-07-24T10:15:13Z</time>
      </trkpt>
      <trkpt lat="45.99153" lon="4.77179">
        <ele>200</ele>
        <time>2018-07-24T10:15:15Z</time>
      </trkpt>
      <trkpt lat="45.99155" lon="4.77185">
        <ele>200</ele>
        <time>2018-07-24T10:15:16Z</time>
      </trkpt>
      <trkpt lat="45.99158" lon="4.77196">
        <ele>200</ele>
        <time>2018-07-24T10:15:18Z</time>
      </trkpt>
      <trkpt lat="45.99159" lon="4.77202">
        <ele>200</ele>
        <time>2018-07-24T10:15:19Z</time>
      </trkpt>
      <trkpt lat="45.99162" lon="4.77214">
        <ele>200</ele>
        <time>2018-07-24T10:15:21Z</time>
      </trkpt>
      <trkpt lat="45.99163" lon="4.7722">
        <ele>200</ele>
        <time>2018-07-24T10:15:22Z</time>
      </trkpt>
      <trkpt lat="45.99163" lon="4.77232">
        <ele>200</ele>
        <time>2018-07-24T10:15:24Z</time>
      </trkpt>
      <trkpt lat="45.99162" lon="4.77239">
        <ele>200</ele>
        <time>2018-07-24T10:15:25Z</time>
      </trkpt>
      <trkpt lat="45.9916" lon="4.77251">
        <ele>200</ele>
        <time>2018-07-24T10:15:27Z</time>
      </trkpt>
      <trkpt lat="45.99159" lon="4.77257">
        <ele>200</ele>
        <time>2018-07-24T10:15:28Z</time>
      </trkpt>
      <trkpt lat="45.99157" lon="4.77268">
        <ele>200</ele>
        <time>2018-07-24T10:15:30Z</time>
      </trkpt>
      <trkpt lat="45.99156" lon="4.77276">
        <ele>200</ele>
        <time>2018-07-24T10:15:31Z</time>
      </trkpt>
      <trkpt lat="45.99155" lon="4.77282">
        <ele>200</ele>
        <time>2018-07-24T10:15:32Z</time>
      </trkpt>
      <trkpt lat="45.99152" lon="4.77288">
        <ele>200</ele>
        <time>2018-07-24T10:15:33Z</time>
      </trkpt>
      <trkpt lat="45.99152" lon="4.77299">
        <ele>200</ele>
        <time>2018-07-24T10:15:35Z</time>
      </trkpt>
      <trkpt lat="45.99151" lon="4.77306">
        <ele>200</ele>
        <time>2018-07-24T10:15:36Z</time>
      </trkpt>
      <trkpt lat="45.9915" lon="4.77318">
        <ele>200</ele>
        <time>2018-07-24T10:15:38Z</time>
      </trkpt>
      <trkpt lat="45.99151" lon="4.77321">
        <ele>200</ele>
        <time>2018-07-24T10:15:39Z</time>
      </trkpt>
      <trkpt lat="45.99151" lon="4.77329">
        <ele>201</ele>
        <time>2018-07-24T10:15:40Z</time>
      </trkpt>
      <trkpt lat="45.99149" lon="4.77334">
        <ele>201</ele>
        <time>2018-07-24T10:15:41Z</time>
      </trkpt>
      <trkpt lat="45.99148" lon="4.77339">
        <ele>201</ele>
        <time>2018-07-24T10:15:43Z</time>
      </trkpt>
      <trkpt lat="45.99143" lon="4.77345">
        <ele>201</ele>
        <time>2018-07-24T10:15:44Z</time>
      </trkpt>
      <trkpt lat="45.99135" lon="4.77348">
        <ele>201</ele>
        <time>2018-07-24T10:15:46Z</time>
      </trkpt>
      <trkpt lat="45.99132" lon="4.77348">
        <ele>201</ele>
        <time>2018-07-24T10:15:47Z</time>
      </trkpt>
      <trkpt lat="45.99124" lon="4.77352">
        <ele>201</ele>
        <time>2018-07-24T10:15:49Z</time>
      </trkpt>
      <trkpt lat="45.9912" lon="4.77354">
        <ele>201</ele>
        <time>2018-07-24T10:15:50Z</time>
      </trkpt>
      <trkpt lat="45.99112" lon="4.77357">
        <ele>201</ele>
        <time>2018-07-24T10:15:52Z</time>
      </trkpt>
      <trkpt lat="45.99108" lon="4.77359">
        <ele>201</ele>
        <time>2018-07-24T10:15:53Z</time>
      </trkpt>
      <trkpt lat="45.991" lon="4.7736">
        <ele>201</ele>
        <time>2018-07-24T10:15:55Z</time>
      </trkpt>
      <trkpt lat="45.99096" lon="4.7736">
        <ele>201</ele>
        <time>2018-07-24T10:15:56Z</time>
      </trkpt>
      <trkpt lat="45.99088" lon="4.77362">
        <ele>201</ele>
        <time>2018-07-24T10:15:58Z</time>
      </trkpt>
      <trkpt lat="45.99084" lon="4.77362">
        <ele>201</ele>
        <time>2018-07-24T10:15:59Z</time>
      </trkpt>
      <trkpt lat="45.99076" lon="4.77361">
        <ele>200</ele>
        <time>2018-07-24T10:16:01Z</time>
      </trkpt>
      <trkpt lat="45.99071" lon="4.77361">
        <ele>200</ele>
        <time>2018-07-24T10:16:02Z</time>
      </trkpt>
      <trkpt lat="45.99063" lon="4.7736">
        <ele>200</ele>
        <time>2018-07-24T10:16:04Z</time>
      </trkpt>
      <trkpt lat="45.99061" lon="4.77359">
        <ele>200</ele>
        <time>2018-07-24T10:16:05Z</time>
      </trkpt>
      <trkpt lat="45.99053" lon="4.77356">
        <ele>200</ele>
        <time>2018-07-24T10:16:11Z</time>
      </trkpt>
      <trkpt lat="45.99052" lon="4.77355">
        <ele>200</ele>
        <time>2018-07-24T10:16:12Z</time>
      </trkpt>
      <trkpt lat="45.99051" lon="4.7735">
        <ele>200</ele>
        <time>2018-07-24T10:16:29Z</time>
      </trkpt>
      <trkpt lat="45.9905" lon="4.7735">
        <ele>200</ele>
        <time>2018-07-24T10:16:30Z</time>
      </trkpt>
      <trkpt lat="45.9905" lon="4.7735">
        <ele>200</ele>
        <time>2018-07-24T10:16:31Z</time>
      </trkpt>
      <trkpt lat="45.99042" lon="4.77354">
        <ele>200</ele>
        <time>2018-07-24T10:18:15Z</time>
      </trkpt>
      <trkpt lat="45.9904" lon="4.77355">
        <ele>200</ele>
        <time>2018-07-24T10:18:16Z</time>
      </trkpt>
      <trkpt lat="45.99033" lon="4.77363">
        <ele>200</ele>
        <time>2018-07-24T10:18:21Z</time>
      </trkpt>
      <trkpt lat="45.99032" lon="4.77364">
        <ele>200</ele>
        <time>2018-07-24T10:18:22Z</time>
      </trkpt>
      <trkpt lat="45.99023" lon="4.77368">
        <ele>200</ele>
        <time>2018-07-24T10:18:26Z</time>
      </trkpt>
      <trkpt lat="45.99021" lon="4.77369">
        <ele>200</ele>
        <time>2018-07-24T10:18:27Z</time>
      </trkpt>
      <trkpt lat="45.99013" lon="4.77373">
        <ele>200</ele>
        <time>2018-07-24T10:18:30Z</time>
      </trkpt>
      <trkpt lat="45.99004" lon="4.77379">
        <ele>201</ele>
        <time>2018-07-24T10:18:31Z</time>
      </trkpt>
      <trkpt lat="45.98997" lon="4.77383">
        <ele>202</ele>
        <time>2018-07-24T10:18:33Z</time>
      </trkpt>
      <trkpt lat="45.98995" lon="4.77384">
        <ele>202</ele>
        <time>2018-07-24T10:18:34Z</time>
      </trkpt>
      <trkpt lat="45.98987" lon="4.77388">
        <ele>202</ele>
        <time>2018-07-24T10:18:36Z</time>
      </trkpt>
      <trkpt lat="45.98985" lon="4.77389">
        <ele>202</ele>
        <time>2018-07-24T10:18:37Z</time>
      </trkpt>
      <trkpt lat="45.98978" lon="4.77391">
        <ele>202</ele>
        <time>2018-07-24T10:18:39Z</time>
      </trkpt>
      <trkpt lat="45.98976" lon="4.77392">
        <ele>202</ele>
        <time>2018-07-24T10:18:40Z</time>
      </trkpt>
      <trkpt lat="45.98969" lon="4.77396">
        <ele>202</ele>
        <time>2018-07-24T10:18:43Z</time>
      </trkpt>
      <trkpt lat="45.98966" lon="4.77398">
        <ele>202</ele>
        <time>2018-07-24T10:18:44Z</time>
      </trkpt>
      <trkpt lat="45.9896" lon="4.77401">
        <ele>202</ele>
        <time>2018-07-24T10:18:46Z</time>
      </trkpt>
      <trkpt lat="45.98957" lon="4.77403">
        <ele>202</ele>
        <time>2018-07-24T10:18:47Z</time>
      </trkpt>
      <trkpt lat="45.98951" lon="4.77406">
        <ele>203</ele>
        <time>2018-07-24T10:18:49Z</time>
      </trkpt>
      <trkpt lat="45.98948" lon="4.77408">
        <ele>203</ele>
        <time>2018-07-24T10:18:50Z</time>
      </trkpt>
      <trkpt lat="45.98942" lon="4.7741">
        <ele>203</ele>
        <time>2018-07-24T10:18:52Z</time>
      </trkpt>
      <trkpt lat="45.98939" lon="4.77412">
        <ele>203</ele>
        <time>2018-07-24T10:18:53Z</time>
      </trkpt>
      <trkpt lat="45.98932" lon="4.77416">
        <ele>204</ele>
        <time>2018-07-24T10:18:56Z</time>
      </trkpt>
      <trkpt lat="45.98929" lon="4.77417">
        <ele>205</ele>
        <time>2018-07-24T10:18:57Z</time>
      </trkpt>
      <trkpt lat="45.98922" lon="4.77421">
        <ele>205</ele>
        <time>2018-07-24T10:19:00Z</time>
      </trkpt>
      <trkpt lat="45.9892" lon="4.77421">
        <ele>205</ele>
        <time>2018-07-24T10:19:01Z</time>
      </trkpt>
      <trkpt lat="45.98913" lon="4.77423">
        <ele>206</ele>
        <time>2018-07-24T10:19:04Z</time>
      </trkpt>
      <trkpt lat="45.98911" lon="4.77423">
        <ele>206</ele>
        <time>2018-07-24T10:19:05Z</time>
      </trkpt>
      <trkpt lat="45.98902" lon="4.77424">
        <ele>207</ele>
        <time>2018-07-24T10:19:09Z</time>
      </trkpt>
      <trkpt lat="45.989" lon="4.77425">
        <ele>207</ele>
        <time>2018-07-24T10:19:10Z</time>
      </trkpt>
      <trkpt lat="45.98893" lon="4.77428">
        <ele>207</ele>
        <time>2018-07-24T10:19:13Z</time>
      </trkpt>
      <trkpt lat="45.98891" lon="4.77429">
        <ele>207</ele>
        <time>2018-07-24T10:19:14Z</time>
      </trkpt>
      <trkpt lat="45.98883" lon="4.77433">
        <ele>208</ele>
        <time>2018-07-24T10:19:18Z</time>
      </trkpt>
      <trkpt lat="45.98881" lon="4.77434">
        <ele>208</ele>
        <time>2018-07-24T10:19:19Z</time>
      </trkpt>
      <trkpt lat="45.98874" lon="4.77438">
        <ele>208</ele>
        <time>2018-07-24T10:19:22Z</time>
      </trkpt>
      <trkpt lat="45.98872" lon="4.7744">
        <ele>208</ele>
        <time>2018-07-24T10:19:23Z</time>
      </trkpt>
      <trkpt lat="45.98865" lon="4.77444">
        <ele>209</ele>
        <time>2018-07-24T10:19:26Z</time>
      </trkpt>
      <trkpt lat="45.98863" lon="4.77446">
        <ele>209</ele>
        <time>2018-07-24T10:19:27Z</time>
      </trkpt>
      <trkpt lat="45.98854" lon="4.77449">
        <ele>209</ele>
        <time>2018-07-24T10:19:31Z</time>
      </trkpt>
      <trkpt lat="45.98852" lon="4.77451">
        <ele>209</ele>
        <time>2018-07-24T10:19:32Z</time>
      </trkpt>
      <trkpt lat="45.98844" lon="4.77454">
        <ele>209</ele>
        <time>2018-07-24T10:19:36Z</time>
      </trkpt>
      <trkpt lat="45.98842" lon="4.77455">
        <ele>210</ele>
        <time>2018-07-24T10:19:37Z</time>
      </trkpt>
      <trkpt lat="45.98835" lon="4.77461">
        <ele>210</ele>
        <time>2018-07-24T10:19:41Z</time>
      </trkpt>
      <trkpt lat="45.98834" lon="4.77463">
        <ele>210</ele>
        <time>2018-07-24T10:19:42Z</time>
      </trkpt>
      <trkpt lat="45.98829" lon="4.77471">
        <ele>213</ele>
        <time>2018-07-24T10:19:46Z</time>
      </trkpt>
      <trkpt lat="45.98828" lon="4.77473">
        <ele>213</ele>
        <time>2018-07-24T10:19:47Z</time>
      </trkpt>
      <trkpt lat="45.98825" lon="4.77485">
        <ele>214</ele>
        <time>2018-07-24T10:19:53Z</time>
      </trkpt>
      <trkpt lat="45.98825" lon="4.77487">
        <ele>214</ele>
        <time>2018-07-24T10:19:54Z</time>
      </trkpt>
      <trkpt lat="45.98819" lon="4.77495">
        <ele>214</ele>
        <time>2018-07-24T10:19:59Z</time>
      </trkpt>
      <trkpt lat="45.98818" lon="4.77497">
        <ele>214</ele>
        <time>2018-07-24T10:20:00Z</time>
      </trkpt>
      <trkpt lat="45.98814" lon="4.77507">
        <ele>216</ele>
        <time>2018-07-24T10:20:04Z</time>
      </trkpt>
      <trkpt lat="45.98813" lon="4.7751">
        <ele>216</ele>
        <time>2018-07-24T10:20:05Z</time>
      </trkpt>
      <trkpt lat="45.98807" lon="4.77519">
        <ele>217</ele>
        <time>2018-07-24T10:20:10Z</time>
      </trkpt>
      <trkpt lat="45.98806" lon="4.77521">
        <ele>217</ele>
        <time>2018-07-24T10:20:11Z</time>
      </trkpt>
      <trkpt lat="45.988" lon="4.77531">
        <ele>217</ele>
        <time>2018-07-24T10:20:15Z</time>
      </trkpt>
      <trkpt lat="45.98798" lon="4.77533">
        <ele>217</ele>
        <time>2018-07-24T10:20:16Z</time>
      </trkpt>
      <trkpt lat="45.98791" lon="4.7754">
        <ele>217</ele>
        <time>2018-07-24T10:20:20Z</time>
      </trkpt>
      <trkpt lat="45.98789" lon="4.77542">
        <ele>217</ele>
        <time>2018-07-24T10:20:21Z</time>
      </trkpt>
      <trkpt lat="45.98784" lon="4.7755">
        <ele>218</ele>
        <time>2018-07-24T10:20:25Z</time>
      </trkpt>
      <trkpt lat="45.98782" lon="4.77552">
        <ele>218</ele>
        <time>2018-07-24T10:20:26Z</time>
      </trkpt>
      <trkpt lat="45.98776" lon="4.77559">
        <ele>218</ele>
        <time>2018-07-24T10:20:30Z</time>
      </trkpt>
      <trkpt lat="45.98775" lon="4.77561">
        <ele>218</ele>
        <time>2018-07-24T10:20:31Z</time>
      </trkpt>
      <trkpt lat="45.98769" lon="4.77567">
        <ele>218</ele>
        <time>2018-07-24T10:20:35Z</time>
      </trkpt>
      <trkpt lat="45.98767" lon="4.77568">
        <ele>218</ele>
        <time>2018-07-24T10:20:36Z</time>
      </trkpt>
      <trkpt lat="45.9876" lon="4.77573">
        <ele>219</ele>
        <time>2018-07-24T10:20:40Z</time>
      </trkpt>
      <trkpt lat="45.98758" lon="4.77575">
        <ele>219</ele>
        <time>2018-07-24T10:20:41Z</time>
      </trkpt>
      <trkpt lat="45.98751" lon="4.77582">
        <ele>220</ele>
        <time>2018-07-24T10:20:45Z</time>
      </trkpt>
      <trkpt lat="45.9875" lon="4.77583">
        <ele>220</ele>
        <time>2018-07-24T10:20:46Z</time>
      </trkpt>
      <trkpt lat="45.98742" lon="4.77589">
        <ele>221</ele>
        <time>2018-07-24T10:20:50Z</time>
      </trkpt>
      <trkpt lat="45.9874" lon="4.7759">
        <ele>221</ele>
        <time>2018-07-24T10:20:51Z</time>
      </trkpt>
      <trkpt lat="45.98733" lon="4.77595">
        <ele>222</ele>
        <time>2018-07-24T10:20:55Z</time>
      </trkpt>
      <trkpt lat="45.98731" lon="4.77597">
        <ele>222</ele>
        <time>2018-07-24T10:20:56Z</time>
      </trkpt>
      <trkpt lat="45.98724" lon="4.77604">
        <ele>223</ele>
        <time>2018-07-24T10:21:00Z</time>
      </trkpt>
      <trkpt lat="45.98723" lon="4.77606">
        <ele>223</ele>
        <time>2018-07-24T10:21:01Z</time>
      </trkpt>
      <trkpt lat="45.98716" lon="4.77613">
        <ele>223</ele>
        <time>2018-07-24T10:21:05Z</time>
      </trkpt>
      <trkpt lat="45.98714" lon="4.77614">
        <ele>223</ele>
        <time>2018-07-24T10:21:06Z</time>
      </trkpt>
      <trkpt lat="45.98708" lon="4.77622">
        <ele>223</ele>
        <time>2018-07-24T10:21:10Z</time>
      </trkpt>
      <trkpt lat="45.98706" lon="4.77623">
        <ele>223</ele>
        <time>2018-07-24T10:21:11Z</time>
      </trkpt>
      <trkpt lat="45.98699" lon="4.7763">
        <ele>224</ele>
        <time>2018-07-24T10:21:15Z</time>
      </trkpt>
      <trkpt lat="45.98698" lon="4.77632">
        <ele>224</ele>
        <time>2018-07-24T10:21:16Z</time>
      </trkpt>
      <trkpt lat="45.98691" lon="4.7764">
        <ele>224</ele>
        <time>2018-07-24T10:21:20Z</time>
      </trkpt>
      <trkpt lat="45.98689" lon="4.77642">
        <ele>225</ele>
        <time>2018-07-24T10:21:21Z</time>
      </trkpt>
      <trkpt lat="45.98682" lon="4.77648">
        <ele>225</ele>
        <time>2018-07-24T10:21:25Z</time>
      </trkpt>
      <trkpt lat="45.9868" lon="4.7765">
        <ele>225</ele>
        <time>2018-07-24T10:21:26Z</time>
      </trkpt>
      <trkpt lat="45.98675" lon="4.77656">
        <ele>226</ele>
        <time>2018-07-24T10:21:30Z</time>
      </trkpt>
      <trkpt lat="45.98673" lon="4.77658">
        <ele>226</ele>
        <time>2018-07-24T10:21:31Z</time>
      </trkpt>
      <trkpt lat="45.98666" lon="4.77664">
        <ele>228</ele>
        <time>2018-07-24T10:21:35Z</time>
      </trkpt>
      <trkpt lat="45.98665" lon="4.77666">
        <ele>228</ele>
        <time>2018-07-24T10:21:36Z</time>
      </trkpt>
      <trkpt lat="45.9866" lon="4.77675">
        <ele>229</ele>
        <time>2018-07-24T10:21:40Z</time>
      </trkpt>
      <trkpt lat="45.98659" lon="4.77677">
        <ele>229</ele>
        <time>2018-07-24T10:21:41Z</time>
      </trkpt>
      <trkpt lat="45.98652" lon="4.77684">
        <ele>230</ele>
        <time>2018-07-24T10:21:45Z</time>
      </trkpt>
      <trkpt lat="45.9865" lon="4.77686">
        <ele>230</ele>
        <time>2018-07-24T10:21:46Z</time>
      </trkpt>
      <trkpt lat="45.98645" lon="4.77692">
        <ele>230</ele>
        <time>2018-07-24T10:21:49Z</time>
      </trkpt>
      <trkpt lat="45.98643" lon="4.77694">
        <ele>230</ele>
        <time>2018-07-24T10:21:50Z</time>
      </trkpt>
      <trkpt lat="45.98634" lon="4.77698">
        <ele>230</ele>
        <time>2018-07-24T10:21:54Z</time>
      </trkpt>
      <trkpt lat="45.98633" lon="4.77699">
        <ele>230</ele>
        <time>2018-07-24T10:21:55Z</time>
      </trkpt>
      <trkpt lat="45.98625" lon="4.77704">
        <ele>230</ele>
        <time>2018-07-24T10:21:59Z</time>
      </trkpt>
      <trkpt lat="45.98623" lon="4.77705">
        <ele>230</ele>
        <time>2018-07-24T10:22:00Z</time>
      </trkpt>
      <trkpt lat="45.98615" lon="4.77708">
        <ele>231</ele>
        <time>2018-07-24T10:22:04Z</time>
      </trkpt>
      <trkpt lat="45.98613" lon="4.77709">
        <ele>231</ele>
        <time>2018-07-24T10:22:05Z</time>
      </trkpt>
      <trkpt lat="45.98605" lon="4.77715">
        <ele>231</ele>
        <time>2018-07-24T10:22:09Z</time>
      </trkpt>
      <trkpt lat="45.98603" lon="4.77717">
        <ele>231</ele>
        <time>2018-07-24T10:22:10Z</time>
      </trkpt>
      <trkpt lat="45.98595" lon="4.77722">
        <ele>231</ele>
        <time>2018-07-24T10:22:14Z</time>
      </trkpt>
      <trkpt lat="45.98594" lon="4.77722">
        <ele>231</ele>
        <time>2018-07-24T10:22:15Z</time>
      </trkpt>
      <trkpt lat="45.98585" lon="4.77725">
        <ele>231</ele>
        <time>2018-07-24T10:22:19Z</time>
      </trkpt>
      <trkpt lat="45.98583" lon="4.77726">
        <ele>233</ele>
        <time>2018-07-24T10:22:20Z</time>
      </trkpt>
      <trkpt lat="45.98577" lon="4.77729">
        <ele>233</ele>
        <time>2018-07-24T10:22:23Z</time>
      </trkpt>
      <trkpt lat="45.98574" lon="4.77731">
        <ele>233</ele>
        <time>2018-07-24T10:22:24Z</time>
      </trkpt>
      <trkpt lat="45.98567" lon="4.77735">
        <ele>233</ele>
        <time>2018-07-24T10:22:28Z</time>
      </trkpt>
      <trkpt lat="45.98565" lon="4.77736">
        <ele>233</ele>
        <time>2018-07-24T10:22:29Z</time>
      </trkpt>
      <trkpt lat="45.98558" lon="4.77742">
        <ele>233</ele>
        <time>2018-07-24T10:22:33Z</time>
      </trkpt>
      <trkpt lat="45.98557" lon="4.77743">
        <ele>233</ele>
        <time>2018-07-24T10:22:34Z</time>
      </trkpt>
      <trkpt lat="45.9855" lon="4.7775">
        <ele>233</ele>
        <time>2018-07-24T10:22:38Z</time>
      </trkpt>
      <trkpt lat="45.98549" lon="4.77752">
        <ele>235</ele>
        <time>2018-07-24T10:22:39Z</time>
      </trkpt>
      <trkpt lat="45.98541" lon="4.77758">
        <ele>235</ele>
        <time>2018-07-24T10:22:43Z</time>
      </trkpt>
      <trkpt lat="45.98539" lon="4.7776">
        <ele>235</ele>
        <time>2018-07-24T10:22:44Z</time>
      </trkpt>
      <trkpt lat="45.98537" lon="4.77761">
        <ele>235</ele>
        <time>2018-07-24T10:22:45Z</time>
      </trkpt>
      <trkpt lat="45.98527" lon="4.77766">
        <ele>236</ele>
        <time>2018-07-24T10:22:46Z</time>
      </trkpt>
      <trkpt lat="45.98521" lon="4.77769">
        <ele>236</ele>
        <time>2018-07-24T10:22:49Z</time>
      </trkpt>
      <trkpt lat="45.98519" lon="4.7777">
        <ele>236</ele>
        <time>2018-07-24T10:22:50Z</time>
      </trkpt>
      <trkpt lat="45.98512" lon="4.77776">
        <ele>236</ele>
        <time>2018-07-24T10:22:53Z</time>
      </trkpt>
      <trkpt lat="45.9851" lon="4.77778">
        <ele>236</ele>
        <time>2018-07-24T10:22:54Z</time>
      </trkpt>
      <trkpt lat="45.98504" lon="4.77783">
        <ele>236</ele>
        <time>2018-07-24T10:22:57Z</time>
      </trkpt>
      <trkpt lat="45.98502" lon="4.77784">
        <ele>236</ele>
        <time>2018-07-24T10:22:58Z</time>
      </trkpt>
      <trkpt lat="45.98495" lon="4.77787">
        <ele>238</ele>
        <time>2018-07-24T10:23:01Z</time>
      </trkpt>
      <trkpt lat="45.98493" lon="4.77787">
        <ele>238</ele>
        <time>2018-07-24T10:23:02Z</time>
      </trkpt>
      <trkpt lat="45.98486" lon="4.77789">
        <ele>238</ele>
        <time>2018-07-24T10:23:05Z</time>
      </trkpt>
      <trkpt lat="45.98484" lon="4.7779">
        <ele>238</ele>
        <time>2018-07-24T10:23:06Z</time>
      </trkpt>
      <trkpt lat="45.98477" lon="4.77792">
        <ele>238</ele>
        <time>2018-07-24T10:23:09Z</time>
      </trkpt>
      <trkpt lat="45.98475" lon="4.77793">
        <ele>238</ele>
        <time>2018-07-24T10:23:10Z</time>
      </trkpt>
      <trkpt lat="45.98468" lon="4.77796">
        <ele>238</ele>
        <time>2018-07-24T10:23:13Z</time>
      </trkpt>
      <trkpt lat="45.98466" lon="4.77797">
        <ele>238</ele>
        <time>2018-07-24T10:23:14Z</time>
      </trkpt>
      <trkpt lat="45.98459" lon="4.778">
        <ele>239</ele>
        <time>2018-07-24T10:23:17Z</time>
      </trkpt>
      <trkpt lat="45.98456" lon="4.778">
        <ele>239</ele>
        <time>2018-07-24T10:23:18Z</time>
      </trkpt>
      <trkpt lat="45.98449" lon="4.77802">
        <ele>239</ele>
        <time>2018-07-24T10:23:20Z</time>
      </trkpt>
      <trkpt lat="45.98447" lon="4.77803">
        <ele>239</ele>
        <time>2018-07-24T10:23:21Z</time>
      </trkpt>
      <trkpt lat="45.98439" lon="4.77806">
        <ele>239</ele>
        <time>2018-07-24T10:23:24Z</time>
      </trkpt>
      <trkpt lat="45.98436" lon="4.77807">
        <ele>239</ele>
        <time>2018-07-24T10:23:25Z</time>
      </trkpt>
      <trkpt lat="45.98433" lon="4.77809">
        <ele>239</ele>
        <time>2018-07-24T10:23:26Z</time>
      </trkpt>
      <trkpt lat="45.98425" lon="4.77813">
        <ele>240</ele>
        <time>2018-07-24T10:23:27Z</time>
      </trkpt>
      <trkpt lat="45.98417" lon="4.77817">
        <ele>240</ele>
        <time>2018-07-24T10:23:31Z</time>
      </trkpt>
      <trkpt lat="45.98415" lon="4.77818">
        <ele>241</ele>
        <time>2018-07-24T10:23:32Z</time>
      </trkpt>
      <trkpt lat="45.98409" lon="4.7782">
        <ele>241</ele>
        <time>2018-07-24T10:23:34Z</time>
      </trkpt>
      <trkpt lat="45.98401" lon="4.77825">
        <ele>241</ele>
        <time>2018-07-24T10:23:35Z</time>
      </trkpt>
      <trkpt lat="45.98397" lon="4.77827">
        <ele>241</ele>
        <time>2018-07-24T10:23:37Z</time>
      </trkpt>
      <trkpt lat="45.98392" lon="4.77829">
        <ele>241</ele>
        <time>2018-07-24T10:23:38Z</time>
      </trkpt>
      <trkpt lat="45.98386" lon="4.77832">
        <ele>241</ele>
        <time>2018-07-24T10:23:40Z</time>
      </trkpt>
      <trkpt lat="45.98381" lon="4.77835">
        <ele>242</ele>
        <time>2018-07-24T10:23:41Z</time>
      </trkpt>
      <trkpt lat="45.98373" lon="4.77838">
        <ele>242</ele>
        <time>2018-07-24T10:23:44Z</time>
      </trkpt>
      <trkpt lat="45.98371" lon="4.77839">
        <ele>242</ele>
        <time>2018-07-24T10:23:45Z</time>
      </trkpt>
      <trkpt lat="45.98366" lon="4.77842">
        <ele>242</ele>
        <time>2018-07-24T10:23:47Z</time>
      </trkpt>
      <trkpt lat="45.98362" lon="4.77844">
        <ele>242</ele>
        <time>2018-07-24T10:23:48Z</time>
      </trkpt>
      <trkpt lat="45.98356" lon="4.77846">
        <ele>242</ele>
        <time>2018-07-24T10:23:50Z</time>
      </trkpt>
      <trkpt lat="45.98346" lon="4.7785">
        <ele>242</ele>
        <time>2018-07-24T10:23:51Z</time>
      </trkpt>
      <trkpt lat="45.98338" lon="4.77853">
        <ele>242</ele>
        <time>2018-07-24T10:23:58Z</time>
      </trkpt>
      <trkpt lat="45.98338" lon="4.77853">
        <ele>242</ele>
        <time>2018-07-24T10:23:59Z</time>
      </trkpt>
      <trkpt lat="45.98329" lon="4.77853">
        <ele>243</ele>
        <time>2018-07-24T10:24:04Z</time>
      </trkpt>
      <trkpt lat="45.98326" lon="4.77854">
        <ele>243</ele>
        <time>2018-07-24T10:24:05Z</time>
      </trkpt>
      <trkpt lat="45.98323" lon="4.77854">
        <ele>243</ele>
        <time>2018-07-24T10:24:06Z</time>
      </trkpt>
      <trkpt lat="45.98317" lon="4.77855">
        <ele>243</ele>
        <time>2018-07-24T10:24:07Z</time>
      </trkpt>
      <trkpt lat="45.98301" lon="4.77858">
        <ele>243</ele>
        <time>2018-07-24T10:24:08Z</time>
      </trkpt>
      <trkpt lat="45.98296" lon="4.7786">
        <ele>243</ele>
        <time>2018-07-24T10:24:09Z</time>
      </trkpt>
      <trkpt lat="45.9829" lon="4.77862">
        <ele>243</ele>
        <time>2018-07-24T10:24:10Z</time>
      </trkpt>
      <trkpt lat="45.98285" lon="4.77865">
        <ele>243</ele>
        <time>2018-07-24T10:24:11Z</time>
      </trkpt>
      <trkpt lat="45.98279" lon="4.77868">
        <ele>244</ele>
        <time>2018-07-24T10:24:12Z</time>
      </trkpt>
      <trkpt lat="45.98275" lon="4.7787">
        <ele>244</ele>
        <time>2018-07-24T10:24:13Z</time>
      </trkpt>
      <trkpt lat="45.9827" lon="4.77872">
        <ele>244</ele>
        <time>2018-07-24T10:24:14Z</time>
      </trkpt>
      <trkpt lat="45.98265" lon="4.77875">
        <ele>244</ele>
        <time>2018-07-24T10:24:15Z</time>
      </trkpt>
      <trkpt lat="45.98261" lon="4.77877">
        <ele>244</ele>
        <time>2018-07-24T10:24:16Z</time>
      </trkpt>
      <trkpt lat="45.98256" lon="4.77879">
        <ele>244</ele>
        <time>2018-07-24T10:24:17Z</time>
      </trkpt>
      <trkpt lat="45.98251" lon="4.77882">
        <ele>244</ele>
        <time>2018-07-24T10:24:18Z</time>
      </trkpt>
      <trkpt lat="45.98247" lon="4.77884">
        <ele>244</ele>
        <time>2018-07-24T10:24:19Z</time>
      </trkpt>
      <trkpt lat="45.98242" lon="4.77886">
        <ele>244</ele>
        <time>2018-07-24T10:24:20Z</time>
      </trkpt>
      <trkpt lat="45.98234" lon="4.77891">
        <ele>244</ele>
        <time>2018-07-24T10:24:22Z</time>
      </trkpt>
      <trkpt lat="45.9823" lon="4.77893">
        <ele>244</ele>
        <time>2018-07-24T10:24:23Z</time>
      </trkpt>
      <trkpt lat="45.98226" lon="4.77896">
        <ele>244</ele>
        <time>2018-07-24T10:24:24Z</time>
      </trkpt>
      <trkpt lat="45.98222" lon="4.77898">
        <ele>244</ele>
        <time>2018-07-24T10:24:25Z</time>
      </trkpt>
      <trkpt lat="45.98213" lon="4.77901">
        <ele>244</ele>
        <time>2018-07-24T10:24:27Z</time>
      </trkpt>
      <trkpt lat="45.98209" lon="4.77903">
        <ele>244</ele>
        <time>2018-07-24T10:24:28Z</time>
      </trkpt>
      <trkpt lat="45.98202" lon="4.77907">
        <ele>244</ele>
        <time>2018-07-24T10:24:30Z</time>
      </trkpt>
      <trkpt lat="45.98198" lon="4.77908">
        <ele>244</ele>
        <time>2018-07-24T10:24:31Z</time>
      </trkpt>
      <trkpt lat="45.9819" lon="4.77911">
        <ele>245</ele>
        <time>2018-07-24T10:24:33Z</time>
      </trkpt>
      <trkpt lat="45.98186" lon="4.77912">
        <ele>245</ele>
        <time>2018-07-24T10:24:34Z</time>
      </trkpt>
      <trkpt lat="45.98178" lon="4.77915">
        <ele>245</ele>
        <time>2018-07-24T10:24:36Z</time>
      </trkpt>
      <trkpt lat="45.98176" lon="4.77916">
        <ele>245</ele>
        <time>2018-07-24T10:24:37Z</time>
      </trkpt>
      <trkpt lat="45.98171" lon="4.77918">
        <ele>245</ele>
        <time>2018-07-24T10:24:38Z</time>
      </trkpt>
      <trkpt lat="45.98167" lon="4.7792">
        <ele>245</ele>
        <time>2018-07-24T10:24:39Z</time>
      </trkpt>
      <trkpt lat="45.98158" lon="4.77924">
        <ele>245</ele>
        <time>2018-07-24T10:24:41Z</time>
      </trkpt>
      <trkpt lat="45.98153" lon="4.77926">
        <ele>246</ele>
        <time>2018-07-24T10:24:42Z</time>
      </trkpt>
      <trkpt lat="45.98145" lon="4.77928">
        <ele>246</ele>
        <time>2018-07-24T10:24:44Z</time>
      </trkpt>
      <trkpt lat="45.98139" lon="4.7793">
        <ele>246</ele>
        <time>2018-07-24T10:24:45Z</time>
      </trkpt>
      <trkpt lat="45.98131" lon="4.77932">
        <ele>246</ele>
        <time>2018-07-24T10:24:47Z</time>
      </trkpt>
      <trkpt lat="45.98127" lon="4.77933">
        <ele>246</ele>
        <time>2018-07-24T10:24:48Z</time>
      </trkpt>
      <trkpt lat="45.98119" lon="4.77935">
        <ele>246</ele>
        <time>2018-07-24T10:24:50Z</time>
      </trkpt>
      <trkpt lat="45.98115" lon="4.77935">
        <ele>246</ele>
        <time>2018-07-24T10:24:51Z</time>
      </trkpt>
      <trkpt lat="45.98107" lon="4.77938">
        <ele>246</ele>
        <time>2018-07-24T10:24:53Z</time>
      </trkpt>
      <trkpt lat="45.98104" lon="4.77939">
        <ele>246</ele>
        <time>2018-07-24T10:24:54Z</time>
      </trkpt>
      <trkpt lat="45.98095" lon="4.77939">
        <ele>246</ele>
        <time>2018-07-24T10:24:56Z</time>
      </trkpt>
      <trkpt lat="45.98091" lon="4.7794">
        <ele>246</ele>
        <time>2018-07-24T10:24:57Z</time>
      </trkpt>
      <trkpt lat="45.98082" lon="4.77941">
        <ele>247</ele>
        <time>2018-07-24T10:24:59Z</time>
      </trkpt>
      <trkpt lat="45.98077" lon="4.77942">
        <ele>247</ele>
        <time>2018-07-24T10:25:00Z</time>
      </trkpt>
      <trkpt lat="45.98073" lon="4.77943">
        <ele>247</ele>
        <time>2018-07-24T10:25:01Z</time>
      </trkpt>
      <trkpt lat="45.98068" lon="4.77943">
        <ele>247</ele>
        <time>2018-07-24T10:25:02Z</time>
      </trkpt>
      <trkpt lat="45.98059" lon="4.77944">
        <ele>247</ele>
        <time>2018-07-24T10:25:04Z</time>
      </trkpt>
      <trkpt lat="45.98055" lon="4.77942">
        <ele>247</ele>
        <time>2018-07-24T10:25:05Z</time>
      </trkpt>
      <trkpt lat="45.98047" lon="4.77944">
        <ele>247</ele>
        <time>2018-07-24T10:25:07Z</time>
      </trkpt>
      <trkpt lat="45.98041" lon="4.77945">
        <ele>247</ele>
        <time>2018-07-24T10:25:08Z</time>
      </trkpt>
      <trkpt lat="45.98036" lon="4.77945">
        <ele>247</ele>
        <time>2018-07-24T10:25:09Z</time>
      </trkpt>
      <trkpt lat="45.98032" lon="4.77947">
        <ele>247</ele>
        <time>2018-07-24T10:25:10Z</time>
      </trkpt>
      <trkpt lat="45.98027" lon="4.77949">
        <ele>247</ele>
        <time>2018-07-24T10:25:11Z</time>
      </trkpt>
      <trkpt lat="45.98021" lon="4.7795">
        <ele>247</ele>
        <time>2018-07-24T10:25:12Z</time>
      </trkpt>
      <trkpt lat="45.98016" lon="4.77951">
        <ele>247</ele>
        <time>2018-07-24T10:25:13Z</time>
      </trkpt>
      <trkpt lat="45.9801" lon="4.77951">
        <ele>247</ele>
        <time>2018-07-24T10:25:14Z</time>
      </trkpt>
      <trkpt lat="45.98006" lon="4.77952">
        <ele>247</ele>
        <time>2018-07-24T10:25:15Z</time>
      </trkpt>
      <trkpt lat="45.98001" lon="4.77953">
        <ele>247</ele>
        <time>2018-07-24T10:25:16Z</time>
      </trkpt>
      <trkpt lat="45.97996" lon="4.77953">
        <ele>246</ele>
        <time>2018-07-24T10:25:17Z</time>
      </trkpt>
      <trkpt lat="45.97992" lon="4.77954">
        <ele>246</ele>
        <time>2018-07-24T10:25:18Z</time>
      </trkpt>
      <trkpt lat="45.97987" lon="4.77955">
        <ele>246</ele>
        <time>2018-07-24T10:25:19Z</time>
      </trkpt>
      <trkpt lat="45.97983" lon="4.77955">
        <ele>246</ele>
        <time>2018-07-24T10:25:20Z</time>
      </trkpt>
      <trkpt lat="45.97978" lon="4.77954">
        <ele>246</ele>
        <time>2018-07-24T10:25:21Z</time>
      </trkpt>
      <trkpt lat="45.97973" lon="4.77954">
        <ele>246</ele>
        <time>2018-07-24T10:25:22Z</time>
      </trkpt>
      <trkpt lat="45.97964" lon="4.77955">
        <ele>246</ele>
        <time>2018-07-24T10:25:24Z</time>
      </trkpt>
      <trkpt lat="45.97962" lon="4.77955">
        <ele>246</ele>
        <time>2018-07-24T10:25:25Z</time>
      </trkpt>
      <trkpt lat="45.97957" lon="4.77954">
        <ele>246</ele>
        <time>2018-07-24T10:25:26Z</time>
      </trkpt>
      <trkpt lat="45.97952" lon="4.77955">
        <ele>246</ele>
        <time>2018-07-24T10:25:27Z</time>
      </trkpt>
      <trkpt lat="45.97947" lon="4.77954">
        <ele>246</ele>
        <time>2018-07-24T10:25:28Z</time>
      </trkpt>
      <trkpt lat="45.97943" lon="4.77956">
        <ele>246</ele>
        <time>2018-07-24T10:25:29Z</time>
      </trkpt>
      <trkpt lat="45.97934" lon="4.77957">
        <ele>246</ele>
        <time>2018-07-24T10:25:31Z</time>
      </trkpt>
      <trkpt lat="45.97931" lon="4.77958">
        <ele>246</ele>
        <time>2018-07-24T10:25:32Z</time>
      </trkpt>
      <trkpt lat="45.97923" lon="4.77962">
        <ele>246</ele>
        <time>2018-07-24T10:25:34Z</time>
      </trkpt>
      <trkpt lat="45.97919" lon="4.77963">
        <ele>246</ele>
        <time>2018-07-24T10:25:35Z</time>
      </trkpt>
      <trkpt lat="45.97911" lon="4.77966">
        <ele>246</ele>
        <time>2018-07-24T10:25:37Z</time>
      </trkpt>
      <trkpt lat="45.97906" lon="4.77967">
        <ele>246</ele>
        <time>2018-07-24T10:25:38Z</time>
      </trkpt>
      <trkpt lat="45.97901" lon="4.77969">
        <ele>246</ele>
        <time>2018-07-24T10:25:39Z</time>
      </trkpt>
      <trkpt lat="45.97896" lon="4.7797">
        <ele>246</ele>
        <time>2018-07-24T10:25:40Z</time>
      </trkpt>
      <trkpt lat="45.97891" lon="4.77971">
        <ele>246</ele>
        <time>2018-07-24T10:25:41Z</time>
      </trkpt>
      <trkpt lat="45.97887" lon="4.77973">
        <ele>246</ele>
        <time>2018-07-24T10:25:42Z</time>
      </trkpt>
      <trkpt lat="45.97879" lon="4.77977">
        <ele>246</ele>
        <time>2018-07-24T10:25:44Z</time>
      </trkpt>
      <trkpt lat="45.97875" lon="4.77978">
        <ele>246</ele>
        <time>2018-07-24T10:25:45Z</time>
      </trkpt>
      <trkpt lat="45.97868" lon="4.77979">
        <ele>246</ele>
        <time>2018-07-24T10:25:47Z</time>
      </trkpt>
      <trkpt lat="45.97864" lon="4.7798">
        <ele>246</ele>
        <time>2018-07-24T10:25:48Z</time>
      </trkpt>
      <trkpt lat="45.97857" lon="4.77983">
        <ele>246</ele>
        <time>2018-07-24T10:25:50Z</time>
      </trkpt>
      <trkpt lat="45.97852" lon="4.77984">
        <ele>246</ele>
        <time>2018-07-24T10:25:51Z</time>
      </trkpt>
      <trkpt lat="45.97848" lon="4.77986">
        <ele>246</ele>
        <time>2018-07-24T10:25:52Z</time>
      </trkpt>
      <trkpt lat="45.97843" lon="4.77988">
        <ele>246</ele>
        <time>2018-07-24T10:25:53Z</time>
      </trkpt>
      <trkpt lat="45.97839" lon="4.77991">
        <ele>246</ele>
        <time>2018-07-24T10:25:54Z</time>
      </trkpt>
      <trkpt lat="45.97834" lon="4.77994">
        <ele>246</ele>
        <time>2018-07-24T10:25:55Z</time>
      </trkpt>
      <trkpt lat="45.9783" lon="4.77995">
        <ele>246</ele>
        <time>2018-07-24T10:25:56Z</time>
      </trkpt>
      <trkpt lat="45.97825" lon="4.77996">
        <ele>246</ele>
        <time>2018-07-24T10:25:57Z</time>
      </trkpt>
      <trkpt lat="45.97817" lon="4.78">
        <ele>246</ele>
        <time>2018-07-24T10:25:59Z</time>
      </trkpt>
      <trkpt lat="45.97814" lon="4.78001">
        <ele>246</ele>
        <time>2018-07-24T10:26:00Z</time>
      </trkpt>
      <trkpt lat="45.97806" lon="4.78002">
        <ele>246</ele>
        <time>2018-07-24T10:26:05Z</time>
      </trkpt>
      <trkpt lat="45.97805" lon="4.78002">
        <ele>246</ele>
        <time>2018-07-24T10:26:06Z</time>
      </trkpt>
      <trkpt lat="45.97797" lon="4.78006">
        <ele>246</ele>
        <time>2018-07-24T10:26:13Z</time>
      </trkpt>
      <trkpt lat="45.97795" lon="4.78008">
        <ele>246</ele>
        <time>2018-07-24T10:26:14Z</time>
      </trkpt>
      <trkpt lat="45.97787" lon="4.78013">
        <ele>246</ele>
        <time>2018-07-24T10:26:15Z</time>
      </trkpt>
      <trkpt lat="45.97783" lon="4.78014">
        <ele>246</ele>
        <time>2018-07-24T10:26:16Z</time>
      </trkpt>
      <trkpt lat="45.97778" lon="4.78015">
        <ele>246</ele>
        <time>2018-07-24T10:26:17Z</time>
      </trkpt>
      <trkpt lat="45.97772" lon="4.78016">
        <ele>246</ele>
        <time>2018-07-24T10:26:18Z</time>
      </trkpt>
      <trkpt lat="45.97764" lon="4.78018">
        <ele>246</ele>
        <time>2018-07-24T10:26:20Z</time>
      </trkpt>
      <trkpt lat="45.97759" lon="4.7802">
        <ele>246</ele>
        <time>2018-07-24T10:26:21Z</time>
      </trkpt>
      <trkpt lat="45.97754" lon="4.78022">
        <ele>246</ele>
        <time>2018-07-24T10:26:22Z</time>
      </trkpt>
      <trkpt lat="45.9775" lon="4.78024">
        <ele>247</ele>
        <time>2018-07-24T10:26:23Z</time>
      </trkpt>
      <trkpt lat="45.97746" lon="4.78027">
        <ele>247</ele>
        <time>2018-07-24T10:26:24Z</time>
      </trkpt>
      <trkpt lat="45.97741" lon="4.7803">
        <ele>247</ele>
        <time>2018-07-24T10:26:25Z</time>
      </trkpt>
      <trkpt lat="45.97737" lon="4.78034">
        <ele>247</ele>
        <time>2018-07-24T10:26:26Z</time>
      </trkpt>
      <trkpt lat="45.97732" lon="4.78037">
        <ele>247</ele>
        <time>2018-07-24T10:26:27Z</time>
      </trkpt>
      <trkpt lat="45.97727" lon="4.78038">
        <ele>247</ele>
        <time>2018-07-24T10:26:28Z</time>
      </trkpt>
      <trkpt lat="45.97722" lon="4.7804">
        <ele>247</ele>
        <time>2018-07-24T10:26:29Z</time>
      </trkpt>
      <trkpt lat="45.97717" lon="4.78042">
        <ele>247</ele>
        <time>2018-07-24T10:26:30Z</time>
      </trkpt>
      <trkpt lat="45.97712" lon="4.78043">
        <ele>247</ele>
        <time>2018-07-24T10:26:31Z</time>
      </trkpt>
      <trkpt lat="45.97706" lon="4.78046">
        <ele>247</ele>
        <time>2018-07-24T10:26:32Z</time>
      </trkpt>
      <trkpt lat="45.97701" lon="4.78047">
        <ele>247</ele>
        <time>2018-07-24T10:26:33Z</time>
      </trkpt>
      <trkpt lat="45.97696" lon="4.78051">
        <ele>247</ele>
        <time>2018-07-24T10:26:34Z</time>
      </trkpt>
      <trkpt lat="45.97691" lon="4.78054">
        <ele>247</ele>
        <time>2018-07-24T10:26:35Z</time>
      </trkpt>
      <trkpt lat="45.97686" lon="4.78056">
        <ele>247</ele>
        <time>2018-07-24T10:26:36Z</time>
      </trkpt>
      <trkpt lat="45.97681" lon="4.78058">
        <ele>248</ele>
        <time>2018-07-24T10:26:37Z</time>
      </trkpt>
      <trkpt lat="45.97676" lon="4.7806">
        <ele>248</ele>
        <time>2018-07-24T10:26:38Z</time>
      </trkpt>
      <trkpt lat="45.97672" lon="4.78062">
        <ele>248</ele>
        <time>2018-07-24T10:26:39Z</time>
      </trkpt>
      <trkpt lat="45.97663" lon="4.78065">
        <ele>247</ele>
        <time>2018-07-24T10:26:41Z</time>
      </trkpt>
      <trkpt lat="45.97659" lon="4.78067">
        <ele>247</ele>
        <time>2018-07-24T10:26:42Z</time>
      </trkpt>
      <trkpt lat="45.97655" lon="4.78069">
        <ele>247</ele>
        <time>2018-07-24T10:26:43Z</time>
      </trkpt>
      <trkpt lat="45.9765" lon="4.78073">
        <ele>247</ele>
        <time>2018-07-24T10:26:44Z</time>
      </trkpt>
      <trkpt lat="45.97645" lon="4.78077">
        <ele>247</ele>
        <time>2018-07-24T10:26:45Z</time>
      </trkpt>
      <trkpt lat="45.97641" lon="4.78081">
        <ele>247</ele>
        <time>2018-07-24T10:26:46Z</time>
      </trkpt>
      <trkpt lat="45.97634" lon="4.78088">
        <ele>247</ele>
        <time>2018-07-24T10:26:48Z</time>
      </trkpt>
      <trkpt lat="45.97632" lon="4.78093">
        <ele>247</ele>
        <time>2018-07-24T10:26:49Z</time>
      </trkpt>
      <trkpt lat="45.97628" lon="4.78097">
        <ele>246</ele>
        <time>2018-07-24T10:26:50Z</time>
      </trkpt>
      <trkpt lat="45.97624" lon="4.78103">
        <ele>246</ele>
        <time>2018-07-24T10:26:51Z</time>
      </trkpt>
      <trkpt lat="45.9762" lon="4.78108">
        <ele>246</ele>
        <time>2018-07-24T10:26:52Z</time>
      </trkpt>
      <trkpt lat="45.97616" lon="4.78113">
        <ele>246</ele>
        <time>2018-07-24T10:26:53Z</time>
      </trkpt>
      <trkpt lat="45.97613" lon="4.78117">
        <ele>246</ele>
        <time>2018-07-24T10:26:54Z</time>
      </trkpt>
      <trkpt lat="45.97609" lon="4.78122">
        <ele>246</ele>
        <time>2018-07-24T10:26:55Z</time>
      </trkpt>
      <trkpt lat="45.97605" lon="4.78125">
        <ele>245</ele>
        <time>2018-07-24T10:26:56Z</time>
      </trkpt>
      <trkpt lat="45.97601" lon="4.78128">
        <ele>245</ele>
        <time>2018-07-24T10:26:57Z</time>
      </trkpt>
      <trkpt lat="45.97597" lon="4.78133">
        <ele>245</ele>
        <time>2018-07-24T10:26:58Z</time>
      </trkpt>
      <trkpt lat="45.97594" lon="4.78138">
        <ele>245</ele>
        <time>2018-07-24T10:26:59Z</time>
      </trkpt>
      <trkpt lat="45.97589" lon="4.78143">
        <ele>244</ele>
        <time>2018-07-24T10:27:00Z</time>
      </trkpt>
      <trkpt lat="45.97584" lon="4.78147">
        <ele>244</ele>
        <time>2018-07-24T10:27:01Z</time>
      </trkpt>
      <trkpt lat="45.97579" lon="4.78152">
        <ele>242</ele>
        <time>2018-07-24T10:27:02Z</time>
      </trkpt>
      <trkpt lat="45.97573" lon="4.78161">
        <ele>242</ele>
        <time>2018-07-24T10:27:03Z</time>
      </trkpt>
      <trkpt lat="45.97567" lon="4.78169">
        <ele>240</ele>
        <time>2018-07-24T10:27:04Z</time>
      </trkpt>
      <trkpt lat="45.9756" lon="4.78178">
        <ele>240</ele>
        <time>2018-07-24T10:27:05Z</time>
      </trkpt>
      <trkpt lat="45.97553" lon="4.78186">
        <ele>239</ele>
        <time>2018-07-24T10:27:06Z</time>
      </trkpt>
      <trkpt lat="45.97546" lon="4.78194">
        <ele>239</ele>
        <time>2018-07-24T10:27:07Z</time>
      </trkpt>
      <trkpt lat="45.97538" lon="4.78202">
        <ele>239</ele>
        <time>2018-07-24T10:27:08Z</time>
      </trkpt>
      <trkpt lat="45.9753" lon="4.78209">
        <ele>238</ele>
        <time>2018-07-24T10:27:09Z</time>
      </trkpt>
      <trkpt lat="45.97522" lon="4.78216">
        <ele>238</ele>
        <time>2018-07-24T10:27:10Z</time>
      </trkpt>
      <trkpt lat="45.97514" lon="4.78224">
        <ele>238</ele>
        <time>2018-07-24T10:27:11Z</time>
      </trkpt>
      <trkpt lat="45.97507" lon="4.78233">
        <ele>237</ele>
        <time>2018-07-24T10:27:12Z</time>
      </trkpt>
      <trkpt lat="45.97499" lon="4.78241">
        <ele>236</ele>
        <time>2018-07-24T10:27:13Z</time>
      </trkpt>
      <trkpt lat="45.97491" lon="4.78249">
        <ele>236</ele>
        <time>2018-07-24T10:27:14Z</time>
      </trkpt>
      <trkpt lat="45.97484" lon="4.78257">
        <ele>235</ele>
        <time>2018-07-24T10:27:15Z</time>
      </trkpt>
      <trkpt lat="45.97478" lon="4.78265">
        <ele>235</ele>
        <time>2018-07-24T10:27:16Z</time>
      </trkpt>
      <trkpt lat="45.97471" lon="4.78273">
        <ele>235</ele>
        <time>2018-07-24T10:27:17Z</time>
      </trkpt>
      <trkpt lat="45.97464" lon="4.78281">
        <ele>234</ele>
        <time>2018-07-24T10:27:18Z</time>
      </trkpt>
      <trkpt lat="45.97457" lon="4.78288">
        <ele>234</ele>
        <time>2018-07-24T10:27:19Z</time>
      </trkpt>
      <trkpt lat="45.9745" lon="4.78295">
        <ele>234</ele>
        <time>2018-07-24T10:27:20Z</time>
      </trkpt>
      <trkpt lat="45.97443" lon="4.78303">
        <ele>234</ele>
        <time>2018-07-24T10:27:21Z</time>
      </trkpt>
      <trkpt lat="45.97438" lon="4.7831">
        <ele>234</ele>
        <time>2018-07-24T10:27:22Z</time>
      </trkpt>
      <trkpt lat="45.97432" lon="4.78318">
        <ele>234</ele>
        <time>2018-07-24T10:27:23Z</time>
      </trkpt>
      <trkpt lat="45.97425" lon="4.78325">
        <ele>233</ele>
        <time>2018-07-24T10:27:24Z</time>
      </trkpt>
      <trkpt lat="45.97419" lon="4.78331">
        <ele>233</ele>
        <time>2018-07-24T10:27:25Z</time>
      </trkpt>
      <trkpt lat="45.97413" lon="4.78339">
        <ele>233</ele>
        <time>2018-07-24T10:27:26Z</time>
      </trkpt>
      <trkpt lat="45.97407" lon="4.78345">
        <ele>233</ele>
        <time>2018-07-24T10:27:27Z</time>
      </trkpt>
      <trkpt lat="45.97402" lon="4.78351">
        <ele>233</ele>
        <time>2018-07-24T10:27:28Z</time>
      </trkpt>
      <trkpt lat="45.97396" lon="4.78358">
        <ele>233</ele>
        <time>2018-07-24T10:27:29Z</time>
      </trkpt>
      <trkpt lat="45.9739" lon="4.78364">
        <ele>233</ele>
        <time>2018-07-24T10:27:30Z</time>
      </trkpt>
      <trkpt lat="45.97386" lon="4.78368">
        <ele>233</ele>
        <time>2018-07-24T10:27:31Z</time>
      </trkpt>
      <trkpt lat="45.9738" lon="4.78375">
        <ele>233</ele>
        <time>2018-07-24T10:27:32Z</time>
      </trkpt>
      <trkpt lat="45.97376" lon="4.7838">
        <ele>233</ele>
        <time>2018-07-24T10:27:33Z</time>
      </trkpt>
      <trkpt lat="45.97371" lon="4.78385">
        <ele>233</ele>
        <time>2018-07-24T10:27:34Z</time>
      </trkpt>
      <trkpt lat="45.97364" lon="4.78393">
        <ele>233</ele>
        <time>2018-07-24T10:27:36Z</time>
      </trkpt>
      <trkpt lat="45.97361" lon="4.78396">
        <ele>233</ele>
        <time>2018-07-24T10:27:37Z</time>
      </trkpt>
      <trkpt lat="45.97355" lon="4.784">
        <ele>233</ele>
        <time>2018-07-24T10:27:40Z</time>
      </trkpt>
      <trkpt lat="45.97353" lon="4.78402">
        <ele>232</ele>
        <time>2018-07-24T10:27:41Z</time>
      </trkpt>
      <trkpt lat="45.97345" lon="4.78403">
        <ele>232</ele>
        <time>2018-07-24T10:27:42Z</time>
      </trkpt>
      <trkpt lat="45.97342" lon="4.78399">
        <ele>232</ele>
        <time>2018-07-24T10:27:43Z</time>
      </trkpt>
      <trkpt lat="45.97338" lon="4.78394">
        <ele>232</ele>
        <time>2018-07-24T10:27:44Z</time>
      </trkpt>
      <trkpt lat="45.97335" lon="4.7839">
        <ele>233</ele>
        <time>2018-07-24T10:27:45Z</time>
      </trkpt>
      <trkpt lat="45.97331" lon="4.78383">
        <ele>232</ele>
        <time>2018-07-24T10:27:46Z</time>
      </trkpt>
      <trkpt lat="45.97327" lon="4.7838">
        <ele>232</ele>
        <time>2018-07-24T10:27:47Z</time>
      </trkpt>
      <trkpt lat="45.97322" lon="4.78376">
        <ele>232</ele>
        <time>2018-07-24T10:27:48Z</time>
      </trkpt>
      <trkpt lat="45.97318" lon="4.78371">
        <ele>232</ele>
        <time>2018-07-24T10:27:49Z</time>
      </trkpt>
      <trkpt lat="45.97315" lon="4.78366">
        <ele>232</ele>
        <time>2018-07-24T10:27:50Z</time>
      </trkpt>
      <trkpt lat="45.97312" lon="4.78361">
        <ele>232</ele>
        <time>2018-07-24T10:27:51Z</time>
      </trkpt>
      <trkpt lat="45.97308" lon="4.78357">
        <ele>232</ele>
        <time>2018-07-24T10:27:52Z</time>
      </trkpt>
      <trkpt lat="45.97304" lon="4.78352">
        <ele>232</ele>
        <time>2018-07-24T10:27:53Z</time>
      </trkpt>
      <trkpt lat="45.973" lon="4.78347">
        <ele>232</ele>
        <time>2018-07-24T10:27:54Z</time>
      </trkpt>
      <trkpt lat="45.97298" lon="4.78342">
        <ele>232</ele>
        <time>2018-07-24T10:27:55Z</time>
      </trkpt>
      <trkpt lat="45.97294" lon="4.78337">
        <ele>232</ele>
        <time>2018-07-24T10:27:56Z</time>
      </trkpt>
      <trkpt lat="45.97289" lon="4.78334">
        <ele>232</ele>
        <time>2018-07-24T10:27:57Z</time>
      </trkpt>
      <trkpt lat="45.97285" lon="4.78328">
        <ele>232</ele>
        <time>2018-07-24T10:27:58Z</time>
      </trkpt>
      <trkpt lat="45.97278" lon="4.78324">
        <ele>232</ele>
        <time>2018-07-24T10:27:59Z</time>
      </trkpt>
      <trkpt lat="45.97274" lon="4.78317">
        <ele>232</ele>
        <time>2018-07-24T10:28:00Z</time>
      </trkpt>
      <trkpt lat="45.9727" lon="4.7831">
        <ele>232</ele>
        <time>2018-07-24T10:28:01Z</time>
      </trkpt>
      <trkpt lat="45.97265" lon="4.78303">
        <ele>232</ele>
        <time>2018-07-24T10:28:02Z</time>
      </trkpt>
      <trkpt lat="45.97259" lon="4.78297">
        <ele>232</ele>
        <time>2018-07-24T10:28:03Z</time>
      </trkpt>
      <trkpt lat="45.97255" lon="4.78291">
        <ele>232</ele>
        <time>2018-07-24T10:28:04Z</time>
      </trkpt>
      <trkpt lat="45.97252" lon="4.78286">
        <ele>232</ele>
        <time>2018-07-24T10:28:05Z</time>
      </trkpt>
      <trkpt lat="45.97248" lon="4.7828">
        <ele>231</ele>
        <time>2018-07-24T10:28:06Z</time>
      </trkpt>
      <trkpt lat="45.97245" lon="4.78273">
        <ele>231</ele>
        <time>2018-07-24T10:28:07Z</time>
      </trkpt>
      <trkpt lat="45.97241" lon="4.78269">
        <ele>231</ele>
        <time>2018-07-24T10:28:08Z</time>
      </trkpt>
      <trkpt lat="45.97236" lon="4.78263">
        <ele>231</ele>
        <time>2018-07-24T10:28:09Z</time>
      </trkpt>
      <trkpt lat="45.97233" lon="4.78257">
        <ele>231</ele>
        <time>2018-07-24T10:28:10Z</time>
      </trkpt>
      <trkpt lat="45.97229" lon="4.78252">
        <ele>231</ele>
        <time>2018-07-24T10:28:11Z</time>
      </trkpt>
      <trkpt lat="45.97225" lon="4.78251">
        <ele>231</ele>
        <time>2018-07-24T10:28:12Z</time>
      </trkpt>
      <trkpt lat="45.97219" lon="4.78251">
        <ele>231</ele>
        <time>2018-07-24T10:28:13Z</time>
      </trkpt>
      <trkpt lat="45.97212" lon="4.78257">
        <ele>231</ele>
        <time>2018-07-24T10:28:15Z</time>
      </trkpt>
      <trkpt lat="45.97207" lon="4.78261">
        <ele>230</ele>
        <time>2018-07-24T10:28:16Z</time>
      </trkpt>
      <trkpt lat="45.97203" lon="4.78263">
        <ele>230</ele>
        <time>2018-07-24T10:28:17Z</time>
      </trkpt>
      <trkpt lat="45.97198" lon="4.78267">
        <ele>230</ele>
        <time>2018-07-24T10:28:18Z</time>
      </trkpt>
      <trkpt lat="45.97194" lon="4.78271">
        <ele>230</ele>
        <time>2018-07-24T10:28:19Z</time>
      </trkpt>
      <trkpt lat="45.97188" lon="4.78275">
        <ele>230</ele>
        <time>2018-07-24T10:28:20Z</time>
      </trkpt>
      <trkpt lat="45.97183" lon="4.78279">
        <ele>230</ele>
        <time>2018-07-24T10:28:21Z</time>
      </trkpt>
      <trkpt lat="45.97178" lon="4.78283">
        <ele>230</ele>
        <time>2018-07-24T10:28:22Z</time>
      </trkpt>
      <trkpt lat="45.97172" lon="4.78286">
        <ele>230</ele>
        <time>2018-07-24T10:28:23Z</time>
      </trkpt>
      <trkpt lat="45.97168" lon="4.78289">
        <ele>230</ele>
        <time>2018-07-24T10:28:24Z</time>
      </trkpt>
      <trkpt lat="45.97164" lon="4.78292">
        <ele>230</ele>
        <time>2018-07-24T10:28:25Z</time>
      </trkpt>
      <trkpt lat="45.97159" lon="4.78295">
        <ele>230</ele>
        <time>2018-07-24T10:28:26Z</time>
      </trkpt>
      <trkpt lat="45.97155" lon="4.78298">
        <ele>230</ele>
        <time>2018-07-24T10:28:27Z</time>
      </trkpt>
      <trkpt lat="45.9715" lon="4.78299">
        <ele>230</ele>
        <time>2018-07-24T10:28:28Z</time>
      </trkpt>
      <trkpt lat="45.97146" lon="4.78303">
        <ele>230</ele>
        <time>2018-07-24T10:28:29Z</time>
      </trkpt>
      <trkpt lat="45.97142" lon="4.78306">
        <ele>230</ele>
        <time>2018-07-24T10:28:30Z</time>
      </trkpt>
      <trkpt lat="45.97137" lon="4.78311">
        <ele>230</ele>
        <time>2018-07-24T10:28:31Z</time>
      </trkpt>
      <trkpt lat="45.97133" lon="4.78314">
        <ele>230</ele>
        <time>2018-07-24T10:28:32Z</time>
      </trkpt>
      <trkpt lat="45.97128" lon="4.78318">
        <ele>230</ele>
        <time>2018-07-24T10:28:33Z</time>
      </trkpt>
      <trkpt lat="45.97124" lon="4.78321">
        <ele>231</ele>
        <time>2018-07-24T10:28:34Z</time>
      </trkpt>
      <trkpt lat="45.97118" lon="4.78326">
        <ele>231</ele>
        <time>2018-07-24T10:28:35Z</time>
      </trkpt>
      <trkpt lat="45.97113" lon="4.7833">
        <ele>231</ele>
        <time>2018-07-24T10:28:36Z</time>
      </trkpt>
      <trkpt lat="45.97108" lon="4.78335">
        <ele>231</ele>
        <time>2018-07-24T10:28:37Z</time>
      </trkpt>
      <trkpt lat="45.97104" lon="4.78337">
        <ele>231</ele>
        <time>2018-07-24T10:28:38Z</time>
      </trkpt>
      <trkpt lat="45.97099" lon="4.78341">
        <ele>231</ele>
        <time>2018-07-24T10:28:39Z</time>
      </trkpt>
      <trkpt lat="45.97093" lon="4.78344">
        <ele>231</ele>
        <time>2018-07-24T10:28:40Z</time>
      </trkpt>
      <trkpt lat="45.97087" lon="4.78348">
        <ele>231</ele>
        <time>2018-07-24T10:28:41Z</time>
      </trkpt>
      <trkpt lat="45.97081" lon="4.78351">
        <ele>230</ele>
        <time>2018-07-24T10:28:42Z</time>
      </trkpt>
      <trkpt lat="45.97076" lon="4.78354">
        <ele>230</ele>
        <time>2018-07-24T10:28:43Z</time>
      </trkpt>
      <trkpt lat="45.97071" lon="4.78358">
        <ele>230</ele>
        <time>2018-07-24T10:28:44Z</time>
      </trkpt>
      <trkpt lat="45.97067" lon="4.78362">
        <ele>230</ele>
        <time>2018-07-24T10:28:45Z</time>
      </trkpt>
      <trkpt lat="45.97062" lon="4.78365">
        <ele>230</ele>
        <time>2018-07-24T10:28:46Z</time>
      </trkpt>
      <trkpt lat="45.97057" lon="4.78369">
        <ele>230</ele>
        <time>2018-07-24T10:28:47Z</time>
      </trkpt>
      <trkpt lat="45.97052" lon="4.78373">
        <ele>229</ele>
        <time>2018-07-24T10:28:48Z</time>
      </trkpt>
      <trkpt lat="45.97046" lon="4.78379">
        <ele>229</ele>
        <time>2018-07-24T10:28:49Z</time>
      </trkpt>
      <trkpt lat="45.97041" lon="4.78383">
        <ele>229</ele>
        <time>2018-07-24T10:28:50Z</time>
      </trkpt>
      <trkpt lat="45.97036" lon="4.78387">
        <ele>229</ele>
        <time>2018-07-24T10:28:51Z</time>
      </trkpt>
      <trkpt lat="45.9703" lon="4.78391">
        <ele>229</ele>
        <time>2018-07-24T10:28:52Z</time>
      </trkpt>
      <trkpt lat="45.97024" lon="4.78395">
        <ele>229</ele>
        <time>2018-07-24T10:28:53Z</time>
      </trkpt>
      <trkpt lat="45.97017" lon="4.78403">
        <ele>228</ele>
        <time>2018-07-24T10:28:54Z</time>
      </trkpt>
      <trkpt lat="45.97011" lon="4.78408">
        <ele>228</ele>
        <time>2018-07-24T10:28:55Z</time>
      </trkpt>
      <trkpt lat="45.97006" lon="4.7841">
        <ele>228</ele>
        <time>2018-07-24T10:28:56Z</time>
      </trkpt>
      <trkpt lat="45.96999" lon="4.78415">
        <ele>227</ele>
        <time>2018-07-24T10:28:57Z</time>
      </trkpt>
      <trkpt lat="45.96993" lon="4.78417">
        <ele>226</ele>
        <time>2018-07-24T10:28:58Z</time>
      </trkpt>
      <trkpt lat="45.96986" lon="4.78419">
        <ele>225</ele>
        <time>2018-07-24T10:28:59Z</time>
      </trkpt>
      <trkpt lat="45.96979" lon="4.7842">
        <ele>224</ele>
        <time>2018-07-24T10:29:00Z</time>
      </trkpt>
      <trkpt lat="45.96972" lon="4.78421">
        <ele>224</ele>
        <time>2018-07-24T10:29:01Z</time>
      </trkpt>
      <trkpt lat="45.96965" lon="4.78421">
        <ele>223</ele>
        <time>2018-07-24T10:29:02Z</time>
      </trkpt>
      <trkpt lat="45.96957" lon="4.78423">
        <ele>223</ele>
        <time>2018-07-24T10:29:03Z</time>
      </trkpt>
      <trkpt lat="45.96951" lon="4.78426">
        <ele>222</ele>
        <time>2018-07-24T10:29:04Z</time>
      </trkpt>
      <trkpt lat="45.96943" lon="4.78427">
        <ele>222</ele>
        <time>2018-07-24T10:29:05Z</time>
      </trkpt>
      <trkpt lat="45.96938" lon="4.78433">
        <ele>222</ele>
        <time>2018-07-24T10:29:06Z</time>
      </trkpt>
      <trkpt lat="45.9693" lon="4.78439">
        <ele>221</ele>
        <time>2018-07-24T10:29:07Z</time>
      </trkpt>
      <trkpt lat="45.96924" lon="4.78446">
        <ele>221</ele>
        <time>2018-07-24T10:29:08Z</time>
      </trkpt>
      <trkpt lat="45.96917" lon="4.78452">
        <ele>221</ele>
        <time>2018-07-24T10:29:09Z</time>
      </trkpt>
      <trkpt lat="45.96912" lon="4.7846">
        <ele>215</ele>
        <time>2018-07-24T10:29:10Z</time>
      </trkpt>
      <trkpt lat="45.96906" lon="4.78468">
        <ele>214</ele>
        <time>2018-07-24T10:29:11Z</time>
      </trkpt>
      <trkpt lat="45.969" lon="4.78478">
        <ele>213</ele>
        <time>2018-07-24T10:29:12Z</time>
      </trkpt>
      <trkpt lat="45.96894" lon="4.78486">
        <ele>213</ele>
        <time>2018-07-24T10:29:13Z</time>
      </trkpt>
      <trkpt lat="45.96889" lon="4.78493">
        <ele>213</ele>
        <time>2018-07-24T10:29:14Z</time>
      </trkpt>
      <trkpt lat="45.96883" lon="4.78501">
        <ele>209</ele>
        <time>2018-07-24T10:29:15Z</time>
      </trkpt>
      <trkpt lat="45.96876" lon="4.78509">
        <ele>208</ele>
        <time>2018-07-24T10:29:16Z</time>
      </trkpt>
      <trkpt lat="45.96871" lon="4.78517">
        <ele>208</ele>
        <time>2018-07-24T10:29:17Z</time>
      </trkpt>
      <trkpt lat="45.96865" lon="4.78524">
        <ele>207</ele>
        <time>2018-07-24T10:29:18Z</time>
      </trkpt>
      <trkpt lat="45.96859" lon="4.78532">
        <ele>207</ele>
        <time>2018-07-24T10:29:19Z</time>
      </trkpt>
      <trkpt lat="45.96854" lon="4.78541">
        <ele>207</ele>
        <time>2018-07-24T10:29:20Z</time>
      </trkpt>
      <trkpt lat="45.96849" lon="4.78545">
        <ele>206</ele>
        <time>2018-07-24T10:29:21Z</time>
      </trkpt>
      <trkpt lat="45.96844" lon="4.7855">
        <ele>206</ele>
        <time>2018-07-24T10:29:22Z</time>
      </trkpt>
      <trkpt lat="45.96839" lon="4.78555">
        <ele>206</ele>
        <time>2018-07-24T10:29:23Z</time>
      </trkpt>
      <trkpt lat="45.96834" lon="4.78561">
        <ele>205</ele>
        <time>2018-07-24T10:29:24Z</time>
      </trkpt>
      <trkpt lat="45.96827" lon="4.78569">
        <ele>203</ele>
        <time>2018-07-24T10:29:26Z</time>
      </trkpt>
      <trkpt lat="45.96824" lon="4.78572">
        <ele>203</ele>
        <time>2018-07-24T10:29:27Z</time>
      </trkpt>
      <trkpt lat="45.96819" lon="4.78572">
        <ele>203</ele>
        <time>2018-07-24T10:29:29Z</time>
      </trkpt>
      <trkpt lat="45.96813" lon="4.78571">
        <ele>203</ele>
        <time>2018-07-24T10:29:30Z</time>
      </trkpt>
      <trkpt lat="45.96808" lon="4.78566">
        <ele>203</ele>
        <time>2018-07-24T10:29:32Z</time>
      </trkpt>
      <trkpt lat="45.96805" lon="4.7856">
        <ele>203</ele>
        <time>2018-07-24T10:29:33Z</time>
      </trkpt>
      <trkpt lat="45.96801" lon="4.78556">
        <ele>203</ele>
        <time>2018-07-24T10:29:34Z</time>
      </trkpt>
      <trkpt lat="45.96799" lon="4.7855">
        <ele>203</ele>
        <time>2018-07-24T10:29:35Z</time>
      </trkpt>
      <trkpt lat="45.96796" lon="4.78543">
        <ele>203</ele>
        <time>2018-07-24T10:29:36Z</time>
      </trkpt>
      <trkpt lat="45.96792" lon="4.78536">
        <ele>203</ele>
        <time>2018-07-24T10:29:37Z</time>
      </trkpt>
      <trkpt lat="45.96788" lon="4.7853">
        <ele>203</ele>
        <time>2018-07-24T10:29:38Z</time>
      </trkpt>
      <trkpt lat="45.96784" lon="4.78525">
        <ele>203</ele>
        <time>2018-07-24T10:29:39Z</time>
      </trkpt>
      <trkpt lat="45.96781" lon="4.78518">
        <ele>203</ele>
        <time>2018-07-24T10:29:40Z</time>
      </trkpt>
      <trkpt lat="45.96777" lon="4.78511">
        <ele>203</ele>
        <time>2018-07-24T10:29:41Z</time>
      </trkpt>
      <trkpt lat="45.96774" lon="4.78505">
        <ele>203</ele>
        <time>2018-07-24T10:29:42Z</time>
      </trkpt>
      <trkpt lat="45.9677" lon="4.785">
        <ele>205</ele>
        <time>2018-07-24T10:29:43Z</time>
      </trkpt>
      <trkpt lat="45.96762" lon="4.78493">
        <ele>204</ele>
        <time>2018-07-24T10:29:44Z</time>
      </trkpt>
      <trkpt lat="45.96758" lon="4.78489">
        <ele>204</ele>
        <time>2018-07-24T10:29:45Z</time>
      </trkpt>
      <trkpt lat="45.96754" lon="4.78486">
        <ele>204</ele>
        <time>2018-07-24T10:29:46Z</time>
      </trkpt>
      <trkpt lat="45.9675" lon="4.78481">
        <ele>205</ele>
        <time>2018-07-24T10:29:47Z</time>
      </trkpt>
      <trkpt lat="45.96745" lon="4.78476">
        <ele>203</ele>
        <time>2018-07-24T10:29:48Z</time>
      </trkpt>
      <trkpt lat="45.96741" lon="4.78472">
        <ele>203</ele>
        <time>2018-07-24T10:29:49Z</time>
      </trkpt>
      <trkpt lat="45.96734" lon="4.78465">
        <ele>203</ele>
        <time>2018-07-24T10:29:51Z</time>
      </trkpt>
      <trkpt lat="45.9673" lon="4.78459">
        <ele>203</ele>
        <time>2018-07-24T10:29:52Z</time>
      </trkpt>
      <trkpt lat="45.96725" lon="4.78454">
        <ele>203</ele>
        <time>2018-07-24T10:29:53Z</time>
      </trkpt>
      <trkpt lat="45.96719" lon="4.78449">
        <ele>203</ele>
        <time>2018-07-24T10:29:54Z</time>
      </trkpt>
      <trkpt lat="45.96715" lon="4.78445">
        <ele>203</ele>
        <time>2018-07-24T10:29:55Z</time>
      </trkpt>
      <trkpt lat="45.9671" lon="4.7844">
        <ele>203</ele>
        <time>2018-07-24T10:29:56Z</time>
      </trkpt>
      <trkpt lat="45.96704" lon="4.78431">
        <ele>203</ele>
        <time>2018-07-24T10:29:58Z</time>
      </trkpt>
      <trkpt lat="45.96702" lon="4.78427">
        <ele>203</ele>
        <time>2018-07-24T10:29:59Z</time>
      </trkpt>
      <trkpt lat="45.96699" lon="4.78423">
        <ele>203</ele>
        <time>2018-07-24T10:30:00Z</time>
      </trkpt>
      <trkpt lat="45.96695" lon="4.78419">
        <ele>202</ele>
        <time>2018-07-24T10:30:01Z</time>
      </trkpt>
      <trkpt lat="45.96689" lon="4.78415">
        <ele>204</ele>
        <time>2018-07-24T10:30:02Z</time>
      </trkpt>
      <trkpt lat="45.96685" lon="4.78411">
        <ele>204</ele>
        <time>2018-07-24T10:30:03Z</time>
      </trkpt>
      <trkpt lat="45.96679" lon="4.78405">
        <ele>204</ele>
        <time>2018-07-24T10:30:04Z</time>
      </trkpt>
      <trkpt lat="45.96674" lon="4.78401">
        <ele>204</ele>
        <time>2018-07-24T10:30:05Z</time>
      </trkpt>
      <trkpt lat="45.96671" lon="4.78393">
        <ele>204</ele>
        <time>2018-07-24T10:30:06Z</time>
      </trkpt>
      <trkpt lat="45.96666" lon="4.7839">
        <ele>201</ele>
        <time>2018-07-24T10:30:07Z</time>
      </trkpt>
      <trkpt lat="45.96662" lon="4.78385">
        <ele>201</ele>
        <time>2018-07-24T10:30:08Z</time>
      </trkpt>
      <trkpt lat="45.96656" lon="4.78382">
        <ele>201</ele>
        <time>2018-07-24T10:30:09Z</time>
      </trkpt>
      <trkpt lat="45.96649" lon="4.7838">
        <ele>201</ele>
        <time>2018-07-24T10:30:10Z</time>
      </trkpt>
      <trkpt lat="45.96645" lon="4.78376">
        <ele>201</ele>
        <time>2018-07-24T10:30:11Z</time>
      </trkpt>
      <trkpt lat="45.9664" lon="4.78372">
        <ele>201</ele>
        <time>2018-07-24T10:30:12Z</time>
      </trkpt>
      <trkpt lat="45.96635" lon="4.78367">
        <ele>201</ele>
        <time>2018-07-24T10:30:13Z</time>
      </trkpt>
      <trkpt lat="45.96631" lon="4.78362">
        <ele>201</ele>
        <time>2018-07-24T10:30:14Z</time>
      </trkpt>
      <trkpt lat="45.96626" lon="4.78358">
        <ele>201</ele>
        <time>2018-07-24T10:30:15Z</time>
      </trkpt>
      <trkpt lat="45.96622" lon="4.78353">
        <ele>201</ele>
        <time>2018-07-24T10:30:16Z</time>
      </trkpt>
      <trkpt lat="45.96618" lon="4.78349">
        <ele>201</ele>
        <time>2018-07-24T10:30:17Z</time>
      </trkpt>
      <trkpt lat="45.96614" lon="4.78346">
        <ele>201</ele>
        <time>2018-07-24T10:30:18Z</time>
      </trkpt>
      <trkpt lat="45.96609" lon="4.78342">
        <ele>200</ele>
        <time>2018-07-24T10:30:19Z</time>
      </trkpt>
      <trkpt lat="45.96604" lon="4.78337">
        <ele>200</ele>
        <time>2018-07-24T10:30:20Z</time>
      </trkpt>
      <trkpt lat="45.966" lon="4.78334">
        <ele>200</ele>
        <time>2018-07-24T10:30:21Z</time>
      </trkpt>
      <trkpt lat="45.96594" lon="4.7833">
        <ele>201</ele>
        <time>2018-07-24T10:30:22Z</time>
      </trkpt>
      <trkpt lat="45.9659" lon="4.78325">
        <ele>201</ele>
        <time>2018-07-24T10:30:23Z</time>
      </trkpt>
      <trkpt lat="45.96585" lon="4.7832">
        <ele>201</ele>
        <time>2018-07-24T10:30:24Z</time>
      </trkpt>
      <trkpt lat="45.96579" lon="4.78315">
        <ele>199</ele>
        <time>2018-07-24T10:30:25Z</time>
      </trkpt>
      <trkpt lat="45.96575" lon="4.7831">
        <ele>199</ele>
        <time>2018-07-24T10:30:26Z</time>
      </trkpt>
      <trkpt lat="45.9657" lon="4.78305">
        <ele>200</ele>
        <time>2018-07-24T10:30:27Z</time>
      </trkpt>
      <trkpt lat="45.96564" lon="4.78298">
        <ele>200</ele>
        <time>2018-07-24T10:30:29Z</time>
      </trkpt>
      <trkpt lat="45.96563" lon="4.78296">
        <ele>200</ele>
        <time>2018-07-24T10:30:30Z</time>
      </trkpt>
      <trkpt lat="45.96557" lon="4.78286">
        <ele>200</ele>
        <time>2018-07-24T10:30:31Z</time>
      </trkpt>
      <trkpt lat="45.9655" lon="4.78277">
        <ele>200</ele>
        <time>2018-07-24T10:30:33Z</time>
      </trkpt>
      <trkpt lat="45.96547" lon="4.78273">
        <ele>200</ele>
        <time>2018-07-24T10:30:34Z</time>
      </trkpt>
      <trkpt lat="45.96542" lon="4.78269">
        <ele>200</ele>
        <time>2018-07-24T10:30:35Z</time>
      </trkpt>
      <trkpt lat="45.9654" lon="4.78264">
        <ele>200</ele>
        <time>2018-07-24T10:30:36Z</time>
      </trkpt>
      <trkpt lat="45.96535" lon="4.78257">
        <ele>200</ele>
        <time>2018-07-24T10:30:37Z</time>
      </trkpt>
      <trkpt lat="45.96532" lon="4.78251">
        <ele>200</ele>
        <time>2018-07-24T10:30:38Z</time>
      </trkpt>
      <trkpt lat="45.96529" lon="4.78245">
        <ele>204</ele>
        <time>2018-07-24T10:30:39Z</time>
      </trkpt>
      <trkpt lat="45.96525" lon="4.7824">
        <ele>204</ele>
        <time>2018-07-24T10:30:40Z</time>
      </trkpt>
      <trkpt lat="45.96521" lon="4.78234">
        <ele>204</ele>
        <time>2018-07-24T10:30:41Z</time>
      </trkpt>
      <trkpt lat="45.96518" lon="4.78229">
        <ele>204</ele>
        <time>2018-07-24T10:30:42Z</time>
      </trkpt>
      <trkpt lat="45.96514" lon="4.78223">
        <ele>204</ele>
        <time>2018-07-24T10:30:43Z</time>
      </trkpt>
      <trkpt lat="45.9651" lon="4.78217">
        <ele>205</ele>
        <time>2018-07-24T10:30:44Z</time>
      </trkpt>
      <trkpt lat="45.96508" lon="4.78212">
        <ele>205</ele>
        <time>2018-07-24T10:30:45Z</time>
      </trkpt>
      <trkpt lat="45.96505" lon="4.78206">
        <ele>205</ele>
        <time>2018-07-24T10:30:46Z</time>
      </trkpt>
      <trkpt lat="45.96502" lon="4.78202">
        <ele>205</ele>
        <time>2018-07-24T10:30:47Z</time>
      </trkpt>
      <trkpt lat="45.96497" lon="4.78198">
        <ele>201</ele>
        <time>2018-07-24T10:30:48Z</time>
      </trkpt>
      <trkpt lat="45.96491" lon="4.78195">
        <ele>201</ele>
        <time>2018-07-24T10:30:49Z</time>
      </trkpt>
      <trkpt lat="45.96483" lon="4.78191">
        <ele>201</ele>
        <time>2018-07-24T10:30:50Z</time>
      </trkpt>
      <trkpt lat="45.96475" lon="4.78187">
        <ele>200</ele>
        <time>2018-07-24T10:30:52Z</time>
      </trkpt>
      <trkpt lat="45.9647" lon="4.78184">
        <ele>200</ele>
        <time>2018-07-24T10:30:53Z</time>
      </trkpt>
      <trkpt lat="45.96467" lon="4.78177">
        <ele>200</ele>
        <time>2018-07-24T10:30:54Z</time>
      </trkpt>
      <trkpt lat="45.96463" lon="4.78173">
        <ele>200</ele>
        <time>2018-07-24T10:30:55Z</time>
      </trkpt>
      <trkpt lat="45.96456" lon="4.78166">
        <ele>204</ele>
        <time>2018-07-24T10:30:57Z</time>
      </trkpt>
      <trkpt lat="45.96452" lon="4.78162">
        <ele>204</ele>
        <time>2018-07-24T10:30:58Z</time>
      </trkpt>
      <trkpt lat="45.96448" lon="4.78158">
        <ele>204</ele>
        <time>2018-07-24T10:30:59Z</time>
      </trkpt>
      <trkpt lat="45.96443" lon="4.78153">
        <ele>203</ele>
        <time>2018-07-24T10:31:00Z</time>
      </trkpt>
      <trkpt lat="45.96439" lon="4.7815">
        <ele>203</ele>
        <time>2018-07-24T10:31:01Z</time>
      </trkpt>
      <trkpt lat="45.96435" lon="4.78144">
        <ele>203</ele>
        <time>2018-07-24T10:31:02Z</time>
      </trkpt>
      <trkpt lat="45.96429" lon="4.78141">
        <ele>203</ele>
        <time>2018-07-24T10:31:03Z</time>
      </trkpt>
      <trkpt lat="45.96424" lon="4.78138">
        <ele>203</ele>
        <time>2018-07-24T10:31:04Z</time>
      </trkpt>
      <trkpt lat="45.96419" lon="4.78135">
        <ele>203</ele>
        <time>2018-07-24T10:31:05Z</time>
      </trkpt>
      <trkpt lat="45.96414" lon="4.7813">
        <ele>199</ele>
        <time>2018-07-24T10:31:06Z</time>
      </trkpt>
      <trkpt lat="45.96409" lon="4.78126">
        <ele>200</ele>
        <time>2018-07-24T10:31:07Z</time>
      </trkpt>
      <trkpt lat="45.96404" lon="4.78124">
        <ele>200</ele>
        <time>2018-07-24T10:31:08Z</time>
      </trkpt>
      <trkpt lat="45.964" lon="4.7812">
        <ele>200</ele>
        <time>2018-07-24T10:31:09Z</time>
      </trkpt>
      <trkpt lat="45.96395" lon="4.78116">
        <ele>200</ele>
        <time>2018-07-24T10:31:10Z</time>
      </trkpt>
      <trkpt lat="45.96392" lon="4.78111">
        <ele>200</ele>
        <time>2018-07-24T10:31:11Z</time>
      </trkpt>
      <trkpt lat="45.96386" lon="4.78106">
        <ele>200</ele>
        <time>2018-07-24T10:31:12Z</time>
      </trkpt>
      <trkpt lat="45.96381" lon="4.78102">
        <ele>200</ele>
        <time>2018-07-24T10:31:13Z</time>
      </trkpt>
      <trkpt lat="45.96378" lon="4.78096">
        <ele>200</ele>
        <time>2018-07-24T10:31:14Z</time>
      </trkpt>
      <trkpt lat="45.96374" lon="4.78092">
        <ele>200</ele>
        <time>2018-07-24T10:31:15Z</time>
      </trkpt>
      <trkpt lat="45.9637" lon="4.78088">
        <ele>199</ele>
        <time>2018-07-24T10:31:16Z</time>
      </trkpt>
      <trkpt lat="45.96366" lon="4.78084">
        <ele>199</ele>
        <time>2018-07-24T10:31:17Z</time>
      </trkpt>
      <trkpt lat="45.9636" lon="4.78079">
        <ele>202</ele>
        <time>2018-07-24T10:31:18Z</time>
      </trkpt>
      <trkpt lat="45.96356" lon="4.78072">
        <ele>202</ele>
        <time>2018-07-24T10:31:19Z</time>
      </trkpt>
      <trkpt lat="45.96352" lon="4.78066">
        <ele>202</ele>
        <time>2018-07-24T10:31:20Z</time>
      </trkpt>
      <trkpt lat="45.96347" lon="4.7806">
        <ele>202</ele>
        <time>2018-07-24T10:31:21Z</time>
      </trkpt>
      <trkpt lat="45.96342" lon="4.78054">
        <ele>202</ele>
        <time>2018-07-24T10:31:22Z</time>
      </trkpt>
      <trkpt lat="45.96337" lon="4.78048">
        <ele>203</ele>
        <time>2018-07-24T10:31:23Z</time>
      </trkpt>
      <trkpt lat="45.96332" lon="4.78042">
        <ele>199</ele>
        <time>2018-07-24T10:31:24Z</time>
      </trkpt>
      <trkpt lat="45.96327" lon="4.78037">
        <ele>200</ele>
        <time>2018-07-24T10:31:25Z</time>
      </trkpt>
      <trkpt lat="45.96321" lon="4.78031">
        <ele>200</ele>
        <time>2018-07-24T10:31:26Z</time>
      </trkpt>
      <trkpt lat="45.96316" lon="4.78025">
        <ele>200</ele>
        <time>2018-07-24T10:31:27Z</time>
      </trkpt>
      <trkpt lat="45.96312" lon="4.7802">
        <ele>200</ele>
        <time>2018-07-24T10:31:28Z</time>
      </trkpt>
      <trkpt lat="45.96307" lon="4.78016">
        <ele>200</ele>
        <time>2018-07-24T10:31:29Z</time>
      </trkpt>
      <trkpt lat="45.96302" lon="4.78011">
        <ele>200</ele>
        <time>2018-07-24T10:31:30Z</time>
      </trkpt>
      <trkpt lat="45.96297" lon="4.78006">
        <ele>199</ele>
        <time>2018-07-24T10:31:31Z</time>
      </trkpt>
      <trkpt lat="45.96292" lon="4.78002">
        <ele>199</ele>
        <time>2018-07-24T10:31:32Z</time>
      </trkpt>
      <trkpt lat="45.96287" lon="4.77999">
        <ele>204</ele>
        <time>2018-07-24T10:31:33Z</time>
      </trkpt>
      <trkpt lat="45.96281" lon="4.77995">
        <ele>203</ele>
        <time>2018-07-24T10:31:34Z</time>
      </trkpt>
      <trkpt lat="45.96277" lon="4.7799">
        <ele>203</ele>
        <time>2018-07-24T10:31:35Z</time>
      </trkpt>
      <trkpt lat="45.96272" lon="4.77984">
        <ele>203</ele>
        <time>2018-07-24T10:31:36Z</time>
      </trkpt>
      <trkpt lat="45.96265" lon="4.77978">
        <ele>203</ele>
        <time>2018-07-24T10:31:38Z</time>
      </trkpt>
      <trkpt lat="45.9626" lon="4.77975">
        <ele>203</ele>
        <time>2018-07-24T10:31:39Z</time>
      </trkpt>
      <trkpt lat="45.96254" lon="4.77967">
        <ele>204</ele>
        <time>2018-07-24T10:31:41Z</time>
      </trkpt>
      <trkpt lat="45.9625" lon="4.77963">
        <ele>199</ele>
        <time>2018-07-24T10:31:42Z</time>
      </trkpt>
      <trkpt lat="45.96245" lon="4.77958">
        <ele>199</ele>
        <time>2018-07-24T10:31:43Z</time>
      </trkpt>
      <trkpt lat="45.96242" lon="4.77955">
        <ele>200</ele>
        <time>2018-07-24T10:31:44Z</time>
      </trkpt>
      <trkpt lat="45.96237" lon="4.7795">
        <ele>200</ele>
        <time>2018-07-24T10:31:45Z</time>
      </trkpt>
      <trkpt lat="45.96233" lon="4.77946">
        <ele>200</ele>
        <time>2018-07-24T10:31:46Z</time>
      </trkpt>
      <trkpt lat="45.96229" lon="4.77941">
        <ele>200</ele>
        <time>2018-07-24T10:31:47Z</time>
      </trkpt>
      <trkpt lat="45.96224" lon="4.77935">
        <ele>200</ele>
        <time>2018-07-24T10:31:48Z</time>
      </trkpt>
      <trkpt lat="45.96221" lon="4.7793">
        <ele>200</ele>
        <time>2018-07-24T10:31:49Z</time>
      </trkpt>
      <trkpt lat="45.96218" lon="4.77924">
        <ele>200</ele>
        <time>2018-07-24T10:31:50Z</time>
      </trkpt>
      <trkpt lat="45.96214" lon="4.77918">
        <ele>200</ele>
        <time>2018-07-24T10:31:51Z</time>
      </trkpt>
      <trkpt lat="45.96209" lon="4.77912">
        <ele>202</ele>
        <time>2018-07-24T10:31:52Z</time>
      </trkpt>
      <trkpt lat="45.96202" lon="4.77905">
        <ele>202</ele>
        <time>2018-07-24T10:31:53Z</time>
      </trkpt>
      <trkpt lat="45.96203" lon="4.77901">
        <ele>202</ele>
        <time>2018-07-24T10:31:54Z</time>
      </trkpt>
      <trkpt lat="45.962" lon="4.77896">
        <ele>202</ele>
        <time>2018-07-24T10:31:55Z</time>
      </trkpt>
      <trkpt lat="45.96196" lon="4.77889">
        <ele>202</ele>
        <time>2018-07-24T10:31:56Z</time>
      </trkpt>
      <trkpt lat="45.96192" lon="4.77883">
        <ele>202</ele>
        <time>2018-07-24T10:31:57Z</time>
      </trkpt>
      <trkpt lat="45.96188" lon="4.77878">
        <ele>201</ele>
        <time>2018-07-24T10:31:58Z</time>
      </trkpt>
      <trkpt lat="45.96183" lon="4.77869">
        <ele>201</ele>
        <time>2018-07-24T10:32:00Z</time>
      </trkpt>
      <trkpt lat="45.96179" lon="4.77863">
        <ele>201</ele>
        <time>2018-07-24T10:32:01Z</time>
      </trkpt>
      <trkpt lat="45.96176" lon="4.77856">
        <ele>201</ele>
        <time>2018-07-24T10:32:02Z</time>
      </trkpt>
      <trkpt lat="45.96171" lon="4.7785">
        <ele>201</ele>
        <time>2018-07-24T10:32:03Z</time>
      </trkpt>
      <trkpt lat="45.96167" lon="4.77844">
        <ele>200</ele>
        <time>2018-07-24T10:32:04Z</time>
      </trkpt>
      <trkpt lat="45.96165" lon="4.77837">
        <ele>198</ele>
        <time>2018-07-24T10:32:05Z</time>
      </trkpt>
      <trkpt lat="45.96161" lon="4.7783">
        <ele>199</ele>
        <time>2018-07-24T10:32:06Z</time>
      </trkpt>
      <trkpt lat="45.96158" lon="4.77824">
        <ele>198</ele>
        <time>2018-07-24T10:32:07Z</time>
      </trkpt>
      <trkpt lat="45.96154" lon="4.77817">
        <ele>198</ele>
        <time>2018-07-24T10:32:08Z</time>
      </trkpt>
      <trkpt lat="45.96149" lon="4.7781">
        <ele>198</ele>
        <time>2018-07-24T10:32:09Z</time>
      </trkpt>
      <trkpt lat="45.96146" lon="4.77805">
        <ele>198</ele>
        <time>2018-07-24T10:32:10Z</time>
      </trkpt>
      <trkpt lat="45.96142" lon="4.77799">
        <ele>198</ele>
        <time>2018-07-24T10:32:11Z</time>
      </trkpt>
      <trkpt lat="45.96138" lon="4.77793">
        <ele>198</ele>
        <time>2018-07-24T10:32:12Z</time>
      </trkpt>
      <trkpt lat="45.96134" lon="4.77787">
        <ele>198</ele>
        <time>2018-07-24T10:32:13Z</time>
      </trkpt>
      <trkpt lat="45.96131" lon="4.77781">
        <ele>198</ele>
        <time>2018-07-24T10:32:14Z</time>
      </trkpt>
      <trkpt lat="45.96126" lon="4.77776">
        <ele>198</ele>
        <time>2018-07-24T10:32:15Z</time>
      </trkpt>
      <trkpt lat="45.96122" lon="4.77769">
        <ele>197</ele>
        <time>2018-07-24T10:32:16Z</time>
      </trkpt>
      <trkpt lat="45.96118" lon="4.77763">
        <ele>197</ele>
        <time>2018-07-24T10:32:17Z</time>
      </trkpt>
      <trkpt lat="45.96114" lon="4.77756">
        <ele>197</ele>
        <time>2018-07-24T10:32:18Z</time>
      </trkpt>
      <trkpt lat="45.9611" lon="4.7775">
        <ele>197</ele>
        <time>2018-07-24T10:32:19Z</time>
      </trkpt>
      <trkpt lat="45.96107" lon="4.77744">
        <ele>199</ele>
        <time>2018-07-24T10:32:20Z</time>
      </trkpt>
      <trkpt lat="45.96103" lon="4.77738">
        <ele>199</ele>
        <time>2018-07-24T10:32:21Z</time>
      </trkpt>
      <trkpt lat="45.961" lon="4.77731">
        <ele>199</ele>
        <time>2018-07-24T10:32:22Z</time>
      </trkpt>
      <trkpt lat="45.96097" lon="4.77724">
        <ele>199</ele>
        <time>2018-07-24T10:32:23Z</time>
      </trkpt>
      <trkpt lat="45.96093" lon="4.77718">
        <ele>199</ele>
        <time>2018-07-24T10:32:24Z</time>
      </trkpt>
      <trkpt lat="45.96087" lon="4.77713">
        <ele>199</ele>
        <time>2018-07-24T10:32:25Z</time>
      </trkpt>
      <trkpt lat="45.96082" lon="4.77706">
        <ele>197</ele>
        <time>2018-07-24T10:32:26Z</time>
      </trkpt>
      <trkpt lat="45.96078" lon="4.777">
        <ele>197</ele>
        <time>2018-07-24T10:32:27Z</time>
      </trkpt>
      <trkpt lat="45.96076" lon="4.77693">
        <ele>197</ele>
        <time>2018-07-24T10:32:28Z</time>
      </trkpt>
      <trkpt lat="45.96072" lon="4.77687">
        <ele>198</ele>
        <time>2018-07-24T10:32:29Z</time>
      </trkpt>
      <trkpt lat="45.96067" lon="4.77682">
        <ele>198</ele>
        <time>2018-07-24T10:32:30Z</time>
      </trkpt>
      <trkpt lat="45.96063" lon="4.77676">
        <ele>198</ele>
        <time>2018-07-24T10:32:31Z</time>
      </trkpt>
      <trkpt lat="45.96057" lon="4.77671">
        <ele>197</ele>
        <time>2018-07-24T10:32:32Z</time>
      </trkpt>
      <trkpt lat="45.9605" lon="4.77664">
        <ele>200</ele>
        <time>2018-07-24T10:32:33Z</time>
      </trkpt>
      <trkpt lat="45.96045" lon="4.77658">
        <ele>199</ele>
        <time>2018-07-24T10:32:34Z</time>
      </trkpt>
      <trkpt lat="45.96041" lon="4.77651">
        <ele>199</ele>
        <time>2018-07-24T10:32:35Z</time>
      </trkpt>
      <trkpt lat="45.96037" lon="4.77645">
        <ele>199</ele>
        <time>2018-07-24T10:32:36Z</time>
      </trkpt>
      <trkpt lat="45.96034" lon="4.7764">
        <ele>199</ele>
        <time>2018-07-24T10:32:37Z</time>
      </trkpt>
      <trkpt lat="45.9603" lon="4.77634">
        <ele>199</ele>
        <time>2018-07-24T10:32:38Z</time>
      </trkpt>
      <trkpt lat="45.96025" lon="4.77629">
        <ele>199</ele>
        <time>2018-07-24T10:32:39Z</time>
      </trkpt>
      <trkpt lat="45.96021" lon="4.77624">
        <ele>199</ele>
        <time>2018-07-24T10:32:40Z</time>
      </trkpt>
      <trkpt lat="45.96016" lon="4.77619">
        <ele>199</ele>
        <time>2018-07-24T10:32:41Z</time>
      </trkpt>
      <trkpt lat="45.96011" lon="4.77614">
        <ele>199</ele>
        <time>2018-07-24T10:32:42Z</time>
      </trkpt>
      <trkpt lat="45.9601" lon="4.77607">
        <ele>199</ele>
        <time>2018-07-24T10:32:43Z</time>
      </trkpt>
      <trkpt lat="45.96005" lon="4.77596">
        <ele>198</ele>
        <time>2018-07-24T10:32:45Z</time>
      </trkpt>
      <trkpt lat="45.96004" lon="4.77594">
        <ele>198</ele>
        <time>2018-07-24T10:32:46Z</time>
      </trkpt>
      <trkpt lat="45.96002" lon="4.7759">
        <ele>198</ele>
        <time>2018-07-24T10:32:48Z</time>
      </trkpt>
      <trkpt lat="45.95997" lon="4.77582">
        <ele>197</ele>
        <time>2018-07-24T10:32:49Z</time>
      </trkpt>
      <trkpt lat="45.95995" lon="4.77575">
        <ele>196</ele>
        <time>2018-07-24T10:32:50Z</time>
      </trkpt>
      <trkpt lat="45.95992" lon="4.77569">
        <ele>196</ele>
        <time>2018-07-24T10:32:51Z</time>
      </trkpt>
      <trkpt lat="45.95991" lon="4.77559">
        <ele>196</ele>
        <time>2018-07-24T10:32:53Z</time>
      </trkpt>
      <trkpt lat="45.95987" lon="4.77552">
        <ele>196</ele>
        <time>2018-07-24T10:32:54Z</time>
      </trkpt>
      <trkpt lat="45.95985" lon="4.77546">
        <ele>196</ele>
        <time>2018-07-24T10:32:55Z</time>
      </trkpt>
      <trkpt lat="45.95981" lon="4.7754">
        <ele>196</ele>
        <time>2018-07-24T10:32:56Z</time>
      </trkpt>
      <trkpt lat="45.95978" lon="4.77534">
        <ele>196</ele>
        <time>2018-07-24T10:32:57Z</time>
      </trkpt>
      <trkpt lat="45.95975" lon="4.7753">
        <ele>196</ele>
        <time>2018-07-24T10:32:58Z</time>
      </trkpt>
      <trkpt lat="45.95975" lon="4.77523">
        <ele>196</ele>
        <time>2018-07-24T10:32:59Z</time>
      </trkpt>
      <trkpt lat="45.9597" lon="4.77516">
        <ele>196</ele>
        <time>2018-07-24T10:33:00Z</time>
      </trkpt>
      <trkpt lat="45.95968" lon="4.77509">
        <ele>196</ele>
        <time>2018-07-24T10:33:01Z</time>
      </trkpt>
      <trkpt lat="45.95964" lon="4.775">
        <ele>196</ele>
        <time>2018-07-24T10:33:02Z</time>
      </trkpt>
      <trkpt lat="45.9596" lon="4.77492">
        <ele>196</ele>
        <time>2018-07-24T10:33:03Z</time>
      </trkpt>
      <trkpt lat="45.95956" lon="4.77483">
        <ele>196</ele>
        <time>2018-07-24T10:33:04Z</time>
      </trkpt>
      <trkpt lat="45.9595" lon="4.77474">
        <ele>196</ele>
        <time>2018-07-24T10:33:05Z</time>
      </trkpt>
      <trkpt lat="45.95947" lon="4.77465">
        <ele>196</ele>
        <time>2018-07-24T10:33:06Z</time>
      </trkpt>
      <trkpt lat="45.95943" lon="4.77456">
        <ele>196</ele>
        <time>2018-07-24T10:33:07Z</time>
      </trkpt>
      <trkpt lat="45.9594" lon="4.77448">
        <ele>196</ele>
        <time>2018-07-24T10:33:08Z</time>
      </trkpt>
      <trkpt lat="45.95938" lon="4.77438">
        <ele>196</ele>
        <time>2018-07-24T10:33:09Z</time>
      </trkpt>
      <trkpt lat="45.95936" lon="4.77428">
        <ele>195</ele>
        <time>2018-07-24T10:33:10Z</time>
      </trkpt>
      <trkpt lat="45.95932" lon="4.77419">
        <ele>195</ele>
        <time>2018-07-24T10:33:11Z</time>
      </trkpt>
      <trkpt lat="45.9593" lon="4.77408">
        <ele>196</ele>
        <time>2018-07-24T10:33:12Z</time>
      </trkpt>
      <trkpt lat="45.95926" lon="4.77398">
        <ele>196</ele>
        <time>2018-07-24T10:33:13Z</time>
      </trkpt>
      <trkpt lat="45.95923" lon="4.7739">
        <ele>196</ele>
        <time>2018-07-24T10:33:14Z</time>
      </trkpt>
      <trkpt lat="45.9592" lon="4.77381">
        <ele>196</ele>
        <time>2018-07-24T10:33:15Z</time>
      </trkpt>
      <trkpt lat="45.95917" lon="4.77373">
        <ele>193</ele>
        <time>2018-07-24T10:33:16Z</time>
      </trkpt>
      <trkpt lat="45.95913" lon="4.77363">
        <ele>193</ele>
        <time>2018-07-24T10:33:17Z</time>
      </trkpt>
      <trkpt lat="45.9591" lon="4.77354">
        <ele>193</ele>
        <time>2018-07-24T10:33:18Z</time>
      </trkpt>
      <trkpt lat="45.95909" lon="4.77346">
        <ele>194</ele>
        <time>2018-07-24T10:33:19Z</time>
      </trkpt>
      <trkpt lat="45.95905" lon="4.77337">
        <ele>194</ele>
        <time>2018-07-24T10:33:20Z</time>
      </trkpt>
      <trkpt lat="45.95902" lon="4.77328">
        <ele>194</ele>
        <time>2018-07-24T10:33:21Z</time>
      </trkpt>
      <trkpt lat="45.95901" lon="4.77318">
        <ele>194</ele>
        <time>2018-07-24T10:33:22Z</time>
      </trkpt>
      <trkpt lat="45.959" lon="4.77309">
        <ele>193</ele>
        <time>2018-07-24T10:33:23Z</time>
      </trkpt>
      <trkpt lat="45.95898" lon="4.773">
        <ele>193</ele>
        <time>2018-07-24T10:33:24Z</time>
      </trkpt>
      <trkpt lat="45.95896" lon="4.77292">
        <ele>193</ele>
        <time>2018-07-24T10:33:25Z</time>
      </trkpt>
      <trkpt lat="45.95895" lon="4.77283">
        <ele>193</ele>
        <time>2018-07-24T10:33:26Z</time>
      </trkpt>
      <trkpt lat="45.95894" lon="4.77274">
        <ele>194</ele>
        <time>2018-07-24T10:33:27Z</time>
      </trkpt>
      <trkpt lat="45.95892" lon="4.77266">
        <ele>194</ele>
        <time>2018-07-24T10:33:28Z</time>
      </trkpt>
      <trkpt lat="45.95893" lon="4.77259">
        <ele>194</ele>
        <time>2018-07-24T10:33:29Z</time>
      </trkpt>
      <trkpt lat="45.9589" lon="4.77251">
        <ele>194</ele>
        <time>2018-07-24T10:33:30Z</time>
      </trkpt>
      <trkpt lat="45.95888" lon="4.77242">
        <ele>194</ele>
        <time>2018-07-24T10:33:31Z</time>
      </trkpt>
      <trkpt lat="45.95885" lon="4.77232">
        <ele>194</ele>
        <time>2018-07-24T10:33:32Z</time>
      </trkpt>
      <trkpt lat="45.9588" lon="4.77224">
        <ele>193</ele>
        <time>2018-07-24T10:33:33Z</time>
      </trkpt>
      <trkpt lat="45.95879" lon="4.77215">
        <ele>193</ele>
        <time>2018-07-24T10:33:34Z</time>
      </trkpt>
      <trkpt lat="45.95877" lon="4.77206">
        <ele>193</ele>
        <time>2018-07-24T10:33:35Z</time>
      </trkpt>
      <trkpt lat="45.95873" lon="4.77199">
        <ele>193</ele>
        <time>2018-07-24T10:33:36Z</time>
      </trkpt>
      <trkpt lat="45.95871" lon="4.7719">
        <ele>193</ele>
        <time>2018-07-24T10:33:37Z</time>
      </trkpt>
      <trkpt lat="45.95868" lon="4.77182">
        <ele>193</ele>
        <time>2018-07-24T10:33:38Z</time>
      </trkpt>
      <trkpt lat="45.95866" lon="4.77172">
        <ele>192</ele>
        <time>2018-07-24T10:33:39Z</time>
      </trkpt>
      <trkpt lat="45.95862" lon="4.77163">
        <ele>193</ele>
        <time>2018-07-24T10:33:40Z</time>
      </trkpt>
      <trkpt lat="45.9586" lon="4.77154">
        <ele>193</ele>
        <time>2018-07-24T10:33:41Z</time>
      </trkpt>
      <trkpt lat="45.95858" lon="4.77145">
        <ele>193</ele>
        <time>2018-07-24T10:33:42Z</time>
      </trkpt>
      <trkpt lat="45.95855" lon="4.77136">
        <ele>193</ele>
        <time>2018-07-24T10:33:43Z</time>
      </trkpt>
      <trkpt lat="45.95849" lon="4.77126">
        <ele>193</ele>
        <time>2018-07-24T10:33:44Z</time>
      </trkpt>
      <trkpt lat="45.95846" lon="4.77117">
        <ele>193</ele>
        <time>2018-07-24T10:33:45Z</time>
      </trkpt>
      <trkpt lat="45.95844" lon="4.77108">
        <ele>193</ele>
        <time>2018-07-24T10:33:46Z</time>
      </trkpt>
      <trkpt lat="45.95841" lon="4.77099">
        <ele>193</ele>
        <time>2018-07-24T10:33:47Z</time>
      </trkpt>
      <trkpt lat="45.95838" lon="4.77091">
        <ele>193</ele>
        <time>2018-07-24T10:33:48Z</time>
      </trkpt>
      <trkpt lat="45.95836" lon="4.77083">
        <ele>192</ele>
        <time>2018-07-24T10:33:49Z</time>
      </trkpt>
      <trkpt lat="45.95834" lon="4.77074">
        <ele>192</ele>
        <time>2018-07-24T10:33:50Z</time>
      </trkpt>
      <trkpt lat="45.9583" lon="4.77066">
        <ele>191</ele>
        <time>2018-07-24T10:33:51Z</time>
      </trkpt>
      <trkpt lat="45.95827" lon="4.77059">
        <ele>190</ele>
        <time>2018-07-24T10:33:52Z</time>
      </trkpt>
      <trkpt lat="45.95823" lon="4.77053">
        <ele>190</ele>
        <time>2018-07-24T10:33:53Z</time>
      </trkpt>
      <trkpt lat="45.95819" lon="4.77045">
        <ele>190</ele>
        <time>2018-07-24T10:33:54Z</time>
      </trkpt>
      <trkpt lat="45.95818" lon="4.77038">
        <ele>190</ele>
        <time>2018-07-24T10:33:55Z</time>
      </trkpt>
      <trkpt lat="45.95816" lon="4.77029">
        <ele>190</ele>
        <time>2018-07-24T10:33:56Z</time>
      </trkpt>
      <trkpt lat="45.95812" lon="4.77022">
        <ele>190</ele>
        <time>2018-07-24T10:33:57Z</time>
      </trkpt>
      <trkpt lat="45.95809" lon="4.77013">
        <ele>190</ele>
        <time>2018-07-24T10:33:58Z</time>
      </trkpt>
      <trkpt lat="45.95806" lon="4.77006">
        <ele>190</ele>
        <time>2018-07-24T10:33:59Z</time>
      </trkpt>
      <trkpt lat="45.95804" lon="4.76998">
        <ele>190</ele>
        <time>2018-07-24T10:34:00Z</time>
      </trkpt>
      <trkpt lat="45.95805" lon="4.76989">
        <ele>190</ele>
        <time>2018-07-24T10:34:01Z</time>
      </trkpt>
      <trkpt lat="45.95804" lon="4.7698">
        <ele>189</ele>
        <time>2018-07-24T10:34:02Z</time>
      </trkpt>
      <trkpt lat="45.95805" lon="4.76971">
        <ele>189</ele>
        <time>2018-07-24T10:34:03Z</time>
      </trkpt>
      <trkpt lat="45.95807" lon="4.76962">
        <ele>189</ele>
        <time>2018-07-24T10:34:04Z</time>
      </trkpt>
      <trkpt lat="45.95808" lon="4.76951">
        <ele>189</ele>
        <time>2018-07-24T10:34:05Z</time>
      </trkpt>
      <trkpt lat="45.9581" lon="4.76941">
        <ele>189</ele>
        <time>2018-07-24T10:34:06Z</time>
      </trkpt>
      <trkpt lat="45.95811" lon="4.76933">
        <ele>189</ele>
        <time>2018-07-24T10:34:07Z</time>
      </trkpt>
      <trkpt lat="45.95814" lon="4.76926">
        <ele>189</ele>
        <time>2018-07-24T10:34:08Z</time>
      </trkpt>
      <trkpt lat="45.95816" lon="4.76918">
        <ele>189</ele>
        <time>2018-07-24T10:34:09Z</time>
      </trkpt>
      <trkpt lat="45.95817" lon="4.7691">
        <ele>189</ele>
        <time>2018-07-24T10:34:10Z</time>
      </trkpt>
      <trkpt lat="45.95818" lon="4.769">
        <ele>189</ele>
        <time>2018-07-24T10:34:11Z</time>
      </trkpt>
      <trkpt lat="45.9582" lon="4.7689">
        <ele>189</ele>
        <time>2018-07-24T10:34:12Z</time>
      </trkpt>
      <trkpt lat="45.95822" lon="4.76884">
        <ele>189</ele>
        <time>2018-07-24T10:34:13Z</time>
      </trkpt>
      <trkpt lat="45.95823" lon="4.76876">
        <ele>189</ele>
        <time>2018-07-24T10:34:14Z</time>
      </trkpt>
      <trkpt lat="45.95826" lon="4.76867">
        <ele>189</ele>
        <time>2018-07-24T10:34:15Z</time>
      </trkpt>
      <trkpt lat="45.95827" lon="4.76861">
        <ele>189</ele>
        <time>2018-07-24T10:34:16Z</time>
      </trkpt>
      <trkpt lat="45.95828" lon="4.76853">
        <ele>190</ele>
        <time>2018-07-24T10:34:17Z</time>
      </trkpt>
      <trkpt lat="45.9583" lon="4.76846">
        <ele>190</ele>
        <time>2018-07-24T10:34:18Z</time>
      </trkpt>
      <trkpt lat="45.95831" lon="4.76836">
        <ele>190</ele>
        <time>2018-07-24T10:34:20Z</time>
      </trkpt>
      <trkpt lat="45.95832" lon="4.76829">
        <ele>190</ele>
        <time>2018-07-24T10:34:21Z</time>
      </trkpt>
      <trkpt lat="45.95834" lon="4.76817">
        <ele>190</ele>
        <time>2018-07-24T10:34:23Z</time>
      </trkpt>
      <trkpt lat="45.95835" lon="4.76811">
        <ele>190</ele>
        <time>2018-07-24T10:34:24Z</time>
      </trkpt>
      <trkpt lat="45.95836" lon="4.76801">
        <ele>191</ele>
        <time>2018-07-24T10:34:26Z</time>
      </trkpt>
      <trkpt lat="45.95835" lon="4.76795">
        <ele>191</ele>
        <time>2018-07-24T10:34:27Z</time>
      </trkpt>
      <trkpt lat="45.95832" lon="4.76783">
        <ele>190</ele>
        <time>2018-07-24T10:34:29Z</time>
      </trkpt>
      <trkpt lat="45.95831" lon="4.76775">
        <ele>190</ele>
        <time>2018-07-24T10:34:30Z</time>
      </trkpt>
      <trkpt lat="45.9583" lon="4.76769">
        <ele>190</ele>
        <time>2018-07-24T10:34:31Z</time>
      </trkpt>
      <trkpt lat="45.95828" lon="4.76762">
        <ele>190</ele>
        <time>2018-07-24T10:34:32Z</time>
      </trkpt>
      <trkpt lat="45.95827" lon="4.76753">
        <ele>191</ele>
        <time>2018-07-24T10:34:33Z</time>
      </trkpt>
      <trkpt lat="45.95827" lon="4.76746">
        <ele>190</ele>
        <time>2018-07-24T10:34:34Z</time>
      </trkpt>
      <trkpt lat="45.95826" lon="4.76738">
        <ele>190</ele>
        <time>2018-07-24T10:34:35Z</time>
      </trkpt>
      <trkpt lat="45.95824" lon="4.7673">
        <ele>190</ele>
        <time>2018-07-24T10:34:36Z</time>
      </trkpt>
      <trkpt lat="45.95824" lon="4.7672">
        <ele>189</ele>
        <time>2018-07-24T10:34:37Z</time>
      </trkpt>
      <trkpt lat="45.95822" lon="4.76713">
        <ele>189</ele>
        <time>2018-07-24T10:34:38Z</time>
      </trkpt>
      <trkpt lat="45.95821" lon="4.76705">
        <ele>189</ele>
        <time>2018-07-24T10:34:39Z</time>
      </trkpt>
      <trkpt lat="45.95819" lon="4.76698">
        <ele>189</ele>
        <time>2018-07-24T10:34:40Z</time>
      </trkpt>
      <trkpt lat="45.95819" lon="4.76691">
        <ele>189</ele>
        <time>2018-07-24T10:34:41Z</time>
      </trkpt>
      <trkpt lat="45.95817" lon="4.76683">
        <ele>189</ele>
        <time>2018-07-24T10:34:42Z</time>
      </trkpt>
      <trkpt lat="45.95816" lon="4.76675">
        <ele>189</ele>
        <time>2018-07-24T10:34:43Z</time>
      </trkpt>
      <trkpt lat="45.95815" lon="4.76667">
        <ele>188</ele>
        <time>2018-07-24T10:34:44Z</time>
      </trkpt>
      <trkpt lat="45.95814" lon="4.76661">
        <ele>188</ele>
        <time>2018-07-24T10:34:45Z</time>
      </trkpt>
      <trkpt lat="45.95813" lon="4.76654">
        <ele>188</ele>
        <time>2018-07-24T10:34:46Z</time>
      </trkpt>
      <trkpt lat="45.95812" lon="4.76648">
        <ele>188</ele>
        <time>2018-07-24T10:34:47Z</time>
      </trkpt>
      <trkpt lat="45.95812" lon="4.76641">
        <ele>188</ele>
        <time>2018-07-24T10:34:48Z</time>
      </trkpt>
      <trkpt lat="45.95812" lon="4.76635">
        <ele>188</ele>
        <time>2018-07-24T10:34:49Z</time>
      </trkpt>
      <trkpt lat="45.9581" lon="4.76627">
        <ele>188</ele>
        <time>2018-07-24T10:34:50Z</time>
      </trkpt>
      <trkpt lat="45.95809" lon="4.7662">
        <ele>188</ele>
        <time>2018-07-24T10:34:51Z</time>
      </trkpt>
      <trkpt lat="45.95807" lon="4.76611">
        <ele>188</ele>
        <time>2018-07-24T10:34:52Z</time>
      </trkpt>
      <trkpt lat="45.95806" lon="4.76604">
        <ele>188</ele>
        <time>2018-07-24T10:34:53Z</time>
      </trkpt>
      <trkpt lat="45.95802" lon="4.76598">
        <ele>187</ele>
        <time>2018-07-24T10:34:54Z</time>
      </trkpt>
      <trkpt lat="45.958" lon="4.76591">
        <ele>187</ele>
        <time>2018-07-24T10:34:55Z</time>
      </trkpt>
      <trkpt lat="45.95799" lon="4.76584">
        <ele>187</ele>
        <time>2018-07-24T10:34:56Z</time>
      </trkpt>
      <trkpt lat="45.958" lon="4.76576">
        <ele>187</ele>
        <time>2018-07-24T10:34:57Z</time>
      </trkpt>
      <trkpt lat="45.958" lon="4.76568">
        <ele>187</ele>
        <time>2018-07-24T10:34:58Z</time>
      </trkpt>
      <trkpt lat="45.95798" lon="4.76558">
        <ele>187</ele>
        <time>2018-07-24T10:34:59Z</time>
      </trkpt>
      <trkpt lat="45.95798" lon="4.7655">
        <ele>187</ele>
        <time>2018-07-24T10:35:00Z</time>
      </trkpt>
      <trkpt lat="45.95794" lon="4.76542">
        <ele>187</ele>
        <time>2018-07-24T10:35:01Z</time>
      </trkpt>
      <trkpt lat="45.95793" lon="4.76534">
        <ele>187</ele>
        <time>2018-07-24T10:35:02Z</time>
      </trkpt>
      <trkpt lat="45.95792" lon="4.76525">
        <ele>187</ele>
        <time>2018-07-24T10:35:03Z</time>
      </trkpt>
      <trkpt lat="45.95791" lon="4.76517">
        <ele>187</ele>
        <time>2018-07-24T10:35:04Z</time>
      </trkpt>
      <trkpt lat="45.95789" lon="4.76508">
        <ele>187</ele>
        <time>2018-07-24T10:35:05Z</time>
      </trkpt>
      <trkpt lat="45.95788" lon="4.76503">
        <ele>187</ele>
        <time>2018-07-24T10:35:06Z</time>
      </trkpt>
      <trkpt lat="45.95788" lon="4.76495">
        <ele>186</ele>
        <time>2018-07-24T10:35:07Z</time>
      </trkpt>
      <trkpt lat="45.95785" lon="4.7649">
        <ele>186</ele>
        <time>2018-07-24T10:35:08Z</time>
      </trkpt>
      <trkpt lat="45.95783" lon="4.76482">
        <ele>186</ele>
        <time>2018-07-24T10:35:09Z</time>
      </trkpt>
      <trkpt lat="45.95782" lon="4.76475">
        <ele>186</ele>
        <time>2018-07-24T10:35:10Z</time>
      </trkpt>
      <trkpt lat="45.95781" lon="4.76468">
        <ele>186</ele>
        <time>2018-07-24T10:35:11Z</time>
      </trkpt>
      <trkpt lat="45.9578" lon="4.76461">
        <ele>186</ele>
        <time>2018-07-24T10:35:12Z</time>
      </trkpt>
      <trkpt lat="45.95778" lon="4.76451">
        <ele>186</ele>
        <time>2018-07-24T10:35:13Z</time>
      </trkpt>
      <trkpt lat="45.95778" lon="4.76443">
        <ele>186</ele>
        <time>2018-07-24T10:35:14Z</time>
      </trkpt>
      <trkpt lat="45.95778" lon="4.76434">
        <ele>186</ele>
        <time>2018-07-24T10:35:15Z</time>
      </trkpt>
      <trkpt lat="45.95778" lon="4.76426">
        <ele>186</ele>
        <time>2018-07-24T10:35:16Z</time>
      </trkpt>
      <trkpt lat="45.95777" lon="4.76418">
        <ele>186</ele>
        <time>2018-07-24T10:35:17Z</time>
      </trkpt>
      <trkpt lat="45.95776" lon="4.7641">
        <ele>186</ele>
        <time>2018-07-24T10:35:18Z</time>
      </trkpt>
      <trkpt lat="45.95775" lon="4.76404">
        <ele>186</ele>
        <time>2018-07-24T10:35:19Z</time>
      </trkpt>
      <trkpt lat="45.95775" lon="4.76395">
        <ele>186</ele>
        <time>2018-07-24T10:35:20Z</time>
      </trkpt>
      <trkpt lat="45.95776" lon="4.76389">
        <ele>186</ele>
        <time>2018-07-24T10:35:21Z</time>
      </trkpt>
      <trkpt lat="45.95776" lon="4.76382">
        <ele>186</ele>
        <time>2018-07-24T10:35:22Z</time>
      </trkpt>
      <trkpt lat="45.95777" lon="4.76375">
        <ele>186</ele>
        <time>2018-07-24T10:35:23Z</time>
      </trkpt>
      <trkpt lat="45.95778" lon="4.76368">
        <ele>186</ele>
        <time>2018-07-24T10:35:24Z</time>
      </trkpt>
      <trkpt lat="45.95777" lon="4.7636">
        <ele>186</ele>
        <time>2018-07-24T10:35:25Z</time>
      </trkpt>
      <trkpt lat="45.95777" lon="4.76351">
        <ele>186</ele>
        <time>2018-07-24T10:35:26Z</time>
      </trkpt>
      <trkpt lat="45.95776" lon="4.76343">
        <ele>186</ele>
        <time>2018-07-24T10:35:27Z</time>
      </trkpt>
      <trkpt lat="45.95776" lon="4.76334">
        <ele>186</ele>
        <time>2018-07-24T10:35:28Z</time>
      </trkpt>
      <trkpt lat="45.95775" lon="4.76325">
        <ele>185</ele>
        <time>2018-07-24T10:35:29Z</time>
      </trkpt>
      <trkpt lat="45.95774" lon="4.76317">
        <ele>186</ele>
        <time>2018-07-24T10:35:30Z</time>
      </trkpt>
      <trkpt lat="45.95773" lon="4.76309">
        <ele>186</ele>
        <time>2018-07-24T10:35:31Z</time>
      </trkpt>
      <trkpt lat="45.95772" lon="4.76299">
        <ele>186</ele>
        <time>2018-07-24T10:35:32Z</time>
      </trkpt>
      <trkpt lat="45.95772" lon="4.76293">
        <ele>186</ele>
        <time>2018-07-24T10:35:33Z</time>
      </trkpt>
      <trkpt lat="45.95772" lon="4.76284">
        <ele>186</ele>
        <time>2018-07-24T10:35:34Z</time>
      </trkpt>
      <trkpt lat="45.95772" lon="4.76277">
        <ele>186</ele>
        <time>2018-07-24T10:35:35Z</time>
      </trkpt>
      <trkpt lat="45.95771" lon="4.7627">
        <ele>186</ele>
        <time>2018-07-24T10:35:36Z</time>
      </trkpt>
      <trkpt lat="45.95771" lon="4.76262">
        <ele>186</ele>
        <time>2018-07-24T10:35:37Z</time>
      </trkpt>
      <trkpt lat="45.95769" lon="4.76254">
        <ele>185</ele>
        <time>2018-07-24T10:35:38Z</time>
      </trkpt>
      <trkpt lat="45.95768" lon="4.76246">
        <ele>186</ele>
        <time>2018-07-24T10:35:39Z</time>
      </trkpt>
      <trkpt lat="45.95768" lon="4.76238">
        <ele>186</ele>
        <time>2018-07-24T10:35:40Z</time>
      </trkpt>
      <trkpt lat="45.95767" lon="4.7623">
        <ele>186</ele>
        <time>2018-07-24T10:35:41Z</time>
      </trkpt>
      <trkpt lat="45.95765" lon="4.76219">
        <ele>186</ele>
        <time>2018-07-24T10:35:42Z</time>
      </trkpt>
      <trkpt lat="45.95767" lon="4.76209">
        <ele>186</ele>
        <time>2018-07-24T10:35:43Z</time>
      </trkpt>
      <trkpt lat="45.95768" lon="4.76202">
        <ele>186</ele>
        <time>2018-07-24T10:35:44Z</time>
      </trkpt>
      <trkpt lat="45.95768" lon="4.76193">
        <ele>186</ele>
        <time>2018-07-24T10:35:45Z</time>
      </trkpt>
      <trkpt lat="45.95767" lon="4.76183">
        <ele>186</ele>
        <time>2018-07-24T10:35:46Z</time>
      </trkpt>
      <trkpt lat="45.95766" lon="4.76175">
        <ele>186</ele>
        <time>2018-07-24T10:35:47Z</time>
      </trkpt>
      <trkpt lat="45.95765" lon="4.76168">
        <ele>185</ele>
        <time>2018-07-24T10:35:48Z</time>
      </trkpt>
      <trkpt lat="45.95764" lon="4.7616">
        <ele>186</ele>
        <time>2018-07-24T10:35:49Z</time>
      </trkpt>
      <trkpt lat="45.95764" lon="4.76152">
        <ele>186</ele>
        <time>2018-07-24T10:35:50Z</time>
      </trkpt>
      <trkpt lat="45.95763" lon="4.76143">
        <ele>186</ele>
        <time>2018-07-24T10:35:51Z</time>
      </trkpt>
      <trkpt lat="45.95762" lon="4.76136">
        <ele>186</ele>
        <time>2018-07-24T10:35:52Z</time>
      </trkpt>
      <trkpt lat="45.95761" lon="4.76128">
        <ele>186</ele>
        <time>2018-07-24T10:35:53Z</time>
      </trkpt>
      <trkpt lat="45.95759" lon="4.7612">
        <ele>186</ele>
        <time>2018-07-24T10:35:54Z</time>
      </trkpt>
      <trkpt lat="45.95759" lon="4.76114">
        <ele>186</ele>
        <time>2018-07-24T10:35:55Z</time>
      </trkpt>
      <trkpt lat="45.95758" lon="4.76107">
        <ele>186</ele>
        <time>2018-07-24T10:35:56Z</time>
      </trkpt>
      <trkpt lat="45.95756" lon="4.76099">
        <ele>186</ele>
        <time>2018-07-24T10:35:57Z</time>
      </trkpt>
      <trkpt lat="45.95754" lon="4.76092">
        <ele>185</ele>
        <time>2018-07-24T10:35:58Z</time>
      </trkpt>
      <trkpt lat="45.95751" lon="4.76084">
        <ele>185</ele>
        <time>2018-07-24T10:35:59Z</time>
      </trkpt>
      <trkpt lat="45.95748" lon="4.76077">
        <ele>185</ele>
        <time>2018-07-24T10:36:00Z</time>
      </trkpt>
      <trkpt lat="45.95745" lon="4.76069">
        <ele>185</ele>
        <time>2018-07-24T10:36:01Z</time>
      </trkpt>
      <trkpt lat="45.95741" lon="4.76062">
        <ele>184</ele>
        <time>2018-07-24T10:36:02Z</time>
      </trkpt>
      <trkpt lat="45.95738" lon="4.76055">
        <ele>184</ele>
        <time>2018-07-24T10:36:03Z</time>
      </trkpt>
      <trkpt lat="45.95735" lon="4.76047">
        <ele>184</ele>
        <time>2018-07-24T10:36:04Z</time>
      </trkpt>
      <trkpt lat="45.95732" lon="4.76041">
        <ele>184</ele>
        <time>2018-07-24T10:36:05Z</time>
      </trkpt>
      <trkpt lat="45.95729" lon="4.76034">
        <ele>184</ele>
        <time>2018-07-24T10:36:06Z</time>
      </trkpt>
      <trkpt lat="45.95725" lon="4.76026">
        <ele>184</ele>
        <time>2018-07-24T10:36:07Z</time>
      </trkpt>
      <trkpt lat="45.95721" lon="4.76019">
        <ele>184</ele>
        <time>2018-07-24T10:36:08Z</time>
      </trkpt>
      <trkpt lat="45.95717" lon="4.76012">
        <ele>184</ele>
        <time>2018-07-24T10:36:09Z</time>
      </trkpt>
      <trkpt lat="45.95714" lon="4.76004">
        <ele>184</ele>
        <time>2018-07-24T10:36:10Z</time>
      </trkpt>
      <trkpt lat="45.95711" lon="4.75998">
        <ele>185</ele>
        <time>2018-07-24T10:36:11Z</time>
      </trkpt>
      <trkpt lat="45.95709" lon="4.75992">
        <ele>185</ele>
        <time>2018-07-24T10:36:12Z</time>
      </trkpt>
      <trkpt lat="45.95705" lon="4.75985">
        <ele>185</ele>
        <time>2018-07-24T10:36:13Z</time>
      </trkpt>
      <trkpt lat="45.957" lon="4.75977">
        <ele>185</ele>
        <time>2018-07-24T10:36:14Z</time>
      </trkpt>
      <trkpt lat="45.95698" lon="4.7597">
        <ele>185</ele>
        <time>2018-07-24T10:36:15Z</time>
      </trkpt>
      <trkpt lat="45.95694" lon="4.75963">
        <ele>185</ele>
        <time>2018-07-24T10:36:16Z</time>
      </trkpt>
      <trkpt lat="45.95691" lon="4.75957">
        <ele>185</ele>
        <time>2018-07-24T10:36:17Z</time>
      </trkpt>
      <trkpt lat="45.95687" lon="4.7595">
        <ele>185</ele>
        <time>2018-07-24T10:36:18Z</time>
      </trkpt>
      <trkpt lat="45.95684" lon="4.75944">
        <ele>185</ele>
        <time>2018-07-24T10:36:19Z</time>
      </trkpt>
      <trkpt lat="45.95681" lon="4.75937">
        <ele>185</ele>
        <time>2018-07-24T10:36:20Z</time>
      </trkpt>
      <trkpt lat="45.95678" lon="4.7593">
        <ele>185</ele>
        <time>2018-07-24T10:36:21Z</time>
      </trkpt>
      <trkpt lat="45.95675" lon="4.75922">
        <ele>184</ele>
        <time>2018-07-24T10:36:22Z</time>
      </trkpt>
      <trkpt lat="45.95672" lon="4.75915">
        <ele>185</ele>
        <time>2018-07-24T10:36:23Z</time>
      </trkpt>
      <trkpt lat="45.95671" lon="4.75908">
        <ele>185</ele>
        <time>2018-07-24T10:36:24Z</time>
      </trkpt>
      <trkpt lat="45.95669" lon="4.75901">
        <ele>185</ele>
        <time>2018-07-24T10:36:25Z</time>
      </trkpt>
      <trkpt lat="45.95667" lon="4.75894">
        <ele>186</ele>
        <time>2018-07-24T10:36:26Z</time>
      </trkpt>
      <trkpt lat="45.95665" lon="4.75886">
        <ele>184</ele>
        <time>2018-07-24T10:36:27Z</time>
      </trkpt>
      <trkpt lat="45.95662" lon="4.75879">
        <ele>184</ele>
        <time>2018-07-24T10:36:28Z</time>
      </trkpt>
      <trkpt lat="45.95659" lon="4.75872">
        <ele>184</ele>
        <time>2018-07-24T10:36:29Z</time>
      </trkpt>
      <trkpt lat="45.95657" lon="4.75864">
        <ele>184</ele>
        <time>2018-07-24T10:36:30Z</time>
      </trkpt>
      <trkpt lat="45.95656" lon="4.75856">
        <ele>184</ele>
        <time>2018-07-24T10:36:31Z</time>
      </trkpt>
      <trkpt lat="45.95654" lon="4.75848">
        <ele>185</ele>
        <time>2018-07-24T10:36:32Z</time>
      </trkpt>
      <trkpt lat="45.95652" lon="4.7584">
        <ele>185</ele>
        <time>2018-07-24T10:36:33Z</time>
      </trkpt>
      <trkpt lat="45.9565" lon="4.75832">
        <ele>185</ele>
        <time>2018-07-24T10:36:34Z</time>
      </trkpt>
      <trkpt lat="45.95648" lon="4.75826">
        <ele>185</ele>
        <time>2018-07-24T10:36:35Z</time>
      </trkpt>
      <trkpt lat="45.95646" lon="4.75818">
        <ele>185</ele>
        <time>2018-07-24T10:36:36Z</time>
      </trkpt>
      <trkpt lat="45.95646" lon="4.75809">
        <ele>185</ele>
        <time>2018-07-24T10:36:37Z</time>
      </trkpt>
      <trkpt lat="45.95644" lon="4.75801">
        <ele>185</ele>
        <time>2018-07-24T10:36:38Z</time>
      </trkpt>
      <trkpt lat="45.95643" lon="4.75793">
        <ele>185</ele>
        <time>2018-07-24T10:36:39Z</time>
      </trkpt>
      <trkpt lat="45.95642" lon="4.75785">
        <ele>185</ele>
        <time>2018-07-24T10:36:40Z</time>
      </trkpt>
      <trkpt lat="45.9564" lon="4.75778">
        <ele>186</ele>
        <time>2018-07-24T10:36:41Z</time>
      </trkpt>
      <trkpt lat="45.95639" lon="4.75769">
        <ele>186</ele>
        <time>2018-07-24T10:36:42Z</time>
      </trkpt>
      <trkpt lat="45.95638" lon="4.75761">
        <ele>186</ele>
        <time>2018-07-24T10:36:43Z</time>
      </trkpt>
      <trkpt lat="45.95637" lon="4.75753">
        <ele>186</ele>
        <time>2018-07-24T10:36:44Z</time>
      </trkpt>
      <trkpt lat="45.95637" lon="4.75745">
        <ele>187</ele>
        <time>2018-07-24T10:36:45Z</time>
      </trkpt>
      <trkpt lat="45.95636" lon="4.75738">
        <ele>187</ele>
        <time>2018-07-24T10:36:46Z</time>
      </trkpt>
      <trkpt lat="45.95635" lon="4.75729">
        <ele>187</ele>
        <time>2018-07-24T10:36:47Z</time>
      </trkpt>
      <trkpt lat="45.95635" lon="4.75722">
        <ele>187</ele>
        <time>2018-07-24T10:36:48Z</time>
      </trkpt>
      <trkpt lat="45.95635" lon="4.75716">
        <ele>187</ele>
        <time>2018-07-24T10:36:49Z</time>
      </trkpt>
      <trkpt lat="45.95635" lon="4.75709">
        <ele>187</ele>
        <time>2018-07-24T10:36:50Z</time>
      </trkpt>
      <trkpt lat="45.95634" lon="4.75701">
        <ele>187</ele>
        <time>2018-07-24T10:36:51Z</time>
      </trkpt>
      <trkpt lat="45.95633" lon="4.75695">
        <ele>187</ele>
        <time>2018-07-24T10:36:52Z</time>
      </trkpt>
      <trkpt lat="45.95632" lon="4.75686">
        <ele>187</ele>
        <time>2018-07-24T10:36:53Z</time>
      </trkpt>
      <trkpt lat="45.95631" lon="4.75679">
        <ele>188</ele>
        <time>2018-07-24T10:36:54Z</time>
      </trkpt>
      <trkpt lat="45.9563" lon="4.75671">
        <ele>188</ele>
        <time>2018-07-24T10:36:55Z</time>
      </trkpt>
      <trkpt lat="45.95628" lon="4.75663">
        <ele>188</ele>
        <time>2018-07-24T10:36:56Z</time>
      </trkpt>
      <trkpt lat="45.95627" lon="4.75655">
        <ele>188</ele>
        <time>2018-07-24T10:36:57Z</time>
      </trkpt>
      <trkpt lat="45.95625" lon="4.75648">
        <ele>188</ele>
        <time>2018-07-24T10:36:58Z</time>
      </trkpt>
      <trkpt lat="45.95622" lon="4.75639">
        <ele>188</ele>
        <time>2018-07-24T10:36:59Z</time>
      </trkpt>
      <trkpt lat="45.95621" lon="4.75632">
        <ele>188</ele>
        <time>2018-07-24T10:37:00Z</time>
      </trkpt>
      <trkpt lat="45.95618" lon="4.75625">
        <ele>188</ele>
        <time>2018-07-24T10:37:01Z</time>
      </trkpt>
      <trkpt lat="45.95616" lon="4.75617">
        <ele>188</ele>
        <time>2018-07-24T10:37:02Z</time>
      </trkpt>
      <trkpt lat="45.95615" lon="4.75611">
        <ele>188</ele>
        <time>2018-07-24T10:37:03Z</time>
      </trkpt>
      <trkpt lat="45.95612" lon="4.75605">
        <ele>188</ele>
        <time>2018-07-24T10:37:04Z</time>
      </trkpt>
      <trkpt lat="45.95607" lon="4.75597">
        <ele>187</ele>
        <time>2018-07-24T10:37:05Z</time>
      </trkpt>
      <trkpt lat="45.95608" lon="4.7559">
        <ele>187</ele>
        <time>2018-07-24T10:37:06Z</time>
      </trkpt>
      <trkpt lat="45.95606" lon="4.75583">
        <ele>188</ele>
        <time>2018-07-24T10:37:07Z</time>
      </trkpt>
      <trkpt lat="45.95603" lon="4.75575">
        <ele>188</ele>
        <time>2018-07-24T10:37:08Z</time>
      </trkpt>
      <trkpt lat="45.95599" lon="4.75569">
        <ele>188</ele>
        <time>2018-07-24T10:37:09Z</time>
      </trkpt>
      <trkpt lat="45.95596" lon="4.75562">
        <ele>188</ele>
        <time>2018-07-24T10:37:10Z</time>
      </trkpt>
      <trkpt lat="45.95591" lon="4.75556">
        <ele>188</ele>
        <time>2018-07-24T10:37:11Z</time>
      </trkpt>
      <trkpt lat="45.95585" lon="4.7555">
        <ele>188</ele>
        <time>2018-07-24T10:37:12Z</time>
      </trkpt>
      <trkpt lat="45.9558" lon="4.75545">
        <ele>186</ele>
        <time>2018-07-24T10:37:13Z</time>
      </trkpt>
      <trkpt lat="45.95576" lon="4.75538">
        <ele>186</ele>
        <time>2018-07-24T10:37:14Z</time>
      </trkpt>
      <trkpt lat="45.95572" lon="4.75533">
        <ele>186</ele>
        <time>2018-07-24T10:37:15Z</time>
      </trkpt>
      <trkpt lat="45.95566" lon="4.75528">
        <ele>186</ele>
        <time>2018-07-24T10:37:16Z</time>
      </trkpt>
      <trkpt lat="45.95561" lon="4.75522">
        <ele>186</ele>
        <time>2018-07-24T10:37:17Z</time>
      </trkpt>
      <trkpt lat="45.95555" lon="4.75518">
        <ele>186</ele>
        <time>2018-07-24T10:37:18Z</time>
      </trkpt>
      <trkpt lat="45.95551" lon="4.75512">
        <ele>186</ele>
        <time>2018-07-24T10:37:19Z</time>
      </trkpt>
      <trkpt lat="45.95548" lon="4.75507">
        <ele>186</ele>
        <time>2018-07-24T10:37:20Z</time>
      </trkpt>
      <trkpt lat="45.95543" lon="4.75498">
        <ele>187</ele>
        <time>2018-07-24T10:37:23Z</time>
      </trkpt>
      <trkpt lat="45.95542" lon="4.75496">
        <ele>187</ele>
        <time>2018-07-24T10:37:24Z</time>
      </trkpt>
      <trkpt lat="45.95542" lon="4.75486">
        <ele>187</ele>
        <time>2018-07-24T10:37:27Z</time>
      </trkpt>
      <trkpt lat="45.95541" lon="4.75472">
        <ele>187</ele>
        <time>2018-07-24T10:37:28Z</time>
      </trkpt>
      <trkpt lat="45.95541" lon="4.7546">
        <ele>187</ele>
        <time>2018-07-24T10:37:30Z</time>
      </trkpt>
      <trkpt lat="45.9554" lon="4.75457">
        <ele>187</ele>
        <time>2018-07-24T10:37:31Z</time>
      </trkpt>
      <trkpt lat="45.95537" lon="4.75451">
        <ele>187</ele>
        <time>2018-07-24T10:37:32Z</time>
      </trkpt>
      <trkpt lat="45.95532" lon="4.75447">
        <ele>187</ele>
        <time>2018-07-24T10:37:33Z</time>
      </trkpt>
      <trkpt lat="45.95527" lon="4.75442">
        <ele>187</ele>
        <time>2018-07-24T10:37:34Z</time>
      </trkpt>
      <trkpt lat="45.95523" lon="4.75437">
        <ele>187</ele>
        <time>2018-07-24T10:37:35Z</time>
      </trkpt>
      <trkpt lat="45.95517" lon="4.7543">
        <ele>187</ele>
        <time>2018-07-24T10:37:36Z</time>
      </trkpt>
      <trkpt lat="45.95514" lon="4.75421">
        <ele>186</ele>
        <time>2018-07-24T10:37:37Z</time>
      </trkpt>
      <trkpt lat="45.95512" lon="4.75416">
        <ele>187</ele>
        <time>2018-07-24T10:37:38Z</time>
      </trkpt>
      <trkpt lat="45.95509" lon="4.75408">
        <ele>187</ele>
        <time>2018-07-24T10:37:39Z</time>
      </trkpt>
      <trkpt lat="45.9551" lon="4.75396">
        <ele>188</ele>
        <time>2018-07-24T10:37:41Z</time>
      </trkpt>
      <trkpt lat="45.95507" lon="4.75389">
        <ele>188</ele>
        <time>2018-07-24T10:37:42Z</time>
      </trkpt>
      <trkpt lat="45.95505" lon="4.75383">
        <ele>188</ele>
        <time>2018-07-24T10:37:43Z</time>
      </trkpt>
      <trkpt lat="45.95502" lon="4.75376">
        <ele>189</ele>
        <time>2018-07-24T10:37:44Z</time>
      </trkpt>
      <trkpt lat="45.955" lon="4.7537">
        <ele>186</ele>
        <time>2018-07-24T10:37:45Z</time>
      </trkpt>
      <trkpt lat="45.95497" lon="4.75364">
        <ele>186</ele>
        <time>2018-07-24T10:37:46Z</time>
      </trkpt>
      <trkpt lat="45.95493" lon="4.75353">
        <ele>186</ele>
        <time>2018-07-24T10:37:48Z</time>
      </trkpt>
      <trkpt lat="45.9549" lon="4.75347">
        <ele>187</ele>
        <time>2018-07-24T10:37:49Z</time>
      </trkpt>
      <trkpt lat="45.95488" lon="4.75342">
        <ele>187</ele>
        <time>2018-07-24T10:37:50Z</time>
      </trkpt>
      <trkpt lat="45.95484" lon="4.75335">
        <ele>187</ele>
        <time>2018-07-24T10:37:51Z</time>
      </trkpt>
      <trkpt lat="45.9548" lon="4.75329">
        <ele>188</ele>
        <time>2018-07-24T10:37:52Z</time>
      </trkpt>
      <trkpt lat="45.95477" lon="4.75323">
        <ele>188</ele>
        <time>2018-07-24T10:37:53Z</time>
      </trkpt>
      <trkpt lat="45.95475" lon="4.75317">
        <ele>188</ele>
        <time>2018-07-24T10:37:54Z</time>
      </trkpt>
      <trkpt lat="45.95471" lon="4.75311">
        <ele>188</ele>
        <time>2018-07-24T10:37:55Z</time>
      </trkpt>
      <trkpt lat="45.95468" lon="4.75306">
        <ele>188</ele>
        <time>2018-07-24T10:37:56Z</time>
      </trkpt>
      <trkpt lat="45.95466" lon="4.753">
        <ele>188</ele>
        <time>2018-07-24T10:37:57Z</time>
      </trkpt>
      <trkpt lat="45.95462" lon="4.75295">
        <ele>189</ele>
        <time>2018-07-24T10:37:58Z</time>
      </trkpt>
      <trkpt lat="45.95459" lon="4.7529">
        <ele>189</ele>
        <time>2018-07-24T10:37:59Z</time>
      </trkpt>
      <trkpt lat="45.95454" lon="4.75285">
        <ele>189</ele>
        <time>2018-07-24T10:38:00Z</time>
      </trkpt>
      <trkpt lat="45.95452" lon="4.7528">
        <ele>189</ele>
        <time>2018-07-24T10:38:01Z</time>
      </trkpt>
      <trkpt lat="45.95448" lon="4.75274">
        <ele>189</ele>
        <time>2018-07-24T10:38:02Z</time>
      </trkpt>
      <trkpt lat="45.95446" lon="4.75267">
        <ele>189</ele>
        <time>2018-07-24T10:38:03Z</time>
      </trkpt>
      <trkpt lat="45.95442" lon="4.75263">
        <ele>189</ele>
        <time>2018-07-24T10:38:04Z</time>
      </trkpt>
      <trkpt lat="45.95439" lon="4.75259">
        <ele>189</ele>
        <time>2018-07-24T10:38:05Z</time>
      </trkpt>
      <trkpt lat="45.95436" lon="4.75253">
        <ele>189</ele>
        <time>2018-07-24T10:38:06Z</time>
      </trkpt>
      <trkpt lat="45.95433" lon="4.75247">
        <ele>190</ele>
        <time>2018-07-24T10:38:07Z</time>
      </trkpt>
      <trkpt lat="45.9543" lon="4.75241">
        <ele>190</ele>
        <time>2018-07-24T10:38:08Z</time>
      </trkpt>
      <trkpt lat="45.95427" lon="4.75236">
        <ele>190</ele>
        <time>2018-07-24T10:38:09Z</time>
      </trkpt>
      <trkpt lat="45.95424" lon="4.75227">
        <ele>191</ele>
        <time>2018-07-24T10:38:11Z</time>
      </trkpt>
      <trkpt lat="45.95421" lon="4.75221">
        <ele>191</ele>
        <time>2018-07-24T10:38:12Z</time>
      </trkpt>
      <trkpt lat="45.95415" lon="4.75215">
        <ele>189</ele>
        <time>2018-07-24T10:38:13Z</time>
      </trkpt>
      <trkpt lat="45.95412" lon="4.75209">
        <ele>189</ele>
        <time>2018-07-24T10:38:14Z</time>
      </trkpt>
      <trkpt lat="45.95409" lon="4.75204">
        <ele>189</ele>
        <time>2018-07-24T10:38:15Z</time>
      </trkpt>
      <trkpt lat="45.95406" lon="4.75198">
        <ele>189</ele>
        <time>2018-07-24T10:38:16Z</time>
      </trkpt>
      <trkpt lat="45.95402" lon="4.75192">
        <ele>189</ele>
        <time>2018-07-24T10:38:17Z</time>
      </trkpt>
      <trkpt lat="45.95397" lon="4.75186">
        <ele>189</ele>
        <time>2018-07-24T10:38:18Z</time>
      </trkpt>
      <trkpt lat="45.95393" lon="4.75181">
        <ele>189</ele>
        <time>2018-07-24T10:38:19Z</time>
      </trkpt>
      <trkpt lat="45.9539" lon="4.75175">
        <ele>189</ele>
        <time>2018-07-24T10:38:20Z</time>
      </trkpt>
      <trkpt lat="45.95387" lon="4.75169">
        <ele>189</ele>
        <time>2018-07-24T10:38:21Z</time>
      </trkpt>
      <trkpt lat="45.95386" lon="4.75163">
        <ele>191</ele>
        <time>2018-07-24T10:38:22Z</time>
      </trkpt>
      <trkpt lat="45.95381" lon="4.75152">
        <ele>191</ele>
        <time>2018-07-24T10:38:24Z</time>
      </trkpt>
      <trkpt lat="45.95379" lon="4.75147">
        <ele>191</ele>
        <time>2018-07-24T10:38:25Z</time>
      </trkpt>
      <trkpt lat="45.95374" lon="4.75137">
        <ele>191</ele>
        <time>2018-07-24T10:38:27Z</time>
      </trkpt>
      <trkpt lat="45.95371" lon="4.75133">
        <ele>191</ele>
        <time>2018-07-24T10:38:28Z</time>
      </trkpt>
      <trkpt lat="45.95368" lon="4.75126">
        <ele>191</ele>
        <time>2018-07-24T10:38:29Z</time>
      </trkpt>
      <trkpt lat="45.95364" lon="4.75121">
        <ele>191</ele>
        <time>2018-07-24T10:38:30Z</time>
      </trkpt>
      <trkpt lat="45.95361" lon="4.75115">
        <ele>192</ele>
        <time>2018-07-24T10:38:31Z</time>
      </trkpt>
      <trkpt lat="45.95357" lon="4.75109">
        <ele>192</ele>
        <time>2018-07-24T10:38:32Z</time>
      </trkpt>
      <trkpt lat="45.95351" lon="4.75103">
        <ele>192</ele>
        <time>2018-07-24T10:38:33Z</time>
      </trkpt>
      <trkpt lat="45.95348" lon="4.75097">
        <ele>192</ele>
        <time>2018-07-24T10:38:34Z</time>
      </trkpt>
      <trkpt lat="45.95345" lon="4.75092">
        <ele>192</ele>
        <time>2018-07-24T10:38:35Z</time>
      </trkpt>
      <trkpt lat="45.95342" lon="4.75087">
        <ele>193</ele>
        <time>2018-07-24T10:38:36Z</time>
      </trkpt>
      <trkpt lat="45.95337" lon="4.75082">
        <ele>193</ele>
        <time>2018-07-24T10:38:37Z</time>
      </trkpt>
      <trkpt lat="45.95335" lon="4.75077">
        <ele>193</ele>
        <time>2018-07-24T10:38:38Z</time>
      </trkpt>
      <trkpt lat="45.95331" lon="4.75072">
        <ele>192</ele>
        <time>2018-07-24T10:38:39Z</time>
      </trkpt>
      <trkpt lat="45.95328" lon="4.75066">
        <ele>192</ele>
        <time>2018-07-24T10:38:40Z</time>
      </trkpt>
      <trkpt lat="45.95324" lon="4.7506">
        <ele>192</ele>
        <time>2018-07-24T10:38:41Z</time>
      </trkpt>
      <trkpt lat="45.95321" lon="4.75056">
        <ele>192</ele>
        <time>2018-07-24T10:38:42Z</time>
      </trkpt>
      <trkpt lat="45.95318" lon="4.75051">
        <ele>192</ele>
        <time>2018-07-24T10:38:43Z</time>
      </trkpt>
      <trkpt lat="45.95314" lon="4.75046">
        <ele>192</ele>
        <time>2018-07-24T10:38:44Z</time>
      </trkpt>
      <trkpt lat="45.95311" lon="4.75041">
        <ele>192</ele>
        <time>2018-07-24T10:38:45Z</time>
      </trkpt>
      <trkpt lat="45.95304" lon="4.75036">
        <ele>192</ele>
        <time>2018-07-24T10:38:46Z</time>
      </trkpt>
      <trkpt lat="45.953" lon="4.75026">
        <ele>192</ele>
        <time>2018-07-24T10:38:48Z</time>
      </trkpt>
      <trkpt lat="45.95298" lon="4.75022">
        <ele>192</ele>
        <time>2018-07-24T10:38:49Z</time>
      </trkpt>
      <trkpt lat="45.95292" lon="4.75016">
        <ele>191</ele>
        <time>2018-07-24T10:38:50Z</time>
      </trkpt>
      <trkpt lat="45.95289" lon="4.75011">
        <ele>191</ele>
        <time>2018-07-24T10:38:51Z</time>
      </trkpt>
      <trkpt lat="45.95284" lon="4.75003">
        <ele>191</ele>
        <time>2018-07-24T10:38:53Z</time>
      </trkpt>
      <trkpt lat="45.95282" lon="4.74998">
        <ele>192</ele>
        <time>2018-07-24T10:38:54Z</time>
      </trkpt>
      <trkpt lat="45.95278" lon="4.74993">
        <ele>192</ele>
        <time>2018-07-24T10:38:55Z</time>
      </trkpt>
      <trkpt lat="45.95273" lon="4.74987">
        <ele>192</ele>
        <time>2018-07-24T10:38:56Z</time>
      </trkpt>
      <trkpt lat="45.95269" lon="4.74982">
        <ele>192</ele>
        <time>2018-07-24T10:38:57Z</time>
      </trkpt>
      <trkpt lat="45.95266" lon="4.74977">
        <ele>192</ele>
        <time>2018-07-24T10:38:58Z</time>
      </trkpt>
      <trkpt lat="45.95262" lon="4.74971">
        <ele>192</ele>
        <time>2018-07-24T10:38:59Z</time>
      </trkpt>
      <trkpt lat="45.95259" lon="4.74966">
        <ele>192</ele>
        <time>2018-07-24T10:39:00Z</time>
      </trkpt>
      <trkpt lat="45.95254" lon="4.74957">
        <ele>192</ele>
        <time>2018-07-24T10:39:02Z</time>
      </trkpt>
      <trkpt lat="45.9525" lon="4.74952">
        <ele>192</ele>
        <time>2018-07-24T10:39:03Z</time>
      </trkpt>
      <trkpt lat="45.95248" lon="4.74947">
        <ele>192</ele>
        <time>2018-07-24T10:39:04Z</time>
      </trkpt>
      <trkpt lat="45.95244" lon="4.74941">
        <ele>192</ele>
        <time>2018-07-24T10:39:05Z</time>
      </trkpt>
      <trkpt lat="45.95242" lon="4.74937">
        <ele>192</ele>
        <time>2018-07-24T10:39:06Z</time>
      </trkpt>
      <trkpt lat="45.95237" lon="4.74931">
        <ele>192</ele>
        <time>2018-07-24T10:39:07Z</time>
      </trkpt>
      <trkpt lat="45.95233" lon="4.74926">
        <ele>192</ele>
        <time>2018-07-24T10:39:08Z</time>
      </trkpt>
      <trkpt lat="45.95229" lon="4.74921">
        <ele>192</ele>
        <time>2018-07-24T10:39:09Z</time>
      </trkpt>
      <trkpt lat="45.95226" lon="4.74916">
        <ele>193</ele>
        <time>2018-07-24T10:39:10Z</time>
      </trkpt>
      <trkpt lat="45.95224" lon="4.7491">
        <ele>193</ele>
        <time>2018-07-24T10:39:11Z</time>
      </trkpt>
      <trkpt lat="45.9522" lon="4.74904">
        <ele>193</ele>
        <time>2018-07-24T10:39:12Z</time>
      </trkpt>
      <trkpt lat="45.95216" lon="4.74898">
        <ele>193</ele>
        <time>2018-07-24T10:39:13Z</time>
      </trkpt>
      <trkpt lat="45.95212" lon="4.7489">
        <ele>193</ele>
        <time>2018-07-24T10:39:14Z</time>
      </trkpt>
      <trkpt lat="45.95208" lon="4.74884">
        <ele>194</ele>
        <time>2018-07-24T10:39:15Z</time>
      </trkpt>
      <trkpt lat="45.95204" lon="4.74873">
        <ele>194</ele>
        <time>2018-07-24T10:39:17Z</time>
      </trkpt>
      <trkpt lat="45.952" lon="4.74865">
        <ele>194</ele>
        <time>2018-07-24T10:39:18Z</time>
      </trkpt>
      <trkpt lat="45.95196" lon="4.7486">
        <ele>194</ele>
        <time>2018-07-24T10:39:19Z</time>
      </trkpt>
      <trkpt lat="45.95192" lon="4.74855">
        <ele>194</ele>
        <time>2018-07-24T10:39:20Z</time>
      </trkpt>
      <trkpt lat="45.95189" lon="4.74849">
        <ele>194</ele>
        <time>2018-07-24T10:39:21Z</time>
      </trkpt>
      <trkpt lat="45.95185" lon="4.74845">
        <ele>194</ele>
        <time>2018-07-24T10:39:22Z</time>
      </trkpt>
      <trkpt lat="45.95181" lon="4.74839">
        <ele>194</ele>
        <time>2018-07-24T10:39:23Z</time>
      </trkpt>
      <trkpt lat="45.95178" lon="4.74833">
        <ele>194</ele>
        <time>2018-07-24T10:39:24Z</time>
      </trkpt>
      <trkpt lat="45.95175" lon="4.74828">
        <ele>194</ele>
        <time>2018-07-24T10:39:25Z</time>
      </trkpt>
      <trkpt lat="45.95171" lon="4.74823">
        <ele>194</ele>
        <time>2018-07-24T10:39:26Z</time>
      </trkpt>
      <trkpt lat="45.95166" lon="4.74813">
        <ele>194</ele>
        <time>2018-07-24T10:39:28Z</time>
      </trkpt>
      <trkpt lat="45.95159" lon="4.74808">
        <ele>194</ele>
        <time>2018-07-24T10:39:29Z</time>
      </trkpt>
      <trkpt lat="45.95156" lon="4.74803">
        <ele>194</ele>
        <time>2018-07-24T10:39:30Z</time>
      </trkpt>
      <trkpt lat="45.95153" lon="4.74797">
        <ele>194</ele>
        <time>2018-07-24T10:39:31Z</time>
      </trkpt>
      <trkpt lat="45.95149" lon="4.74792">
        <ele>194</ele>
        <time>2018-07-24T10:39:32Z</time>
      </trkpt>
      <trkpt lat="45.95146" lon="4.74787">
        <ele>194</ele>
        <time>2018-07-24T10:39:33Z</time>
      </trkpt>
      <trkpt lat="45.95143" lon="4.74781">
        <ele>194</ele>
        <time>2018-07-24T10:39:34Z</time>
      </trkpt>
      <trkpt lat="45.95139" lon="4.74774">
        <ele>194</ele>
        <time>2018-07-24T10:39:35Z</time>
      </trkpt>
      <trkpt lat="45.95136" lon="4.74768">
        <ele>194</ele>
        <time>2018-07-24T10:39:36Z</time>
      </trkpt>
      <trkpt lat="45.95133" lon="4.74763">
        <ele>194</ele>
        <time>2018-07-24T10:39:37Z</time>
      </trkpt>
      <trkpt lat="45.95129" lon="4.74757">
        <ele>194</ele>
        <time>2018-07-24T10:39:38Z</time>
      </trkpt>
      <trkpt lat="45.95126" lon="4.74751">
        <ele>194</ele>
        <time>2018-07-24T10:39:39Z</time>
      </trkpt>
      <trkpt lat="45.95123" lon="4.74745">
        <ele>194</ele>
        <time>2018-07-24T10:39:40Z</time>
      </trkpt>
      <trkpt lat="45.95118" lon="4.74739">
        <ele>194</ele>
        <time>2018-07-24T10:39:41Z</time>
      </trkpt>
      <trkpt lat="45.95116" lon="4.74732">
        <ele>194</ele>
        <time>2018-07-24T10:39:42Z</time>
      </trkpt>
      <trkpt lat="45.95112" lon="4.74725">
        <ele>194</ele>
        <time>2018-07-24T10:39:43Z</time>
      </trkpt>
      <trkpt lat="45.95109" lon="4.74719">
        <ele>194</ele>
        <time>2018-07-24T10:39:44Z</time>
      </trkpt>
      <trkpt lat="45.95106" lon="4.74713">
        <ele>194</ele>
        <time>2018-07-24T10:39:45Z</time>
      </trkpt>
      <trkpt lat="45.95102" lon="4.74707">
        <ele>194</ele>
        <time>2018-07-24T10:39:46Z</time>
      </trkpt>
      <trkpt lat="45.95099" lon="4.74701">
        <ele>194</ele>
        <time>2018-07-24T10:39:47Z</time>
      </trkpt>
      <trkpt lat="45.95093" lon="4.74696">
        <ele>194</ele>
        <time>2018-07-24T10:39:49Z</time>
      </trkpt>
      <trkpt lat="45.95091" lon="4.74687">
        <ele>195</ele>
        <time>2018-07-24T10:39:50Z</time>
      </trkpt>
      <trkpt lat="45.95087" lon="4.7468">
        <ele>195</ele>
        <time>2018-07-24T10:39:51Z</time>
      </trkpt>
      <trkpt lat="45.95083" lon="4.74674">
        <ele>195</ele>
        <time>2018-07-24T10:39:52Z</time>
      </trkpt>
      <trkpt lat="45.95079" lon="4.74668">
        <ele>195</ele>
        <time>2018-07-24T10:39:53Z</time>
      </trkpt>
      <trkpt lat="45.95075" lon="4.74661">
        <ele>195</ele>
        <time>2018-07-24T10:39:54Z</time>
      </trkpt>
      <trkpt lat="45.95073" lon="4.74655">
        <ele>195</ele>
        <time>2018-07-24T10:39:55Z</time>
      </trkpt>
      <trkpt lat="45.95069" lon="4.74649">
        <ele>195</ele>
        <time>2018-07-24T10:39:56Z</time>
      </trkpt>
      <trkpt lat="45.95064" lon="4.74644">
        <ele>195</ele>
        <time>2018-07-24T10:39:57Z</time>
      </trkpt>
      <trkpt lat="45.95058" lon="4.74637">
        <ele>194</ele>
        <time>2018-07-24T10:39:58Z</time>
      </trkpt>
      <trkpt lat="45.95056" lon="4.74631">
        <ele>194</ele>
        <time>2018-07-24T10:39:59Z</time>
      </trkpt>
      <trkpt lat="45.95053" lon="4.74624">
        <ele>194</ele>
        <time>2018-07-24T10:40:00Z</time>
      </trkpt>
      <trkpt lat="45.9505" lon="4.74619">
        <ele>194</ele>
        <time>2018-07-24T10:40:01Z</time>
      </trkpt>
      <trkpt lat="45.95047" lon="4.74612">
        <ele>194</ele>
        <time>2018-07-24T10:40:02Z</time>
      </trkpt>
      <trkpt lat="45.95043" lon="4.74606">
        <ele>194</ele>
        <time>2018-07-24T10:40:03Z</time>
      </trkpt>
      <trkpt lat="45.9504" lon="4.746">
        <ele>194</ele>
        <time>2018-07-24T10:40:04Z</time>
      </trkpt>
      <trkpt lat="45.95036" lon="4.74594">
        <ele>194</ele>
        <time>2018-07-24T10:40:05Z</time>
      </trkpt>
      <trkpt lat="45.95032" lon="4.74588">
        <ele>194</ele>
        <time>2018-07-24T10:40:06Z</time>
      </trkpt>
      <trkpt lat="45.95028" lon="4.74582">
        <ele>194</ele>
        <time>2018-07-24T10:40:07Z</time>
      </trkpt>
      <trkpt lat="45.95025" lon="4.74577">
        <ele>194</ele>
        <time>2018-07-24T10:40:08Z</time>
      </trkpt>
      <trkpt lat="45.95019" lon="4.74567">
        <ele>194</ele>
        <time>2018-07-24T10:40:10Z</time>
      </trkpt>
      <trkpt lat="45.95017" lon="4.74562">
        <ele>194</ele>
        <time>2018-07-24T10:40:11Z</time>
      </trkpt>
      <trkpt lat="45.95012" lon="4.74552">
        <ele>194</ele>
        <time>2018-07-24T10:40:13Z</time>
      </trkpt>
      <trkpt lat="45.95008" lon="4.74546">
        <ele>194</ele>
        <time>2018-07-24T10:40:14Z</time>
      </trkpt>
      <trkpt lat="45.95004" lon="4.74539">
        <ele>194</ele>
        <time>2018-07-24T10:40:15Z</time>
      </trkpt>
      <trkpt lat="45.95001" lon="4.74532">
        <ele>194</ele>
        <time>2018-07-24T10:40:16Z</time>
      </trkpt>
      <trkpt lat="45.94996" lon="4.74524">
        <ele>193</ele>
        <time>2018-07-24T10:40:17Z</time>
      </trkpt>
      <trkpt lat="45.94992" lon="4.74517">
        <ele>193</ele>
        <time>2018-07-24T10:40:18Z</time>
      </trkpt>
      <trkpt lat="45.9499" lon="4.7451">
        <ele>193</ele>
        <time>2018-07-24T10:40:19Z</time>
      </trkpt>
      <trkpt lat="45.94985" lon="4.74504">
        <ele>193</ele>
        <time>2018-07-24T10:40:20Z</time>
      </trkpt>
      <trkpt lat="45.94982" lon="4.74496">
        <ele>193</ele>
        <time>2018-07-24T10:40:21Z</time>
      </trkpt>
      <trkpt lat="45.94977" lon="4.74487">
        <ele>193</ele>
        <time>2018-07-24T10:40:22Z</time>
      </trkpt>
      <trkpt lat="45.94972" lon="4.74479">
        <ele>193</ele>
        <time>2018-07-24T10:40:23Z</time>
      </trkpt>
      <trkpt lat="45.94968" lon="4.7447">
        <ele>193</ele>
        <time>2018-07-24T10:40:24Z</time>
      </trkpt>
      <trkpt lat="45.94964" lon="4.74462">
        <ele>193</ele>
        <time>2018-07-24T10:40:25Z</time>
      </trkpt>
      <trkpt lat="45.9496" lon="4.74452">
        <ele>192</ele>
        <time>2018-07-24T10:40:26Z</time>
      </trkpt>
      <trkpt lat="45.94956" lon="4.74442">
        <ele>192</ele>
        <time>2018-07-24T10:40:27Z</time>
      </trkpt>
      <trkpt lat="45.94951" lon="4.74433">
        <ele>192</ele>
        <time>2018-07-24T10:40:28Z</time>
      </trkpt>
      <trkpt lat="45.94946" lon="4.74424">
        <ele>192</ele>
        <time>2018-07-24T10:40:29Z</time>
      </trkpt>
      <trkpt lat="45.94942" lon="4.74415">
        <ele>192</ele>
        <time>2018-07-24T10:40:30Z</time>
      </trkpt>
      <trkpt lat="45.94937" lon="4.74407">
        <ele>192</ele>
        <time>2018-07-24T10:40:31Z</time>
      </trkpt>
      <trkpt lat="45.94932" lon="4.74398">
        <ele>192</ele>
        <time>2018-07-24T10:40:32Z</time>
      </trkpt>
      <trkpt lat="45.94927" lon="4.74389">
        <ele>192</ele>
        <time>2018-07-24T10:40:33Z</time>
      </trkpt>
      <trkpt lat="45.94922" lon="4.74381">
        <ele>192</ele>
        <time>2018-07-24T10:40:34Z</time>
      </trkpt>
      <trkpt lat="45.94917" lon="4.74372">
        <ele>192</ele>
        <time>2018-07-24T10:40:35Z</time>
      </trkpt>
      <trkpt lat="45.94913" lon="4.74364">
        <ele>191</ele>
        <time>2018-07-24T10:40:36Z</time>
      </trkpt>
      <trkpt lat="45.9491" lon="4.74355">
        <ele>191</ele>
        <time>2018-07-24T10:40:37Z</time>
      </trkpt>
      <trkpt lat="45.94907" lon="4.74347">
        <ele>191</ele>
        <time>2018-07-24T10:40:38Z</time>
      </trkpt>
      <trkpt lat="45.94904" lon="4.74339">
        <ele>191</ele>
        <time>2018-07-24T10:40:39Z</time>
      </trkpt>
      <trkpt lat="45.94899" lon="4.74331">
        <ele>191</ele>
        <time>2018-07-24T10:40:40Z</time>
      </trkpt>
      <trkpt lat="45.94895" lon="4.74323">
        <ele>191</ele>
        <time>2018-07-24T10:40:41Z</time>
      </trkpt>
      <trkpt lat="45.94892" lon="4.74314">
        <ele>191</ele>
        <time>2018-07-24T10:40:42Z</time>
      </trkpt>
      <trkpt lat="45.94888" lon="4.74306">
        <ele>191</ele>
        <time>2018-07-24T10:40:43Z</time>
      </trkpt>
      <trkpt lat="45.94883" lon="4.74298">
        <ele>191</ele>
        <time>2018-07-24T10:40:44Z</time>
      </trkpt>
      <trkpt lat="45.94879" lon="4.7429">
        <ele>191</ele>
        <time>2018-07-24T10:40:45Z</time>
      </trkpt>
      <trkpt lat="45.94877" lon="4.74285">
        <ele>191</ele>
        <time>2018-07-24T10:40:46Z</time>
      </trkpt>
      <trkpt lat="45.94874" lon="4.74277">
        <ele>191</ele>
        <time>2018-07-24T10:40:47Z</time>
      </trkpt>
      <trkpt lat="45.9487" lon="4.7427">
        <ele>191</ele>
        <time>2018-07-24T10:40:48Z</time>
      </trkpt>
      <trkpt lat="45.94866" lon="4.74263">
        <ele>190</ele>
        <time>2018-07-24T10:40:49Z</time>
      </trkpt>
      <trkpt lat="45.94863" lon="4.74255">
        <ele>190</ele>
        <time>2018-07-24T10:40:50Z</time>
      </trkpt>
      <trkpt lat="45.94858" lon="4.74248">
        <ele>190</ele>
        <time>2018-07-24T10:40:51Z</time>
      </trkpt>
      <trkpt lat="45.94855" lon="4.74242">
        <ele>190</ele>
        <time>2018-07-24T10:40:52Z</time>
      </trkpt>
      <trkpt lat="45.94848" lon="4.74234">
        <ele>190</ele>
        <time>2018-07-24T10:40:53Z</time>
      </trkpt>
      <trkpt lat="45.94841" lon="4.74227">
        <ele>190</ele>
        <time>2018-07-24T10:40:54Z</time>
      </trkpt>
      <trkpt lat="45.94837" lon="4.74221">
        <ele>190</ele>
        <time>2018-07-24T10:40:55Z</time>
      </trkpt>
      <trkpt lat="45.94833" lon="4.74213">
        <ele>189</ele>
        <time>2018-07-24T10:40:56Z</time>
      </trkpt>
      <trkpt lat="45.94829" lon="4.74206">
        <ele>189</ele>
        <time>2018-07-24T10:40:57Z</time>
      </trkpt>
      <trkpt lat="45.94825" lon="4.742">
        <ele>189</ele>
        <time>2018-07-24T10:40:58Z</time>
      </trkpt>
      <trkpt lat="45.94821" lon="4.74193">
        <ele>189</ele>
        <time>2018-07-24T10:40:59Z</time>
      </trkpt>
      <trkpt lat="45.94817" lon="4.74186">
        <ele>189</ele>
        <time>2018-07-24T10:41:00Z</time>
      </trkpt>
      <trkpt lat="45.94813" lon="4.74179">
        <ele>189</ele>
        <time>2018-07-24T10:41:01Z</time>
      </trkpt>
      <trkpt lat="45.94807" lon="4.7417">
        <ele>189</ele>
        <time>2018-07-24T10:41:02Z</time>
      </trkpt>
      <trkpt lat="45.94804" lon="4.74165">
        <ele>189</ele>
        <time>2018-07-24T10:41:03Z</time>
      </trkpt>
      <trkpt lat="45.948" lon="4.74159">
        <ele>189</ele>
        <time>2018-07-24T10:41:04Z</time>
      </trkpt>
      <trkpt lat="45.94797" lon="4.74153">
        <ele>189</ele>
        <time>2018-07-24T10:41:05Z</time>
      </trkpt>
      <trkpt lat="45.94794" lon="4.74146">
        <ele>189</ele>
        <time>2018-07-24T10:41:06Z</time>
      </trkpt>
      <trkpt lat="45.94791" lon="4.74141">
        <ele>189</ele>
        <time>2018-07-24T10:41:07Z</time>
      </trkpt>
      <trkpt lat="45.94784" lon="4.74134">
        <ele>189</ele>
        <time>2018-07-24T10:41:08Z</time>
      </trkpt>
      <trkpt lat="45.94782" lon="4.74127">
        <ele>189</ele>
        <time>2018-07-24T10:41:09Z</time>
      </trkpt>
      <trkpt lat="45.94778" lon="4.74121">
        <ele>189</ele>
        <time>2018-07-24T10:41:10Z</time>
      </trkpt>
      <trkpt lat="45.94774" lon="4.74115">
        <ele>189</ele>
        <time>2018-07-24T10:41:11Z</time>
      </trkpt>
      <trkpt lat="45.94769" lon="4.74109">
        <ele>189</ele>
        <time>2018-07-24T10:41:12Z</time>
      </trkpt>
      <trkpt lat="45.94765" lon="4.74103">
        <ele>189</ele>
        <time>2018-07-24T10:41:13Z</time>
      </trkpt>
      <trkpt lat="45.94762" lon="4.74096">
        <ele>189</ele>
        <time>2018-07-24T10:41:14Z</time>
      </trkpt>
      <trkpt lat="45.94757" lon="4.7409">
        <ele>189</ele>
        <time>2018-07-24T10:41:15Z</time>
      </trkpt>
      <trkpt lat="45.94753" lon="4.74082">
        <ele>189</ele>
        <time>2018-07-24T10:41:16Z</time>
      </trkpt>
      <trkpt lat="45.94749" lon="4.74076">
        <ele>189</ele>
        <time>2018-07-24T10:41:17Z</time>
      </trkpt>
      <trkpt lat="45.94744" lon="4.74071">
        <ele>188</ele>
        <time>2018-07-24T10:41:18Z</time>
      </trkpt>
      <trkpt lat="45.9474" lon="4.74066">
        <ele>188</ele>
        <time>2018-07-24T10:41:19Z</time>
      </trkpt>
      <trkpt lat="45.94736" lon="4.74061">
        <ele>188</ele>
        <time>2018-07-24T10:41:20Z</time>
      </trkpt>
      <trkpt lat="45.94732" lon="4.74056">
        <ele>188</ele>
        <time>2018-07-24T10:41:21Z</time>
      </trkpt>
      <trkpt lat="45.94727" lon="4.7405">
        <ele>188</ele>
        <time>2018-07-24T10:41:22Z</time>
      </trkpt>
      <trkpt lat="45.94723" lon="4.74044">
        <ele>187</ele>
        <time>2018-07-24T10:41:23Z</time>
      </trkpt>
      <trkpt lat="45.94719" lon="4.74039">
        <ele>187</ele>
        <time>2018-07-24T10:41:24Z</time>
      </trkpt>
      <trkpt lat="45.94716" lon="4.74034">
        <ele>187</ele>
        <time>2018-07-24T10:41:25Z</time>
      </trkpt>
      <trkpt lat="45.94712" lon="4.7403">
        <ele>187</ele>
        <time>2018-07-24T10:41:26Z</time>
      </trkpt>
      <trkpt lat="45.94711" lon="4.74024">
        <ele>187</ele>
        <time>2018-07-24T10:41:27Z</time>
      </trkpt>
      <trkpt lat="45.94708" lon="4.74018">
        <ele>187</ele>
        <time>2018-07-24T10:41:28Z</time>
      </trkpt>
      <trkpt lat="45.94702" lon="4.74012">
        <ele>187</ele>
        <time>2018-07-24T10:41:29Z</time>
      </trkpt>
      <trkpt lat="45.94697" lon="4.74005">
        <ele>187</ele>
        <time>2018-07-24T10:41:30Z</time>
      </trkpt>
      <trkpt lat="45.94694" lon="4.74001">
        <ele>187</ele>
        <time>2018-07-24T10:41:31Z</time>
      </trkpt>
      <trkpt lat="45.94689" lon="4.73996">
        <ele>187</ele>
        <time>2018-07-24T10:41:32Z</time>
      </trkpt>
      <trkpt lat="45.94685" lon="4.73991">
        <ele>187</ele>
        <time>2018-07-24T10:41:33Z</time>
      </trkpt>
      <trkpt lat="45.94681" lon="4.73986">
        <ele>187</ele>
        <time>2018-07-24T10:41:34Z</time>
      </trkpt>
      <trkpt lat="45.94676" lon="4.73979">
        <ele>187</ele>
        <time>2018-07-24T10:41:35Z</time>
      </trkpt>
      <trkpt lat="45.94671" lon="4.73973">
        <ele>187</ele>
        <time>2018-07-24T10:41:36Z</time>
      </trkpt>
      <trkpt lat="45.94667" lon="4.73967">
        <ele>187</ele>
        <time>2018-07-24T10:41:37Z</time>
      </trkpt>
      <trkpt lat="45.94662" lon="4.73958">
        <ele>187</ele>
        <time>2018-07-24T10:41:38Z</time>
      </trkpt>
      <trkpt lat="45.94657" lon="4.73952">
        <ele>187</ele>
        <time>2018-07-24T10:41:39Z</time>
      </trkpt>
      <trkpt lat="45.94652" lon="4.73946">
        <ele>187</ele>
        <time>2018-07-24T10:41:40Z</time>
      </trkpt>
      <trkpt lat="45.94647" lon="4.73939">
        <ele>187</ele>
        <time>2018-07-24T10:41:41Z</time>
      </trkpt>
      <trkpt lat="45.94642" lon="4.73934">
        <ele>187</ele>
        <time>2018-07-24T10:41:42Z</time>
      </trkpt>
      <trkpt lat="45.94638" lon="4.73929">
        <ele>187</ele>
        <time>2018-07-24T10:41:43Z</time>
      </trkpt>
      <trkpt lat="45.94632" lon="4.73924">
        <ele>187</ele>
        <time>2018-07-24T10:41:44Z</time>
      </trkpt>
      <trkpt lat="45.94627" lon="4.73918">
        <ele>187</ele>
        <time>2018-07-24T10:41:45Z</time>
      </trkpt>
      <trkpt lat="45.94622" lon="4.73912">
        <ele>187</ele>
        <time>2018-07-24T10:41:46Z</time>
      </trkpt>
      <trkpt lat="45.94617" lon="4.73906">
        <ele>187</ele>
        <time>2018-07-24T10:41:47Z</time>
      </trkpt>
      <trkpt lat="45.94613" lon="4.73899">
        <ele>187</ele>
        <time>2018-07-24T10:41:48Z</time>
      </trkpt>
      <trkpt lat="45.94608" lon="4.73892">
        <ele>187</ele>
        <time>2018-07-24T10:41:49Z</time>
      </trkpt>
      <trkpt lat="45.94604" lon="4.73887">
        <ele>187</ele>
        <time>2018-07-24T10:41:50Z</time>
      </trkpt>
      <trkpt lat="45.94596" lon="4.73881">
        <ele>187</ele>
        <time>2018-07-24T10:41:51Z</time>
      </trkpt>
      <trkpt lat="45.94591" lon="4.73876">
        <ele>187</ele>
        <time>2018-07-24T10:41:52Z</time>
      </trkpt>
      <trkpt lat="45.94588" lon="4.7387">
        <ele>187</ele>
        <time>2018-07-24T10:41:53Z</time>
      </trkpt>
      <trkpt lat="45.94583" lon="4.73865">
        <ele>187</ele>
        <time>2018-07-24T10:41:54Z</time>
      </trkpt>
      <trkpt lat="45.94579" lon="4.7386">
        <ele>186</ele>
        <time>2018-07-24T10:41:55Z</time>
      </trkpt>
      <trkpt lat="45.94575" lon="4.73854">
        <ele>186</ele>
        <time>2018-07-24T10:41:56Z</time>
      </trkpt>
      <trkpt lat="45.94569" lon="4.7385">
        <ele>186</ele>
        <time>2018-07-24T10:41:57Z</time>
      </trkpt>
      <trkpt lat="45.94564" lon="4.73845">
        <ele>186</ele>
        <time>2018-07-24T10:41:58Z</time>
      </trkpt>
      <trkpt lat="45.94559" lon="4.7384">
        <ele>186</ele>
        <time>2018-07-24T10:41:59Z</time>
      </trkpt>
      <trkpt lat="45.94554" lon="4.73834">
        <ele>186</ele>
        <time>2018-07-24T10:42:00Z</time>
      </trkpt>
      <trkpt lat="45.94549" lon="4.73829">
        <ele>186</ele>
        <time>2018-07-24T10:42:01Z</time>
      </trkpt>
      <trkpt lat="45.94544" lon="4.73824">
        <ele>186</ele>
        <time>2018-07-24T10:42:02Z</time>
      </trkpt>
      <trkpt lat="45.94539" lon="4.73819">
        <ele>186</ele>
        <time>2018-07-24T10:42:03Z</time>
      </trkpt>
      <trkpt lat="45.94535" lon="4.73814">
        <ele>186</ele>
        <time>2018-07-24T10:42:04Z</time>
      </trkpt>
      <trkpt lat="45.94529" lon="4.73809">
        <ele>186</ele>
        <time>2018-07-24T10:42:05Z</time>
      </trkpt>
      <trkpt lat="45.94525" lon="4.73804">
        <ele>186</ele>
        <time>2018-07-24T10:42:06Z</time>
      </trkpt>
      <trkpt lat="45.94519" lon="4.73798">
        <ele>186</ele>
        <time>2018-07-24T10:42:07Z</time>
      </trkpt>
      <trkpt lat="45.94515" lon="4.73793">
        <ele>186</ele>
        <time>2018-07-24T10:42:08Z</time>
      </trkpt>
      <trkpt lat="45.94512" lon="4.73787">
        <ele>186</ele>
        <time>2018-07-24T10:42:09Z</time>
      </trkpt>
      <trkpt lat="45.94508" lon="4.73783">
        <ele>186</ele>
        <time>2018-07-24T10:42:10Z</time>
      </trkpt>
      <trkpt lat="45.94503" lon="4.73778">
        <ele>186</ele>
        <time>2018-07-24T10:42:11Z</time>
      </trkpt>
      <trkpt lat="45.94499" lon="4.73772">
        <ele>186</ele>
        <time>2018-07-24T10:42:12Z</time>
      </trkpt>
      <trkpt lat="45.94494" lon="4.73767">
        <ele>186</ele>
        <time>2018-07-24T10:42:13Z</time>
      </trkpt>
      <trkpt lat="45.94491" lon="4.7376">
        <ele>186</ele>
        <time>2018-07-24T10:42:14Z</time>
      </trkpt>
      <trkpt lat="45.94488" lon="4.73751">
        <ele>186</ele>
        <time>2018-07-24T10:42:15Z</time>
      </trkpt>
      <trkpt lat="45.94486" lon="4.73743">
        <ele>186</ele>
        <time>2018-07-24T10:42:16Z</time>
      </trkpt>
      <trkpt lat="45.94486" lon="4.73734">
        <ele>186</ele>
        <time>2018-07-24T10:42:17Z</time>
      </trkpt>
      <trkpt lat="45.94488" lon="4.73725">
        <ele>186</ele>
        <time>2018-07-24T10:42:18Z</time>
      </trkpt>
      <trkpt lat="45.9449" lon="4.73716">
        <ele>186</ele>
        <time>2018-07-24T10:42:19Z</time>
      </trkpt>
      <trkpt lat="45.94489" lon="4.73708">
        <ele>186</ele>
        <time>2018-07-24T10:42:20Z</time>
      </trkpt>
      <trkpt lat="45.9449" lon="4.73699">
        <ele>186</ele>
        <time>2018-07-24T10:42:21Z</time>
      </trkpt>
      <trkpt lat="45.94492" lon="4.7369">
        <ele>186</ele>
        <time>2018-07-24T10:42:22Z</time>
      </trkpt>
      <trkpt lat="45.94494" lon="4.73682">
        <ele>186</ele>
        <time>2018-07-24T10:42:23Z</time>
      </trkpt>
      <trkpt lat="45.94496" lon="4.73674">
        <ele>185</ele>
        <time>2018-07-24T10:42:24Z</time>
      </trkpt>
      <trkpt lat="45.94496" lon="4.73665">
        <ele>185</ele>
        <time>2018-07-24T10:42:25Z</time>
      </trkpt>
      <trkpt lat="45.94497" lon="4.73655">
        <ele>185</ele>
        <time>2018-07-24T10:42:26Z</time>
      </trkpt>
      <trkpt lat="45.94499" lon="4.73647">
        <ele>185</ele>
        <time>2018-07-24T10:42:27Z</time>
      </trkpt>
      <trkpt lat="45.945" lon="4.73638">
        <ele>186</ele>
        <time>2018-07-24T10:42:28Z</time>
      </trkpt>
      <trkpt lat="45.945" lon="4.7363">
        <ele>186</ele>
        <time>2018-07-24T10:42:29Z</time>
      </trkpt>
      <trkpt lat="45.945" lon="4.73623">
        <ele>184</ele>
        <time>2018-07-24T10:42:30Z</time>
      </trkpt>
      <trkpt lat="45.94502" lon="4.73614">
        <ele>184</ele>
        <time>2018-07-24T10:42:31Z</time>
      </trkpt>
      <trkpt lat="45.94504" lon="4.73606">
        <ele>184</ele>
        <time>2018-07-24T10:42:32Z</time>
      </trkpt>
      <trkpt lat="45.94504" lon="4.73596">
        <ele>184</ele>
        <time>2018-07-24T10:42:33Z</time>
      </trkpt>
      <trkpt lat="45.94505" lon="4.73586">
        <ele>185</ele>
        <time>2018-07-24T10:42:34Z</time>
      </trkpt>
      <trkpt lat="45.94504" lon="4.73576">
        <ele>184</ele>
        <time>2018-07-24T10:42:35Z</time>
      </trkpt>
      <trkpt lat="45.94502" lon="4.73565">
        <ele>184</ele>
        <time>2018-07-24T10:42:36Z</time>
      </trkpt>
      <trkpt lat="45.94503" lon="4.73554">
        <ele>183</ele>
        <time>2018-07-24T10:42:37Z</time>
      </trkpt>
      <trkpt lat="45.94502" lon="4.73543">
        <ele>183</ele>
        <time>2018-07-24T10:42:38Z</time>
      </trkpt>
      <trkpt lat="45.94503" lon="4.73532">
        <ele>183</ele>
        <time>2018-07-24T10:42:39Z</time>
      </trkpt>
      <trkpt lat="45.94504" lon="4.73522">
        <ele>183</ele>
        <time>2018-07-24T10:42:40Z</time>
      </trkpt>
      <trkpt lat="45.94504" lon="4.73512">
        <ele>183</ele>
        <time>2018-07-24T10:42:41Z</time>
      </trkpt>
      <trkpt lat="45.94505" lon="4.73502">
        <ele>183</ele>
        <time>2018-07-24T10:42:42Z</time>
      </trkpt>
      <trkpt lat="45.94505" lon="4.73492">
        <ele>182</ele>
        <time>2018-07-24T10:42:43Z</time>
      </trkpt>
      <trkpt lat="45.94506" lon="4.73482">
        <ele>182</ele>
        <time>2018-07-24T10:42:44Z</time>
      </trkpt>
      <trkpt lat="45.94506" lon="4.73471">
        <ele>182</ele>
        <time>2018-07-24T10:42:45Z</time>
      </trkpt>
      <trkpt lat="45.94506" lon="4.7346">
        <ele>181</ele>
        <time>2018-07-24T10:42:46Z</time>
      </trkpt>
      <trkpt lat="45.94506" lon="4.7345">
        <ele>181</ele>
        <time>2018-07-24T10:42:47Z</time>
      </trkpt>
      <trkpt lat="45.94506" lon="4.73438">
        <ele>181</ele>
        <time>2018-07-24T10:42:48Z</time>
      </trkpt>
      <trkpt lat="45.94506" lon="4.73427">
        <ele>180</ele>
        <time>2018-07-24T10:42:49Z</time>
      </trkpt>
      <trkpt lat="45.94507" lon="4.73417">
        <ele>180</ele>
        <time>2018-07-24T10:42:50Z</time>
      </trkpt>
      <trkpt lat="45.94505" lon="4.73406">
        <ele>179</ele>
        <time>2018-07-24T10:42:51Z</time>
      </trkpt>
      <trkpt lat="45.94505" lon="4.73394">
        <ele>179</ele>
        <time>2018-07-24T10:42:52Z</time>
      </trkpt>
      <trkpt lat="45.94507" lon="4.73381">
        <ele>178</ele>
        <time>2018-07-24T10:42:53Z</time>
      </trkpt>
      <trkpt lat="45.94506" lon="4.7337">
        <ele>178</ele>
        <time>2018-07-24T10:42:54Z</time>
      </trkpt>
      <trkpt lat="45.94505" lon="4.73358">
        <ele>178</ele>
        <time>2018-07-24T10:42:55Z</time>
      </trkpt>
      <trkpt lat="45.94504" lon="4.73347">
        <ele>178</ele>
        <time>2018-07-24T10:42:56Z</time>
      </trkpt>
      <trkpt lat="45.945" lon="4.73336">
        <ele>177</ele>
        <time>2018-07-24T10:42:57Z</time>
      </trkpt>
      <trkpt lat="45.94498" lon="4.73323">
        <ele>177</ele>
        <time>2018-07-24T10:42:58Z</time>
      </trkpt>
      <trkpt lat="45.94496" lon="4.73311">
        <ele>177</ele>
        <time>2018-07-24T10:42:59Z</time>
      </trkpt>
      <trkpt lat="45.94496" lon="4.73301">
        <ele>177</ele>
        <time>2018-07-24T10:43:00Z</time>
      </trkpt>
      <trkpt lat="45.94492" lon="4.7329">
        <ele>177</ele>
        <time>2018-07-24T10:43:01Z</time>
      </trkpt>
      <trkpt lat="45.94491" lon="4.73277">
        <ele>177</ele>
        <time>2018-07-24T10:43:02Z</time>
      </trkpt>
      <trkpt lat="45.9449" lon="4.73265">
        <ele>176</ele>
        <time>2018-07-24T10:43:03Z</time>
      </trkpt>
      <trkpt lat="45.94488" lon="4.73254">
        <ele>176</ele>
        <time>2018-07-24T10:43:04Z</time>
      </trkpt>
      <trkpt lat="45.94485" lon="4.73241">
        <ele>175</ele>
        <time>2018-07-24T10:43:05Z</time>
      </trkpt>
      <trkpt lat="45.94482" lon="4.73228">
        <ele>175</ele>
        <time>2018-07-24T10:43:06Z</time>
      </trkpt>
      <trkpt lat="45.94481" lon="4.73217">
        <ele>175</ele>
        <time>2018-07-24T10:43:07Z</time>
      </trkpt>
      <trkpt lat="45.94479" lon="4.73205">
        <ele>175</ele>
        <time>2018-07-24T10:43:08Z</time>
      </trkpt>
      <trkpt lat="45.94478" lon="4.73193">
        <ele>174</ele>
        <time>2018-07-24T10:43:09Z</time>
      </trkpt>
      <trkpt lat="45.94475" lon="4.73181">
        <ele>174</ele>
        <time>2018-07-24T10:43:10Z</time>
      </trkpt>
      <trkpt lat="45.94474" lon="4.73169">
        <ele>174</ele>
        <time>2018-07-24T10:43:11Z</time>
      </trkpt>
      <trkpt lat="45.94472" lon="4.73157">
        <ele>172</ele>
        <time>2018-07-24T10:43:12Z</time>
      </trkpt>
      <trkpt lat="45.94471" lon="4.73146">
        <ele>172</ele>
        <time>2018-07-24T10:43:13Z</time>
      </trkpt>
      <trkpt lat="45.94468" lon="4.73135">
        <ele>172</ele>
        <time>2018-07-24T10:43:14Z</time>
      </trkpt>
      <trkpt lat="45.94468" lon="4.73125">
        <ele>172</ele>
        <time>2018-07-24T10:43:15Z</time>
      </trkpt>
      <trkpt lat="45.94468" lon="4.73114">
        <ele>172</ele>
        <time>2018-07-24T10:43:16Z</time>
      </trkpt>
      <trkpt lat="45.94467" lon="4.73104">
        <ele>172</ele>
        <time>2018-07-24T10:43:17Z</time>
      </trkpt>
      <trkpt lat="45.94466" lon="4.73094">
        <ele>172</ele>
        <time>2018-07-24T10:43:18Z</time>
      </trkpt>
      <trkpt lat="45.94465" lon="4.73085">
        <ele>171</ele>
        <time>2018-07-24T10:43:19Z</time>
      </trkpt>
      <trkpt lat="45.94463" lon="4.73076">
        <ele>170</ele>
        <time>2018-07-24T10:43:20Z</time>
      </trkpt>
      <trkpt lat="45.94461" lon="4.73067">
        <ele>170</ele>
        <time>2018-07-24T10:43:21Z</time>
      </trkpt>
      <trkpt lat="45.94459" lon="4.73059">
        <ele>170</ele>
        <time>2018-07-24T10:43:22Z</time>
      </trkpt>
      <trkpt lat="45.94458" lon="4.7305">
        <ele>170</ele>
        <time>2018-07-24T10:43:23Z</time>
      </trkpt>
      <trkpt lat="45.9446" lon="4.73043">
        <ele>170</ele>
        <time>2018-07-24T10:43:24Z</time>
      </trkpt>
      <trkpt lat="45.94459" lon="4.73035">
        <ele>169</ele>
        <time>2018-07-24T10:43:25Z</time>
      </trkpt>
      <trkpt lat="45.94457" lon="4.73027">
        <ele>169</ele>
        <time>2018-07-24T10:43:26Z</time>
      </trkpt>
      <trkpt lat="45.94457" lon="4.73021">
        <ele>169</ele>
        <time>2018-07-24T10:43:27Z</time>
      </trkpt>
      <trkpt lat="45.94457" lon="4.73014">
        <ele>169</ele>
        <time>2018-07-24T10:43:28Z</time>
      </trkpt>
      <trkpt lat="45.94454" lon="4.73005">
        <ele>169</ele>
        <time>2018-07-24T10:43:29Z</time>
      </trkpt>
      <trkpt lat="45.94452" lon="4.72999">
        <ele>167</ele>
        <time>2018-07-24T10:43:30Z</time>
      </trkpt>
      <trkpt lat="45.94453" lon="4.72992">
        <ele>167</ele>
        <time>2018-07-24T10:43:31Z</time>
      </trkpt>
      <trkpt lat="45.94452" lon="4.72985">
        <ele>167</ele>
        <time>2018-07-24T10:43:32Z</time>
      </trkpt>
      <trkpt lat="45.94451" lon="4.72978">
        <ele>167</ele>
        <time>2018-07-24T10:43:33Z</time>
      </trkpt>
      <trkpt lat="45.9445" lon="4.72972">
        <ele>167</ele>
        <time>2018-07-24T10:43:34Z</time>
      </trkpt>
      <trkpt lat="45.94448" lon="4.7296">
        <ele>167</ele>
        <time>2018-07-24T10:43:36Z</time>
      </trkpt>
      <trkpt lat="45.94449" lon="4.72953">
        <ele>167</ele>
        <time>2018-07-24T10:43:37Z</time>
      </trkpt>
      <trkpt lat="45.94449" lon="4.72946">
        <ele>167</ele>
        <time>2018-07-24T10:43:38Z</time>
      </trkpt>
      <trkpt lat="45.94449" lon="4.7294">
        <ele>167</ele>
        <time>2018-07-24T10:43:39Z</time>
      </trkpt>
      <trkpt lat="45.94448" lon="4.72927">
        <ele>167</ele>
        <time>2018-07-24T10:43:41Z</time>
      </trkpt>
      <trkpt lat="45.94447" lon="4.72919">
        <ele>167</ele>
        <time>2018-07-24T10:43:42Z</time>
      </trkpt>
      <trkpt lat="45.94445" lon="4.72912">
        <ele>166</ele>
        <time>2018-07-24T10:43:43Z</time>
      </trkpt>
      <trkpt lat="45.94444" lon="4.72904">
        <ele>166</ele>
        <time>2018-07-24T10:43:44Z</time>
      </trkpt>
      <trkpt lat="45.94443" lon="4.72897">
        <ele>166</ele>
        <time>2018-07-24T10:43:45Z</time>
      </trkpt>
      <trkpt lat="45.94439" lon="4.7289">
        <ele>166</ele>
        <time>2018-07-24T10:43:46Z</time>
      </trkpt>
      <trkpt lat="45.94436" lon="4.72885">
        <ele>166</ele>
        <time>2018-07-24T10:43:47Z</time>
      </trkpt>
      <trkpt lat="45.94434" lon="4.72878">
        <ele>166</ele>
        <time>2018-07-24T10:43:48Z</time>
      </trkpt>
      <trkpt lat="45.94433" lon="4.72866">
        <ele>166</ele>
        <time>2018-07-24T10:43:50Z</time>
      </trkpt>
      <trkpt lat="45.94432" lon="4.72857">
        <ele>166</ele>
        <time>2018-07-24T10:43:51Z</time>
      </trkpt>
      <trkpt lat="45.94431" lon="4.7285">
        <ele>166</ele>
        <time>2018-07-24T10:43:52Z</time>
      </trkpt>
      <trkpt lat="45.9443" lon="4.72842">
        <ele>166</ele>
        <time>2018-07-24T10:43:53Z</time>
      </trkpt>
      <trkpt lat="45.9443" lon="4.72834">
        <ele>166</ele>
        <time>2018-07-24T10:43:54Z</time>
      </trkpt>
      <trkpt lat="45.94429" lon="4.72825">
        <ele>167</ele>
        <time>2018-07-24T10:43:55Z</time>
      </trkpt>
      <trkpt lat="45.94428" lon="4.72816">
        <ele>167</ele>
        <time>2018-07-24T10:43:56Z</time>
      </trkpt>
      <trkpt lat="45.94428" lon="4.72809">
        <ele>167</ele>
        <time>2018-07-24T10:43:57Z</time>
      </trkpt>
      <trkpt lat="45.94427" lon="4.728">
        <ele>167</ele>
        <time>2018-07-24T10:43:58Z</time>
      </trkpt>
      <trkpt lat="45.94425" lon="4.72791">
        <ele>168</ele>
        <time>2018-07-24T10:43:59Z</time>
      </trkpt>
      <trkpt lat="45.94424" lon="4.72781">
        <ele>168</ele>
        <time>2018-07-24T10:44:00Z</time>
      </trkpt>
      <trkpt lat="45.94423" lon="4.72771">
        <ele>169</ele>
        <time>2018-07-24T10:44:01Z</time>
      </trkpt>
      <trkpt lat="45.94422" lon="4.72762">
        <ele>169</ele>
        <time>2018-07-24T10:44:02Z</time>
      </trkpt>
      <trkpt lat="45.94421" lon="4.72752">
        <ele>170</ele>
        <time>2018-07-24T10:44:03Z</time>
      </trkpt>
      <trkpt lat="45.9442" lon="4.72742">
        <ele>171</ele>
        <time>2018-07-24T10:44:04Z</time>
      </trkpt>
      <trkpt lat="45.94419" lon="4.72731">
        <ele>171</ele>
        <time>2018-07-24T10:44:05Z</time>
      </trkpt>
      <trkpt lat="45.94417" lon="4.72722">
        <ele>171</ele>
        <time>2018-07-24T10:44:06Z</time>
      </trkpt>
      <trkpt lat="45.94416" lon="4.72711">
        <ele>172</ele>
        <time>2018-07-24T10:44:07Z</time>
      </trkpt>
      <trkpt lat="45.94415" lon="4.72702">
        <ele>172</ele>
        <time>2018-07-24T10:44:08Z</time>
      </trkpt>
      <trkpt lat="45.94414" lon="4.72692">
        <ele>173</ele>
        <time>2018-07-24T10:44:09Z</time>
      </trkpt>
      <trkpt lat="45.94411" lon="4.72681">
        <ele>173</ele>
        <time>2018-07-24T10:44:10Z</time>
      </trkpt>
      <trkpt lat="45.9441" lon="4.72672">
        <ele>173</ele>
        <time>2018-07-24T10:44:11Z</time>
      </trkpt>
      <trkpt lat="45.94409" lon="4.72664">
        <ele>174</ele>
        <time>2018-07-24T10:44:12Z</time>
      </trkpt>
      <trkpt lat="45.94408" lon="4.72654">
        <ele>174</ele>
        <time>2018-07-24T10:44:13Z</time>
      </trkpt>
      <trkpt lat="45.94405" lon="4.72644">
        <ele>174</ele>
        <time>2018-07-24T10:44:14Z</time>
      </trkpt>
      <trkpt lat="45.94404" lon="4.72635">
        <ele>174</ele>
        <time>2018-07-24T10:44:15Z</time>
      </trkpt>
      <trkpt lat="45.94403" lon="4.72625">
        <ele>174</ele>
        <time>2018-07-24T10:44:16Z</time>
      </trkpt>
      <trkpt lat="45.94402" lon="4.72617">
        <ele>173</ele>
        <time>2018-07-24T10:44:17Z</time>
      </trkpt>
      <trkpt lat="45.94401" lon="4.72608">
        <ele>173</ele>
        <time>2018-07-24T10:44:18Z</time>
      </trkpt>
      <trkpt lat="45.944" lon="4.72599">
        <ele>173</ele>
        <time>2018-07-24T10:44:19Z</time>
      </trkpt>
      <trkpt lat="45.94399" lon="4.72592">
        <ele>173</ele>
        <time>2018-07-24T10:44:20Z</time>
      </trkpt>
      <trkpt lat="45.94397" lon="4.72583">
        <ele>173</ele>
        <time>2018-07-24T10:44:21Z</time>
      </trkpt>
      <trkpt lat="45.94396" lon="4.72574">
        <ele>173</ele>
        <time>2018-07-24T10:44:22Z</time>
      </trkpt>
      <trkpt lat="45.94395" lon="4.72566">
        <ele>173</ele>
        <time>2018-07-24T10:44:23Z</time>
      </trkpt>
      <trkpt lat="45.94393" lon="4.72558">
        <ele>173</ele>
        <time>2018-07-24T10:44:24Z</time>
      </trkpt>
      <trkpt lat="45.94393" lon="4.72549">
        <ele>173</ele>
        <time>2018-07-24T10:44:25Z</time>
      </trkpt>
      <trkpt lat="45.94392" lon="4.72541">
        <ele>174</ele>
        <time>2018-07-24T10:44:26Z</time>
      </trkpt>
      <trkpt lat="45.94391" lon="4.72534">
        <ele>174</ele>
        <time>2018-07-24T10:44:27Z</time>
      </trkpt>
      <trkpt lat="45.94389" lon="4.72527">
        <ele>174</ele>
        <time>2018-07-24T10:44:28Z</time>
      </trkpt>
      <trkpt lat="45.94387" lon="4.7252">
        <ele>174</ele>
        <time>2018-07-24T10:44:29Z</time>
      </trkpt>
      <trkpt lat="45.94387" lon="4.72512">
        <ele>174</ele>
        <time>2018-07-24T10:44:30Z</time>
      </trkpt>
      <trkpt lat="45.94385" lon="4.72505">
        <ele>174</ele>
        <time>2018-07-24T10:44:31Z</time>
      </trkpt>
      <trkpt lat="45.94382" lon="4.72496">
        <ele>173</ele>
        <time>2018-07-24T10:44:32Z</time>
      </trkpt>
      <trkpt lat="45.94377" lon="4.72488">
        <ele>173</ele>
        <time>2018-07-24T10:44:33Z</time>
      </trkpt>
      <trkpt lat="45.94373" lon="4.7248">
        <ele>173</ele>
        <time>2018-07-24T10:44:34Z</time>
      </trkpt>
      <trkpt lat="45.9437" lon="4.72473">
        <ele>173</ele>
        <time>2018-07-24T10:44:35Z</time>
      </trkpt>
      <trkpt lat="45.94369" lon="4.72465">
        <ele>173</ele>
        <time>2018-07-24T10:44:36Z</time>
      </trkpt>
      <trkpt lat="45.94365" lon="4.72458">
        <ele>173</ele>
        <time>2018-07-24T10:44:37Z</time>
      </trkpt>
      <trkpt lat="45.94363" lon="4.7245">
        <ele>173</ele>
        <time>2018-07-24T10:44:38Z</time>
      </trkpt>
      <trkpt lat="45.94359" lon="4.72443">
        <ele>173</ele>
        <time>2018-07-24T10:44:39Z</time>
      </trkpt>
      <trkpt lat="45.94355" lon="4.72436">
        <ele>173</ele>
        <time>2018-07-24T10:44:40Z</time>
      </trkpt>
      <trkpt lat="45.94352" lon="4.7243">
        <ele>173</ele>
        <time>2018-07-24T10:44:41Z</time>
      </trkpt>
      <trkpt lat="45.9435" lon="4.72419">
        <ele>173</ele>
        <time>2018-07-24T10:44:43Z</time>
      </trkpt>
      <trkpt lat="45.94347" lon="4.72412">
        <ele>173</ele>
        <time>2018-07-24T10:44:44Z</time>
      </trkpt>
      <trkpt lat="45.94346" lon="4.72406">
        <ele>173</ele>
        <time>2018-07-24T10:44:45Z</time>
      </trkpt>
      <trkpt lat="45.94344" lon="4.72399">
        <ele>172</ele>
        <time>2018-07-24T10:44:46Z</time>
      </trkpt>
      <trkpt lat="45.94338" lon="4.7239">
        <ele>172</ele>
        <time>2018-07-24T10:44:47Z</time>
      </trkpt>
      <trkpt lat="45.94336" lon="4.72383">
        <ele>172</ele>
        <time>2018-07-24T10:44:48Z</time>
      </trkpt>
      <trkpt lat="45.94329" lon="4.72374">
        <ele>172</ele>
        <time>2018-07-24T10:44:49Z</time>
      </trkpt>
      <trkpt lat="45.94327" lon="4.72368">
        <ele>172</ele>
        <time>2018-07-24T10:44:50Z</time>
      </trkpt>
      <trkpt lat="45.94321" lon="4.72359">
        <ele>172</ele>
        <time>2018-07-24T10:44:51Z</time>
      </trkpt>
      <trkpt lat="45.94316" lon="4.72349">
        <ele>172</ele>
        <time>2018-07-24T10:44:52Z</time>
      </trkpt>
      <trkpt lat="45.94313" lon="4.7234">
        <ele>172</ele>
        <time>2018-07-24T10:44:53Z</time>
      </trkpt>
      <trkpt lat="45.94311" lon="4.72332">
        <ele>172</ele>
        <time>2018-07-24T10:44:54Z</time>
      </trkpt>
      <trkpt lat="45.94308" lon="4.72325">
        <ele>171</ele>
        <time>2018-07-24T10:44:55Z</time>
      </trkpt>
      <trkpt lat="45.94303" lon="4.72318">
        <ele>171</ele>
        <time>2018-07-24T10:44:56Z</time>
      </trkpt>
      <trkpt lat="45.94297" lon="4.7231">
        <ele>171</ele>
        <time>2018-07-24T10:44:57Z</time>
      </trkpt>
      <trkpt lat="45.94294" lon="4.72302">
        <ele>171</ele>
        <time>2018-07-24T10:44:58Z</time>
      </trkpt>
      <trkpt lat="45.94291" lon="4.72295">
        <ele>171</ele>
        <time>2018-07-24T10:44:59Z</time>
      </trkpt>
      <trkpt lat="45.94289" lon="4.72288">
        <ele>171</ele>
        <time>2018-07-24T10:45:00Z</time>
      </trkpt>
      <trkpt lat="45.94286" lon="4.72281">
        <ele>171</ele>
        <time>2018-07-24T10:45:01Z</time>
      </trkpt>
      <trkpt lat="45.94281" lon="4.72275">
        <ele>171</ele>
        <time>2018-07-24T10:45:02Z</time>
      </trkpt>
      <trkpt lat="45.94276" lon="4.72272">
        <ele>171</ele>
        <time>2018-07-24T10:45:03Z</time>
      </trkpt>
      <trkpt lat="45.94271" lon="4.7227">
        <ele>171</ele>
        <time>2018-07-24T10:45:04Z</time>
      </trkpt>
      <trkpt lat="45.94265" lon="4.72271">
        <ele>171</ele>
        <time>2018-07-24T10:45:05Z</time>
      </trkpt>
      <trkpt lat="45.94259" lon="4.72273">
        <ele>171</ele>
        <time>2018-07-24T10:45:06Z</time>
      </trkpt>
      <trkpt lat="45.94253" lon="4.72275">
        <ele>171</ele>
        <time>2018-07-24T10:45:07Z</time>
      </trkpt>
      <trkpt lat="45.94248" lon="4.72277">
        <ele>171</ele>
        <time>2018-07-24T10:45:08Z</time>
      </trkpt>
      <trkpt lat="45.94243" lon="4.72279">
        <ele>171</ele>
        <time>2018-07-24T10:45:09Z</time>
      </trkpt>
      <trkpt lat="45.94236" lon="4.72279">
        <ele>171</ele>
        <time>2018-07-24T10:45:10Z</time>
      </trkpt>
      <trkpt lat="45.9423" lon="4.7228">
        <ele>171</ele>
        <time>2018-07-24T10:45:11Z</time>
      </trkpt>
      <trkpt lat="45.94224" lon="4.72282">
        <ele>171</ele>
        <time>2018-07-24T10:45:12Z</time>
      </trkpt>
      <trkpt lat="45.94217" lon="4.72284">
        <ele>171</ele>
        <time>2018-07-24T10:45:13Z</time>
      </trkpt>
      <trkpt lat="45.94211" lon="4.72285">
        <ele>171</ele>
        <time>2018-07-24T10:45:14Z</time>
      </trkpt>
      <trkpt lat="45.94205" lon="4.72285">
        <ele>171</ele>
        <time>2018-07-24T10:45:15Z</time>
      </trkpt>
      <trkpt lat="45.94199" lon="4.72286">
        <ele>171</ele>
        <time>2018-07-24T10:45:16Z</time>
      </trkpt>
      <trkpt lat="45.94193" lon="4.72286">
        <ele>171</ele>
        <time>2018-07-24T10:45:17Z</time>
      </trkpt>
      <trkpt lat="45.94186" lon="4.72284">
        <ele>171</ele>
        <time>2018-07-24T10:45:18Z</time>
      </trkpt>
      <trkpt lat="45.9418" lon="4.72284">
        <ele>171</ele>
        <time>2018-07-24T10:45:19Z</time>
      </trkpt>
      <trkpt lat="45.94175" lon="4.72286">
        <ele>171</ele>
        <time>2018-07-24T10:45:20Z</time>
      </trkpt>
      <trkpt lat="45.9417" lon="4.72287">
        <ele>171</ele>
        <time>2018-07-24T10:45:21Z</time>
      </trkpt>
      <trkpt lat="45.94164" lon="4.72287">
        <ele>171</ele>
        <time>2018-07-24T10:45:22Z</time>
      </trkpt>
      <trkpt lat="45.94158" lon="4.72283">
        <ele>171</ele>
        <time>2018-07-24T10:45:23Z</time>
      </trkpt>
      <trkpt lat="45.94153" lon="4.72281">
        <ele>171</ele>
        <time>2018-07-24T10:45:24Z</time>
      </trkpt>
      <trkpt lat="45.94148" lon="4.7228">
        <ele>171</ele>
        <time>2018-07-24T10:45:25Z</time>
      </trkpt>
      <trkpt lat="45.94143" lon="4.72277">
        <ele>171</ele>
        <time>2018-07-24T10:45:26Z</time>
      </trkpt>
      <trkpt lat="45.94137" lon="4.72276">
        <ele>171</ele>
        <time>2018-07-24T10:45:27Z</time>
      </trkpt>
      <trkpt lat="45.94132" lon="4.72272">
        <ele>171</ele>
        <time>2018-07-24T10:45:28Z</time>
      </trkpt>
      <trkpt lat="45.94126" lon="4.72269">
        <ele>171</ele>
        <time>2018-07-24T10:45:29Z</time>
      </trkpt>
      <trkpt lat="45.94121" lon="4.72266">
        <ele>171</ele>
        <time>2018-07-24T10:45:30Z</time>
      </trkpt>
      <trkpt lat="45.94115" lon="4.72263">
        <ele>171</ele>
        <time>2018-07-24T10:45:31Z</time>
      </trkpt>
      <trkpt lat="45.94108" lon="4.7226">
        <ele>171</ele>
        <time>2018-07-24T10:45:32Z</time>
      </trkpt>
      <trkpt lat="45.94103" lon="4.7226">
        <ele>171</ele>
        <time>2018-07-24T10:45:33Z</time>
      </trkpt>
      <trkpt lat="45.94094" lon="4.72261">
        <ele>171</ele>
        <time>2018-07-24T10:45:34Z</time>
      </trkpt>
      <trkpt lat="45.94087" lon="4.7226">
        <ele>171</ele>
        <time>2018-07-24T10:45:35Z</time>
      </trkpt>
      <trkpt lat="45.94082" lon="4.72262">
        <ele>171</ele>
        <time>2018-07-24T10:45:36Z</time>
      </trkpt>
      <trkpt lat="45.94077" lon="4.72264">
        <ele>171</ele>
        <time>2018-07-24T10:45:37Z</time>
      </trkpt>
      <trkpt lat="45.94072" lon="4.72269">
        <ele>171</ele>
        <time>2018-07-24T10:45:38Z</time>
      </trkpt>
      <trkpt lat="45.94066" lon="4.72273">
        <ele>171</ele>
        <time>2018-07-24T10:45:39Z</time>
      </trkpt>
      <trkpt lat="45.94063" lon="4.72281">
        <ele>171</ele>
        <time>2018-07-24T10:45:40Z</time>
      </trkpt>
      <trkpt lat="45.94058" lon="4.72288">
        <ele>171</ele>
        <time>2018-07-24T10:45:41Z</time>
      </trkpt>
      <trkpt lat="45.94053" lon="4.72294">
        <ele>171</ele>
        <time>2018-07-24T10:45:42Z</time>
      </trkpt>
      <trkpt lat="45.94049" lon="4.723">
        <ele>171</ele>
        <time>2018-07-24T10:45:43Z</time>
      </trkpt>
      <trkpt lat="45.94045" lon="4.72305">
        <ele>171</ele>
        <time>2018-07-24T10:45:44Z</time>
      </trkpt>
      <trkpt lat="45.94041" lon="4.7231">
        <ele>171</ele>
        <time>2018-07-24T10:45:45Z</time>
      </trkpt>
      <trkpt lat="45.94036" lon="4.72316">
        <ele>171</ele>
        <time>2018-07-24T10:45:46Z</time>
      </trkpt>
      <trkpt lat="45.94031" lon="4.72322">
        <ele>171</ele>
        <time>2018-07-24T10:45:47Z</time>
      </trkpt>
      <trkpt lat="45.94027" lon="4.72326">
        <ele>171</ele>
        <time>2018-07-24T10:45:48Z</time>
      </trkpt>
      <trkpt lat="45.94022" lon="4.72332">
        <ele>171</ele>
        <time>2018-07-24T10:45:49Z</time>
      </trkpt>
      <trkpt lat="45.94017" lon="4.72338">
        <ele>171</ele>
        <time>2018-07-24T10:45:50Z</time>
      </trkpt>
      <trkpt lat="45.94012" lon="4.72342">
        <ele>171</ele>
        <time>2018-07-24T10:45:51Z</time>
      </trkpt>
      <trkpt lat="45.94008" lon="4.72347">
        <ele>171</ele>
        <time>2018-07-24T10:45:52Z</time>
      </trkpt>
      <trkpt lat="45.94004" lon="4.72352">
        <ele>171</ele>
        <time>2018-07-24T10:45:53Z</time>
      </trkpt>
      <trkpt lat="45.94001" lon="4.7236">
        <ele>171</ele>
        <time>2018-07-24T10:45:54Z</time>
      </trkpt>
      <trkpt lat="45.93996" lon="4.72367">
        <ele>171</ele>
        <time>2018-07-24T10:45:55Z</time>
      </trkpt>
      <trkpt lat="45.93993" lon="4.72377">
        <ele>171</ele>
        <time>2018-07-24T10:45:56Z</time>
      </trkpt>
      <trkpt lat="45.93989" lon="4.72383">
        <ele>171</ele>
        <time>2018-07-24T10:45:57Z</time>
      </trkpt>
      <trkpt lat="45.93985" lon="4.72387">
        <ele>171</ele>
        <time>2018-07-24T10:45:58Z</time>
      </trkpt>
      <trkpt lat="45.93983" lon="4.72393">
        <ele>171</ele>
        <time>2018-07-24T10:45:59Z</time>
      </trkpt>
      <trkpt lat="45.93978" lon="4.72399">
        <ele>171</ele>
        <time>2018-07-24T10:46:00Z</time>
      </trkpt>
      <trkpt lat="45.93973" lon="4.72404">
        <ele>171</ele>
        <time>2018-07-24T10:46:01Z</time>
      </trkpt>
      <trkpt lat="45.93969" lon="4.72408">
        <ele>171</ele>
        <time>2018-07-24T10:46:02Z</time>
      </trkpt>
      <trkpt lat="45.93966" lon="4.7241">
        <ele>171</ele>
        <time>2018-07-24T10:46:03Z</time>
      </trkpt>
      <trkpt lat="45.93961" lon="4.72414">
        <ele>171</ele>
        <time>2018-07-24T10:46:04Z</time>
      </trkpt>
      <trkpt lat="45.93957" lon="4.72421">
        <ele>171</ele>
        <time>2018-07-24T10:46:05Z</time>
      </trkpt>
      <trkpt lat="45.93953" lon="4.72426">
        <ele>171</ele>
        <time>2018-07-24T10:46:06Z</time>
      </trkpt>
      <trkpt lat="45.93949" lon="4.72432">
        <ele>171</ele>
        <time>2018-07-24T10:46:07Z</time>
      </trkpt>
      <trkpt lat="45.93944" lon="4.72441">
        <ele>171</ele>
        <time>2018-07-24T10:46:08Z</time>
      </trkpt>
      <trkpt lat="45.93939" lon="4.72446">
        <ele>171</ele>
        <time>2018-07-24T10:46:09Z</time>
      </trkpt>
      <trkpt lat="45.93934" lon="4.72452">
        <ele>171</ele>
        <time>2018-07-24T10:46:10Z</time>
      </trkpt>
      <trkpt lat="45.93929" lon="4.72458">
        <ele>171</ele>
        <time>2018-07-24T10:46:11Z</time>
      </trkpt>
      <trkpt lat="45.93925" lon="4.72463">
        <ele>171</ele>
        <time>2018-07-24T10:46:12Z</time>
      </trkpt>
      <trkpt lat="45.9392" lon="4.72469">
        <ele>171</ele>
        <time>2018-07-24T10:46:13Z</time>
      </trkpt>
      <trkpt lat="45.93916" lon="4.72472">
        <ele>172</ele>
        <time>2018-07-24T10:46:14Z</time>
      </trkpt>
      <trkpt lat="45.93913" lon="4.72476">
        <ele>172</ele>
        <time>2018-07-24T10:46:15Z</time>
      </trkpt>
      <trkpt lat="45.9391" lon="4.7248">
        <ele>172</ele>
        <time>2018-07-24T10:46:16Z</time>
      </trkpt>
      <trkpt lat="45.93903" lon="4.72487">
        <ele>172</ele>
        <time>2018-07-24T10:46:18Z</time>
      </trkpt>
      <trkpt lat="45.939" lon="4.72491">
        <ele>172</ele>
        <time>2018-07-24T10:46:19Z</time>
      </trkpt>
      <trkpt lat="45.93896" lon="4.72495">
        <ele>172</ele>
        <time>2018-07-24T10:46:20Z</time>
      </trkpt>
      <trkpt lat="45.93892" lon="4.725">
        <ele>172</ele>
        <time>2018-07-24T10:46:21Z</time>
      </trkpt>
      <trkpt lat="45.93889" lon="4.72505">
        <ele>173</ele>
        <time>2018-07-24T10:46:22Z</time>
      </trkpt>
      <trkpt lat="45.93885" lon="4.72509">
        <ele>173</ele>
        <time>2018-07-24T10:46:23Z</time>
      </trkpt>
      <trkpt lat="45.93881" lon="4.72517">
        <ele>173</ele>
        <time>2018-07-24T10:46:24Z</time>
      </trkpt>
      <trkpt lat="45.93877" lon="4.72521">
        <ele>173</ele>
        <time>2018-07-24T10:46:25Z</time>
      </trkpt>
      <trkpt lat="45.93872" lon="4.72521">
        <ele>173</ele>
        <time>2018-07-24T10:46:26Z</time>
      </trkpt>
      <trkpt lat="45.93867" lon="4.7252">
        <ele>173</ele>
        <time>2018-07-24T10:46:27Z</time>
      </trkpt>
      <trkpt lat="45.93859" lon="4.72514">
        <ele>173</ele>
        <time>2018-07-24T10:46:29Z</time>
      </trkpt>
      <trkpt lat="45.93855" lon="4.72511">
        <ele>173</ele>
        <time>2018-07-24T10:46:30Z</time>
      </trkpt>
      <trkpt lat="45.93848" lon="4.72506">
        <ele>174</ele>
        <time>2018-07-24T10:46:32Z</time>
      </trkpt>
      <trkpt lat="45.93844" lon="4.72503">
        <ele>174</ele>
        <time>2018-07-24T10:46:33Z</time>
      </trkpt>
      <trkpt lat="45.93825" lon="4.72486">
        <ele>173</ele>
        <time>2018-07-24T10:46:36Z</time>
      </trkpt>
      <trkpt lat="45.93819" lon="4.72482">
        <ele>173</ele>
        <time>2018-07-24T10:46:37Z</time>
      </trkpt>
      <trkpt lat="45.93815" lon="4.72474">
        <ele>172</ele>
        <time>2018-07-24T10:46:38Z</time>
      </trkpt>
      <trkpt lat="45.93812" lon="4.72466">
        <ele>172</ele>
        <time>2018-07-24T10:46:39Z</time>
      </trkpt>
      <trkpt lat="45.93809" lon="4.7246">
        <ele>172</ele>
        <time>2018-07-24T10:46:40Z</time>
      </trkpt>
      <trkpt lat="45.93809" lon="4.72455">
        <ele>172</ele>
        <time>2018-07-24T10:46:41Z</time>
      </trkpt>
      <trkpt lat="45.93801" lon="4.7245">
        <ele>172</ele>
        <time>2018-07-24T10:46:42Z</time>
      </trkpt>
      <trkpt lat="45.93796" lon="4.72449">
        <ele>172</ele>
        <time>2018-07-24T10:46:43Z</time>
      </trkpt>
      <trkpt lat="45.9379" lon="4.72443">
        <ele>172</ele>
        <time>2018-07-24T10:46:44Z</time>
      </trkpt>
      <trkpt lat="45.93783" lon="4.72434">
        <ele>172</ele>
        <time>2018-07-24T10:46:46Z</time>
      </trkpt>
      <trkpt lat="45.9378" lon="4.72431">
        <ele>172</ele>
        <time>2018-07-24T10:46:47Z</time>
      </trkpt>
      <trkpt lat="45.93776" lon="4.72426">
        <ele>171</ele>
        <time>2018-07-24T10:46:48Z</time>
      </trkpt>
      <trkpt lat="45.9377" lon="4.72421">
        <ele>171</ele>
        <time>2018-07-24T10:46:49Z</time>
      </trkpt>
      <trkpt lat="45.93767" lon="4.72415">
        <ele>171</ele>
        <time>2018-07-24T10:46:50Z</time>
      </trkpt>
      <trkpt lat="45.93763" lon="4.7241">
        <ele>171</ele>
        <time>2018-07-24T10:46:51Z</time>
      </trkpt>
      <trkpt lat="45.93758" lon="4.72406">
        <ele>171</ele>
        <time>2018-07-24T10:46:52Z</time>
      </trkpt>
      <trkpt lat="45.93754" lon="4.72401">
        <ele>171</ele>
        <time>2018-07-24T10:46:53Z</time>
      </trkpt>
      <trkpt lat="45.9375" lon="4.72397">
        <ele>171</ele>
        <time>2018-07-24T10:46:54Z</time>
      </trkpt>
      <trkpt lat="45.93746" lon="4.72393">
        <ele>171</ele>
        <time>2018-07-24T10:46:55Z</time>
      </trkpt>
      <trkpt lat="45.93742" lon="4.72389">
        <ele>171</ele>
        <time>2018-07-24T10:46:56Z</time>
      </trkpt>
      <trkpt lat="45.93738" lon="4.72387">
        <ele>171</ele>
        <time>2018-07-24T10:46:57Z</time>
      </trkpt>
      <trkpt lat="45.93732" lon="4.72382">
        <ele>171</ele>
        <time>2018-07-24T10:46:59Z</time>
      </trkpt>
      <trkpt lat="45.93727" lon="4.72378">
        <ele>171</ele>
        <time>2018-07-24T10:47:00Z</time>
      </trkpt>
      <trkpt lat="45.93723" lon="4.72375">
        <ele>171</ele>
        <time>2018-07-24T10:47:01Z</time>
      </trkpt>
      <trkpt lat="45.93719" lon="4.72371">
        <ele>172</ele>
        <time>2018-07-24T10:47:02Z</time>
      </trkpt>
      <trkpt lat="45.93714" lon="4.72366">
        <ele>172</ele>
        <time>2018-07-24T10:47:03Z</time>
      </trkpt>
      <trkpt lat="45.9371" lon="4.72361">
        <ele>172</ele>
        <time>2018-07-24T10:47:04Z</time>
      </trkpt>
      <trkpt lat="45.93705" lon="4.72357">
        <ele>171</ele>
        <time>2018-07-24T10:47:05Z</time>
      </trkpt>
      <trkpt lat="45.93701" lon="4.72352">
        <ele>171</ele>
        <time>2018-07-24T10:47:06Z</time>
      </trkpt>
      <trkpt lat="45.93692" lon="4.72343">
        <ele>171</ele>
        <time>2018-07-24T10:47:08Z</time>
      </trkpt>
      <trkpt lat="45.93688" lon="4.7234">
        <ele>171</ele>
        <time>2018-07-24T10:47:09Z</time>
      </trkpt>
      <trkpt lat="45.93678" lon="4.72338">
        <ele>171</ele>
        <time>2018-07-24T10:47:10Z</time>
      </trkpt>
      <trkpt lat="45.93673" lon="4.72331">
        <ele>171</ele>
        <time>2018-07-24T10:47:12Z</time>
      </trkpt>
      <trkpt lat="45.93669" lon="4.72328">
        <ele>171</ele>
        <time>2018-07-24T10:47:13Z</time>
      </trkpt>
      <trkpt lat="45.93663" lon="4.72322">
        <ele>171</ele>
        <time>2018-07-24T10:47:14Z</time>
      </trkpt>
      <trkpt lat="45.93661" lon="4.72319">
        <ele>172</ele>
        <time>2018-07-24T10:47:15Z</time>
      </trkpt>
      <trkpt lat="45.9366" lon="4.72309">
        <ele>172</ele>
        <time>2018-07-24T10:47:17Z</time>
      </trkpt>
      <trkpt lat="45.93656" lon="4.72303">
        <ele>172</ele>
        <time>2018-07-24T10:47:18Z</time>
      </trkpt>
      <trkpt lat="45.9365" lon="4.72298">
        <ele>172</ele>
        <time>2018-07-24T10:47:19Z</time>
      </trkpt>
      <trkpt lat="45.93644" lon="4.72293">
        <ele>172</ele>
        <time>2018-07-24T10:47:20Z</time>
      </trkpt>
      <trkpt lat="45.93639" lon="4.7229">
        <ele>172</ele>
        <time>2018-07-24T10:47:21Z</time>
      </trkpt>
      <trkpt lat="45.93634" lon="4.72284">
        <ele>172</ele>
        <time>2018-07-24T10:47:22Z</time>
      </trkpt>
      <trkpt lat="45.9363" lon="4.72279">
        <ele>172</ele>
        <time>2018-07-24T10:47:23Z</time>
      </trkpt>
      <trkpt lat="45.93624" lon="4.72276">
        <ele>172</ele>
        <time>2018-07-24T10:47:24Z</time>
      </trkpt>
      <trkpt lat="45.93617" lon="4.72268">
        <ele>172</ele>
        <time>2018-07-24T10:47:26Z</time>
      </trkpt>
      <trkpt lat="45.93614" lon="4.72265">
        <ele>172</ele>
        <time>2018-07-24T10:47:27Z</time>
      </trkpt>
      <trkpt lat="45.93609" lon="4.72261">
        <ele>172</ele>
        <time>2018-07-24T10:47:28Z</time>
      </trkpt>
      <trkpt lat="45.93605" lon="4.72256">
        <ele>173</ele>
        <time>2018-07-24T10:47:29Z</time>
      </trkpt>
      <trkpt lat="45.93598" lon="4.7225">
        <ele>173</ele>
        <time>2018-07-24T10:47:31Z</time>
      </trkpt>
      <trkpt lat="45.93592" lon="4.72247">
        <ele>173</ele>
        <time>2018-07-24T10:47:32Z</time>
      </trkpt>
      <trkpt lat="45.93585" lon="4.72242">
        <ele>173</ele>
        <time>2018-07-24T10:47:34Z</time>
      </trkpt>
      <trkpt lat="45.93582" lon="4.72236">
        <ele>173</ele>
        <time>2018-07-24T10:47:35Z</time>
      </trkpt>
      <trkpt lat="45.93576" lon="4.72233">
        <ele>173</ele>
        <time>2018-07-24T10:47:37Z</time>
      </trkpt>
      <trkpt lat="45.93573" lon="4.72229">
        <ele>173</ele>
        <time>2018-07-24T10:47:38Z</time>
      </trkpt>
      <trkpt lat="45.93566" lon="4.72223">
        <ele>173</ele>
        <time>2018-07-24T10:47:41Z</time>
      </trkpt>
      <trkpt lat="45.93564" lon="4.72222">
        <ele>173</ele>
        <time>2018-07-24T10:47:42Z</time>
      </trkpt>
      <trkpt lat="45.93558" lon="4.72213">
        <ele>173</ele>
        <time>2018-07-24T10:47:56Z</time>
      </trkpt>
      <trkpt lat="45.93556" lon="4.72213">
        <ele>173</ele>
        <time>2018-07-24T10:47:57Z</time>
      </trkpt>
      <trkpt lat="45.93549" lon="4.72218">
        <ele>173</ele>
        <time>2018-07-24T10:48:02Z</time>
      </trkpt>
      <trkpt lat="45.93547" lon="4.7222">
        <ele>172</ele>
        <time>2018-07-24T10:48:03Z</time>
      </trkpt>
      <trkpt lat="45.93544" lon="4.72229">
        <ele>172</ele>
        <time>2018-07-24T10:48:06Z</time>
      </trkpt>
      <trkpt lat="45.93543" lon="4.72233">
        <ele>172</ele>
        <time>2018-07-24T10:48:07Z</time>
      </trkpt>
      <trkpt lat="45.93539" lon="4.72244">
        <ele>172</ele>
        <time>2018-07-24T10:48:10Z</time>
      </trkpt>
      <trkpt lat="45.93534" lon="4.72257">
        <ele>172</ele>
        <time>2018-07-24T10:48:11Z</time>
      </trkpt>
      <trkpt lat="45.93532" lon="4.72263">
        <ele>172</ele>
        <time>2018-07-24T10:48:12Z</time>
      </trkpt>
      <trkpt lat="45.93529" lon="4.72268">
        <ele>172</ele>
        <time>2018-07-24T10:48:13Z</time>
      </trkpt>
      <trkpt lat="45.93527" lon="4.72274">
        <ele>172</ele>
        <time>2018-07-24T10:48:14Z</time>
      </trkpt>
      <trkpt lat="45.93524" lon="4.72281">
        <ele>172</ele>
        <time>2018-07-24T10:48:15Z</time>
      </trkpt>
      <trkpt lat="45.93521" lon="4.72288">
        <ele>172</ele>
        <time>2018-07-24T10:48:16Z</time>
      </trkpt>
      <trkpt lat="45.93518" lon="4.72294">
        <ele>172</ele>
        <time>2018-07-24T10:48:17Z</time>
      </trkpt>
      <trkpt lat="45.93515" lon="4.72299">
        <ele>172</ele>
        <time>2018-07-24T10:48:18Z</time>
      </trkpt>
      <trkpt lat="45.9351" lon="4.72305">
        <ele>173</ele>
        <time>2018-07-24T10:48:19Z</time>
      </trkpt>
      <trkpt lat="45.93506" lon="4.72308">
        <ele>173</ele>
        <time>2018-07-24T10:48:20Z</time>
      </trkpt>
      <trkpt lat="45.93502" lon="4.72313">
        <ele>173</ele>
        <time>2018-07-24T10:48:21Z</time>
      </trkpt>
      <trkpt lat="45.93498" lon="4.72319">
        <ele>173</ele>
        <time>2018-07-24T10:48:22Z</time>
      </trkpt>
      <trkpt lat="45.93494" lon="4.72326">
        <ele>173</ele>
        <time>2018-07-24T10:48:23Z</time>
      </trkpt>
      <trkpt lat="45.93489" lon="4.72332">
        <ele>173</ele>
        <time>2018-07-24T10:48:24Z</time>
      </trkpt>
      <trkpt lat="45.93484" lon="4.72339">
        <ele>173</ele>
        <time>2018-07-24T10:48:25Z</time>
      </trkpt>
      <trkpt lat="45.9348" lon="4.72345">
        <ele>173</ele>
        <time>2018-07-24T10:48:26Z</time>
      </trkpt>
      <trkpt lat="45.93477" lon="4.72349">
        <ele>173</ele>
        <time>2018-07-24T10:48:27Z</time>
      </trkpt>
      <trkpt lat="45.93473" lon="4.72354">
        <ele>173</ele>
        <time>2018-07-24T10:48:28Z</time>
      </trkpt>
      <trkpt lat="45.93468" lon="4.7236">
        <ele>173</ele>
        <time>2018-07-24T10:48:29Z</time>
      </trkpt>
      <trkpt lat="45.93464" lon="4.72364">
        <ele>173</ele>
        <time>2018-07-24T10:48:30Z</time>
      </trkpt>
      <trkpt lat="45.93458" lon="4.72364">
        <ele>173</ele>
        <time>2018-07-24T10:48:31Z</time>
      </trkpt>
      <trkpt lat="45.93454" lon="4.72368">
        <ele>173</ele>
        <time>2018-07-24T10:48:32Z</time>
      </trkpt>
      <trkpt lat="45.93449" lon="4.72373">
        <ele>173</ele>
        <time>2018-07-24T10:48:33Z</time>
      </trkpt>
      <trkpt lat="45.93445" lon="4.72377">
        <ele>173</ele>
        <time>2018-07-24T10:48:34Z</time>
      </trkpt>
      <trkpt lat="45.93441" lon="4.7238">
        <ele>173</ele>
        <time>2018-07-24T10:48:35Z</time>
      </trkpt>
      <trkpt lat="45.93436" lon="4.72385">
        <ele>173</ele>
        <time>2018-07-24T10:48:36Z</time>
      </trkpt>
      <trkpt lat="45.93432" lon="4.72388">
        <ele>173</ele>
        <time>2018-07-24T10:48:37Z</time>
      </trkpt>
      <trkpt lat="45.93428" lon="4.72393">
        <ele>173</ele>
        <time>2018-07-24T10:48:38Z</time>
      </trkpt>
      <trkpt lat="45.93423" lon="4.72396">
        <ele>174</ele>
        <time>2018-07-24T10:48:39Z</time>
      </trkpt>
      <trkpt lat="45.93417" lon="4.72399">
        <ele>174</ele>
        <time>2018-07-24T10:48:40Z</time>
      </trkpt>
      <trkpt lat="45.93413" lon="4.72403">
        <ele>174</ele>
        <time>2018-07-24T10:48:41Z</time>
      </trkpt>
      <trkpt lat="45.93407" lon="4.72396">
        <ele>174</ele>
        <time>2018-07-24T10:48:43Z</time>
      </trkpt>
      <trkpt lat="45.93404" lon="4.72396">
        <ele>174</ele>
        <time>2018-07-24T10:48:44Z</time>
      </trkpt>
      <trkpt lat="45.93399" lon="4.72399">
        <ele>174</ele>
        <time>2018-07-24T10:48:46Z</time>
      </trkpt>
      <trkpt lat="45.93392" lon="4.72399">
        <ele>174</ele>
        <time>2018-07-24T10:48:47Z</time>
      </trkpt>
      <trkpt lat="45.93385" lon="4.72405">
        <ele>174</ele>
        <time>2018-07-24T10:48:49Z</time>
      </trkpt>
      <trkpt lat="45.93382" lon="4.72409">
        <ele>174</ele>
        <time>2018-07-24T10:48:50Z</time>
      </trkpt>
      <trkpt lat="45.93383" lon="4.72416">
        <ele>174</ele>
        <time>2018-07-24T10:48:51Z</time>
      </trkpt>
      <trkpt lat="45.93384" lon="4.72422">
        <ele>173</ele>
        <time>2018-07-24T10:48:52Z</time>
      </trkpt>
      <trkpt lat="45.93386" lon="4.72429">
        <ele>173</ele>
        <time>2018-07-24T10:48:53Z</time>
      </trkpt>
      <trkpt lat="45.93388" lon="4.72436">
        <ele>173</ele>
        <time>2018-07-24T10:48:54Z</time>
      </trkpt>
      <trkpt lat="45.93391" lon="4.72442">
        <ele>173</ele>
        <time>2018-07-24T10:48:55Z</time>
      </trkpt>
      <trkpt lat="45.9339" lon="4.72449">
        <ele>173</ele>
        <time>2018-07-24T10:48:56Z</time>
      </trkpt>
      <trkpt lat="45.93389" lon="4.72456">
        <ele>173</ele>
        <time>2018-07-24T10:48:57Z</time>
      </trkpt>
      <trkpt lat="45.93386" lon="4.72463">
        <ele>173</ele>
        <time>2018-07-24T10:48:58Z</time>
      </trkpt>
      <trkpt lat="45.93383" lon="4.72467">
        <ele>173</ele>
        <time>2018-07-24T10:48:59Z</time>
      </trkpt>
      <trkpt lat="45.93379" lon="4.72472">
        <ele>173</ele>
        <time>2018-07-24T10:49:00Z</time>
      </trkpt>
      <trkpt lat="45.93375" lon="4.72476">
        <ele>173</ele>
        <time>2018-07-24T10:49:01Z</time>
      </trkpt>
      <trkpt lat="45.93371" lon="4.7248">
        <ele>173</ele>
        <time>2018-07-24T10:49:02Z</time>
      </trkpt>
      <trkpt lat="45.93368" lon="4.72483">
        <ele>173</ele>
        <time>2018-07-24T10:49:03Z</time>
      </trkpt>
      <trkpt lat="45.93365" lon="4.7249">
        <ele>173</ele>
        <time>2018-07-24T10:49:04Z</time>
      </trkpt>
      <trkpt lat="45.9336" lon="4.72495">
        <ele>173</ele>
        <time>2018-07-24T10:49:05Z</time>
      </trkpt>
      <trkpt lat="45.93354" lon="4.72501">
        <ele>172</ele>
        <time>2018-07-24T10:49:06Z</time>
      </trkpt>
      <trkpt lat="45.9335" lon="4.72506">
        <ele>172</ele>
        <time>2018-07-24T10:49:07Z</time>
      </trkpt>
      <trkpt lat="45.93345" lon="4.72512">
        <ele>172</ele>
        <time>2018-07-24T10:49:08Z</time>
      </trkpt>
      <trkpt lat="45.9334" lon="4.72517">
        <ele>172</ele>
        <time>2018-07-24T10:49:09Z</time>
      </trkpt>
      <trkpt lat="45.93335" lon="4.72523">
        <ele>172</ele>
        <time>2018-07-24T10:49:10Z</time>
      </trkpt>
      <trkpt lat="45.93329" lon="4.72526">
        <ele>172</ele>
        <time>2018-07-24T10:49:11Z</time>
      </trkpt>
      <trkpt lat="45.93325" lon="4.7253">
        <ele>172</ele>
        <time>2018-07-24T10:49:12Z</time>
      </trkpt>
      <trkpt lat="45.93321" lon="4.72538">
        <ele>172</ele>
        <time>2018-07-24T10:49:13Z</time>
      </trkpt>
      <trkpt lat="45.93317" lon="4.72543">
        <ele>172</ele>
        <time>2018-07-24T10:49:14Z</time>
      </trkpt>
      <trkpt lat="45.93312" lon="4.72548">
        <ele>172</ele>
        <time>2018-07-24T10:49:15Z</time>
      </trkpt>
      <trkpt lat="45.93308" lon="4.72552">
        <ele>172</ele>
        <time>2018-07-24T10:49:16Z</time>
      </trkpt>
      <trkpt lat="45.93307" lon="4.72558">
        <ele>172</ele>
        <time>2018-07-24T10:49:17Z</time>
      </trkpt>
      <trkpt lat="45.93302" lon="4.72563">
        <ele>172</ele>
        <time>2018-07-24T10:49:18Z</time>
      </trkpt>
      <trkpt lat="45.93295" lon="4.72572">
        <ele>171</ele>
        <time>2018-07-24T10:49:20Z</time>
      </trkpt>
      <trkpt lat="45.9329" lon="4.72577">
        <ele>171</ele>
        <time>2018-07-24T10:49:21Z</time>
      </trkpt>
      <trkpt lat="45.93286" lon="4.72584">
        <ele>170</ele>
        <time>2018-07-24T10:49:22Z</time>
      </trkpt>
      <trkpt lat="45.93281" lon="4.72588">
        <ele>170</ele>
        <time>2018-07-24T10:49:23Z</time>
      </trkpt>
      <trkpt lat="45.93278" lon="4.72593">
        <ele>170</ele>
        <time>2018-07-24T10:49:24Z</time>
      </trkpt>
      <trkpt lat="45.93273" lon="4.72598">
        <ele>170</ele>
        <time>2018-07-24T10:49:25Z</time>
      </trkpt>
      <trkpt lat="45.93269" lon="4.72603">
        <ele>170</ele>
        <time>2018-07-24T10:49:26Z</time>
      </trkpt>
      <trkpt lat="45.93265" lon="4.72611">
        <ele>170</ele>
        <time>2018-07-24T10:49:27Z</time>
      </trkpt>
      <trkpt lat="45.93261" lon="4.72615">
        <ele>170</ele>
        <time>2018-07-24T10:49:28Z</time>
      </trkpt>
      <trkpt lat="45.93256" lon="4.7262">
        <ele>170</ele>
        <time>2018-07-24T10:49:29Z</time>
      </trkpt>
      <trkpt lat="45.93252" lon="4.72625">
        <ele>170</ele>
        <time>2018-07-24T10:49:30Z</time>
      </trkpt>
      <trkpt lat="45.93247" lon="4.7263">
        <ele>170</ele>
        <time>2018-07-24T10:49:31Z</time>
      </trkpt>
      <trkpt lat="45.93242" lon="4.72635">
        <ele>170</ele>
        <time>2018-07-24T10:49:32Z</time>
      </trkpt>
      <trkpt lat="45.93237" lon="4.7264">
        <ele>170</ele>
        <time>2018-07-24T10:49:33Z</time>
      </trkpt>
      <trkpt lat="45.93234" lon="4.72645">
        <ele>170</ele>
        <time>2018-07-24T10:49:34Z</time>
      </trkpt>
      <trkpt lat="45.9323" lon="4.72648">
        <ele>170</ele>
        <time>2018-07-24T10:49:35Z</time>
      </trkpt>
      <trkpt lat="45.93225" lon="4.72652">
        <ele>170</ele>
        <time>2018-07-24T10:49:36Z</time>
      </trkpt>
      <trkpt lat="45.93221" lon="4.72658">
        <ele>170</ele>
        <time>2018-07-24T10:49:37Z</time>
      </trkpt>
      <trkpt lat="45.93215" lon="4.72663">
        <ele>170</ele>
        <time>2018-07-24T10:49:38Z</time>
      </trkpt>
      <trkpt lat="45.9321" lon="4.72668">
        <ele>169</ele>
        <time>2018-07-24T10:49:39Z</time>
      </trkpt>
      <trkpt lat="45.93205" lon="4.72674">
        <ele>169</ele>
        <time>2018-07-24T10:49:40Z</time>
      </trkpt>
      <trkpt lat="45.932" lon="4.72678">
        <ele>169</ele>
        <time>2018-07-24T10:49:41Z</time>
      </trkpt>
      <trkpt lat="45.93196" lon="4.72685">
        <ele>169</ele>
        <time>2018-07-24T10:49:42Z</time>
      </trkpt>
      <trkpt lat="45.93192" lon="4.72688">
        <ele>169</ele>
        <time>2018-07-24T10:49:43Z</time>
      </trkpt>
      <trkpt lat="45.93188" lon="4.72694">
        <ele>169</ele>
        <time>2018-07-24T10:49:44Z</time>
      </trkpt>
      <trkpt lat="45.93185" lon="4.727">
        <ele>169</ele>
        <time>2018-07-24T10:49:45Z</time>
      </trkpt>
      <trkpt lat="45.93181" lon="4.72707">
        <ele>169</ele>
        <time>2018-07-24T10:49:46Z</time>
      </trkpt>
      <trkpt lat="45.93177" lon="4.72713">
        <ele>169</ele>
        <time>2018-07-24T10:49:47Z</time>
      </trkpt>
      <trkpt lat="45.93172" lon="4.72718">
        <ele>170</ele>
        <time>2018-07-24T10:49:48Z</time>
      </trkpt>
      <trkpt lat="45.93168" lon="4.72722">
        <ele>170</ele>
        <time>2018-07-24T10:49:49Z</time>
      </trkpt>
      <trkpt lat="45.93163" lon="4.72726">
        <ele>170</ele>
        <time>2018-07-24T10:49:50Z</time>
      </trkpt>
      <trkpt lat="45.93158" lon="4.7273">
        <ele>170</ele>
        <time>2018-07-24T10:49:51Z</time>
      </trkpt>
      <trkpt lat="45.93153" lon="4.72734">
        <ele>170</ele>
        <time>2018-07-24T10:49:52Z</time>
      </trkpt>
      <trkpt lat="45.93149" lon="4.72742">
        <ele>170</ele>
        <time>2018-07-24T10:49:53Z</time>
      </trkpt>
      <trkpt lat="45.93144" lon="4.72747">
        <ele>170</ele>
        <time>2018-07-24T10:49:54Z</time>
      </trkpt>
      <trkpt lat="45.9314" lon="4.72753">
        <ele>171</ele>
        <time>2018-07-24T10:49:55Z</time>
      </trkpt>
      <trkpt lat="45.93135" lon="4.72758">
        <ele>171</ele>
        <time>2018-07-24T10:49:56Z</time>
      </trkpt>
      <trkpt lat="45.93132" lon="4.72765">
        <ele>171</ele>
        <time>2018-07-24T10:49:57Z</time>
      </trkpt>
      <trkpt lat="45.93127" lon="4.72769">
        <ele>171</ele>
        <time>2018-07-24T10:49:58Z</time>
      </trkpt>
      <trkpt lat="45.93122" lon="4.72775">
        <ele>171</ele>
        <time>2018-07-24T10:49:59Z</time>
      </trkpt>
      <trkpt lat="45.93118" lon="4.72782">
        <ele>171</ele>
        <time>2018-07-24T10:50:00Z</time>
      </trkpt>
      <trkpt lat="45.93114" lon="4.72786">
        <ele>171</ele>
        <time>2018-07-24T10:50:01Z</time>
      </trkpt>
      <trkpt lat="45.9311" lon="4.72792">
        <ele>171</ele>
        <time>2018-07-24T10:50:02Z</time>
      </trkpt>
      <trkpt lat="45.93107" lon="4.72799">
        <ele>171</ele>
        <time>2018-07-24T10:50:03Z</time>
      </trkpt>
      <trkpt lat="45.93102" lon="4.72804">
        <ele>171</ele>
        <time>2018-07-24T10:50:04Z</time>
      </trkpt>
      <trkpt lat="45.93098" lon="4.72809">
        <ele>172</ele>
        <time>2018-07-24T10:50:05Z</time>
      </trkpt>
      <trkpt lat="45.93095" lon="4.72816">
        <ele>172</ele>
        <time>2018-07-24T10:50:06Z</time>
      </trkpt>
      <trkpt lat="45.9309" lon="4.72823">
        <ele>172</ele>
        <time>2018-07-24T10:50:07Z</time>
      </trkpt>
      <trkpt lat="45.93081" lon="4.72834">
        <ele>173</ele>
        <time>2018-07-24T10:50:09Z</time>
      </trkpt>
      <trkpt lat="45.93044" lon="4.72862">
        <ele>172</ele>
        <time>2018-07-24T10:50:17Z</time>
      </trkpt>
      <trkpt lat="45.93037" lon="4.72871">
        <ele>172</ele>
        <time>2018-07-24T10:50:18Z</time>
      </trkpt>
      <trkpt lat="45.93032" lon="4.72877">
        <ele>172</ele>
        <time>2018-07-24T10:50:19Z</time>
      </trkpt>
      <trkpt lat="45.93028" lon="4.72882">
        <ele>172</ele>
        <time>2018-07-24T10:50:21Z</time>
      </trkpt>
      <trkpt lat="45.93025" lon="4.72885">
        <ele>172</ele>
        <time>2018-07-24T10:50:22Z</time>
      </trkpt>
      <trkpt lat="45.9302" lon="4.72893">
        <ele>172</ele>
        <time>2018-07-24T10:50:23Z</time>
      </trkpt>
      <trkpt lat="45.93016" lon="4.72899">
        <ele>172</ele>
        <time>2018-07-24T10:50:24Z</time>
      </trkpt>
      <trkpt lat="45.93014" lon="4.72905">
        <ele>172</ele>
        <time>2018-07-24T10:50:25Z</time>
      </trkpt>
      <trkpt lat="45.93009" lon="4.72911">
        <ele>171</ele>
        <time>2018-07-24T10:50:26Z</time>
      </trkpt>
      <trkpt lat="45.93005" lon="4.72915">
        <ele>171</ele>
        <time>2018-07-24T10:50:27Z</time>
      </trkpt>
      <trkpt lat="45.93" lon="4.72921">
        <ele>171</ele>
        <time>2018-07-24T10:50:28Z</time>
      </trkpt>
      <trkpt lat="45.92992" lon="4.72926">
        <ele>171</ele>
        <time>2018-07-24T10:50:30Z</time>
      </trkpt>
      <trkpt lat="45.92987" lon="4.72934">
        <ele>171</ele>
        <time>2018-07-24T10:50:31Z</time>
      </trkpt>
      <trkpt lat="45.92983" lon="4.72939">
        <ele>171</ele>
        <time>2018-07-24T10:50:32Z</time>
      </trkpt>
      <trkpt lat="45.92979" lon="4.72944">
        <ele>171</ele>
        <time>2018-07-24T10:50:33Z</time>
      </trkpt>
      <trkpt lat="45.92974" lon="4.72951">
        <ele>171</ele>
        <time>2018-07-24T10:50:34Z</time>
      </trkpt>
      <trkpt lat="45.9297" lon="4.72963">
        <ele>171</ele>
        <time>2018-07-24T10:50:35Z</time>
      </trkpt>
      <trkpt lat="45.92966" lon="4.72968">
        <ele>171</ele>
        <time>2018-07-24T10:50:36Z</time>
      </trkpt>
      <trkpt lat="45.92962" lon="4.72972">
        <ele>171</ele>
        <time>2018-07-24T10:50:37Z</time>
      </trkpt>
      <trkpt lat="45.92958" lon="4.72976">
        <ele>171</ele>
        <time>2018-07-24T10:50:38Z</time>
      </trkpt>
      <trkpt lat="45.92954" lon="4.72977">
        <ele>171</ele>
        <time>2018-07-24T10:50:39Z</time>
      </trkpt>
      <trkpt lat="45.92949" lon="4.72985">
        <ele>171</ele>
        <time>2018-07-24T10:50:41Z</time>
      </trkpt>
      <trkpt lat="45.92945" lon="4.72989">
        <ele>171</ele>
        <time>2018-07-24T10:50:42Z</time>
      </trkpt>
      <trkpt lat="45.9294" lon="4.72996">
        <ele>171</ele>
        <time>2018-07-24T10:50:43Z</time>
      </trkpt>
      <trkpt lat="45.92935" lon="4.72999">
        <ele>172</ele>
        <time>2018-07-24T10:50:44Z</time>
      </trkpt>
      <trkpt lat="45.92931" lon="4.73008">
        <ele>171</ele>
        <time>2018-07-24T10:50:45Z</time>
      </trkpt>
      <trkpt lat="45.92926" lon="4.73015">
        <ele>172</ele>
        <time>2018-07-24T10:50:46Z</time>
      </trkpt>
      <trkpt lat="45.92922" lon="4.73018">
        <ele>172</ele>
        <time>2018-07-24T10:50:47Z</time>
      </trkpt>
      <trkpt lat="45.92918" lon="4.73023">
        <ele>172</ele>
        <time>2018-07-24T10:50:48Z</time>
      </trkpt>
      <trkpt lat="45.92914" lon="4.73031">
        <ele>172</ele>
        <time>2018-07-24T10:50:49Z</time>
      </trkpt>
      <trkpt lat="45.9291" lon="4.73034">
        <ele>172</ele>
        <time>2018-07-24T10:50:50Z</time>
      </trkpt>
      <trkpt lat="45.92906" lon="4.73039">
        <ele>172</ele>
        <time>2018-07-24T10:50:51Z</time>
      </trkpt>
      <trkpt lat="45.92902" lon="4.73043">
        <ele>172</ele>
        <time>2018-07-24T10:50:52Z</time>
      </trkpt>
      <trkpt lat="45.92899" lon="4.73046">
        <ele>172</ele>
        <time>2018-07-24T10:50:53Z</time>
      </trkpt>
      <trkpt lat="45.92895" lon="4.73051">
        <ele>172</ele>
        <time>2018-07-24T10:50:54Z</time>
      </trkpt>
      <trkpt lat="45.92891" lon="4.73054">
        <ele>172</ele>
        <time>2018-07-24T10:50:55Z</time>
      </trkpt>
      <trkpt lat="45.92888" lon="4.7306">
        <ele>172</ele>
        <time>2018-07-24T10:50:56Z</time>
      </trkpt>
      <trkpt lat="45.92883" lon="4.73066">
        <ele>172</ele>
        <time>2018-07-24T10:50:58Z</time>
      </trkpt>
      <trkpt lat="45.92879" lon="4.73072">
        <ele>172</ele>
        <time>2018-07-24T10:50:59Z</time>
      </trkpt>
      <trkpt lat="45.92875" lon="4.73078">
        <ele>172</ele>
        <time>2018-07-24T10:51:00Z</time>
      </trkpt>
      <trkpt lat="45.92872" lon="4.73086">
        <ele>172</ele>
        <time>2018-07-24T10:51:01Z</time>
      </trkpt>
      <trkpt lat="45.92868" lon="4.73091">
        <ele>172</ele>
        <time>2018-07-24T10:51:02Z</time>
      </trkpt>
      <trkpt lat="45.92864" lon="4.73097">
        <ele>171</ele>
        <time>2018-07-24T10:51:03Z</time>
      </trkpt>
      <trkpt lat="45.92855" lon="4.73098">
        <ele>171</ele>
        <time>2018-07-24T10:51:05Z</time>
      </trkpt>
      <trkpt lat="45.92851" lon="4.73099">
        <ele>171</ele>
        <time>2018-07-24T10:51:06Z</time>
      </trkpt>
      <trkpt lat="45.92848" lon="4.73095">
        <ele>171</ele>
        <time>2018-07-24T10:51:07Z</time>
      </trkpt>
      <trkpt lat="45.92845" lon="4.7309">
        <ele>171</ele>
        <time>2018-07-24T10:51:08Z</time>
      </trkpt>
      <trkpt lat="45.92847" lon="4.73078">
        <ele>171</ele>
        <time>2018-07-24T10:51:10Z</time>
      </trkpt>
      <trkpt lat="45.92846" lon="4.73071">
        <ele>171</ele>
        <time>2018-07-24T10:51:11Z</time>
      </trkpt>
      <trkpt lat="45.92844" lon="4.73066">
        <ele>171</ele>
        <time>2018-07-24T10:51:12Z</time>
      </trkpt>
      <trkpt lat="45.92842" lon="4.73058">
        <ele>171</ele>
        <time>2018-07-24T10:51:13Z</time>
      </trkpt>
      <trkpt lat="45.92841" lon="4.73051">
        <ele>171</ele>
        <time>2018-07-24T10:51:14Z</time>
      </trkpt>
      <trkpt lat="45.9284" lon="4.73044">
        <ele>171</ele>
        <time>2018-07-24T10:51:15Z</time>
      </trkpt>
      <trkpt lat="45.92838" lon="4.73037">
        <ele>171</ele>
        <time>2018-07-24T10:51:16Z</time>
      </trkpt>
      <trkpt lat="45.92836" lon="4.7303">
        <ele>171</ele>
        <time>2018-07-24T10:51:17Z</time>
      </trkpt>
      <trkpt lat="45.92834" lon="4.73023">
        <ele>171</ele>
        <time>2018-07-24T10:51:18Z</time>
      </trkpt>
      <trkpt lat="45.92832" lon="4.73016">
        <ele>170</ele>
        <time>2018-07-24T10:51:19Z</time>
      </trkpt>
      <trkpt lat="45.92831" lon="4.73009">
        <ele>170</ele>
        <time>2018-07-24T10:51:20Z</time>
      </trkpt>
      <trkpt lat="45.92831" lon="4.73003">
        <ele>170</ele>
        <time>2018-07-24T10:51:21Z</time>
      </trkpt>
      <trkpt lat="45.9283" lon="4.72995">
        <ele>170</ele>
        <time>2018-07-24T10:51:22Z</time>
      </trkpt>
      <trkpt lat="45.9283" lon="4.72988">
        <ele>170</ele>
        <time>2018-07-24T10:51:23Z</time>
      </trkpt>
      <trkpt lat="45.92829" lon="4.7298">
        <ele>170</ele>
        <time>2018-07-24T10:51:24Z</time>
      </trkpt>
      <trkpt lat="45.92828" lon="4.72972">
        <ele>170</ele>
        <time>2018-07-24T10:51:25Z</time>
      </trkpt>
      <trkpt lat="45.92828" lon="4.72964">
        <ele>170</ele>
        <time>2018-07-24T10:51:26Z</time>
      </trkpt>
      <trkpt lat="45.92828" lon="4.72958">
        <ele>170</ele>
        <time>2018-07-24T10:51:27Z</time>
      </trkpt>
      <trkpt lat="45.92826" lon="4.72945">
        <ele>170</ele>
        <time>2018-07-24T10:51:29Z</time>
      </trkpt>
      <trkpt lat="45.92826" lon="4.72939">
        <ele>170</ele>
        <time>2018-07-24T10:51:30Z</time>
      </trkpt>
      <trkpt lat="45.92825" lon="4.72928">
        <ele>170</ele>
        <time>2018-07-24T10:51:32Z</time>
      </trkpt>
      <trkpt lat="45.92823" lon="4.72921">
        <ele>170</ele>
        <time>2018-07-24T10:51:33Z</time>
      </trkpt>
      <trkpt lat="45.92822" lon="4.72915">
        <ele>170</ele>
        <time>2018-07-24T10:51:34Z</time>
      </trkpt>
      <trkpt lat="45.9282" lon="4.72908">
        <ele>170</ele>
        <time>2018-07-24T10:51:35Z</time>
      </trkpt>
      <trkpt lat="45.92819" lon="4.72901">
        <ele>170</ele>
        <time>2018-07-24T10:51:36Z</time>
      </trkpt>
      <trkpt lat="45.92819" lon="4.72894">
        <ele>170</ele>
        <time>2018-07-24T10:51:37Z</time>
      </trkpt>
      <trkpt lat="45.92817" lon="4.72887">
        <ele>170</ele>
        <time>2018-07-24T10:51:38Z</time>
      </trkpt>
      <trkpt lat="45.92816" lon="4.72877">
        <ele>170</ele>
        <time>2018-07-24T10:51:39Z</time>
      </trkpt>
      <trkpt lat="45.92815" lon="4.7287">
        <ele>170</ele>
        <time>2018-07-24T10:51:40Z</time>
      </trkpt>
      <trkpt lat="45.92812" lon="4.72862">
        <ele>170</ele>
        <time>2018-07-24T10:51:41Z</time>
      </trkpt>
      <trkpt lat="45.92811" lon="4.72855">
        <ele>170</ele>
        <time>2018-07-24T10:51:42Z</time>
      </trkpt>
      <trkpt lat="45.92809" lon="4.72847">
        <ele>170</ele>
        <time>2018-07-24T10:51:43Z</time>
      </trkpt>
      <trkpt lat="45.92808" lon="4.7284">
        <ele>170</ele>
        <time>2018-07-24T10:51:44Z</time>
      </trkpt>
      <trkpt lat="45.92807" lon="4.72832">
        <ele>171</ele>
        <time>2018-07-24T10:51:45Z</time>
      </trkpt>
      <trkpt lat="45.92805" lon="4.72825">
        <ele>171</ele>
        <time>2018-07-24T10:51:46Z</time>
      </trkpt>
      <trkpt lat="45.92804" lon="4.72818">
        <ele>171</ele>
        <time>2018-07-24T10:51:47Z</time>
      </trkpt>
      <trkpt lat="45.92804" lon="4.72811">
        <ele>171</ele>
        <time>2018-07-24T10:51:48Z</time>
      </trkpt>
      <trkpt lat="45.92802" lon="4.72805">
        <ele>171</ele>
        <time>2018-07-24T10:51:49Z</time>
      </trkpt>
      <trkpt lat="45.92801" lon="4.72799">
        <ele>171</ele>
        <time>2018-07-24T10:51:50Z</time>
      </trkpt>
      <trkpt lat="45.92801" lon="4.72792">
        <ele>171</ele>
        <time>2018-07-24T10:51:51Z</time>
      </trkpt>
      <trkpt lat="45.92795" lon="4.72787">
        <ele>171</ele>
        <time>2018-07-24T10:51:54Z</time>
      </trkpt>
      <trkpt lat="45.92791" lon="4.7279">
        <ele>171</ele>
        <time>2018-07-24T10:51:55Z</time>
      </trkpt>
      <trkpt lat="45.92783" lon="4.72796">
        <ele>170</ele>
        <time>2018-07-24T10:51:57Z</time>
      </trkpt>
      <trkpt lat="45.92779" lon="4.72801">
        <ele>170</ele>
        <time>2018-07-24T10:51:58Z</time>
      </trkpt>
      <trkpt lat="45.92775" lon="4.72805">
        <ele>170</ele>
        <time>2018-07-24T10:51:59Z</time>
      </trkpt>
      <trkpt lat="45.92773" lon="4.72812">
        <ele>170</ele>
        <time>2018-07-24T10:52:00Z</time>
      </trkpt>
      <trkpt lat="45.92766" lon="4.7281">
        <ele>170</ele>
        <time>2018-07-24T10:52:01Z</time>
      </trkpt>
      <trkpt lat="45.92762" lon="4.72813">
        <ele>170</ele>
        <time>2018-07-24T10:52:02Z</time>
      </trkpt>
      <trkpt lat="45.92757" lon="4.72816">
        <ele>170</ele>
        <time>2018-07-24T10:52:03Z</time>
      </trkpt>
      <trkpt lat="45.92752" lon="4.7282">
        <ele>170</ele>
        <time>2018-07-24T10:52:04Z</time>
      </trkpt>
      <trkpt lat="45.92748" lon="4.72825">
        <ele>169</ele>
        <time>2018-07-24T10:52:05Z</time>
      </trkpt>
      <trkpt lat="45.92743" lon="4.72828">
        <ele>169</ele>
        <time>2018-07-24T10:52:06Z</time>
      </trkpt>
      <trkpt lat="45.92737" lon="4.72831">
        <ele>169</ele>
        <time>2018-07-24T10:52:07Z</time>
      </trkpt>
      <trkpt lat="45.92733" lon="4.7284">
        <ele>169</ele>
        <time>2018-07-24T10:52:08Z</time>
      </trkpt>
      <trkpt lat="45.92728" lon="4.72844">
        <ele>169</ele>
        <time>2018-07-24T10:52:09Z</time>
      </trkpt>
      <trkpt lat="45.92722" lon="4.72848">
        <ele>169</ele>
        <time>2018-07-24T10:52:10Z</time>
      </trkpt>
      <trkpt lat="45.92716" lon="4.72851">
        <ele>169</ele>
        <time>2018-07-24T10:52:11Z</time>
      </trkpt>
      <trkpt lat="45.92711" lon="4.72855">
        <ele>169</ele>
        <time>2018-07-24T10:52:12Z</time>
      </trkpt>
      <trkpt lat="45.92705" lon="4.72859">
        <ele>169</ele>
        <time>2018-07-24T10:52:13Z</time>
      </trkpt>
      <trkpt lat="45.927" lon="4.72862">
        <ele>169</ele>
        <time>2018-07-24T10:52:14Z</time>
      </trkpt>
      <trkpt lat="45.92695" lon="4.72866">
        <ele>169</ele>
        <time>2018-07-24T10:52:15Z</time>
      </trkpt>
      <trkpt lat="45.92689" lon="4.7287">
        <ele>169</ele>
        <time>2018-07-24T10:52:16Z</time>
      </trkpt>
      <trkpt lat="45.92684" lon="4.72872">
        <ele>169</ele>
        <time>2018-07-24T10:52:17Z</time>
      </trkpt>
      <trkpt lat="45.92678" lon="4.72874">
        <ele>169</ele>
        <time>2018-07-24T10:52:18Z</time>
      </trkpt>
      <trkpt lat="45.92675" lon="4.72884">
        <ele>170</ele>
        <time>2018-07-24T10:52:19Z</time>
      </trkpt>
      <trkpt lat="45.9267" lon="4.72887">
        <ele>170</ele>
        <time>2018-07-24T10:52:20Z</time>
      </trkpt>
      <trkpt lat="45.92665" lon="4.7289">
        <ele>169</ele>
        <time>2018-07-24T10:52:21Z</time>
      </trkpt>
      <trkpt lat="45.92658" lon="4.72892">
        <ele>169</ele>
        <time>2018-07-24T10:52:22Z</time>
      </trkpt>
      <trkpt lat="45.92653" lon="4.72896">
        <ele>170</ele>
        <time>2018-07-24T10:52:23Z</time>
      </trkpt>
      <trkpt lat="45.92647" lon="4.72901">
        <ele>169</ele>
        <time>2018-07-24T10:52:24Z</time>
      </trkpt>
      <trkpt lat="45.92641" lon="4.72905">
        <ele>169</ele>
        <time>2018-07-24T10:52:25Z</time>
      </trkpt>
      <trkpt lat="45.92635" lon="4.7291">
        <ele>169</ele>
        <time>2018-07-24T10:52:26Z</time>
      </trkpt>
      <trkpt lat="45.9263" lon="4.72914">
        <ele>169</ele>
        <time>2018-07-24T10:52:27Z</time>
      </trkpt>
      <trkpt lat="45.92626" lon="4.72922">
        <ele>170</ele>
        <time>2018-07-24T10:52:28Z</time>
      </trkpt>
      <trkpt lat="45.9262" lon="4.72925">
        <ele>169</ele>
        <time>2018-07-24T10:52:29Z</time>
      </trkpt>
      <trkpt lat="45.92614" lon="4.72929">
        <ele>169</ele>
        <time>2018-07-24T10:52:30Z</time>
      </trkpt>
      <trkpt lat="45.9261" lon="4.72933">
        <ele>169</ele>
        <time>2018-07-24T10:52:31Z</time>
      </trkpt>
      <trkpt lat="45.92606" lon="4.72941">
        <ele>169</ele>
        <time>2018-07-24T10:52:32Z</time>
      </trkpt>
      <trkpt lat="45.926" lon="4.72945">
        <ele>169</ele>
        <time>2018-07-24T10:52:33Z</time>
      </trkpt>
      <trkpt lat="45.92595" lon="4.72954">
        <ele>169</ele>
        <time>2018-07-24T10:52:34Z</time>
      </trkpt>
      <trkpt lat="45.9259" lon="4.72959">
        <ele>169</ele>
        <time>2018-07-24T10:52:35Z</time>
      </trkpt>
      <trkpt lat="45.92585" lon="4.72964">
        <ele>169</ele>
        <time>2018-07-24T10:52:36Z</time>
      </trkpt>
      <trkpt lat="45.92581" lon="4.72968">
        <ele>169</ele>
        <time>2018-07-24T10:52:37Z</time>
      </trkpt>
      <trkpt lat="45.92576" lon="4.72974">
        <ele>169</ele>
        <time>2018-07-24T10:52:38Z</time>
      </trkpt>
      <trkpt lat="45.92572" lon="4.72979">
        <ele>169</ele>
        <time>2018-07-24T10:52:39Z</time>
      </trkpt>
      <trkpt lat="45.92566" lon="4.72984">
        <ele>169</ele>
        <time>2018-07-24T10:52:40Z</time>
      </trkpt>
      <trkpt lat="45.92561" lon="4.72987">
        <ele>169</ele>
        <time>2018-07-24T10:52:41Z</time>
      </trkpt>
      <trkpt lat="45.92557" lon="4.72989">
        <ele>169</ele>
        <time>2018-07-24T10:52:42Z</time>
      </trkpt>
      <trkpt lat="45.92552" lon="4.72992">
        <ele>169</ele>
        <time>2018-07-24T10:52:43Z</time>
      </trkpt>
      <trkpt lat="45.92548" lon="4.72999">
        <ele>169</ele>
        <time>2018-07-24T10:52:44Z</time>
      </trkpt>
      <trkpt lat="45.92543" lon="4.73005">
        <ele>169</ele>
        <time>2018-07-24T10:52:45Z</time>
      </trkpt>
      <trkpt lat="45.92538" lon="4.73008">
        <ele>169</ele>
        <time>2018-07-24T10:52:46Z</time>
      </trkpt>
      <trkpt lat="45.92534" lon="4.73011">
        <ele>169</ele>
        <time>2018-07-24T10:52:47Z</time>
      </trkpt>
      <trkpt lat="45.92528" lon="4.73018">
        <ele>169</ele>
        <time>2018-07-24T10:52:48Z</time>
      </trkpt>
      <trkpt lat="45.92524" lon="4.73022">
        <ele>169</ele>
        <time>2018-07-24T10:52:49Z</time>
      </trkpt>
      <trkpt lat="45.92519" lon="4.73028">
        <ele>169</ele>
        <time>2018-07-24T10:52:50Z</time>
      </trkpt>
      <trkpt lat="45.92511" lon="4.73032">
        <ele>169</ele>
        <time>2018-07-24T10:52:52Z</time>
      </trkpt>
      <trkpt lat="45.92506" lon="4.73033">
        <ele>169</ele>
        <time>2018-07-24T10:52:53Z</time>
      </trkpt>
      <trkpt lat="45.925" lon="4.73041">
        <ele>169</ele>
        <time>2018-07-24T10:52:54Z</time>
      </trkpt>
      <trkpt lat="45.92497" lon="4.7305">
        <ele>170</ele>
        <time>2018-07-24T10:52:55Z</time>
      </trkpt>
      <trkpt lat="45.92492" lon="4.73056">
        <ele>170</ele>
        <time>2018-07-24T10:52:56Z</time>
      </trkpt>
      <trkpt lat="45.92487" lon="4.73062">
        <ele>170</ele>
        <time>2018-07-24T10:52:57Z</time>
      </trkpt>
      <trkpt lat="45.92482" lon="4.73066">
        <ele>170</ele>
        <time>2018-07-24T10:52:58Z</time>
      </trkpt>
      <trkpt lat="45.92477" lon="4.73071">
        <ele>170</ele>
        <time>2018-07-24T10:52:59Z</time>
      </trkpt>
      <trkpt lat="45.92472" lon="4.73075">
        <ele>170</ele>
        <time>2018-07-24T10:53:00Z</time>
      </trkpt>
      <trkpt lat="45.92467" lon="4.73079">
        <ele>170</ele>
        <time>2018-07-24T10:53:01Z</time>
      </trkpt>
      <trkpt lat="45.92463" lon="4.73083">
        <ele>170</ele>
        <time>2018-07-24T10:53:02Z</time>
      </trkpt>
      <trkpt lat="45.92459" lon="4.73086">
        <ele>170</ele>
        <time>2018-07-24T10:53:03Z</time>
      </trkpt>
      <trkpt lat="45.92455" lon="4.73088">
        <ele>170</ele>
        <time>2018-07-24T10:53:04Z</time>
      </trkpt>
      <trkpt lat="45.92451" lon="4.73091">
        <ele>170</ele>
        <time>2018-07-24T10:53:05Z</time>
      </trkpt>
      <trkpt lat="45.92442" lon="4.73094">
        <ele>170</ele>
        <time>2018-07-24T10:53:07Z</time>
      </trkpt>
      <trkpt lat="45.92439" lon="4.73102">
        <ele>170</ele>
        <time>2018-07-24T10:53:08Z</time>
      </trkpt>
      <trkpt lat="45.92431" lon="4.73105">
        <ele>170</ele>
        <time>2018-07-24T10:53:10Z</time>
      </trkpt>
      <trkpt lat="45.92427" lon="4.73109">
        <ele>170</ele>
        <time>2018-07-24T10:53:11Z</time>
      </trkpt>
      <trkpt lat="45.92419" lon="4.73114">
        <ele>170</ele>
        <time>2018-07-24T10:53:13Z</time>
      </trkpt>
      <trkpt lat="45.92416" lon="4.73114">
        <ele>171</ele>
        <time>2018-07-24T10:53:14Z</time>
      </trkpt>
      <trkpt lat="45.92412" lon="4.73124">
        <ele>171</ele>
        <time>2018-07-24T10:53:16Z</time>
      </trkpt>
      <trkpt lat="45.92412" lon="4.73132">
        <ele>171</ele>
        <time>2018-07-24T10:53:17Z</time>
      </trkpt>
      <trkpt lat="45.9241" lon="4.7314">
        <ele>171</ele>
        <time>2018-07-24T10:53:18Z</time>
      </trkpt>
      <trkpt lat="45.9241" lon="4.73148">
        <ele>171</ele>
        <time>2018-07-24T10:53:19Z</time>
      </trkpt>
      <trkpt lat="45.9241" lon="4.73157">
        <ele>170</ele>
        <time>2018-07-24T10:53:20Z</time>
      </trkpt>
      <trkpt lat="45.92409" lon="4.73164">
        <ele>170</ele>
        <time>2018-07-24T10:53:21Z</time>
      </trkpt>
      <trkpt lat="45.9241" lon="4.73172">
        <ele>170</ele>
        <time>2018-07-24T10:53:22Z</time>
      </trkpt>
      <trkpt lat="45.92411" lon="4.73181">
        <ele>171</ele>
        <time>2018-07-24T10:53:23Z</time>
      </trkpt>
      <trkpt lat="45.92411" lon="4.73188">
        <ele>171</ele>
        <time>2018-07-24T10:53:24Z</time>
      </trkpt>
      <trkpt lat="45.92412" lon="4.73196">
        <ele>171</ele>
        <time>2018-07-24T10:53:25Z</time>
      </trkpt>
      <trkpt lat="45.92412" lon="4.73204">
        <ele>171</ele>
        <time>2018-07-24T10:53:26Z</time>
      </trkpt>
      <trkpt lat="45.92412" lon="4.73212">
        <ele>171</ele>
        <time>2018-07-24T10:53:27Z</time>
      </trkpt>
      <trkpt lat="45.92414" lon="4.73222">
        <ele>171</ele>
        <time>2018-07-24T10:53:28Z</time>
      </trkpt>
      <trkpt lat="45.92415" lon="4.7323">
        <ele>171</ele>
        <time>2018-07-24T10:53:29Z</time>
      </trkpt>
      <trkpt lat="45.92415" lon="4.73238">
        <ele>171</ele>
        <time>2018-07-24T10:53:30Z</time>
      </trkpt>
      <trkpt lat="45.92415" lon="4.73247">
        <ele>171</ele>
        <time>2018-07-24T10:53:31Z</time>
      </trkpt>
      <trkpt lat="45.92415" lon="4.73255">
        <ele>171</ele>
        <time>2018-07-24T10:53:32Z</time>
      </trkpt>
      <trkpt lat="45.92415" lon="4.73264">
        <ele>171</ele>
        <time>2018-07-24T10:53:33Z</time>
      </trkpt>
      <trkpt lat="45.92416" lon="4.73272">
        <ele>171</ele>
        <time>2018-07-24T10:53:34Z</time>
      </trkpt>
      <trkpt lat="45.92416" lon="4.7328">
        <ele>171</ele>
        <time>2018-07-24T10:53:35Z</time>
      </trkpt>
      <trkpt lat="45.92416" lon="4.73286">
        <ele>171</ele>
        <time>2018-07-24T10:53:36Z</time>
      </trkpt>
      <trkpt lat="45.92416" lon="4.73294">
        <ele>171</ele>
        <time>2018-07-24T10:53:37Z</time>
      </trkpt>
      <trkpt lat="45.92417" lon="4.73302">
        <ele>171</ele>
        <time>2018-07-24T10:53:38Z</time>
      </trkpt>
      <trkpt lat="45.92417" lon="4.73311">
        <ele>171</ele>
        <time>2018-07-24T10:53:39Z</time>
      </trkpt>
      <trkpt lat="45.92419" lon="4.73319">
        <ele>171</ele>
        <time>2018-07-24T10:53:40Z</time>
      </trkpt>
      <trkpt lat="45.9242" lon="4.73327">
        <ele>171</ele>
        <time>2018-07-24T10:53:41Z</time>
      </trkpt>
      <trkpt lat="45.9242" lon="4.73335">
        <ele>171</ele>
        <time>2018-07-24T10:53:42Z</time>
      </trkpt>
      <trkpt lat="45.92422" lon="4.73344">
        <ele>171</ele>
        <time>2018-07-24T10:53:43Z</time>
      </trkpt>
      <trkpt lat="45.92423" lon="4.73352">
        <ele>171</ele>
        <time>2018-07-24T10:53:44Z</time>
      </trkpt>
      <trkpt lat="45.92424" lon="4.73359">
        <ele>171</ele>
        <time>2018-07-24T10:53:45Z</time>
      </trkpt>
      <trkpt lat="45.92424" lon="4.73366">
        <ele>172</ele>
        <time>2018-07-24T10:53:46Z</time>
      </trkpt>
      <trkpt lat="45.92425" lon="4.73373">
        <ele>172</ele>
        <time>2018-07-24T10:53:47Z</time>
      </trkpt>
      <trkpt lat="45.92426" lon="4.73381">
        <ele>172</ele>
        <time>2018-07-24T10:53:48Z</time>
      </trkpt>
      <trkpt lat="45.92428" lon="4.73387">
        <ele>172</ele>
        <time>2018-07-24T10:53:49Z</time>
      </trkpt>
      <trkpt lat="45.9243" lon="4.73395">
        <ele>172</ele>
        <time>2018-07-24T10:53:50Z</time>
      </trkpt>
      <trkpt lat="45.92431" lon="4.73402">
        <ele>172</ele>
        <time>2018-07-24T10:53:51Z</time>
      </trkpt>
      <trkpt lat="45.92436" lon="4.73413">
        <ele>172</ele>
        <time>2018-07-24T10:53:53Z</time>
      </trkpt>
      <trkpt lat="45.9244" lon="4.73417">
        <ele>173</ele>
        <time>2018-07-24T10:53:54Z</time>
      </trkpt>
      <trkpt lat="45.92444" lon="4.7342">
        <ele>173</ele>
        <time>2018-07-24T10:53:55Z</time>
      </trkpt>
      <trkpt lat="45.92449" lon="4.73421">
        <ele>173</ele>
        <time>2018-07-24T10:53:56Z</time>
      </trkpt>
      <trkpt lat="45.92453" lon="4.73425">
        <ele>173</ele>
        <time>2018-07-24T10:53:57Z</time>
      </trkpt>
      <trkpt lat="45.92457" lon="4.7343">
        <ele>173</ele>
        <time>2018-07-24T10:53:58Z</time>
      </trkpt>
      <trkpt lat="45.92461" lon="4.73434">
        <ele>173</ele>
        <time>2018-07-24T10:53:59Z</time>
      </trkpt>
      <trkpt lat="45.92464" lon="4.7344">
        <ele>173</ele>
        <time>2018-07-24T10:54:00Z</time>
      </trkpt>
      <trkpt lat="45.92467" lon="4.73448">
        <ele>173</ele>
        <time>2018-07-24T10:54:01Z</time>
      </trkpt>
      <trkpt lat="45.9247" lon="4.73455">
        <ele>173</ele>
        <time>2018-07-24T10:54:02Z</time>
      </trkpt>
      <trkpt lat="45.92471" lon="4.73462">
        <ele>173</ele>
        <time>2018-07-24T10:54:03Z</time>
      </trkpt>
      <trkpt lat="45.92473" lon="4.7347">
        <ele>173</ele>
        <time>2018-07-24T10:54:04Z</time>
      </trkpt>
      <trkpt lat="45.92474" lon="4.73477">
        <ele>173</ele>
        <time>2018-07-24T10:54:05Z</time>
      </trkpt>
      <trkpt lat="45.92474" lon="4.73486">
        <ele>173</ele>
        <time>2018-07-24T10:54:06Z</time>
      </trkpt>
      <trkpt lat="45.92472" lon="4.73492">
        <ele>173</ele>
        <time>2018-07-24T10:54:07Z</time>
      </trkpt>
      <trkpt lat="45.92472" lon="4.73499">
        <ele>173</ele>
        <time>2018-07-24T10:54:08Z</time>
      </trkpt>
      <trkpt lat="45.92473" lon="4.73508">
        <ele>174</ele>
        <time>2018-07-24T10:54:09Z</time>
      </trkpt>
      <trkpt lat="45.92472" lon="4.73515">
        <ele>174</ele>
        <time>2018-07-24T10:54:10Z</time>
      </trkpt>
      <trkpt lat="45.92471" lon="4.73522">
        <ele>174</ele>
        <time>2018-07-24T10:54:11Z</time>
      </trkpt>
      <trkpt lat="45.92471" lon="4.7353">
        <ele>174</ele>
        <time>2018-07-24T10:54:12Z</time>
      </trkpt>
      <trkpt lat="45.9247" lon="4.73537">
        <ele>174</ele>
        <time>2018-07-24T10:54:13Z</time>
      </trkpt>
      <trkpt lat="45.92469" lon="4.73543">
        <ele>173</ele>
        <time>2018-07-24T10:54:14Z</time>
      </trkpt>
      <trkpt lat="45.92469" lon="4.7355">
        <ele>173</ele>
        <time>2018-07-24T10:54:15Z</time>
      </trkpt>
      <trkpt lat="45.92469" lon="4.73557">
        <ele>173</ele>
        <time>2018-07-24T10:54:16Z</time>
      </trkpt>
      <trkpt lat="45.92468" lon="4.73564">
        <ele>173</ele>
        <time>2018-07-24T10:54:17Z</time>
      </trkpt>
      <trkpt lat="45.92468" lon="4.73572">
        <ele>173</ele>
        <time>2018-07-24T10:54:18Z</time>
      </trkpt>
      <trkpt lat="45.92467" lon="4.73579">
        <ele>173</ele>
        <time>2018-07-24T10:54:19Z</time>
      </trkpt>
      <trkpt lat="45.92468" lon="4.73587">
        <ele>174</ele>
        <time>2018-07-24T10:54:20Z</time>
      </trkpt>
      <trkpt lat="45.92469" lon="4.73594">
        <ele>174</ele>
        <time>2018-07-24T10:54:21Z</time>
      </trkpt>
      <trkpt lat="45.9247" lon="4.73602">
        <ele>174</ele>
        <time>2018-07-24T10:54:22Z</time>
      </trkpt>
      <trkpt lat="45.9247" lon="4.7361">
        <ele>174</ele>
        <time>2018-07-24T10:54:23Z</time>
      </trkpt>
      <trkpt lat="45.92469" lon="4.73618">
        <ele>174</ele>
        <time>2018-07-24T10:54:24Z</time>
      </trkpt>
      <trkpt lat="45.92469" lon="4.73627">
        <ele>174</ele>
        <time>2018-07-24T10:54:25Z</time>
      </trkpt>
      <trkpt lat="45.92469" lon="4.73633">
        <ele>174</ele>
        <time>2018-07-24T10:54:26Z</time>
      </trkpt>
      <trkpt lat="45.92469" lon="4.7364">
        <ele>174</ele>
        <time>2018-07-24T10:54:27Z</time>
      </trkpt>
      <trkpt lat="45.92469" lon="4.73648">
        <ele>174</ele>
        <time>2018-07-24T10:54:28Z</time>
      </trkpt>
      <trkpt lat="45.92469" lon="4.73655">
        <ele>174</ele>
        <time>2018-07-24T10:54:29Z</time>
      </trkpt>
      <trkpt lat="45.92468" lon="4.73662">
        <ele>174</ele>
        <time>2018-07-24T10:54:30Z</time>
      </trkpt>
      <trkpt lat="45.92468" lon="4.73674">
        <ele>174</ele>
        <time>2018-07-24T10:54:32Z</time>
      </trkpt>
      <trkpt lat="45.92467" lon="4.7368">
        <ele>174</ele>
        <time>2018-07-24T10:54:33Z</time>
      </trkpt>
      <trkpt lat="45.92465" lon="4.73689">
        <ele>174</ele>
        <time>2018-07-24T10:54:35Z</time>
      </trkpt>
      <trkpt lat="45.92464" lon="4.73695">
        <ele>174</ele>
        <time>2018-07-24T10:54:36Z</time>
      </trkpt>
      <trkpt lat="45.92464" lon="4.73707">
        <ele>174</ele>
        <time>2018-07-24T10:54:50Z</time>
      </trkpt>
      <trkpt lat="45.92463" lon="4.73707">
        <ele>174</ele>
        <time>2018-07-24T10:54:51Z</time>
      </trkpt>
      <trkpt lat="45.92466" lon="4.73709">
        <ele>174</ele>
        <time>2018-07-24T10:54:59Z</time>
      </trkpt>
      <trkpt lat="45.92466" lon="4.7371">
        <ele>174</ele>
        <time>2018-07-24T10:55:00Z</time>
      </trkpt>
      <trkpt lat="45.92465" lon="4.73714">
        <ele>174</ele>
        <time>2018-07-24T10:55:13.394Z</time>
      </trkpt>
    </trkseg>
  </trk>
</gpx>